<?xml version="1.0" encoding="UTF-8" standalone="no" ?>
<gpx xmlns="http://www.topografix.com/GPX/1/1" xmlns:xsi="http://www.w3.org/2001/XMLSchema-instance" xsi:schemaLocation="http://www.topografix.com/GPX/1/1 http://www.topografix.com/GPX/1/1/gpx.xsd" version="1.1" creator="VisuGPX - https://www.visugpx.com">
  <metadata>
    <name>Les Gorges de l\'Aveyron entre Penne, Bruniquel et Grésigne</name>
    <desc><![CDATA[Très beau parcours autour des Gorges de l\'Aveyron. Pour la seconde partie du tracé, les ombrages de la Forêt de Grésigne ont fait du bien.]]></desc>
  </metadata>
  <trk>
    <name><![CDATA[Les Gorges de l\'Aveyron entre Penne, Bruniquel et Grésigne_1]]></name>
    <trkseg>
      <trkpt lat="44.0533" lon="1.7461">
        <ele>453</ele>
        <time>2011-06-26T11:52:03Z</time>
      </trkpt>
      <trkpt lat="44.05359" lon="1.74609">
        <ele>451</ele>
        <time>2011-06-26T11:52:16Z</time>
      </trkpt>
      <trkpt lat="44.05367" lon="1.74598">
        <ele>450</ele>
        <time>2011-06-26T11:52:18Z</time>
      </trkpt>
      <trkpt lat="44.05374" lon="1.74581">
        <ele>449</ele>
        <time>2011-06-26T11:52:20Z</time>
      </trkpt>
      <trkpt lat="44.05386" lon="1.74565">
        <ele>448</ele>
        <time>2011-06-26T11:52:22Z</time>
      </trkpt>
      <trkpt lat="44.05402" lon="1.74553">
        <ele>446</ele>
        <time>2011-06-26T11:52:24Z</time>
      </trkpt>
      <trkpt lat="44.05418" lon="1.74548">
        <ele>446</ele>
        <time>2011-06-26T11:52:26Z</time>
      </trkpt>
      <trkpt lat="44.05432" lon="1.74546">
        <ele>444</ele>
        <time>2011-06-26T11:52:28Z</time>
      </trkpt>
      <trkpt lat="44.05445" lon="1.74537">
        <ele>443</ele>
        <time>2011-06-26T11:52:30Z</time>
      </trkpt>
      <trkpt lat="44.05453" lon="1.74521">
        <ele>441</ele>
        <time>2011-06-26T11:52:32Z</time>
      </trkpt>
      <trkpt lat="44.05459" lon="1.74498">
        <ele>439</ele>
        <time>2011-06-26T11:52:34Z</time>
      </trkpt>
      <trkpt lat="44.05466" lon="1.74474">
        <ele>437</ele>
        <time>2011-06-26T11:52:36Z</time>
      </trkpt>
      <trkpt lat="44.05471" lon="1.74448">
        <ele>435</ele>
        <time>2011-06-26T11:52:38Z</time>
      </trkpt>
      <trkpt lat="44.05474" lon="1.74422">
        <ele>433</ele>
        <time>2011-06-26T11:52:40Z</time>
      </trkpt>
      <trkpt lat="44.05477" lon="1.74399">
        <ele>431</ele>
        <time>2011-06-26T11:52:42Z</time>
      </trkpt>
      <trkpt lat="44.05478" lon="1.74379">
        <ele>431</ele>
        <time>2011-06-26T11:52:44Z</time>
      </trkpt>
      <trkpt lat="44.05478" lon="1.74362">
        <ele>430</ele>
        <time>2011-06-26T11:52:46Z</time>
      </trkpt>
      <trkpt lat="44.05484" lon="1.7435">
        <ele>430</ele>
        <time>2011-06-26T11:52:48Z</time>
      </trkpt>
      <trkpt lat="44.05493" lon="1.74341">
        <ele>430</ele>
        <time>2011-06-26T11:52:50Z</time>
      </trkpt>
      <trkpt lat="44.055" lon="1.74334">
        <ele>430</ele>
        <time>2011-06-26T11:52:52Z</time>
      </trkpt>
      <trkpt lat="44.05508" lon="1.74326">
        <ele>430</ele>
        <time>2011-06-26T11:52:54Z</time>
      </trkpt>
      <trkpt lat="44.05517" lon="1.74319">
        <ele>430</ele>
        <time>2011-06-26T11:52:56Z</time>
      </trkpt>
      <trkpt lat="44.05525" lon="1.74311">
        <ele>430</ele>
        <time>2011-06-26T11:52:58Z</time>
      </trkpt>
      <trkpt lat="44.05534" lon="1.74304">
        <ele>430</ele>
        <time>2011-06-26T11:53:00Z</time>
      </trkpt>
      <trkpt lat="44.05543" lon="1.74298">
        <ele>430</ele>
        <time>2011-06-26T11:53:02Z</time>
      </trkpt>
      <trkpt lat="44.05553" lon="1.74294">
        <ele>430</ele>
        <time>2011-06-26T11:53:04Z</time>
      </trkpt>
      <trkpt lat="44.05563" lon="1.7429">
        <ele>430</ele>
        <time>2011-06-26T11:53:06Z</time>
      </trkpt>
      <trkpt lat="44.05572" lon="1.74286">
        <ele>430</ele>
        <time>2011-06-26T11:53:08Z</time>
      </trkpt>
      <trkpt lat="44.05581" lon="1.74282">
        <ele>430</ele>
        <time>2011-06-26T11:53:10Z</time>
      </trkpt>
      <trkpt lat="44.0559" lon="1.74278">
        <ele>430</ele>
        <time>2011-06-26T11:53:12Z</time>
      </trkpt>
      <trkpt lat="44.05599" lon="1.74274">
        <ele>431</ele>
        <time>2011-06-26T11:53:14Z</time>
      </trkpt>
      <trkpt lat="44.05608" lon="1.74268">
        <ele>431</ele>
        <time>2011-06-26T11:53:16Z</time>
      </trkpt>
      <trkpt lat="44.05617" lon="1.74262">
        <ele>432</ele>
        <time>2011-06-26T11:53:18Z</time>
      </trkpt>
      <trkpt lat="44.05627" lon="1.74256">
        <ele>432</ele>
        <time>2011-06-26T11:53:20Z</time>
      </trkpt>
      <trkpt lat="44.05638" lon="1.7425">
        <ele>432</ele>
        <time>2011-06-26T11:53:22Z</time>
      </trkpt>
      <trkpt lat="44.05652" lon="1.74247">
        <ele>432</ele>
        <time>2011-06-26T11:53:24Z</time>
      </trkpt>
      <trkpt lat="44.05665" lon="1.74242">
        <ele>432</ele>
        <time>2011-06-26T11:53:26Z</time>
      </trkpt>
      <trkpt lat="44.05677" lon="1.74231">
        <ele>432</ele>
        <time>2011-06-26T11:53:28Z</time>
      </trkpt>
      <trkpt lat="44.05689" lon="1.74223">
        <ele>432</ele>
        <time>2011-06-26T11:53:30Z</time>
      </trkpt>
      <trkpt lat="44.05703" lon="1.74225">
        <ele>432</ele>
        <time>2011-06-26T11:53:32Z</time>
      </trkpt>
      <trkpt lat="44.05719" lon="1.74231">
        <ele>432</ele>
        <time>2011-06-26T11:53:34Z</time>
      </trkpt>
      <trkpt lat="44.05736" lon="1.74235">
        <ele>432</ele>
        <time>2011-06-26T11:53:36Z</time>
      </trkpt>
      <trkpt lat="44.05753" lon="1.74233">
        <ele>430</ele>
        <time>2011-06-26T11:53:38Z</time>
      </trkpt>
      <trkpt lat="44.05769" lon="1.74225">
        <ele>429</ele>
        <time>2011-06-26T11:53:40Z</time>
      </trkpt>
      <trkpt lat="44.05783" lon="1.74214">
        <ele>428</ele>
        <time>2011-06-26T11:53:42Z</time>
      </trkpt>
      <trkpt lat="44.05796" lon="1.74198">
        <ele>428</ele>
        <time>2011-06-26T11:53:44Z</time>
      </trkpt>
      <trkpt lat="44.05806" lon="1.7418">
        <ele>428</ele>
        <time>2011-06-26T11:53:46Z</time>
      </trkpt>
      <trkpt lat="44.05816" lon="1.74161">
        <ele>428</ele>
        <time>2011-06-26T11:53:48Z</time>
      </trkpt>
      <trkpt lat="44.05825" lon="1.7414">
        <ele>428</ele>
        <time>2011-06-26T11:53:50Z</time>
      </trkpt>
      <trkpt lat="44.05832" lon="1.74116">
        <ele>427</ele>
        <time>2011-06-26T11:53:52Z</time>
      </trkpt>
      <trkpt lat="44.05843" lon="1.74075">
        <ele>426</ele>
        <time>2011-06-26T11:53:54Z</time>
      </trkpt>
      <trkpt lat="44.05852" lon="1.74047">
        <ele>424</ele>
        <time>2011-06-26T11:53:56Z</time>
      </trkpt>
      <trkpt lat="44.05863" lon="1.7402">
        <ele>422</ele>
        <time>2011-06-26T11:53:58Z</time>
      </trkpt>
      <trkpt lat="44.05875" lon="1.73989">
        <ele>420</ele>
        <time>2011-06-26T11:54:00Z</time>
      </trkpt>
      <trkpt lat="44.05887" lon="1.73956">
        <ele>418</ele>
        <time>2011-06-26T11:54:02Z</time>
      </trkpt>
      <trkpt lat="44.05899" lon="1.73921">
        <ele>416</ele>
        <time>2011-06-26T11:54:04Z</time>
      </trkpt>
      <trkpt lat="44.05912" lon="1.73886">
        <ele>414</ele>
        <time>2011-06-26T11:54:06Z</time>
      </trkpt>
      <trkpt lat="44.05924" lon="1.7385">
        <ele>410</ele>
        <time>2011-06-26T11:54:08Z</time>
      </trkpt>
      <trkpt lat="44.05936" lon="1.73816">
        <ele>406</ele>
        <time>2011-06-26T11:54:10Z</time>
      </trkpt>
      <trkpt lat="44.05948" lon="1.73787">
        <ele>402</ele>
        <time>2011-06-26T11:54:12Z</time>
      </trkpt>
      <trkpt lat="44.05961" lon="1.73766">
        <ele>398</ele>
        <time>2011-06-26T11:54:15Z</time>
      </trkpt>
      <trkpt lat="44.05978" lon="1.7376">
        <ele>394</ele>
        <time>2011-06-26T11:54:17Z</time>
      </trkpt>
      <trkpt lat="44.05996" lon="1.7377">
        <ele>390</ele>
        <time>2011-06-26T11:54:19Z</time>
      </trkpt>
      <trkpt lat="44.06025" lon="1.73801">
        <ele>384</ele>
        <time>2011-06-26T11:54:21Z</time>
      </trkpt>
      <trkpt lat="44.06045" lon="1.73822">
        <ele>380</ele>
        <time>2011-06-26T11:54:23Z</time>
      </trkpt>
      <trkpt lat="44.06067" lon="1.73842">
        <ele>376</ele>
        <time>2011-06-26T11:54:25Z</time>
      </trkpt>
      <trkpt lat="44.0609" lon="1.73858">
        <ele>374</ele>
        <time>2011-06-26T11:54:27Z</time>
      </trkpt>
      <trkpt lat="44.06115" lon="1.73865">
        <ele>371</ele>
        <time>2011-06-26T11:54:29Z</time>
      </trkpt>
      <trkpt lat="44.0614" lon="1.73865">
        <ele>369</ele>
        <time>2011-06-26T11:54:31Z</time>
      </trkpt>
      <trkpt lat="44.06163" lon="1.73859">
        <ele>367</ele>
        <time>2011-06-26T11:54:33Z</time>
      </trkpt>
      <trkpt lat="44.06184" lon="1.73851">
        <ele>365</ele>
        <time>2011-06-26T11:54:36Z</time>
      </trkpt>
      <trkpt lat="44.06197" lon="1.73845">
        <ele>363</ele>
        <time>2011-06-26T11:54:38Z</time>
      </trkpt>
      <trkpt lat="44.06209" lon="1.73846">
        <ele>361</ele>
        <time>2011-06-26T11:54:40Z</time>
      </trkpt>
      <trkpt lat="44.06225" lon="1.73851">
        <ele>359</ele>
        <time>2011-06-26T11:54:42Z</time>
      </trkpt>
      <trkpt lat="44.06242" lon="1.73851">
        <ele>357</ele>
        <time>2011-06-26T11:54:44Z</time>
      </trkpt>
      <trkpt lat="44.06259" lon="1.73851">
        <ele>355</ele>
        <time>2011-06-26T11:54:46Z</time>
      </trkpt>
      <trkpt lat="44.06274" lon="1.73858">
        <ele>353</ele>
        <time>2011-06-26T11:54:48Z</time>
      </trkpt>
      <trkpt lat="44.0629" lon="1.73873">
        <ele>351</ele>
        <time>2011-06-26T11:54:50Z</time>
      </trkpt>
      <trkpt lat="44.06305" lon="1.73893">
        <ele>349</ele>
        <time>2011-06-26T11:54:52Z</time>
      </trkpt>
      <trkpt lat="44.06332" lon="1.73918">
        <ele>345</ele>
        <time>2011-06-26T11:54:54Z</time>
      </trkpt>
      <trkpt lat="44.06351" lon="1.73928">
        <ele>342</ele>
        <time>2011-06-26T11:54:57Z</time>
      </trkpt>
      <trkpt lat="44.0638" lon="1.73925">
        <ele>337</ele>
        <time>2011-06-26T11:55:00Z</time>
      </trkpt>
      <trkpt lat="44.06398" lon="1.73921">
        <ele>334</ele>
        <time>2011-06-26T11:55:02Z</time>
      </trkpt>
      <trkpt lat="44.06416" lon="1.7392">
        <ele>332</ele>
        <time>2011-06-26T11:55:04Z</time>
      </trkpt>
      <trkpt lat="44.06434" lon="1.73923">
        <ele>330</ele>
        <time>2011-06-26T11:55:06Z</time>
      </trkpt>
      <trkpt lat="44.06451" lon="1.73931">
        <ele>328</ele>
        <time>2011-06-26T11:55:08Z</time>
      </trkpt>
      <trkpt lat="44.06466" lon="1.73939">
        <ele>326</ele>
        <time>2011-06-26T11:55:10Z</time>
      </trkpt>
      <trkpt lat="44.06481" lon="1.73942">
        <ele>324</ele>
        <time>2011-06-26T11:55:12Z</time>
      </trkpt>
      <trkpt lat="44.06497" lon="1.7394">
        <ele>322</ele>
        <time>2011-06-26T11:55:14Z</time>
      </trkpt>
      <trkpt lat="44.06512" lon="1.73934">
        <ele>320</ele>
        <time>2011-06-26T11:55:16Z</time>
      </trkpt>
      <trkpt lat="44.06529" lon="1.73929">
        <ele>318</ele>
        <time>2011-06-26T11:55:18Z</time>
      </trkpt>
      <trkpt lat="44.06547" lon="1.73919">
        <ele>316</ele>
        <time>2011-06-26T11:55:20Z</time>
      </trkpt>
      <trkpt lat="44.06564" lon="1.73905">
        <ele>313</ele>
        <time>2011-06-26T11:55:22Z</time>
      </trkpt>
      <trkpt lat="44.06581" lon="1.73889">
        <ele>311</ele>
        <time>2011-06-26T11:55:24Z</time>
      </trkpt>
      <trkpt lat="44.06596" lon="1.73872">
        <ele>309</ele>
        <time>2011-06-26T11:55:26Z</time>
      </trkpt>
      <trkpt lat="44.0661" lon="1.73859">
        <ele>306</ele>
        <time>2011-06-26T11:55:28Z</time>
      </trkpt>
      <trkpt lat="44.06626" lon="1.7385">
        <ele>304</ele>
        <time>2011-06-26T11:55:30Z</time>
      </trkpt>
      <trkpt lat="44.06641" lon="1.73842">
        <ele>302</ele>
        <time>2011-06-26T11:55:32Z</time>
      </trkpt>
      <trkpt lat="44.06657" lon="1.73838">
        <ele>300</ele>
        <time>2011-06-26T11:55:34Z</time>
      </trkpt>
      <trkpt lat="44.06676" lon="1.73844">
        <ele>298</ele>
        <time>2011-06-26T11:55:36Z</time>
      </trkpt>
      <trkpt lat="44.06694" lon="1.73848">
        <ele>296</ele>
        <time>2011-06-26T11:55:38Z</time>
      </trkpt>
      <trkpt lat="44.06712" lon="1.73854">
        <ele>294</ele>
        <time>2011-06-26T11:55:40Z</time>
      </trkpt>
      <trkpt lat="44.06723" lon="1.73866">
        <ele>292</ele>
        <time>2011-06-26T11:55:42Z</time>
      </trkpt>
      <trkpt lat="44.06735" lon="1.7388">
        <ele>290</ele>
        <time>2011-06-26T11:55:44Z</time>
      </trkpt>
      <trkpt lat="44.06747" lon="1.73892">
        <ele>288</ele>
        <time>2011-06-26T11:55:46Z</time>
      </trkpt>
      <trkpt lat="44.06761" lon="1.73902">
        <ele>286</ele>
        <time>2011-06-26T11:55:48Z</time>
      </trkpt>
      <trkpt lat="44.06774" lon="1.73909">
        <ele>284</ele>
        <time>2011-06-26T11:55:50Z</time>
      </trkpt>
      <trkpt lat="44.06789" lon="1.73913">
        <ele>282</ele>
        <time>2011-06-26T11:55:52Z</time>
      </trkpt>
      <trkpt lat="44.06807" lon="1.73913">
        <ele>279</ele>
        <time>2011-06-26T11:55:54Z</time>
      </trkpt>
      <trkpt lat="44.06825" lon="1.73909">
        <ele>275</ele>
        <time>2011-06-26T11:55:56Z</time>
      </trkpt>
      <trkpt lat="44.06843" lon="1.73907">
        <ele>271</ele>
        <time>2011-06-26T11:55:58Z</time>
      </trkpt>
      <trkpt lat="44.0686" lon="1.73905">
        <ele>268</ele>
        <time>2011-06-26T11:56:00Z</time>
      </trkpt>
      <trkpt lat="44.06876" lon="1.73903">
        <ele>265</ele>
        <time>2011-06-26T11:56:02Z</time>
      </trkpt>
      <trkpt lat="44.06898" lon="1.73903">
        <ele>261</ele>
        <time>2011-06-26T11:56:05Z</time>
      </trkpt>
      <trkpt lat="44.06914" lon="1.73899">
        <ele>259</ele>
        <time>2011-06-26T11:56:07Z</time>
      </trkpt>
      <trkpt lat="44.06931" lon="1.73894">
        <ele>257</ele>
        <time>2011-06-26T11:56:09Z</time>
      </trkpt>
      <trkpt lat="44.06947" lon="1.73892">
        <ele>255</ele>
        <time>2011-06-26T11:56:11Z</time>
      </trkpt>
      <trkpt lat="44.06961" lon="1.73889">
        <ele>253</ele>
        <time>2011-06-26T11:56:13Z</time>
      </trkpt>
      <trkpt lat="44.06976" lon="1.73883">
        <ele>251</ele>
        <time>2011-06-26T11:56:15Z</time>
      </trkpt>
      <trkpt lat="44.0699" lon="1.73875">
        <ele>249</ele>
        <time>2011-06-26T11:56:17Z</time>
      </trkpt>
      <trkpt lat="44.07004" lon="1.73866">
        <ele>248</ele>
        <time>2011-06-26T11:56:19Z</time>
      </trkpt>
      <trkpt lat="44.07017" lon="1.73859">
        <ele>247</ele>
        <time>2011-06-26T11:56:21Z</time>
      </trkpt>
      <trkpt lat="44.07029" lon="1.73854">
        <ele>247</ele>
        <time>2011-06-26T11:56:23Z</time>
      </trkpt>
      <trkpt lat="44.07041" lon="1.73852">
        <ele>247</ele>
        <time>2011-06-26T11:56:25Z</time>
      </trkpt>
      <trkpt lat="44.07054" lon="1.73849">
        <ele>247</ele>
        <time>2011-06-26T11:56:27Z</time>
      </trkpt>
      <trkpt lat="44.07066" lon="1.73844">
        <ele>247</ele>
        <time>2011-06-26T11:56:29Z</time>
      </trkpt>
      <trkpt lat="44.07076" lon="1.73838">
        <ele>247</ele>
        <time>2011-06-26T11:56:31Z</time>
      </trkpt>
      <trkpt lat="44.07085" lon="1.73833">
        <ele>247</ele>
        <time>2011-06-26T11:56:33Z</time>
      </trkpt>
      <trkpt lat="44.07094" lon="1.73827">
        <ele>247</ele>
        <time>2011-06-26T11:56:35Z</time>
      </trkpt>
      <trkpt lat="44.07102" lon="1.7382">
        <ele>247</ele>
        <time>2011-06-26T11:56:37Z</time>
      </trkpt>
      <trkpt lat="44.07109" lon="1.73814">
        <ele>247</ele>
        <time>2011-06-26T11:56:39Z</time>
      </trkpt>
      <trkpt lat="44.07116" lon="1.73808">
        <ele>247</ele>
        <time>2011-06-26T11:56:41Z</time>
      </trkpt>
      <trkpt lat="44.07124" lon="1.73801">
        <ele>247</ele>
        <time>2011-06-26T11:56:43Z</time>
      </trkpt>
      <trkpt lat="44.07134" lon="1.73793">
        <ele>247</ele>
        <time>2011-06-26T11:56:45Z</time>
      </trkpt>
      <trkpt lat="44.07145" lon="1.73782">
        <ele>247</ele>
        <time>2011-06-26T11:56:47Z</time>
      </trkpt>
      <trkpt lat="44.07155" lon="1.73766">
        <ele>246</ele>
        <time>2011-06-26T11:56:49Z</time>
      </trkpt>
      <trkpt lat="44.07166" lon="1.73748">
        <ele>245</ele>
        <time>2011-06-26T11:56:51Z</time>
      </trkpt>
      <trkpt lat="44.07175" lon="1.73731">
        <ele>243</ele>
        <time>2011-06-26T11:56:53Z</time>
      </trkpt>
      <trkpt lat="44.07185" lon="1.73714">
        <ele>242</ele>
        <time>2011-06-26T11:56:55Z</time>
      </trkpt>
      <trkpt lat="44.07196" lon="1.73699">
        <ele>240</ele>
        <time>2011-06-26T11:56:57Z</time>
      </trkpt>
      <trkpt lat="44.07207" lon="1.73688">
        <ele>238</ele>
        <time>2011-06-26T11:56:59Z</time>
      </trkpt>
      <trkpt lat="44.07218" lon="1.73683">
        <ele>236</ele>
        <time>2011-06-26T11:57:01Z</time>
      </trkpt>
      <trkpt lat="44.0723" lon="1.73684">
        <ele>234</ele>
        <time>2011-06-26T11:57:03Z</time>
      </trkpt>
      <trkpt lat="44.07244" lon="1.73684">
        <ele>232</ele>
        <time>2011-06-26T11:57:05Z</time>
      </trkpt>
      <trkpt lat="44.0726" lon="1.73683">
        <ele>230</ele>
        <time>2011-06-26T11:57:07Z</time>
      </trkpt>
      <trkpt lat="44.07279" lon="1.73678">
        <ele>226</ele>
        <time>2011-06-26T11:57:09Z</time>
      </trkpt>
      <trkpt lat="44.07298" lon="1.73667">
        <ele>223</ele>
        <time>2011-06-26T11:57:11Z</time>
      </trkpt>
      <trkpt lat="44.07325" lon="1.73645">
        <ele>219</ele>
        <time>2011-06-26T11:57:14Z</time>
      </trkpt>
      <trkpt lat="44.0734" lon="1.73628">
        <ele>216</ele>
        <time>2011-06-26T11:57:16Z</time>
      </trkpt>
      <trkpt lat="44.07352" lon="1.7361">
        <ele>214</ele>
        <time>2011-06-26T11:57:18Z</time>
      </trkpt>
      <trkpt lat="44.07367" lon="1.73593">
        <ele>212</ele>
        <time>2011-06-26T11:57:20Z</time>
      </trkpt>
      <trkpt lat="44.07381" lon="1.73576">
        <ele>210</ele>
        <time>2011-06-26T11:57:22Z</time>
      </trkpt>
      <trkpt lat="44.07396" lon="1.73559">
        <ele>208</ele>
        <time>2011-06-26T11:57:24Z</time>
      </trkpt>
      <trkpt lat="44.0741" lon="1.73543">
        <ele>206</ele>
        <time>2011-06-26T11:57:26Z</time>
      </trkpt>
      <trkpt lat="44.07423" lon="1.73528">
        <ele>204</ele>
        <time>2011-06-26T11:57:28Z</time>
      </trkpt>
      <trkpt lat="44.07436" lon="1.73513">
        <ele>202</ele>
        <time>2011-06-26T11:57:30Z</time>
      </trkpt>
      <trkpt lat="44.07449" lon="1.735">
        <ele>200</ele>
        <time>2011-06-26T11:57:32Z</time>
      </trkpt>
      <trkpt lat="44.07461" lon="1.7349">
        <ele>198</ele>
        <time>2011-06-26T11:57:34Z</time>
      </trkpt>
      <trkpt lat="44.07471" lon="1.73483">
        <ele>196</ele>
        <time>2011-06-26T11:57:36Z</time>
      </trkpt>
      <trkpt lat="44.07479" lon="1.73481">
        <ele>194</ele>
        <time>2011-06-26T11:57:38Z</time>
      </trkpt>
      <trkpt lat="44.07482" lon="1.73484">
        <ele>192</ele>
        <time>2011-06-26T11:57:40Z</time>
      </trkpt>
      <trkpt lat="44.07481" lon="1.73488">
        <ele>190</ele>
        <time>2011-06-26T11:57:42Z</time>
      </trkpt>
      <trkpt lat="44.07479" lon="1.73493">
        <ele>188</ele>
        <time>2011-06-26T11:57:44Z</time>
      </trkpt>
      <trkpt lat="44.07476" lon="1.73497">
        <ele>188</ele>
        <time>2011-06-26T11:57:46Z</time>
      </trkpt>
      <trkpt lat="44.07475" lon="1.73501">
        <ele>188</ele>
        <time>2011-06-26T11:57:48Z</time>
      </trkpt>
      <trkpt lat="44.07474" lon="1.73508">
        <ele>188</ele>
        <time>2011-06-26T11:57:50Z</time>
      </trkpt>
      <trkpt lat="44.07472" lon="1.73513">
        <ele>188</ele>
        <time>2011-06-26T11:57:52Z</time>
      </trkpt>
      <trkpt lat="44.07472" lon="1.73519">
        <ele>188</ele>
        <time>2011-06-26T11:57:54Z</time>
      </trkpt>
      <trkpt lat="44.07471" lon="1.73524">
        <ele>188</ele>
        <time>2011-06-26T11:57:56Z</time>
      </trkpt>
      <trkpt lat="44.0747" lon="1.7353">
        <ele>188</ele>
        <time>2011-06-26T11:57:58Z</time>
      </trkpt>
      <trkpt lat="44.0747" lon="1.73537">
        <ele>188</ele>
        <time>2011-06-26T11:58:00Z</time>
      </trkpt>
      <trkpt lat="44.07469" lon="1.73542">
        <ele>188</ele>
        <time>2011-06-26T11:58:02Z</time>
      </trkpt>
      <trkpt lat="44.07469" lon="1.7355">
        <ele>188</ele>
        <time>2011-06-26T11:58:04Z</time>
      </trkpt>
      <trkpt lat="44.07468" lon="1.73558">
        <ele>188</ele>
        <time>2011-06-26T11:58:06Z</time>
      </trkpt>
      <trkpt lat="44.07468" lon="1.73565">
        <ele>188</ele>
        <time>2011-06-26T11:58:08Z</time>
      </trkpt>
      <trkpt lat="44.07467" lon="1.73573">
        <ele>188</ele>
        <time>2011-06-26T11:58:10Z</time>
      </trkpt>
      <trkpt lat="44.07467" lon="1.73581">
        <ele>188</ele>
        <time>2011-06-26T11:58:12Z</time>
      </trkpt>
      <trkpt lat="44.07466" lon="1.7359">
        <ele>188</ele>
        <time>2011-06-26T11:58:14Z</time>
      </trkpt>
      <trkpt lat="44.07466" lon="1.73599">
        <ele>188</ele>
        <time>2011-06-26T11:58:16Z</time>
      </trkpt>
      <trkpt lat="44.07465" lon="1.73608">
        <ele>188</ele>
        <time>2011-06-26T11:58:18Z</time>
      </trkpt>
      <trkpt lat="44.07465" lon="1.73617">
        <ele>188</ele>
        <time>2011-06-26T11:58:20Z</time>
      </trkpt>
      <trkpt lat="44.07465" lon="1.73628">
        <ele>188</ele>
        <time>2011-06-26T11:58:22Z</time>
      </trkpt>
      <trkpt lat="44.07463" lon="1.73639">
        <ele>188</ele>
        <time>2011-06-26T11:58:24Z</time>
      </trkpt>
      <trkpt lat="44.07462" lon="1.73651">
        <ele>188</ele>
        <time>2011-06-26T11:58:26Z</time>
      </trkpt>
      <trkpt lat="44.07462" lon="1.73663">
        <ele>188</ele>
        <time>2011-06-26T11:58:28Z</time>
      </trkpt>
      <trkpt lat="44.0746" lon="1.73676">
        <ele>188</ele>
        <time>2011-06-26T11:58:30Z</time>
      </trkpt>
      <trkpt lat="44.0746" lon="1.73689">
        <ele>188</ele>
        <time>2011-06-26T11:58:32Z</time>
      </trkpt>
      <trkpt lat="44.07459" lon="1.73703">
        <ele>188</ele>
        <time>2011-06-26T11:58:34Z</time>
      </trkpt>
      <trkpt lat="44.07458" lon="1.73718">
        <ele>188</ele>
        <time>2011-06-26T11:58:36Z</time>
      </trkpt>
      <trkpt lat="44.07459" lon="1.73734">
        <ele>188</ele>
        <time>2011-06-26T11:58:38Z</time>
      </trkpt>
      <trkpt lat="44.07464" lon="1.73749">
        <ele>188</ele>
        <time>2011-06-26T11:58:40Z</time>
      </trkpt>
      <trkpt lat="44.07471" lon="1.73763">
        <ele>188</ele>
        <time>2011-06-26T11:58:42Z</time>
      </trkpt>
      <trkpt lat="44.0748" lon="1.73775">
        <ele>188</ele>
        <time>2011-06-26T11:58:44Z</time>
      </trkpt>
      <trkpt lat="44.07491" lon="1.73788">
        <ele>188</ele>
        <time>2011-06-26T11:58:46Z</time>
      </trkpt>
      <trkpt lat="44.07502" lon="1.73802">
        <ele>188</ele>
        <time>2011-06-26T11:58:48Z</time>
      </trkpt>
      <trkpt lat="44.07514" lon="1.73816">
        <ele>188</ele>
        <time>2011-06-26T11:58:50Z</time>
      </trkpt>
      <trkpt lat="44.07528" lon="1.73832">
        <ele>187</ele>
        <time>2011-06-26T11:58:52Z</time>
      </trkpt>
      <trkpt lat="44.07541" lon="1.7385">
        <ele>185</ele>
        <time>2011-06-26T11:58:54Z</time>
      </trkpt>
      <trkpt lat="44.07555" lon="1.73886">
        <ele>183</ele>
        <time>2011-06-26T11:58:56Z</time>
      </trkpt>
      <trkpt lat="44.07554" lon="1.73915">
        <ele>181</ele>
        <time>2011-06-26T11:58:58Z</time>
      </trkpt>
      <trkpt lat="44.07544" lon="1.73938">
        <ele>179</ele>
        <time>2011-06-26T11:59:01Z</time>
      </trkpt>
      <trkpt lat="44.07529" lon="1.73954">
        <ele>177</ele>
        <time>2011-06-26T11:59:03Z</time>
      </trkpt>
      <trkpt lat="44.07505" lon="1.7398">
        <ele>174</ele>
        <time>2011-06-26T11:59:05Z</time>
      </trkpt>
      <trkpt lat="44.075" lon="1.74008">
        <ele>172</ele>
        <time>2011-06-26T11:59:08Z</time>
      </trkpt>
      <trkpt lat="44.07502" lon="1.74055">
        <ele>170</ele>
        <time>2011-06-26T11:59:10Z</time>
      </trkpt>
      <trkpt lat="44.07495" lon="1.74085">
        <ele>169</ele>
        <time>2011-06-26T11:59:12Z</time>
      </trkpt>
      <trkpt lat="44.07481" lon="1.74108">
        <ele>168</ele>
        <time>2011-06-26T11:59:14Z</time>
      </trkpt>
      <trkpt lat="44.0746" lon="1.74118">
        <ele>167</ele>
        <time>2011-06-26T11:59:16Z</time>
      </trkpt>
      <trkpt lat="44.07434" lon="1.74118">
        <ele>165</ele>
        <time>2011-06-26T11:59:18Z</time>
      </trkpt>
      <trkpt lat="44.0741" lon="1.74124">
        <ele>163</ele>
        <time>2011-06-26T11:59:20Z</time>
      </trkpt>
      <trkpt lat="44.07387" lon="1.74137">
        <ele>161</ele>
        <time>2011-06-26T11:59:22Z</time>
      </trkpt>
      <trkpt lat="44.07365" lon="1.74153">
        <ele>160</ele>
        <time>2011-06-26T11:59:24Z</time>
      </trkpt>
      <trkpt lat="44.07344" lon="1.74167">
        <ele>159</ele>
        <time>2011-06-26T11:59:26Z</time>
      </trkpt>
      <trkpt lat="44.07325" lon="1.74182">
        <ele>157</ele>
        <time>2011-06-26T11:59:28Z</time>
      </trkpt>
      <trkpt lat="44.07315" lon="1.74203">
        <ele>156</ele>
        <time>2011-06-26T11:59:31Z</time>
      </trkpt>
      <trkpt lat="44.07313" lon="1.74222">
        <ele>154</ele>
        <time>2011-06-26T11:59:33Z</time>
      </trkpt>
      <trkpt lat="44.07333" lon="1.74229">
        <ele>153</ele>
        <time>2011-06-26T11:59:35Z</time>
      </trkpt>
      <trkpt lat="44.07355" lon="1.7422">
        <ele>153</ele>
        <time>2011-06-26T11:59:37Z</time>
      </trkpt>
      <trkpt lat="44.07386" lon="1.74198">
        <ele>153</ele>
        <time>2011-06-26T11:59:40Z</time>
      </trkpt>
      <trkpt lat="44.07417" lon="1.74184">
        <ele>153</ele>
        <time>2011-06-26T11:59:42Z</time>
      </trkpt>
      <trkpt lat="44.07443" lon="1.74199">
        <ele>152</ele>
        <time>2011-06-26T11:59:44Z</time>
      </trkpt>
      <trkpt lat="44.07465" lon="1.74209">
        <ele>150</ele>
        <time>2011-06-26T11:59:46Z</time>
      </trkpt>
      <trkpt lat="44.07488" lon="1.74221">
        <ele>148</ele>
        <time>2011-06-26T11:59:48Z</time>
      </trkpt>
      <trkpt lat="44.07511" lon="1.74232">
        <ele>147</ele>
        <time>2011-06-26T11:59:50Z</time>
      </trkpt>
      <trkpt lat="44.07533" lon="1.74242">
        <ele>145</ele>
        <time>2011-06-26T11:59:52Z</time>
      </trkpt>
      <trkpt lat="44.0755" lon="1.74251">
        <ele>144</ele>
        <time>2011-06-26T11:59:55Z</time>
      </trkpt>
      <trkpt lat="44.0756" lon="1.74258">
        <ele>142</ele>
        <time>2011-06-26T11:59:57Z</time>
      </trkpt>
      <trkpt lat="44.07563" lon="1.74265">
        <ele>142</ele>
        <time>2011-06-26T11:59:59Z</time>
      </trkpt>
      <trkpt lat="44.07563" lon="1.74275">
        <ele>142</ele>
        <time>2011-06-26T12:00:01Z</time>
      </trkpt>
      <trkpt lat="44.07561" lon="1.74287">
        <ele>142</ele>
        <time>2011-06-26T12:00:03Z</time>
      </trkpt>
      <trkpt lat="44.07559" lon="1.74299">
        <ele>142</ele>
        <time>2011-06-26T12:00:05Z</time>
      </trkpt>
      <trkpt lat="44.07557" lon="1.74312">
        <ele>142</ele>
        <time>2011-06-26T12:00:07Z</time>
      </trkpt>
      <trkpt lat="44.07555" lon="1.74323">
        <ele>142</ele>
        <time>2011-06-26T12:00:09Z</time>
      </trkpt>
      <trkpt lat="44.07553" lon="1.74335">
        <ele>142</ele>
        <time>2011-06-26T12:00:11Z</time>
      </trkpt>
      <trkpt lat="44.07552" lon="1.74347">
        <ele>142</ele>
        <time>2011-06-26T12:00:13Z</time>
      </trkpt>
      <trkpt lat="44.0755" lon="1.74358">
        <ele>142</ele>
        <time>2011-06-26T12:00:15Z</time>
      </trkpt>
      <trkpt lat="44.07548" lon="1.7437">
        <ele>142</ele>
        <time>2011-06-26T12:00:17Z</time>
      </trkpt>
      <trkpt lat="44.07546" lon="1.74381">
        <ele>143</ele>
        <time>2011-06-26T12:00:19Z</time>
      </trkpt>
      <trkpt lat="44.07544" lon="1.74391">
        <ele>144</ele>
        <time>2011-06-26T12:00:21Z</time>
      </trkpt>
      <trkpt lat="44.07542" lon="1.74402">
        <ele>144</ele>
        <time>2011-06-26T12:00:23Z</time>
      </trkpt>
      <trkpt lat="44.0754" lon="1.74413">
        <ele>145</ele>
        <time>2011-06-26T12:00:25Z</time>
      </trkpt>
      <trkpt lat="44.07537" lon="1.74424">
        <ele>146</ele>
        <time>2011-06-26T12:00:27Z</time>
      </trkpt>
      <trkpt lat="44.07535" lon="1.74434">
        <ele>147</ele>
        <time>2011-06-26T12:00:29Z</time>
      </trkpt>
      <trkpt lat="44.07532" lon="1.74445">
        <ele>148</ele>
        <time>2011-06-26T12:00:31Z</time>
      </trkpt>
      <trkpt lat="44.0753" lon="1.74456">
        <ele>148</ele>
        <time>2011-06-26T12:00:33Z</time>
      </trkpt>
      <trkpt lat="44.07528" lon="1.74467">
        <ele>149</ele>
        <time>2011-06-26T12:00:35Z</time>
      </trkpt>
      <trkpt lat="44.07526" lon="1.74478">
        <ele>149</ele>
        <time>2011-06-26T12:00:37Z</time>
      </trkpt>
      <trkpt lat="44.07523" lon="1.74488">
        <ele>150</ele>
        <time>2011-06-26T12:00:39Z</time>
      </trkpt>
      <trkpt lat="44.0752" lon="1.74498">
        <ele>150</ele>
        <time>2011-06-26T12:00:41Z</time>
      </trkpt>
      <trkpt lat="44.07518" lon="1.74508">
        <ele>150</ele>
        <time>2011-06-26T12:00:43Z</time>
      </trkpt>
      <trkpt lat="44.07515" lon="1.74518">
        <ele>150</ele>
        <time>2011-06-26T12:00:45Z</time>
      </trkpt>
      <trkpt lat="44.07513" lon="1.74528">
        <ele>150</ele>
        <time>2011-06-26T12:00:47Z</time>
      </trkpt>
      <trkpt lat="44.0751" lon="1.74538">
        <ele>151</ele>
        <time>2011-06-26T12:00:49Z</time>
      </trkpt>
      <trkpt lat="44.07506" lon="1.74547">
        <ele>152</ele>
        <time>2011-06-26T12:00:51Z</time>
      </trkpt>
      <trkpt lat="44.07502" lon="1.74556">
        <ele>152</ele>
        <time>2011-06-26T12:00:53Z</time>
      </trkpt>
      <trkpt lat="44.07497" lon="1.74565">
        <ele>153</ele>
        <time>2011-06-26T12:00:55Z</time>
      </trkpt>
      <trkpt lat="44.07492" lon="1.74574">
        <ele>154</ele>
        <time>2011-06-26T12:00:57Z</time>
      </trkpt>
      <trkpt lat="44.07488" lon="1.74583">
        <ele>154</ele>
        <time>2011-06-26T12:00:59Z</time>
      </trkpt>
      <trkpt lat="44.07483" lon="1.74592">
        <ele>155</ele>
        <time>2011-06-26T12:01:01Z</time>
      </trkpt>
      <trkpt lat="44.07478" lon="1.746">
        <ele>156</ele>
        <time>2011-06-26T12:01:03Z</time>
      </trkpt>
      <trkpt lat="44.07473" lon="1.74609">
        <ele>157</ele>
        <time>2011-06-26T12:01:05Z</time>
      </trkpt>
      <trkpt lat="44.07468" lon="1.74618">
        <ele>157</ele>
        <time>2011-06-26T12:01:07Z</time>
      </trkpt>
      <trkpt lat="44.07463" lon="1.74627">
        <ele>158</ele>
        <time>2011-06-26T12:01:09Z</time>
      </trkpt>
      <trkpt lat="44.07459" lon="1.74636">
        <ele>159</ele>
        <time>2011-06-26T12:01:11Z</time>
      </trkpt>
      <trkpt lat="44.07455" lon="1.74645">
        <ele>159</ele>
        <time>2011-06-26T12:01:13Z</time>
      </trkpt>
      <trkpt lat="44.07452" lon="1.74655">
        <ele>160</ele>
        <time>2011-06-26T12:01:15Z</time>
      </trkpt>
      <trkpt lat="44.0745" lon="1.74667">
        <ele>160</ele>
        <time>2011-06-26T12:01:17Z</time>
      </trkpt>
      <trkpt lat="44.07448" lon="1.74678">
        <ele>160</ele>
        <time>2011-06-26T12:01:19Z</time>
      </trkpt>
      <trkpt lat="44.07446" lon="1.74689">
        <ele>160</ele>
        <time>2011-06-26T12:01:21Z</time>
      </trkpt>
      <trkpt lat="44.07445" lon="1.747">
        <ele>160</ele>
        <time>2011-06-26T12:01:23Z</time>
      </trkpt>
      <trkpt lat="44.07443" lon="1.74711">
        <ele>161</ele>
        <time>2011-06-26T12:01:25Z</time>
      </trkpt>
      <trkpt lat="44.07442" lon="1.74722">
        <ele>161</ele>
        <time>2011-06-26T12:01:27Z</time>
      </trkpt>
      <trkpt lat="44.07442" lon="1.74731">
        <ele>161</ele>
        <time>2011-06-26T12:01:29Z</time>
      </trkpt>
      <trkpt lat="44.07446" lon="1.74736">
        <ele>162</ele>
        <time>2011-06-26T12:01:31Z</time>
      </trkpt>
      <trkpt lat="44.07448" lon="1.74734">
        <ele>162</ele>
        <time>2011-06-26T12:01:33Z</time>
      </trkpt>
      <trkpt lat="44.07448" lon="1.74729">
        <ele>163</ele>
        <time>2011-06-26T12:01:35Z</time>
      </trkpt>
      <trkpt lat="44.07451" lon="1.74726">
        <ele>163</ele>
        <time>2011-06-26T12:01:37Z</time>
      </trkpt>
      <trkpt lat="44.07453" lon="1.7473">
        <ele>163</ele>
        <time>2011-06-26T12:01:39Z</time>
      </trkpt>
      <trkpt lat="44.07456" lon="1.74733">
        <ele>163</ele>
        <time>2011-06-26T12:01:41Z</time>
      </trkpt>
      <trkpt lat="44.07459" lon="1.74733">
        <ele>163</ele>
        <time>2011-06-26T12:01:43Z</time>
      </trkpt>
      <trkpt lat="44.07463" lon="1.74732">
        <ele>164</ele>
        <time>2011-06-26T12:01:45Z</time>
      </trkpt>
      <trkpt lat="44.07468" lon="1.74731">
        <ele>164</ele>
        <time>2011-06-26T12:01:47Z</time>
      </trkpt>
      <trkpt lat="44.07472" lon="1.7473">
        <ele>165</ele>
        <time>2011-06-26T12:01:49Z</time>
      </trkpt>
      <trkpt lat="44.07476" lon="1.74728">
        <ele>165</ele>
        <time>2011-06-26T12:01:51Z</time>
      </trkpt>
      <trkpt lat="44.0748" lon="1.74726">
        <ele>166</ele>
        <time>2011-06-26T12:01:53Z</time>
      </trkpt>
      <trkpt lat="44.07484" lon="1.74724">
        <ele>166</ele>
        <time>2011-06-26T12:01:55Z</time>
      </trkpt>
      <trkpt lat="44.07487" lon="1.74721">
        <ele>167</ele>
        <time>2011-06-26T12:01:57Z</time>
      </trkpt>
      <trkpt lat="44.07491" lon="1.74718">
        <ele>168</ele>
        <time>2011-06-26T12:01:59Z</time>
      </trkpt>
      <trkpt lat="44.07494" lon="1.74716">
        <ele>168</ele>
        <time>2011-06-26T12:02:01Z</time>
      </trkpt>
      <trkpt lat="44.07497" lon="1.74714">
        <ele>169</ele>
        <time>2011-06-26T12:02:03Z</time>
      </trkpt>
      <trkpt lat="44.075" lon="1.74712">
        <ele>169</ele>
        <time>2011-06-26T12:02:05Z</time>
      </trkpt>
      <trkpt lat="44.07504" lon="1.7471">
        <ele>170</ele>
        <time>2011-06-26T12:02:07Z</time>
      </trkpt>
      <trkpt lat="44.07508" lon="1.74708">
        <ele>171</ele>
        <time>2011-06-26T12:02:09Z</time>
      </trkpt>
      <trkpt lat="44.0751" lon="1.74705">
        <ele>172</ele>
        <time>2011-06-26T12:02:11Z</time>
      </trkpt>
      <trkpt lat="44.07513" lon="1.74702">
        <ele>173</ele>
        <time>2011-06-26T12:02:13Z</time>
      </trkpt>
      <trkpt lat="44.07516" lon="1.747">
        <ele>173</ele>
        <time>2011-06-26T12:02:15Z</time>
      </trkpt>
      <trkpt lat="44.07519" lon="1.74697">
        <ele>174</ele>
        <time>2011-06-26T12:02:17Z</time>
      </trkpt>
      <trkpt lat="44.07522" lon="1.74693">
        <ele>175</ele>
        <time>2011-06-26T12:02:19Z</time>
      </trkpt>
      <trkpt lat="44.07525" lon="1.74689">
        <ele>176</ele>
        <time>2011-06-26T12:02:21Z</time>
      </trkpt>
      <trkpt lat="44.07528" lon="1.74687">
        <ele>177</ele>
        <time>2011-06-26T12:02:23Z</time>
      </trkpt>
      <trkpt lat="44.0753" lon="1.74682">
        <ele>177</ele>
        <time>2011-06-26T12:02:25Z</time>
      </trkpt>
      <trkpt lat="44.07534" lon="1.74677">
        <ele>177</ele>
        <time>2011-06-26T12:02:27Z</time>
      </trkpt>
      <trkpt lat="44.07536" lon="1.74672">
        <ele>177</ele>
        <time>2011-06-26T12:02:29Z</time>
      </trkpt>
      <trkpt lat="44.07539" lon="1.74668">
        <ele>177</ele>
        <time>2011-06-26T12:02:32Z</time>
      </trkpt>
      <trkpt lat="44.07541" lon="1.74663">
        <ele>177</ele>
        <time>2011-06-26T12:02:34Z</time>
      </trkpt>
      <trkpt lat="44.07545" lon="1.74657">
        <ele>177</ele>
        <time>2011-06-26T12:02:36Z</time>
      </trkpt>
      <trkpt lat="44.07548" lon="1.74652">
        <ele>177</ele>
        <time>2011-06-26T12:02:39Z</time>
      </trkpt>
      <trkpt lat="44.07552" lon="1.74646">
        <ele>177</ele>
        <time>2011-06-26T12:02:41Z</time>
      </trkpt>
      <trkpt lat="44.07554" lon="1.74641">
        <ele>177</ele>
        <time>2011-06-26T12:02:44Z</time>
      </trkpt>
      <trkpt lat="44.07556" lon="1.74634">
        <ele>177</ele>
        <time>2011-06-26T12:02:47Z</time>
      </trkpt>
      <trkpt lat="44.07558" lon="1.74629">
        <ele>177</ele>
        <time>2011-06-26T12:02:49Z</time>
      </trkpt>
      <trkpt lat="44.0756" lon="1.74625">
        <ele>177</ele>
        <time>2011-06-26T12:02:51Z</time>
      </trkpt>
      <trkpt lat="44.07563" lon="1.74618">
        <ele>177</ele>
        <time>2011-06-26T12:02:54Z</time>
      </trkpt>
      <trkpt lat="44.07565" lon="1.74612">
        <ele>177</ele>
        <time>2011-06-26T12:02:56Z</time>
      </trkpt>
      <trkpt lat="44.07566" lon="1.74605">
        <ele>177</ele>
        <time>2011-06-26T12:02:58Z</time>
      </trkpt>
      <trkpt lat="44.07568" lon="1.746">
        <ele>177</ele>
        <time>2011-06-26T12:03:01Z</time>
      </trkpt>
      <trkpt lat="44.07569" lon="1.74595">
        <ele>177</ele>
        <time>2011-06-26T12:03:03Z</time>
      </trkpt>
      <trkpt lat="44.0757" lon="1.74591">
        <ele>178</ele>
        <time>2011-06-26T12:03:05Z</time>
      </trkpt>
      <trkpt lat="44.07572" lon="1.74588">
        <ele>179</ele>
        <time>2011-06-26T12:03:07Z</time>
      </trkpt>
      <trkpt lat="44.07573" lon="1.74584">
        <ele>180</ele>
        <time>2011-06-26T12:03:09Z</time>
      </trkpt>
      <trkpt lat="44.07574" lon="1.7458">
        <ele>181</ele>
        <time>2011-06-26T12:03:11Z</time>
      </trkpt>
      <trkpt lat="44.07575" lon="1.74577">
        <ele>182</ele>
        <time>2011-06-26T12:03:13Z</time>
      </trkpt>
      <trkpt lat="44.07575" lon="1.74573">
        <ele>183</ele>
        <time>2011-06-26T12:03:15Z</time>
      </trkpt>
      <trkpt lat="44.07577" lon="1.74569">
        <ele>186</ele>
        <time>2011-06-26T12:03:18Z</time>
      </trkpt>
      <trkpt lat="44.07577" lon="1.74567">
        <ele>187</ele>
        <time>2011-06-26T12:03:21Z</time>
      </trkpt>
      <trkpt lat="44.07578" lon="1.74564">
        <ele>188</ele>
        <time>2011-06-26T12:03:23Z</time>
      </trkpt>
      <trkpt lat="44.07579" lon="1.7456">
        <ele>189</ele>
        <time>2011-06-26T12:03:25Z</time>
      </trkpt>
      <trkpt lat="44.0758" lon="1.74558">
        <ele>190</ele>
        <time>2011-06-26T12:03:27Z</time>
      </trkpt>
      <trkpt lat="44.07581" lon="1.74557">
        <ele>191</ele>
        <time>2011-06-26T12:03:30Z</time>
      </trkpt>
      <trkpt lat="44.07584" lon="1.74552">
        <ele>192</ele>
        <time>2011-06-26T12:03:34Z</time>
      </trkpt>
      <trkpt lat="44.07589" lon="1.74549">
        <ele>193</ele>
        <time>2011-06-26T12:03:37Z</time>
      </trkpt>
      <trkpt lat="44.07592" lon="1.74546">
        <ele>193</ele>
        <time>2011-06-26T12:03:39Z</time>
      </trkpt>
      <trkpt lat="44.07595" lon="1.74542">
        <ele>193</ele>
        <time>2011-06-26T12:03:41Z</time>
      </trkpt>
      <trkpt lat="44.07598" lon="1.74538">
        <ele>193</ele>
        <time>2011-06-26T12:03:44Z</time>
      </trkpt>
      <trkpt lat="44.07601" lon="1.74531">
        <ele>193</ele>
        <time>2011-06-26T12:03:46Z</time>
      </trkpt>
      <trkpt lat="44.07603" lon="1.74527">
        <ele>193</ele>
        <time>2011-06-26T12:03:48Z</time>
      </trkpt>
      <trkpt lat="44.07606" lon="1.74523">
        <ele>193</ele>
        <time>2011-06-26T12:03:50Z</time>
      </trkpt>
      <trkpt lat="44.07608" lon="1.74519">
        <ele>193</ele>
        <time>2011-06-26T12:03:52Z</time>
      </trkpt>
      <trkpt lat="44.07611" lon="1.74516">
        <ele>193</ele>
        <time>2011-06-26T12:03:55Z</time>
      </trkpt>
      <trkpt lat="44.07616" lon="1.74511">
        <ele>193</ele>
        <time>2011-06-26T12:03:57Z</time>
      </trkpt>
      <trkpt lat="44.07618" lon="1.74508">
        <ele>193</ele>
        <time>2011-06-26T12:04:00Z</time>
      </trkpt>
      <trkpt lat="44.07622" lon="1.74504">
        <ele>193</ele>
        <time>2011-06-26T12:04:02Z</time>
      </trkpt>
      <trkpt lat="44.07624" lon="1.74499">
        <ele>194</ele>
        <time>2011-06-26T12:04:06Z</time>
      </trkpt>
      <trkpt lat="44.07628" lon="1.74497">
        <ele>195</ele>
        <time>2011-06-26T12:04:08Z</time>
      </trkpt>
      <trkpt lat="44.07634" lon="1.74493">
        <ele>196</ele>
        <time>2011-06-26T12:04:11Z</time>
      </trkpt>
      <trkpt lat="44.0764" lon="1.7449">
        <ele>197</ele>
        <time>2011-06-26T12:04:14Z</time>
      </trkpt>
      <trkpt lat="44.07645" lon="1.74489">
        <ele>198</ele>
        <time>2011-06-26T12:04:17Z</time>
      </trkpt>
      <trkpt lat="44.07649" lon="1.74489">
        <ele>200</ele>
        <time>2011-06-26T12:04:20Z</time>
      </trkpt>
      <trkpt lat="44.07652" lon="1.74493">
        <ele>201</ele>
        <time>2011-06-26T12:04:22Z</time>
      </trkpt>
      <trkpt lat="44.07654" lon="1.74496">
        <ele>201</ele>
        <time>2011-06-26T12:04:24Z</time>
      </trkpt>
      <trkpt lat="44.07655" lon="1.74499">
        <ele>201</ele>
        <time>2011-06-26T12:04:26Z</time>
      </trkpt>
      <trkpt lat="44.07657" lon="1.74501">
        <ele>201</ele>
        <time>2011-06-26T12:04:28Z</time>
      </trkpt>
      <trkpt lat="44.07662" lon="1.745">
        <ele>201</ele>
        <time>2011-06-26T12:04:30Z</time>
      </trkpt>
      <trkpt lat="44.07666" lon="1.74499">
        <ele>201</ele>
        <time>2011-06-26T12:04:32Z</time>
      </trkpt>
      <trkpt lat="44.0767" lon="1.74498">
        <ele>202</ele>
        <time>2011-06-26T12:04:35Z</time>
      </trkpt>
      <trkpt lat="44.07676" lon="1.74496">
        <ele>202</ele>
        <time>2011-06-26T12:04:37Z</time>
      </trkpt>
      <trkpt lat="44.07681" lon="1.74496">
        <ele>203</ele>
        <time>2011-06-26T12:04:39Z</time>
      </trkpt>
      <trkpt lat="44.07687" lon="1.74496">
        <ele>203</ele>
        <time>2011-06-26T12:04:42Z</time>
      </trkpt>
      <trkpt lat="44.07697" lon="1.74497">
        <ele>204</ele>
        <time>2011-06-26T12:04:45Z</time>
      </trkpt>
      <trkpt lat="44.07706" lon="1.74497">
        <ele>204</ele>
        <time>2011-06-26T12:04:47Z</time>
      </trkpt>
      <trkpt lat="44.07719" lon="1.74497">
        <ele>205</ele>
        <time>2011-06-26T12:04:50Z</time>
      </trkpt>
      <trkpt lat="44.07735" lon="1.74494">
        <ele>205</ele>
        <time>2011-06-26T12:04:52Z</time>
      </trkpt>
      <trkpt lat="44.07746" lon="1.7449">
        <ele>205</ele>
        <time>2011-06-26T12:04:55Z</time>
      </trkpt>
      <trkpt lat="44.07765" lon="1.74484">
        <ele>205</ele>
        <time>2011-06-26T12:04:58Z</time>
      </trkpt>
      <trkpt lat="44.07784" lon="1.74477">
        <ele>205</ele>
        <time>2011-06-26T12:05:01Z</time>
      </trkpt>
      <trkpt lat="44.07803" lon="1.7447">
        <ele>205</ele>
        <time>2011-06-26T12:05:04Z</time>
      </trkpt>
      <trkpt lat="44.07824" lon="1.74457">
        <ele>205</ele>
        <time>2011-06-26T12:05:07Z</time>
      </trkpt>
      <trkpt lat="44.07842" lon="1.74437">
        <ele>203</ele>
        <time>2011-06-26T12:05:10Z</time>
      </trkpt>
      <trkpt lat="44.07855" lon="1.74423">
        <ele>201</ele>
        <time>2011-06-26T12:05:12Z</time>
      </trkpt>
      <trkpt lat="44.07878" lon="1.74408">
        <ele>200</ele>
        <time>2011-06-26T12:05:15Z</time>
      </trkpt>
      <trkpt lat="44.07893" lon="1.74401">
        <ele>199</ele>
        <time>2011-06-26T12:05:17Z</time>
      </trkpt>
      <trkpt lat="44.07917" lon="1.74397">
        <ele>198</ele>
        <time>2011-06-26T12:05:20Z</time>
      </trkpt>
      <trkpt lat="44.07933" lon="1.74395">
        <ele>198</ele>
        <time>2011-06-26T12:05:22Z</time>
      </trkpt>
      <trkpt lat="44.07948" lon="1.74393">
        <ele>197</ele>
        <time>2011-06-26T12:05:24Z</time>
      </trkpt>
      <trkpt lat="44.07964" lon="1.74391">
        <ele>197</ele>
        <time>2011-06-26T12:05:26Z</time>
      </trkpt>
      <trkpt lat="44.07981" lon="1.74391">
        <ele>196</ele>
        <time>2011-06-26T12:05:28Z</time>
      </trkpt>
      <trkpt lat="44.08008" lon="1.74389">
        <ele>195</ele>
        <time>2011-06-26T12:05:31Z</time>
      </trkpt>
      <trkpt lat="44.08027" lon="1.74386">
        <ele>195</ele>
        <time>2011-06-26T12:05:33Z</time>
      </trkpt>
      <trkpt lat="44.08056" lon="1.74382">
        <ele>193</ele>
        <time>2011-06-26T12:05:35Z</time>
      </trkpt>
      <trkpt lat="44.08077" lon="1.74382">
        <ele>191</ele>
        <time>2011-06-26T12:05:37Z</time>
      </trkpt>
      <trkpt lat="44.08098" lon="1.74387">
        <ele>190</ele>
        <time>2011-06-26T12:05:39Z</time>
      </trkpt>
      <trkpt lat="44.0812" lon="1.74393">
        <ele>189</ele>
        <time>2011-06-26T12:05:41Z</time>
      </trkpt>
      <trkpt lat="44.0814" lon="1.744">
        <ele>188</ele>
        <time>2011-06-26T12:05:43Z</time>
      </trkpt>
      <trkpt lat="44.08161" lon="1.74406">
        <ele>187</ele>
        <time>2011-06-26T12:05:45Z</time>
      </trkpt>
      <trkpt lat="44.08184" lon="1.74409">
        <ele>185</ele>
        <time>2011-06-26T12:05:47Z</time>
      </trkpt>
      <trkpt lat="44.08207" lon="1.74408">
        <ele>184</ele>
        <time>2011-06-26T12:05:49Z</time>
      </trkpt>
      <trkpt lat="44.0823" lon="1.74407">
        <ele>182</ele>
        <time>2011-06-26T12:05:51Z</time>
      </trkpt>
      <trkpt lat="44.08253" lon="1.74405">
        <ele>180</ele>
        <time>2011-06-26T12:05:53Z</time>
      </trkpt>
      <trkpt lat="44.08276" lon="1.74404">
        <ele>178</ele>
        <time>2011-06-26T12:05:55Z</time>
      </trkpt>
      <trkpt lat="44.08298" lon="1.74404">
        <ele>177</ele>
        <time>2011-06-26T12:05:57Z</time>
      </trkpt>
      <trkpt lat="44.08318" lon="1.74404">
        <ele>175</ele>
        <time>2011-06-26T12:05:59Z</time>
      </trkpt>
      <trkpt lat="44.08338" lon="1.74404">
        <ele>174</ele>
        <time>2011-06-26T12:06:01Z</time>
      </trkpt>
      <trkpt lat="44.08355" lon="1.74406">
        <ele>173</ele>
        <time>2011-06-26T12:06:04Z</time>
      </trkpt>
      <trkpt lat="44.08373" lon="1.74413">
        <ele>173</ele>
        <time>2011-06-26T12:06:06Z</time>
      </trkpt>
      <trkpt lat="44.08382" lon="1.7442">
        <ele>173</ele>
        <time>2011-06-26T12:06:08Z</time>
      </trkpt>
      <trkpt lat="44.08388" lon="1.74428">
        <ele>173</ele>
        <time>2011-06-26T12:06:10Z</time>
      </trkpt>
      <trkpt lat="44.08392" lon="1.74434">
        <ele>173</ele>
        <time>2011-06-26T12:06:13Z</time>
      </trkpt>
      <trkpt lat="44.08398" lon="1.74443">
        <ele>175</ele>
        <time>2011-06-26T12:06:15Z</time>
      </trkpt>
      <trkpt lat="44.08403" lon="1.74448">
        <ele>176</ele>
        <time>2011-06-26T12:06:18Z</time>
      </trkpt>
      <trkpt lat="44.08408" lon="1.74454">
        <ele>177</ele>
        <time>2011-06-26T12:06:20Z</time>
      </trkpt>
      <trkpt lat="44.08414" lon="1.74463">
        <ele>179</ele>
        <time>2011-06-26T12:06:23Z</time>
      </trkpt>
      <trkpt lat="44.0842" lon="1.7447">
        <ele>180</ele>
        <time>2011-06-26T12:06:26Z</time>
      </trkpt>
      <trkpt lat="44.08426" lon="1.74474">
        <ele>181</ele>
        <time>2011-06-26T12:06:28Z</time>
      </trkpt>
      <trkpt lat="44.08433" lon="1.7448">
        <ele>182</ele>
        <time>2011-06-26T12:06:30Z</time>
      </trkpt>
      <trkpt lat="44.08436" lon="1.74486">
        <ele>182</ele>
        <time>2011-06-26T12:06:33Z</time>
      </trkpt>
      <trkpt lat="44.0844" lon="1.74495">
        <ele>184</ele>
        <time>2011-06-26T12:06:35Z</time>
      </trkpt>
      <trkpt lat="44.08442" lon="1.74502">
        <ele>184</ele>
        <time>2011-06-26T12:06:38Z</time>
      </trkpt>
      <trkpt lat="44.08447" lon="1.74511">
        <ele>186</ele>
        <time>2011-06-26T12:06:40Z</time>
      </trkpt>
      <trkpt lat="44.0845" lon="1.74517">
        <ele>187</ele>
        <time>2011-06-26T12:06:43Z</time>
      </trkpt>
      <trkpt lat="44.08458" lon="1.74523">
        <ele>187</ele>
        <time>2011-06-26T12:06:45Z</time>
      </trkpt>
      <trkpt lat="44.08463" lon="1.74524">
        <ele>188</ele>
        <time>2011-06-26T12:06:48Z</time>
      </trkpt>
      <trkpt lat="44.08472" lon="1.74527">
        <ele>189</ele>
        <time>2011-06-26T12:06:50Z</time>
      </trkpt>
      <trkpt lat="44.08477" lon="1.74533">
        <ele>189</ele>
        <time>2011-06-26T12:06:53Z</time>
      </trkpt>
      <trkpt lat="44.08481" lon="1.74552">
        <ele>189</ele>
        <time>2011-06-26T12:06:56Z</time>
      </trkpt>
      <trkpt lat="44.08478" lon="1.74566">
        <ele>189</ele>
        <time>2011-06-26T12:06:58Z</time>
      </trkpt>
      <trkpt lat="44.08475" lon="1.74582">
        <ele>189</ele>
        <time>2011-06-26T12:07:00Z</time>
      </trkpt>
      <trkpt lat="44.08483" lon="1.74601">
        <ele>189</ele>
        <time>2011-06-26T12:07:03Z</time>
      </trkpt>
      <trkpt lat="44.08494" lon="1.74618">
        <ele>188</ele>
        <time>2011-06-26T12:07:05Z</time>
      </trkpt>
      <trkpt lat="44.08499" lon="1.74633">
        <ele>188</ele>
        <time>2011-06-26T12:07:08Z</time>
      </trkpt>
      <trkpt lat="44.08505" lon="1.74659">
        <ele>187</ele>
        <time>2011-06-26T12:07:10Z</time>
      </trkpt>
      <trkpt lat="44.08504" lon="1.74678">
        <ele>186</ele>
        <time>2011-06-26T12:07:13Z</time>
      </trkpt>
      <trkpt lat="44.08499" lon="1.74708">
        <ele>184</ele>
        <time>2011-06-26T12:07:15Z</time>
      </trkpt>
      <trkpt lat="44.085" lon="1.74726">
        <ele>182</ele>
        <time>2011-06-26T12:07:18Z</time>
      </trkpt>
      <trkpt lat="44.0851" lon="1.74751">
        <ele>179</ele>
        <time>2011-06-26T12:07:20Z</time>
      </trkpt>
      <trkpt lat="44.0852" lon="1.74768">
        <ele>177</ele>
        <time>2011-06-26T12:07:23Z</time>
      </trkpt>
      <trkpt lat="44.08536" lon="1.74794">
        <ele>174</ele>
        <time>2011-06-26T12:07:25Z</time>
      </trkpt>
      <trkpt lat="44.08547" lon="1.74811">
        <ele>172</ele>
        <time>2011-06-26T12:07:28Z</time>
      </trkpt>
      <trkpt lat="44.08553" lon="1.74838">
        <ele>168</ele>
        <time>2011-06-26T12:07:30Z</time>
      </trkpt>
      <trkpt lat="44.08559" lon="1.74859">
        <ele>166</ele>
        <time>2011-06-26T12:07:33Z</time>
      </trkpt>
      <trkpt lat="44.08566" lon="1.74889">
        <ele>163</ele>
        <time>2011-06-26T12:07:35Z</time>
      </trkpt>
      <trkpt lat="44.08565" lon="1.74906">
        <ele>161</ele>
        <time>2011-06-26T12:07:38Z</time>
      </trkpt>
      <trkpt lat="44.08569" lon="1.74918">
        <ele>157</ele>
        <time>2011-06-26T12:07:40Z</time>
      </trkpt>
      <trkpt lat="44.0858" lon="1.74919">
        <ele>155</ele>
        <time>2011-06-26T12:07:43Z</time>
      </trkpt>
      <trkpt lat="44.08595" lon="1.74919">
        <ele>151</ele>
        <time>2011-06-26T12:07:45Z</time>
      </trkpt>
      <trkpt lat="44.08605" lon="1.74919">
        <ele>149</ele>
        <time>2011-06-26T12:07:48Z</time>
      </trkpt>
      <trkpt lat="44.08625" lon="1.74925">
        <ele>145</ele>
        <time>2011-06-26T12:07:50Z</time>
      </trkpt>
      <trkpt lat="44.0864" lon="1.74932">
        <ele>143</ele>
        <time>2011-06-26T12:07:53Z</time>
      </trkpt>
      <trkpt lat="44.08648" lon="1.74945">
        <ele>140</ele>
        <time>2011-06-26T12:07:55Z</time>
      </trkpt>
      <trkpt lat="44.08646" lon="1.74956">
        <ele>139</ele>
        <time>2011-06-26T12:07:58Z</time>
      </trkpt>
      <trkpt lat="44.08649" lon="1.74964">
        <ele>139</ele>
        <time>2011-06-26T12:08:00Z</time>
      </trkpt>
      <trkpt lat="44.08656" lon="1.74969">
        <ele>139</ele>
        <time>2011-06-26T12:08:02Z</time>
      </trkpt>
      <trkpt lat="44.0866" lon="1.74967">
        <ele>139</ele>
        <time>2011-06-26T12:08:04Z</time>
      </trkpt>
      <trkpt lat="44.08663" lon="1.74963">
        <ele>141</ele>
        <time>2011-06-26T12:08:06Z</time>
      </trkpt>
      <trkpt lat="44.08665" lon="1.7496">
        <ele>142</ele>
        <time>2011-06-26T12:08:08Z</time>
      </trkpt>
      <trkpt lat="44.08668" lon="1.74958">
        <ele>143</ele>
        <time>2011-06-26T12:08:10Z</time>
      </trkpt>
      <trkpt lat="44.08671" lon="1.74959">
        <ele>143</ele>
        <time>2011-06-26T12:08:13Z</time>
      </trkpt>
      <trkpt lat="44.08672" lon="1.74965">
        <ele>144</ele>
        <time>2011-06-26T12:08:15Z</time>
      </trkpt>
      <trkpt lat="44.0867" lon="1.74969">
        <ele>144</ele>
        <time>2011-06-26T12:08:18Z</time>
      </trkpt>
      <trkpt lat="44.0867" lon="1.74975">
        <ele>145</ele>
        <time>2011-06-26T12:08:20Z</time>
      </trkpt>
      <trkpt lat="44.0867" lon="1.74979">
        <ele>145</ele>
        <time>2011-06-26T12:08:22Z</time>
      </trkpt>
      <trkpt lat="44.08669" lon="1.74985">
        <ele>145</ele>
        <time>2011-06-26T12:08:24Z</time>
      </trkpt>
      <trkpt lat="44.08667" lon="1.74989">
        <ele>145</ele>
        <time>2011-06-26T12:08:26Z</time>
      </trkpt>
      <trkpt lat="44.08667" lon="1.74993">
        <ele>146</ele>
        <time>2011-06-26T12:08:28Z</time>
      </trkpt>
      <trkpt lat="44.08666" lon="1.74997">
        <ele>146</ele>
        <time>2011-06-26T12:08:30Z</time>
      </trkpt>
      <trkpt lat="44.08665" lon="1.75002">
        <ele>147</ele>
        <time>2011-06-26T12:08:33Z</time>
      </trkpt>
      <trkpt lat="44.08664" lon="1.75011">
        <ele>147</ele>
        <time>2011-06-26T12:08:35Z</time>
      </trkpt>
      <trkpt lat="44.08662" lon="1.75017">
        <ele>148</ele>
        <time>2011-06-26T12:08:38Z</time>
      </trkpt>
      <trkpt lat="44.0866" lon="1.75028">
        <ele>149</ele>
        <time>2011-06-26T12:08:40Z</time>
      </trkpt>
      <trkpt lat="44.08659" lon="1.75035">
        <ele>150</ele>
        <time>2011-06-26T12:08:43Z</time>
      </trkpt>
      <trkpt lat="44.08657" lon="1.75046">
        <ele>151</ele>
        <time>2011-06-26T12:08:45Z</time>
      </trkpt>
      <trkpt lat="44.08655" lon="1.75052">
        <ele>152</ele>
        <time>2011-06-26T12:08:48Z</time>
      </trkpt>
      <trkpt lat="44.08653" lon="1.75063">
        <ele>153</ele>
        <time>2011-06-26T12:08:50Z</time>
      </trkpt>
      <trkpt lat="44.08651" lon="1.7507">
        <ele>154</ele>
        <time>2011-06-26T12:08:53Z</time>
      </trkpt>
      <trkpt lat="44.08649" lon="1.75081">
        <ele>155</ele>
        <time>2011-06-26T12:08:55Z</time>
      </trkpt>
      <trkpt lat="44.08647" lon="1.75088">
        <ele>156</ele>
        <time>2011-06-26T12:08:57Z</time>
      </trkpt>
      <trkpt lat="44.08645" lon="1.75095">
        <ele>157</ele>
        <time>2011-06-26T12:08:59Z</time>
      </trkpt>
      <trkpt lat="44.08642" lon="1.75103">
        <ele>158</ele>
        <time>2011-06-26T12:09:01Z</time>
      </trkpt>
      <trkpt lat="44.08638" lon="1.7511">
        <ele>159</ele>
        <time>2011-06-26T12:09:04Z</time>
      </trkpt>
      <trkpt lat="44.08631" lon="1.7512">
        <ele>160</ele>
        <time>2011-06-26T12:09:06Z</time>
      </trkpt>
      <trkpt lat="44.08627" lon="1.75125">
        <ele>161</ele>
        <time>2011-06-26T12:09:08Z</time>
      </trkpt>
      <trkpt lat="44.08622" lon="1.7513">
        <ele>161</ele>
        <time>2011-06-26T12:09:10Z</time>
      </trkpt>
      <trkpt lat="44.08618" lon="1.75136">
        <ele>161</ele>
        <time>2011-06-26T12:09:13Z</time>
      </trkpt>
      <trkpt lat="44.08611" lon="1.75146">
        <ele>161</ele>
        <time>2011-06-26T12:09:15Z</time>
      </trkpt>
      <trkpt lat="44.08607" lon="1.75152">
        <ele>162</ele>
        <time>2011-06-26T12:09:18Z</time>
      </trkpt>
      <trkpt lat="44.08602" lon="1.75163">
        <ele>163</ele>
        <time>2011-06-26T12:09:20Z</time>
      </trkpt>
      <trkpt lat="44.08599" lon="1.75172">
        <ele>165</ele>
        <time>2011-06-26T12:09:22Z</time>
      </trkpt>
      <trkpt lat="44.08596" lon="1.75182">
        <ele>166</ele>
        <time>2011-06-26T12:09:24Z</time>
      </trkpt>
      <trkpt lat="44.08595" lon="1.75192">
        <ele>166</ele>
        <time>2011-06-26T12:09:26Z</time>
      </trkpt>
      <trkpt lat="44.08591" lon="1.75201">
        <ele>166</ele>
        <time>2011-06-26T12:09:28Z</time>
      </trkpt>
      <trkpt lat="44.08589" lon="1.75213">
        <ele>166</ele>
        <time>2011-06-26T12:09:30Z</time>
      </trkpt>
      <trkpt lat="44.08586" lon="1.75224">
        <ele>166</ele>
        <time>2011-06-26T12:09:32Z</time>
      </trkpt>
      <trkpt lat="44.08583" lon="1.75235">
        <ele>166</ele>
        <time>2011-06-26T12:09:34Z</time>
      </trkpt>
      <trkpt lat="44.0858" lon="1.75245">
        <ele>166</ele>
        <time>2011-06-26T12:09:36Z</time>
      </trkpt>
      <trkpt lat="44.08577" lon="1.75256">
        <ele>166</ele>
        <time>2011-06-26T12:09:38Z</time>
      </trkpt>
      <trkpt lat="44.08575" lon="1.75265">
        <ele>166</ele>
        <time>2011-06-26T12:09:40Z</time>
      </trkpt>
      <trkpt lat="44.08571" lon="1.75276">
        <ele>166</ele>
        <time>2011-06-26T12:09:42Z</time>
      </trkpt>
      <trkpt lat="44.08568" lon="1.75286">
        <ele>166</ele>
        <time>2011-06-26T12:09:44Z</time>
      </trkpt>
      <trkpt lat="44.08564" lon="1.75296">
        <ele>166</ele>
        <time>2011-06-26T12:09:46Z</time>
      </trkpt>
      <trkpt lat="44.08561" lon="1.75306">
        <ele>166</ele>
        <time>2011-06-26T12:09:48Z</time>
      </trkpt>
      <trkpt lat="44.08558" lon="1.75316">
        <ele>166</ele>
        <time>2011-06-26T12:09:50Z</time>
      </trkpt>
      <trkpt lat="44.08555" lon="1.75326">
        <ele>166</ele>
        <time>2011-06-26T12:09:52Z</time>
      </trkpt>
      <trkpt lat="44.08553" lon="1.75337">
        <ele>166</ele>
        <time>2011-06-26T12:09:54Z</time>
      </trkpt>
      <trkpt lat="44.08551" lon="1.75347">
        <ele>166</ele>
        <time>2011-06-26T12:09:56Z</time>
      </trkpt>
      <trkpt lat="44.0855" lon="1.75358">
        <ele>166</ele>
        <time>2011-06-26T12:09:58Z</time>
      </trkpt>
      <trkpt lat="44.0855" lon="1.75369">
        <ele>166</ele>
        <time>2011-06-26T12:10:00Z</time>
      </trkpt>
      <trkpt lat="44.08551" lon="1.7538">
        <ele>166</ele>
        <time>2011-06-26T12:10:02Z</time>
      </trkpt>
      <trkpt lat="44.08551" lon="1.75391">
        <ele>166</ele>
        <time>2011-06-26T12:10:04Z</time>
      </trkpt>
      <trkpt lat="44.08552" lon="1.75402">
        <ele>166</ele>
        <time>2011-06-26T12:10:06Z</time>
      </trkpt>
      <trkpt lat="44.08554" lon="1.75414">
        <ele>166</ele>
        <time>2011-06-26T12:10:08Z</time>
      </trkpt>
      <trkpt lat="44.08555" lon="1.75425">
        <ele>167</ele>
        <time>2011-06-26T12:10:10Z</time>
      </trkpt>
      <trkpt lat="44.08555" lon="1.75437">
        <ele>167</ele>
        <time>2011-06-26T12:10:13Z</time>
      </trkpt>
      <trkpt lat="44.08554" lon="1.75455">
        <ele>168</ele>
        <time>2011-06-26T12:10:15Z</time>
      </trkpt>
      <trkpt lat="44.08552" lon="1.75466">
        <ele>169</ele>
        <time>2011-06-26T12:10:18Z</time>
      </trkpt>
      <trkpt lat="44.08549" lon="1.75484">
        <ele>169</ele>
        <time>2011-06-26T12:10:20Z</time>
      </trkpt>
      <trkpt lat="44.08548" lon="1.75496">
        <ele>170</ele>
        <time>2011-06-26T12:10:22Z</time>
      </trkpt>
      <trkpt lat="44.08546" lon="1.75509">
        <ele>170</ele>
        <time>2011-06-26T12:10:24Z</time>
      </trkpt>
      <trkpt lat="44.08544" lon="1.75521">
        <ele>171</ele>
        <time>2011-06-26T12:10:26Z</time>
      </trkpt>
      <trkpt lat="44.08542" lon="1.75534">
        <ele>171</ele>
        <time>2011-06-26T12:10:28Z</time>
      </trkpt>
      <trkpt lat="44.0854" lon="1.75547">
        <ele>171</ele>
        <time>2011-06-26T12:10:30Z</time>
      </trkpt>
      <trkpt lat="44.08538" lon="1.7556">
        <ele>172</ele>
        <time>2011-06-26T12:10:32Z</time>
      </trkpt>
      <trkpt lat="44.08536" lon="1.75574">
        <ele>172</ele>
        <time>2011-06-26T12:10:34Z</time>
      </trkpt>
      <trkpt lat="44.08533" lon="1.75587">
        <ele>173</ele>
        <time>2011-06-26T12:10:36Z</time>
      </trkpt>
      <trkpt lat="44.08531" lon="1.75599">
        <ele>173</ele>
        <time>2011-06-26T12:10:38Z</time>
      </trkpt>
      <trkpt lat="44.08529" lon="1.75613">
        <ele>173</ele>
        <time>2011-06-26T12:10:40Z</time>
      </trkpt>
      <trkpt lat="44.08528" lon="1.75626">
        <ele>174</ele>
        <time>2011-06-26T12:10:43Z</time>
      </trkpt>
      <trkpt lat="44.08531" lon="1.75646">
        <ele>174</ele>
        <time>2011-06-26T12:10:45Z</time>
      </trkpt>
      <trkpt lat="44.08534" lon="1.75657">
        <ele>174</ele>
        <time>2011-06-26T12:10:48Z</time>
      </trkpt>
      <trkpt lat="44.08538" lon="1.75675">
        <ele>175</ele>
        <time>2011-06-26T12:10:50Z</time>
      </trkpt>
      <trkpt lat="44.08541" lon="1.75687">
        <ele>175</ele>
        <time>2011-06-26T12:10:52Z</time>
      </trkpt>
      <trkpt lat="44.08544" lon="1.75699">
        <ele>175</ele>
        <time>2011-06-26T12:10:54Z</time>
      </trkpt>
      <trkpt lat="44.08547" lon="1.7571">
        <ele>175</ele>
        <time>2011-06-26T12:10:56Z</time>
      </trkpt>
      <trkpt lat="44.08551" lon="1.75723">
        <ele>175</ele>
        <time>2011-06-26T12:10:58Z</time>
      </trkpt>
      <trkpt lat="44.08554" lon="1.75734">
        <ele>176</ele>
        <time>2011-06-26T12:11:00Z</time>
      </trkpt>
      <trkpt lat="44.08558" lon="1.75745">
        <ele>177</ele>
        <time>2011-06-26T12:11:02Z</time>
      </trkpt>
      <trkpt lat="44.08561" lon="1.75756">
        <ele>177</ele>
        <time>2011-06-26T12:11:04Z</time>
      </trkpt>
      <trkpt lat="44.08564" lon="1.75767">
        <ele>177</ele>
        <time>2011-06-26T12:11:06Z</time>
      </trkpt>
      <trkpt lat="44.08568" lon="1.75778">
        <ele>177</ele>
        <time>2011-06-26T12:11:08Z</time>
      </trkpt>
      <trkpt lat="44.08571" lon="1.75789">
        <ele>178</ele>
        <time>2011-06-26T12:11:10Z</time>
      </trkpt>
      <trkpt lat="44.08575" lon="1.758">
        <ele>178</ele>
        <time>2011-06-26T12:11:13Z</time>
      </trkpt>
      <trkpt lat="44.0858" lon="1.75816">
        <ele>179</ele>
        <time>2011-06-26T12:11:15Z</time>
      </trkpt>
      <trkpt lat="44.08583" lon="1.75827">
        <ele>179</ele>
        <time>2011-06-26T12:11:17Z</time>
      </trkpt>
      <trkpt lat="44.08586" lon="1.75838">
        <ele>180</ele>
        <time>2011-06-26T12:11:19Z</time>
      </trkpt>
      <trkpt lat="44.08589" lon="1.7585">
        <ele>180</ele>
        <time>2011-06-26T12:11:21Z</time>
      </trkpt>
      <trkpt lat="44.08591" lon="1.75862">
        <ele>180</ele>
        <time>2011-06-26T12:11:23Z</time>
      </trkpt>
      <trkpt lat="44.08593" lon="1.75873">
        <ele>181</ele>
        <time>2011-06-26T12:11:25Z</time>
      </trkpt>
      <trkpt lat="44.08593" lon="1.75886">
        <ele>181</ele>
        <time>2011-06-26T12:11:28Z</time>
      </trkpt>
      <trkpt lat="44.08595" lon="1.75905">
        <ele>182</ele>
        <time>2011-06-26T12:11:30Z</time>
      </trkpt>
      <trkpt lat="44.08596" lon="1.75917">
        <ele>183</ele>
        <time>2011-06-26T12:11:33Z</time>
      </trkpt>
      <trkpt lat="44.08601" lon="1.75934">
        <ele>185</ele>
        <time>2011-06-26T12:11:35Z</time>
      </trkpt>
      <trkpt lat="44.08605" lon="1.75945">
        <ele>186</ele>
        <time>2011-06-26T12:11:37Z</time>
      </trkpt>
      <trkpt lat="44.08609" lon="1.75955">
        <ele>187</ele>
        <time>2011-06-26T12:11:39Z</time>
      </trkpt>
      <trkpt lat="44.08614" lon="1.75965">
        <ele>188</ele>
        <time>2011-06-26T12:11:41Z</time>
      </trkpt>
      <trkpt lat="44.08618" lon="1.75975">
        <ele>189</ele>
        <time>2011-06-26T12:11:43Z</time>
      </trkpt>
      <trkpt lat="44.08622" lon="1.75984">
        <ele>189</ele>
        <time>2011-06-26T12:11:45Z</time>
      </trkpt>
      <trkpt lat="44.08625" lon="1.75992">
        <ele>189</ele>
        <time>2011-06-26T12:11:47Z</time>
      </trkpt>
      <trkpt lat="44.08628" lon="1.76002">
        <ele>190</ele>
        <time>2011-06-26T12:11:49Z</time>
      </trkpt>
      <trkpt lat="44.08631" lon="1.76011">
        <ele>190</ele>
        <time>2011-06-26T12:11:51Z</time>
      </trkpt>
      <trkpt lat="44.08634" lon="1.76021">
        <ele>190</ele>
        <time>2011-06-26T12:11:53Z</time>
      </trkpt>
      <trkpt lat="44.08638" lon="1.76031">
        <ele>190</ele>
        <time>2011-06-26T12:11:55Z</time>
      </trkpt>
      <trkpt lat="44.08642" lon="1.7604">
        <ele>190</ele>
        <time>2011-06-26T12:11:58Z</time>
      </trkpt>
      <trkpt lat="44.08649" lon="1.76055">
        <ele>190</ele>
        <time>2011-06-26T12:12:00Z</time>
      </trkpt>
      <trkpt lat="44.08654" lon="1.76065">
        <ele>190</ele>
        <time>2011-06-26T12:12:02Z</time>
      </trkpt>
      <trkpt lat="44.08659" lon="1.76074">
        <ele>191</ele>
        <time>2011-06-26T12:12:04Z</time>
      </trkpt>
      <trkpt lat="44.08664" lon="1.76082">
        <ele>191</ele>
        <time>2011-06-26T12:12:06Z</time>
      </trkpt>
      <trkpt lat="44.08669" lon="1.76091">
        <ele>191</ele>
        <time>2011-06-26T12:12:08Z</time>
      </trkpt>
      <trkpt lat="44.08675" lon="1.761">
        <ele>191</ele>
        <time>2011-06-26T12:12:10Z</time>
      </trkpt>
      <trkpt lat="44.0868" lon="1.76109">
        <ele>191</ele>
        <time>2011-06-26T12:12:12Z</time>
      </trkpt>
      <trkpt lat="44.08686" lon="1.76118">
        <ele>191</ele>
        <time>2011-06-26T12:12:14Z</time>
      </trkpt>
      <trkpt lat="44.08691" lon="1.76126">
        <ele>191</ele>
        <time>2011-06-26T12:12:16Z</time>
      </trkpt>
      <trkpt lat="44.08696" lon="1.76135">
        <ele>191</ele>
        <time>2011-06-26T12:12:18Z</time>
      </trkpt>
      <trkpt lat="44.08702" lon="1.76143">
        <ele>191</ele>
        <time>2011-06-26T12:12:20Z</time>
      </trkpt>
      <trkpt lat="44.08707" lon="1.76151">
        <ele>191</ele>
        <time>2011-06-26T12:12:22Z</time>
      </trkpt>
      <trkpt lat="44.08714" lon="1.76161">
        <ele>191</ele>
        <time>2011-06-26T12:12:24Z</time>
      </trkpt>
      <trkpt lat="44.08719" lon="1.7617">
        <ele>192</ele>
        <time>2011-06-26T12:12:26Z</time>
      </trkpt>
      <trkpt lat="44.08725" lon="1.76179">
        <ele>193</ele>
        <time>2011-06-26T12:12:28Z</time>
      </trkpt>
      <trkpt lat="44.08731" lon="1.76187">
        <ele>193</ele>
        <time>2011-06-26T12:12:30Z</time>
      </trkpt>
      <trkpt lat="44.08738" lon="1.76197">
        <ele>193</ele>
        <time>2011-06-26T12:12:32Z</time>
      </trkpt>
      <trkpt lat="44.08746" lon="1.76205">
        <ele>195</ele>
        <time>2011-06-26T12:12:34Z</time>
      </trkpt>
      <trkpt lat="44.08753" lon="1.76214">
        <ele>197</ele>
        <time>2011-06-26T12:12:36Z</time>
      </trkpt>
      <trkpt lat="44.0876" lon="1.76222">
        <ele>197</ele>
        <time>2011-06-26T12:12:38Z</time>
      </trkpt>
      <trkpt lat="44.08768" lon="1.7623">
        <ele>198</ele>
        <time>2011-06-26T12:12:40Z</time>
      </trkpt>
      <trkpt lat="44.08775" lon="1.76239">
        <ele>198</ele>
        <time>2011-06-26T12:12:42Z</time>
      </trkpt>
      <trkpt lat="44.08783" lon="1.76248">
        <ele>198</ele>
        <time>2011-06-26T12:12:44Z</time>
      </trkpt>
      <trkpt lat="44.08791" lon="1.76259">
        <ele>198</ele>
        <time>2011-06-26T12:12:46Z</time>
      </trkpt>
      <trkpt lat="44.08797" lon="1.76269">
        <ele>198</ele>
        <time>2011-06-26T12:12:48Z</time>
      </trkpt>
      <trkpt lat="44.08804" lon="1.76279">
        <ele>199</ele>
        <time>2011-06-26T12:12:50Z</time>
      </trkpt>
      <trkpt lat="44.08811" lon="1.7629">
        <ele>199</ele>
        <time>2011-06-26T12:12:52Z</time>
      </trkpt>
      <trkpt lat="44.08817" lon="1.76301">
        <ele>199</ele>
        <time>2011-06-26T12:12:54Z</time>
      </trkpt>
      <trkpt lat="44.08823" lon="1.76311">
        <ele>199</ele>
        <time>2011-06-26T12:12:56Z</time>
      </trkpt>
      <trkpt lat="44.08829" lon="1.76322">
        <ele>199</ele>
        <time>2011-06-26T12:12:58Z</time>
      </trkpt>
      <trkpt lat="44.08835" lon="1.76332">
        <ele>199</ele>
        <time>2011-06-26T12:13:00Z</time>
      </trkpt>
      <trkpt lat="44.08841" lon="1.76343">
        <ele>199</ele>
        <time>2011-06-26T12:13:02Z</time>
      </trkpt>
      <trkpt lat="44.08847" lon="1.76353">
        <ele>200</ele>
        <time>2011-06-26T12:13:04Z</time>
      </trkpt>
      <trkpt lat="44.08853" lon="1.76364">
        <ele>200</ele>
        <time>2011-06-26T12:13:06Z</time>
      </trkpt>
      <trkpt lat="44.08859" lon="1.76374">
        <ele>200</ele>
        <time>2011-06-26T12:13:08Z</time>
      </trkpt>
      <trkpt lat="44.08865" lon="1.76384">
        <ele>200</ele>
        <time>2011-06-26T12:13:10Z</time>
      </trkpt>
      <trkpt lat="44.08871" lon="1.76394">
        <ele>200</ele>
        <time>2011-06-26T12:13:12Z</time>
      </trkpt>
      <trkpt lat="44.08876" lon="1.76405">
        <ele>200</ele>
        <time>2011-06-26T12:13:14Z</time>
      </trkpt>
      <trkpt lat="44.08882" lon="1.76416">
        <ele>200</ele>
        <time>2011-06-26T12:13:16Z</time>
      </trkpt>
      <trkpt lat="44.08886" lon="1.76426">
        <ele>201</ele>
        <time>2011-06-26T12:13:18Z</time>
      </trkpt>
      <trkpt lat="44.08891" lon="1.76438">
        <ele>201</ele>
        <time>2011-06-26T12:13:20Z</time>
      </trkpt>
      <trkpt lat="44.08896" lon="1.7645">
        <ele>201</ele>
        <time>2011-06-26T12:13:22Z</time>
      </trkpt>
      <trkpt lat="44.08901" lon="1.76461">
        <ele>201</ele>
        <time>2011-06-26T12:13:24Z</time>
      </trkpt>
      <trkpt lat="44.08907" lon="1.76472">
        <ele>202</ele>
        <time>2011-06-26T12:13:26Z</time>
      </trkpt>
      <trkpt lat="44.08913" lon="1.76483">
        <ele>202</ele>
        <time>2011-06-26T12:13:28Z</time>
      </trkpt>
      <trkpt lat="44.0892" lon="1.76494">
        <ele>203</ele>
        <time>2011-06-26T12:13:30Z</time>
      </trkpt>
      <trkpt lat="44.08927" lon="1.76505">
        <ele>203</ele>
        <time>2011-06-26T12:13:32Z</time>
      </trkpt>
      <trkpt lat="44.08935" lon="1.76515">
        <ele>205</ele>
        <time>2011-06-26T12:13:34Z</time>
      </trkpt>
      <trkpt lat="44.08942" lon="1.76525">
        <ele>206</ele>
        <time>2011-06-26T12:13:36Z</time>
      </trkpt>
      <trkpt lat="44.0895" lon="1.76534">
        <ele>208</ele>
        <time>2011-06-26T12:13:38Z</time>
      </trkpt>
      <trkpt lat="44.08958" lon="1.76542">
        <ele>209</ele>
        <time>2011-06-26T12:13:40Z</time>
      </trkpt>
      <trkpt lat="44.08966" lon="1.7655">
        <ele>209</ele>
        <time>2011-06-26T12:13:42Z</time>
      </trkpt>
      <trkpt lat="44.08973" lon="1.76559">
        <ele>210</ele>
        <time>2011-06-26T12:13:44Z</time>
      </trkpt>
      <trkpt lat="44.08979" lon="1.76569">
        <ele>211</ele>
        <time>2011-06-26T12:13:46Z</time>
      </trkpt>
      <trkpt lat="44.08985" lon="1.76581">
        <ele>211</ele>
        <time>2011-06-26T12:13:48Z</time>
      </trkpt>
      <trkpt lat="44.0899" lon="1.76592">
        <ele>212</ele>
        <time>2011-06-26T12:13:50Z</time>
      </trkpt>
      <trkpt lat="44.08995" lon="1.76603">
        <ele>212</ele>
        <time>2011-06-26T12:13:52Z</time>
      </trkpt>
      <trkpt lat="44.09" lon="1.76614">
        <ele>212</ele>
        <time>2011-06-26T12:13:54Z</time>
      </trkpt>
      <trkpt lat="44.09006" lon="1.76625">
        <ele>212</ele>
        <time>2011-06-26T12:13:56Z</time>
      </trkpt>
      <trkpt lat="44.09012" lon="1.76636">
        <ele>212</ele>
        <time>2011-06-26T12:13:58Z</time>
      </trkpt>
      <trkpt lat="44.09019" lon="1.76646">
        <ele>212</ele>
        <time>2011-06-26T12:14:00Z</time>
      </trkpt>
      <trkpt lat="44.09026" lon="1.76657">
        <ele>212</ele>
        <time>2011-06-26T12:14:02Z</time>
      </trkpt>
      <trkpt lat="44.09032" lon="1.76667">
        <ele>213</ele>
        <time>2011-06-26T12:14:04Z</time>
      </trkpt>
      <trkpt lat="44.09039" lon="1.76677">
        <ele>213</ele>
        <time>2011-06-26T12:14:06Z</time>
      </trkpt>
      <trkpt lat="44.09043" lon="1.76689">
        <ele>214</ele>
        <time>2011-06-26T12:14:08Z</time>
      </trkpt>
      <trkpt lat="44.09047" lon="1.76701">
        <ele>214</ele>
        <time>2011-06-26T12:14:10Z</time>
      </trkpt>
      <trkpt lat="44.09049" lon="1.76715">
        <ele>215</ele>
        <time>2011-06-26T12:14:12Z</time>
      </trkpt>
      <trkpt lat="44.09052" lon="1.76727">
        <ele>215</ele>
        <time>2011-06-26T12:14:14Z</time>
      </trkpt>
      <trkpt lat="44.09056" lon="1.76739">
        <ele>215</ele>
        <time>2011-06-26T12:14:16Z</time>
      </trkpt>
      <trkpt lat="44.09062" lon="1.7675">
        <ele>216</ele>
        <time>2011-06-26T12:14:18Z</time>
      </trkpt>
      <trkpt lat="44.09069" lon="1.76759">
        <ele>216</ele>
        <time>2011-06-26T12:14:20Z</time>
      </trkpt>
      <trkpt lat="44.09077" lon="1.76767">
        <ele>216</ele>
        <time>2011-06-26T12:14:22Z</time>
      </trkpt>
      <trkpt lat="44.09086" lon="1.76774">
        <ele>217</ele>
        <time>2011-06-26T12:14:24Z</time>
      </trkpt>
      <trkpt lat="44.09095" lon="1.7678">
        <ele>218</ele>
        <time>2011-06-26T12:14:26Z</time>
      </trkpt>
      <trkpt lat="44.09104" lon="1.76786">
        <ele>218</ele>
        <time>2011-06-26T12:14:28Z</time>
      </trkpt>
      <trkpt lat="44.09113" lon="1.76794">
        <ele>219</ele>
        <time>2011-06-26T12:14:30Z</time>
      </trkpt>
      <trkpt lat="44.09122" lon="1.76802">
        <ele>219</ele>
        <time>2011-06-26T12:14:32Z</time>
      </trkpt>
      <trkpt lat="44.0913" lon="1.7681">
        <ele>220</ele>
        <time>2011-06-26T12:14:34Z</time>
      </trkpt>
      <trkpt lat="44.09139" lon="1.76818">
        <ele>220</ele>
        <time>2011-06-26T12:14:36Z</time>
      </trkpt>
      <trkpt lat="44.09148" lon="1.76825">
        <ele>221</ele>
        <time>2011-06-26T12:14:38Z</time>
      </trkpt>
      <trkpt lat="44.09158" lon="1.76831">
        <ele>221</ele>
        <time>2011-06-26T12:14:40Z</time>
      </trkpt>
      <trkpt lat="44.09167" lon="1.76839">
        <ele>221</ele>
        <time>2011-06-26T12:14:42Z</time>
      </trkpt>
      <trkpt lat="44.09176" lon="1.76849">
        <ele>221</ele>
        <time>2011-06-26T12:14:44Z</time>
      </trkpt>
      <trkpt lat="44.09183" lon="1.7686">
        <ele>221</ele>
        <time>2011-06-26T12:14:46Z</time>
      </trkpt>
      <trkpt lat="44.0919" lon="1.76869">
        <ele>222</ele>
        <time>2011-06-26T12:14:48Z</time>
      </trkpt>
      <trkpt lat="44.09198" lon="1.76879">
        <ele>222</ele>
        <time>2011-06-26T12:14:50Z</time>
      </trkpt>
      <trkpt lat="44.09206" lon="1.76888">
        <ele>222</ele>
        <time>2011-06-26T12:14:52Z</time>
      </trkpt>
      <trkpt lat="44.09214" lon="1.76897">
        <ele>222</ele>
        <time>2011-06-26T12:14:54Z</time>
      </trkpt>
      <trkpt lat="44.09221" lon="1.76908">
        <ele>222</ele>
        <time>2011-06-26T12:14:56Z</time>
      </trkpt>
      <trkpt lat="44.09227" lon="1.76918">
        <ele>222</ele>
        <time>2011-06-26T12:14:58Z</time>
      </trkpt>
      <trkpt lat="44.09233" lon="1.7693">
        <ele>222</ele>
        <time>2011-06-26T12:15:00Z</time>
      </trkpt>
      <trkpt lat="44.0924" lon="1.76941">
        <ele>222</ele>
        <time>2011-06-26T12:15:02Z</time>
      </trkpt>
      <trkpt lat="44.09248" lon="1.7695">
        <ele>222</ele>
        <time>2011-06-26T12:15:04Z</time>
      </trkpt>
      <trkpt lat="44.09257" lon="1.76957">
        <ele>222</ele>
        <time>2011-06-26T12:15:06Z</time>
      </trkpt>
      <trkpt lat="44.09266" lon="1.76963">
        <ele>223</ele>
        <time>2011-06-26T12:15:08Z</time>
      </trkpt>
      <trkpt lat="44.09276" lon="1.76968">
        <ele>223</ele>
        <time>2011-06-26T12:15:10Z</time>
      </trkpt>
      <trkpt lat="44.09286" lon="1.76972">
        <ele>223</ele>
        <time>2011-06-26T12:15:12Z</time>
      </trkpt>
      <trkpt lat="44.09296" lon="1.76975">
        <ele>223</ele>
        <time>2011-06-26T12:15:14Z</time>
      </trkpt>
      <trkpt lat="44.09305" lon="1.76978">
        <ele>223</ele>
        <time>2011-06-26T12:15:16Z</time>
      </trkpt>
      <trkpt lat="44.09314" lon="1.76983">
        <ele>223</ele>
        <time>2011-06-26T12:15:18Z</time>
      </trkpt>
      <trkpt lat="44.09322" lon="1.76991">
        <ele>223</ele>
        <time>2011-06-26T12:15:20Z</time>
      </trkpt>
      <trkpt lat="44.09328" lon="1.77002">
        <ele>223</ele>
        <time>2011-06-26T12:15:22Z</time>
      </trkpt>
      <trkpt lat="44.09333" lon="1.77013">
        <ele>223</ele>
        <time>2011-06-26T12:15:24Z</time>
      </trkpt>
      <trkpt lat="44.09338" lon="1.77025">
        <ele>223</ele>
        <time>2011-06-26T12:15:26Z</time>
      </trkpt>
      <trkpt lat="44.09343" lon="1.77038">
        <ele>223</ele>
        <time>2011-06-26T12:15:28Z</time>
      </trkpt>
      <trkpt lat="44.09348" lon="1.7705">
        <ele>223</ele>
        <time>2011-06-26T12:15:30Z</time>
      </trkpt>
      <trkpt lat="44.09353" lon="1.77064">
        <ele>223</ele>
        <time>2011-06-26T12:15:32Z</time>
      </trkpt>
      <trkpt lat="44.09357" lon="1.77078">
        <ele>223</ele>
        <time>2011-06-26T12:15:34Z</time>
      </trkpt>
      <trkpt lat="44.0936" lon="1.77092">
        <ele>223</ele>
        <time>2011-06-26T12:15:36Z</time>
      </trkpt>
      <trkpt lat="44.09364" lon="1.77105">
        <ele>223</ele>
        <time>2011-06-26T12:15:38Z</time>
      </trkpt>
      <trkpt lat="44.09368" lon="1.77119">
        <ele>223</ele>
        <time>2011-06-26T12:15:40Z</time>
      </trkpt>
      <trkpt lat="44.09373" lon="1.77131">
        <ele>223</ele>
        <time>2011-06-26T12:15:42Z</time>
      </trkpt>
      <trkpt lat="44.09379" lon="1.77143">
        <ele>223</ele>
        <time>2011-06-26T12:15:44Z</time>
      </trkpt>
      <trkpt lat="44.09386" lon="1.77155">
        <ele>223</ele>
        <time>2011-06-26T12:15:46Z</time>
      </trkpt>
      <trkpt lat="44.09391" lon="1.77168">
        <ele>223</ele>
        <time>2011-06-26T12:15:48Z</time>
      </trkpt>
      <trkpt lat="44.09396" lon="1.77182">
        <ele>223</ele>
        <time>2011-06-26T12:15:50Z</time>
      </trkpt>
      <trkpt lat="44.09401" lon="1.77197">
        <ele>223</ele>
        <time>2011-06-26T12:15:52Z</time>
      </trkpt>
      <trkpt lat="44.09405" lon="1.77212">
        <ele>223</ele>
        <time>2011-06-26T12:15:54Z</time>
      </trkpt>
      <trkpt lat="44.09408" lon="1.77229">
        <ele>223</ele>
        <time>2011-06-26T12:15:56Z</time>
      </trkpt>
      <trkpt lat="44.09411" lon="1.77247">
        <ele>223</ele>
        <time>2011-06-26T12:15:58Z</time>
      </trkpt>
      <trkpt lat="44.09413" lon="1.77265">
        <ele>223</ele>
        <time>2011-06-26T12:16:00Z</time>
      </trkpt>
      <trkpt lat="44.09415" lon="1.77283">
        <ele>223</ele>
        <time>2011-06-26T12:16:02Z</time>
      </trkpt>
      <trkpt lat="44.09417" lon="1.77302">
        <ele>223</ele>
        <time>2011-06-26T12:16:04Z</time>
      </trkpt>
      <trkpt lat="44.09418" lon="1.77319">
        <ele>223</ele>
        <time>2011-06-26T12:16:06Z</time>
      </trkpt>
      <trkpt lat="44.0942" lon="1.77336">
        <ele>223</ele>
        <time>2011-06-26T12:16:08Z</time>
      </trkpt>
      <trkpt lat="44.09421" lon="1.77351">
        <ele>223</ele>
        <time>2011-06-26T12:16:10Z</time>
      </trkpt>
      <trkpt lat="44.09423" lon="1.77366">
        <ele>223</ele>
        <time>2011-06-26T12:16:12Z</time>
      </trkpt>
      <trkpt lat="44.09424" lon="1.7738">
        <ele>223</ele>
        <time>2011-06-26T12:16:14Z</time>
      </trkpt>
      <trkpt lat="44.09427" lon="1.77394">
        <ele>224</ele>
        <time>2011-06-26T12:16:16Z</time>
      </trkpt>
      <trkpt lat="44.09429" lon="1.77408">
        <ele>224</ele>
        <time>2011-06-26T12:16:18Z</time>
      </trkpt>
      <trkpt lat="44.09432" lon="1.77423">
        <ele>225</ele>
        <time>2011-06-26T12:16:20Z</time>
      </trkpt>
      <trkpt lat="44.09436" lon="1.77435">
        <ele>225</ele>
        <time>2011-06-26T12:16:22Z</time>
      </trkpt>
      <trkpt lat="44.09445" lon="1.77442">
        <ele>225</ele>
        <time>2011-06-26T12:16:24Z</time>
      </trkpt>
      <trkpt lat="44.09456" lon="1.77437">
        <ele>225</ele>
        <time>2011-06-26T12:16:26Z</time>
      </trkpt>
      <trkpt lat="44.09467" lon="1.77424">
        <ele>225</ele>
        <time>2011-06-26T12:16:28Z</time>
      </trkpt>
      <trkpt lat="44.09475" lon="1.77407">
        <ele>225</ele>
        <time>2011-06-26T12:16:30Z</time>
      </trkpt>
      <trkpt lat="44.0948" lon="1.77392">
        <ele>225</ele>
        <time>2011-06-26T12:16:32Z</time>
      </trkpt>
      <trkpt lat="44.09486" lon="1.77379">
        <ele>225</ele>
        <time>2011-06-26T12:16:34Z</time>
      </trkpt>
      <trkpt lat="44.09489" lon="1.77368">
        <ele>225</ele>
        <time>2011-06-26T12:16:36Z</time>
      </trkpt>
      <trkpt lat="44.09492" lon="1.77359">
        <ele>225</ele>
        <time>2011-06-26T12:16:38Z</time>
      </trkpt>
      <trkpt lat="44.09495" lon="1.7735">
        <ele>225</ele>
        <time>2011-06-26T12:16:40Z</time>
      </trkpt>
      <trkpt lat="44.09499" lon="1.77343">
        <ele>226</ele>
        <time>2011-06-26T12:16:42Z</time>
      </trkpt>
      <trkpt lat="44.09502" lon="1.77336">
        <ele>227</ele>
        <time>2011-06-26T12:16:44Z</time>
      </trkpt>
      <trkpt lat="44.09505" lon="1.77329">
        <ele>228</ele>
        <time>2011-06-26T12:16:46Z</time>
      </trkpt>
      <trkpt lat="44.09509" lon="1.77322">
        <ele>228</ele>
        <time>2011-06-26T12:16:48Z</time>
      </trkpt>
      <trkpt lat="44.09512" lon="1.77316">
        <ele>229</ele>
        <time>2011-06-26T12:16:50Z</time>
      </trkpt>
      <trkpt lat="44.09516" lon="1.77312">
        <ele>231</ele>
        <time>2011-06-26T12:16:52Z</time>
      </trkpt>
      <trkpt lat="44.0952" lon="1.77309">
        <ele>232</ele>
        <time>2011-06-26T12:16:54Z</time>
      </trkpt>
      <trkpt lat="44.09526" lon="1.77308">
        <ele>233</ele>
        <time>2011-06-26T12:16:56Z</time>
      </trkpt>
      <trkpt lat="44.09531" lon="1.77309">
        <ele>234</ele>
        <time>2011-06-26T12:16:58Z</time>
      </trkpt>
      <trkpt lat="44.09536" lon="1.77311">
        <ele>235</ele>
        <time>2011-06-26T12:17:00Z</time>
      </trkpt>
      <trkpt lat="44.09541" lon="1.77314">
        <ele>236</ele>
        <time>2011-06-26T12:17:02Z</time>
      </trkpt>
      <trkpt lat="44.09546" lon="1.77319">
        <ele>237</ele>
        <time>2011-06-26T12:17:04Z</time>
      </trkpt>
      <trkpt lat="44.09549" lon="1.77325">
        <ele>237</ele>
        <time>2011-06-26T12:17:06Z</time>
      </trkpt>
      <trkpt lat="44.09553" lon="1.77332">
        <ele>237</ele>
        <time>2011-06-26T12:17:08Z</time>
      </trkpt>
      <trkpt lat="44.09556" lon="1.77341">
        <ele>238</ele>
        <time>2011-06-26T12:17:10Z</time>
      </trkpt>
      <trkpt lat="44.0956" lon="1.77349">
        <ele>238</ele>
        <time>2011-06-26T12:17:12Z</time>
      </trkpt>
      <trkpt lat="44.09563" lon="1.77359">
        <ele>239</ele>
        <time>2011-06-26T12:17:14Z</time>
      </trkpt>
      <trkpt lat="44.09567" lon="1.77372">
        <ele>239</ele>
        <time>2011-06-26T12:17:16Z</time>
      </trkpt>
      <trkpt lat="44.09571" lon="1.77386">
        <ele>239</ele>
        <time>2011-06-26T12:17:18Z</time>
      </trkpt>
      <trkpt lat="44.09576" lon="1.77402">
        <ele>239</ele>
        <time>2011-06-26T12:17:20Z</time>
      </trkpt>
      <trkpt lat="44.09583" lon="1.77417">
        <ele>239</ele>
        <time>2011-06-26T12:17:22Z</time>
      </trkpt>
      <trkpt lat="44.09589" lon="1.77432">
        <ele>239</ele>
        <time>2011-06-26T12:17:24Z</time>
      </trkpt>
      <trkpt lat="44.09595" lon="1.77445">
        <ele>239</ele>
        <time>2011-06-26T12:17:26Z</time>
      </trkpt>
      <trkpt lat="44.09603" lon="1.77459">
        <ele>239</ele>
        <time>2011-06-26T12:17:28Z</time>
      </trkpt>
      <trkpt lat="44.09611" lon="1.77471">
        <ele>239</ele>
        <time>2011-06-26T12:17:30Z</time>
      </trkpt>
      <trkpt lat="44.0962" lon="1.77483">
        <ele>238</ele>
        <time>2011-06-26T12:17:32Z</time>
      </trkpt>
      <trkpt lat="44.09629" lon="1.77495">
        <ele>238</ele>
        <time>2011-06-26T12:17:34Z</time>
      </trkpt>
      <trkpt lat="44.09639" lon="1.77504">
        <ele>238</ele>
        <time>2011-06-26T12:17:36Z</time>
      </trkpt>
      <trkpt lat="44.09648" lon="1.77514">
        <ele>238</ele>
        <time>2011-06-26T12:17:38Z</time>
      </trkpt>
      <trkpt lat="44.09655" lon="1.77522">
        <ele>238</ele>
        <time>2011-06-26T12:17:40Z</time>
      </trkpt>
      <trkpt lat="44.09663" lon="1.77529">
        <ele>238</ele>
        <time>2011-06-26T12:17:42Z</time>
      </trkpt>
      <trkpt lat="44.09669" lon="1.77538">
        <ele>238</ele>
        <time>2011-06-26T12:17:44Z</time>
      </trkpt>
      <trkpt lat="44.09675" lon="1.77545">
        <ele>239</ele>
        <time>2011-06-26T12:17:46Z</time>
      </trkpt>
      <trkpt lat="44.09681" lon="1.77551">
        <ele>241</ele>
        <time>2011-06-26T12:17:48Z</time>
      </trkpt>
      <trkpt lat="44.09687" lon="1.77557">
        <ele>242</ele>
        <time>2011-06-26T12:17:50Z</time>
      </trkpt>
      <trkpt lat="44.09692" lon="1.77562">
        <ele>244</ele>
        <time>2011-06-26T12:17:52Z</time>
      </trkpt>
      <trkpt lat="44.09697" lon="1.77568">
        <ele>245</ele>
        <time>2011-06-26T12:17:54Z</time>
      </trkpt>
      <trkpt lat="44.09702" lon="1.77573">
        <ele>246</ele>
        <time>2011-06-26T12:17:56Z</time>
      </trkpt>
      <trkpt lat="44.09706" lon="1.77578">
        <ele>247</ele>
        <time>2011-06-26T12:17:58Z</time>
      </trkpt>
      <trkpt lat="44.09711" lon="1.77584">
        <ele>247</ele>
        <time>2011-06-26T12:18:00Z</time>
      </trkpt>
      <trkpt lat="44.09716" lon="1.77589">
        <ele>248</ele>
        <time>2011-06-26T12:18:02Z</time>
      </trkpt>
      <trkpt lat="44.09721" lon="1.77595">
        <ele>250</ele>
        <time>2011-06-26T12:18:04Z</time>
      </trkpt>
      <trkpt lat="44.09725" lon="1.776">
        <ele>251</ele>
        <time>2011-06-26T12:18:06Z</time>
      </trkpt>
      <trkpt lat="44.09729" lon="1.77605">
        <ele>253</ele>
        <time>2011-06-26T12:18:08Z</time>
      </trkpt>
      <trkpt lat="44.09734" lon="1.77611">
        <ele>254</ele>
        <time>2011-06-26T12:18:10Z</time>
      </trkpt>
      <trkpt lat="44.09738" lon="1.77614">
        <ele>255</ele>
        <time>2011-06-26T12:18:12Z</time>
      </trkpt>
      <trkpt lat="44.09743" lon="1.77617">
        <ele>256</ele>
        <time>2011-06-26T12:18:14Z</time>
      </trkpt>
      <trkpt lat="44.09748" lon="1.77618">
        <ele>257</ele>
        <time>2011-06-26T12:18:16Z</time>
      </trkpt>
      <trkpt lat="44.09752" lon="1.77618">
        <ele>257</ele>
        <time>2011-06-26T12:18:18Z</time>
      </trkpt>
      <trkpt lat="44.09756" lon="1.77615">
        <ele>258</ele>
        <time>2011-06-26T12:18:20Z</time>
      </trkpt>
      <trkpt lat="44.0976" lon="1.7761">
        <ele>258</ele>
        <time>2011-06-26T12:18:22Z</time>
      </trkpt>
      <trkpt lat="44.09763" lon="1.77605">
        <ele>258</ele>
        <time>2011-06-26T12:18:24Z</time>
      </trkpt>
      <trkpt lat="44.09766" lon="1.77599">
        <ele>258</ele>
        <time>2011-06-26T12:18:26Z</time>
      </trkpt>
      <trkpt lat="44.0977" lon="1.77593">
        <ele>259</ele>
        <time>2011-06-26T12:18:28Z</time>
      </trkpt>
      <trkpt lat="44.09773" lon="1.77587">
        <ele>259</ele>
        <time>2011-06-26T12:18:30Z</time>
      </trkpt>
      <trkpt lat="44.09775" lon="1.77581">
        <ele>260</ele>
        <time>2011-06-26T12:18:32Z</time>
      </trkpt>
      <trkpt lat="44.09777" lon="1.77575">
        <ele>261</ele>
        <time>2011-06-26T12:18:34Z</time>
      </trkpt>
      <trkpt lat="44.09779" lon="1.77568">
        <ele>261</ele>
        <time>2011-06-26T12:18:36Z</time>
      </trkpt>
      <trkpt lat="44.09782" lon="1.77562">
        <ele>262</ele>
        <time>2011-06-26T12:18:38Z</time>
      </trkpt>
      <trkpt lat="44.09784" lon="1.77556">
        <ele>263</ele>
        <time>2011-06-26T12:18:40Z</time>
      </trkpt>
      <trkpt lat="44.09786" lon="1.77549">
        <ele>264</ele>
        <time>2011-06-26T12:18:42Z</time>
      </trkpt>
      <trkpt lat="44.09788" lon="1.77542">
        <ele>264</ele>
        <time>2011-06-26T12:18:44Z</time>
      </trkpt>
      <trkpt lat="44.0979" lon="1.77536">
        <ele>265</ele>
        <time>2011-06-26T12:18:46Z</time>
      </trkpt>
      <trkpt lat="44.09792" lon="1.77528">
        <ele>265</ele>
        <time>2011-06-26T12:18:48Z</time>
      </trkpt>
      <trkpt lat="44.09794" lon="1.77521">
        <ele>266</ele>
        <time>2011-06-26T12:18:50Z</time>
      </trkpt>
      <trkpt lat="44.09796" lon="1.77514">
        <ele>267</ele>
        <time>2011-06-26T12:18:52Z</time>
      </trkpt>
      <trkpt lat="44.09798" lon="1.77507">
        <ele>268</ele>
        <time>2011-06-26T12:18:54Z</time>
      </trkpt>
      <trkpt lat="44.098" lon="1.775">
        <ele>269</ele>
        <time>2011-06-26T12:18:56Z</time>
      </trkpt>
      <trkpt lat="44.09801" lon="1.77493">
        <ele>270</ele>
        <time>2011-06-26T12:18:58Z</time>
      </trkpt>
      <trkpt lat="44.09803" lon="1.77486">
        <ele>271</ele>
        <time>2011-06-26T12:19:00Z</time>
      </trkpt>
      <trkpt lat="44.09805" lon="1.77479">
        <ele>272</ele>
        <time>2011-06-26T12:19:02Z</time>
      </trkpt>
      <trkpt lat="44.09806" lon="1.77472">
        <ele>273</ele>
        <time>2011-06-26T12:19:04Z</time>
      </trkpt>
      <trkpt lat="44.09807" lon="1.77465">
        <ele>274</ele>
        <time>2011-06-26T12:19:06Z</time>
      </trkpt>
      <trkpt lat="44.09807" lon="1.77458">
        <ele>274</ele>
        <time>2011-06-26T12:19:08Z</time>
      </trkpt>
      <trkpt lat="44.09806" lon="1.77452">
        <ele>275</ele>
        <time>2011-06-26T12:19:10Z</time>
      </trkpt>
      <trkpt lat="44.09804" lon="1.77446">
        <ele>276</ele>
        <time>2011-06-26T12:19:12Z</time>
      </trkpt>
      <trkpt lat="44.09801" lon="1.7744">
        <ele>276</ele>
        <time>2011-06-26T12:19:14Z</time>
      </trkpt>
      <trkpt lat="44.09798" lon="1.77434">
        <ele>277</ele>
        <time>2011-06-26T12:19:16Z</time>
      </trkpt>
      <trkpt lat="44.09794" lon="1.7743">
        <ele>278</ele>
        <time>2011-06-26T12:19:18Z</time>
      </trkpt>
      <trkpt lat="44.09789" lon="1.77426">
        <ele>279</ele>
        <time>2011-06-26T12:19:20Z</time>
      </trkpt>
      <trkpt lat="44.09784" lon="1.77421">
        <ele>279</ele>
        <time>2011-06-26T12:19:22Z</time>
      </trkpt>
      <trkpt lat="44.09779" lon="1.77417">
        <ele>279</ele>
        <time>2011-06-26T12:19:24Z</time>
      </trkpt>
      <trkpt lat="44.09775" lon="1.77412">
        <ele>280</ele>
        <time>2011-06-26T12:19:26Z</time>
      </trkpt>
      <trkpt lat="44.0977" lon="1.77408">
        <ele>281</ele>
        <time>2011-06-26T12:19:28Z</time>
      </trkpt>
      <trkpt lat="44.09765" lon="1.77403">
        <ele>281</ele>
        <time>2011-06-26T12:19:30Z</time>
      </trkpt>
      <trkpt lat="44.09761" lon="1.77399">
        <ele>282</ele>
        <time>2011-06-26T12:19:32Z</time>
      </trkpt>
      <trkpt lat="44.09756" lon="1.77393">
        <ele>283</ele>
        <time>2011-06-26T12:19:34Z</time>
      </trkpt>
      <trkpt lat="44.09753" lon="1.77388">
        <ele>283</ele>
        <time>2011-06-26T12:19:36Z</time>
      </trkpt>
      <trkpt lat="44.09749" lon="1.77382">
        <ele>284</ele>
        <time>2011-06-26T12:19:38Z</time>
      </trkpt>
      <trkpt lat="44.09746" lon="1.77376">
        <ele>285</ele>
        <time>2011-06-26T12:19:40Z</time>
      </trkpt>
      <trkpt lat="44.09743" lon="1.7737">
        <ele>286</ele>
        <time>2011-06-26T12:19:42Z</time>
      </trkpt>
      <trkpt lat="44.09741" lon="1.77363">
        <ele>287</ele>
        <time>2011-06-26T12:19:44Z</time>
      </trkpt>
      <trkpt lat="44.0974" lon="1.77356">
        <ele>288</ele>
        <time>2011-06-26T12:19:46Z</time>
      </trkpt>
      <trkpt lat="44.09738" lon="1.77348">
        <ele>289</ele>
        <time>2011-06-26T12:19:48Z</time>
      </trkpt>
      <trkpt lat="44.09737" lon="1.77341">
        <ele>289</ele>
        <time>2011-06-26T12:19:50Z</time>
      </trkpt>
      <trkpt lat="44.09736" lon="1.77333">
        <ele>290</ele>
        <time>2011-06-26T12:19:52Z</time>
      </trkpt>
      <trkpt lat="44.09735" lon="1.77325">
        <ele>291</ele>
        <time>2011-06-26T12:19:54Z</time>
      </trkpt>
      <trkpt lat="44.09734" lon="1.77317">
        <ele>292</ele>
        <time>2011-06-26T12:19:56Z</time>
      </trkpt>
      <trkpt lat="44.09733" lon="1.7731">
        <ele>293</ele>
        <time>2011-06-26T12:19:58Z</time>
      </trkpt>
      <trkpt lat="44.09731" lon="1.77303">
        <ele>294</ele>
        <time>2011-06-26T12:20:01Z</time>
      </trkpt>
      <trkpt lat="44.09729" lon="1.77292">
        <ele>296</ele>
        <time>2011-06-26T12:20:04Z</time>
      </trkpt>
      <trkpt lat="44.09726" lon="1.77281">
        <ele>296</ele>
        <time>2011-06-26T12:20:06Z</time>
      </trkpt>
      <trkpt lat="44.09723" lon="1.77274">
        <ele>297</ele>
        <time>2011-06-26T12:20:08Z</time>
      </trkpt>
      <trkpt lat="44.09721" lon="1.77268">
        <ele>297</ele>
        <time>2011-06-26T12:20:10Z</time>
      </trkpt>
      <trkpt lat="44.09718" lon="1.77261">
        <ele>297</ele>
        <time>2011-06-26T12:20:12Z</time>
      </trkpt>
      <trkpt lat="44.09714" lon="1.77255">
        <ele>297</ele>
        <time>2011-06-26T12:20:14Z</time>
      </trkpt>
      <trkpt lat="44.0971" lon="1.77251">
        <ele>297</ele>
        <time>2011-06-26T12:20:16Z</time>
      </trkpt>
      <trkpt lat="44.09706" lon="1.77246">
        <ele>297</ele>
        <time>2011-06-26T12:20:18Z</time>
      </trkpt>
      <trkpt lat="44.09701" lon="1.77242">
        <ele>297</ele>
        <time>2011-06-26T12:20:20Z</time>
      </trkpt>
      <trkpt lat="44.09695" lon="1.77238">
        <ele>298</ele>
        <time>2011-06-26T12:20:22Z</time>
      </trkpt>
      <trkpt lat="44.0969" lon="1.77236">
        <ele>299</ele>
        <time>2011-06-26T12:20:24Z</time>
      </trkpt>
      <trkpt lat="44.09687" lon="1.77231">
        <ele>300</ele>
        <time>2011-06-26T12:20:26Z</time>
      </trkpt>
      <trkpt lat="44.09688" lon="1.77225">
        <ele>301</ele>
        <time>2011-06-26T12:20:28Z</time>
      </trkpt>
      <trkpt lat="44.09692" lon="1.77224">
        <ele>301</ele>
        <time>2011-06-26T12:20:30Z</time>
      </trkpt>
      <trkpt lat="44.09698" lon="1.77223">
        <ele>302</ele>
        <time>2011-06-26T12:20:32Z</time>
      </trkpt>
      <trkpt lat="44.09703" lon="1.77221">
        <ele>302</ele>
        <time>2011-06-26T12:20:34Z</time>
      </trkpt>
      <trkpt lat="44.09709" lon="1.77218">
        <ele>303</ele>
        <time>2011-06-26T12:20:36Z</time>
      </trkpt>
      <trkpt lat="44.09714" lon="1.77214">
        <ele>303</ele>
        <time>2011-06-26T12:20:38Z</time>
      </trkpt>
      <trkpt lat="44.09719" lon="1.7721">
        <ele>304</ele>
        <time>2011-06-26T12:20:40Z</time>
      </trkpt>
      <trkpt lat="44.09723" lon="1.77206">
        <ele>305</ele>
        <time>2011-06-26T12:20:42Z</time>
      </trkpt>
      <trkpt lat="44.09727" lon="1.77201">
        <ele>306</ele>
        <time>2011-06-26T12:20:44Z</time>
      </trkpt>
      <trkpt lat="44.09732" lon="1.77196">
        <ele>306</ele>
        <time>2011-06-26T12:20:46Z</time>
      </trkpt>
      <trkpt lat="44.09735" lon="1.77192">
        <ele>307</ele>
        <time>2011-06-26T12:20:48Z</time>
      </trkpt>
      <trkpt lat="44.09739" lon="1.77188">
        <ele>307</ele>
        <time>2011-06-26T12:20:50Z</time>
      </trkpt>
      <trkpt lat="44.09743" lon="1.77183">
        <ele>307</ele>
        <time>2011-06-26T12:20:52Z</time>
      </trkpt>
      <trkpt lat="44.09746" lon="1.77178">
        <ele>308</ele>
        <time>2011-06-26T12:20:54Z</time>
      </trkpt>
      <trkpt lat="44.09748" lon="1.77174">
        <ele>308</ele>
        <time>2011-06-26T12:20:56Z</time>
      </trkpt>
      <trkpt lat="44.09751" lon="1.77169">
        <ele>308</ele>
        <time>2011-06-26T12:20:58Z</time>
      </trkpt>
      <trkpt lat="44.09754" lon="1.77164">
        <ele>308</ele>
        <time>2011-06-26T12:21:00Z</time>
      </trkpt>
      <trkpt lat="44.09756" lon="1.77159">
        <ele>308</ele>
        <time>2011-06-26T12:21:02Z</time>
      </trkpt>
      <trkpt lat="44.09758" lon="1.77154">
        <ele>308</ele>
        <time>2011-06-26T12:21:04Z</time>
      </trkpt>
      <trkpt lat="44.0976" lon="1.77149">
        <ele>308</ele>
        <time>2011-06-26T12:21:06Z</time>
      </trkpt>
      <trkpt lat="44.09761" lon="1.77144">
        <ele>308</ele>
        <time>2011-06-26T12:21:08Z</time>
      </trkpt>
      <trkpt lat="44.09761" lon="1.77139">
        <ele>308</ele>
        <time>2011-06-26T12:21:10Z</time>
      </trkpt>
      <trkpt lat="44.09759" lon="1.77135">
        <ele>308</ele>
        <time>2011-06-26T12:21:12Z</time>
      </trkpt>
      <trkpt lat="44.09756" lon="1.77129">
        <ele>308</ele>
        <time>2011-06-26T12:21:14Z</time>
      </trkpt>
      <trkpt lat="44.09752" lon="1.77124">
        <ele>308</ele>
        <time>2011-06-26T12:21:16Z</time>
      </trkpt>
      <trkpt lat="44.09747" lon="1.77119">
        <ele>308</ele>
        <time>2011-06-26T12:21:18Z</time>
      </trkpt>
      <trkpt lat="44.09742" lon="1.77113">
        <ele>308</ele>
        <time>2011-06-26T12:21:20Z</time>
      </trkpt>
      <trkpt lat="44.09737" lon="1.7711">
        <ele>308</ele>
        <time>2011-06-26T12:21:22Z</time>
      </trkpt>
      <trkpt lat="44.0973" lon="1.7711">
        <ele>308</ele>
        <time>2011-06-26T12:21:24Z</time>
      </trkpt>
      <trkpt lat="44.09724" lon="1.77112">
        <ele>308</ele>
        <time>2011-06-26T12:21:26Z</time>
      </trkpt>
      <trkpt lat="44.09716" lon="1.77112">
        <ele>308</ele>
        <time>2011-06-26T12:21:28Z</time>
      </trkpt>
      <trkpt lat="44.09709" lon="1.77112">
        <ele>308</ele>
        <time>2011-06-26T12:21:30Z</time>
      </trkpt>
      <trkpt lat="44.09701" lon="1.7711">
        <ele>308</ele>
        <time>2011-06-26T12:21:32Z</time>
      </trkpt>
      <trkpt lat="44.09694" lon="1.77107">
        <ele>308</ele>
        <time>2011-06-26T12:21:34Z</time>
      </trkpt>
      <trkpt lat="44.09688" lon="1.77102">
        <ele>308</ele>
        <time>2011-06-26T12:21:36Z</time>
      </trkpt>
      <trkpt lat="44.09681" lon="1.77096">
        <ele>308</ele>
        <time>2011-06-26T12:21:38Z</time>
      </trkpt>
      <trkpt lat="44.09675" lon="1.77092">
        <ele>308</ele>
        <time>2011-06-26T12:21:40Z</time>
      </trkpt>
      <trkpt lat="44.09669" lon="1.77088">
        <ele>308</ele>
        <time>2011-06-26T12:21:42Z</time>
      </trkpt>
      <trkpt lat="44.09663" lon="1.77083">
        <ele>309</ele>
        <time>2011-06-26T12:21:44Z</time>
      </trkpt>
      <trkpt lat="44.09657" lon="1.77077">
        <ele>309</ele>
        <time>2011-06-26T12:21:46Z</time>
      </trkpt>
      <trkpt lat="44.0965" lon="1.77072">
        <ele>310</ele>
        <time>2011-06-26T12:21:48Z</time>
      </trkpt>
      <trkpt lat="44.09644" lon="1.77068">
        <ele>310</ele>
        <time>2011-06-26T12:21:50Z</time>
      </trkpt>
      <trkpt lat="44.09637" lon="1.77063">
        <ele>310</ele>
        <time>2011-06-26T12:21:52Z</time>
      </trkpt>
      <trkpt lat="44.09631" lon="1.77059">
        <ele>311</ele>
        <time>2011-06-26T12:21:54Z</time>
      </trkpt>
      <trkpt lat="44.09626" lon="1.77057">
        <ele>311</ele>
        <time>2011-06-26T12:21:56Z</time>
      </trkpt>
      <trkpt lat="44.09621" lon="1.77055">
        <ele>311</ele>
        <time>2011-06-26T12:21:58Z</time>
      </trkpt>
      <trkpt lat="44.09616" lon="1.77049">
        <ele>311</ele>
        <time>2011-06-26T12:22:00Z</time>
      </trkpt>
      <trkpt lat="44.09612" lon="1.77042">
        <ele>311</ele>
        <time>2011-06-26T12:22:02Z</time>
      </trkpt>
      <trkpt lat="44.09608" lon="1.77034">
        <ele>311</ele>
        <time>2011-06-26T12:22:04Z</time>
      </trkpt>
      <trkpt lat="44.09603" lon="1.77026">
        <ele>311</ele>
        <time>2011-06-26T12:22:06Z</time>
      </trkpt>
      <trkpt lat="44.09597" lon="1.77018">
        <ele>311</ele>
        <time>2011-06-26T12:22:08Z</time>
      </trkpt>
      <trkpt lat="44.09591" lon="1.7701">
        <ele>311</ele>
        <time>2011-06-26T12:22:10Z</time>
      </trkpt>
      <trkpt lat="44.09584" lon="1.77004">
        <ele>311</ele>
        <time>2011-06-26T12:22:12Z</time>
      </trkpt>
      <trkpt lat="44.09578" lon="1.76995">
        <ele>311</ele>
        <time>2011-06-26T12:22:14Z</time>
      </trkpt>
      <trkpt lat="44.09571" lon="1.76985">
        <ele>311</ele>
        <time>2011-06-26T12:22:16Z</time>
      </trkpt>
      <trkpt lat="44.09566" lon="1.76975">
        <ele>311</ele>
        <time>2011-06-26T12:22:18Z</time>
      </trkpt>
      <trkpt lat="44.0956" lon="1.76965">
        <ele>311</ele>
        <time>2011-06-26T12:22:20Z</time>
      </trkpt>
      <trkpt lat="44.09554" lon="1.76956">
        <ele>311</ele>
        <time>2011-06-26T12:22:22Z</time>
      </trkpt>
      <trkpt lat="44.09547" lon="1.76946">
        <ele>311</ele>
        <time>2011-06-26T12:22:24Z</time>
      </trkpt>
      <trkpt lat="44.09542" lon="1.76937">
        <ele>311</ele>
        <time>2011-06-26T12:22:26Z</time>
      </trkpt>
      <trkpt lat="44.09537" lon="1.76929">
        <ele>311</ele>
        <time>2011-06-26T12:22:28Z</time>
      </trkpt>
      <trkpt lat="44.09532" lon="1.7692">
        <ele>311</ele>
        <time>2011-06-26T12:22:30Z</time>
      </trkpt>
      <trkpt lat="44.09526" lon="1.76908">
        <ele>311</ele>
        <time>2011-06-26T12:22:32Z</time>
      </trkpt>
      <trkpt lat="44.09522" lon="1.76895">
        <ele>311</ele>
        <time>2011-06-26T12:22:34Z</time>
      </trkpt>
      <trkpt lat="44.09518" lon="1.76884">
        <ele>311</ele>
        <time>2011-06-26T12:22:36Z</time>
      </trkpt>
      <trkpt lat="44.09512" lon="1.76871">
        <ele>311</ele>
        <time>2011-06-26T12:22:38Z</time>
      </trkpt>
      <trkpt lat="44.09507" lon="1.76857">
        <ele>311</ele>
        <time>2011-06-26T12:22:40Z</time>
      </trkpt>
      <trkpt lat="44.09502" lon="1.76844">
        <ele>311</ele>
        <time>2011-06-26T12:22:42Z</time>
      </trkpt>
      <trkpt lat="44.09497" lon="1.7683">
        <ele>311</ele>
        <time>2011-06-26T12:22:44Z</time>
      </trkpt>
      <trkpt lat="44.09493" lon="1.76815">
        <ele>311</ele>
        <time>2011-06-26T12:22:46Z</time>
      </trkpt>
      <trkpt lat="44.09487" lon="1.76795">
        <ele>311</ele>
        <time>2011-06-26T12:22:48Z</time>
      </trkpt>
      <trkpt lat="44.09481" lon="1.76778">
        <ele>311</ele>
        <time>2011-06-26T12:22:50Z</time>
      </trkpt>
      <trkpt lat="44.09472" lon="1.76763">
        <ele>311</ele>
        <time>2011-06-26T12:22:52Z</time>
      </trkpt>
      <trkpt lat="44.09465" lon="1.76747">
        <ele>311</ele>
        <time>2011-06-26T12:22:54Z</time>
      </trkpt>
      <trkpt lat="44.0946" lon="1.76729">
        <ele>311</ele>
        <time>2011-06-26T12:22:56Z</time>
      </trkpt>
      <trkpt lat="44.09454" lon="1.7671">
        <ele>311</ele>
        <time>2011-06-26T12:22:58Z</time>
      </trkpt>
      <trkpt lat="44.09445" lon="1.76697">
        <ele>310</ele>
        <time>2011-06-26T12:23:00Z</time>
      </trkpt>
      <trkpt lat="44.09437" lon="1.76683">
        <ele>309</ele>
        <time>2011-06-26T12:23:02Z</time>
      </trkpt>
      <trkpt lat="44.0943" lon="1.76668">
        <ele>308</ele>
        <time>2011-06-26T12:23:04Z</time>
      </trkpt>
      <trkpt lat="44.09422" lon="1.76654">
        <ele>307</ele>
        <time>2011-06-26T12:23:06Z</time>
      </trkpt>
      <trkpt lat="44.0941" lon="1.76639">
        <ele>307</ele>
        <time>2011-06-26T12:23:08Z</time>
      </trkpt>
      <trkpt lat="44.09399" lon="1.76626">
        <ele>307</ele>
        <time>2011-06-26T12:23:10Z</time>
      </trkpt>
      <trkpt lat="44.09388" lon="1.76614">
        <ele>307</ele>
        <time>2011-06-26T12:23:12Z</time>
      </trkpt>
      <trkpt lat="44.09378" lon="1.76604">
        <ele>306</ele>
        <time>2011-06-26T12:23:14Z</time>
      </trkpt>
      <trkpt lat="44.09367" lon="1.76595">
        <ele>306</ele>
        <time>2011-06-26T12:23:16Z</time>
      </trkpt>
      <trkpt lat="44.09357" lon="1.76586">
        <ele>305</ele>
        <time>2011-06-26T12:23:18Z</time>
      </trkpt>
      <trkpt lat="44.09346" lon="1.76576">
        <ele>305</ele>
        <time>2011-06-26T12:23:20Z</time>
      </trkpt>
      <trkpt lat="44.09336" lon="1.76565">
        <ele>305</ele>
        <time>2011-06-26T12:23:22Z</time>
      </trkpt>
      <trkpt lat="44.09327" lon="1.76554">
        <ele>305</ele>
        <time>2011-06-26T12:23:24Z</time>
      </trkpt>
      <trkpt lat="44.09318" lon="1.76543">
        <ele>305</ele>
        <time>2011-06-26T12:23:26Z</time>
      </trkpt>
      <trkpt lat="44.09309" lon="1.76535">
        <ele>305</ele>
        <time>2011-06-26T12:23:28Z</time>
      </trkpt>
      <trkpt lat="44.09301" lon="1.76526">
        <ele>305</ele>
        <time>2011-06-26T12:23:30Z</time>
      </trkpt>
      <trkpt lat="44.09294" lon="1.76515">
        <ele>305</ele>
        <time>2011-06-26T12:23:32Z</time>
      </trkpt>
      <trkpt lat="44.09286" lon="1.76504">
        <ele>305</ele>
        <time>2011-06-26T12:23:34Z</time>
      </trkpt>
      <trkpt lat="44.09277" lon="1.76494">
        <ele>305</ele>
        <time>2011-06-26T12:23:36Z</time>
      </trkpt>
      <trkpt lat="44.09267" lon="1.76484">
        <ele>305</ele>
        <time>2011-06-26T12:23:38Z</time>
      </trkpt>
      <trkpt lat="44.09257" lon="1.76475">
        <ele>305</ele>
        <time>2011-06-26T12:23:40Z</time>
      </trkpt>
      <trkpt lat="44.09246" lon="1.76468">
        <ele>304</ele>
        <time>2011-06-26T12:23:42Z</time>
      </trkpt>
      <trkpt lat="44.09235" lon="1.76462">
        <ele>303</ele>
        <time>2011-06-26T12:23:44Z</time>
      </trkpt>
      <trkpt lat="44.09224" lon="1.76455">
        <ele>302</ele>
        <time>2011-06-26T12:23:46Z</time>
      </trkpt>
      <trkpt lat="44.09212" lon="1.76447">
        <ele>301</ele>
        <time>2011-06-26T12:23:48Z</time>
      </trkpt>
      <trkpt lat="44.09201" lon="1.76439">
        <ele>301</ele>
        <time>2011-06-26T12:23:50Z</time>
      </trkpt>
      <trkpt lat="44.09188" lon="1.76433">
        <ele>301</ele>
        <time>2011-06-26T12:23:52Z</time>
      </trkpt>
      <trkpt lat="44.09174" lon="1.76425">
        <ele>301</ele>
        <time>2011-06-26T12:23:54Z</time>
      </trkpt>
      <trkpt lat="44.09161" lon="1.7642">
        <ele>301</ele>
        <time>2011-06-26T12:23:56Z</time>
      </trkpt>
      <trkpt lat="44.0915" lon="1.76416">
        <ele>301</ele>
        <time>2011-06-26T12:23:58Z</time>
      </trkpt>
      <trkpt lat="44.09139" lon="1.76414">
        <ele>301</ele>
        <time>2011-06-26T12:24:00Z</time>
      </trkpt>
      <trkpt lat="44.09129" lon="1.7641">
        <ele>301</ele>
        <time>2011-06-26T12:24:02Z</time>
      </trkpt>
      <trkpt lat="44.09118" lon="1.76406">
        <ele>301</ele>
        <time>2011-06-26T12:24:04Z</time>
      </trkpt>
      <trkpt lat="44.09108" lon="1.76406">
        <ele>300</ele>
        <time>2011-06-26T12:24:06Z</time>
      </trkpt>
      <trkpt lat="44.09097" lon="1.76404">
        <ele>298</ele>
        <time>2011-06-26T12:24:08Z</time>
      </trkpt>
      <trkpt lat="44.09087" lon="1.76401">
        <ele>297</ele>
        <time>2011-06-26T12:24:10Z</time>
      </trkpt>
      <trkpt lat="44.09075" lon="1.76398">
        <ele>296</ele>
        <time>2011-06-26T12:24:12Z</time>
      </trkpt>
      <trkpt lat="44.09064" lon="1.76393">
        <ele>295</ele>
        <time>2011-06-26T12:24:14Z</time>
      </trkpt>
      <trkpt lat="44.09052" lon="1.76389">
        <ele>294</ele>
        <time>2011-06-26T12:24:16Z</time>
      </trkpt>
      <trkpt lat="44.09042" lon="1.76383">
        <ele>294</ele>
        <time>2011-06-26T12:24:18Z</time>
      </trkpt>
      <trkpt lat="44.09035" lon="1.76373">
        <ele>294</ele>
        <time>2011-06-26T12:24:20Z</time>
      </trkpt>
      <trkpt lat="44.09032" lon="1.76365">
        <ele>294</ele>
        <time>2011-06-26T12:24:22Z</time>
      </trkpt>
      <trkpt lat="44.09028" lon="1.76357">
        <ele>294</ele>
        <time>2011-06-26T12:24:24Z</time>
      </trkpt>
      <trkpt lat="44.09024" lon="1.76349">
        <ele>294</ele>
        <time>2011-06-26T12:24:26Z</time>
      </trkpt>
      <trkpt lat="44.0902" lon="1.76342">
        <ele>294</ele>
        <time>2011-06-26T12:24:28Z</time>
      </trkpt>
      <trkpt lat="44.09016" lon="1.76335">
        <ele>294</ele>
        <time>2011-06-26T12:24:30Z</time>
      </trkpt>
      <trkpt lat="44.09013" lon="1.7633">
        <ele>294</ele>
        <time>2011-06-26T12:24:32Z</time>
      </trkpt>
      <trkpt lat="44.0901" lon="1.76324">
        <ele>294</ele>
        <time>2011-06-26T12:24:34Z</time>
      </trkpt>
      <trkpt lat="44.09007" lon="1.76318">
        <ele>295</ele>
        <time>2011-06-26T12:24:36Z</time>
      </trkpt>
      <trkpt lat="44.09004" lon="1.76311">
        <ele>296</ele>
        <time>2011-06-26T12:24:38Z</time>
      </trkpt>
      <trkpt lat="44.09001" lon="1.76305">
        <ele>296</ele>
        <time>2011-06-26T12:24:40Z</time>
      </trkpt>
      <trkpt lat="44.08998" lon="1.76299">
        <ele>297</ele>
        <time>2011-06-26T12:24:42Z</time>
      </trkpt>
      <trkpt lat="44.08995" lon="1.76293">
        <ele>297</ele>
        <time>2011-06-26T12:24:44Z</time>
      </trkpt>
      <trkpt lat="44.08991" lon="1.76287">
        <ele>297</ele>
        <time>2011-06-26T12:24:46Z</time>
      </trkpt>
      <trkpt lat="44.08987" lon="1.76281">
        <ele>298</ele>
        <time>2011-06-26T12:24:48Z</time>
      </trkpt>
      <trkpt lat="44.08983" lon="1.76277">
        <ele>299</ele>
        <time>2011-06-26T12:24:50Z</time>
      </trkpt>
      <trkpt lat="44.0898" lon="1.76271">
        <ele>300</ele>
        <time>2011-06-26T12:24:52Z</time>
      </trkpt>
      <trkpt lat="44.08978" lon="1.76265">
        <ele>300</ele>
        <time>2011-06-26T12:24:54Z</time>
      </trkpt>
      <trkpt lat="44.08976" lon="1.7626">
        <ele>301</ele>
        <time>2011-06-26T12:24:56Z</time>
      </trkpt>
      <trkpt lat="44.08971" lon="1.76254">
        <ele>301</ele>
        <time>2011-06-26T12:24:58Z</time>
      </trkpt>
      <trkpt lat="44.08968" lon="1.76248">
        <ele>301</ele>
        <time>2011-06-26T12:25:00Z</time>
      </trkpt>
      <trkpt lat="44.08966" lon="1.7624">
        <ele>301</ele>
        <time>2011-06-26T12:25:02Z</time>
      </trkpt>
      <trkpt lat="44.08963" lon="1.76233">
        <ele>301</ele>
        <time>2011-06-26T12:25:04Z</time>
      </trkpt>
      <trkpt lat="44.0896" lon="1.76226">
        <ele>301</ele>
        <time>2011-06-26T12:25:06Z</time>
      </trkpt>
      <trkpt lat="44.08956" lon="1.76219">
        <ele>301</ele>
        <time>2011-06-26T12:25:08Z</time>
      </trkpt>
      <trkpt lat="44.08952" lon="1.76211">
        <ele>301</ele>
        <time>2011-06-26T12:25:10Z</time>
      </trkpt>
      <trkpt lat="44.08949" lon="1.76203">
        <ele>301</ele>
        <time>2011-06-26T12:25:12Z</time>
      </trkpt>
      <trkpt lat="44.08944" lon="1.76195">
        <ele>301</ele>
        <time>2011-06-26T12:25:14Z</time>
      </trkpt>
      <trkpt lat="44.08938" lon="1.76187">
        <ele>301</ele>
        <time>2011-06-26T12:25:16Z</time>
      </trkpt>
      <trkpt lat="44.08933" lon="1.76179">
        <ele>301</ele>
        <time>2011-06-26T12:25:18Z</time>
      </trkpt>
      <trkpt lat="44.08929" lon="1.76169">
        <ele>301</ele>
        <time>2011-06-26T12:25:20Z</time>
      </trkpt>
      <trkpt lat="44.08926" lon="1.7616">
        <ele>301</ele>
        <time>2011-06-26T12:25:22Z</time>
      </trkpt>
      <trkpt lat="44.08923" lon="1.76148">
        <ele>301</ele>
        <time>2011-06-26T12:25:24Z</time>
      </trkpt>
      <trkpt lat="44.0892" lon="1.76137">
        <ele>301</ele>
        <time>2011-06-26T12:25:26Z</time>
      </trkpt>
      <trkpt lat="44.08917" lon="1.76128">
        <ele>301</ele>
        <time>2011-06-26T12:25:28Z</time>
      </trkpt>
      <trkpt lat="44.08915" lon="1.76119">
        <ele>301</ele>
        <time>2011-06-26T12:25:30Z</time>
      </trkpt>
      <trkpt lat="44.08913" lon="1.76109">
        <ele>302</ele>
        <time>2011-06-26T12:25:32Z</time>
      </trkpt>
      <trkpt lat="44.08909" lon="1.761">
        <ele>302</ele>
        <time>2011-06-26T12:25:34Z</time>
      </trkpt>
      <trkpt lat="44.08905" lon="1.7609">
        <ele>302</ele>
        <time>2011-06-26T12:25:36Z</time>
      </trkpt>
      <trkpt lat="44.08902" lon="1.76079">
        <ele>302</ele>
        <time>2011-06-26T12:25:38Z</time>
      </trkpt>
      <trkpt lat="44.089" lon="1.76068">
        <ele>302</ele>
        <time>2011-06-26T12:25:40Z</time>
      </trkpt>
      <trkpt lat="44.08895" lon="1.76057">
        <ele>302</ele>
        <time>2011-06-26T12:25:42Z</time>
      </trkpt>
      <trkpt lat="44.08889" lon="1.76045">
        <ele>302</ele>
        <time>2011-06-26T12:25:44Z</time>
      </trkpt>
      <trkpt lat="44.08881" lon="1.76031">
        <ele>302</ele>
        <time>2011-06-26T12:25:46Z</time>
      </trkpt>
      <trkpt lat="44.08874" lon="1.76017">
        <ele>302</ele>
        <time>2011-06-26T12:25:48Z</time>
      </trkpt>
      <trkpt lat="44.08869" lon="1.76003">
        <ele>302</ele>
        <time>2011-06-26T12:25:50Z</time>
      </trkpt>
      <trkpt lat="44.08863" lon="1.7599">
        <ele>302</ele>
        <time>2011-06-26T12:25:52Z</time>
      </trkpt>
      <trkpt lat="44.08855" lon="1.75976">
        <ele>302</ele>
        <time>2011-06-26T12:25:54Z</time>
      </trkpt>
      <trkpt lat="44.08847" lon="1.75962">
        <ele>302</ele>
        <time>2011-06-26T12:25:56Z</time>
      </trkpt>
      <trkpt lat="44.08844" lon="1.75945">
        <ele>302</ele>
        <time>2011-06-26T12:25:58Z</time>
      </trkpt>
      <trkpt lat="44.0884" lon="1.75931">
        <ele>302</ele>
        <time>2011-06-26T12:26:00Z</time>
      </trkpt>
      <trkpt lat="44.08834" lon="1.75917">
        <ele>302</ele>
        <time>2011-06-26T12:26:02Z</time>
      </trkpt>
      <trkpt lat="44.08828" lon="1.75899">
        <ele>301</ele>
        <time>2011-06-26T12:26:04Z</time>
      </trkpt>
      <trkpt lat="44.0882" lon="1.75884">
        <ele>300</ele>
        <time>2011-06-26T12:26:06Z</time>
      </trkpt>
      <trkpt lat="44.08812" lon="1.75873">
        <ele>300</ele>
        <time>2011-06-26T12:26:08Z</time>
      </trkpt>
      <trkpt lat="44.08804" lon="1.75862">
        <ele>300</ele>
        <time>2011-06-26T12:26:10Z</time>
      </trkpt>
      <trkpt lat="44.08802" lon="1.75849">
        <ele>300</ele>
        <time>2011-06-26T12:26:12Z</time>
      </trkpt>
      <trkpt lat="44.08802" lon="1.75838">
        <ele>300</ele>
        <time>2011-06-26T12:26:14Z</time>
      </trkpt>
      <trkpt lat="44.08798" lon="1.75827">
        <ele>300</ele>
        <time>2011-06-26T12:26:16Z</time>
      </trkpt>
      <trkpt lat="44.08793" lon="1.75816">
        <ele>300</ele>
        <time>2011-06-26T12:26:18Z</time>
      </trkpt>
      <trkpt lat="44.08789" lon="1.75806">
        <ele>300</ele>
        <time>2011-06-26T12:26:20Z</time>
      </trkpt>
      <trkpt lat="44.08784" lon="1.75798">
        <ele>300</ele>
        <time>2011-06-26T12:26:22Z</time>
      </trkpt>
      <trkpt lat="44.08777" lon="1.7579">
        <ele>300</ele>
        <time>2011-06-26T12:26:24Z</time>
      </trkpt>
      <trkpt lat="44.08769" lon="1.7578">
        <ele>300</ele>
        <time>2011-06-26T12:26:26Z</time>
      </trkpt>
      <trkpt lat="44.08761" lon="1.75771">
        <ele>300</ele>
        <time>2011-06-26T12:26:28Z</time>
      </trkpt>
      <trkpt lat="44.08753" lon="1.75762">
        <ele>300</ele>
        <time>2011-06-26T12:26:30Z</time>
      </trkpt>
      <trkpt lat="44.08747" lon="1.75751">
        <ele>300</ele>
        <time>2011-06-26T12:26:32Z</time>
      </trkpt>
      <trkpt lat="44.08743" lon="1.75739">
        <ele>300</ele>
        <time>2011-06-26T12:26:34Z</time>
      </trkpt>
      <trkpt lat="44.08738" lon="1.75728">
        <ele>300</ele>
        <time>2011-06-26T12:26:36Z</time>
      </trkpt>
      <trkpt lat="44.08733" lon="1.75721">
        <ele>300</ele>
        <time>2011-06-26T12:26:38Z</time>
      </trkpt>
      <trkpt lat="44.08731" lon="1.75717">
        <ele>300</ele>
        <time>2011-06-26T12:26:40Z</time>
      </trkpt>
      <trkpt lat="44.08729" lon="1.75713">
        <ele>300</ele>
        <time>2011-06-26T12:26:42Z</time>
      </trkpt>
      <trkpt lat="44.08728" lon="1.7571">
        <ele>298</ele>
        <time>2011-06-26T12:26:44Z</time>
      </trkpt>
      <trkpt lat="44.08726" lon="1.75706">
        <ele>296</ele>
        <time>2011-06-26T12:26:46Z</time>
      </trkpt>
      <trkpt lat="44.08725" lon="1.75703">
        <ele>295</ele>
        <time>2011-06-26T12:26:48Z</time>
      </trkpt>
      <trkpt lat="44.08723" lon="1.75702">
        <ele>294</ele>
        <time>2011-06-26T12:26:50Z</time>
      </trkpt>
      <trkpt lat="44.08724" lon="1.757">
        <ele>293</ele>
        <time>2011-06-26T12:26:53Z</time>
      </trkpt>
      <trkpt lat="44.08724" lon="1.75697">
        <ele>293</ele>
        <time>2011-06-26T12:26:55Z</time>
      </trkpt>
      <trkpt lat="44.08724" lon="1.75695">
        <ele>292</ele>
        <time>2011-06-26T12:26:57Z</time>
      </trkpt>
      <trkpt lat="44.08723" lon="1.75691">
        <ele>290</ele>
        <time>2011-06-26T12:27:00Z</time>
      </trkpt>
      <trkpt lat="44.08725" lon="1.75689">
        <ele>290</ele>
        <time>2011-06-26T12:27:02Z</time>
      </trkpt>
      <trkpt lat="44.08728" lon="1.75687">
        <ele>290</ele>
        <time>2011-06-26T12:27:04Z</time>
      </trkpt>
      <trkpt lat="44.08729" lon="1.75686">
        <ele>290</ele>
        <time>2011-06-26T12:27:06Z</time>
      </trkpt>
      <trkpt lat="44.0873" lon="1.75684">
        <ele>290</ele>
        <time>2011-06-26T12:27:08Z</time>
      </trkpt>
      <trkpt lat="44.08732" lon="1.75683">
        <ele>290</ele>
        <time>2011-06-26T12:27:11Z</time>
      </trkpt>
      <trkpt lat="44.08732" lon="1.75681">
        <ele>290</ele>
        <time>2011-06-26T12:27:13Z</time>
      </trkpt>
      <trkpt lat="44.08734" lon="1.75678">
        <ele>290</ele>
        <time>2011-06-26T12:27:15Z</time>
      </trkpt>
      <trkpt lat="44.08736" lon="1.75676">
        <ele>290</ele>
        <time>2011-06-26T12:27:17Z</time>
      </trkpt>
      <trkpt lat="44.08737" lon="1.75675">
        <ele>290</ele>
        <time>2011-06-26T12:27:20Z</time>
      </trkpt>
      <trkpt lat="44.0874" lon="1.75673">
        <ele>290</ele>
        <time>2011-06-26T12:27:22Z</time>
      </trkpt>
      <trkpt lat="44.08742" lon="1.75671">
        <ele>290</ele>
        <time>2011-06-26T12:27:24Z</time>
      </trkpt>
      <trkpt lat="44.08743" lon="1.75669">
        <ele>290</ele>
        <time>2011-06-26T12:27:26Z</time>
      </trkpt>
      <trkpt lat="44.08744" lon="1.75667">
        <ele>291</ele>
        <time>2011-06-26T12:27:28Z</time>
      </trkpt>
      <trkpt lat="44.08746" lon="1.75665">
        <ele>292</ele>
        <time>2011-06-26T12:27:30Z</time>
      </trkpt>
      <trkpt lat="44.08747" lon="1.75663">
        <ele>294</ele>
        <time>2011-06-26T12:27:32Z</time>
      </trkpt>
      <trkpt lat="44.08748" lon="1.75661">
        <ele>295</ele>
        <time>2011-06-26T12:27:34Z</time>
      </trkpt>
      <trkpt lat="44.08749" lon="1.75658">
        <ele>295</ele>
        <time>2011-06-26T12:27:36Z</time>
      </trkpt>
      <trkpt lat="44.0875" lon="1.75655">
        <ele>296</ele>
        <time>2011-06-26T12:27:38Z</time>
      </trkpt>
      <trkpt lat="44.08753" lon="1.75652">
        <ele>297</ele>
        <time>2011-06-26T12:27:41Z</time>
      </trkpt>
      <trkpt lat="44.08755" lon="1.7565">
        <ele>297</ele>
        <time>2011-06-26T12:27:43Z</time>
      </trkpt>
      <trkpt lat="44.08757" lon="1.75648">
        <ele>297</ele>
        <time>2011-06-26T12:27:45Z</time>
      </trkpt>
      <trkpt lat="44.08758" lon="1.75645">
        <ele>297</ele>
        <time>2011-06-26T12:27:47Z</time>
      </trkpt>
      <trkpt lat="44.08759" lon="1.75641">
        <ele>297</ele>
        <time>2011-06-26T12:27:49Z</time>
      </trkpt>
      <trkpt lat="44.08761" lon="1.75637">
        <ele>297</ele>
        <time>2011-06-26T12:27:51Z</time>
      </trkpt>
      <trkpt lat="44.08763" lon="1.75632">
        <ele>297</ele>
        <time>2011-06-26T12:27:53Z</time>
      </trkpt>
      <trkpt lat="44.08765" lon="1.75626">
        <ele>297</ele>
        <time>2011-06-26T12:27:55Z</time>
      </trkpt>
      <trkpt lat="44.08767" lon="1.75622">
        <ele>297</ele>
        <time>2011-06-26T12:27:57Z</time>
      </trkpt>
      <trkpt lat="44.08767" lon="1.7562">
        <ele>297</ele>
        <time>2011-06-26T12:27:59Z</time>
      </trkpt>
      <trkpt lat="44.08767" lon="1.75616">
        <ele>297</ele>
        <time>2011-06-26T12:28:02Z</time>
      </trkpt>
      <trkpt lat="44.08767" lon="1.75614">
        <ele>297</ele>
        <time>2011-06-26T12:28:04Z</time>
      </trkpt>
      <trkpt lat="44.08768" lon="1.75608">
        <ele>297</ele>
        <time>2011-06-26T12:28:06Z</time>
      </trkpt>
      <trkpt lat="44.08768" lon="1.756">
        <ele>296</ele>
        <time>2011-06-26T12:28:08Z</time>
      </trkpt>
      <trkpt lat="44.08769" lon="1.75591">
        <ele>295</ele>
        <time>2011-06-26T12:28:10Z</time>
      </trkpt>
      <trkpt lat="44.08771" lon="1.7558">
        <ele>294</ele>
        <time>2011-06-26T12:28:12Z</time>
      </trkpt>
      <trkpt lat="44.08773" lon="1.7557">
        <ele>293</ele>
        <time>2011-06-26T12:28:14Z</time>
      </trkpt>
      <trkpt lat="44.08775" lon="1.75563">
        <ele>292</ele>
        <time>2011-06-26T12:28:16Z</time>
      </trkpt>
      <trkpt lat="44.08778" lon="1.75554">
        <ele>292</ele>
        <time>2011-06-26T12:28:18Z</time>
      </trkpt>
      <trkpt lat="44.08779" lon="1.75546">
        <ele>292</ele>
        <time>2011-06-26T12:28:20Z</time>
      </trkpt>
      <trkpt lat="44.08781" lon="1.75536">
        <ele>291</ele>
        <time>2011-06-26T12:28:22Z</time>
      </trkpt>
      <trkpt lat="44.08783" lon="1.75525">
        <ele>291</ele>
        <time>2011-06-26T12:28:24Z</time>
      </trkpt>
      <trkpt lat="44.08786" lon="1.75515">
        <ele>291</ele>
        <time>2011-06-26T12:28:26Z</time>
      </trkpt>
      <trkpt lat="44.08789" lon="1.75507">
        <ele>291</ele>
        <time>2011-06-26T12:28:28Z</time>
      </trkpt>
      <trkpt lat="44.08791" lon="1.75498">
        <ele>291</ele>
        <time>2011-06-26T12:28:30Z</time>
      </trkpt>
      <trkpt lat="44.08793" lon="1.75488">
        <ele>290</ele>
        <time>2011-06-26T12:28:32Z</time>
      </trkpt>
      <trkpt lat="44.08795" lon="1.75477">
        <ele>290</ele>
        <time>2011-06-26T12:28:34Z</time>
      </trkpt>
      <trkpt lat="44.08797" lon="1.75465">
        <ele>290</ele>
        <time>2011-06-26T12:28:36Z</time>
      </trkpt>
      <trkpt lat="44.08801" lon="1.75454">
        <ele>290</ele>
        <time>2011-06-26T12:28:38Z</time>
      </trkpt>
      <trkpt lat="44.08803" lon="1.75444">
        <ele>290</ele>
        <time>2011-06-26T12:28:40Z</time>
      </trkpt>
      <trkpt lat="44.08804" lon="1.75431">
        <ele>290</ele>
        <time>2011-06-26T12:28:42Z</time>
      </trkpt>
      <trkpt lat="44.08805" lon="1.75418">
        <ele>290</ele>
        <time>2011-06-26T12:28:44Z</time>
      </trkpt>
      <trkpt lat="44.08807" lon="1.75406">
        <ele>290</ele>
        <time>2011-06-26T12:28:46Z</time>
      </trkpt>
      <trkpt lat="44.08808" lon="1.75396">
        <ele>290</ele>
        <time>2011-06-26T12:28:48Z</time>
      </trkpt>
      <trkpt lat="44.0881" lon="1.75387">
        <ele>290</ele>
        <time>2011-06-26T12:28:50Z</time>
      </trkpt>
      <trkpt lat="44.08813" lon="1.75377">
        <ele>290</ele>
        <time>2011-06-26T12:28:52Z</time>
      </trkpt>
      <trkpt lat="44.08815" lon="1.75368">
        <ele>290</ele>
        <time>2011-06-26T12:28:54Z</time>
      </trkpt>
      <trkpt lat="44.08818" lon="1.75357">
        <ele>290</ele>
        <time>2011-06-26T12:28:56Z</time>
      </trkpt>
      <trkpt lat="44.0882" lon="1.75347">
        <ele>290</ele>
        <time>2011-06-26T12:28:58Z</time>
      </trkpt>
      <trkpt lat="44.08823" lon="1.75337">
        <ele>290</ele>
        <time>2011-06-26T12:29:00Z</time>
      </trkpt>
      <trkpt lat="44.08824" lon="1.75324">
        <ele>290</ele>
        <time>2011-06-26T12:29:02Z</time>
      </trkpt>
      <trkpt lat="44.08826" lon="1.75311">
        <ele>290</ele>
        <time>2011-06-26T12:29:04Z</time>
      </trkpt>
      <trkpt lat="44.08829" lon="1.75297">
        <ele>290</ele>
        <time>2011-06-26T12:29:06Z</time>
      </trkpt>
      <trkpt lat="44.08832" lon="1.75283">
        <ele>290</ele>
        <time>2011-06-26T12:29:08Z</time>
      </trkpt>
      <trkpt lat="44.08836" lon="1.75267">
        <ele>290</ele>
        <time>2011-06-26T12:29:10Z</time>
      </trkpt>
      <trkpt lat="44.08838" lon="1.75249">
        <ele>290</ele>
        <time>2011-06-26T12:29:12Z</time>
      </trkpt>
      <trkpt lat="44.08841" lon="1.75228">
        <ele>290</ele>
        <time>2011-06-26T12:29:14Z</time>
      </trkpt>
      <trkpt lat="44.08845" lon="1.7521">
        <ele>290</ele>
        <time>2011-06-26T12:29:16Z</time>
      </trkpt>
      <trkpt lat="44.08848" lon="1.75194">
        <ele>290</ele>
        <time>2011-06-26T12:29:18Z</time>
      </trkpt>
      <trkpt lat="44.08852" lon="1.7518">
        <ele>290</ele>
        <time>2011-06-26T12:29:20Z</time>
      </trkpt>
      <trkpt lat="44.08854" lon="1.75171">
        <ele>290</ele>
        <time>2011-06-26T12:29:22Z</time>
      </trkpt>
      <trkpt lat="44.08856" lon="1.75166">
        <ele>290</ele>
        <time>2011-06-26T12:29:24Z</time>
      </trkpt>
      <trkpt lat="44.08856" lon="1.75161">
        <ele>289</ele>
        <time>2011-06-26T12:29:26Z</time>
      </trkpt>
      <trkpt lat="44.08856" lon="1.75154">
        <ele>289</ele>
        <time>2011-06-26T12:29:28Z</time>
      </trkpt>
      <trkpt lat="44.08857" lon="1.75146">
        <ele>289</ele>
        <time>2011-06-26T12:29:30Z</time>
      </trkpt>
      <trkpt lat="44.08858" lon="1.7514">
        <ele>289</ele>
        <time>2011-06-26T12:29:32Z</time>
      </trkpt>
      <trkpt lat="44.08857" lon="1.75136">
        <ele>289</ele>
        <time>2011-06-26T12:29:35Z</time>
      </trkpt>
      <trkpt lat="44.08858" lon="1.75134">
        <ele>289</ele>
        <time>2011-06-26T12:29:38Z</time>
      </trkpt>
      <trkpt lat="44.08858" lon="1.75128">
        <ele>289</ele>
        <time>2011-06-26T12:29:40Z</time>
      </trkpt>
      <trkpt lat="44.08858" lon="1.75124">
        <ele>289</ele>
        <time>2011-06-26T12:29:42Z</time>
      </trkpt>
      <trkpt lat="44.08859" lon="1.75121">
        <ele>289</ele>
        <time>2011-06-26T12:29:44Z</time>
      </trkpt>
      <trkpt lat="44.0886" lon="1.75119">
        <ele>289</ele>
        <time>2011-06-26T12:29:46Z</time>
      </trkpt>
      <trkpt lat="44.0886" lon="1.75115">
        <ele>288</ele>
        <time>2011-06-26T12:29:49Z</time>
      </trkpt>
      <trkpt lat="44.0886" lon="1.75113">
        <ele>288</ele>
        <time>2011-06-26T12:29:51Z</time>
      </trkpt>
      <trkpt lat="44.0886" lon="1.75109">
        <ele>288</ele>
        <time>2011-06-26T12:29:53Z</time>
      </trkpt>
      <trkpt lat="44.08862" lon="1.75103">
        <ele>288</ele>
        <time>2011-06-26T12:29:55Z</time>
      </trkpt>
      <trkpt lat="44.08863" lon="1.75097">
        <ele>288</ele>
        <time>2011-06-26T12:29:57Z</time>
      </trkpt>
      <trkpt lat="44.08863" lon="1.75091">
        <ele>288</ele>
        <time>2011-06-26T12:29:59Z</time>
      </trkpt>
      <trkpt lat="44.08863" lon="1.75084">
        <ele>288</ele>
        <time>2011-06-26T12:30:01Z</time>
      </trkpt>
      <trkpt lat="44.08864" lon="1.75079">
        <ele>288</ele>
        <time>2011-06-26T12:30:04Z</time>
      </trkpt>
      <trkpt lat="44.08863" lon="1.75078">
        <ele>288</ele>
        <time>2011-06-26T12:30:17Z</time>
      </trkpt>
      <trkpt lat="44.08863" lon="1.75076">
        <ele>288</ele>
        <time>2011-06-26T12:30:22Z</time>
      </trkpt>
      <trkpt lat="44.08863" lon="1.75075">
        <ele>288</ele>
        <time>2011-06-26T12:30:26Z</time>
      </trkpt>
      <trkpt lat="44.08862" lon="1.75073">
        <ele>288</ele>
        <time>2011-06-26T12:30:28Z</time>
      </trkpt>
      <trkpt lat="44.08862" lon="1.75072">
        <ele>288</ele>
        <time>2011-06-26T12:30:35Z</time>
      </trkpt>
      <trkpt lat="44.08863" lon="1.75069">
        <ele>288</ele>
        <time>2011-06-26T12:30:42Z</time>
      </trkpt>
      <trkpt lat="44.08863" lon="1.75066">
        <ele>288</ele>
        <time>2011-06-26T12:30:44Z</time>
      </trkpt>
      <trkpt lat="44.08864" lon="1.7506">
        <ele>288</ele>
        <time>2011-06-26T12:30:46Z</time>
      </trkpt>
      <trkpt lat="44.08865" lon="1.75055">
        <ele>288</ele>
        <time>2011-06-26T12:30:48Z</time>
      </trkpt>
      <trkpt lat="44.08867" lon="1.75048">
        <ele>288</ele>
        <time>2011-06-26T12:30:50Z</time>
      </trkpt>
      <trkpt lat="44.08868" lon="1.75041">
        <ele>288</ele>
        <time>2011-06-26T12:30:52Z</time>
      </trkpt>
      <trkpt lat="44.0887" lon="1.75035">
        <ele>288</ele>
        <time>2011-06-26T12:30:54Z</time>
      </trkpt>
      <trkpt lat="44.08872" lon="1.75028">
        <ele>288</ele>
        <time>2011-06-26T12:30:56Z</time>
      </trkpt>
      <trkpt lat="44.08874" lon="1.7502">
        <ele>288</ele>
        <time>2011-06-26T12:30:58Z</time>
      </trkpt>
      <trkpt lat="44.08875" lon="1.75012">
        <ele>288</ele>
        <time>2011-06-26T12:31:00Z</time>
      </trkpt>
      <trkpt lat="44.08877" lon="1.75004">
        <ele>288</ele>
        <time>2011-06-26T12:31:02Z</time>
      </trkpt>
      <trkpt lat="44.08878" lon="1.74995">
        <ele>288</ele>
        <time>2011-06-26T12:31:04Z</time>
      </trkpt>
      <trkpt lat="44.08876" lon="1.74988">
        <ele>288</ele>
        <time>2011-06-26T12:31:06Z</time>
      </trkpt>
      <trkpt lat="44.08874" lon="1.74979">
        <ele>288</ele>
        <time>2011-06-26T12:31:08Z</time>
      </trkpt>
      <trkpt lat="44.08875" lon="1.74971">
        <ele>288</ele>
        <time>2011-06-26T12:31:10Z</time>
      </trkpt>
      <trkpt lat="44.08876" lon="1.74967">
        <ele>288</ele>
        <time>2011-06-26T12:31:12Z</time>
      </trkpt>
      <trkpt lat="44.08876" lon="1.74964">
        <ele>288</ele>
        <time>2011-06-26T12:31:14Z</time>
      </trkpt>
      <trkpt lat="44.08876" lon="1.74957">
        <ele>288</ele>
        <time>2011-06-26T12:31:16Z</time>
      </trkpt>
      <trkpt lat="44.08875" lon="1.74949">
        <ele>288</ele>
        <time>2011-06-26T12:31:18Z</time>
      </trkpt>
      <trkpt lat="44.08875" lon="1.74941">
        <ele>288</ele>
        <time>2011-06-26T12:31:20Z</time>
      </trkpt>
      <trkpt lat="44.08874" lon="1.74932">
        <ele>288</ele>
        <time>2011-06-26T12:31:22Z</time>
      </trkpt>
      <trkpt lat="44.08874" lon="1.74923">
        <ele>288</ele>
        <time>2011-06-26T12:31:24Z</time>
      </trkpt>
      <trkpt lat="44.08872" lon="1.74915">
        <ele>288</ele>
        <time>2011-06-26T12:31:26Z</time>
      </trkpt>
      <trkpt lat="44.08871" lon="1.74906">
        <ele>288</ele>
        <time>2011-06-26T12:31:28Z</time>
      </trkpt>
      <trkpt lat="44.08871" lon="1.74898">
        <ele>288</ele>
        <time>2011-06-26T12:31:30Z</time>
      </trkpt>
      <trkpt lat="44.08873" lon="1.74889">
        <ele>288</ele>
        <time>2011-06-26T12:31:32Z</time>
      </trkpt>
      <trkpt lat="44.08873" lon="1.74879">
        <ele>288</ele>
        <time>2011-06-26T12:31:34Z</time>
      </trkpt>
      <trkpt lat="44.08875" lon="1.74868">
        <ele>288</ele>
        <time>2011-06-26T12:31:36Z</time>
      </trkpt>
      <trkpt lat="44.08876" lon="1.74857">
        <ele>288</ele>
        <time>2011-06-26T12:31:38Z</time>
      </trkpt>
      <trkpt lat="44.08879" lon="1.74846">
        <ele>288</ele>
        <time>2011-06-26T12:31:40Z</time>
      </trkpt>
      <trkpt lat="44.08882" lon="1.74836">
        <ele>288</ele>
        <time>2011-06-26T12:31:42Z</time>
      </trkpt>
      <trkpt lat="44.08884" lon="1.74828">
        <ele>288</ele>
        <time>2011-06-26T12:31:44Z</time>
      </trkpt>
      <trkpt lat="44.08887" lon="1.74819">
        <ele>288</ele>
        <time>2011-06-26T12:31:46Z</time>
      </trkpt>
      <trkpt lat="44.0889" lon="1.7481">
        <ele>288</ele>
        <time>2011-06-26T12:31:48Z</time>
      </trkpt>
      <trkpt lat="44.08892" lon="1.74801">
        <ele>288</ele>
        <time>2011-06-26T12:31:50Z</time>
      </trkpt>
      <trkpt lat="44.08892" lon="1.74792">
        <ele>288</ele>
        <time>2011-06-26T12:31:52Z</time>
      </trkpt>
      <trkpt lat="44.08891" lon="1.74783">
        <ele>288</ele>
        <time>2011-06-26T12:31:54Z</time>
      </trkpt>
      <trkpt lat="44.08889" lon="1.74775">
        <ele>288</ele>
        <time>2011-06-26T12:31:56Z</time>
      </trkpt>
      <trkpt lat="44.08889" lon="1.74766">
        <ele>288</ele>
        <time>2011-06-26T12:31:58Z</time>
      </trkpt>
      <trkpt lat="44.0889" lon="1.74757">
        <ele>288</ele>
        <time>2011-06-26T12:32:00Z</time>
      </trkpt>
      <trkpt lat="44.08889" lon="1.74748">
        <ele>288</ele>
        <time>2011-06-26T12:32:02Z</time>
      </trkpt>
      <trkpt lat="44.08888" lon="1.74736">
        <ele>288</ele>
        <time>2011-06-26T12:32:04Z</time>
      </trkpt>
      <trkpt lat="44.08887" lon="1.74726">
        <ele>288</ele>
        <time>2011-06-26T12:32:06Z</time>
      </trkpt>
      <trkpt lat="44.0889" lon="1.7472">
        <ele>288</ele>
        <time>2011-06-26T12:32:08Z</time>
      </trkpt>
      <trkpt lat="44.08893" lon="1.74717">
        <ele>288</ele>
        <time>2011-06-26T12:32:10Z</time>
      </trkpt>
      <trkpt lat="44.08894" lon="1.74718">
        <ele>288</ele>
        <time>2011-06-26T12:32:17Z</time>
      </trkpt>
      <trkpt lat="44.08892" lon="1.7472">
        <ele>289</ele>
        <time>2011-06-26T12:32:20Z</time>
      </trkpt>
      <trkpt lat="44.0889" lon="1.74722">
        <ele>289</ele>
        <time>2011-06-26T12:32:22Z</time>
      </trkpt>
      <trkpt lat="44.08887" lon="1.74721">
        <ele>289</ele>
        <time>2011-06-26T12:32:24Z</time>
      </trkpt>
      <trkpt lat="44.08885" lon="1.74717">
        <ele>289</ele>
        <time>2011-06-26T12:32:26Z</time>
      </trkpt>
      <trkpt lat="44.08882" lon="1.74709">
        <ele>289</ele>
        <time>2011-06-26T12:32:28Z</time>
      </trkpt>
      <trkpt lat="44.08878" lon="1.74699">
        <ele>289</ele>
        <time>2011-06-26T12:32:30Z</time>
      </trkpt>
      <trkpt lat="44.08876" lon="1.74685">
        <ele>289</ele>
        <time>2011-06-26T12:32:32Z</time>
      </trkpt>
      <trkpt lat="44.08875" lon="1.74669">
        <ele>287</ele>
        <time>2011-06-26T12:32:34Z</time>
      </trkpt>
      <trkpt lat="44.08874" lon="1.74651">
        <ele>286</ele>
        <time>2011-06-26T12:32:36Z</time>
      </trkpt>
      <trkpt lat="44.08872" lon="1.74634">
        <ele>285</ele>
        <time>2011-06-26T12:32:38Z</time>
      </trkpt>
      <trkpt lat="44.08869" lon="1.74617">
        <ele>284</ele>
        <time>2011-06-26T12:32:40Z</time>
      </trkpt>
      <trkpt lat="44.08868" lon="1.74595">
        <ele>283</ele>
        <time>2011-06-26T12:32:42Z</time>
      </trkpt>
      <trkpt lat="44.08867" lon="1.74572">
        <ele>283</ele>
        <time>2011-06-26T12:32:44Z</time>
      </trkpt>
      <trkpt lat="44.08864" lon="1.74549">
        <ele>281</ele>
        <time>2011-06-26T12:32:46Z</time>
      </trkpt>
      <trkpt lat="44.08861" lon="1.74525">
        <ele>281</ele>
        <time>2011-06-26T12:32:48Z</time>
      </trkpt>
      <trkpt lat="44.08856" lon="1.74504">
        <ele>280</ele>
        <time>2011-06-26T12:32:50Z</time>
      </trkpt>
      <trkpt lat="44.08849" lon="1.74486">
        <ele>280</ele>
        <time>2011-06-26T12:32:52Z</time>
      </trkpt>
      <trkpt lat="44.08841" lon="1.74471">
        <ele>279</ele>
        <time>2011-06-26T12:32:54Z</time>
      </trkpt>
      <trkpt lat="44.08836" lon="1.74459">
        <ele>278</ele>
        <time>2011-06-26T12:32:56Z</time>
      </trkpt>
      <trkpt lat="44.08831" lon="1.74447">
        <ele>278</ele>
        <time>2011-06-26T12:32:58Z</time>
      </trkpt>
      <trkpt lat="44.08824" lon="1.74435">
        <ele>277</ele>
        <time>2011-06-26T12:33:00Z</time>
      </trkpt>
      <trkpt lat="44.08818" lon="1.74422">
        <ele>276</ele>
        <time>2011-06-26T12:33:02Z</time>
      </trkpt>
      <trkpt lat="44.08813" lon="1.74408">
        <ele>274</ele>
        <time>2011-06-26T12:33:04Z</time>
      </trkpt>
      <trkpt lat="44.08812" lon="1.74393">
        <ele>273</ele>
        <time>2011-06-26T12:33:06Z</time>
      </trkpt>
      <trkpt lat="44.08814" lon="1.74378">
        <ele>271</ele>
        <time>2011-06-26T12:33:08Z</time>
      </trkpt>
      <trkpt lat="44.08818" lon="1.74368">
        <ele>269</ele>
        <time>2011-06-26T12:33:10Z</time>
      </trkpt>
      <trkpt lat="44.08821" lon="1.74362">
        <ele>267</ele>
        <time>2011-06-26T12:33:12Z</time>
      </trkpt>
      <trkpt lat="44.08823" lon="1.74358">
        <ele>265</ele>
        <time>2011-06-26T12:33:14Z</time>
      </trkpt>
      <trkpt lat="44.08823" lon="1.74355">
        <ele>263</ele>
        <time>2011-06-26T12:33:16Z</time>
      </trkpt>
      <trkpt lat="44.08823" lon="1.74351">
        <ele>262</ele>
        <time>2011-06-26T12:33:18Z</time>
      </trkpt>
      <trkpt lat="44.08821" lon="1.74347">
        <ele>262</ele>
        <time>2011-06-26T12:33:20Z</time>
      </trkpt>
      <trkpt lat="44.08821" lon="1.74348">
        <ele>262</ele>
        <time>2011-06-26T12:33:29Z</time>
      </trkpt>
      <trkpt lat="44.08823" lon="1.7435">
        <ele>262</ele>
        <time>2011-06-26T12:33:42Z</time>
      </trkpt>
      <trkpt lat="44.08822" lon="1.74352">
        <ele>262</ele>
        <time>2011-06-26T12:33:44Z</time>
      </trkpt>
      <trkpt lat="44.08822" lon="1.74354">
        <ele>262</ele>
        <time>2011-06-26T12:33:46Z</time>
      </trkpt>
      <trkpt lat="44.08822" lon="1.74355">
        <ele>263</ele>
        <time>2011-06-26T12:33:49Z</time>
      </trkpt>
      <trkpt lat="44.08822" lon="1.74353">
        <ele>266</ele>
        <time>2011-06-26T12:34:14Z</time>
      </trkpt>
      <trkpt lat="44.08823" lon="1.74355">
        <ele>266</ele>
        <time>2011-06-26T12:34:16Z</time>
      </trkpt>
      <trkpt lat="44.08823" lon="1.74357">
        <ele>266</ele>
        <time>2011-06-26T12:34:18Z</time>
      </trkpt>
      <trkpt lat="44.08823" lon="1.74359">
        <ele>266</ele>
        <time>2011-06-26T12:34:20Z</time>
      </trkpt>
      <trkpt lat="44.08823" lon="1.74361">
        <ele>266</ele>
        <time>2011-06-26T12:34:22Z</time>
      </trkpt>
      <trkpt lat="44.08823" lon="1.74364">
        <ele>266</ele>
        <time>2011-06-26T12:34:24Z</time>
      </trkpt>
      <trkpt lat="44.08822" lon="1.74365">
        <ele>266</ele>
        <time>2011-06-26T12:34:26Z</time>
      </trkpt>
      <trkpt lat="44.08822" lon="1.74367">
        <ele>266</ele>
        <time>2011-06-26T12:34:28Z</time>
      </trkpt>
      <trkpt lat="44.0882" lon="1.74372">
        <ele>266</ele>
        <time>2011-06-26T12:34:31Z</time>
      </trkpt>
      <trkpt lat="44.08819" lon="1.74375">
        <ele>266</ele>
        <time>2011-06-26T12:34:34Z</time>
      </trkpt>
      <trkpt lat="44.08818" lon="1.74378">
        <ele>266</ele>
        <time>2011-06-26T12:34:36Z</time>
      </trkpt>
      <trkpt lat="44.08818" lon="1.74381">
        <ele>266</ele>
        <time>2011-06-26T12:34:38Z</time>
      </trkpt>
      <trkpt lat="44.08817" lon="1.74383">
        <ele>266</ele>
        <time>2011-06-26T12:34:40Z</time>
      </trkpt>
      <trkpt lat="44.08817" lon="1.74386">
        <ele>266</ele>
        <time>2011-06-26T12:34:42Z</time>
      </trkpt>
      <trkpt lat="44.08816" lon="1.74388">
        <ele>266</ele>
        <time>2011-06-26T12:34:44Z</time>
      </trkpt>
      <trkpt lat="44.08815" lon="1.7439">
        <ele>266</ele>
        <time>2011-06-26T12:34:46Z</time>
      </trkpt>
      <trkpt lat="44.08815" lon="1.74393">
        <ele>266</ele>
        <time>2011-06-26T12:34:48Z</time>
      </trkpt>
      <trkpt lat="44.08815" lon="1.74395">
        <ele>266</ele>
        <time>2011-06-26T12:34:50Z</time>
      </trkpt>
      <trkpt lat="44.08814" lon="1.74397">
        <ele>266</ele>
        <time>2011-06-26T12:34:52Z</time>
      </trkpt>
      <trkpt lat="44.08813" lon="1.74401">
        <ele>266</ele>
        <time>2011-06-26T12:34:55Z</time>
      </trkpt>
      <trkpt lat="44.08813" lon="1.74405">
        <ele>266</ele>
        <time>2011-06-26T12:34:58Z</time>
      </trkpt>
      <trkpt lat="44.08814" lon="1.74407">
        <ele>266</ele>
        <time>2011-06-26T12:35:00Z</time>
      </trkpt>
      <trkpt lat="44.08815" lon="1.74409">
        <ele>266</ele>
        <time>2011-06-26T12:35:02Z</time>
      </trkpt>
      <trkpt lat="44.08816" lon="1.74411">
        <ele>266</ele>
        <time>2011-06-26T12:35:04Z</time>
      </trkpt>
      <trkpt lat="44.08816" lon="1.74415">
        <ele>266</ele>
        <time>2011-06-26T12:35:07Z</time>
      </trkpt>
      <trkpt lat="44.08817" lon="1.74418">
        <ele>266</ele>
        <time>2011-06-26T12:35:10Z</time>
      </trkpt>
      <trkpt lat="44.08818" lon="1.74421">
        <ele>266</ele>
        <time>2011-06-26T12:35:12Z</time>
      </trkpt>
      <trkpt lat="44.08818" lon="1.74424">
        <ele>266</ele>
        <time>2011-06-26T12:35:14Z</time>
      </trkpt>
      <trkpt lat="44.08819" lon="1.74425">
        <ele>266</ele>
        <time>2011-06-26T12:35:16Z</time>
      </trkpt>
      <trkpt lat="44.08819" lon="1.74427">
        <ele>266</ele>
        <time>2011-06-26T12:35:18Z</time>
      </trkpt>
      <trkpt lat="44.0882" lon="1.74428">
        <ele>266</ele>
        <time>2011-06-26T12:35:20Z</time>
      </trkpt>
      <trkpt lat="44.08821" lon="1.7443">
        <ele>266</ele>
        <time>2011-06-26T12:35:22Z</time>
      </trkpt>
      <trkpt lat="44.08823" lon="1.74432">
        <ele>266</ele>
        <time>2011-06-26T12:35:24Z</time>
      </trkpt>
      <trkpt lat="44.08824" lon="1.74433">
        <ele>267</ele>
        <time>2011-06-26T12:35:26Z</time>
      </trkpt>
      <trkpt lat="44.08825" lon="1.74435">
        <ele>268</ele>
        <time>2011-06-26T12:35:28Z</time>
      </trkpt>
      <trkpt lat="44.08826" lon="1.74437">
        <ele>269</ele>
        <time>2011-06-26T12:35:30Z</time>
      </trkpt>
      <trkpt lat="44.08827" lon="1.74439">
        <ele>269</ele>
        <time>2011-06-26T12:35:32Z</time>
      </trkpt>
      <trkpt lat="44.08828" lon="1.74441">
        <ele>270</ele>
        <time>2011-06-26T12:35:34Z</time>
      </trkpt>
      <trkpt lat="44.0883" lon="1.74443">
        <ele>271</ele>
        <time>2011-06-26T12:35:36Z</time>
      </trkpt>
      <trkpt lat="44.08831" lon="1.74445">
        <ele>271</ele>
        <time>2011-06-26T12:35:38Z</time>
      </trkpt>
      <trkpt lat="44.08832" lon="1.74448">
        <ele>271</ele>
        <time>2011-06-26T12:35:40Z</time>
      </trkpt>
      <trkpt lat="44.08833" lon="1.74451">
        <ele>271</ele>
        <time>2011-06-26T12:35:42Z</time>
      </trkpt>
      <trkpt lat="44.08834" lon="1.74452">
        <ele>272</ele>
        <time>2011-06-26T12:35:45Z</time>
      </trkpt>
      <trkpt lat="44.08835" lon="1.74454">
        <ele>272</ele>
        <time>2011-06-26T12:35:47Z</time>
      </trkpt>
      <trkpt lat="44.08837" lon="1.74459">
        <ele>272</ele>
        <time>2011-06-26T12:35:49Z</time>
      </trkpt>
      <trkpt lat="44.0884" lon="1.74466">
        <ele>272</ele>
        <time>2011-06-26T12:35:51Z</time>
      </trkpt>
      <trkpt lat="44.08844" lon="1.74475">
        <ele>272</ele>
        <time>2011-06-26T12:35:53Z</time>
      </trkpt>
      <trkpt lat="44.08849" lon="1.74486">
        <ele>272</ele>
        <time>2011-06-26T12:35:55Z</time>
      </trkpt>
      <trkpt lat="44.08854" lon="1.74496">
        <ele>272</ele>
        <time>2011-06-26T12:35:57Z</time>
      </trkpt>
      <trkpt lat="44.08858" lon="1.74509">
        <ele>272</ele>
        <time>2011-06-26T12:35:59Z</time>
      </trkpt>
      <trkpt lat="44.08862" lon="1.74521">
        <ele>272</ele>
        <time>2011-06-26T12:36:01Z</time>
      </trkpt>
      <trkpt lat="44.08863" lon="1.74532">
        <ele>272</ele>
        <time>2011-06-26T12:36:04Z</time>
      </trkpt>
      <trkpt lat="44.08865" lon="1.74548">
        <ele>272</ele>
        <time>2011-06-26T12:36:06Z</time>
      </trkpt>
      <trkpt lat="44.08867" lon="1.74558">
        <ele>272</ele>
        <time>2011-06-26T12:36:08Z</time>
      </trkpt>
      <trkpt lat="44.08868" lon="1.74567">
        <ele>272</ele>
        <time>2011-06-26T12:36:10Z</time>
      </trkpt>
      <trkpt lat="44.08868" lon="1.74575">
        <ele>272</ele>
        <time>2011-06-26T12:36:12Z</time>
      </trkpt>
      <trkpt lat="44.08869" lon="1.74584">
        <ele>273</ele>
        <time>2011-06-26T12:36:14Z</time>
      </trkpt>
      <trkpt lat="44.08869" lon="1.74592">
        <ele>273</ele>
        <time>2011-06-26T12:36:16Z</time>
      </trkpt>
      <trkpt lat="44.08869" lon="1.746">
        <ele>274</ele>
        <time>2011-06-26T12:36:18Z</time>
      </trkpt>
      <trkpt lat="44.0887" lon="1.74609">
        <ele>274</ele>
        <time>2011-06-26T12:36:20Z</time>
      </trkpt>
      <trkpt lat="44.0887" lon="1.74616">
        <ele>275</ele>
        <time>2011-06-26T12:36:22Z</time>
      </trkpt>
      <trkpt lat="44.08872" lon="1.74621">
        <ele>276</ele>
        <time>2011-06-26T12:36:24Z</time>
      </trkpt>
      <trkpt lat="44.08873" lon="1.74627">
        <ele>276</ele>
        <time>2011-06-26T12:36:26Z</time>
      </trkpt>
      <trkpt lat="44.08874" lon="1.74633">
        <ele>276</ele>
        <time>2011-06-26T12:36:28Z</time>
      </trkpt>
      <trkpt lat="44.08875" lon="1.74638">
        <ele>276</ele>
        <time>2011-06-26T12:36:30Z</time>
      </trkpt>
      <trkpt lat="44.08875" lon="1.74643">
        <ele>277</ele>
        <time>2011-06-26T12:36:32Z</time>
      </trkpt>
      <trkpt lat="44.08875" lon="1.74649">
        <ele>277</ele>
        <time>2011-06-26T12:36:34Z</time>
      </trkpt>
      <trkpt lat="44.08876" lon="1.74654">
        <ele>278</ele>
        <time>2011-06-26T12:36:36Z</time>
      </trkpt>
      <trkpt lat="44.08876" lon="1.7466">
        <ele>278</ele>
        <time>2011-06-26T12:36:38Z</time>
      </trkpt>
      <trkpt lat="44.08876" lon="1.74667">
        <ele>278</ele>
        <time>2011-06-26T12:36:40Z</time>
      </trkpt>
      <trkpt lat="44.08876" lon="1.74673">
        <ele>280</ele>
        <time>2011-06-26T12:36:42Z</time>
      </trkpt>
      <trkpt lat="44.08875" lon="1.7468">
        <ele>282</ele>
        <time>2011-06-26T12:36:44Z</time>
      </trkpt>
      <trkpt lat="44.08876" lon="1.74686">
        <ele>284</ele>
        <time>2011-06-26T12:36:46Z</time>
      </trkpt>
      <trkpt lat="44.08877" lon="1.74692">
        <ele>284</ele>
        <time>2011-06-26T12:36:48Z</time>
      </trkpt>
      <trkpt lat="44.08878" lon="1.74697">
        <ele>285</ele>
        <time>2011-06-26T12:36:50Z</time>
      </trkpt>
      <trkpt lat="44.08879" lon="1.74702">
        <ele>285</ele>
        <time>2011-06-26T12:36:52Z</time>
      </trkpt>
      <trkpt lat="44.08881" lon="1.74706">
        <ele>286</ele>
        <time>2011-06-26T12:36:54Z</time>
      </trkpt>
      <trkpt lat="44.08883" lon="1.7471">
        <ele>287</ele>
        <time>2011-06-26T12:36:56Z</time>
      </trkpt>
      <trkpt lat="44.08885" lon="1.74714">
        <ele>288</ele>
        <time>2011-06-26T12:36:58Z</time>
      </trkpt>
      <trkpt lat="44.08886" lon="1.74718">
        <ele>290</ele>
        <time>2011-06-26T12:37:00Z</time>
      </trkpt>
      <trkpt lat="44.08889" lon="1.74719">
        <ele>291</ele>
        <time>2011-06-26T12:37:02Z</time>
      </trkpt>
      <trkpt lat="44.08892" lon="1.74717">
        <ele>292</ele>
        <time>2011-06-26T12:37:05Z</time>
      </trkpt>
      <trkpt lat="44.08894" lon="1.74715">
        <ele>293</ele>
        <time>2011-06-26T12:37:07Z</time>
      </trkpt>
      <trkpt lat="44.08897" lon="1.74711">
        <ele>293</ele>
        <time>2011-06-26T12:37:09Z</time>
      </trkpt>
      <trkpt lat="44.08899" lon="1.74707">
        <ele>294</ele>
        <time>2011-06-26T12:37:11Z</time>
      </trkpt>
      <trkpt lat="44.08901" lon="1.74705">
        <ele>294</ele>
        <time>2011-06-26T12:37:13Z</time>
      </trkpt>
      <trkpt lat="44.08903" lon="1.74702">
        <ele>294</ele>
        <time>2011-06-26T12:37:15Z</time>
      </trkpt>
      <trkpt lat="44.08905" lon="1.74699">
        <ele>294</ele>
        <time>2011-06-26T12:37:17Z</time>
      </trkpt>
      <trkpt lat="44.08905" lon="1.74695">
        <ele>294</ele>
        <time>2011-06-26T12:37:19Z</time>
      </trkpt>
      <trkpt lat="44.08906" lon="1.74689">
        <ele>294</ele>
        <time>2011-06-26T12:37:21Z</time>
      </trkpt>
      <trkpt lat="44.08908" lon="1.74683">
        <ele>294</ele>
        <time>2011-06-26T12:37:23Z</time>
      </trkpt>
      <trkpt lat="44.08908" lon="1.74676">
        <ele>294</ele>
        <time>2011-06-26T12:37:25Z</time>
      </trkpt>
      <trkpt lat="44.08907" lon="1.74668">
        <ele>294</ele>
        <time>2011-06-26T12:37:27Z</time>
      </trkpt>
      <trkpt lat="44.08906" lon="1.74658">
        <ele>294</ele>
        <time>2011-06-26T12:37:29Z</time>
      </trkpt>
      <trkpt lat="44.08905" lon="1.74647">
        <ele>294</ele>
        <time>2011-06-26T12:37:31Z</time>
      </trkpt>
      <trkpt lat="44.08905" lon="1.74635">
        <ele>294</ele>
        <time>2011-06-26T12:37:33Z</time>
      </trkpt>
      <trkpt lat="44.08905" lon="1.74623">
        <ele>294</ele>
        <time>2011-06-26T12:37:35Z</time>
      </trkpt>
      <trkpt lat="44.08905" lon="1.74611">
        <ele>294</ele>
        <time>2011-06-26T12:37:37Z</time>
      </trkpt>
      <trkpt lat="44.08905" lon="1.746">
        <ele>294</ele>
        <time>2011-06-26T12:37:39Z</time>
      </trkpt>
      <trkpt lat="44.08905" lon="1.74589">
        <ele>294</ele>
        <time>2011-06-26T12:37:41Z</time>
      </trkpt>
      <trkpt lat="44.08904" lon="1.74577">
        <ele>294</ele>
        <time>2011-06-26T12:37:43Z</time>
      </trkpt>
      <trkpt lat="44.08902" lon="1.74564">
        <ele>294</ele>
        <time>2011-06-26T12:37:45Z</time>
      </trkpt>
      <trkpt lat="44.08901" lon="1.74551">
        <ele>294</ele>
        <time>2011-06-26T12:37:47Z</time>
      </trkpt>
      <trkpt lat="44.08898" lon="1.74537">
        <ele>294</ele>
        <time>2011-06-26T12:37:49Z</time>
      </trkpt>
      <trkpt lat="44.08896" lon="1.74522">
        <ele>294</ele>
        <time>2011-06-26T12:37:51Z</time>
      </trkpt>
      <trkpt lat="44.08896" lon="1.74508">
        <ele>294</ele>
        <time>2011-06-26T12:37:53Z</time>
      </trkpt>
      <trkpt lat="44.08894" lon="1.74494">
        <ele>294</ele>
        <time>2011-06-26T12:37:55Z</time>
      </trkpt>
      <trkpt lat="44.0889" lon="1.74481">
        <ele>294</ele>
        <time>2011-06-26T12:37:57Z</time>
      </trkpt>
      <trkpt lat="44.08887" lon="1.74467">
        <ele>294</ele>
        <time>2011-06-26T12:37:59Z</time>
      </trkpt>
      <trkpt lat="44.08883" lon="1.74454">
        <ele>294</ele>
        <time>2011-06-26T12:38:01Z</time>
      </trkpt>
      <trkpt lat="44.08878" lon="1.74441">
        <ele>294</ele>
        <time>2011-06-26T12:38:04Z</time>
      </trkpt>
      <trkpt lat="44.08881" lon="1.74427">
        <ele>293</ele>
        <time>2011-06-26T12:38:06Z</time>
      </trkpt>
      <trkpt lat="44.08882" lon="1.7442">
        <ele>293</ele>
        <time>2011-06-26T12:38:08Z</time>
      </trkpt>
      <trkpt lat="44.08883" lon="1.74409">
        <ele>293</ele>
        <time>2011-06-26T12:38:10Z</time>
      </trkpt>
      <trkpt lat="44.08885" lon="1.74398">
        <ele>293</ele>
        <time>2011-06-26T12:38:12Z</time>
      </trkpt>
      <trkpt lat="44.08887" lon="1.74386">
        <ele>293</ele>
        <time>2011-06-26T12:38:14Z</time>
      </trkpt>
      <trkpt lat="44.08891" lon="1.74375">
        <ele>293</ele>
        <time>2011-06-26T12:38:16Z</time>
      </trkpt>
      <trkpt lat="44.08895" lon="1.74365">
        <ele>293</ele>
        <time>2011-06-26T12:38:18Z</time>
      </trkpt>
      <trkpt lat="44.08897" lon="1.74355">
        <ele>293</ele>
        <time>2011-06-26T12:38:20Z</time>
      </trkpt>
      <trkpt lat="44.08898" lon="1.74343">
        <ele>293</ele>
        <time>2011-06-26T12:38:22Z</time>
      </trkpt>
      <trkpt lat="44.08897" lon="1.74333">
        <ele>293</ele>
        <time>2011-06-26T12:38:24Z</time>
      </trkpt>
      <trkpt lat="44.08891" lon="1.7433">
        <ele>293</ele>
        <time>2011-06-26T12:38:26Z</time>
      </trkpt>
      <trkpt lat="44.08883" lon="1.74323">
        <ele>293</ele>
        <time>2011-06-26T12:38:28Z</time>
      </trkpt>
      <trkpt lat="44.08876" lon="1.74317">
        <ele>293</ele>
        <time>2011-06-26T12:38:30Z</time>
      </trkpt>
      <trkpt lat="44.08869" lon="1.74309">
        <ele>293</ele>
        <time>2011-06-26T12:38:32Z</time>
      </trkpt>
      <trkpt lat="44.08863" lon="1.74302">
        <ele>293</ele>
        <time>2011-06-26T12:38:34Z</time>
      </trkpt>
      <trkpt lat="44.08855" lon="1.74294">
        <ele>293</ele>
        <time>2011-06-26T12:38:36Z</time>
      </trkpt>
      <trkpt lat="44.08849" lon="1.74286">
        <ele>293</ele>
        <time>2011-06-26T12:38:38Z</time>
      </trkpt>
      <trkpt lat="44.08843" lon="1.7428">
        <ele>293</ele>
        <time>2011-06-26T12:38:40Z</time>
      </trkpt>
      <trkpt lat="44.08837" lon="1.74274">
        <ele>293</ele>
        <time>2011-06-26T12:38:42Z</time>
      </trkpt>
      <trkpt lat="44.0883" lon="1.74266">
        <ele>293</ele>
        <time>2011-06-26T12:38:44Z</time>
      </trkpt>
      <trkpt lat="44.08825" lon="1.74259">
        <ele>293</ele>
        <time>2011-06-26T12:38:46Z</time>
      </trkpt>
      <trkpt lat="44.08819" lon="1.74252">
        <ele>293</ele>
        <time>2011-06-26T12:38:48Z</time>
      </trkpt>
      <trkpt lat="44.08813" lon="1.74249">
        <ele>293</ele>
        <time>2011-06-26T12:38:50Z</time>
      </trkpt>
      <trkpt lat="44.08809" lon="1.74242">
        <ele>292</ele>
        <time>2011-06-26T12:38:52Z</time>
      </trkpt>
      <trkpt lat="44.08805" lon="1.74234">
        <ele>291</ele>
        <time>2011-06-26T12:38:54Z</time>
      </trkpt>
      <trkpt lat="44.08799" lon="1.74226">
        <ele>290</ele>
        <time>2011-06-26T12:38:56Z</time>
      </trkpt>
      <trkpt lat="44.08794" lon="1.74215">
        <ele>290</ele>
        <time>2011-06-26T12:38:58Z</time>
      </trkpt>
      <trkpt lat="44.08792" lon="1.74204">
        <ele>289</ele>
        <time>2011-06-26T12:39:00Z</time>
      </trkpt>
      <trkpt lat="44.0879" lon="1.74194">
        <ele>288</ele>
        <time>2011-06-26T12:39:02Z</time>
      </trkpt>
      <trkpt lat="44.08786" lon="1.74184">
        <ele>288</ele>
        <time>2011-06-26T12:39:04Z</time>
      </trkpt>
      <trkpt lat="44.08781" lon="1.74176">
        <ele>288</ele>
        <time>2011-06-26T12:39:06Z</time>
      </trkpt>
      <trkpt lat="44.08774" lon="1.74167">
        <ele>288</ele>
        <time>2011-06-26T12:39:08Z</time>
      </trkpt>
      <trkpt lat="44.08768" lon="1.74156">
        <ele>288</ele>
        <time>2011-06-26T12:39:10Z</time>
      </trkpt>
      <trkpt lat="44.08763" lon="1.74145">
        <ele>288</ele>
        <time>2011-06-26T12:39:12Z</time>
      </trkpt>
      <trkpt lat="44.08755" lon="1.7414">
        <ele>288</ele>
        <time>2011-06-26T12:39:14Z</time>
      </trkpt>
      <trkpt lat="44.08746" lon="1.74136">
        <ele>288</ele>
        <time>2011-06-26T12:39:16Z</time>
      </trkpt>
      <trkpt lat="44.08738" lon="1.74128">
        <ele>288</ele>
        <time>2011-06-26T12:39:18Z</time>
      </trkpt>
      <trkpt lat="44.08731" lon="1.74118">
        <ele>288</ele>
        <time>2011-06-26T12:39:20Z</time>
      </trkpt>
      <trkpt lat="44.08723" lon="1.74116">
        <ele>288</ele>
        <time>2011-06-26T12:39:22Z</time>
      </trkpt>
      <trkpt lat="44.08715" lon="1.7412">
        <ele>288</ele>
        <time>2011-06-26T12:39:24Z</time>
      </trkpt>
      <trkpt lat="44.08707" lon="1.74117">
        <ele>288</ele>
        <time>2011-06-26T12:39:26Z</time>
      </trkpt>
      <trkpt lat="44.08701" lon="1.7411">
        <ele>288</ele>
        <time>2011-06-26T12:39:28Z</time>
      </trkpt>
      <trkpt lat="44.08696" lon="1.74104">
        <ele>288</ele>
        <time>2011-06-26T12:39:30Z</time>
      </trkpt>
      <trkpt lat="44.0869" lon="1.74096">
        <ele>288</ele>
        <time>2011-06-26T12:39:32Z</time>
      </trkpt>
      <trkpt lat="44.08683" lon="1.7409">
        <ele>288</ele>
        <time>2011-06-26T12:39:34Z</time>
      </trkpt>
      <trkpt lat="44.08676" lon="1.74085">
        <ele>287</ele>
        <time>2011-06-26T12:39:36Z</time>
      </trkpt>
      <trkpt lat="44.08668" lon="1.74079">
        <ele>287</ele>
        <time>2011-06-26T12:39:38Z</time>
      </trkpt>
      <trkpt lat="44.08663" lon="1.74072">
        <ele>287</ele>
        <time>2011-06-26T12:39:40Z</time>
      </trkpt>
      <trkpt lat="44.08657" lon="1.74068">
        <ele>287</ele>
        <time>2011-06-26T12:39:42Z</time>
      </trkpt>
      <trkpt lat="44.08649" lon="1.74065">
        <ele>287</ele>
        <time>2011-06-26T12:39:44Z</time>
      </trkpt>
      <trkpt lat="44.08644" lon="1.7406">
        <ele>287</ele>
        <time>2011-06-26T12:39:46Z</time>
      </trkpt>
      <trkpt lat="44.08641" lon="1.74056">
        <ele>287</ele>
        <time>2011-06-26T12:39:48Z</time>
      </trkpt>
      <trkpt lat="44.0864" lon="1.74056">
        <ele>287</ele>
        <time>2011-06-26T12:39:50Z</time>
      </trkpt>
      <trkpt lat="44.08638" lon="1.74055">
        <ele>287</ele>
        <time>2011-06-26T12:39:54Z</time>
      </trkpt>
      <trkpt lat="44.08636" lon="1.74053">
        <ele>287</ele>
        <time>2011-06-26T12:39:57Z</time>
      </trkpt>
      <trkpt lat="44.08633" lon="1.74049">
        <ele>287</ele>
        <time>2011-06-26T12:39:59Z</time>
      </trkpt>
      <trkpt lat="44.0863" lon="1.74046">
        <ele>287</ele>
        <time>2011-06-26T12:40:01Z</time>
      </trkpt>
      <trkpt lat="44.0863" lon="1.74044">
        <ele>287</ele>
        <time>2011-06-26T12:40:04Z</time>
      </trkpt>
      <trkpt lat="44.0863" lon="1.7404">
        <ele>287</ele>
        <time>2011-06-26T12:40:07Z</time>
      </trkpt>
      <trkpt lat="44.08628" lon="1.74038">
        <ele>287</ele>
        <time>2011-06-26T12:40:09Z</time>
      </trkpt>
      <trkpt lat="44.08627" lon="1.74037">
        <ele>287</ele>
        <time>2011-06-26T12:40:11Z</time>
      </trkpt>
      <trkpt lat="44.08625" lon="1.74035">
        <ele>287</ele>
        <time>2011-06-26T12:40:13Z</time>
      </trkpt>
      <trkpt lat="44.08623" lon="1.74032">
        <ele>287</ele>
        <time>2011-06-26T12:40:15Z</time>
      </trkpt>
      <trkpt lat="44.08621" lon="1.74028">
        <ele>287</ele>
        <time>2011-06-26T12:40:17Z</time>
      </trkpt>
      <trkpt lat="44.08617" lon="1.74025">
        <ele>287</ele>
        <time>2011-06-26T12:40:19Z</time>
      </trkpt>
      <trkpt lat="44.08612" lon="1.74021">
        <ele>287</ele>
        <time>2011-06-26T12:40:21Z</time>
      </trkpt>
      <trkpt lat="44.08607" lon="1.74016">
        <ele>287</ele>
        <time>2011-06-26T12:40:23Z</time>
      </trkpt>
      <trkpt lat="44.08605" lon="1.7401">
        <ele>287</ele>
        <time>2011-06-26T12:40:25Z</time>
      </trkpt>
      <trkpt lat="44.08602" lon="1.74006">
        <ele>287</ele>
        <time>2011-06-26T12:40:27Z</time>
      </trkpt>
      <trkpt lat="44.08598" lon="1.74004">
        <ele>287</ele>
        <time>2011-06-26T12:40:29Z</time>
      </trkpt>
      <trkpt lat="44.08595" lon="1.74004">
        <ele>287</ele>
        <time>2011-06-26T12:40:31Z</time>
      </trkpt>
      <trkpt lat="44.08593" lon="1.74004">
        <ele>287</ele>
        <time>2011-06-26T12:40:34Z</time>
      </trkpt>
      <trkpt lat="44.08592" lon="1.74003">
        <ele>287</ele>
        <time>2011-06-26T12:40:36Z</time>
      </trkpt>
      <trkpt lat="44.0859" lon="1.74001">
        <ele>287</ele>
        <time>2011-06-26T12:40:38Z</time>
      </trkpt>
      <trkpt lat="44.08587" lon="1.73998">
        <ele>287</ele>
        <time>2011-06-26T12:40:41Z</time>
      </trkpt>
      <trkpt lat="44.08585" lon="1.74">
        <ele>287</ele>
        <time>2011-06-26T12:40:43Z</time>
      </trkpt>
      <trkpt lat="44.08584" lon="1.74">
        <ele>287</ele>
        <time>2011-06-26T12:40:59Z</time>
      </trkpt>
      <trkpt lat="44.08583" lon="1.73999">
        <ele>287</ele>
        <time>2011-06-26T12:41:04Z</time>
      </trkpt>
      <trkpt lat="44.08583" lon="1.74001">
        <ele>287</ele>
        <time>2011-06-26T12:41:38Z</time>
      </trkpt>
      <trkpt lat="44.08584" lon="1.73999">
        <ele>288</ele>
        <time>2011-06-26T12:42:02Z</time>
      </trkpt>
      <trkpt lat="44.08585" lon="1.73998">
        <ele>288</ele>
        <time>2011-06-26T12:42:11Z</time>
      </trkpt>
      <trkpt lat="44.08587" lon="1.73997">
        <ele>288</ele>
        <time>2011-06-26T12:42:16Z</time>
      </trkpt>
      <trkpt lat="44.08589" lon="1.73998">
        <ele>288</ele>
        <time>2011-06-26T12:42:19Z</time>
      </trkpt>
      <trkpt lat="44.0859" lon="1.74">
        <ele>288</ele>
        <time>2011-06-26T12:42:22Z</time>
      </trkpt>
      <trkpt lat="44.08592" lon="1.74001">
        <ele>288</ele>
        <time>2011-06-26T12:42:24Z</time>
      </trkpt>
      <trkpt lat="44.08593" lon="1.74003">
        <ele>288</ele>
        <time>2011-06-26T12:42:29Z</time>
      </trkpt>
      <trkpt lat="44.08595" lon="1.74003">
        <ele>288</ele>
        <time>2011-06-26T12:42:31Z</time>
      </trkpt>
      <trkpt lat="44.08596" lon="1.74002">
        <ele>288</ele>
        <time>2011-06-26T12:42:34Z</time>
      </trkpt>
      <trkpt lat="44.08595" lon="1.74001">
        <ele>288</ele>
        <time>2011-06-26T12:42:48Z</time>
      </trkpt>
      <trkpt lat="44.08597" lon="1.73998">
        <ele>288</ele>
        <time>2011-06-26T12:42:52Z</time>
      </trkpt>
      <trkpt lat="44.08599" lon="1.73997">
        <ele>288</ele>
        <time>2011-06-26T12:42:54Z</time>
      </trkpt>
      <trkpt lat="44.08602" lon="1.73995">
        <ele>288</ele>
        <time>2011-06-26T12:42:56Z</time>
      </trkpt>
      <trkpt lat="44.08606" lon="1.73994">
        <ele>288</ele>
        <time>2011-06-26T12:42:58Z</time>
      </trkpt>
      <trkpt lat="44.0861" lon="1.73992">
        <ele>288</ele>
        <time>2011-06-26T12:43:00Z</time>
      </trkpt>
      <trkpt lat="44.08615" lon="1.7399">
        <ele>287</ele>
        <time>2011-06-26T12:43:02Z</time>
      </trkpt>
      <trkpt lat="44.08622" lon="1.73989">
        <ele>286</ele>
        <time>2011-06-26T12:43:04Z</time>
      </trkpt>
      <trkpt lat="44.08629" lon="1.73988">
        <ele>285</ele>
        <time>2011-06-26T12:43:06Z</time>
      </trkpt>
      <trkpt lat="44.08636" lon="1.73987">
        <ele>284</ele>
        <time>2011-06-26T12:43:08Z</time>
      </trkpt>
      <trkpt lat="44.08644" lon="1.73986">
        <ele>283</ele>
        <time>2011-06-26T12:43:10Z</time>
      </trkpt>
      <trkpt lat="44.08653" lon="1.73984">
        <ele>283</ele>
        <time>2011-06-26T12:43:12Z</time>
      </trkpt>
      <trkpt lat="44.08663" lon="1.7398">
        <ele>282</ele>
        <time>2011-06-26T12:43:14Z</time>
      </trkpt>
      <trkpt lat="44.08674" lon="1.73976">
        <ele>281</ele>
        <time>2011-06-26T12:43:16Z</time>
      </trkpt>
      <trkpt lat="44.08685" lon="1.73973">
        <ele>280</ele>
        <time>2011-06-26T12:43:18Z</time>
      </trkpt>
      <trkpt lat="44.08696" lon="1.73971">
        <ele>278</ele>
        <time>2011-06-26T12:43:20Z</time>
      </trkpt>
      <trkpt lat="44.08704" lon="1.73971">
        <ele>277</ele>
        <time>2011-06-26T12:43:22Z</time>
      </trkpt>
      <trkpt lat="44.08714" lon="1.73969">
        <ele>277</ele>
        <time>2011-06-26T12:43:24Z</time>
      </trkpt>
      <trkpt lat="44.08724" lon="1.73965">
        <ele>277</ele>
        <time>2011-06-26T12:43:26Z</time>
      </trkpt>
      <trkpt lat="44.08733" lon="1.73958">
        <ele>277</ele>
        <time>2011-06-26T12:43:28Z</time>
      </trkpt>
      <trkpt lat="44.08743" lon="1.73947">
        <ele>277</ele>
        <time>2011-06-26T12:43:30Z</time>
      </trkpt>
      <trkpt lat="44.08753" lon="1.73935">
        <ele>277</ele>
        <time>2011-06-26T12:43:32Z</time>
      </trkpt>
      <trkpt lat="44.08765" lon="1.73924">
        <ele>277</ele>
        <time>2011-06-26T12:43:34Z</time>
      </trkpt>
      <trkpt lat="44.08776" lon="1.73914">
        <ele>277</ele>
        <time>2011-06-26T12:43:36Z</time>
      </trkpt>
      <trkpt lat="44.08787" lon="1.73903">
        <ele>276</ele>
        <time>2011-06-26T12:43:38Z</time>
      </trkpt>
      <trkpt lat="44.08798" lon="1.73891">
        <ele>275</ele>
        <time>2011-06-26T12:43:40Z</time>
      </trkpt>
      <trkpt lat="44.08809" lon="1.73879">
        <ele>273</ele>
        <time>2011-06-26T12:43:42Z</time>
      </trkpt>
      <trkpt lat="44.08818" lon="1.73867">
        <ele>271</ele>
        <time>2011-06-26T12:43:44Z</time>
      </trkpt>
      <trkpt lat="44.08828" lon="1.73856">
        <ele>269</ele>
        <time>2011-06-26T12:43:46Z</time>
      </trkpt>
      <trkpt lat="44.08838" lon="1.73844">
        <ele>267</ele>
        <time>2011-06-26T12:43:48Z</time>
      </trkpt>
      <trkpt lat="44.08847" lon="1.73833">
        <ele>265</ele>
        <time>2011-06-26T12:43:50Z</time>
      </trkpt>
      <trkpt lat="44.08854" lon="1.73822">
        <ele>263</ele>
        <time>2011-06-26T12:43:52Z</time>
      </trkpt>
      <trkpt lat="44.08861" lon="1.73811">
        <ele>261</ele>
        <time>2011-06-26T12:43:54Z</time>
      </trkpt>
      <trkpt lat="44.08868" lon="1.73799">
        <ele>259</ele>
        <time>2011-06-26T12:43:56Z</time>
      </trkpt>
      <trkpt lat="44.08876" lon="1.73786">
        <ele>257</ele>
        <time>2011-06-26T12:43:58Z</time>
      </trkpt>
      <trkpt lat="44.08882" lon="1.73774">
        <ele>255</ele>
        <time>2011-06-26T12:44:00Z</time>
      </trkpt>
      <trkpt lat="44.08888" lon="1.7376">
        <ele>253</ele>
        <time>2011-06-26T12:44:02Z</time>
      </trkpt>
      <trkpt lat="44.08894" lon="1.73747">
        <ele>251</ele>
        <time>2011-06-26T12:44:04Z</time>
      </trkpt>
      <trkpt lat="44.089" lon="1.73735">
        <ele>249</ele>
        <time>2011-06-26T12:44:06Z</time>
      </trkpt>
      <trkpt lat="44.08905" lon="1.73724">
        <ele>247</ele>
        <time>2011-06-26T12:44:08Z</time>
      </trkpt>
      <trkpt lat="44.08907" lon="1.73718">
        <ele>245</ele>
        <time>2011-06-26T12:44:10Z</time>
      </trkpt>
      <trkpt lat="44.08903" lon="1.73719">
        <ele>244</ele>
        <time>2011-06-26T12:44:12Z</time>
      </trkpt>
      <trkpt lat="44.08898" lon="1.73725">
        <ele>243</ele>
        <time>2011-06-26T12:44:14Z</time>
      </trkpt>
      <trkpt lat="44.08892" lon="1.73732">
        <ele>242</ele>
        <time>2011-06-26T12:44:16Z</time>
      </trkpt>
      <trkpt lat="44.08885" lon="1.73739">
        <ele>241</ele>
        <time>2011-06-26T12:44:18Z</time>
      </trkpt>
      <trkpt lat="44.0888" lon="1.73741">
        <ele>240</ele>
        <time>2011-06-26T12:44:20Z</time>
      </trkpt>
      <trkpt lat="44.08877" lon="1.73737">
        <ele>239</ele>
        <time>2011-06-26T12:44:22Z</time>
      </trkpt>
      <trkpt lat="44.08879" lon="1.73731">
        <ele>239</ele>
        <time>2011-06-26T12:44:24Z</time>
      </trkpt>
      <trkpt lat="44.08885" lon="1.7372">
        <ele>239</ele>
        <time>2011-06-26T12:44:26Z</time>
      </trkpt>
      <trkpt lat="44.08891" lon="1.73708">
        <ele>238</ele>
        <time>2011-06-26T12:44:28Z</time>
      </trkpt>
      <trkpt lat="44.08897" lon="1.73697">
        <ele>236</ele>
        <time>2011-06-26T12:44:30Z</time>
      </trkpt>
      <trkpt lat="44.08903" lon="1.73685">
        <ele>234</ele>
        <time>2011-06-26T12:44:32Z</time>
      </trkpt>
      <trkpt lat="44.08909" lon="1.73674">
        <ele>232</ele>
        <time>2011-06-26T12:44:34Z</time>
      </trkpt>
      <trkpt lat="44.08915" lon="1.73661">
        <ele>230</ele>
        <time>2011-06-26T12:44:36Z</time>
      </trkpt>
      <trkpt lat="44.0892" lon="1.73648">
        <ele>228</ele>
        <time>2011-06-26T12:44:38Z</time>
      </trkpt>
      <trkpt lat="44.08926" lon="1.73636">
        <ele>226</ele>
        <time>2011-06-26T12:44:40Z</time>
      </trkpt>
      <trkpt lat="44.08931" lon="1.73622">
        <ele>224</ele>
        <time>2011-06-26T12:44:42Z</time>
      </trkpt>
      <trkpt lat="44.08938" lon="1.73608">
        <ele>222</ele>
        <time>2011-06-26T12:44:44Z</time>
      </trkpt>
      <trkpt lat="44.08944" lon="1.73594">
        <ele>220</ele>
        <time>2011-06-26T12:44:46Z</time>
      </trkpt>
      <trkpt lat="44.08951" lon="1.7358">
        <ele>219</ele>
        <time>2011-06-26T12:44:48Z</time>
      </trkpt>
      <trkpt lat="44.08958" lon="1.73566">
        <ele>217</ele>
        <time>2011-06-26T12:44:50Z</time>
      </trkpt>
      <trkpt lat="44.08965" lon="1.73553">
        <ele>216</ele>
        <time>2011-06-26T12:44:52Z</time>
      </trkpt>
      <trkpt lat="44.08971" lon="1.73541">
        <ele>214</ele>
        <time>2011-06-26T12:44:54Z</time>
      </trkpt>
      <trkpt lat="44.08974" lon="1.7353">
        <ele>213</ele>
        <time>2011-06-26T12:44:56Z</time>
      </trkpt>
      <trkpt lat="44.08977" lon="1.7352">
        <ele>212</ele>
        <time>2011-06-26T12:44:58Z</time>
      </trkpt>
      <trkpt lat="44.08982" lon="1.7351">
        <ele>211</ele>
        <time>2011-06-26T12:45:00Z</time>
      </trkpt>
      <trkpt lat="44.08987" lon="1.73499">
        <ele>209</ele>
        <time>2011-06-26T12:45:02Z</time>
      </trkpt>
      <trkpt lat="44.08991" lon="1.73487">
        <ele>208</ele>
        <time>2011-06-26T12:45:04Z</time>
      </trkpt>
      <trkpt lat="44.08995" lon="1.73476">
        <ele>206</ele>
        <time>2011-06-26T12:45:06Z</time>
      </trkpt>
      <trkpt lat="44.09" lon="1.73464">
        <ele>205</ele>
        <time>2011-06-26T12:45:08Z</time>
      </trkpt>
      <trkpt lat="44.09005" lon="1.73453">
        <ele>203</ele>
        <time>2011-06-26T12:45:10Z</time>
      </trkpt>
      <trkpt lat="44.09009" lon="1.73441">
        <ele>202</ele>
        <time>2011-06-26T12:45:12Z</time>
      </trkpt>
      <trkpt lat="44.09014" lon="1.73429">
        <ele>201</ele>
        <time>2011-06-26T12:45:14Z</time>
      </trkpt>
      <trkpt lat="44.09019" lon="1.73418">
        <ele>200</ele>
        <time>2011-06-26T12:45:16Z</time>
      </trkpt>
      <trkpt lat="44.09025" lon="1.73407">
        <ele>199</ele>
        <time>2011-06-26T12:45:18Z</time>
      </trkpt>
      <trkpt lat="44.09032" lon="1.73395">
        <ele>197</ele>
        <time>2011-06-26T12:45:20Z</time>
      </trkpt>
      <trkpt lat="44.09038" lon="1.73383">
        <ele>195</ele>
        <time>2011-06-26T12:45:22Z</time>
      </trkpt>
      <trkpt lat="44.09045" lon="1.73372">
        <ele>194</ele>
        <time>2011-06-26T12:45:24Z</time>
      </trkpt>
      <trkpt lat="44.09051" lon="1.7336">
        <ele>193</ele>
        <time>2011-06-26T12:45:26Z</time>
      </trkpt>
      <trkpt lat="44.09057" lon="1.73346">
        <ele>191</ele>
        <time>2011-06-26T12:45:28Z</time>
      </trkpt>
      <trkpt lat="44.09062" lon="1.73334">
        <ele>190</ele>
        <time>2011-06-26T12:45:30Z</time>
      </trkpt>
      <trkpt lat="44.09069" lon="1.73324">
        <ele>189</ele>
        <time>2011-06-26T12:45:32Z</time>
      </trkpt>
      <trkpt lat="44.09074" lon="1.73317">
        <ele>187</ele>
        <time>2011-06-26T12:45:34Z</time>
      </trkpt>
      <trkpt lat="44.09077" lon="1.73311">
        <ele>186</ele>
        <time>2011-06-26T12:45:36Z</time>
      </trkpt>
      <trkpt lat="44.09076" lon="1.7331">
        <ele>185</ele>
        <time>2011-06-26T12:45:38Z</time>
      </trkpt>
      <trkpt lat="44.09074" lon="1.73311">
        <ele>185</ele>
        <time>2011-06-26T12:45:47Z</time>
      </trkpt>
      <trkpt lat="44.0907" lon="1.73314">
        <ele>185</ele>
        <time>2011-06-26T12:45:49Z</time>
      </trkpt>
      <trkpt lat="44.09064" lon="1.73316">
        <ele>185</ele>
        <time>2011-06-26T12:45:51Z</time>
      </trkpt>
      <trkpt lat="44.09056" lon="1.73319">
        <ele>184</ele>
        <time>2011-06-26T12:45:53Z</time>
      </trkpt>
      <trkpt lat="44.09048" lon="1.73324">
        <ele>184</ele>
        <time>2011-06-26T12:45:55Z</time>
      </trkpt>
      <trkpt lat="44.09038" lon="1.73329">
        <ele>183</ele>
        <time>2011-06-26T12:45:57Z</time>
      </trkpt>
      <trkpt lat="44.09028" lon="1.73337">
        <ele>182</ele>
        <time>2011-06-26T12:45:59Z</time>
      </trkpt>
      <trkpt lat="44.09018" lon="1.73344">
        <ele>181</ele>
        <time>2011-06-26T12:46:01Z</time>
      </trkpt>
      <trkpt lat="44.09008" lon="1.73351">
        <ele>180</ele>
        <time>2011-06-26T12:46:03Z</time>
      </trkpt>
      <trkpt lat="44.08998" lon="1.73359">
        <ele>179</ele>
        <time>2011-06-26T12:46:05Z</time>
      </trkpt>
      <trkpt lat="44.08988" lon="1.73368">
        <ele>178</ele>
        <time>2011-06-26T12:46:07Z</time>
      </trkpt>
      <trkpt lat="44.08976" lon="1.73376">
        <ele>177</ele>
        <time>2011-06-26T12:46:09Z</time>
      </trkpt>
      <trkpt lat="44.08964" lon="1.73385">
        <ele>176</ele>
        <time>2011-06-26T12:46:11Z</time>
      </trkpt>
      <trkpt lat="44.08952" lon="1.73395">
        <ele>174</ele>
        <time>2011-06-26T12:46:13Z</time>
      </trkpt>
      <trkpt lat="44.08939" lon="1.73405">
        <ele>173</ele>
        <time>2011-06-26T12:46:15Z</time>
      </trkpt>
      <trkpt lat="44.08927" lon="1.73415">
        <ele>172</ele>
        <time>2011-06-26T12:46:17Z</time>
      </trkpt>
      <trkpt lat="44.08916" lon="1.73424">
        <ele>171</ele>
        <time>2011-06-26T12:46:19Z</time>
      </trkpt>
      <trkpt lat="44.08904" lon="1.73434">
        <ele>169</ele>
        <time>2011-06-26T12:46:21Z</time>
      </trkpt>
      <trkpt lat="44.08891" lon="1.73444">
        <ele>168</ele>
        <time>2011-06-26T12:46:23Z</time>
      </trkpt>
      <trkpt lat="44.08878" lon="1.73456">
        <ele>167</ele>
        <time>2011-06-26T12:46:25Z</time>
      </trkpt>
      <trkpt lat="44.08866" lon="1.73467">
        <ele>166</ele>
        <time>2011-06-26T12:46:27Z</time>
      </trkpt>
      <trkpt lat="44.08856" lon="1.73476">
        <ele>165</ele>
        <time>2011-06-26T12:46:29Z</time>
      </trkpt>
      <trkpt lat="44.08848" lon="1.73483">
        <ele>164</ele>
        <time>2011-06-26T12:46:31Z</time>
      </trkpt>
      <trkpt lat="44.08843" lon="1.73487">
        <ele>163</ele>
        <time>2011-06-26T12:46:33Z</time>
      </trkpt>
      <trkpt lat="44.0884" lon="1.73482">
        <ele>162</ele>
        <time>2011-06-26T12:46:35Z</time>
      </trkpt>
      <trkpt lat="44.08844" lon="1.73474">
        <ele>161</ele>
        <time>2011-06-26T12:46:37Z</time>
      </trkpt>
      <trkpt lat="44.0885" lon="1.73464">
        <ele>159</ele>
        <time>2011-06-26T12:46:39Z</time>
      </trkpt>
      <trkpt lat="44.08856" lon="1.73451">
        <ele>158</ele>
        <time>2011-06-26T12:46:41Z</time>
      </trkpt>
      <trkpt lat="44.08861" lon="1.73438">
        <ele>157</ele>
        <time>2011-06-26T12:46:43Z</time>
      </trkpt>
      <trkpt lat="44.08867" lon="1.73426">
        <ele>156</ele>
        <time>2011-06-26T12:46:45Z</time>
      </trkpt>
      <trkpt lat="44.08872" lon="1.73414">
        <ele>155</ele>
        <time>2011-06-26T12:46:47Z</time>
      </trkpt>
      <trkpt lat="44.08878" lon="1.73402">
        <ele>153</ele>
        <time>2011-06-26T12:46:49Z</time>
      </trkpt>
      <trkpt lat="44.08884" lon="1.73391">
        <ele>153</ele>
        <time>2011-06-26T12:46:51Z</time>
      </trkpt>
      <trkpt lat="44.08889" lon="1.7338">
        <ele>152</ele>
        <time>2011-06-26T12:46:53Z</time>
      </trkpt>
      <trkpt lat="44.08895" lon="1.73369">
        <ele>151</ele>
        <time>2011-06-26T12:46:55Z</time>
      </trkpt>
      <trkpt lat="44.08899" lon="1.73358">
        <ele>150</ele>
        <time>2011-06-26T12:46:57Z</time>
      </trkpt>
      <trkpt lat="44.08906" lon="1.73347">
        <ele>149</ele>
        <time>2011-06-26T12:46:59Z</time>
      </trkpt>
      <trkpt lat="44.08913" lon="1.73334">
        <ele>147</ele>
        <time>2011-06-26T12:47:01Z</time>
      </trkpt>
      <trkpt lat="44.08919" lon="1.73322">
        <ele>146</ele>
        <time>2011-06-26T12:47:03Z</time>
      </trkpt>
      <trkpt lat="44.08925" lon="1.7331">
        <ele>145</ele>
        <time>2011-06-26T12:47:05Z</time>
      </trkpt>
      <trkpt lat="44.08932" lon="1.73297">
        <ele>144</ele>
        <time>2011-06-26T12:47:07Z</time>
      </trkpt>
      <trkpt lat="44.08939" lon="1.73285">
        <ele>144</ele>
        <time>2011-06-26T12:47:09Z</time>
      </trkpt>
      <trkpt lat="44.08946" lon="1.73273">
        <ele>142</ele>
        <time>2011-06-26T12:47:11Z</time>
      </trkpt>
      <trkpt lat="44.08952" lon="1.73259">
        <ele>141</ele>
        <time>2011-06-26T12:47:13Z</time>
      </trkpt>
      <trkpt lat="44.08958" lon="1.73245">
        <ele>139</ele>
        <time>2011-06-26T12:47:15Z</time>
      </trkpt>
      <trkpt lat="44.08963" lon="1.7323">
        <ele>138</ele>
        <time>2011-06-26T12:47:17Z</time>
      </trkpt>
      <trkpt lat="44.0897" lon="1.73213">
        <ele>136</ele>
        <time>2011-06-26T12:47:19Z</time>
      </trkpt>
      <trkpt lat="44.08976" lon="1.73197">
        <ele>135</ele>
        <time>2011-06-26T12:47:21Z</time>
      </trkpt>
      <trkpt lat="44.08984" lon="1.73181">
        <ele>135</ele>
        <time>2011-06-26T12:47:23Z</time>
      </trkpt>
      <trkpt lat="44.0899" lon="1.73164">
        <ele>134</ele>
        <time>2011-06-26T12:47:25Z</time>
      </trkpt>
      <trkpt lat="44.08999" lon="1.73147">
        <ele>133</ele>
        <time>2011-06-26T12:47:27Z</time>
      </trkpt>
      <trkpt lat="44.0901" lon="1.73133">
        <ele>132</ele>
        <time>2011-06-26T12:47:29Z</time>
      </trkpt>
      <trkpt lat="44.0902" lon="1.7312">
        <ele>132</ele>
        <time>2011-06-26T12:47:31Z</time>
      </trkpt>
      <trkpt lat="44.09029" lon="1.73106">
        <ele>130</ele>
        <time>2011-06-26T12:47:33Z</time>
      </trkpt>
      <trkpt lat="44.0903" lon="1.7309">
        <ele>129</ele>
        <time>2011-06-26T12:47:35Z</time>
      </trkpt>
      <trkpt lat="44.09027" lon="1.73073">
        <ele>128</ele>
        <time>2011-06-26T12:47:37Z</time>
      </trkpt>
      <trkpt lat="44.09023" lon="1.73054">
        <ele>126</ele>
        <time>2011-06-26T12:47:39Z</time>
      </trkpt>
      <trkpt lat="44.0902" lon="1.73034">
        <ele>125</ele>
        <time>2011-06-26T12:47:41Z</time>
      </trkpt>
      <trkpt lat="44.09017" lon="1.73017">
        <ele>123</ele>
        <time>2011-06-26T12:47:43Z</time>
      </trkpt>
      <trkpt lat="44.09008" lon="1.73011">
        <ele>122</ele>
        <time>2011-06-26T12:47:45Z</time>
      </trkpt>
      <trkpt lat="44.08996" lon="1.73016">
        <ele>120</ele>
        <time>2011-06-26T12:47:47Z</time>
      </trkpt>
      <trkpt lat="44.08986" lon="1.73029">
        <ele>118</ele>
        <time>2011-06-26T12:47:49Z</time>
      </trkpt>
      <trkpt lat="44.08977" lon="1.73046">
        <ele>116</ele>
        <time>2011-06-26T12:47:51Z</time>
      </trkpt>
      <trkpt lat="44.08968" lon="1.73066">
        <ele>115</ele>
        <time>2011-06-26T12:47:53Z</time>
      </trkpt>
      <trkpt lat="44.0896" lon="1.73086">
        <ele>114</ele>
        <time>2011-06-26T12:47:55Z</time>
      </trkpt>
      <trkpt lat="44.08952" lon="1.73103">
        <ele>112</ele>
        <time>2011-06-26T12:47:57Z</time>
      </trkpt>
      <trkpt lat="44.08945" lon="1.73113">
        <ele>110</ele>
        <time>2011-06-26T12:47:59Z</time>
      </trkpt>
      <trkpt lat="44.08936" lon="1.73118">
        <ele>109</ele>
        <time>2011-06-26T12:48:01Z</time>
      </trkpt>
      <trkpt lat="44.08929" lon="1.73124">
        <ele>109</ele>
        <time>2011-06-26T12:48:03Z</time>
      </trkpt>
      <trkpt lat="44.08924" lon="1.73132">
        <ele>109</ele>
        <time>2011-06-26T12:48:05Z</time>
      </trkpt>
      <trkpt lat="44.08921" lon="1.7314">
        <ele>109</ele>
        <time>2011-06-26T12:48:07Z</time>
      </trkpt>
      <trkpt lat="44.08918" lon="1.73147">
        <ele>109</ele>
        <time>2011-06-26T12:48:09Z</time>
      </trkpt>
      <trkpt lat="44.08915" lon="1.73155">
        <ele>109</ele>
        <time>2011-06-26T12:48:11Z</time>
      </trkpt>
      <trkpt lat="44.08911" lon="1.73164">
        <ele>109</ele>
        <time>2011-06-26T12:48:13Z</time>
      </trkpt>
      <trkpt lat="44.08906" lon="1.73175">
        <ele>109</ele>
        <time>2011-06-26T12:48:15Z</time>
      </trkpt>
      <trkpt lat="44.08901" lon="1.73185">
        <ele>109</ele>
        <time>2011-06-26T12:48:17Z</time>
      </trkpt>
      <trkpt lat="44.08896" lon="1.73196">
        <ele>109</ele>
        <time>2011-06-26T12:48:19Z</time>
      </trkpt>
      <trkpt lat="44.08891" lon="1.73208">
        <ele>109</ele>
        <time>2011-06-26T12:48:21Z</time>
      </trkpt>
      <trkpt lat="44.08886" lon="1.7322">
        <ele>109</ele>
        <time>2011-06-26T12:48:23Z</time>
      </trkpt>
      <trkpt lat="44.08879" lon="1.73231">
        <ele>109</ele>
        <time>2011-06-26T12:48:25Z</time>
      </trkpt>
      <trkpt lat="44.08873" lon="1.73243">
        <ele>109</ele>
        <time>2011-06-26T12:48:27Z</time>
      </trkpt>
      <trkpt lat="44.08864" lon="1.73251">
        <ele>109</ele>
        <time>2011-06-26T12:48:29Z</time>
      </trkpt>
      <trkpt lat="44.08857" lon="1.73261">
        <ele>109</ele>
        <time>2011-06-26T12:48:31Z</time>
      </trkpt>
      <trkpt lat="44.08851" lon="1.73273">
        <ele>109</ele>
        <time>2011-06-26T12:48:33Z</time>
      </trkpt>
      <trkpt lat="44.08845" lon="1.73284">
        <ele>109</ele>
        <time>2011-06-26T12:48:35Z</time>
      </trkpt>
      <trkpt lat="44.0884" lon="1.73296">
        <ele>109</ele>
        <time>2011-06-26T12:48:37Z</time>
      </trkpt>
      <trkpt lat="44.08835" lon="1.73308">
        <ele>108</ele>
        <time>2011-06-26T12:48:39Z</time>
      </trkpt>
      <trkpt lat="44.08831" lon="1.73319">
        <ele>107</ele>
        <time>2011-06-26T12:48:41Z</time>
      </trkpt>
      <trkpt lat="44.08826" lon="1.73328">
        <ele>107</ele>
        <time>2011-06-26T12:48:43Z</time>
      </trkpt>
      <trkpt lat="44.08819" lon="1.73336">
        <ele>105</ele>
        <time>2011-06-26T12:48:45Z</time>
      </trkpt>
      <trkpt lat="44.08814" lon="1.73344">
        <ele>104</ele>
        <time>2011-06-26T12:48:47Z</time>
      </trkpt>
      <trkpt lat="44.08807" lon="1.73355">
        <ele>104</ele>
        <time>2011-06-26T12:48:49Z</time>
      </trkpt>
      <trkpt lat="44.08799" lon="1.7337">
        <ele>104</ele>
        <time>2011-06-26T12:48:51Z</time>
      </trkpt>
      <trkpt lat="44.08791" lon="1.7338">
        <ele>104</ele>
        <time>2011-06-26T12:48:53Z</time>
      </trkpt>
      <trkpt lat="44.08785" lon="1.73388">
        <ele>104</ele>
        <time>2011-06-26T12:48:55Z</time>
      </trkpt>
      <trkpt lat="44.08777" lon="1.73403">
        <ele>104</ele>
        <time>2011-06-26T12:48:57Z</time>
      </trkpt>
      <trkpt lat="44.08771" lon="1.73414">
        <ele>105</ele>
        <time>2011-06-26T12:48:59Z</time>
      </trkpt>
      <trkpt lat="44.08763" lon="1.73425">
        <ele>107</ele>
        <time>2011-06-26T12:49:01Z</time>
      </trkpt>
      <trkpt lat="44.08755" lon="1.73436">
        <ele>109</ele>
        <time>2011-06-26T12:49:03Z</time>
      </trkpt>
      <trkpt lat="44.08749" lon="1.73446">
        <ele>110</ele>
        <time>2011-06-26T12:49:05Z</time>
      </trkpt>
      <trkpt lat="44.08743" lon="1.73456">
        <ele>111</ele>
        <time>2011-06-26T12:49:07Z</time>
      </trkpt>
      <trkpt lat="44.08736" lon="1.73466">
        <ele>111</ele>
        <time>2011-06-26T12:49:09Z</time>
      </trkpt>
      <trkpt lat="44.08728" lon="1.73475">
        <ele>112</ele>
        <time>2011-06-26T12:49:11Z</time>
      </trkpt>
      <trkpt lat="44.0872" lon="1.73483">
        <ele>114</ele>
        <time>2011-06-26T12:49:13Z</time>
      </trkpt>
      <trkpt lat="44.08713" lon="1.73494">
        <ele>116</ele>
        <time>2011-06-26T12:49:15Z</time>
      </trkpt>
      <trkpt lat="44.08706" lon="1.73503">
        <ele>117</ele>
        <time>2011-06-26T12:49:17Z</time>
      </trkpt>
      <trkpt lat="44.08699" lon="1.73512">
        <ele>117</ele>
        <time>2011-06-26T12:49:19Z</time>
      </trkpt>
      <trkpt lat="44.08692" lon="1.73522">
        <ele>117</ele>
        <time>2011-06-26T12:49:21Z</time>
      </trkpt>
      <trkpt lat="44.08685" lon="1.7353">
        <ele>117</ele>
        <time>2011-06-26T12:49:23Z</time>
      </trkpt>
      <trkpt lat="44.08678" lon="1.73539">
        <ele>117</ele>
        <time>2011-06-26T12:49:25Z</time>
      </trkpt>
      <trkpt lat="44.08671" lon="1.73547">
        <ele>117</ele>
        <time>2011-06-26T12:49:27Z</time>
      </trkpt>
      <trkpt lat="44.08664" lon="1.73555">
        <ele>117</ele>
        <time>2011-06-26T12:49:29Z</time>
      </trkpt>
      <trkpt lat="44.08656" lon="1.73563">
        <ele>117</ele>
        <time>2011-06-26T12:49:31Z</time>
      </trkpt>
      <trkpt lat="44.08649" lon="1.73571">
        <ele>115</ele>
        <time>2011-06-26T12:49:33Z</time>
      </trkpt>
      <trkpt lat="44.08642" lon="1.73579">
        <ele>113</ele>
        <time>2011-06-26T12:49:35Z</time>
      </trkpt>
      <trkpt lat="44.08635" lon="1.73586">
        <ele>112</ele>
        <time>2011-06-26T12:49:37Z</time>
      </trkpt>
      <trkpt lat="44.08627" lon="1.73593">
        <ele>111</ele>
        <time>2011-06-26T12:49:39Z</time>
      </trkpt>
      <trkpt lat="44.0862" lon="1.73599">
        <ele>110</ele>
        <time>2011-06-26T12:49:41Z</time>
      </trkpt>
      <trkpt lat="44.08613" lon="1.73604">
        <ele>110</ele>
        <time>2011-06-26T12:49:43Z</time>
      </trkpt>
      <trkpt lat="44.08606" lon="1.7361">
        <ele>110</ele>
        <time>2011-06-26T12:49:45Z</time>
      </trkpt>
      <trkpt lat="44.08599" lon="1.73617">
        <ele>110</ele>
        <time>2011-06-26T12:49:47Z</time>
      </trkpt>
      <trkpt lat="44.08592" lon="1.73624">
        <ele>110</ele>
        <time>2011-06-26T12:49:49Z</time>
      </trkpt>
      <trkpt lat="44.08584" lon="1.73632">
        <ele>110</ele>
        <time>2011-06-26T12:49:51Z</time>
      </trkpt>
      <trkpt lat="44.08577" lon="1.73638">
        <ele>110</ele>
        <time>2011-06-26T12:49:53Z</time>
      </trkpt>
      <trkpt lat="44.08568" lon="1.73645">
        <ele>110</ele>
        <time>2011-06-26T12:49:55Z</time>
      </trkpt>
      <trkpt lat="44.0856" lon="1.73651">
        <ele>110</ele>
        <time>2011-06-26T12:49:57Z</time>
      </trkpt>
      <trkpt lat="44.08552" lon="1.73657">
        <ele>110</ele>
        <time>2011-06-26T12:49:59Z</time>
      </trkpt>
      <trkpt lat="44.08543" lon="1.73664">
        <ele>110</ele>
        <time>2011-06-26T12:50:01Z</time>
      </trkpt>
      <trkpt lat="44.08535" lon="1.73671">
        <ele>110</ele>
        <time>2011-06-26T12:50:03Z</time>
      </trkpt>
      <trkpt lat="44.08526" lon="1.73678">
        <ele>110</ele>
        <time>2011-06-26T12:50:05Z</time>
      </trkpt>
      <trkpt lat="44.08518" lon="1.73685">
        <ele>110</ele>
        <time>2011-06-26T12:50:07Z</time>
      </trkpt>
      <trkpt lat="44.08509" lon="1.73691">
        <ele>110</ele>
        <time>2011-06-26T12:50:09Z</time>
      </trkpt>
      <trkpt lat="44.08501" lon="1.73698">
        <ele>110</ele>
        <time>2011-06-26T12:50:11Z</time>
      </trkpt>
      <trkpt lat="44.08493" lon="1.73705">
        <ele>110</ele>
        <time>2011-06-26T12:50:13Z</time>
      </trkpt>
      <trkpt lat="44.08485" lon="1.73711">
        <ele>110</ele>
        <time>2011-06-26T12:50:15Z</time>
      </trkpt>
      <trkpt lat="44.08477" lon="1.73718">
        <ele>110</ele>
        <time>2011-06-26T12:50:17Z</time>
      </trkpt>
      <trkpt lat="44.08469" lon="1.73725">
        <ele>110</ele>
        <time>2011-06-26T12:50:19Z</time>
      </trkpt>
      <trkpt lat="44.0846" lon="1.73731">
        <ele>110</ele>
        <time>2011-06-26T12:50:21Z</time>
      </trkpt>
      <trkpt lat="44.08452" lon="1.73737">
        <ele>110</ele>
        <time>2011-06-26T12:50:23Z</time>
      </trkpt>
      <trkpt lat="44.08444" lon="1.73744">
        <ele>110</ele>
        <time>2011-06-26T12:50:25Z</time>
      </trkpt>
      <trkpt lat="44.08436" lon="1.7375">
        <ele>110</ele>
        <time>2011-06-26T12:50:27Z</time>
      </trkpt>
      <trkpt lat="44.08429" lon="1.73756">
        <ele>110</ele>
        <time>2011-06-26T12:50:29Z</time>
      </trkpt>
      <trkpt lat="44.08421" lon="1.73762">
        <ele>110</ele>
        <time>2011-06-26T12:50:31Z</time>
      </trkpt>
      <trkpt lat="44.08413" lon="1.73769">
        <ele>110</ele>
        <time>2011-06-26T12:50:33Z</time>
      </trkpt>
      <trkpt lat="44.08406" lon="1.73776">
        <ele>110</ele>
        <time>2011-06-26T12:50:35Z</time>
      </trkpt>
      <trkpt lat="44.08398" lon="1.73782">
        <ele>110</ele>
        <time>2011-06-26T12:50:37Z</time>
      </trkpt>
      <trkpt lat="44.08391" lon="1.73787">
        <ele>110</ele>
        <time>2011-06-26T12:50:39Z</time>
      </trkpt>
      <trkpt lat="44.08383" lon="1.73792">
        <ele>110</ele>
        <time>2011-06-26T12:50:41Z</time>
      </trkpt>
      <trkpt lat="44.08375" lon="1.73794">
        <ele>110</ele>
        <time>2011-06-26T12:50:43Z</time>
      </trkpt>
      <trkpt lat="44.08369" lon="1.73795">
        <ele>110</ele>
        <time>2011-06-26T12:50:45Z</time>
      </trkpt>
      <trkpt lat="44.08363" lon="1.73799">
        <ele>110</ele>
        <time>2011-06-26T12:50:47Z</time>
      </trkpt>
      <trkpt lat="44.08358" lon="1.73804">
        <ele>110</ele>
        <time>2011-06-26T12:50:49Z</time>
      </trkpt>
      <trkpt lat="44.08353" lon="1.7381">
        <ele>110</ele>
        <time>2011-06-26T12:50:51Z</time>
      </trkpt>
      <trkpt lat="44.0835" lon="1.73816">
        <ele>110</ele>
        <time>2011-06-26T12:50:53Z</time>
      </trkpt>
      <trkpt lat="44.08348" lon="1.73823">
        <ele>110</ele>
        <time>2011-06-26T12:50:55Z</time>
      </trkpt>
      <trkpt lat="44.08347" lon="1.73832">
        <ele>110</ele>
        <time>2011-06-26T12:50:57Z</time>
      </trkpt>
      <trkpt lat="44.08341" lon="1.73839">
        <ele>110</ele>
        <time>2011-06-26T12:50:59Z</time>
      </trkpt>
      <trkpt lat="44.08331" lon="1.73843">
        <ele>110</ele>
        <time>2011-06-26T12:51:01Z</time>
      </trkpt>
      <trkpt lat="44.08318" lon="1.73846">
        <ele>110</ele>
        <time>2011-06-26T12:51:03Z</time>
      </trkpt>
      <trkpt lat="44.08305" lon="1.73849">
        <ele>110</ele>
        <time>2011-06-26T12:51:05Z</time>
      </trkpt>
      <trkpt lat="44.08293" lon="1.73853">
        <ele>110</ele>
        <time>2011-06-26T12:51:07Z</time>
      </trkpt>
      <trkpt lat="44.08282" lon="1.73859">
        <ele>110</ele>
        <time>2011-06-26T12:51:09Z</time>
      </trkpt>
      <trkpt lat="44.08272" lon="1.73869">
        <ele>110</ele>
        <time>2011-06-26T12:51:11Z</time>
      </trkpt>
      <trkpt lat="44.08265" lon="1.73882">
        <ele>110</ele>
        <time>2011-06-26T12:51:13Z</time>
      </trkpt>
      <trkpt lat="44.08257" lon="1.73895">
        <ele>109</ele>
        <time>2011-06-26T12:51:15Z</time>
      </trkpt>
      <trkpt lat="44.0825" lon="1.73909">
        <ele>109</ele>
        <time>2011-06-26T12:51:17Z</time>
      </trkpt>
      <trkpt lat="44.08243" lon="1.73922">
        <ele>109</ele>
        <time>2011-06-26T12:51:19Z</time>
      </trkpt>
      <trkpt lat="44.08235" lon="1.73931">
        <ele>109</ele>
        <time>2011-06-26T12:51:21Z</time>
      </trkpt>
      <trkpt lat="44.08225" lon="1.73933">
        <ele>109</ele>
        <time>2011-06-26T12:51:23Z</time>
      </trkpt>
      <trkpt lat="44.08218" lon="1.73927">
        <ele>109</ele>
        <time>2011-06-26T12:51:25Z</time>
      </trkpt>
      <trkpt lat="44.08212" lon="1.7392">
        <ele>109</ele>
        <time>2011-06-26T12:51:27Z</time>
      </trkpt>
      <trkpt lat="44.08206" lon="1.73913">
        <ele>109</ele>
        <time>2011-06-26T12:51:29Z</time>
      </trkpt>
      <trkpt lat="44.082" lon="1.73906">
        <ele>109</ele>
        <time>2011-06-26T12:51:31Z</time>
      </trkpt>
      <trkpt lat="44.08194" lon="1.73899">
        <ele>109</ele>
        <time>2011-06-26T12:51:33Z</time>
      </trkpt>
      <trkpt lat="44.08189" lon="1.73892">
        <ele>109</ele>
        <time>2011-06-26T12:51:35Z</time>
      </trkpt>
      <trkpt lat="44.08183" lon="1.73885">
        <ele>109</ele>
        <time>2011-06-26T12:51:37Z</time>
      </trkpt>
      <trkpt lat="44.08178" lon="1.73878">
        <ele>109</ele>
        <time>2011-06-26T12:51:39Z</time>
      </trkpt>
      <trkpt lat="44.08173" lon="1.73871">
        <ele>109</ele>
        <time>2011-06-26T12:51:41Z</time>
      </trkpt>
      <trkpt lat="44.08168" lon="1.73864">
        <ele>109</ele>
        <time>2011-06-26T12:51:43Z</time>
      </trkpt>
      <trkpt lat="44.08163" lon="1.73854">
        <ele>110</ele>
        <time>2011-06-26T12:51:45Z</time>
      </trkpt>
      <trkpt lat="44.08157" lon="1.73846">
        <ele>111</ele>
        <time>2011-06-26T12:51:47Z</time>
      </trkpt>
      <trkpt lat="44.08149" lon="1.73836">
        <ele>111</ele>
        <time>2011-06-26T12:51:49Z</time>
      </trkpt>
      <trkpt lat="44.08141" lon="1.73825">
        <ele>111</ele>
        <time>2011-06-26T12:51:51Z</time>
      </trkpt>
      <trkpt lat="44.08132" lon="1.73814">
        <ele>111</ele>
        <time>2011-06-26T12:51:53Z</time>
      </trkpt>
      <trkpt lat="44.08123" lon="1.73802">
        <ele>111</ele>
        <time>2011-06-26T12:51:55Z</time>
      </trkpt>
      <trkpt lat="44.08113" lon="1.73791">
        <ele>111</ele>
        <time>2011-06-26T12:51:57Z</time>
      </trkpt>
      <trkpt lat="44.08103" lon="1.7378">
        <ele>111</ele>
        <time>2011-06-26T12:51:59Z</time>
      </trkpt>
      <trkpt lat="44.08094" lon="1.73767">
        <ele>111</ele>
        <time>2011-06-26T12:52:01Z</time>
      </trkpt>
      <trkpt lat="44.08084" lon="1.73755">
        <ele>111</ele>
        <time>2011-06-26T12:52:03Z</time>
      </trkpt>
      <trkpt lat="44.08075" lon="1.73743">
        <ele>111</ele>
        <time>2011-06-26T12:52:05Z</time>
      </trkpt>
      <trkpt lat="44.08065" lon="1.73731">
        <ele>111</ele>
        <time>2011-06-26T12:52:07Z</time>
      </trkpt>
      <trkpt lat="44.08056" lon="1.73719">
        <ele>111</ele>
        <time>2011-06-26T12:52:09Z</time>
      </trkpt>
      <trkpt lat="44.08047" lon="1.73706">
        <ele>111</ele>
        <time>2011-06-26T12:52:11Z</time>
      </trkpt>
      <trkpt lat="44.08039" lon="1.73694">
        <ele>111</ele>
        <time>2011-06-26T12:52:13Z</time>
      </trkpt>
      <trkpt lat="44.0803" lon="1.73683">
        <ele>111</ele>
        <time>2011-06-26T12:52:15Z</time>
      </trkpt>
      <trkpt lat="44.08022" lon="1.73671">
        <ele>111</ele>
        <time>2011-06-26T12:52:17Z</time>
      </trkpt>
      <trkpt lat="44.08014" lon="1.7366">
        <ele>111</ele>
        <time>2011-06-26T12:52:19Z</time>
      </trkpt>
      <trkpt lat="44.08005" lon="1.73648">
        <ele>111</ele>
        <time>2011-06-26T12:52:21Z</time>
      </trkpt>
      <trkpt lat="44.07996" lon="1.73637">
        <ele>111</ele>
        <time>2011-06-26T12:52:23Z</time>
      </trkpt>
      <trkpt lat="44.07988" lon="1.73625">
        <ele>111</ele>
        <time>2011-06-26T12:52:25Z</time>
      </trkpt>
      <trkpt lat="44.07981" lon="1.73614">
        <ele>111</ele>
        <time>2011-06-26T12:52:27Z</time>
      </trkpt>
      <trkpt lat="44.07974" lon="1.73603">
        <ele>111</ele>
        <time>2011-06-26T12:52:29Z</time>
      </trkpt>
      <trkpt lat="44.07967" lon="1.73591">
        <ele>111</ele>
        <time>2011-06-26T12:52:31Z</time>
      </trkpt>
      <trkpt lat="44.0796" lon="1.73578">
        <ele>111</ele>
        <time>2011-06-26T12:52:33Z</time>
      </trkpt>
      <trkpt lat="44.07954" lon="1.73565">
        <ele>111</ele>
        <time>2011-06-26T12:52:35Z</time>
      </trkpt>
      <trkpt lat="44.07948" lon="1.73552">
        <ele>111</ele>
        <time>2011-06-26T12:52:37Z</time>
      </trkpt>
      <trkpt lat="44.07941" lon="1.73539">
        <ele>111</ele>
        <time>2011-06-26T12:52:39Z</time>
      </trkpt>
      <trkpt lat="44.07935" lon="1.73527">
        <ele>111</ele>
        <time>2011-06-26T12:52:41Z</time>
      </trkpt>
      <trkpt lat="44.07929" lon="1.73514">
        <ele>111</ele>
        <time>2011-06-26T12:52:43Z</time>
      </trkpt>
      <trkpt lat="44.07922" lon="1.73502">
        <ele>111</ele>
        <time>2011-06-26T12:52:45Z</time>
      </trkpt>
      <trkpt lat="44.07915" lon="1.73489">
        <ele>111</ele>
        <time>2011-06-26T12:52:47Z</time>
      </trkpt>
      <trkpt lat="44.07909" lon="1.73476">
        <ele>111</ele>
        <time>2011-06-26T12:52:49Z</time>
      </trkpt>
      <trkpt lat="44.07902" lon="1.73463">
        <ele>111</ele>
        <time>2011-06-26T12:52:51Z</time>
      </trkpt>
      <trkpt lat="44.07896" lon="1.7345">
        <ele>111</ele>
        <time>2011-06-26T12:52:53Z</time>
      </trkpt>
      <trkpt lat="44.07889" lon="1.73436">
        <ele>111</ele>
        <time>2011-06-26T12:52:55Z</time>
      </trkpt>
      <trkpt lat="44.07883" lon="1.73423">
        <ele>111</ele>
        <time>2011-06-26T12:52:57Z</time>
      </trkpt>
      <trkpt lat="44.07877" lon="1.73409">
        <ele>111</ele>
        <time>2011-06-26T12:52:59Z</time>
      </trkpt>
      <trkpt lat="44.07872" lon="1.73394">
        <ele>111</ele>
        <time>2011-06-26T12:53:01Z</time>
      </trkpt>
      <trkpt lat="44.07866" lon="1.7338">
        <ele>111</ele>
        <time>2011-06-26T12:53:03Z</time>
      </trkpt>
      <trkpt lat="44.0786" lon="1.73365">
        <ele>111</ele>
        <time>2011-06-26T12:53:05Z</time>
      </trkpt>
      <trkpt lat="44.07854" lon="1.7335">
        <ele>111</ele>
        <time>2011-06-26T12:53:07Z</time>
      </trkpt>
      <trkpt lat="44.07848" lon="1.73335">
        <ele>111</ele>
        <time>2011-06-26T12:53:09Z</time>
      </trkpt>
      <trkpt lat="44.07843" lon="1.7332">
        <ele>111</ele>
        <time>2011-06-26T12:53:11Z</time>
      </trkpt>
      <trkpt lat="44.07838" lon="1.73304">
        <ele>111</ele>
        <time>2011-06-26T12:53:13Z</time>
      </trkpt>
      <trkpt lat="44.07834" lon="1.73288">
        <ele>111</ele>
        <time>2011-06-26T12:53:15Z</time>
      </trkpt>
      <trkpt lat="44.07829" lon="1.73272">
        <ele>111</ele>
        <time>2011-06-26T12:53:17Z</time>
      </trkpt>
      <trkpt lat="44.07826" lon="1.73256">
        <ele>111</ele>
        <time>2011-06-26T12:53:19Z</time>
      </trkpt>
      <trkpt lat="44.07822" lon="1.73241">
        <ele>111</ele>
        <time>2011-06-26T12:53:21Z</time>
      </trkpt>
      <trkpt lat="44.07818" lon="1.73225">
        <ele>111</ele>
        <time>2011-06-26T12:53:23Z</time>
      </trkpt>
      <trkpt lat="44.07815" lon="1.7321">
        <ele>111</ele>
        <time>2011-06-26T12:53:25Z</time>
      </trkpt>
      <trkpt lat="44.07812" lon="1.73195">
        <ele>111</ele>
        <time>2011-06-26T12:53:27Z</time>
      </trkpt>
      <trkpt lat="44.0781" lon="1.73179">
        <ele>111</ele>
        <time>2011-06-26T12:53:29Z</time>
      </trkpt>
      <trkpt lat="44.07809" lon="1.73164">
        <ele>111</ele>
        <time>2011-06-26T12:53:31Z</time>
      </trkpt>
      <trkpt lat="44.07808" lon="1.73148">
        <ele>111</ele>
        <time>2011-06-26T12:53:33Z</time>
      </trkpt>
      <trkpt lat="44.07808" lon="1.73134">
        <ele>111</ele>
        <time>2011-06-26T12:53:35Z</time>
      </trkpt>
      <trkpt lat="44.07809" lon="1.73118">
        <ele>111</ele>
        <time>2011-06-26T12:53:37Z</time>
      </trkpt>
      <trkpt lat="44.07811" lon="1.73103">
        <ele>111</ele>
        <time>2011-06-26T12:53:39Z</time>
      </trkpt>
      <trkpt lat="44.07813" lon="1.73088">
        <ele>111</ele>
        <time>2011-06-26T12:53:41Z</time>
      </trkpt>
      <trkpt lat="44.07816" lon="1.73073">
        <ele>111</ele>
        <time>2011-06-26T12:53:43Z</time>
      </trkpt>
      <trkpt lat="44.07818" lon="1.73059">
        <ele>111</ele>
        <time>2011-06-26T12:53:45Z</time>
      </trkpt>
      <trkpt lat="44.07821" lon="1.73044">
        <ele>111</ele>
        <time>2011-06-26T12:53:47Z</time>
      </trkpt>
      <trkpt lat="44.07824" lon="1.73028">
        <ele>111</ele>
        <time>2011-06-26T12:53:49Z</time>
      </trkpt>
      <trkpt lat="44.07827" lon="1.73014">
        <ele>111</ele>
        <time>2011-06-26T12:53:51Z</time>
      </trkpt>
      <trkpt lat="44.0783" lon="1.73">
        <ele>111</ele>
        <time>2011-06-26T12:53:53Z</time>
      </trkpt>
      <trkpt lat="44.07834" lon="1.72986">
        <ele>111</ele>
        <time>2011-06-26T12:53:55Z</time>
      </trkpt>
      <trkpt lat="44.07838" lon="1.72974">
        <ele>111</ele>
        <time>2011-06-26T12:53:57Z</time>
      </trkpt>
      <trkpt lat="44.07841" lon="1.72961">
        <ele>111</ele>
        <time>2011-06-26T12:53:59Z</time>
      </trkpt>
      <trkpt lat="44.07846" lon="1.72949">
        <ele>111</ele>
        <time>2011-06-26T12:54:01Z</time>
      </trkpt>
      <trkpt lat="44.0785" lon="1.72936">
        <ele>111</ele>
        <time>2011-06-26T12:54:03Z</time>
      </trkpt>
      <trkpt lat="44.07856" lon="1.72923">
        <ele>111</ele>
        <time>2011-06-26T12:54:05Z</time>
      </trkpt>
      <trkpt lat="44.07863" lon="1.72909">
        <ele>111</ele>
        <time>2011-06-26T12:54:07Z</time>
      </trkpt>
      <trkpt lat="44.07869" lon="1.72894">
        <ele>111</ele>
        <time>2011-06-26T12:54:09Z</time>
      </trkpt>
      <trkpt lat="44.07875" lon="1.72879">
        <ele>111</ele>
        <time>2011-06-26T12:54:11Z</time>
      </trkpt>
      <trkpt lat="44.07881" lon="1.72864">
        <ele>111</ele>
        <time>2011-06-26T12:54:13Z</time>
      </trkpt>
      <trkpt lat="44.07888" lon="1.7285">
        <ele>111</ele>
        <time>2011-06-26T12:54:15Z</time>
      </trkpt>
      <trkpt lat="44.07895" lon="1.72835">
        <ele>111</ele>
        <time>2011-06-26T12:54:17Z</time>
      </trkpt>
      <trkpt lat="44.07901" lon="1.7282">
        <ele>111</ele>
        <time>2011-06-26T12:54:19Z</time>
      </trkpt>
      <trkpt lat="44.07908" lon="1.72805">
        <ele>111</ele>
        <time>2011-06-26T12:54:21Z</time>
      </trkpt>
      <trkpt lat="44.07914" lon="1.7279">
        <ele>111</ele>
        <time>2011-06-26T12:54:23Z</time>
      </trkpt>
      <trkpt lat="44.07921" lon="1.72776">
        <ele>111</ele>
        <time>2011-06-26T12:54:26Z</time>
      </trkpt>
      <trkpt lat="44.0793" lon="1.72753">
        <ele>111</ele>
        <time>2011-06-26T12:54:28Z</time>
      </trkpt>
      <trkpt lat="44.07934" lon="1.72739">
        <ele>111</ele>
        <time>2011-06-26T12:54:30Z</time>
      </trkpt>
      <trkpt lat="44.07938" lon="1.72725">
        <ele>111</ele>
        <time>2011-06-26T12:54:32Z</time>
      </trkpt>
      <trkpt lat="44.07942" lon="1.72711">
        <ele>111</ele>
        <time>2011-06-26T12:54:34Z</time>
      </trkpt>
      <trkpt lat="44.07945" lon="1.72697">
        <ele>111</ele>
        <time>2011-06-26T12:54:36Z</time>
      </trkpt>
      <trkpt lat="44.07949" lon="1.72683">
        <ele>111</ele>
        <time>2011-06-26T12:54:38Z</time>
      </trkpt>
      <trkpt lat="44.07954" lon="1.72674">
        <ele>111</ele>
        <time>2011-06-26T12:54:40Z</time>
      </trkpt>
      <trkpt lat="44.07958" lon="1.72672">
        <ele>111</ele>
        <time>2011-06-26T12:54:42Z</time>
      </trkpt>
      <trkpt lat="44.0796" lon="1.72673">
        <ele>110</ele>
        <time>2011-06-26T12:54:52Z</time>
      </trkpt>
      <trkpt lat="44.07967" lon="1.72674">
        <ele>110</ele>
        <time>2011-06-26T12:54:54Z</time>
      </trkpt>
      <trkpt lat="44.07974" lon="1.72677">
        <ele>110</ele>
        <time>2011-06-26T12:54:56Z</time>
      </trkpt>
      <trkpt lat="44.07982" lon="1.72682">
        <ele>110</ele>
        <time>2011-06-26T12:54:58Z</time>
      </trkpt>
      <trkpt lat="44.07989" lon="1.72688">
        <ele>110</ele>
        <time>2011-06-26T12:55:00Z</time>
      </trkpt>
      <trkpt lat="44.07997" lon="1.72693">
        <ele>110</ele>
        <time>2011-06-26T12:55:02Z</time>
      </trkpt>
      <trkpt lat="44.08005" lon="1.72698">
        <ele>110</ele>
        <time>2011-06-26T12:55:04Z</time>
      </trkpt>
      <trkpt lat="44.08013" lon="1.72703">
        <ele>110</ele>
        <time>2011-06-26T12:55:06Z</time>
      </trkpt>
      <trkpt lat="44.08022" lon="1.72708">
        <ele>110</ele>
        <time>2011-06-26T12:55:08Z</time>
      </trkpt>
      <trkpt lat="44.0803" lon="1.72713">
        <ele>110</ele>
        <time>2011-06-26T12:55:10Z</time>
      </trkpt>
      <trkpt lat="44.08038" lon="1.72719">
        <ele>110</ele>
        <time>2011-06-26T12:55:12Z</time>
      </trkpt>
      <trkpt lat="44.08047" lon="1.72724">
        <ele>110</ele>
        <time>2011-06-26T12:55:14Z</time>
      </trkpt>
      <trkpt lat="44.08055" lon="1.72729">
        <ele>110</ele>
        <time>2011-06-26T12:55:16Z</time>
      </trkpt>
      <trkpt lat="44.08064" lon="1.72735">
        <ele>110</ele>
        <time>2011-06-26T12:55:18Z</time>
      </trkpt>
      <trkpt lat="44.08072" lon="1.7274">
        <ele>110</ele>
        <time>2011-06-26T12:55:20Z</time>
      </trkpt>
      <trkpt lat="44.08081" lon="1.72746">
        <ele>110</ele>
        <time>2011-06-26T12:55:22Z</time>
      </trkpt>
      <trkpt lat="44.0809" lon="1.72751">
        <ele>110</ele>
        <time>2011-06-26T12:55:24Z</time>
      </trkpt>
      <trkpt lat="44.08098" lon="1.72756">
        <ele>110</ele>
        <time>2011-06-26T12:55:26Z</time>
      </trkpt>
      <trkpt lat="44.08106" lon="1.72761">
        <ele>110</ele>
        <time>2011-06-26T12:55:28Z</time>
      </trkpt>
      <trkpt lat="44.08114" lon="1.72765">
        <ele>110</ele>
        <time>2011-06-26T12:55:30Z</time>
      </trkpt>
      <trkpt lat="44.08122" lon="1.72769">
        <ele>110</ele>
        <time>2011-06-26T12:55:32Z</time>
      </trkpt>
      <trkpt lat="44.0813" lon="1.72774">
        <ele>110</ele>
        <time>2011-06-26T12:55:34Z</time>
      </trkpt>
      <trkpt lat="44.08137" lon="1.72778">
        <ele>110</ele>
        <time>2011-06-26T12:55:36Z</time>
      </trkpt>
      <trkpt lat="44.08145" lon="1.72782">
        <ele>110</ele>
        <time>2011-06-26T12:55:38Z</time>
      </trkpt>
      <trkpt lat="44.08152" lon="1.72787">
        <ele>110</ele>
        <time>2011-06-26T12:55:40Z</time>
      </trkpt>
      <trkpt lat="44.0816" lon="1.72792">
        <ele>110</ele>
        <time>2011-06-26T12:55:42Z</time>
      </trkpt>
      <trkpt lat="44.08167" lon="1.72796">
        <ele>110</ele>
        <time>2011-06-26T12:55:44Z</time>
      </trkpt>
      <trkpt lat="44.08174" lon="1.728">
        <ele>110</ele>
        <time>2011-06-26T12:55:46Z</time>
      </trkpt>
      <trkpt lat="44.08181" lon="1.72805">
        <ele>110</ele>
        <time>2011-06-26T12:55:48Z</time>
      </trkpt>
      <trkpt lat="44.08188" lon="1.72809">
        <ele>111</ele>
        <time>2011-06-26T12:55:50Z</time>
      </trkpt>
      <trkpt lat="44.08194" lon="1.72814">
        <ele>111</ele>
        <time>2011-06-26T12:55:52Z</time>
      </trkpt>
      <trkpt lat="44.08201" lon="1.72819">
        <ele>112</ele>
        <time>2011-06-26T12:55:54Z</time>
      </trkpt>
      <trkpt lat="44.08207" lon="1.72825">
        <ele>112</ele>
        <time>2011-06-26T12:55:56Z</time>
      </trkpt>
      <trkpt lat="44.08213" lon="1.72832">
        <ele>113</ele>
        <time>2011-06-26T12:55:58Z</time>
      </trkpt>
      <trkpt lat="44.08218" lon="1.72839">
        <ele>113</ele>
        <time>2011-06-26T12:56:00Z</time>
      </trkpt>
      <trkpt lat="44.08223" lon="1.72847">
        <ele>113</ele>
        <time>2011-06-26T12:56:02Z</time>
      </trkpt>
      <trkpt lat="44.08228" lon="1.72855">
        <ele>113</ele>
        <time>2011-06-26T12:56:04Z</time>
      </trkpt>
      <trkpt lat="44.08232" lon="1.72863">
        <ele>114</ele>
        <time>2011-06-26T12:56:06Z</time>
      </trkpt>
      <trkpt lat="44.08237" lon="1.7287">
        <ele>114</ele>
        <time>2011-06-26T12:56:08Z</time>
      </trkpt>
      <trkpt lat="44.08242" lon="1.72878">
        <ele>114</ele>
        <time>2011-06-26T12:56:10Z</time>
      </trkpt>
      <trkpt lat="44.08246" lon="1.72885">
        <ele>114</ele>
        <time>2011-06-26T12:56:12Z</time>
      </trkpt>
      <trkpt lat="44.08251" lon="1.72893">
        <ele>115</ele>
        <time>2011-06-26T12:56:14Z</time>
      </trkpt>
      <trkpt lat="44.08255" lon="1.72901">
        <ele>115</ele>
        <time>2011-06-26T12:56:16Z</time>
      </trkpt>
      <trkpt lat="44.08259" lon="1.72909">
        <ele>116</ele>
        <time>2011-06-26T12:56:18Z</time>
      </trkpt>
      <trkpt lat="44.08264" lon="1.72917">
        <ele>117</ele>
        <time>2011-06-26T12:56:20Z</time>
      </trkpt>
      <trkpt lat="44.08268" lon="1.72925">
        <ele>118</ele>
        <time>2011-06-26T12:56:22Z</time>
      </trkpt>
      <trkpt lat="44.08273" lon="1.72933">
        <ele>119</ele>
        <time>2011-06-26T12:56:24Z</time>
      </trkpt>
      <trkpt lat="44.08278" lon="1.72941">
        <ele>119</ele>
        <time>2011-06-26T12:56:26Z</time>
      </trkpt>
      <trkpt lat="44.08282" lon="1.72949">
        <ele>120</ele>
        <time>2011-06-26T12:56:28Z</time>
      </trkpt>
      <trkpt lat="44.08287" lon="1.72956">
        <ele>120</ele>
        <time>2011-06-26T12:56:30Z</time>
      </trkpt>
      <trkpt lat="44.08292" lon="1.72964">
        <ele>121</ele>
        <time>2011-06-26T12:56:32Z</time>
      </trkpt>
      <trkpt lat="44.08297" lon="1.72971">
        <ele>121</ele>
        <time>2011-06-26T12:56:34Z</time>
      </trkpt>
      <trkpt lat="44.08301" lon="1.72978">
        <ele>121</ele>
        <time>2011-06-26T12:56:36Z</time>
      </trkpt>
      <trkpt lat="44.08306" lon="1.72986">
        <ele>122</ele>
        <time>2011-06-26T12:56:38Z</time>
      </trkpt>
      <trkpt lat="44.0831" lon="1.72994">
        <ele>123</ele>
        <time>2011-06-26T12:56:40Z</time>
      </trkpt>
      <trkpt lat="44.08315" lon="1.73002">
        <ele>123</ele>
        <time>2011-06-26T12:56:42Z</time>
      </trkpt>
      <trkpt lat="44.0832" lon="1.7301">
        <ele>124</ele>
        <time>2011-06-26T12:56:44Z</time>
      </trkpt>
      <trkpt lat="44.08324" lon="1.73018">
        <ele>125</ele>
        <time>2011-06-26T12:56:46Z</time>
      </trkpt>
      <trkpt lat="44.08329" lon="1.73026">
        <ele>125</ele>
        <time>2011-06-26T12:56:48Z</time>
      </trkpt>
      <trkpt lat="44.08333" lon="1.73034">
        <ele>126</ele>
        <time>2011-06-26T12:56:50Z</time>
      </trkpt>
      <trkpt lat="44.08338" lon="1.73041">
        <ele>126</ele>
        <time>2011-06-26T12:56:52Z</time>
      </trkpt>
      <trkpt lat="44.08343" lon="1.73047">
        <ele>127</ele>
        <time>2011-06-26T12:56:54Z</time>
      </trkpt>
      <trkpt lat="44.08348" lon="1.73056">
        <ele>127</ele>
        <time>2011-06-26T12:56:56Z</time>
      </trkpt>
      <trkpt lat="44.08353" lon="1.73064">
        <ele>127</ele>
        <time>2011-06-26T12:56:58Z</time>
      </trkpt>
      <trkpt lat="44.08358" lon="1.73073">
        <ele>127</ele>
        <time>2011-06-26T12:57:00Z</time>
      </trkpt>
      <trkpt lat="44.08362" lon="1.73082">
        <ele>127</ele>
        <time>2011-06-26T12:57:02Z</time>
      </trkpt>
      <trkpt lat="44.08366" lon="1.7309">
        <ele>127</ele>
        <time>2011-06-26T12:57:04Z</time>
      </trkpt>
      <trkpt lat="44.08371" lon="1.73099">
        <ele>127</ele>
        <time>2011-06-26T12:57:06Z</time>
      </trkpt>
      <trkpt lat="44.08374" lon="1.73108">
        <ele>127</ele>
        <time>2011-06-26T12:57:08Z</time>
      </trkpt>
      <trkpt lat="44.08378" lon="1.73117">
        <ele>127</ele>
        <time>2011-06-26T12:57:10Z</time>
      </trkpt>
      <trkpt lat="44.08382" lon="1.73126">
        <ele>127</ele>
        <time>2011-06-26T12:57:12Z</time>
      </trkpt>
      <trkpt lat="44.08386" lon="1.73135">
        <ele>127</ele>
        <time>2011-06-26T12:57:14Z</time>
      </trkpt>
      <trkpt lat="44.0839" lon="1.73145">
        <ele>127</ele>
        <time>2011-06-26T12:57:16Z</time>
      </trkpt>
      <trkpt lat="44.08393" lon="1.73155">
        <ele>127</ele>
        <time>2011-06-26T12:57:18Z</time>
      </trkpt>
      <trkpt lat="44.08396" lon="1.73164">
        <ele>127</ele>
        <time>2011-06-26T12:57:20Z</time>
      </trkpt>
      <trkpt lat="44.084" lon="1.73173">
        <ele>127</ele>
        <time>2011-06-26T12:57:22Z</time>
      </trkpt>
      <trkpt lat="44.08406" lon="1.73182">
        <ele>127</ele>
        <time>2011-06-26T12:57:24Z</time>
      </trkpt>
      <trkpt lat="44.08411" lon="1.7319">
        <ele>127</ele>
        <time>2011-06-26T12:57:26Z</time>
      </trkpt>
      <trkpt lat="44.08417" lon="1.73198">
        <ele>127</ele>
        <time>2011-06-26T12:57:28Z</time>
      </trkpt>
      <trkpt lat="44.08423" lon="1.73205">
        <ele>127</ele>
        <time>2011-06-26T12:57:30Z</time>
      </trkpt>
      <trkpt lat="44.08428" lon="1.73211">
        <ele>127</ele>
        <time>2011-06-26T12:57:32Z</time>
      </trkpt>
      <trkpt lat="44.08432" lon="1.73217">
        <ele>128</ele>
        <time>2011-06-26T12:57:34Z</time>
      </trkpt>
      <trkpt lat="44.08437" lon="1.73224">
        <ele>129</ele>
        <time>2011-06-26T12:57:36Z</time>
      </trkpt>
      <trkpt lat="44.08441" lon="1.73232">
        <ele>131</ele>
        <time>2011-06-26T12:57:38Z</time>
      </trkpt>
      <trkpt lat="44.08445" lon="1.7324">
        <ele>133</ele>
        <time>2011-06-26T12:57:40Z</time>
      </trkpt>
      <trkpt lat="44.08449" lon="1.73248">
        <ele>134</ele>
        <time>2011-06-26T12:57:42Z</time>
      </trkpt>
      <trkpt lat="44.08452" lon="1.73257">
        <ele>135</ele>
        <time>2011-06-26T12:57:44Z</time>
      </trkpt>
      <trkpt lat="44.08455" lon="1.73265">
        <ele>136</ele>
        <time>2011-06-26T12:57:46Z</time>
      </trkpt>
      <trkpt lat="44.08458" lon="1.73273">
        <ele>136</ele>
        <time>2011-06-26T12:57:48Z</time>
      </trkpt>
      <trkpt lat="44.08463" lon="1.73279">
        <ele>137</ele>
        <time>2011-06-26T12:57:50Z</time>
      </trkpt>
      <trkpt lat="44.08467" lon="1.73285">
        <ele>137</ele>
        <time>2011-06-26T12:57:52Z</time>
      </trkpt>
      <trkpt lat="44.08473" lon="1.73291">
        <ele>137</ele>
        <time>2011-06-26T12:57:54Z</time>
      </trkpt>
      <trkpt lat="44.08479" lon="1.73296">
        <ele>137</ele>
        <time>2011-06-26T12:57:56Z</time>
      </trkpt>
      <trkpt lat="44.08484" lon="1.733">
        <ele>137</ele>
        <time>2011-06-26T12:57:58Z</time>
      </trkpt>
      <trkpt lat="44.0849" lon="1.73302">
        <ele>137</ele>
        <time>2011-06-26T12:58:00Z</time>
      </trkpt>
      <trkpt lat="44.08495" lon="1.73303">
        <ele>137</ele>
        <time>2011-06-26T12:58:02Z</time>
      </trkpt>
      <trkpt lat="44.08501" lon="1.73304">
        <ele>137</ele>
        <time>2011-06-26T12:58:04Z</time>
      </trkpt>
      <trkpt lat="44.08506" lon="1.73305">
        <ele>137</ele>
        <time>2011-06-26T12:58:06Z</time>
      </trkpt>
      <trkpt lat="44.08513" lon="1.73303">
        <ele>137</ele>
        <time>2011-06-26T12:58:08Z</time>
      </trkpt>
      <trkpt lat="44.0852" lon="1.73302">
        <ele>138</ele>
        <time>2011-06-26T12:58:10Z</time>
      </trkpt>
      <trkpt lat="44.08526" lon="1.733">
        <ele>139</ele>
        <time>2011-06-26T12:58:12Z</time>
      </trkpt>
      <trkpt lat="44.08532" lon="1.73296">
        <ele>140</ele>
        <time>2011-06-26T12:58:14Z</time>
      </trkpt>
      <trkpt lat="44.08538" lon="1.73292">
        <ele>142</ele>
        <time>2011-06-26T12:58:16Z</time>
      </trkpt>
      <trkpt lat="44.08543" lon="1.73287">
        <ele>144</ele>
        <time>2011-06-26T12:58:18Z</time>
      </trkpt>
      <trkpt lat="44.08548" lon="1.73281">
        <ele>145</ele>
        <time>2011-06-26T12:58:20Z</time>
      </trkpt>
      <trkpt lat="44.08553" lon="1.73274">
        <ele>146</ele>
        <time>2011-06-26T12:58:22Z</time>
      </trkpt>
      <trkpt lat="44.08556" lon="1.73267">
        <ele>147</ele>
        <time>2011-06-26T12:58:24Z</time>
      </trkpt>
      <trkpt lat="44.08561" lon="1.7326">
        <ele>148</ele>
        <time>2011-06-26T12:58:26Z</time>
      </trkpt>
      <trkpt lat="44.08566" lon="1.73254">
        <ele>149</ele>
        <time>2011-06-26T12:58:28Z</time>
      </trkpt>
      <trkpt lat="44.0857" lon="1.73247">
        <ele>149</ele>
        <time>2011-06-26T12:58:30Z</time>
      </trkpt>
      <trkpt lat="44.08574" lon="1.7324">
        <ele>150</ele>
        <time>2011-06-26T12:58:32Z</time>
      </trkpt>
      <trkpt lat="44.08579" lon="1.73234">
        <ele>150</ele>
        <time>2011-06-26T12:58:34Z</time>
      </trkpt>
      <trkpt lat="44.08584" lon="1.73228">
        <ele>151</ele>
        <time>2011-06-26T12:58:36Z</time>
      </trkpt>
      <trkpt lat="44.08588" lon="1.73222">
        <ele>152</ele>
        <time>2011-06-26T12:58:38Z</time>
      </trkpt>
      <trkpt lat="44.08593" lon="1.73215">
        <ele>152</ele>
        <time>2011-06-26T12:58:40Z</time>
      </trkpt>
      <trkpt lat="44.08597" lon="1.73208">
        <ele>153</ele>
        <time>2011-06-26T12:58:42Z</time>
      </trkpt>
      <trkpt lat="44.08601" lon="1.73201">
        <ele>154</ele>
        <time>2011-06-26T12:58:44Z</time>
      </trkpt>
      <trkpt lat="44.08606" lon="1.73193">
        <ele>155</ele>
        <time>2011-06-26T12:58:46Z</time>
      </trkpt>
      <trkpt lat="44.08609" lon="1.73186">
        <ele>155</ele>
        <time>2011-06-26T12:58:48Z</time>
      </trkpt>
      <trkpt lat="44.08612" lon="1.73178">
        <ele>156</ele>
        <time>2011-06-26T12:58:50Z</time>
      </trkpt>
      <trkpt lat="44.08615" lon="1.7317">
        <ele>157</ele>
        <time>2011-06-26T12:58:52Z</time>
      </trkpt>
      <trkpt lat="44.08617" lon="1.73161">
        <ele>159</ele>
        <time>2011-06-26T12:58:54Z</time>
      </trkpt>
      <trkpt lat="44.08618" lon="1.73153">
        <ele>160</ele>
        <time>2011-06-26T12:58:56Z</time>
      </trkpt>
      <trkpt lat="44.08619" lon="1.73145">
        <ele>161</ele>
        <time>2011-06-26T12:58:58Z</time>
      </trkpt>
      <trkpt lat="44.08619" lon="1.73136">
        <ele>162</ele>
        <time>2011-06-26T12:59:00Z</time>
      </trkpt>
      <trkpt lat="44.08619" lon="1.73128">
        <ele>163</ele>
        <time>2011-06-26T12:59:02Z</time>
      </trkpt>
      <trkpt lat="44.08617" lon="1.73121">
        <ele>164</ele>
        <time>2011-06-26T12:59:04Z</time>
      </trkpt>
      <trkpt lat="44.08615" lon="1.73114">
        <ele>165</ele>
        <time>2011-06-26T12:59:06Z</time>
      </trkpt>
      <trkpt lat="44.08613" lon="1.73108">
        <ele>166</ele>
        <time>2011-06-26T12:59:08Z</time>
      </trkpt>
      <trkpt lat="44.08611" lon="1.73101">
        <ele>167</ele>
        <time>2011-06-26T12:59:10Z</time>
      </trkpt>
      <trkpt lat="44.08607" lon="1.73096">
        <ele>168</ele>
        <time>2011-06-26T12:59:12Z</time>
      </trkpt>
      <trkpt lat="44.08604" lon="1.7309">
        <ele>170</ele>
        <time>2011-06-26T12:59:14Z</time>
      </trkpt>
      <trkpt lat="44.08601" lon="1.73084">
        <ele>171</ele>
        <time>2011-06-26T12:59:16Z</time>
      </trkpt>
      <trkpt lat="44.08597" lon="1.7308">
        <ele>172</ele>
        <time>2011-06-26T12:59:18Z</time>
      </trkpt>
      <trkpt lat="44.08594" lon="1.73074">
        <ele>173</ele>
        <time>2011-06-26T12:59:20Z</time>
      </trkpt>
      <trkpt lat="44.0859" lon="1.73068">
        <ele>175</ele>
        <time>2011-06-26T12:59:22Z</time>
      </trkpt>
      <trkpt lat="44.08588" lon="1.73062">
        <ele>176</ele>
        <time>2011-06-26T12:59:24Z</time>
      </trkpt>
      <trkpt lat="44.08585" lon="1.73056">
        <ele>177</ele>
        <time>2011-06-26T12:59:26Z</time>
      </trkpt>
      <trkpt lat="44.08582" lon="1.7305">
        <ele>178</ele>
        <time>2011-06-26T12:59:28Z</time>
      </trkpt>
      <trkpt lat="44.08579" lon="1.73045">
        <ele>179</ele>
        <time>2011-06-26T12:59:30Z</time>
      </trkpt>
      <trkpt lat="44.08576" lon="1.73039">
        <ele>180</ele>
        <time>2011-06-26T12:59:32Z</time>
      </trkpt>
      <trkpt lat="44.08573" lon="1.73033">
        <ele>181</ele>
        <time>2011-06-26T12:59:34Z</time>
      </trkpt>
      <trkpt lat="44.0857" lon="1.73028">
        <ele>182</ele>
        <time>2011-06-26T12:59:36Z</time>
      </trkpt>
      <trkpt lat="44.08568" lon="1.73022">
        <ele>182</ele>
        <time>2011-06-26T12:59:38Z</time>
      </trkpt>
      <trkpt lat="44.08565" lon="1.73016">
        <ele>183</ele>
        <time>2011-06-26T12:59:40Z</time>
      </trkpt>
      <trkpt lat="44.08563" lon="1.7301">
        <ele>184</ele>
        <time>2011-06-26T12:59:42Z</time>
      </trkpt>
      <trkpt lat="44.0856" lon="1.73004">
        <ele>185</ele>
        <time>2011-06-26T12:59:44Z</time>
      </trkpt>
      <trkpt lat="44.08558" lon="1.72998">
        <ele>185</ele>
        <time>2011-06-26T12:59:46Z</time>
      </trkpt>
      <trkpt lat="44.08556" lon="1.72991">
        <ele>186</ele>
        <time>2011-06-26T12:59:48Z</time>
      </trkpt>
      <trkpt lat="44.08553" lon="1.72985">
        <ele>187</ele>
        <time>2011-06-26T12:59:50Z</time>
      </trkpt>
      <trkpt lat="44.0855" lon="1.72979">
        <ele>188</ele>
        <time>2011-06-26T12:59:52Z</time>
      </trkpt>
      <trkpt lat="44.08548" lon="1.72973">
        <ele>189</ele>
        <time>2011-06-26T12:59:54Z</time>
      </trkpt>
      <trkpt lat="44.08546" lon="1.72967">
        <ele>190</ele>
        <time>2011-06-26T12:59:56Z</time>
      </trkpt>
      <trkpt lat="44.08543" lon="1.72961">
        <ele>191</ele>
        <time>2011-06-26T12:59:58Z</time>
      </trkpt>
      <trkpt lat="44.0854" lon="1.72955">
        <ele>192</ele>
        <time>2011-06-26T13:00:00Z</time>
      </trkpt>
      <trkpt lat="44.08538" lon="1.72949">
        <ele>192</ele>
        <time>2011-06-26T13:00:02Z</time>
      </trkpt>
      <trkpt lat="44.08535" lon="1.72943">
        <ele>193</ele>
        <time>2011-06-26T13:00:04Z</time>
      </trkpt>
      <trkpt lat="44.08532" lon="1.72937">
        <ele>194</ele>
        <time>2011-06-26T13:00:06Z</time>
      </trkpt>
      <trkpt lat="44.08529" lon="1.72931">
        <ele>195</ele>
        <time>2011-06-26T13:00:08Z</time>
      </trkpt>
      <trkpt lat="44.08526" lon="1.72925">
        <ele>195</ele>
        <time>2011-06-26T13:00:10Z</time>
      </trkpt>
      <trkpt lat="44.08524" lon="1.72918">
        <ele>196</ele>
        <time>2011-06-26T13:00:12Z</time>
      </trkpt>
      <trkpt lat="44.08521" lon="1.72912">
        <ele>196</ele>
        <time>2011-06-26T13:00:14Z</time>
      </trkpt>
      <trkpt lat="44.08518" lon="1.72906">
        <ele>197</ele>
        <time>2011-06-26T13:00:16Z</time>
      </trkpt>
      <trkpt lat="44.08516" lon="1.729">
        <ele>197</ele>
        <time>2011-06-26T13:00:18Z</time>
      </trkpt>
      <trkpt lat="44.08513" lon="1.72894">
        <ele>197</ele>
        <time>2011-06-26T13:00:20Z</time>
      </trkpt>
      <trkpt lat="44.08511" lon="1.72887">
        <ele>198</ele>
        <time>2011-06-26T13:00:22Z</time>
      </trkpt>
      <trkpt lat="44.08509" lon="1.72881">
        <ele>199</ele>
        <time>2011-06-26T13:00:24Z</time>
      </trkpt>
      <trkpt lat="44.08506" lon="1.72874">
        <ele>199</ele>
        <time>2011-06-26T13:00:26Z</time>
      </trkpt>
      <trkpt lat="44.08504" lon="1.72868">
        <ele>200</ele>
        <time>2011-06-26T13:00:28Z</time>
      </trkpt>
      <trkpt lat="44.08502" lon="1.72861">
        <ele>201</ele>
        <time>2011-06-26T13:00:30Z</time>
      </trkpt>
      <trkpt lat="44.085" lon="1.72855">
        <ele>202</ele>
        <time>2011-06-26T13:00:32Z</time>
      </trkpt>
      <trkpt lat="44.08498" lon="1.72848">
        <ele>202</ele>
        <time>2011-06-26T13:00:34Z</time>
      </trkpt>
      <trkpt lat="44.08496" lon="1.72841">
        <ele>203</ele>
        <time>2011-06-26T13:00:36Z</time>
      </trkpt>
      <trkpt lat="44.08494" lon="1.72835">
        <ele>203</ele>
        <time>2011-06-26T13:00:38Z</time>
      </trkpt>
      <trkpt lat="44.08492" lon="1.72828">
        <ele>204</ele>
        <time>2011-06-26T13:00:40Z</time>
      </trkpt>
      <trkpt lat="44.0849" lon="1.72821">
        <ele>205</ele>
        <time>2011-06-26T13:00:42Z</time>
      </trkpt>
      <trkpt lat="44.08488" lon="1.72814">
        <ele>205</ele>
        <time>2011-06-26T13:00:44Z</time>
      </trkpt>
      <trkpt lat="44.08486" lon="1.72807">
        <ele>206</ele>
        <time>2011-06-26T13:00:46Z</time>
      </trkpt>
      <trkpt lat="44.08483" lon="1.728">
        <ele>206</ele>
        <time>2011-06-26T13:00:48Z</time>
      </trkpt>
      <trkpt lat="44.0848" lon="1.72794">
        <ele>206</ele>
        <time>2011-06-26T13:00:50Z</time>
      </trkpt>
      <trkpt lat="44.08477" lon="1.72788">
        <ele>206</ele>
        <time>2011-06-26T13:00:52Z</time>
      </trkpt>
      <trkpt lat="44.08474" lon="1.72782">
        <ele>207</ele>
        <time>2011-06-26T13:00:54Z</time>
      </trkpt>
      <trkpt lat="44.0847" lon="1.72776">
        <ele>207</ele>
        <time>2011-06-26T13:00:56Z</time>
      </trkpt>
      <trkpt lat="44.08466" lon="1.72771">
        <ele>207</ele>
        <time>2011-06-26T13:00:58Z</time>
      </trkpt>
      <trkpt lat="44.08462" lon="1.72766">
        <ele>208</ele>
        <time>2011-06-26T13:01:00Z</time>
      </trkpt>
      <trkpt lat="44.08458" lon="1.72761">
        <ele>208</ele>
        <time>2011-06-26T13:01:02Z</time>
      </trkpt>
      <trkpt lat="44.08454" lon="1.72756">
        <ele>208</ele>
        <time>2011-06-26T13:01:04Z</time>
      </trkpt>
      <trkpt lat="44.0845" lon="1.7275">
        <ele>208</ele>
        <time>2011-06-26T13:01:06Z</time>
      </trkpt>
      <trkpt lat="44.08446" lon="1.72746">
        <ele>208</ele>
        <time>2011-06-26T13:01:08Z</time>
      </trkpt>
      <trkpt lat="44.08443" lon="1.7274">
        <ele>209</ele>
        <time>2011-06-26T13:01:10Z</time>
      </trkpt>
      <trkpt lat="44.08439" lon="1.72734">
        <ele>209</ele>
        <time>2011-06-26T13:01:12Z</time>
      </trkpt>
      <trkpt lat="44.08435" lon="1.72729">
        <ele>209</ele>
        <time>2011-06-26T13:01:14Z</time>
      </trkpt>
      <trkpt lat="44.08432" lon="1.72722">
        <ele>209</ele>
        <time>2011-06-26T13:01:16Z</time>
      </trkpt>
      <trkpt lat="44.08429" lon="1.72715">
        <ele>209</ele>
        <time>2011-06-26T13:01:18Z</time>
      </trkpt>
      <trkpt lat="44.0843" lon="1.72707">
        <ele>209</ele>
        <time>2011-06-26T13:01:20Z</time>
      </trkpt>
      <trkpt lat="44.08435" lon="1.72703">
        <ele>210</ele>
        <time>2011-06-26T13:01:22Z</time>
      </trkpt>
      <trkpt lat="44.0844" lon="1.72705">
        <ele>210</ele>
        <time>2011-06-26T13:01:24Z</time>
      </trkpt>
      <trkpt lat="44.08445" lon="1.72709">
        <ele>210</ele>
        <time>2011-06-26T13:01:26Z</time>
      </trkpt>
      <trkpt lat="44.08449" lon="1.72714">
        <ele>211</ele>
        <time>2011-06-26T13:01:28Z</time>
      </trkpt>
      <trkpt lat="44.08453" lon="1.7272">
        <ele>211</ele>
        <time>2011-06-26T13:01:30Z</time>
      </trkpt>
      <trkpt lat="44.08457" lon="1.72726">
        <ele>212</ele>
        <time>2011-06-26T13:01:32Z</time>
      </trkpt>
      <trkpt lat="44.08462" lon="1.72731">
        <ele>212</ele>
        <time>2011-06-26T13:01:34Z</time>
      </trkpt>
      <trkpt lat="44.08467" lon="1.72735">
        <ele>213</ele>
        <time>2011-06-26T13:01:36Z</time>
      </trkpt>
      <trkpt lat="44.08472" lon="1.72738">
        <ele>213</ele>
        <time>2011-06-26T13:01:38Z</time>
      </trkpt>
      <trkpt lat="44.08478" lon="1.7274">
        <ele>214</ele>
        <time>2011-06-26T13:01:40Z</time>
      </trkpt>
      <trkpt lat="44.08483" lon="1.72741">
        <ele>214</ele>
        <time>2011-06-26T13:01:42Z</time>
      </trkpt>
      <trkpt lat="44.08489" lon="1.72742">
        <ele>214</ele>
        <time>2011-06-26T13:01:44Z</time>
      </trkpt>
      <trkpt lat="44.08495" lon="1.72742">
        <ele>215</ele>
        <time>2011-06-26T13:01:46Z</time>
      </trkpt>
      <trkpt lat="44.08501" lon="1.72743">
        <ele>215</ele>
        <time>2011-06-26T13:01:48Z</time>
      </trkpt>
      <trkpt lat="44.08506" lon="1.72744">
        <ele>215</ele>
        <time>2011-06-26T13:01:50Z</time>
      </trkpt>
      <trkpt lat="44.08512" lon="1.72746">
        <ele>215</ele>
        <time>2011-06-26T13:01:52Z</time>
      </trkpt>
      <trkpt lat="44.08517" lon="1.72748">
        <ele>216</ele>
        <time>2011-06-26T13:01:54Z</time>
      </trkpt>
      <trkpt lat="44.08522" lon="1.72751">
        <ele>216</ele>
        <time>2011-06-26T13:01:56Z</time>
      </trkpt>
      <trkpt lat="44.08527" lon="1.72755">
        <ele>216</ele>
        <time>2011-06-26T13:01:58Z</time>
      </trkpt>
      <trkpt lat="44.08532" lon="1.7276">
        <ele>216</ele>
        <time>2011-06-26T13:02:00Z</time>
      </trkpt>
      <trkpt lat="44.08536" lon="1.72765">
        <ele>217</ele>
        <time>2011-06-26T13:02:02Z</time>
      </trkpt>
      <trkpt lat="44.0854" lon="1.72771">
        <ele>217</ele>
        <time>2011-06-26T13:02:04Z</time>
      </trkpt>
      <trkpt lat="44.08543" lon="1.72777">
        <ele>218</ele>
        <time>2011-06-26T13:02:06Z</time>
      </trkpt>
      <trkpt lat="44.08547" lon="1.72784">
        <ele>218</ele>
        <time>2011-06-26T13:02:08Z</time>
      </trkpt>
      <trkpt lat="44.08551" lon="1.7279">
        <ele>219</ele>
        <time>2011-06-26T13:02:10Z</time>
      </trkpt>
      <trkpt lat="44.08556" lon="1.72795">
        <ele>219</ele>
        <time>2011-06-26T13:02:12Z</time>
      </trkpt>
      <trkpt lat="44.08561" lon="1.72798">
        <ele>220</ele>
        <time>2011-06-26T13:02:14Z</time>
      </trkpt>
      <trkpt lat="44.08566" lon="1.72799">
        <ele>220</ele>
        <time>2011-06-26T13:02:16Z</time>
      </trkpt>
      <trkpt lat="44.08571" lon="1.72794">
        <ele>221</ele>
        <time>2011-06-26T13:02:18Z</time>
      </trkpt>
      <trkpt lat="44.08573" lon="1.72786">
        <ele>221</ele>
        <time>2011-06-26T13:02:20Z</time>
      </trkpt>
      <trkpt lat="44.08572" lon="1.72777">
        <ele>222</ele>
        <time>2011-06-26T13:02:22Z</time>
      </trkpt>
      <trkpt lat="44.08569" lon="1.7277">
        <ele>222</ele>
        <time>2011-06-26T13:02:24Z</time>
      </trkpt>
      <trkpt lat="44.08564" lon="1.72763">
        <ele>223</ele>
        <time>2011-06-26T13:02:26Z</time>
      </trkpt>
      <trkpt lat="44.0856" lon="1.72757">
        <ele>224</ele>
        <time>2011-06-26T13:02:28Z</time>
      </trkpt>
      <trkpt lat="44.08554" lon="1.72749">
        <ele>224</ele>
        <time>2011-06-26T13:02:30Z</time>
      </trkpt>
      <trkpt lat="44.0855" lon="1.72741">
        <ele>225</ele>
        <time>2011-06-26T13:02:32Z</time>
      </trkpt>
      <trkpt lat="44.08546" lon="1.72733">
        <ele>226</ele>
        <time>2011-06-26T13:02:34Z</time>
      </trkpt>
      <trkpt lat="44.08543" lon="1.72724">
        <ele>227</ele>
        <time>2011-06-26T13:02:36Z</time>
      </trkpt>
      <trkpt lat="44.0854" lon="1.72716">
        <ele>228</ele>
        <time>2011-06-26T13:02:38Z</time>
      </trkpt>
      <trkpt lat="44.08537" lon="1.72708">
        <ele>229</ele>
        <time>2011-06-26T13:02:40Z</time>
      </trkpt>
      <trkpt lat="44.08533" lon="1.727">
        <ele>231</ele>
        <time>2011-06-26T13:02:42Z</time>
      </trkpt>
      <trkpt lat="44.0853" lon="1.72693">
        <ele>232</ele>
        <time>2011-06-26T13:02:44Z</time>
      </trkpt>
      <trkpt lat="44.08526" lon="1.72687">
        <ele>232</ele>
        <time>2011-06-26T13:02:46Z</time>
      </trkpt>
      <trkpt lat="44.08521" lon="1.72681">
        <ele>233</ele>
        <time>2011-06-26T13:02:48Z</time>
      </trkpt>
      <trkpt lat="44.08516" lon="1.72675">
        <ele>234</ele>
        <time>2011-06-26T13:02:50Z</time>
      </trkpt>
      <trkpt lat="44.08511" lon="1.7267">
        <ele>235</ele>
        <time>2011-06-26T13:02:52Z</time>
      </trkpt>
      <trkpt lat="44.08506" lon="1.72664">
        <ele>235</ele>
        <time>2011-06-26T13:02:54Z</time>
      </trkpt>
      <trkpt lat="44.08502" lon="1.72659">
        <ele>236</ele>
        <time>2011-06-26T13:02:56Z</time>
      </trkpt>
      <trkpt lat="44.08498" lon="1.72653">
        <ele>237</ele>
        <time>2011-06-26T13:02:58Z</time>
      </trkpt>
      <trkpt lat="44.08494" lon="1.72647">
        <ele>237</ele>
        <time>2011-06-26T13:03:00Z</time>
      </trkpt>
      <trkpt lat="44.0849" lon="1.72641">
        <ele>238</ele>
        <time>2011-06-26T13:03:02Z</time>
      </trkpt>
      <trkpt lat="44.08487" lon="1.72635">
        <ele>239</ele>
        <time>2011-06-26T13:03:04Z</time>
      </trkpt>
      <trkpt lat="44.08484" lon="1.72628">
        <ele>239</ele>
        <time>2011-06-26T13:03:06Z</time>
      </trkpt>
      <trkpt lat="44.08481" lon="1.72621">
        <ele>240</ele>
        <time>2011-06-26T13:03:08Z</time>
      </trkpt>
      <trkpt lat="44.08478" lon="1.72614">
        <ele>240</ele>
        <time>2011-06-26T13:03:10Z</time>
      </trkpt>
      <trkpt lat="44.08476" lon="1.72607">
        <ele>241</ele>
        <time>2011-06-26T13:03:12Z</time>
      </trkpt>
      <trkpt lat="44.08474" lon="1.726">
        <ele>241</ele>
        <time>2011-06-26T13:03:14Z</time>
      </trkpt>
      <trkpt lat="44.08472" lon="1.72592">
        <ele>242</ele>
        <time>2011-06-26T13:03:16Z</time>
      </trkpt>
      <trkpt lat="44.0847" lon="1.72584">
        <ele>243</ele>
        <time>2011-06-26T13:03:18Z</time>
      </trkpt>
      <trkpt lat="44.08468" lon="1.72577">
        <ele>243</ele>
        <time>2011-06-26T13:03:20Z</time>
      </trkpt>
      <trkpt lat="44.08466" lon="1.72569">
        <ele>244</ele>
        <time>2011-06-26T13:03:22Z</time>
      </trkpt>
      <trkpt lat="44.08465" lon="1.72561">
        <ele>245</ele>
        <time>2011-06-26T13:03:24Z</time>
      </trkpt>
      <trkpt lat="44.08464" lon="1.72554">
        <ele>245</ele>
        <time>2011-06-26T13:03:26Z</time>
      </trkpt>
      <trkpt lat="44.08462" lon="1.72546">
        <ele>246</ele>
        <time>2011-06-26T13:03:28Z</time>
      </trkpt>
      <trkpt lat="44.08461" lon="1.72539">
        <ele>247</ele>
        <time>2011-06-26T13:03:30Z</time>
      </trkpt>
      <trkpt lat="44.08459" lon="1.72531">
        <ele>247</ele>
        <time>2011-06-26T13:03:32Z</time>
      </trkpt>
      <trkpt lat="44.08458" lon="1.72523">
        <ele>248</ele>
        <time>2011-06-26T13:03:34Z</time>
      </trkpt>
      <trkpt lat="44.08457" lon="1.72516">
        <ele>249</ele>
        <time>2011-06-26T13:03:36Z</time>
      </trkpt>
      <trkpt lat="44.08455" lon="1.72508">
        <ele>250</ele>
        <time>2011-06-26T13:03:38Z</time>
      </trkpt>
      <trkpt lat="44.08454" lon="1.72501">
        <ele>251</ele>
        <time>2011-06-26T13:03:40Z</time>
      </trkpt>
      <trkpt lat="44.08452" lon="1.72494">
        <ele>251</ele>
        <time>2011-06-26T13:03:42Z</time>
      </trkpt>
      <trkpt lat="44.0845" lon="1.72486">
        <ele>252</ele>
        <time>2011-06-26T13:03:44Z</time>
      </trkpt>
      <trkpt lat="44.08448" lon="1.72479">
        <ele>252</ele>
        <time>2011-06-26T13:03:46Z</time>
      </trkpt>
      <trkpt lat="44.08446" lon="1.72473">
        <ele>253</ele>
        <time>2011-06-26T13:03:48Z</time>
      </trkpt>
      <trkpt lat="44.08444" lon="1.72466">
        <ele>253</ele>
        <time>2011-06-26T13:03:50Z</time>
      </trkpt>
      <trkpt lat="44.08442" lon="1.72458">
        <ele>254</ele>
        <time>2011-06-26T13:03:52Z</time>
      </trkpt>
      <trkpt lat="44.08441" lon="1.72451">
        <ele>254</ele>
        <time>2011-06-26T13:03:54Z</time>
      </trkpt>
      <trkpt lat="44.08441" lon="1.72443">
        <ele>254</ele>
        <time>2011-06-26T13:03:56Z</time>
      </trkpt>
      <trkpt lat="44.08441" lon="1.72435">
        <ele>255</ele>
        <time>2011-06-26T13:03:58Z</time>
      </trkpt>
      <trkpt lat="44.08441" lon="1.72427">
        <ele>255</ele>
        <time>2011-06-26T13:04:00Z</time>
      </trkpt>
      <trkpt lat="44.08441" lon="1.72419">
        <ele>256</ele>
        <time>2011-06-26T13:04:02Z</time>
      </trkpt>
      <trkpt lat="44.08441" lon="1.72411">
        <ele>256</ele>
        <time>2011-06-26T13:04:04Z</time>
      </trkpt>
      <trkpt lat="44.08441" lon="1.72404">
        <ele>257</ele>
        <time>2011-06-26T13:04:06Z</time>
      </trkpt>
      <trkpt lat="44.08442" lon="1.72396">
        <ele>257</ele>
        <time>2011-06-26T13:04:08Z</time>
      </trkpt>
      <trkpt lat="44.08442" lon="1.72388">
        <ele>258</ele>
        <time>2011-06-26T13:04:10Z</time>
      </trkpt>
      <trkpt lat="44.08442" lon="1.72379">
        <ele>258</ele>
        <time>2011-06-26T13:04:12Z</time>
      </trkpt>
      <trkpt lat="44.08443" lon="1.7237">
        <ele>259</ele>
        <time>2011-06-26T13:04:14Z</time>
      </trkpt>
      <trkpt lat="44.08444" lon="1.72361">
        <ele>259</ele>
        <time>2011-06-26T13:04:16Z</time>
      </trkpt>
      <trkpt lat="44.08446" lon="1.72352">
        <ele>260</ele>
        <time>2011-06-26T13:04:18Z</time>
      </trkpt>
      <trkpt lat="44.08448" lon="1.72344">
        <ele>260</ele>
        <time>2011-06-26T13:04:20Z</time>
      </trkpt>
      <trkpt lat="44.0845" lon="1.72336">
        <ele>261</ele>
        <time>2011-06-26T13:04:22Z</time>
      </trkpt>
      <trkpt lat="44.08453" lon="1.72328">
        <ele>261</ele>
        <time>2011-06-26T13:04:24Z</time>
      </trkpt>
      <trkpt lat="44.08456" lon="1.7232">
        <ele>262</ele>
        <time>2011-06-26T13:04:26Z</time>
      </trkpt>
      <trkpt lat="44.08458" lon="1.72313">
        <ele>262</ele>
        <time>2011-06-26T13:04:28Z</time>
      </trkpt>
      <trkpt lat="44.0846" lon="1.72305">
        <ele>263</ele>
        <time>2011-06-26T13:04:30Z</time>
      </trkpt>
      <trkpt lat="44.08461" lon="1.72296">
        <ele>263</ele>
        <time>2011-06-26T13:04:32Z</time>
      </trkpt>
      <trkpt lat="44.08461" lon="1.72289">
        <ele>264</ele>
        <time>2011-06-26T13:04:34Z</time>
      </trkpt>
      <trkpt lat="44.08459" lon="1.72281">
        <ele>264</ele>
        <time>2011-06-26T13:04:36Z</time>
      </trkpt>
      <trkpt lat="44.08456" lon="1.72274">
        <ele>264</ele>
        <time>2011-06-26T13:04:38Z</time>
      </trkpt>
      <trkpt lat="44.08453" lon="1.72267">
        <ele>264</ele>
        <time>2011-06-26T13:04:40Z</time>
      </trkpt>
      <trkpt lat="44.0845" lon="1.72261">
        <ele>264</ele>
        <time>2011-06-26T13:04:42Z</time>
      </trkpt>
      <trkpt lat="44.08448" lon="1.72256">
        <ele>264</ele>
        <time>2011-06-26T13:04:44Z</time>
      </trkpt>
      <trkpt lat="44.08445" lon="1.72252">
        <ele>264</ele>
        <time>2011-06-26T13:04:47Z</time>
      </trkpt>
      <trkpt lat="44.08446" lon="1.72254">
        <ele>264</ele>
        <time>2011-06-26T13:05:00Z</time>
      </trkpt>
      <trkpt lat="44.08446" lon="1.72255">
        <ele>264</ele>
        <time>2011-06-26T13:05:11Z</time>
      </trkpt>
      <trkpt lat="44.08447" lon="1.72256">
        <ele>267</ele>
        <time>2011-06-26T13:06:29Z</time>
      </trkpt>
      <trkpt lat="44.08448" lon="1.72254">
        <ele>268</ele>
        <time>2011-06-26T13:07:29Z</time>
      </trkpt>
      <trkpt lat="44.08447" lon="1.72255">
        <ele>268</ele>
        <time>2011-06-26T13:07:52Z</time>
      </trkpt>
      <trkpt lat="44.08448" lon="1.72254">
        <ele>269</ele>
        <time>2011-06-26T13:08:18Z</time>
      </trkpt>
      <trkpt lat="44.08447" lon="1.72251">
        <ele>269</ele>
        <time>2011-06-26T13:08:24Z</time>
      </trkpt>
      <trkpt lat="44.08445" lon="1.72247">
        <ele>269</ele>
        <time>2011-06-26T13:08:26Z</time>
      </trkpt>
      <trkpt lat="44.08443" lon="1.72241">
        <ele>269</ele>
        <time>2011-06-26T13:08:28Z</time>
      </trkpt>
      <trkpt lat="44.0844" lon="1.72235">
        <ele>269</ele>
        <time>2011-06-26T13:08:30Z</time>
      </trkpt>
      <trkpt lat="44.08437" lon="1.72227">
        <ele>269</ele>
        <time>2011-06-26T13:08:32Z</time>
      </trkpt>
      <trkpt lat="44.08434" lon="1.7222">
        <ele>269</ele>
        <time>2011-06-26T13:08:34Z</time>
      </trkpt>
      <trkpt lat="44.08431" lon="1.72213">
        <ele>269</ele>
        <time>2011-06-26T13:08:36Z</time>
      </trkpt>
      <trkpt lat="44.08428" lon="1.72206">
        <ele>269</ele>
        <time>2011-06-26T13:08:38Z</time>
      </trkpt>
      <trkpt lat="44.08423" lon="1.72196">
        <ele>269</ele>
        <time>2011-06-26T13:08:41Z</time>
      </trkpt>
      <trkpt lat="44.0842" lon="1.72189">
        <ele>269</ele>
        <time>2011-06-26T13:08:43Z</time>
      </trkpt>
      <trkpt lat="44.08417" lon="1.72182">
        <ele>269</ele>
        <time>2011-06-26T13:08:45Z</time>
      </trkpt>
      <trkpt lat="44.08414" lon="1.72176">
        <ele>269</ele>
        <time>2011-06-26T13:08:47Z</time>
      </trkpt>
      <trkpt lat="44.08411" lon="1.7217">
        <ele>269</ele>
        <time>2011-06-26T13:08:49Z</time>
      </trkpt>
      <trkpt lat="44.08408" lon="1.72164">
        <ele>269</ele>
        <time>2011-06-26T13:08:51Z</time>
      </trkpt>
      <trkpt lat="44.08405" lon="1.72159">
        <ele>269</ele>
        <time>2011-06-26T13:08:53Z</time>
      </trkpt>
      <trkpt lat="44.08402" lon="1.72153">
        <ele>269</ele>
        <time>2011-06-26T13:08:55Z</time>
      </trkpt>
      <trkpt lat="44.08398" lon="1.72149">
        <ele>270</ele>
        <time>2011-06-26T13:08:57Z</time>
      </trkpt>
      <trkpt lat="44.08394" lon="1.72144">
        <ele>270</ele>
        <time>2011-06-26T13:08:59Z</time>
      </trkpt>
      <trkpt lat="44.0839" lon="1.72141">
        <ele>271</ele>
        <time>2011-06-26T13:09:01Z</time>
      </trkpt>
      <trkpt lat="44.08386" lon="1.72137">
        <ele>271</ele>
        <time>2011-06-26T13:09:03Z</time>
      </trkpt>
      <trkpt lat="44.08382" lon="1.72134">
        <ele>272</ele>
        <time>2011-06-26T13:09:05Z</time>
      </trkpt>
      <trkpt lat="44.08379" lon="1.72129">
        <ele>272</ele>
        <time>2011-06-26T13:09:07Z</time>
      </trkpt>
      <trkpt lat="44.08375" lon="1.72125">
        <ele>273</ele>
        <time>2011-06-26T13:09:09Z</time>
      </trkpt>
      <trkpt lat="44.08372" lon="1.7212">
        <ele>273</ele>
        <time>2011-06-26T13:09:11Z</time>
      </trkpt>
      <trkpt lat="44.08369" lon="1.72115">
        <ele>273</ele>
        <time>2011-06-26T13:09:13Z</time>
      </trkpt>
      <trkpt lat="44.08366" lon="1.72109">
        <ele>273</ele>
        <time>2011-06-26T13:09:15Z</time>
      </trkpt>
      <trkpt lat="44.08363" lon="1.72103">
        <ele>274</ele>
        <time>2011-06-26T13:09:17Z</time>
      </trkpt>
      <trkpt lat="44.08361" lon="1.72098">
        <ele>275</ele>
        <time>2011-06-26T13:09:19Z</time>
      </trkpt>
      <trkpt lat="44.08359" lon="1.72091">
        <ele>275</ele>
        <time>2011-06-26T13:09:21Z</time>
      </trkpt>
      <trkpt lat="44.08357" lon="1.72085">
        <ele>276</ele>
        <time>2011-06-26T13:09:23Z</time>
      </trkpt>
      <trkpt lat="44.08354" lon="1.72079">
        <ele>276</ele>
        <time>2011-06-26T13:09:25Z</time>
      </trkpt>
      <trkpt lat="44.08351" lon="1.72074">
        <ele>276</ele>
        <time>2011-06-26T13:09:27Z</time>
      </trkpt>
      <trkpt lat="44.08349" lon="1.72068">
        <ele>276</ele>
        <time>2011-06-26T13:09:29Z</time>
      </trkpt>
      <trkpt lat="44.08347" lon="1.72062">
        <ele>277</ele>
        <time>2011-06-26T13:09:31Z</time>
      </trkpt>
      <trkpt lat="44.08345" lon="1.72056">
        <ele>277</ele>
        <time>2011-06-26T13:09:33Z</time>
      </trkpt>
      <trkpt lat="44.08342" lon="1.72049">
        <ele>277</ele>
        <time>2011-06-26T13:09:35Z</time>
      </trkpt>
      <trkpt lat="44.08341" lon="1.72041">
        <ele>277</ele>
        <time>2011-06-26T13:09:37Z</time>
      </trkpt>
      <trkpt lat="44.08339" lon="1.72034">
        <ele>277</ele>
        <time>2011-06-26T13:09:39Z</time>
      </trkpt>
      <trkpt lat="44.08337" lon="1.72026">
        <ele>277</ele>
        <time>2011-06-26T13:09:41Z</time>
      </trkpt>
      <trkpt lat="44.08335" lon="1.72018">
        <ele>277</ele>
        <time>2011-06-26T13:09:43Z</time>
      </trkpt>
      <trkpt lat="44.08334" lon="1.72009">
        <ele>277</ele>
        <time>2011-06-26T13:09:45Z</time>
      </trkpt>
      <trkpt lat="44.08333" lon="1.72">
        <ele>277</ele>
        <time>2011-06-26T13:09:47Z</time>
      </trkpt>
      <trkpt lat="44.08333" lon="1.7199">
        <ele>277</ele>
        <time>2011-06-26T13:09:49Z</time>
      </trkpt>
      <trkpt lat="44.08332" lon="1.71979">
        <ele>277</ele>
        <time>2011-06-26T13:09:51Z</time>
      </trkpt>
      <trkpt lat="44.0833" lon="1.71967">
        <ele>277</ele>
        <time>2011-06-26T13:09:53Z</time>
      </trkpt>
      <trkpt lat="44.08329" lon="1.71954">
        <ele>277</ele>
        <time>2011-06-26T13:09:55Z</time>
      </trkpt>
      <trkpt lat="44.08327" lon="1.7194">
        <ele>277</ele>
        <time>2011-06-26T13:09:57Z</time>
      </trkpt>
      <trkpt lat="44.08324" lon="1.71916">
        <ele>277</ele>
        <time>2011-06-26T13:10:00Z</time>
      </trkpt>
      <trkpt lat="44.08321" lon="1.71891">
        <ele>277</ele>
        <time>2011-06-26T13:10:03Z</time>
      </trkpt>
      <trkpt lat="44.0832" lon="1.71874">
        <ele>277</ele>
        <time>2011-06-26T13:10:05Z</time>
      </trkpt>
      <trkpt lat="44.08318" lon="1.71858">
        <ele>277</ele>
        <time>2011-06-26T13:10:07Z</time>
      </trkpt>
      <trkpt lat="44.08317" lon="1.71843">
        <ele>277</ele>
        <time>2011-06-26T13:10:09Z</time>
      </trkpt>
      <trkpt lat="44.08313" lon="1.71827">
        <ele>277</ele>
        <time>2011-06-26T13:10:11Z</time>
      </trkpt>
      <trkpt lat="44.08307" lon="1.71815">
        <ele>277</ele>
        <time>2011-06-26T13:10:13Z</time>
      </trkpt>
      <trkpt lat="44.08297" lon="1.71802">
        <ele>277</ele>
        <time>2011-06-26T13:10:15Z</time>
      </trkpt>
      <trkpt lat="44.08288" lon="1.71788">
        <ele>277</ele>
        <time>2011-06-26T13:10:17Z</time>
      </trkpt>
      <trkpt lat="44.08278" lon="1.71774">
        <ele>276</ele>
        <time>2011-06-26T13:10:19Z</time>
      </trkpt>
      <trkpt lat="44.08268" lon="1.71759">
        <ele>276</ele>
        <time>2011-06-26T13:10:21Z</time>
      </trkpt>
      <trkpt lat="44.08259" lon="1.71744">
        <ele>276</ele>
        <time>2011-06-26T13:10:23Z</time>
      </trkpt>
      <trkpt lat="44.08252" lon="1.7173">
        <ele>275</ele>
        <time>2011-06-26T13:10:25Z</time>
      </trkpt>
      <trkpt lat="44.08247" lon="1.71716">
        <ele>275</ele>
        <time>2011-06-26T13:10:27Z</time>
      </trkpt>
      <trkpt lat="44.08241" lon="1.71704">
        <ele>275</ele>
        <time>2011-06-26T13:10:29Z</time>
      </trkpt>
      <trkpt lat="44.08235" lon="1.71694">
        <ele>274</ele>
        <time>2011-06-26T13:10:31Z</time>
      </trkpt>
      <trkpt lat="44.08229" lon="1.71685">
        <ele>274</ele>
        <time>2011-06-26T13:10:33Z</time>
      </trkpt>
      <trkpt lat="44.08223" lon="1.71677">
        <ele>274</ele>
        <time>2011-06-26T13:10:35Z</time>
      </trkpt>
      <trkpt lat="44.08216" lon="1.71671">
        <ele>274</ele>
        <time>2011-06-26T13:10:37Z</time>
      </trkpt>
      <trkpt lat="44.0821" lon="1.7167">
        <ele>274</ele>
        <time>2011-06-26T13:10:39Z</time>
      </trkpt>
      <trkpt lat="44.082" lon="1.71669">
        <ele>274</ele>
        <time>2011-06-26T13:10:42Z</time>
      </trkpt>
      <trkpt lat="44.08194" lon="1.71668">
        <ele>274</ele>
        <time>2011-06-26T13:10:44Z</time>
      </trkpt>
      <trkpt lat="44.08188" lon="1.71669">
        <ele>274</ele>
        <time>2011-06-26T13:10:46Z</time>
      </trkpt>
      <trkpt lat="44.0818" lon="1.71668">
        <ele>274</ele>
        <time>2011-06-26T13:10:49Z</time>
      </trkpt>
      <trkpt lat="44.08174" lon="1.71666">
        <ele>274</ele>
        <time>2011-06-26T13:10:51Z</time>
      </trkpt>
      <trkpt lat="44.08168" lon="1.71663">
        <ele>274</ele>
        <time>2011-06-26T13:10:53Z</time>
      </trkpt>
      <trkpt lat="44.08163" lon="1.71659">
        <ele>274</ele>
        <time>2011-06-26T13:10:55Z</time>
      </trkpt>
      <trkpt lat="44.08157" lon="1.71656">
        <ele>274</ele>
        <time>2011-06-26T13:10:57Z</time>
      </trkpt>
      <trkpt lat="44.08148" lon="1.71651">
        <ele>274</ele>
        <time>2011-06-26T13:11:00Z</time>
      </trkpt>
      <trkpt lat="44.08139" lon="1.71647">
        <ele>274</ele>
        <time>2011-06-26T13:11:03Z</time>
      </trkpt>
      <trkpt lat="44.08133" lon="1.71647">
        <ele>274</ele>
        <time>2011-06-26T13:11:05Z</time>
      </trkpt>
      <trkpt lat="44.08126" lon="1.71646">
        <ele>274</ele>
        <time>2011-06-26T13:11:07Z</time>
      </trkpt>
      <trkpt lat="44.08119" lon="1.71643">
        <ele>274</ele>
        <time>2011-06-26T13:11:09Z</time>
      </trkpt>
      <trkpt lat="44.08111" lon="1.71636">
        <ele>274</ele>
        <time>2011-06-26T13:11:12Z</time>
      </trkpt>
      <trkpt lat="44.08107" lon="1.71631">
        <ele>274</ele>
        <time>2011-06-26T13:11:14Z</time>
      </trkpt>
      <trkpt lat="44.08103" lon="1.71627">
        <ele>274</ele>
        <time>2011-06-26T13:11:16Z</time>
      </trkpt>
      <trkpt lat="44.081" lon="1.71624">
        <ele>274</ele>
        <time>2011-06-26T13:11:18Z</time>
      </trkpt>
      <trkpt lat="44.08098" lon="1.71621">
        <ele>274</ele>
        <time>2011-06-26T13:11:20Z</time>
      </trkpt>
      <trkpt lat="44.08094" lon="1.71618">
        <ele>274</ele>
        <time>2011-06-26T13:11:23Z</time>
      </trkpt>
      <trkpt lat="44.08091" lon="1.71614">
        <ele>274</ele>
        <time>2011-06-26T13:11:25Z</time>
      </trkpt>
      <trkpt lat="44.08086" lon="1.71608">
        <ele>274</ele>
        <time>2011-06-26T13:11:28Z</time>
      </trkpt>
      <trkpt lat="44.08081" lon="1.71604">
        <ele>274</ele>
        <time>2011-06-26T13:11:30Z</time>
      </trkpt>
      <trkpt lat="44.08074" lon="1.716">
        <ele>274</ele>
        <time>2011-06-26T13:11:32Z</time>
      </trkpt>
      <trkpt lat="44.08065" lon="1.71591">
        <ele>274</ele>
        <time>2011-06-26T13:11:35Z</time>
      </trkpt>
      <trkpt lat="44.08058" lon="1.71585">
        <ele>274</ele>
        <time>2011-06-26T13:11:37Z</time>
      </trkpt>
      <trkpt lat="44.08047" lon="1.71576">
        <ele>274</ele>
        <time>2011-06-26T13:11:40Z</time>
      </trkpt>
      <trkpt lat="44.08039" lon="1.7157">
        <ele>274</ele>
        <time>2011-06-26T13:11:42Z</time>
      </trkpt>
      <trkpt lat="44.08031" lon="1.71563">
        <ele>274</ele>
        <time>2011-06-26T13:11:44Z</time>
      </trkpt>
      <trkpt lat="44.08024" lon="1.71554">
        <ele>274</ele>
        <time>2011-06-26T13:11:46Z</time>
      </trkpt>
      <trkpt lat="44.08017" lon="1.71546">
        <ele>274</ele>
        <time>2011-06-26T13:11:48Z</time>
      </trkpt>
      <trkpt lat="44.0801" lon="1.71537">
        <ele>274</ele>
        <time>2011-06-26T13:11:50Z</time>
      </trkpt>
      <trkpt lat="44.08004" lon="1.7153">
        <ele>274</ele>
        <time>2011-06-26T13:11:52Z</time>
      </trkpt>
      <trkpt lat="44.07996" lon="1.71522">
        <ele>274</ele>
        <time>2011-06-26T13:11:55Z</time>
      </trkpt>
      <trkpt lat="44.07991" lon="1.71516">
        <ele>274</ele>
        <time>2011-06-26T13:11:57Z</time>
      </trkpt>
      <trkpt lat="44.07985" lon="1.71511">
        <ele>274</ele>
        <time>2011-06-26T13:11:59Z</time>
      </trkpt>
      <trkpt lat="44.0798" lon="1.71507">
        <ele>274</ele>
        <time>2011-06-26T13:12:01Z</time>
      </trkpt>
      <trkpt lat="44.07974" lon="1.71504">
        <ele>274</ele>
        <time>2011-06-26T13:12:03Z</time>
      </trkpt>
      <trkpt lat="44.07968" lon="1.71501">
        <ele>274</ele>
        <time>2011-06-26T13:12:05Z</time>
      </trkpt>
      <trkpt lat="44.07961" lon="1.71496">
        <ele>274</ele>
        <time>2011-06-26T13:12:08Z</time>
      </trkpt>
      <trkpt lat="44.07954" lon="1.71491">
        <ele>274</ele>
        <time>2011-06-26T13:12:11Z</time>
      </trkpt>
      <trkpt lat="44.07951" lon="1.71486">
        <ele>274</ele>
        <time>2011-06-26T13:12:13Z</time>
      </trkpt>
      <trkpt lat="44.07946" lon="1.71478">
        <ele>275</ele>
        <time>2011-06-26T13:12:16Z</time>
      </trkpt>
      <trkpt lat="44.07944" lon="1.71473">
        <ele>276</ele>
        <time>2011-06-26T13:12:18Z</time>
      </trkpt>
      <trkpt lat="44.07941" lon="1.71467">
        <ele>277</ele>
        <time>2011-06-26T13:12:20Z</time>
      </trkpt>
      <trkpt lat="44.07938" lon="1.71458">
        <ele>278</ele>
        <time>2011-06-26T13:12:23Z</time>
      </trkpt>
      <trkpt lat="44.07936" lon="1.71453">
        <ele>278</ele>
        <time>2011-06-26T13:12:25Z</time>
      </trkpt>
      <trkpt lat="44.07932" lon="1.71446">
        <ele>279</ele>
        <time>2011-06-26T13:12:28Z</time>
      </trkpt>
      <trkpt lat="44.07928" lon="1.71442">
        <ele>279</ele>
        <time>2011-06-26T13:12:30Z</time>
      </trkpt>
      <trkpt lat="44.07922" lon="1.71438">
        <ele>280</ele>
        <time>2011-06-26T13:12:33Z</time>
      </trkpt>
      <trkpt lat="44.07917" lon="1.71436">
        <ele>280</ele>
        <time>2011-06-26T13:12:35Z</time>
      </trkpt>
      <trkpt lat="44.07912" lon="1.71429">
        <ele>280</ele>
        <time>2011-06-26T13:12:38Z</time>
      </trkpt>
      <trkpt lat="44.07911" lon="1.71423">
        <ele>281</ele>
        <time>2011-06-26T13:12:40Z</time>
      </trkpt>
      <trkpt lat="44.07909" lon="1.71414">
        <ele>281</ele>
        <time>2011-06-26T13:12:43Z</time>
      </trkpt>
      <trkpt lat="44.07906" lon="1.71409">
        <ele>282</ele>
        <time>2011-06-26T13:12:45Z</time>
      </trkpt>
      <trkpt lat="44.07901" lon="1.71403">
        <ele>282</ele>
        <time>2011-06-26T13:12:48Z</time>
      </trkpt>
      <trkpt lat="44.07897" lon="1.71398">
        <ele>283</ele>
        <time>2011-06-26T13:12:50Z</time>
      </trkpt>
      <trkpt lat="44.07891" lon="1.71393">
        <ele>283</ele>
        <time>2011-06-26T13:12:53Z</time>
      </trkpt>
      <trkpt lat="44.07888" lon="1.71388">
        <ele>284</ele>
        <time>2011-06-26T13:12:55Z</time>
      </trkpt>
      <trkpt lat="44.07886" lon="1.7139">
        <ele>285</ele>
        <time>2011-06-26T13:13:04Z</time>
      </trkpt>
      <trkpt lat="44.07885" lon="1.71388">
        <ele>285</ele>
        <time>2011-06-26T13:13:12Z</time>
      </trkpt>
      <trkpt lat="44.07885" lon="1.71386">
        <ele>285</ele>
        <time>2011-06-26T13:13:15Z</time>
      </trkpt>
      <trkpt lat="44.07883" lon="1.71385">
        <ele>285</ele>
        <time>2011-06-26T13:13:17Z</time>
      </trkpt>
      <trkpt lat="44.07882" lon="1.71385">
        <ele>285</ele>
        <time>2011-06-26T13:13:19Z</time>
      </trkpt>
      <trkpt lat="44.07878" lon="1.71389">
        <ele>285</ele>
        <time>2011-06-26T13:13:23Z</time>
      </trkpt>
      <trkpt lat="44.07875" lon="1.71394">
        <ele>285</ele>
        <time>2011-06-26T13:13:26Z</time>
      </trkpt>
      <trkpt lat="44.07871" lon="1.71396">
        <ele>285</ele>
        <time>2011-06-26T13:13:28Z</time>
      </trkpt>
      <trkpt lat="44.07864" lon="1.71394">
        <ele>285</ele>
        <time>2011-06-26T13:13:31Z</time>
      </trkpt>
      <trkpt lat="44.0786" lon="1.7139">
        <ele>285</ele>
        <time>2011-06-26T13:13:33Z</time>
      </trkpt>
      <trkpt lat="44.07857" lon="1.71386">
        <ele>285</ele>
        <time>2011-06-26T13:13:35Z</time>
      </trkpt>
      <trkpt lat="44.07853" lon="1.71383">
        <ele>285</ele>
        <time>2011-06-26T13:13:37Z</time>
      </trkpt>
      <trkpt lat="44.0785" lon="1.71382">
        <ele>285</ele>
        <time>2011-06-26T13:13:39Z</time>
      </trkpt>
      <trkpt lat="44.07845" lon="1.71386">
        <ele>285</ele>
        <time>2011-06-26T13:13:42Z</time>
      </trkpt>
      <trkpt lat="44.07842" lon="1.71385">
        <ele>285</ele>
        <time>2011-06-26T13:13:44Z</time>
      </trkpt>
      <trkpt lat="44.07838" lon="1.71381">
        <ele>285</ele>
        <time>2011-06-26T13:13:46Z</time>
      </trkpt>
      <trkpt lat="44.07835" lon="1.71378">
        <ele>285</ele>
        <time>2011-06-26T13:13:48Z</time>
      </trkpt>
      <trkpt lat="44.07831" lon="1.71373">
        <ele>285</ele>
        <time>2011-06-26T13:13:50Z</time>
      </trkpt>
      <trkpt lat="44.07825" lon="1.71365">
        <ele>285</ele>
        <time>2011-06-26T13:13:53Z</time>
      </trkpt>
      <trkpt lat="44.07822" lon="1.71359">
        <ele>285</ele>
        <time>2011-06-26T13:13:55Z</time>
      </trkpt>
      <trkpt lat="44.07816" lon="1.7135">
        <ele>286</ele>
        <time>2011-06-26T13:13:58Z</time>
      </trkpt>
      <trkpt lat="44.07813" lon="1.71343">
        <ele>286</ele>
        <time>2011-06-26T13:14:00Z</time>
      </trkpt>
      <trkpt lat="44.0781" lon="1.71333">
        <ele>286</ele>
        <time>2011-06-26T13:14:03Z</time>
      </trkpt>
      <trkpt lat="44.0781" lon="1.71326">
        <ele>286</ele>
        <time>2011-06-26T13:14:05Z</time>
      </trkpt>
      <trkpt lat="44.07808" lon="1.71317">
        <ele>287</ele>
        <time>2011-06-26T13:14:08Z</time>
      </trkpt>
      <trkpt lat="44.07804" lon="1.71313">
        <ele>287</ele>
        <time>2011-06-26T13:14:10Z</time>
      </trkpt>
      <trkpt lat="44.07797" lon="1.71307">
        <ele>287</ele>
        <time>2011-06-26T13:14:13Z</time>
      </trkpt>
      <trkpt lat="44.07793" lon="1.71299">
        <ele>287</ele>
        <time>2011-06-26T13:14:15Z</time>
      </trkpt>
      <trkpt lat="44.07791" lon="1.71287">
        <ele>288</ele>
        <time>2011-06-26T13:14:18Z</time>
      </trkpt>
      <trkpt lat="44.07793" lon="1.71279">
        <ele>288</ele>
        <time>2011-06-26T13:14:20Z</time>
      </trkpt>
      <trkpt lat="44.07797" lon="1.7127">
        <ele>288</ele>
        <time>2011-06-26T13:14:23Z</time>
      </trkpt>
      <trkpt lat="44.078" lon="1.71264">
        <ele>289</ele>
        <time>2011-06-26T13:14:25Z</time>
      </trkpt>
      <trkpt lat="44.07803" lon="1.71255">
        <ele>289</ele>
        <time>2011-06-26T13:14:28Z</time>
      </trkpt>
      <trkpt lat="44.07806" lon="1.71249">
        <ele>289</ele>
        <time>2011-06-26T13:14:30Z</time>
      </trkpt>
      <trkpt lat="44.07813" lon="1.71242">
        <ele>289</ele>
        <time>2011-06-26T13:14:33Z</time>
      </trkpt>
      <trkpt lat="44.07817" lon="1.71237">
        <ele>289</ele>
        <time>2011-06-26T13:14:35Z</time>
      </trkpt>
      <trkpt lat="44.07821" lon="1.71231">
        <ele>289</ele>
        <time>2011-06-26T13:14:37Z</time>
      </trkpt>
      <trkpt lat="44.07824" lon="1.71223">
        <ele>289</ele>
        <time>2011-06-26T13:14:39Z</time>
      </trkpt>
      <trkpt lat="44.07822" lon="1.71216">
        <ele>289</ele>
        <time>2011-06-26T13:14:41Z</time>
      </trkpt>
      <trkpt lat="44.0782" lon="1.7121">
        <ele>289</ele>
        <time>2011-06-26T13:14:43Z</time>
      </trkpt>
      <trkpt lat="44.07816" lon="1.71204">
        <ele>290</ele>
        <time>2011-06-26T13:14:45Z</time>
      </trkpt>
      <trkpt lat="44.07811" lon="1.71195">
        <ele>290</ele>
        <time>2011-06-26T13:14:48Z</time>
      </trkpt>
      <trkpt lat="44.07808" lon="1.71189">
        <ele>290</ele>
        <time>2011-06-26T13:14:50Z</time>
      </trkpt>
      <trkpt lat="44.07808" lon="1.71178">
        <ele>291</ele>
        <time>2011-06-26T13:14:53Z</time>
      </trkpt>
      <trkpt lat="44.07806" lon="1.71171">
        <ele>291</ele>
        <time>2011-06-26T13:14:55Z</time>
      </trkpt>
      <trkpt lat="44.07802" lon="1.71162">
        <ele>292</ele>
        <time>2011-06-26T13:14:58Z</time>
      </trkpt>
      <trkpt lat="44.07799" lon="1.71155">
        <ele>293</ele>
        <time>2011-06-26T13:15:00Z</time>
      </trkpt>
      <trkpt lat="44.07796" lon="1.71145">
        <ele>293</ele>
        <time>2011-06-26T13:15:03Z</time>
      </trkpt>
      <trkpt lat="44.07793" lon="1.71138">
        <ele>294</ele>
        <time>2011-06-26T13:15:05Z</time>
      </trkpt>
      <trkpt lat="44.07789" lon="1.71128">
        <ele>294</ele>
        <time>2011-06-26T13:15:08Z</time>
      </trkpt>
      <trkpt lat="44.07786" lon="1.71122">
        <ele>295</ele>
        <time>2011-06-26T13:15:10Z</time>
      </trkpt>
      <trkpt lat="44.07783" lon="1.71113">
        <ele>295</ele>
        <time>2011-06-26T13:15:13Z</time>
      </trkpt>
      <trkpt lat="44.07778" lon="1.71111">
        <ele>295</ele>
        <time>2011-06-26T13:15:15Z</time>
      </trkpt>
      <trkpt lat="44.07773" lon="1.71102">
        <ele>295</ele>
        <time>2011-06-26T13:15:18Z</time>
      </trkpt>
      <trkpt lat="44.07769" lon="1.71096">
        <ele>295</ele>
        <time>2011-06-26T13:15:20Z</time>
      </trkpt>
      <trkpt lat="44.07766" lon="1.71084">
        <ele>295</ele>
        <time>2011-06-26T13:15:23Z</time>
      </trkpt>
      <trkpt lat="44.07766" lon="1.71076">
        <ele>295</ele>
        <time>2011-06-26T13:15:25Z</time>
      </trkpt>
      <trkpt lat="44.07769" lon="1.71064">
        <ele>295</ele>
        <time>2011-06-26T13:15:28Z</time>
      </trkpt>
      <trkpt lat="44.07773" lon="1.71057">
        <ele>295</ele>
        <time>2011-06-26T13:15:30Z</time>
      </trkpt>
      <trkpt lat="44.07776" lon="1.71045">
        <ele>296</ele>
        <time>2011-06-26T13:15:33Z</time>
      </trkpt>
      <trkpt lat="44.07777" lon="1.71036">
        <ele>297</ele>
        <time>2011-06-26T13:15:35Z</time>
      </trkpt>
      <trkpt lat="44.07777" lon="1.71023">
        <ele>297</ele>
        <time>2011-06-26T13:15:38Z</time>
      </trkpt>
      <trkpt lat="44.07775" lon="1.71014">
        <ele>298</ele>
        <time>2011-06-26T13:15:40Z</time>
      </trkpt>
      <trkpt lat="44.07778" lon="1.71002">
        <ele>298</ele>
        <time>2011-06-26T13:15:43Z</time>
      </trkpt>
      <trkpt lat="44.07781" lon="1.70996">
        <ele>298</ele>
        <time>2011-06-26T13:15:45Z</time>
      </trkpt>
      <trkpt lat="44.07784" lon="1.70988">
        <ele>298</ele>
        <time>2011-06-26T13:15:47Z</time>
      </trkpt>
      <trkpt lat="44.07786" lon="1.7098">
        <ele>299</ele>
        <time>2011-06-26T13:15:49Z</time>
      </trkpt>
      <trkpt lat="44.07787" lon="1.70972">
        <ele>299</ele>
        <time>2011-06-26T13:15:51Z</time>
      </trkpt>
      <trkpt lat="44.07787" lon="1.70963">
        <ele>299</ele>
        <time>2011-06-26T13:15:53Z</time>
      </trkpt>
      <trkpt lat="44.07786" lon="1.70956">
        <ele>300</ele>
        <time>2011-06-26T13:15:55Z</time>
      </trkpt>
      <trkpt lat="44.07788" lon="1.70944">
        <ele>300</ele>
        <time>2011-06-26T13:15:58Z</time>
      </trkpt>
      <trkpt lat="44.07787" lon="1.70936">
        <ele>300</ele>
        <time>2011-06-26T13:16:00Z</time>
      </trkpt>
      <trkpt lat="44.07782" lon="1.70927">
        <ele>300</ele>
        <time>2011-06-26T13:16:03Z</time>
      </trkpt>
      <trkpt lat="44.07777" lon="1.70927">
        <ele>300</ele>
        <time>2011-06-26T13:16:05Z</time>
      </trkpt>
      <trkpt lat="44.07771" lon="1.70921">
        <ele>300</ele>
        <time>2011-06-26T13:16:08Z</time>
      </trkpt>
      <trkpt lat="44.07766" lon="1.70915">
        <ele>300</ele>
        <time>2011-06-26T13:16:10Z</time>
      </trkpt>
      <trkpt lat="44.07765" lon="1.70906">
        <ele>300</ele>
        <time>2011-06-26T13:16:12Z</time>
      </trkpt>
      <trkpt lat="44.07766" lon="1.70896">
        <ele>300</ele>
        <time>2011-06-26T13:16:14Z</time>
      </trkpt>
      <trkpt lat="44.07768" lon="1.70887">
        <ele>300</ele>
        <time>2011-06-26T13:16:16Z</time>
      </trkpt>
      <trkpt lat="44.07768" lon="1.70879">
        <ele>300</ele>
        <time>2011-06-26T13:16:18Z</time>
      </trkpt>
      <trkpt lat="44.07769" lon="1.7087">
        <ele>300</ele>
        <time>2011-06-26T13:16:20Z</time>
      </trkpt>
      <trkpt lat="44.07773" lon="1.70856">
        <ele>300</ele>
        <time>2011-06-26T13:16:23Z</time>
      </trkpt>
      <trkpt lat="44.07775" lon="1.70847">
        <ele>300</ele>
        <time>2011-06-26T13:16:25Z</time>
      </trkpt>
      <trkpt lat="44.07777" lon="1.70832">
        <ele>300</ele>
        <time>2011-06-26T13:16:28Z</time>
      </trkpt>
      <trkpt lat="44.0778" lon="1.70825">
        <ele>300</ele>
        <time>2011-06-26T13:16:30Z</time>
      </trkpt>
      <trkpt lat="44.07777" lon="1.70817">
        <ele>300</ele>
        <time>2011-06-26T13:16:33Z</time>
      </trkpt>
      <trkpt lat="44.07772" lon="1.70813">
        <ele>300</ele>
        <time>2011-06-26T13:16:35Z</time>
      </trkpt>
      <trkpt lat="44.07766" lon="1.70801">
        <ele>300</ele>
        <time>2011-06-26T13:16:38Z</time>
      </trkpt>
      <trkpt lat="44.07762" lon="1.70791">
        <ele>300</ele>
        <time>2011-06-26T13:16:40Z</time>
      </trkpt>
      <trkpt lat="44.07761" lon="1.70775">
        <ele>300</ele>
        <time>2011-06-26T13:16:43Z</time>
      </trkpt>
      <trkpt lat="44.0776" lon="1.70764">
        <ele>300</ele>
        <time>2011-06-26T13:16:45Z</time>
      </trkpt>
      <trkpt lat="44.07759" lon="1.70755">
        <ele>299</ele>
        <time>2011-06-26T13:16:47Z</time>
      </trkpt>
      <trkpt lat="44.07758" lon="1.7074">
        <ele>299</ele>
        <time>2011-06-26T13:16:50Z</time>
      </trkpt>
      <trkpt lat="44.07758" lon="1.70724">
        <ele>299</ele>
        <time>2011-06-26T13:16:53Z</time>
      </trkpt>
      <trkpt lat="44.07758" lon="1.70713">
        <ele>299</ele>
        <time>2011-06-26T13:16:55Z</time>
      </trkpt>
      <trkpt lat="44.07759" lon="1.707">
        <ele>299</ele>
        <time>2011-06-26T13:16:58Z</time>
      </trkpt>
      <trkpt lat="44.07759" lon="1.70692">
        <ele>299</ele>
        <time>2011-06-26T13:17:00Z</time>
      </trkpt>
      <trkpt lat="44.07758" lon="1.70678">
        <ele>299</ele>
        <time>2011-06-26T13:17:03Z</time>
      </trkpt>
      <trkpt lat="44.07759" lon="1.7067">
        <ele>299</ele>
        <time>2011-06-26T13:17:05Z</time>
      </trkpt>
      <trkpt lat="44.07758" lon="1.70659">
        <ele>299</ele>
        <time>2011-06-26T13:17:08Z</time>
      </trkpt>
      <trkpt lat="44.07756" lon="1.70651">
        <ele>299</ele>
        <time>2011-06-26T13:17:10Z</time>
      </trkpt>
      <trkpt lat="44.07759" lon="1.70643">
        <ele>298</ele>
        <time>2011-06-26T13:17:12Z</time>
      </trkpt>
      <trkpt lat="44.07761" lon="1.70635">
        <ele>298</ele>
        <time>2011-06-26T13:17:14Z</time>
      </trkpt>
      <trkpt lat="44.07762" lon="1.70626">
        <ele>298</ele>
        <time>2011-06-26T13:17:16Z</time>
      </trkpt>
      <trkpt lat="44.07762" lon="1.70615">
        <ele>298</ele>
        <time>2011-06-26T13:17:18Z</time>
      </trkpt>
      <trkpt lat="44.07764" lon="1.70606">
        <ele>297</ele>
        <time>2011-06-26T13:17:20Z</time>
      </trkpt>
      <trkpt lat="44.07765" lon="1.70598">
        <ele>297</ele>
        <time>2011-06-26T13:17:22Z</time>
      </trkpt>
      <trkpt lat="44.07764" lon="1.70587">
        <ele>296</ele>
        <time>2011-06-26T13:17:24Z</time>
      </trkpt>
      <trkpt lat="44.0776" lon="1.70578">
        <ele>296</ele>
        <time>2011-06-26T13:17:26Z</time>
      </trkpt>
      <trkpt lat="44.07754" lon="1.70572">
        <ele>294</ele>
        <time>2011-06-26T13:17:28Z</time>
      </trkpt>
      <trkpt lat="44.07748" lon="1.70568">
        <ele>294</ele>
        <time>2011-06-26T13:17:30Z</time>
      </trkpt>
      <trkpt lat="44.07744" lon="1.70559">
        <ele>293</ele>
        <time>2011-06-26T13:17:32Z</time>
      </trkpt>
      <trkpt lat="44.0774" lon="1.70548">
        <ele>292</ele>
        <time>2011-06-26T13:17:34Z</time>
      </trkpt>
      <trkpt lat="44.07738" lon="1.70536">
        <ele>290</ele>
        <time>2011-06-26T13:17:36Z</time>
      </trkpt>
      <trkpt lat="44.07737" lon="1.70525">
        <ele>289</ele>
        <time>2011-06-26T13:17:38Z</time>
      </trkpt>
      <trkpt lat="44.07735" lon="1.70515">
        <ele>289</ele>
        <time>2011-06-26T13:17:40Z</time>
      </trkpt>
      <trkpt lat="44.07733" lon="1.70498">
        <ele>287</ele>
        <time>2011-06-26T13:17:43Z</time>
      </trkpt>
      <trkpt lat="44.07735" lon="1.70488">
        <ele>286</ele>
        <time>2011-06-26T13:17:45Z</time>
      </trkpt>
      <trkpt lat="44.07746" lon="1.70482">
        <ele>285</ele>
        <time>2011-06-26T13:17:48Z</time>
      </trkpt>
      <trkpt lat="44.07753" lon="1.7048">
        <ele>284</ele>
        <time>2011-06-26T13:17:50Z</time>
      </trkpt>
      <trkpt lat="44.07759" lon="1.70478">
        <ele>284</ele>
        <time>2011-06-26T13:17:52Z</time>
      </trkpt>
      <trkpt lat="44.07765" lon="1.70475">
        <ele>283</ele>
        <time>2011-06-26T13:17:54Z</time>
      </trkpt>
      <trkpt lat="44.07772" lon="1.70468">
        <ele>282</ele>
        <time>2011-06-26T13:17:56Z</time>
      </trkpt>
      <trkpt lat="44.07779" lon="1.70467">
        <ele>281</ele>
        <time>2011-06-26T13:17:58Z</time>
      </trkpt>
      <trkpt lat="44.07787" lon="1.70473">
        <ele>280</ele>
        <time>2011-06-26T13:18:00Z</time>
      </trkpt>
      <trkpt lat="44.07795" lon="1.70478">
        <ele>279</ele>
        <time>2011-06-26T13:18:02Z</time>
      </trkpt>
      <trkpt lat="44.07805" lon="1.70484">
        <ele>278</ele>
        <time>2011-06-26T13:18:04Z</time>
      </trkpt>
      <trkpt lat="44.07815" lon="1.7049">
        <ele>277</ele>
        <time>2011-06-26T13:18:06Z</time>
      </trkpt>
      <trkpt lat="44.07826" lon="1.70497">
        <ele>276</ele>
        <time>2011-06-26T13:18:08Z</time>
      </trkpt>
      <trkpt lat="44.07837" lon="1.70503">
        <ele>275</ele>
        <time>2011-06-26T13:18:10Z</time>
      </trkpt>
      <trkpt lat="44.07846" lon="1.7051">
        <ele>274</ele>
        <time>2011-06-26T13:18:12Z</time>
      </trkpt>
      <trkpt lat="44.07855" lon="1.70517">
        <ele>273</ele>
        <time>2011-06-26T13:18:14Z</time>
      </trkpt>
      <trkpt lat="44.07862" lon="1.70523">
        <ele>271</ele>
        <time>2011-06-26T13:18:16Z</time>
      </trkpt>
      <trkpt lat="44.07868" lon="1.70528">
        <ele>270</ele>
        <time>2011-06-26T13:18:18Z</time>
      </trkpt>
      <trkpt lat="44.07876" lon="1.70532">
        <ele>269</ele>
        <time>2011-06-26T13:18:20Z</time>
      </trkpt>
      <trkpt lat="44.07884" lon="1.70532">
        <ele>269</ele>
        <time>2011-06-26T13:18:22Z</time>
      </trkpt>
      <trkpt lat="44.07891" lon="1.70531">
        <ele>269</ele>
        <time>2011-06-26T13:18:24Z</time>
      </trkpt>
      <trkpt lat="44.07899" lon="1.70531">
        <ele>268</ele>
        <time>2011-06-26T13:18:26Z</time>
      </trkpt>
      <trkpt lat="44.07907" lon="1.70534">
        <ele>268</ele>
        <time>2011-06-26T13:18:28Z</time>
      </trkpt>
      <trkpt lat="44.07914" lon="1.70539">
        <ele>267</ele>
        <time>2011-06-26T13:18:30Z</time>
      </trkpt>
      <trkpt lat="44.07919" lon="1.70545">
        <ele>266</ele>
        <time>2011-06-26T13:18:32Z</time>
      </trkpt>
      <trkpt lat="44.07924" lon="1.70549">
        <ele>265</ele>
        <time>2011-06-26T13:18:34Z</time>
      </trkpt>
      <trkpt lat="44.07929" lon="1.70553">
        <ele>264</ele>
        <time>2011-06-26T13:18:36Z</time>
      </trkpt>
      <trkpt lat="44.07934" lon="1.70557">
        <ele>264</ele>
        <time>2011-06-26T13:18:38Z</time>
      </trkpt>
      <trkpt lat="44.07939" lon="1.70561">
        <ele>264</ele>
        <time>2011-06-26T13:18:40Z</time>
      </trkpt>
      <trkpt lat="44.07945" lon="1.70565">
        <ele>264</ele>
        <time>2011-06-26T13:18:42Z</time>
      </trkpt>
      <trkpt lat="44.0795" lon="1.70568">
        <ele>264</ele>
        <time>2011-06-26T13:18:44Z</time>
      </trkpt>
      <trkpt lat="44.07956" lon="1.70569">
        <ele>264</ele>
        <time>2011-06-26T13:18:46Z</time>
      </trkpt>
      <trkpt lat="44.07961" lon="1.70567">
        <ele>264</ele>
        <time>2011-06-26T13:18:48Z</time>
      </trkpt>
      <trkpt lat="44.07968" lon="1.70563">
        <ele>264</ele>
        <time>2011-06-26T13:18:50Z</time>
      </trkpt>
      <trkpt lat="44.07975" lon="1.70559">
        <ele>264</ele>
        <time>2011-06-26T13:18:52Z</time>
      </trkpt>
      <trkpt lat="44.07982" lon="1.70553">
        <ele>264</ele>
        <time>2011-06-26T13:18:54Z</time>
      </trkpt>
      <trkpt lat="44.07989" lon="1.70545">
        <ele>264</ele>
        <time>2011-06-26T13:18:56Z</time>
      </trkpt>
      <trkpt lat="44.07994" lon="1.7054">
        <ele>264</ele>
        <time>2011-06-26T13:18:58Z</time>
      </trkpt>
      <trkpt lat="44.07997" lon="1.70537">
        <ele>264</ele>
        <time>2011-06-26T13:19:09Z</time>
      </trkpt>
      <trkpt lat="44.07999" lon="1.70536">
        <ele>264</ele>
        <time>2011-06-26T13:19:11Z</time>
      </trkpt>
      <trkpt lat="44.07997" lon="1.70538">
        <ele>266</ele>
        <time>2011-06-26T13:19:52Z</time>
      </trkpt>
      <trkpt lat="44.07997" lon="1.70539">
        <ele>266</ele>
        <time>2011-06-26T13:19:56Z</time>
      </trkpt>
      <trkpt lat="44.07998" lon="1.70538">
        <ele>266</ele>
        <time>2011-06-26T13:20:02Z</time>
      </trkpt>
      <trkpt lat="44.07999" lon="1.70537">
        <ele>266</ele>
        <time>2011-06-26T13:20:09Z</time>
      </trkpt>
      <trkpt lat="44.08003" lon="1.7054">
        <ele>266</ele>
        <time>2011-06-26T13:20:12Z</time>
      </trkpt>
      <trkpt lat="44.08007" lon="1.70541">
        <ele>266</ele>
        <time>2011-06-26T13:20:14Z</time>
      </trkpt>
      <trkpt lat="44.08014" lon="1.70544">
        <ele>266</ele>
        <time>2011-06-26T13:20:16Z</time>
      </trkpt>
      <trkpt lat="44.08019" lon="1.70546">
        <ele>266</ele>
        <time>2011-06-26T13:20:18Z</time>
      </trkpt>
      <trkpt lat="44.08027" lon="1.70548">
        <ele>266</ele>
        <time>2011-06-26T13:20:20Z</time>
      </trkpt>
      <trkpt lat="44.08033" lon="1.70552">
        <ele>266</ele>
        <time>2011-06-26T13:20:22Z</time>
      </trkpt>
      <trkpt lat="44.08037" lon="1.70557">
        <ele>266</ele>
        <time>2011-06-26T13:20:24Z</time>
      </trkpt>
      <trkpt lat="44.08041" lon="1.70562">
        <ele>266</ele>
        <time>2011-06-26T13:20:26Z</time>
      </trkpt>
      <trkpt lat="44.08045" lon="1.70564">
        <ele>266</ele>
        <time>2011-06-26T13:20:28Z</time>
      </trkpt>
      <trkpt lat="44.0805" lon="1.70566">
        <ele>266</ele>
        <time>2011-06-26T13:20:30Z</time>
      </trkpt>
      <trkpt lat="44.08056" lon="1.70567">
        <ele>266</ele>
        <time>2011-06-26T13:20:32Z</time>
      </trkpt>
      <trkpt lat="44.08061" lon="1.70566">
        <ele>266</ele>
        <time>2011-06-26T13:20:34Z</time>
      </trkpt>
      <trkpt lat="44.08067" lon="1.70569">
        <ele>266</ele>
        <time>2011-06-26T13:20:36Z</time>
      </trkpt>
      <trkpt lat="44.08073" lon="1.70569">
        <ele>266</ele>
        <time>2011-06-26T13:20:38Z</time>
      </trkpt>
      <trkpt lat="44.08078" lon="1.70571">
        <ele>267</ele>
        <time>2011-06-26T13:20:40Z</time>
      </trkpt>
      <trkpt lat="44.08083" lon="1.70574">
        <ele>267</ele>
        <time>2011-06-26T13:20:42Z</time>
      </trkpt>
      <trkpt lat="44.08088" lon="1.70576">
        <ele>268</ele>
        <time>2011-06-26T13:20:44Z</time>
      </trkpt>
      <trkpt lat="44.08095" lon="1.70578">
        <ele>270</ele>
        <time>2011-06-26T13:20:46Z</time>
      </trkpt>
      <trkpt lat="44.081" lon="1.70581">
        <ele>271</ele>
        <time>2011-06-26T13:20:48Z</time>
      </trkpt>
      <trkpt lat="44.08105" lon="1.70584">
        <ele>271</ele>
        <time>2011-06-26T13:20:50Z</time>
      </trkpt>
      <trkpt lat="44.08112" lon="1.70585">
        <ele>272</ele>
        <time>2011-06-26T13:20:52Z</time>
      </trkpt>
      <trkpt lat="44.08118" lon="1.70588">
        <ele>273</ele>
        <time>2011-06-26T13:20:54Z</time>
      </trkpt>
      <trkpt lat="44.08122" lon="1.7059">
        <ele>273</ele>
        <time>2011-06-26T13:20:56Z</time>
      </trkpt>
      <trkpt lat="44.08127" lon="1.70591">
        <ele>274</ele>
        <time>2011-06-26T13:20:58Z</time>
      </trkpt>
      <trkpt lat="44.08132" lon="1.70594">
        <ele>274</ele>
        <time>2011-06-26T13:21:00Z</time>
      </trkpt>
      <trkpt lat="44.08136" lon="1.70596">
        <ele>275</ele>
        <time>2011-06-26T13:21:02Z</time>
      </trkpt>
      <trkpt lat="44.08141" lon="1.70598">
        <ele>276</ele>
        <time>2011-06-26T13:21:04Z</time>
      </trkpt>
      <trkpt lat="44.08145" lon="1.70601">
        <ele>276</ele>
        <time>2011-06-26T13:21:06Z</time>
      </trkpt>
      <trkpt lat="44.08149" lon="1.70605">
        <ele>277</ele>
        <time>2011-06-26T13:21:08Z</time>
      </trkpt>
      <trkpt lat="44.08154" lon="1.70609">
        <ele>277</ele>
        <time>2011-06-26T13:21:10Z</time>
      </trkpt>
      <trkpt lat="44.08158" lon="1.70611">
        <ele>277</ele>
        <time>2011-06-26T13:21:12Z</time>
      </trkpt>
      <trkpt lat="44.08164" lon="1.70614">
        <ele>277</ele>
        <time>2011-06-26T13:21:14Z</time>
      </trkpt>
      <trkpt lat="44.08171" lon="1.70617">
        <ele>277</ele>
        <time>2011-06-26T13:21:17Z</time>
      </trkpt>
      <trkpt lat="44.08177" lon="1.70617">
        <ele>277</ele>
        <time>2011-06-26T13:21:19Z</time>
      </trkpt>
      <trkpt lat="44.08184" lon="1.7062">
        <ele>277</ele>
        <time>2011-06-26T13:21:22Z</time>
      </trkpt>
      <trkpt lat="44.08188" lon="1.7062">
        <ele>278</ele>
        <time>2011-06-26T13:21:24Z</time>
      </trkpt>
      <trkpt lat="44.08193" lon="1.70621">
        <ele>278</ele>
        <time>2011-06-26T13:21:26Z</time>
      </trkpt>
      <trkpt lat="44.08198" lon="1.70623">
        <ele>278</ele>
        <time>2011-06-26T13:21:28Z</time>
      </trkpt>
      <trkpt lat="44.08204" lon="1.70624">
        <ele>279</ele>
        <time>2011-06-26T13:21:30Z</time>
      </trkpt>
      <trkpt lat="44.08208" lon="1.70625">
        <ele>279</ele>
        <time>2011-06-26T13:21:32Z</time>
      </trkpt>
      <trkpt lat="44.08213" lon="1.70626">
        <ele>280</ele>
        <time>2011-06-26T13:21:34Z</time>
      </trkpt>
      <trkpt lat="44.08218" lon="1.70629">
        <ele>280</ele>
        <time>2011-06-26T13:21:36Z</time>
      </trkpt>
      <trkpt lat="44.08223" lon="1.7063">
        <ele>280</ele>
        <time>2011-06-26T13:21:38Z</time>
      </trkpt>
      <trkpt lat="44.08228" lon="1.7063">
        <ele>280</ele>
        <time>2011-06-26T13:21:40Z</time>
      </trkpt>
      <trkpt lat="44.08232" lon="1.70632">
        <ele>281</ele>
        <time>2011-06-26T13:21:42Z</time>
      </trkpt>
      <trkpt lat="44.08237" lon="1.70633">
        <ele>281</ele>
        <time>2011-06-26T13:21:44Z</time>
      </trkpt>
      <trkpt lat="44.08241" lon="1.70637">
        <ele>282</ele>
        <time>2011-06-26T13:21:46Z</time>
      </trkpt>
      <trkpt lat="44.08246" lon="1.7064">
        <ele>283</ele>
        <time>2011-06-26T13:21:48Z</time>
      </trkpt>
      <trkpt lat="44.0825" lon="1.70644">
        <ele>283</ele>
        <time>2011-06-26T13:21:50Z</time>
      </trkpt>
      <trkpt lat="44.08254" lon="1.70645">
        <ele>284</ele>
        <time>2011-06-26T13:21:52Z</time>
      </trkpt>
      <trkpt lat="44.08259" lon="1.70647">
        <ele>284</ele>
        <time>2011-06-26T13:21:54Z</time>
      </trkpt>
      <trkpt lat="44.08265" lon="1.70649">
        <ele>284</ele>
        <time>2011-06-26T13:21:56Z</time>
      </trkpt>
      <trkpt lat="44.08269" lon="1.70653">
        <ele>284</ele>
        <time>2011-06-26T13:21:58Z</time>
      </trkpt>
      <trkpt lat="44.08273" lon="1.70657">
        <ele>284</ele>
        <time>2011-06-26T13:22:00Z</time>
      </trkpt>
      <trkpt lat="44.08278" lon="1.70662">
        <ele>284</ele>
        <time>2011-06-26T13:22:02Z</time>
      </trkpt>
      <trkpt lat="44.08281" lon="1.70666">
        <ele>284</ele>
        <time>2011-06-26T13:22:04Z</time>
      </trkpt>
      <trkpt lat="44.08284" lon="1.70671">
        <ele>284</ele>
        <time>2011-06-26T13:22:06Z</time>
      </trkpt>
      <trkpt lat="44.08289" lon="1.70674">
        <ele>284</ele>
        <time>2011-06-26T13:22:08Z</time>
      </trkpt>
      <trkpt lat="44.08292" lon="1.70679">
        <ele>284</ele>
        <time>2011-06-26T13:22:10Z</time>
      </trkpt>
      <trkpt lat="44.08293" lon="1.70685">
        <ele>284</ele>
        <time>2011-06-26T13:22:12Z</time>
      </trkpt>
      <trkpt lat="44.08294" lon="1.70692">
        <ele>284</ele>
        <time>2011-06-26T13:22:14Z</time>
      </trkpt>
      <trkpt lat="44.08297" lon="1.70696">
        <ele>284</ele>
        <time>2011-06-26T13:22:16Z</time>
      </trkpt>
      <trkpt lat="44.08301" lon="1.707">
        <ele>284</ele>
        <time>2011-06-26T13:22:18Z</time>
      </trkpt>
      <trkpt lat="44.08304" lon="1.70706">
        <ele>284</ele>
        <time>2011-06-26T13:22:20Z</time>
      </trkpt>
      <trkpt lat="44.08307" lon="1.70713">
        <ele>284</ele>
        <time>2011-06-26T13:22:22Z</time>
      </trkpt>
      <trkpt lat="44.0831" lon="1.70718">
        <ele>285</ele>
        <time>2011-06-26T13:22:24Z</time>
      </trkpt>
      <trkpt lat="44.08316" lon="1.7072">
        <ele>285</ele>
        <time>2011-06-26T13:22:26Z</time>
      </trkpt>
      <trkpt lat="44.0832" lon="1.70722">
        <ele>286</ele>
        <time>2011-06-26T13:22:28Z</time>
      </trkpt>
      <trkpt lat="44.08325" lon="1.70725">
        <ele>287</ele>
        <time>2011-06-26T13:22:30Z</time>
      </trkpt>
      <trkpt lat="44.0833" lon="1.70728">
        <ele>287</ele>
        <time>2011-06-26T13:22:32Z</time>
      </trkpt>
      <trkpt lat="44.08335" lon="1.7073">
        <ele>288</ele>
        <time>2011-06-26T13:22:34Z</time>
      </trkpt>
      <trkpt lat="44.08339" lon="1.70735">
        <ele>288</ele>
        <time>2011-06-26T13:22:36Z</time>
      </trkpt>
      <trkpt lat="44.08344" lon="1.70739">
        <ele>289</ele>
        <time>2011-06-26T13:22:38Z</time>
      </trkpt>
      <trkpt lat="44.08348" lon="1.70744">
        <ele>289</ele>
        <time>2011-06-26T13:22:40Z</time>
      </trkpt>
      <trkpt lat="44.08352" lon="1.7075">
        <ele>290</ele>
        <time>2011-06-26T13:22:42Z</time>
      </trkpt>
      <trkpt lat="44.08358" lon="1.70755">
        <ele>290</ele>
        <time>2011-06-26T13:22:44Z</time>
      </trkpt>
      <trkpt lat="44.08363" lon="1.70758">
        <ele>290</ele>
        <time>2011-06-26T13:22:46Z</time>
      </trkpt>
      <trkpt lat="44.08369" lon="1.70761">
        <ele>290</ele>
        <time>2011-06-26T13:22:48Z</time>
      </trkpt>
      <trkpt lat="44.08373" lon="1.7076">
        <ele>290</ele>
        <time>2011-06-26T13:22:50Z</time>
      </trkpt>
      <trkpt lat="44.08374" lon="1.70755">
        <ele>290</ele>
        <time>2011-06-26T13:22:52Z</time>
      </trkpt>
      <trkpt lat="44.08377" lon="1.70749">
        <ele>290</ele>
        <time>2011-06-26T13:22:54Z</time>
      </trkpt>
      <trkpt lat="44.08379" lon="1.70743">
        <ele>290</ele>
        <time>2011-06-26T13:22:56Z</time>
      </trkpt>
      <trkpt lat="44.08381" lon="1.70735">
        <ele>290</ele>
        <time>2011-06-26T13:22:58Z</time>
      </trkpt>
      <trkpt lat="44.08382" lon="1.70729">
        <ele>290</ele>
        <time>2011-06-26T13:23:00Z</time>
      </trkpt>
      <trkpt lat="44.08382" lon="1.70721">
        <ele>290</ele>
        <time>2011-06-26T13:23:02Z</time>
      </trkpt>
      <trkpt lat="44.08379" lon="1.70713">
        <ele>290</ele>
        <time>2011-06-26T13:23:04Z</time>
      </trkpt>
      <trkpt lat="44.08379" lon="1.70705">
        <ele>291</ele>
        <time>2011-06-26T13:23:06Z</time>
      </trkpt>
      <trkpt lat="44.08378" lon="1.70697">
        <ele>291</ele>
        <time>2011-06-26T13:23:08Z</time>
      </trkpt>
      <trkpt lat="44.08377" lon="1.70689">
        <ele>291</ele>
        <time>2011-06-26T13:23:10Z</time>
      </trkpt>
      <trkpt lat="44.08378" lon="1.70679">
        <ele>291</ele>
        <time>2011-06-26T13:23:12Z</time>
      </trkpt>
      <trkpt lat="44.08377" lon="1.70671">
        <ele>291</ele>
        <time>2011-06-26T13:23:14Z</time>
      </trkpt>
      <trkpt lat="44.08374" lon="1.70661">
        <ele>291</ele>
        <time>2011-06-26T13:23:16Z</time>
      </trkpt>
      <trkpt lat="44.08373" lon="1.70652">
        <ele>291</ele>
        <time>2011-06-26T13:23:18Z</time>
      </trkpt>
      <trkpt lat="44.08371" lon="1.70643">
        <ele>291</ele>
        <time>2011-06-26T13:23:20Z</time>
      </trkpt>
      <trkpt lat="44.08371" lon="1.70634">
        <ele>291</ele>
        <time>2011-06-26T13:23:22Z</time>
      </trkpt>
      <trkpt lat="44.0837" lon="1.70624">
        <ele>292</ele>
        <time>2011-06-26T13:23:24Z</time>
      </trkpt>
      <trkpt lat="44.08369" lon="1.70615">
        <ele>292</ele>
        <time>2011-06-26T13:23:26Z</time>
      </trkpt>
      <trkpt lat="44.08368" lon="1.70605">
        <ele>292</ele>
        <time>2011-06-26T13:23:28Z</time>
      </trkpt>
      <trkpt lat="44.08368" lon="1.70594">
        <ele>292</ele>
        <time>2011-06-26T13:23:30Z</time>
      </trkpt>
      <trkpt lat="44.08369" lon="1.70583">
        <ele>292</ele>
        <time>2011-06-26T13:23:32Z</time>
      </trkpt>
      <trkpt lat="44.08369" lon="1.70572">
        <ele>292</ele>
        <time>2011-06-26T13:23:34Z</time>
      </trkpt>
      <trkpt lat="44.08369" lon="1.70561">
        <ele>292</ele>
        <time>2011-06-26T13:23:36Z</time>
      </trkpt>
      <trkpt lat="44.08369" lon="1.7055">
        <ele>292</ele>
        <time>2011-06-26T13:23:38Z</time>
      </trkpt>
      <trkpt lat="44.08369" lon="1.70539">
        <ele>292</ele>
        <time>2011-06-26T13:23:40Z</time>
      </trkpt>
      <trkpt lat="44.08369" lon="1.70527">
        <ele>292</ele>
        <time>2011-06-26T13:23:42Z</time>
      </trkpt>
      <trkpt lat="44.08368" lon="1.70515">
        <ele>292</ele>
        <time>2011-06-26T13:23:44Z</time>
      </trkpt>
      <trkpt lat="44.0837" lon="1.70502">
        <ele>292</ele>
        <time>2011-06-26T13:23:46Z</time>
      </trkpt>
      <trkpt lat="44.08373" lon="1.70489">
        <ele>292</ele>
        <time>2011-06-26T13:23:48Z</time>
      </trkpt>
      <trkpt lat="44.08374" lon="1.70475">
        <ele>292</ele>
        <time>2011-06-26T13:23:50Z</time>
      </trkpt>
      <trkpt lat="44.08374" lon="1.7046">
        <ele>292</ele>
        <time>2011-06-26T13:23:52Z</time>
      </trkpt>
      <trkpt lat="44.08374" lon="1.70446">
        <ele>292</ele>
        <time>2011-06-26T13:23:54Z</time>
      </trkpt>
      <trkpt lat="44.08375" lon="1.70431">
        <ele>292</ele>
        <time>2011-06-26T13:23:56Z</time>
      </trkpt>
      <trkpt lat="44.08376" lon="1.70417">
        <ele>292</ele>
        <time>2011-06-26T13:23:58Z</time>
      </trkpt>
      <trkpt lat="44.08376" lon="1.70403">
        <ele>292</ele>
        <time>2011-06-26T13:24:00Z</time>
      </trkpt>
      <trkpt lat="44.08376" lon="1.70388">
        <ele>292</ele>
        <time>2011-06-26T13:24:02Z</time>
      </trkpt>
      <trkpt lat="44.08376" lon="1.70373">
        <ele>292</ele>
        <time>2011-06-26T13:24:04Z</time>
      </trkpt>
      <trkpt lat="44.08375" lon="1.70357">
        <ele>292</ele>
        <time>2011-06-26T13:24:06Z</time>
      </trkpt>
      <trkpt lat="44.08374" lon="1.70341">
        <ele>292</ele>
        <time>2011-06-26T13:24:08Z</time>
      </trkpt>
      <trkpt lat="44.08375" lon="1.70322">
        <ele>291</ele>
        <time>2011-06-26T13:24:10Z</time>
      </trkpt>
      <trkpt lat="44.08377" lon="1.70302">
        <ele>291</ele>
        <time>2011-06-26T13:24:12Z</time>
      </trkpt>
      <trkpt lat="44.08379" lon="1.70282">
        <ele>290</ele>
        <time>2011-06-26T13:24:14Z</time>
      </trkpt>
      <trkpt lat="44.08381" lon="1.7026">
        <ele>289</ele>
        <time>2011-06-26T13:24:16Z</time>
      </trkpt>
      <trkpt lat="44.08381" lon="1.7024">
        <ele>288</ele>
        <time>2011-06-26T13:24:18Z</time>
      </trkpt>
      <trkpt lat="44.08383" lon="1.70222">
        <ele>286</ele>
        <time>2011-06-26T13:24:20Z</time>
      </trkpt>
      <trkpt lat="44.08384" lon="1.70205">
        <ele>285</ele>
        <time>2011-06-26T13:24:22Z</time>
      </trkpt>
      <trkpt lat="44.08384" lon="1.70189">
        <ele>284</ele>
        <time>2011-06-26T13:24:24Z</time>
      </trkpt>
      <trkpt lat="44.08384" lon="1.70173">
        <ele>282</ele>
        <time>2011-06-26T13:24:26Z</time>
      </trkpt>
      <trkpt lat="44.08383" lon="1.70158">
        <ele>281</ele>
        <time>2011-06-26T13:24:28Z</time>
      </trkpt>
      <trkpt lat="44.08381" lon="1.70145">
        <ele>279</ele>
        <time>2011-06-26T13:24:30Z</time>
      </trkpt>
      <trkpt lat="44.08378" lon="1.70131">
        <ele>277</ele>
        <time>2011-06-26T13:24:32Z</time>
      </trkpt>
      <trkpt lat="44.08375" lon="1.70115">
        <ele>275</ele>
        <time>2011-06-26T13:24:34Z</time>
      </trkpt>
      <trkpt lat="44.08372" lon="1.70102">
        <ele>273</ele>
        <time>2011-06-26T13:24:36Z</time>
      </trkpt>
      <trkpt lat="44.08369" lon="1.70089">
        <ele>271</ele>
        <time>2011-06-26T13:24:38Z</time>
      </trkpt>
      <trkpt lat="44.08367" lon="1.70077">
        <ele>269</ele>
        <time>2011-06-26T13:24:40Z</time>
      </trkpt>
      <trkpt lat="44.08363" lon="1.70064">
        <ele>267</ele>
        <time>2011-06-26T13:24:42Z</time>
      </trkpt>
      <trkpt lat="44.0836" lon="1.70051">
        <ele>265</ele>
        <time>2011-06-26T13:24:44Z</time>
      </trkpt>
      <trkpt lat="44.08355" lon="1.70037">
        <ele>263</ele>
        <time>2011-06-26T13:24:46Z</time>
      </trkpt>
      <trkpt lat="44.08351" lon="1.70022">
        <ele>262</ele>
        <time>2011-06-26T13:24:48Z</time>
      </trkpt>
      <trkpt lat="44.08345" lon="1.7001">
        <ele>260</ele>
        <time>2011-06-26T13:24:50Z</time>
      </trkpt>
      <trkpt lat="44.0834" lon="1.69999">
        <ele>259</ele>
        <time>2011-06-26T13:24:52Z</time>
      </trkpt>
      <trkpt lat="44.08337" lon="1.69986">
        <ele>258</ele>
        <time>2011-06-26T13:24:54Z</time>
      </trkpt>
      <trkpt lat="44.08335" lon="1.69971">
        <ele>257</ele>
        <time>2011-06-26T13:24:56Z</time>
      </trkpt>
      <trkpt lat="44.08334" lon="1.69956">
        <ele>256</ele>
        <time>2011-06-26T13:24:58Z</time>
      </trkpt>
      <trkpt lat="44.08332" lon="1.69943">
        <ele>254</ele>
        <time>2011-06-26T13:25:00Z</time>
      </trkpt>
      <trkpt lat="44.0833" lon="1.6993">
        <ele>253</ele>
        <time>2011-06-26T13:25:02Z</time>
      </trkpt>
      <trkpt lat="44.08328" lon="1.69917">
        <ele>252</ele>
        <time>2011-06-26T13:25:04Z</time>
      </trkpt>
      <trkpt lat="44.08327" lon="1.69905">
        <ele>251</ele>
        <time>2011-06-26T13:25:06Z</time>
      </trkpt>
      <trkpt lat="44.08329" lon="1.69893">
        <ele>250</ele>
        <time>2011-06-26T13:25:08Z</time>
      </trkpt>
      <trkpt lat="44.08332" lon="1.69883">
        <ele>249</ele>
        <time>2011-06-26T13:25:10Z</time>
      </trkpt>
      <trkpt lat="44.08333" lon="1.6988">
        <ele>248</ele>
        <time>2011-06-26T13:25:12Z</time>
      </trkpt>
      <trkpt lat="44.08334" lon="1.69874">
        <ele>247</ele>
        <time>2011-06-26T13:25:14Z</time>
      </trkpt>
      <trkpt lat="44.08334" lon="1.69865">
        <ele>246</ele>
        <time>2011-06-26T13:25:16Z</time>
      </trkpt>
      <trkpt lat="44.08334" lon="1.69855">
        <ele>245</ele>
        <time>2011-06-26T13:25:18Z</time>
      </trkpt>
      <trkpt lat="44.08334" lon="1.69846">
        <ele>245</ele>
        <time>2011-06-26T13:25:20Z</time>
      </trkpt>
      <trkpt lat="44.08335" lon="1.69835">
        <ele>245</ele>
        <time>2011-06-26T13:25:22Z</time>
      </trkpt>
      <trkpt lat="44.08335" lon="1.69826">
        <ele>245</ele>
        <time>2011-06-26T13:25:24Z</time>
      </trkpt>
      <trkpt lat="44.08334" lon="1.69818">
        <ele>245</ele>
        <time>2011-06-26T13:25:26Z</time>
      </trkpt>
      <trkpt lat="44.08332" lon="1.69812">
        <ele>245</ele>
        <time>2011-06-26T13:25:28Z</time>
      </trkpt>
      <trkpt lat="44.08332" lon="1.69805">
        <ele>245</ele>
        <time>2011-06-26T13:25:30Z</time>
      </trkpt>
      <trkpt lat="44.08331" lon="1.69798">
        <ele>245</ele>
        <time>2011-06-26T13:25:32Z</time>
      </trkpt>
      <trkpt lat="44.0833" lon="1.69792">
        <ele>245</ele>
        <time>2011-06-26T13:25:34Z</time>
      </trkpt>
      <trkpt lat="44.0833" lon="1.69785">
        <ele>245</ele>
        <time>2011-06-26T13:25:36Z</time>
      </trkpt>
      <trkpt lat="44.08332" lon="1.69779">
        <ele>245</ele>
        <time>2011-06-26T13:25:38Z</time>
      </trkpt>
      <trkpt lat="44.08335" lon="1.69772">
        <ele>245</ele>
        <time>2011-06-26T13:25:40Z</time>
      </trkpt>
      <trkpt lat="44.08337" lon="1.69765">
        <ele>245</ele>
        <time>2011-06-26T13:25:42Z</time>
      </trkpt>
      <trkpt lat="44.08339" lon="1.69758">
        <ele>246</ele>
        <time>2011-06-26T13:25:44Z</time>
      </trkpt>
      <trkpt lat="44.0834" lon="1.69751">
        <ele>246</ele>
        <time>2011-06-26T13:25:46Z</time>
      </trkpt>
      <trkpt lat="44.08342" lon="1.69743">
        <ele>247</ele>
        <time>2011-06-26T13:25:48Z</time>
      </trkpt>
      <trkpt lat="44.08343" lon="1.69736">
        <ele>247</ele>
        <time>2011-06-26T13:25:50Z</time>
      </trkpt>
      <trkpt lat="44.08346" lon="1.69729">
        <ele>248</ele>
        <time>2011-06-26T13:25:52Z</time>
      </trkpt>
      <trkpt lat="44.08348" lon="1.69722">
        <ele>248</ele>
        <time>2011-06-26T13:25:54Z</time>
      </trkpt>
      <trkpt lat="44.08351" lon="1.69716">
        <ele>249</ele>
        <time>2011-06-26T13:25:56Z</time>
      </trkpt>
      <trkpt lat="44.08355" lon="1.69709">
        <ele>249</ele>
        <time>2011-06-26T13:25:58Z</time>
      </trkpt>
      <trkpt lat="44.08359" lon="1.69703">
        <ele>250</ele>
        <time>2011-06-26T13:26:00Z</time>
      </trkpt>
      <trkpt lat="44.08363" lon="1.69696">
        <ele>250</ele>
        <time>2011-06-26T13:26:02Z</time>
      </trkpt>
      <trkpt lat="44.08368" lon="1.6969">
        <ele>250</ele>
        <time>2011-06-26T13:26:04Z</time>
      </trkpt>
      <trkpt lat="44.08372" lon="1.69682">
        <ele>250</ele>
        <time>2011-06-26T13:26:06Z</time>
      </trkpt>
      <trkpt lat="44.08376" lon="1.69675">
        <ele>250</ele>
        <time>2011-06-26T13:26:08Z</time>
      </trkpt>
      <trkpt lat="44.0838" lon="1.69668">
        <ele>251</ele>
        <time>2011-06-26T13:26:10Z</time>
      </trkpt>
      <trkpt lat="44.08383" lon="1.6966">
        <ele>251</ele>
        <time>2011-06-26T13:26:12Z</time>
      </trkpt>
      <trkpt lat="44.08386" lon="1.69652">
        <ele>251</ele>
        <time>2011-06-26T13:26:14Z</time>
      </trkpt>
      <trkpt lat="44.08389" lon="1.69644">
        <ele>251</ele>
        <time>2011-06-26T13:26:16Z</time>
      </trkpt>
      <trkpt lat="44.08392" lon="1.69636">
        <ele>252</ele>
        <time>2011-06-26T13:26:18Z</time>
      </trkpt>
      <trkpt lat="44.08396" lon="1.69627">
        <ele>252</ele>
        <time>2011-06-26T13:26:20Z</time>
      </trkpt>
      <trkpt lat="44.084" lon="1.69618">
        <ele>252</ele>
        <time>2011-06-26T13:26:22Z</time>
      </trkpt>
      <trkpt lat="44.08404" lon="1.69609">
        <ele>252</ele>
        <time>2011-06-26T13:26:24Z</time>
      </trkpt>
      <trkpt lat="44.0841" lon="1.69601">
        <ele>252</ele>
        <time>2011-06-26T13:26:26Z</time>
      </trkpt>
      <trkpt lat="44.08415" lon="1.69594">
        <ele>252</ele>
        <time>2011-06-26T13:26:28Z</time>
      </trkpt>
      <trkpt lat="44.0842" lon="1.69587">
        <ele>252</ele>
        <time>2011-06-26T13:26:30Z</time>
      </trkpt>
      <trkpt lat="44.08424" lon="1.6958">
        <ele>252</ele>
        <time>2011-06-26T13:26:32Z</time>
      </trkpt>
      <trkpt lat="44.08428" lon="1.69574">
        <ele>253</ele>
        <time>2011-06-26T13:26:34Z</time>
      </trkpt>
      <trkpt lat="44.08432" lon="1.69567">
        <ele>253</ele>
        <time>2011-06-26T13:26:36Z</time>
      </trkpt>
      <trkpt lat="44.08437" lon="1.69562">
        <ele>254</ele>
        <time>2011-06-26T13:26:38Z</time>
      </trkpt>
      <trkpt lat="44.08442" lon="1.69557">
        <ele>254</ele>
        <time>2011-06-26T13:26:40Z</time>
      </trkpt>
      <trkpt lat="44.08446" lon="1.69551">
        <ele>255</ele>
        <time>2011-06-26T13:26:42Z</time>
      </trkpt>
      <trkpt lat="44.0845" lon="1.69546">
        <ele>256</ele>
        <time>2011-06-26T13:26:44Z</time>
      </trkpt>
      <trkpt lat="44.08453" lon="1.6954">
        <ele>256</ele>
        <time>2011-06-26T13:26:46Z</time>
      </trkpt>
      <trkpt lat="44.08454" lon="1.69534">
        <ele>257</ele>
        <time>2011-06-26T13:26:48Z</time>
      </trkpt>
      <trkpt lat="44.08453" lon="1.69527">
        <ele>257</ele>
        <time>2011-06-26T13:26:50Z</time>
      </trkpt>
      <trkpt lat="44.08449" lon="1.6952">
        <ele>258</ele>
        <time>2011-06-26T13:26:52Z</time>
      </trkpt>
      <trkpt lat="44.08444" lon="1.69513">
        <ele>258</ele>
        <time>2011-06-26T13:26:54Z</time>
      </trkpt>
      <trkpt lat="44.08438" lon="1.69506">
        <ele>258</ele>
        <time>2011-06-26T13:26:56Z</time>
      </trkpt>
      <trkpt lat="44.08433" lon="1.69499">
        <ele>259</ele>
        <time>2011-06-26T13:26:58Z</time>
      </trkpt>
      <trkpt lat="44.08427" lon="1.69492">
        <ele>259</ele>
        <time>2011-06-26T13:27:00Z</time>
      </trkpt>
      <trkpt lat="44.08423" lon="1.69485">
        <ele>260</ele>
        <time>2011-06-26T13:27:02Z</time>
      </trkpt>
      <trkpt lat="44.08419" lon="1.69477">
        <ele>260</ele>
        <time>2011-06-26T13:27:04Z</time>
      </trkpt>
      <trkpt lat="44.08416" lon="1.69469">
        <ele>260</ele>
        <time>2011-06-26T13:27:06Z</time>
      </trkpt>
      <trkpt lat="44.08413" lon="1.6946">
        <ele>261</ele>
        <time>2011-06-26T13:27:08Z</time>
      </trkpt>
      <trkpt lat="44.08411" lon="1.69453">
        <ele>261</ele>
        <time>2011-06-26T13:27:10Z</time>
      </trkpt>
      <trkpt lat="44.08408" lon="1.69444">
        <ele>262</ele>
        <time>2011-06-26T13:27:12Z</time>
      </trkpt>
      <trkpt lat="44.08404" lon="1.69437">
        <ele>262</ele>
        <time>2011-06-26T13:27:14Z</time>
      </trkpt>
      <trkpt lat="44.08401" lon="1.69429">
        <ele>263</ele>
        <time>2011-06-26T13:27:16Z</time>
      </trkpt>
      <trkpt lat="44.08397" lon="1.69422">
        <ele>263</ele>
        <time>2011-06-26T13:27:18Z</time>
      </trkpt>
      <trkpt lat="44.08393" lon="1.69414">
        <ele>263</ele>
        <time>2011-06-26T13:27:20Z</time>
      </trkpt>
      <trkpt lat="44.08389" lon="1.69407">
        <ele>264</ele>
        <time>2011-06-26T13:27:22Z</time>
      </trkpt>
      <trkpt lat="44.08384" lon="1.694">
        <ele>264</ele>
        <time>2011-06-26T13:27:24Z</time>
      </trkpt>
      <trkpt lat="44.0838" lon="1.69394">
        <ele>264</ele>
        <time>2011-06-26T13:27:26Z</time>
      </trkpt>
      <trkpt lat="44.08376" lon="1.69386">
        <ele>264</ele>
        <time>2011-06-26T13:27:28Z</time>
      </trkpt>
      <trkpt lat="44.08372" lon="1.6938">
        <ele>265</ele>
        <time>2011-06-26T13:27:30Z</time>
      </trkpt>
      <trkpt lat="44.08368" lon="1.69373">
        <ele>265</ele>
        <time>2011-06-26T13:27:32Z</time>
      </trkpt>
      <trkpt lat="44.08366" lon="1.69365">
        <ele>266</ele>
        <time>2011-06-26T13:27:34Z</time>
      </trkpt>
      <trkpt lat="44.08365" lon="1.69357">
        <ele>266</ele>
        <time>2011-06-26T13:27:36Z</time>
      </trkpt>
      <trkpt lat="44.08366" lon="1.69348">
        <ele>266</ele>
        <time>2011-06-26T13:27:38Z</time>
      </trkpt>
      <trkpt lat="44.08368" lon="1.69339">
        <ele>266</ele>
        <time>2011-06-26T13:27:40Z</time>
      </trkpt>
      <trkpt lat="44.08369" lon="1.69329">
        <ele>266</ele>
        <time>2011-06-26T13:27:42Z</time>
      </trkpt>
      <trkpt lat="44.0837" lon="1.69319">
        <ele>266</ele>
        <time>2011-06-26T13:27:44Z</time>
      </trkpt>
      <trkpt lat="44.08371" lon="1.69309">
        <ele>266</ele>
        <time>2011-06-26T13:27:46Z</time>
      </trkpt>
      <trkpt lat="44.08371" lon="1.69299">
        <ele>266</ele>
        <time>2011-06-26T13:27:48Z</time>
      </trkpt>
      <trkpt lat="44.08373" lon="1.69289">
        <ele>266</ele>
        <time>2011-06-26T13:27:50Z</time>
      </trkpt>
      <trkpt lat="44.08375" lon="1.69279">
        <ele>266</ele>
        <time>2011-06-26T13:27:52Z</time>
      </trkpt>
      <trkpt lat="44.08377" lon="1.69268">
        <ele>266</ele>
        <time>2011-06-26T13:27:54Z</time>
      </trkpt>
      <trkpt lat="44.08378" lon="1.69256">
        <ele>266</ele>
        <time>2011-06-26T13:27:56Z</time>
      </trkpt>
      <trkpt lat="44.0838" lon="1.69244">
        <ele>266</ele>
        <time>2011-06-26T13:27:58Z</time>
      </trkpt>
      <trkpt lat="44.08382" lon="1.69232">
        <ele>266</ele>
        <time>2011-06-26T13:28:00Z</time>
      </trkpt>
      <trkpt lat="44.08385" lon="1.69219">
        <ele>266</ele>
        <time>2011-06-26T13:28:02Z</time>
      </trkpt>
      <trkpt lat="44.08388" lon="1.69207">
        <ele>266</ele>
        <time>2011-06-26T13:28:04Z</time>
      </trkpt>
      <trkpt lat="44.08391" lon="1.69193">
        <ele>266</ele>
        <time>2011-06-26T13:28:06Z</time>
      </trkpt>
      <trkpt lat="44.08393" lon="1.6918">
        <ele>266</ele>
        <time>2011-06-26T13:28:08Z</time>
      </trkpt>
      <trkpt lat="44.08396" lon="1.69166">
        <ele>266</ele>
        <time>2011-06-26T13:28:10Z</time>
      </trkpt>
      <trkpt lat="44.08397" lon="1.69152">
        <ele>266</ele>
        <time>2011-06-26T13:28:12Z</time>
      </trkpt>
      <trkpt lat="44.08398" lon="1.69138">
        <ele>266</ele>
        <time>2011-06-26T13:28:14Z</time>
      </trkpt>
      <trkpt lat="44.08398" lon="1.69123">
        <ele>266</ele>
        <time>2011-06-26T13:28:16Z</time>
      </trkpt>
      <trkpt lat="44.08397" lon="1.69108">
        <ele>266</ele>
        <time>2011-06-26T13:28:18Z</time>
      </trkpt>
      <trkpt lat="44.08396" lon="1.69093">
        <ele>266</ele>
        <time>2011-06-26T13:28:20Z</time>
      </trkpt>
      <trkpt lat="44.084" lon="1.69076">
        <ele>266</ele>
        <time>2011-06-26T13:28:22Z</time>
      </trkpt>
      <trkpt lat="44.08404" lon="1.69061">
        <ele>265</ele>
        <time>2011-06-26T13:28:24Z</time>
      </trkpt>
      <trkpt lat="44.08408" lon="1.69046">
        <ele>265</ele>
        <time>2011-06-26T13:28:26Z</time>
      </trkpt>
      <trkpt lat="44.0841" lon="1.69033">
        <ele>265</ele>
        <time>2011-06-26T13:28:28Z</time>
      </trkpt>
      <trkpt lat="44.08412" lon="1.69022">
        <ele>265</ele>
        <time>2011-06-26T13:28:30Z</time>
      </trkpt>
      <trkpt lat="44.08414" lon="1.69013">
        <ele>265</ele>
        <time>2011-06-26T13:28:32Z</time>
      </trkpt>
      <trkpt lat="44.08416" lon="1.69007">
        <ele>265</ele>
        <time>2011-06-26T13:28:34Z</time>
      </trkpt>
      <trkpt lat="44.08418" lon="1.69">
        <ele>265</ele>
        <time>2011-06-26T13:28:36Z</time>
      </trkpt>
      <trkpt lat="44.0842" lon="1.68992">
        <ele>265</ele>
        <time>2011-06-26T13:28:38Z</time>
      </trkpt>
      <trkpt lat="44.08418" lon="1.68983">
        <ele>265</ele>
        <time>2011-06-26T13:28:40Z</time>
      </trkpt>
      <trkpt lat="44.08411" lon="1.68977">
        <ele>265</ele>
        <time>2011-06-26T13:28:42Z</time>
      </trkpt>
      <trkpt lat="44.08404" lon="1.6897">
        <ele>265</ele>
        <time>2011-06-26T13:28:44Z</time>
      </trkpt>
      <trkpt lat="44.08396" lon="1.68964">
        <ele>265</ele>
        <time>2011-06-26T13:28:46Z</time>
      </trkpt>
      <trkpt lat="44.08388" lon="1.68957">
        <ele>265</ele>
        <time>2011-06-26T13:28:48Z</time>
      </trkpt>
      <trkpt lat="44.08379" lon="1.68951">
        <ele>265</ele>
        <time>2011-06-26T13:28:50Z</time>
      </trkpt>
      <trkpt lat="44.0837" lon="1.68945">
        <ele>265</ele>
        <time>2011-06-26T13:28:52Z</time>
      </trkpt>
      <trkpt lat="44.08361" lon="1.6894">
        <ele>265</ele>
        <time>2011-06-26T13:28:54Z</time>
      </trkpt>
      <trkpt lat="44.08351" lon="1.68935">
        <ele>265</ele>
        <time>2011-06-26T13:28:56Z</time>
      </trkpt>
      <trkpt lat="44.0834" lon="1.6893">
        <ele>264</ele>
        <time>2011-06-26T13:28:58Z</time>
      </trkpt>
      <trkpt lat="44.0833" lon="1.68924">
        <ele>264</ele>
        <time>2011-06-26T13:29:00Z</time>
      </trkpt>
      <trkpt lat="44.0832" lon="1.68918">
        <ele>264</ele>
        <time>2011-06-26T13:29:02Z</time>
      </trkpt>
      <trkpt lat="44.0831" lon="1.68913">
        <ele>264</ele>
        <time>2011-06-26T13:29:04Z</time>
      </trkpt>
      <trkpt lat="44.083" lon="1.68908">
        <ele>264</ele>
        <time>2011-06-26T13:29:06Z</time>
      </trkpt>
      <trkpt lat="44.0829" lon="1.68901">
        <ele>264</ele>
        <time>2011-06-26T13:29:08Z</time>
      </trkpt>
      <trkpt lat="44.0828" lon="1.68897">
        <ele>264</ele>
        <time>2011-06-26T13:29:10Z</time>
      </trkpt>
      <trkpt lat="44.0827" lon="1.68893">
        <ele>264</ele>
        <time>2011-06-26T13:29:12Z</time>
      </trkpt>
      <trkpt lat="44.08261" lon="1.68887">
        <ele>264</ele>
        <time>2011-06-26T13:29:14Z</time>
      </trkpt>
      <trkpt lat="44.08252" lon="1.6888">
        <ele>264</ele>
        <time>2011-06-26T13:29:16Z</time>
      </trkpt>
      <trkpt lat="44.08243" lon="1.68873">
        <ele>264</ele>
        <time>2011-06-26T13:29:18Z</time>
      </trkpt>
      <trkpt lat="44.08233" lon="1.68867">
        <ele>264</ele>
        <time>2011-06-26T13:29:20Z</time>
      </trkpt>
      <trkpt lat="44.08223" lon="1.68862">
        <ele>264</ele>
        <time>2011-06-26T13:29:22Z</time>
      </trkpt>
      <trkpt lat="44.08213" lon="1.68857">
        <ele>264</ele>
        <time>2011-06-26T13:29:24Z</time>
      </trkpt>
      <trkpt lat="44.08205" lon="1.68851">
        <ele>264</ele>
        <time>2011-06-26T13:29:26Z</time>
      </trkpt>
      <trkpt lat="44.08197" lon="1.68844">
        <ele>264</ele>
        <time>2011-06-26T13:29:28Z</time>
      </trkpt>
      <trkpt lat="44.08188" lon="1.6884">
        <ele>264</ele>
        <time>2011-06-26T13:29:30Z</time>
      </trkpt>
      <trkpt lat="44.08181" lon="1.68835">
        <ele>264</ele>
        <time>2011-06-26T13:29:32Z</time>
      </trkpt>
      <trkpt lat="44.08173" lon="1.68831">
        <ele>264</ele>
        <time>2011-06-26T13:29:34Z</time>
      </trkpt>
      <trkpt lat="44.08165" lon="1.68827">
        <ele>264</ele>
        <time>2011-06-26T13:29:36Z</time>
      </trkpt>
      <trkpt lat="44.08156" lon="1.68823">
        <ele>264</ele>
        <time>2011-06-26T13:29:38Z</time>
      </trkpt>
      <trkpt lat="44.08146" lon="1.68817">
        <ele>264</ele>
        <time>2011-06-26T13:29:40Z</time>
      </trkpt>
      <trkpt lat="44.08136" lon="1.68812">
        <ele>264</ele>
        <time>2011-06-26T13:29:42Z</time>
      </trkpt>
      <trkpt lat="44.08125" lon="1.68807">
        <ele>264</ele>
        <time>2011-06-26T13:29:44Z</time>
      </trkpt>
      <trkpt lat="44.08115" lon="1.68802">
        <ele>264</ele>
        <time>2011-06-26T13:29:46Z</time>
      </trkpt>
      <trkpt lat="44.08104" lon="1.68798">
        <ele>264</ele>
        <time>2011-06-26T13:29:48Z</time>
      </trkpt>
      <trkpt lat="44.08094" lon="1.68794">
        <ele>264</ele>
        <time>2011-06-26T13:29:50Z</time>
      </trkpt>
      <trkpt lat="44.08083" lon="1.68792">
        <ele>264</ele>
        <time>2011-06-26T13:29:52Z</time>
      </trkpt>
      <trkpt lat="44.08071" lon="1.6879">
        <ele>264</ele>
        <time>2011-06-26T13:29:54Z</time>
      </trkpt>
      <trkpt lat="44.0806" lon="1.6879">
        <ele>264</ele>
        <time>2011-06-26T13:29:56Z</time>
      </trkpt>
      <trkpt lat="44.0805" lon="1.68788">
        <ele>264</ele>
        <time>2011-06-26T13:29:58Z</time>
      </trkpt>
      <trkpt lat="44.08039" lon="1.68785">
        <ele>264</ele>
        <time>2011-06-26T13:30:00Z</time>
      </trkpt>
      <trkpt lat="44.08029" lon="1.68781">
        <ele>264</ele>
        <time>2011-06-26T13:30:02Z</time>
      </trkpt>
      <trkpt lat="44.08018" lon="1.68775">
        <ele>263</ele>
        <time>2011-06-26T13:30:04Z</time>
      </trkpt>
      <trkpt lat="44.08007" lon="1.68768">
        <ele>262</ele>
        <time>2011-06-26T13:30:06Z</time>
      </trkpt>
      <trkpt lat="44.07995" lon="1.68761">
        <ele>261</ele>
        <time>2011-06-26T13:30:08Z</time>
      </trkpt>
      <trkpt lat="44.07984" lon="1.68754">
        <ele>260</ele>
        <time>2011-06-26T13:30:10Z</time>
      </trkpt>
      <trkpt lat="44.07972" lon="1.68746">
        <ele>260</ele>
        <time>2011-06-26T13:30:12Z</time>
      </trkpt>
      <trkpt lat="44.07962" lon="1.68738">
        <ele>259</ele>
        <time>2011-06-26T13:30:14Z</time>
      </trkpt>
      <trkpt lat="44.07951" lon="1.68731">
        <ele>259</ele>
        <time>2011-06-26T13:30:16Z</time>
      </trkpt>
      <trkpt lat="44.0794" lon="1.68726">
        <ele>259</ele>
        <time>2011-06-26T13:30:18Z</time>
      </trkpt>
      <trkpt lat="44.07929" lon="1.6872">
        <ele>259</ele>
        <time>2011-06-26T13:30:20Z</time>
      </trkpt>
      <trkpt lat="44.07919" lon="1.6871">
        <ele>259</ele>
        <time>2011-06-26T13:30:22Z</time>
      </trkpt>
      <trkpt lat="44.07911" lon="1.68701">
        <ele>259</ele>
        <time>2011-06-26T13:30:24Z</time>
      </trkpt>
      <trkpt lat="44.07901" lon="1.68691">
        <ele>259</ele>
        <time>2011-06-26T13:30:26Z</time>
      </trkpt>
      <trkpt lat="44.07892" lon="1.6868">
        <ele>259</ele>
        <time>2011-06-26T13:30:28Z</time>
      </trkpt>
      <trkpt lat="44.07882" lon="1.68669">
        <ele>259</ele>
        <time>2011-06-26T13:30:30Z</time>
      </trkpt>
      <trkpt lat="44.07871" lon="1.68658">
        <ele>259</ele>
        <time>2011-06-26T13:30:32Z</time>
      </trkpt>
      <trkpt lat="44.07862" lon="1.68647">
        <ele>258</ele>
        <time>2011-06-26T13:30:34Z</time>
      </trkpt>
      <trkpt lat="44.07852" lon="1.68637">
        <ele>258</ele>
        <time>2011-06-26T13:30:36Z</time>
      </trkpt>
      <trkpt lat="44.07842" lon="1.68628">
        <ele>257</ele>
        <time>2011-06-26T13:30:38Z</time>
      </trkpt>
      <trkpt lat="44.07831" lon="1.68621">
        <ele>257</ele>
        <time>2011-06-26T13:30:40Z</time>
      </trkpt>
      <trkpt lat="44.07819" lon="1.68616">
        <ele>256</ele>
        <time>2011-06-26T13:30:42Z</time>
      </trkpt>
      <trkpt lat="44.07807" lon="1.68611">
        <ele>256</ele>
        <time>2011-06-26T13:30:44Z</time>
      </trkpt>
      <trkpt lat="44.07795" lon="1.68606">
        <ele>256</ele>
        <time>2011-06-26T13:30:46Z</time>
      </trkpt>
      <trkpt lat="44.07783" lon="1.686">
        <ele>256</ele>
        <time>2011-06-26T13:30:48Z</time>
      </trkpt>
      <trkpt lat="44.07772" lon="1.68595">
        <ele>255</ele>
        <time>2011-06-26T13:30:50Z</time>
      </trkpt>
      <trkpt lat="44.07761" lon="1.68588">
        <ele>255</ele>
        <time>2011-06-26T13:30:52Z</time>
      </trkpt>
      <trkpt lat="44.0775" lon="1.68581">
        <ele>254</ele>
        <time>2011-06-26T13:30:54Z</time>
      </trkpt>
      <trkpt lat="44.07739" lon="1.68571">
        <ele>254</ele>
        <time>2011-06-26T13:30:56Z</time>
      </trkpt>
      <trkpt lat="44.07728" lon="1.68559">
        <ele>253</ele>
        <time>2011-06-26T13:30:58Z</time>
      </trkpt>
      <trkpt lat="44.07718" lon="1.68547">
        <ele>252</ele>
        <time>2011-06-26T13:31:00Z</time>
      </trkpt>
      <trkpt lat="44.07707" lon="1.68537">
        <ele>251</ele>
        <time>2011-06-26T13:31:02Z</time>
      </trkpt>
      <trkpt lat="44.07697" lon="1.68529">
        <ele>251</ele>
        <time>2011-06-26T13:31:04Z</time>
      </trkpt>
      <trkpt lat="44.07686" lon="1.68522">
        <ele>250</ele>
        <time>2011-06-26T13:31:06Z</time>
      </trkpt>
      <trkpt lat="44.07674" lon="1.68513">
        <ele>249</ele>
        <time>2011-06-26T13:31:08Z</time>
      </trkpt>
      <trkpt lat="44.07663" lon="1.68504">
        <ele>249</ele>
        <time>2011-06-26T13:31:10Z</time>
      </trkpt>
      <trkpt lat="44.07653" lon="1.68495">
        <ele>248</ele>
        <time>2011-06-26T13:31:12Z</time>
      </trkpt>
      <trkpt lat="44.07642" lon="1.68487">
        <ele>248</ele>
        <time>2011-06-26T13:31:14Z</time>
      </trkpt>
      <trkpt lat="44.07632" lon="1.68479">
        <ele>247</ele>
        <time>2011-06-26T13:31:16Z</time>
      </trkpt>
      <trkpt lat="44.07622" lon="1.6847">
        <ele>247</ele>
        <time>2011-06-26T13:31:18Z</time>
      </trkpt>
      <trkpt lat="44.07612" lon="1.68461">
        <ele>247</ele>
        <time>2011-06-26T13:31:20Z</time>
      </trkpt>
      <trkpt lat="44.07603" lon="1.68452">
        <ele>247</ele>
        <time>2011-06-26T13:31:22Z</time>
      </trkpt>
      <trkpt lat="44.07594" lon="1.68442">
        <ele>247</ele>
        <time>2011-06-26T13:31:24Z</time>
      </trkpt>
      <trkpt lat="44.07584" lon="1.68432">
        <ele>247</ele>
        <time>2011-06-26T13:31:26Z</time>
      </trkpt>
      <trkpt lat="44.07574" lon="1.68422">
        <ele>247</ele>
        <time>2011-06-26T13:31:28Z</time>
      </trkpt>
      <trkpt lat="44.07564" lon="1.68412">
        <ele>246</ele>
        <time>2011-06-26T13:31:30Z</time>
      </trkpt>
      <trkpt lat="44.07553" lon="1.68402">
        <ele>246</ele>
        <time>2011-06-26T13:31:32Z</time>
      </trkpt>
      <trkpt lat="44.07543" lon="1.68391">
        <ele>246</ele>
        <time>2011-06-26T13:31:34Z</time>
      </trkpt>
      <trkpt lat="44.07532" lon="1.6838">
        <ele>246</ele>
        <time>2011-06-26T13:31:36Z</time>
      </trkpt>
      <trkpt lat="44.07522" lon="1.68369">
        <ele>245</ele>
        <time>2011-06-26T13:31:38Z</time>
      </trkpt>
      <trkpt lat="44.07512" lon="1.68358">
        <ele>245</ele>
        <time>2011-06-26T13:31:40Z</time>
      </trkpt>
      <trkpt lat="44.07501" lon="1.68348">
        <ele>245</ele>
        <time>2011-06-26T13:31:42Z</time>
      </trkpt>
      <trkpt lat="44.07491" lon="1.68336">
        <ele>244</ele>
        <time>2011-06-26T13:31:44Z</time>
      </trkpt>
      <trkpt lat="44.07481" lon="1.68322">
        <ele>243</ele>
        <time>2011-06-26T13:31:46Z</time>
      </trkpt>
      <trkpt lat="44.07473" lon="1.68307">
        <ele>242</ele>
        <time>2011-06-26T13:31:48Z</time>
      </trkpt>
      <trkpt lat="44.07464" lon="1.68292">
        <ele>242</ele>
        <time>2011-06-26T13:31:50Z</time>
      </trkpt>
      <trkpt lat="44.07455" lon="1.68275">
        <ele>241</ele>
        <time>2011-06-26T13:31:52Z</time>
      </trkpt>
      <trkpt lat="44.07446" lon="1.68259">
        <ele>241</ele>
        <time>2011-06-26T13:31:54Z</time>
      </trkpt>
      <trkpt lat="44.07437" lon="1.68243">
        <ele>241</ele>
        <time>2011-06-26T13:31:56Z</time>
      </trkpt>
      <trkpt lat="44.07429" lon="1.68227">
        <ele>241</ele>
        <time>2011-06-26T13:31:58Z</time>
      </trkpt>
      <trkpt lat="44.07421" lon="1.68212">
        <ele>241</ele>
        <time>2011-06-26T13:32:00Z</time>
      </trkpt>
      <trkpt lat="44.07412" lon="1.68197">
        <ele>240</ele>
        <time>2011-06-26T13:32:02Z</time>
      </trkpt>
      <trkpt lat="44.07404" lon="1.68185">
        <ele>240</ele>
        <time>2011-06-26T13:32:04Z</time>
      </trkpt>
      <trkpt lat="44.07396" lon="1.68174">
        <ele>240</ele>
        <time>2011-06-26T13:32:06Z</time>
      </trkpt>
      <trkpt lat="44.07389" lon="1.68163">
        <ele>240</ele>
        <time>2011-06-26T13:32:08Z</time>
      </trkpt>
      <trkpt lat="44.07381" lon="1.68151">
        <ele>240</ele>
        <time>2011-06-26T13:32:10Z</time>
      </trkpt>
      <trkpt lat="44.07373" lon="1.6814">
        <ele>240</ele>
        <time>2011-06-26T13:32:12Z</time>
      </trkpt>
      <trkpt lat="44.07367" lon="1.68127">
        <ele>240</ele>
        <time>2011-06-26T13:32:14Z</time>
      </trkpt>
      <trkpt lat="44.07363" lon="1.68114">
        <ele>240</ele>
        <time>2011-06-26T13:32:16Z</time>
      </trkpt>
      <trkpt lat="44.07358" lon="1.68107">
        <ele>240</ele>
        <time>2011-06-26T13:32:18Z</time>
      </trkpt>
      <trkpt lat="44.07351" lon="1.68101">
        <ele>240</ele>
        <time>2011-06-26T13:32:20Z</time>
      </trkpt>
      <trkpt lat="44.07343" lon="1.68092">
        <ele>240</ele>
        <time>2011-06-26T13:32:22Z</time>
      </trkpt>
      <trkpt lat="44.07336" lon="1.68084">
        <ele>240</ele>
        <time>2011-06-26T13:32:24Z</time>
      </trkpt>
      <trkpt lat="44.07328" lon="1.68077">
        <ele>240</ele>
        <time>2011-06-26T13:32:26Z</time>
      </trkpt>
      <trkpt lat="44.0732" lon="1.68068">
        <ele>240</ele>
        <time>2011-06-26T13:32:28Z</time>
      </trkpt>
      <trkpt lat="44.07311" lon="1.6806">
        <ele>240</ele>
        <time>2011-06-26T13:32:30Z</time>
      </trkpt>
      <trkpt lat="44.07301" lon="1.68055">
        <ele>240</ele>
        <time>2011-06-26T13:32:32Z</time>
      </trkpt>
      <trkpt lat="44.0729" lon="1.68051">
        <ele>240</ele>
        <time>2011-06-26T13:32:34Z</time>
      </trkpt>
      <trkpt lat="44.07282" lon="1.6804">
        <ele>240</ele>
        <time>2011-06-26T13:32:36Z</time>
      </trkpt>
      <trkpt lat="44.07275" lon="1.68029">
        <ele>240</ele>
        <time>2011-06-26T13:32:38Z</time>
      </trkpt>
      <trkpt lat="44.07267" lon="1.6802">
        <ele>240</ele>
        <time>2011-06-26T13:32:40Z</time>
      </trkpt>
      <trkpt lat="44.07259" lon="1.6801">
        <ele>240</ele>
        <time>2011-06-26T13:32:42Z</time>
      </trkpt>
      <trkpt lat="44.07252" lon="1.67999">
        <ele>240</ele>
        <time>2011-06-26T13:32:44Z</time>
      </trkpt>
      <trkpt lat="44.07247" lon="1.67989">
        <ele>240</ele>
        <time>2011-06-26T13:32:46Z</time>
      </trkpt>
      <trkpt lat="44.0724" lon="1.67979">
        <ele>240</ele>
        <time>2011-06-26T13:32:48Z</time>
      </trkpt>
      <trkpt lat="44.07233" lon="1.67971">
        <ele>240</ele>
        <time>2011-06-26T13:32:50Z</time>
      </trkpt>
      <trkpt lat="44.07224" lon="1.67965">
        <ele>240</ele>
        <time>2011-06-26T13:32:52Z</time>
      </trkpt>
      <trkpt lat="44.07214" lon="1.67957">
        <ele>240</ele>
        <time>2011-06-26T13:32:54Z</time>
      </trkpt>
      <trkpt lat="44.07206" lon="1.67947">
        <ele>240</ele>
        <time>2011-06-26T13:32:56Z</time>
      </trkpt>
      <trkpt lat="44.07198" lon="1.67935">
        <ele>240</ele>
        <time>2011-06-26T13:32:58Z</time>
      </trkpt>
      <trkpt lat="44.0719" lon="1.67926">
        <ele>240</ele>
        <time>2011-06-26T13:33:00Z</time>
      </trkpt>
      <trkpt lat="44.07181" lon="1.67918">
        <ele>240</ele>
        <time>2011-06-26T13:33:02Z</time>
      </trkpt>
      <trkpt lat="44.07172" lon="1.67911">
        <ele>240</ele>
        <time>2011-06-26T13:33:04Z</time>
      </trkpt>
      <trkpt lat="44.07161" lon="1.67905">
        <ele>240</ele>
        <time>2011-06-26T13:33:06Z</time>
      </trkpt>
      <trkpt lat="44.0715" lon="1.67899">
        <ele>240</ele>
        <time>2011-06-26T13:33:08Z</time>
      </trkpt>
      <trkpt lat="44.07139" lon="1.67891">
        <ele>240</ele>
        <time>2011-06-26T13:33:10Z</time>
      </trkpt>
      <trkpt lat="44.07131" lon="1.67879">
        <ele>239</ele>
        <time>2011-06-26T13:33:12Z</time>
      </trkpt>
      <trkpt lat="44.0713" lon="1.67866">
        <ele>239</ele>
        <time>2011-06-26T13:33:14Z</time>
      </trkpt>
      <trkpt lat="44.07128" lon="1.67854">
        <ele>238</ele>
        <time>2011-06-26T13:33:16Z</time>
      </trkpt>
      <trkpt lat="44.07122" lon="1.67842">
        <ele>238</ele>
        <time>2011-06-26T13:33:18Z</time>
      </trkpt>
      <trkpt lat="44.07114" lon="1.67832">
        <ele>238</ele>
        <time>2011-06-26T13:33:20Z</time>
      </trkpt>
      <trkpt lat="44.07105" lon="1.67822">
        <ele>238</ele>
        <time>2011-06-26T13:33:22Z</time>
      </trkpt>
      <trkpt lat="44.07097" lon="1.67809">
        <ele>237</ele>
        <time>2011-06-26T13:33:24Z</time>
      </trkpt>
      <trkpt lat="44.07091" lon="1.67795">
        <ele>237</ele>
        <time>2011-06-26T13:33:26Z</time>
      </trkpt>
      <trkpt lat="44.07083" lon="1.67782">
        <ele>237</ele>
        <time>2011-06-26T13:33:28Z</time>
      </trkpt>
      <trkpt lat="44.07075" lon="1.67769">
        <ele>236</ele>
        <time>2011-06-26T13:33:30Z</time>
      </trkpt>
      <trkpt lat="44.07068" lon="1.67752">
        <ele>236</ele>
        <time>2011-06-26T13:33:32Z</time>
      </trkpt>
      <trkpt lat="44.07063" lon="1.67734">
        <ele>235</ele>
        <time>2011-06-26T13:33:34Z</time>
      </trkpt>
      <trkpt lat="44.07058" lon="1.67717">
        <ele>235</ele>
        <time>2011-06-26T13:33:36Z</time>
      </trkpt>
      <trkpt lat="44.07052" lon="1.677">
        <ele>235</ele>
        <time>2011-06-26T13:33:38Z</time>
      </trkpt>
      <trkpt lat="44.07045" lon="1.67684">
        <ele>234</ele>
        <time>2011-06-26T13:33:40Z</time>
      </trkpt>
      <trkpt lat="44.07039" lon="1.67665">
        <ele>233</ele>
        <time>2011-06-26T13:33:42Z</time>
      </trkpt>
      <trkpt lat="44.07032" lon="1.67646">
        <ele>232</ele>
        <time>2011-06-26T13:33:44Z</time>
      </trkpt>
      <trkpt lat="44.07027" lon="1.67625">
        <ele>231</ele>
        <time>2011-06-26T13:33:46Z</time>
      </trkpt>
      <trkpt lat="44.0702" lon="1.67604">
        <ele>231</ele>
        <time>2011-06-26T13:33:48Z</time>
      </trkpt>
      <trkpt lat="44.07014" lon="1.67585">
        <ele>230</ele>
        <time>2011-06-26T13:33:50Z</time>
      </trkpt>
      <trkpt lat="44.07009" lon="1.67564">
        <ele>229</ele>
        <time>2011-06-26T13:33:52Z</time>
      </trkpt>
      <trkpt lat="44.07001" lon="1.67545">
        <ele>228</ele>
        <time>2011-06-26T13:33:54Z</time>
      </trkpt>
      <trkpt lat="44.06992" lon="1.67528">
        <ele>227</ele>
        <time>2011-06-26T13:33:56Z</time>
      </trkpt>
      <trkpt lat="44.06984" lon="1.6751">
        <ele>227</ele>
        <time>2011-06-26T13:33:58Z</time>
      </trkpt>
      <trkpt lat="44.06976" lon="1.67491">
        <ele>226</ele>
        <time>2011-06-26T13:34:00Z</time>
      </trkpt>
      <trkpt lat="44.06968" lon="1.67474">
        <ele>225</ele>
        <time>2011-06-26T13:34:02Z</time>
      </trkpt>
      <trkpt lat="44.06961" lon="1.67459">
        <ele>224</ele>
        <time>2011-06-26T13:34:04Z</time>
      </trkpt>
      <trkpt lat="44.06954" lon="1.67446">
        <ele>223</ele>
        <time>2011-06-26T13:34:06Z</time>
      </trkpt>
      <trkpt lat="44.06947" lon="1.67437">
        <ele>221</ele>
        <time>2011-06-26T13:34:08Z</time>
      </trkpt>
      <trkpt lat="44.06941" lon="1.67427">
        <ele>220</ele>
        <time>2011-06-26T13:34:10Z</time>
      </trkpt>
      <trkpt lat="44.06938" lon="1.67411">
        <ele>218</ele>
        <time>2011-06-26T13:34:12Z</time>
      </trkpt>
      <trkpt lat="44.06933" lon="1.67396">
        <ele>217</ele>
        <time>2011-06-26T13:34:14Z</time>
      </trkpt>
      <trkpt lat="44.06928" lon="1.67379">
        <ele>217</ele>
        <time>2011-06-26T13:34:16Z</time>
      </trkpt>
      <trkpt lat="44.06922" lon="1.67365">
        <ele>217</ele>
        <time>2011-06-26T13:34:18Z</time>
      </trkpt>
      <trkpt lat="44.06917" lon="1.67351">
        <ele>217</ele>
        <time>2011-06-26T13:34:20Z</time>
      </trkpt>
      <trkpt lat="44.06911" lon="1.67339">
        <ele>217</ele>
        <time>2011-06-26T13:34:22Z</time>
      </trkpt>
      <trkpt lat="44.06906" lon="1.67328">
        <ele>217</ele>
        <time>2011-06-26T13:34:24Z</time>
      </trkpt>
      <trkpt lat="44.069" lon="1.67315">
        <ele>217</ele>
        <time>2011-06-26T13:34:26Z</time>
      </trkpt>
      <trkpt lat="44.06895" lon="1.67303">
        <ele>217</ele>
        <time>2011-06-26T13:34:28Z</time>
      </trkpt>
      <trkpt lat="44.06889" lon="1.6729">
        <ele>217</ele>
        <time>2011-06-26T13:34:30Z</time>
      </trkpt>
      <trkpt lat="44.06883" lon="1.67278">
        <ele>217</ele>
        <time>2011-06-26T13:34:32Z</time>
      </trkpt>
      <trkpt lat="44.06877" lon="1.67268">
        <ele>217</ele>
        <time>2011-06-26T13:34:34Z</time>
      </trkpt>
      <trkpt lat="44.0687" lon="1.67258">
        <ele>217</ele>
        <time>2011-06-26T13:34:36Z</time>
      </trkpt>
      <trkpt lat="44.06863" lon="1.6725">
        <ele>217</ele>
        <time>2011-06-26T13:34:38Z</time>
      </trkpt>
      <trkpt lat="44.06854" lon="1.67243">
        <ele>217</ele>
        <time>2011-06-26T13:34:40Z</time>
      </trkpt>
      <trkpt lat="44.06844" lon="1.67235">
        <ele>217</ele>
        <time>2011-06-26T13:34:42Z</time>
      </trkpt>
      <trkpt lat="44.06836" lon="1.67226">
        <ele>217</ele>
        <time>2011-06-26T13:34:44Z</time>
      </trkpt>
      <trkpt lat="44.06826" lon="1.67216">
        <ele>217</ele>
        <time>2011-06-26T13:34:46Z</time>
      </trkpt>
      <trkpt lat="44.06817" lon="1.67206">
        <ele>216</ele>
        <time>2011-06-26T13:34:48Z</time>
      </trkpt>
      <trkpt lat="44.06807" lon="1.67196">
        <ele>216</ele>
        <time>2011-06-26T13:34:50Z</time>
      </trkpt>
      <trkpt lat="44.06796" lon="1.67186">
        <ele>215</ele>
        <time>2011-06-26T13:34:52Z</time>
      </trkpt>
      <trkpt lat="44.06785" lon="1.67177">
        <ele>214</ele>
        <time>2011-06-26T13:34:54Z</time>
      </trkpt>
      <trkpt lat="44.06772" lon="1.67169">
        <ele>213</ele>
        <time>2011-06-26T13:34:56Z</time>
      </trkpt>
      <trkpt lat="44.06759" lon="1.67161">
        <ele>213</ele>
        <time>2011-06-26T13:34:58Z</time>
      </trkpt>
      <trkpt lat="44.06747" lon="1.67157">
        <ele>212</ele>
        <time>2011-06-26T13:35:00Z</time>
      </trkpt>
      <trkpt lat="44.06734" lon="1.67153">
        <ele>210</ele>
        <time>2011-06-26T13:35:02Z</time>
      </trkpt>
      <trkpt lat="44.06722" lon="1.67149">
        <ele>209</ele>
        <time>2011-06-26T13:35:04Z</time>
      </trkpt>
      <trkpt lat="44.0671" lon="1.67145">
        <ele>208</ele>
        <time>2011-06-26T13:35:06Z</time>
      </trkpt>
      <trkpt lat="44.06699" lon="1.67136">
        <ele>208</ele>
        <time>2011-06-26T13:35:08Z</time>
      </trkpt>
      <trkpt lat="44.06691" lon="1.67123">
        <ele>207</ele>
        <time>2011-06-26T13:35:10Z</time>
      </trkpt>
      <trkpt lat="44.06682" lon="1.67112">
        <ele>207</ele>
        <time>2011-06-26T13:35:12Z</time>
      </trkpt>
      <trkpt lat="44.06672" lon="1.67105">
        <ele>206</ele>
        <time>2011-06-26T13:35:14Z</time>
      </trkpt>
      <trkpt lat="44.0666" lon="1.67099">
        <ele>205</ele>
        <time>2011-06-26T13:35:16Z</time>
      </trkpt>
      <trkpt lat="44.0665" lon="1.67095">
        <ele>204</ele>
        <time>2011-06-26T13:35:18Z</time>
      </trkpt>
      <trkpt lat="44.06639" lon="1.6709">
        <ele>203</ele>
        <time>2011-06-26T13:35:20Z</time>
      </trkpt>
      <trkpt lat="44.06628" lon="1.67086">
        <ele>201</ele>
        <time>2011-06-26T13:35:22Z</time>
      </trkpt>
      <trkpt lat="44.06618" lon="1.67079">
        <ele>200</ele>
        <time>2011-06-26T13:35:24Z</time>
      </trkpt>
      <trkpt lat="44.0661" lon="1.67069">
        <ele>198</ele>
        <time>2011-06-26T13:35:26Z</time>
      </trkpt>
      <trkpt lat="44.06601" lon="1.67056">
        <ele>197</ele>
        <time>2011-06-26T13:35:28Z</time>
      </trkpt>
      <trkpt lat="44.0659" lon="1.67044">
        <ele>195</ele>
        <time>2011-06-26T13:35:30Z</time>
      </trkpt>
      <trkpt lat="44.06578" lon="1.67032">
        <ele>193</ele>
        <time>2011-06-26T13:35:32Z</time>
      </trkpt>
      <trkpt lat="44.06567" lon="1.67019">
        <ele>191</ele>
        <time>2011-06-26T13:35:34Z</time>
      </trkpt>
      <trkpt lat="44.06557" lon="1.67007">
        <ele>189</ele>
        <time>2011-06-26T13:35:36Z</time>
      </trkpt>
      <trkpt lat="44.06546" lon="1.67">
        <ele>187</ele>
        <time>2011-06-26T13:35:38Z</time>
      </trkpt>
      <trkpt lat="44.06534" lon="1.66993">
        <ele>185</ele>
        <time>2011-06-26T13:35:40Z</time>
      </trkpt>
      <trkpt lat="44.06524" lon="1.66987">
        <ele>183</ele>
        <time>2011-06-26T13:35:42Z</time>
      </trkpt>
      <trkpt lat="44.06513" lon="1.66983">
        <ele>181</ele>
        <time>2011-06-26T13:35:44Z</time>
      </trkpt>
      <trkpt lat="44.06502" lon="1.66979">
        <ele>179</ele>
        <time>2011-06-26T13:35:46Z</time>
      </trkpt>
      <trkpt lat="44.0649" lon="1.66977">
        <ele>177</ele>
        <time>2011-06-26T13:35:48Z</time>
      </trkpt>
      <trkpt lat="44.06479" lon="1.66974">
        <ele>175</ele>
        <time>2011-06-26T13:35:50Z</time>
      </trkpt>
      <trkpt lat="44.06469" lon="1.66968">
        <ele>174</ele>
        <time>2011-06-26T13:35:52Z</time>
      </trkpt>
      <trkpt lat="44.06461" lon="1.66963">
        <ele>172</ele>
        <time>2011-06-26T13:35:54Z</time>
      </trkpt>
      <trkpt lat="44.06451" lon="1.66959">
        <ele>171</ele>
        <time>2011-06-26T13:35:56Z</time>
      </trkpt>
      <trkpt lat="44.06439" lon="1.66954">
        <ele>170</ele>
        <time>2011-06-26T13:35:58Z</time>
      </trkpt>
      <trkpt lat="44.06426" lon="1.66955">
        <ele>168</ele>
        <time>2011-06-26T13:36:00Z</time>
      </trkpt>
      <trkpt lat="44.06413" lon="1.66958">
        <ele>167</ele>
        <time>2011-06-26T13:36:02Z</time>
      </trkpt>
      <trkpt lat="44.06399" lon="1.66961">
        <ele>165</ele>
        <time>2011-06-26T13:36:04Z</time>
      </trkpt>
      <trkpt lat="44.06384" lon="1.66966">
        <ele>164</ele>
        <time>2011-06-26T13:36:06Z</time>
      </trkpt>
      <trkpt lat="44.06369" lon="1.66972">
        <ele>162</ele>
        <time>2011-06-26T13:36:08Z</time>
      </trkpt>
      <trkpt lat="44.06352" lon="1.66979">
        <ele>161</ele>
        <time>2011-06-26T13:36:10Z</time>
      </trkpt>
      <trkpt lat="44.06335" lon="1.66985">
        <ele>159</ele>
        <time>2011-06-26T13:36:12Z</time>
      </trkpt>
      <trkpt lat="44.06321" lon="1.6699">
        <ele>157</ele>
        <time>2011-06-26T13:36:14Z</time>
      </trkpt>
      <trkpt lat="44.0631" lon="1.66989">
        <ele>155</ele>
        <time>2011-06-26T13:36:16Z</time>
      </trkpt>
      <trkpt lat="44.06299" lon="1.66981">
        <ele>155</ele>
        <time>2011-06-26T13:36:18Z</time>
      </trkpt>
      <trkpt lat="44.06286" lon="1.66978">
        <ele>154</ele>
        <time>2011-06-26T13:36:20Z</time>
      </trkpt>
      <trkpt lat="44.06273" lon="1.66976">
        <ele>154</ele>
        <time>2011-06-26T13:36:22Z</time>
      </trkpt>
      <trkpt lat="44.06262" lon="1.66975">
        <ele>154</ele>
        <time>2011-06-26T13:36:24Z</time>
      </trkpt>
      <trkpt lat="44.06252" lon="1.66971">
        <ele>154</ele>
        <time>2011-06-26T13:36:26Z</time>
      </trkpt>
      <trkpt lat="44.06243" lon="1.66966">
        <ele>154</ele>
        <time>2011-06-26T13:36:28Z</time>
      </trkpt>
      <trkpt lat="44.06237" lon="1.66962">
        <ele>154</ele>
        <time>2011-06-26T13:36:30Z</time>
      </trkpt>
      <trkpt lat="44.06232" lon="1.66957">
        <ele>154</ele>
        <time>2011-06-26T13:36:32Z</time>
      </trkpt>
      <trkpt lat="44.06227" lon="1.66953">
        <ele>154</ele>
        <time>2011-06-26T13:36:34Z</time>
      </trkpt>
      <trkpt lat="44.06223" lon="1.66949">
        <ele>154</ele>
        <time>2011-06-26T13:36:36Z</time>
      </trkpt>
      <trkpt lat="44.06218" lon="1.66946">
        <ele>154</ele>
        <time>2011-06-26T13:36:38Z</time>
      </trkpt>
      <trkpt lat="44.06213" lon="1.66943">
        <ele>154</ele>
        <time>2011-06-26T13:36:40Z</time>
      </trkpt>
      <trkpt lat="44.06208" lon="1.66939">
        <ele>154</ele>
        <time>2011-06-26T13:36:42Z</time>
      </trkpt>
      <trkpt lat="44.06202" lon="1.66936">
        <ele>155</ele>
        <time>2011-06-26T13:36:44Z</time>
      </trkpt>
      <trkpt lat="44.06197" lon="1.66934">
        <ele>155</ele>
        <time>2011-06-26T13:36:46Z</time>
      </trkpt>
      <trkpt lat="44.06192" lon="1.66932">
        <ele>156</ele>
        <time>2011-06-26T13:36:48Z</time>
      </trkpt>
      <trkpt lat="44.06187" lon="1.66931">
        <ele>156</ele>
        <time>2011-06-26T13:36:50Z</time>
      </trkpt>
      <trkpt lat="44.06179" lon="1.66931">
        <ele>156</ele>
        <time>2011-06-26T13:36:53Z</time>
      </trkpt>
      <trkpt lat="44.06174" lon="1.66932">
        <ele>156</ele>
        <time>2011-06-26T13:36:55Z</time>
      </trkpt>
      <trkpt lat="44.06166" lon="1.66933">
        <ele>156</ele>
        <time>2011-06-26T13:36:58Z</time>
      </trkpt>
      <trkpt lat="44.06161" lon="1.66934">
        <ele>156</ele>
        <time>2011-06-26T13:37:00Z</time>
      </trkpt>
      <trkpt lat="44.06156" lon="1.66937">
        <ele>157</ele>
        <time>2011-06-26T13:37:02Z</time>
      </trkpt>
      <trkpt lat="44.0615" lon="1.6694">
        <ele>157</ele>
        <time>2011-06-26T13:37:04Z</time>
      </trkpt>
      <trkpt lat="44.06145" lon="1.66942">
        <ele>158</ele>
        <time>2011-06-26T13:37:06Z</time>
      </trkpt>
      <trkpt lat="44.0614" lon="1.66945">
        <ele>158</ele>
        <time>2011-06-26T13:37:08Z</time>
      </trkpt>
      <trkpt lat="44.06133" lon="1.66948">
        <ele>158</ele>
        <time>2011-06-26T13:37:11Z</time>
      </trkpt>
      <trkpt lat="44.06128" lon="1.66952">
        <ele>158</ele>
        <time>2011-06-26T13:37:13Z</time>
      </trkpt>
      <trkpt lat="44.0612" lon="1.66954">
        <ele>158</ele>
        <time>2011-06-26T13:37:15Z</time>
      </trkpt>
      <trkpt lat="44.0611" lon="1.66954">
        <ele>158</ele>
        <time>2011-06-26T13:37:17Z</time>
      </trkpt>
      <trkpt lat="44.06098" lon="1.66954">
        <ele>158</ele>
        <time>2011-06-26T13:37:19Z</time>
      </trkpt>
      <trkpt lat="44.06087" lon="1.66948">
        <ele>158</ele>
        <time>2011-06-26T13:37:21Z</time>
      </trkpt>
      <trkpt lat="44.06079" lon="1.66941">
        <ele>158</ele>
        <time>2011-06-26T13:37:23Z</time>
      </trkpt>
      <trkpt lat="44.06076" lon="1.66934">
        <ele>158</ele>
        <time>2011-06-26T13:37:25Z</time>
      </trkpt>
      <trkpt lat="44.06076" lon="1.66933">
        <ele>158</ele>
        <time>2011-06-26T13:37:27Z</time>
      </trkpt>
      <trkpt lat="44.06077" lon="1.66932">
        <ele>158</ele>
        <time>2011-06-26T13:37:31Z</time>
      </trkpt>
      <trkpt lat="44.06079" lon="1.6693">
        <ele>158</ele>
        <time>2011-06-26T13:37:47Z</time>
      </trkpt>
      <trkpt lat="44.06079" lon="1.66927">
        <ele>158</ele>
        <time>2011-06-26T13:37:49Z</time>
      </trkpt>
      <trkpt lat="44.06082" lon="1.66923">
        <ele>158</ele>
        <time>2011-06-26T13:37:52Z</time>
      </trkpt>
      <trkpt lat="44.06084" lon="1.66921">
        <ele>158</ele>
        <time>2011-06-26T13:37:54Z</time>
      </trkpt>
      <trkpt lat="44.06085" lon="1.66919">
        <ele>158</ele>
        <time>2011-06-26T13:37:56Z</time>
      </trkpt>
      <trkpt lat="44.06086" lon="1.66917">
        <ele>158</ele>
        <time>2011-06-26T13:37:58Z</time>
      </trkpt>
      <trkpt lat="44.06088" lon="1.66916">
        <ele>158</ele>
        <time>2011-06-26T13:38:00Z</time>
      </trkpt>
      <trkpt lat="44.0609" lon="1.66914">
        <ele>158</ele>
        <time>2011-06-26T13:38:02Z</time>
      </trkpt>
      <trkpt lat="44.06091" lon="1.66912">
        <ele>158</ele>
        <time>2011-06-26T13:38:04Z</time>
      </trkpt>
      <trkpt lat="44.06093" lon="1.66911">
        <ele>158</ele>
        <time>2011-06-26T13:38:06Z</time>
      </trkpt>
      <trkpt lat="44.06095" lon="1.66911">
        <ele>158</ele>
        <time>2011-06-26T13:38:08Z</time>
      </trkpt>
      <trkpt lat="44.06097" lon="1.66913">
        <ele>158</ele>
        <time>2011-06-26T13:38:10Z</time>
      </trkpt>
      <trkpt lat="44.06097" lon="1.66915">
        <ele>158</ele>
        <time>2011-06-26T13:38:12Z</time>
      </trkpt>
      <trkpt lat="44.06099" lon="1.66915">
        <ele>158</ele>
        <time>2011-06-26T13:38:14Z</time>
      </trkpt>
      <trkpt lat="44.061" lon="1.66916">
        <ele>158</ele>
        <time>2011-06-26T13:38:16Z</time>
      </trkpt>
      <trkpt lat="44.06102" lon="1.66916">
        <ele>158</ele>
        <time>2011-06-26T13:38:18Z</time>
      </trkpt>
      <trkpt lat="44.06104" lon="1.66914">
        <ele>158</ele>
        <time>2011-06-26T13:38:20Z</time>
      </trkpt>
      <trkpt lat="44.06107" lon="1.66912">
        <ele>159</ele>
        <time>2011-06-26T13:38:23Z</time>
      </trkpt>
      <trkpt lat="44.0611" lon="1.66911">
        <ele>159</ele>
        <time>2011-06-26T13:38:25Z</time>
      </trkpt>
      <trkpt lat="44.06112" lon="1.6691">
        <ele>159</ele>
        <time>2011-06-26T13:38:27Z</time>
      </trkpt>
      <trkpt lat="44.06114" lon="1.66909">
        <ele>160</ele>
        <time>2011-06-26T13:38:29Z</time>
      </trkpt>
      <trkpt lat="44.06116" lon="1.66908">
        <ele>160</ele>
        <time>2011-06-26T13:38:31Z</time>
      </trkpt>
      <trkpt lat="44.06118" lon="1.66908">
        <ele>161</ele>
        <time>2011-06-26T13:38:33Z</time>
      </trkpt>
      <trkpt lat="44.0612" lon="1.66908">
        <ele>161</ele>
        <time>2011-06-26T13:38:35Z</time>
      </trkpt>
      <trkpt lat="44.06121" lon="1.66906">
        <ele>161</ele>
        <time>2011-06-26T13:38:37Z</time>
      </trkpt>
      <trkpt lat="44.06123" lon="1.66904">
        <ele>162</ele>
        <time>2011-06-26T13:38:39Z</time>
      </trkpt>
      <trkpt lat="44.06125" lon="1.66902">
        <ele>162</ele>
        <time>2011-06-26T13:38:41Z</time>
      </trkpt>
      <trkpt lat="44.06128" lon="1.66901">
        <ele>162</ele>
        <time>2011-06-26T13:38:43Z</time>
      </trkpt>
      <trkpt lat="44.06129" lon="1.66899">
        <ele>163</ele>
        <time>2011-06-26T13:38:45Z</time>
      </trkpt>
      <trkpt lat="44.06131" lon="1.66897">
        <ele>163</ele>
        <time>2011-06-26T13:38:47Z</time>
      </trkpt>
      <trkpt lat="44.06134" lon="1.66897">
        <ele>163</ele>
        <time>2011-06-26T13:38:49Z</time>
      </trkpt>
      <trkpt lat="44.06136" lon="1.66896">
        <ele>163</ele>
        <time>2011-06-26T13:38:51Z</time>
      </trkpt>
      <trkpt lat="44.06138" lon="1.66895">
        <ele>163</ele>
        <time>2011-06-26T13:38:53Z</time>
      </trkpt>
      <trkpt lat="44.06141" lon="1.66895">
        <ele>164</ele>
        <time>2011-06-26T13:38:55Z</time>
      </trkpt>
      <trkpt lat="44.06142" lon="1.66893">
        <ele>164</ele>
        <time>2011-06-26T13:38:57Z</time>
      </trkpt>
      <trkpt lat="44.06144" lon="1.66892">
        <ele>164</ele>
        <time>2011-06-26T13:38:59Z</time>
      </trkpt>
      <trkpt lat="44.06147" lon="1.66891">
        <ele>164</ele>
        <time>2011-06-26T13:39:01Z</time>
      </trkpt>
      <trkpt lat="44.06149" lon="1.66889">
        <ele>165</ele>
        <time>2011-06-26T13:39:03Z</time>
      </trkpt>
      <trkpt lat="44.06154" lon="1.66886">
        <ele>166</ele>
        <time>2011-06-26T13:39:07Z</time>
      </trkpt>
      <trkpt lat="44.06156" lon="1.66885">
        <ele>167</ele>
        <time>2011-06-26T13:39:09Z</time>
      </trkpt>
      <trkpt lat="44.06158" lon="1.66884">
        <ele>167</ele>
        <time>2011-06-26T13:39:11Z</time>
      </trkpt>
      <trkpt lat="44.0616" lon="1.66881">
        <ele>168</ele>
        <time>2011-06-26T13:39:13Z</time>
      </trkpt>
      <trkpt lat="44.06162" lon="1.6688">
        <ele>168</ele>
        <time>2011-06-26T13:39:15Z</time>
      </trkpt>
      <trkpt lat="44.06164" lon="1.66879">
        <ele>169</ele>
        <time>2011-06-26T13:39:17Z</time>
      </trkpt>
      <trkpt lat="44.06167" lon="1.66878">
        <ele>169</ele>
        <time>2011-06-26T13:39:19Z</time>
      </trkpt>
      <trkpt lat="44.06168" lon="1.66876">
        <ele>170</ele>
        <time>2011-06-26T13:39:21Z</time>
      </trkpt>
      <trkpt lat="44.0617" lon="1.66874">
        <ele>170</ele>
        <time>2011-06-26T13:39:23Z</time>
      </trkpt>
      <trkpt lat="44.06173" lon="1.66874">
        <ele>170</ele>
        <time>2011-06-26T13:39:25Z</time>
      </trkpt>
      <trkpt lat="44.06175" lon="1.66874">
        <ele>170</ele>
        <time>2011-06-26T13:39:27Z</time>
      </trkpt>
      <trkpt lat="44.06178" lon="1.66873">
        <ele>170</ele>
        <time>2011-06-26T13:39:29Z</time>
      </trkpt>
      <trkpt lat="44.06181" lon="1.66871">
        <ele>170</ele>
        <time>2011-06-26T13:39:32Z</time>
      </trkpt>
      <trkpt lat="44.06183" lon="1.6687">
        <ele>171</ele>
        <time>2011-06-26T13:39:34Z</time>
      </trkpt>
      <trkpt lat="44.06185" lon="1.66869">
        <ele>171</ele>
        <time>2011-06-26T13:39:36Z</time>
      </trkpt>
      <trkpt lat="44.06187" lon="1.66868">
        <ele>171</ele>
        <time>2011-06-26T13:39:38Z</time>
      </trkpt>
      <trkpt lat="44.06189" lon="1.66867">
        <ele>171</ele>
        <time>2011-06-26T13:39:40Z</time>
      </trkpt>
      <trkpt lat="44.06191" lon="1.66866">
        <ele>172</ele>
        <time>2011-06-26T13:39:42Z</time>
      </trkpt>
      <trkpt lat="44.06193" lon="1.66866">
        <ele>172</ele>
        <time>2011-06-26T13:39:44Z</time>
      </trkpt>
      <trkpt lat="44.06195" lon="1.66867">
        <ele>172</ele>
        <time>2011-06-26T13:39:46Z</time>
      </trkpt>
      <trkpt lat="44.06197" lon="1.66868">
        <ele>172</ele>
        <time>2011-06-26T13:39:48Z</time>
      </trkpt>
      <trkpt lat="44.06198" lon="1.66868">
        <ele>173</ele>
        <time>2011-06-26T13:39:50Z</time>
      </trkpt>
      <trkpt lat="44.062" lon="1.66867">
        <ele>173</ele>
        <time>2011-06-26T13:39:52Z</time>
      </trkpt>
      <trkpt lat="44.06202" lon="1.66866">
        <ele>173</ele>
        <time>2011-06-26T13:39:54Z</time>
      </trkpt>
      <trkpt lat="44.06203" lon="1.66864">
        <ele>174</ele>
        <time>2011-06-26T13:39:56Z</time>
      </trkpt>
      <trkpt lat="44.06204" lon="1.66862">
        <ele>174</ele>
        <time>2011-06-26T13:39:58Z</time>
      </trkpt>
      <trkpt lat="44.06208" lon="1.66859">
        <ele>175</ele>
        <time>2011-06-26T13:40:02Z</time>
      </trkpt>
      <trkpt lat="44.06211" lon="1.66857">
        <ele>176</ele>
        <time>2011-06-26T13:40:05Z</time>
      </trkpt>
      <trkpt lat="44.06213" lon="1.66856">
        <ele>176</ele>
        <time>2011-06-26T13:40:07Z</time>
      </trkpt>
      <trkpt lat="44.06215" lon="1.66855">
        <ele>177</ele>
        <time>2011-06-26T13:40:09Z</time>
      </trkpt>
      <trkpt lat="44.06216" lon="1.66853">
        <ele>177</ele>
        <time>2011-06-26T13:40:11Z</time>
      </trkpt>
      <trkpt lat="44.06218" lon="1.66851">
        <ele>178</ele>
        <time>2011-06-26T13:40:13Z</time>
      </trkpt>
      <trkpt lat="44.06221" lon="1.6685">
        <ele>178</ele>
        <time>2011-06-26T13:40:15Z</time>
      </trkpt>
      <trkpt lat="44.06223" lon="1.66849">
        <ele>180</ele>
        <time>2011-06-26T13:40:17Z</time>
      </trkpt>
      <trkpt lat="44.06225" lon="1.66849">
        <ele>181</ele>
        <time>2011-06-26T13:40:19Z</time>
      </trkpt>
      <trkpt lat="44.06226" lon="1.66849">
        <ele>181</ele>
        <time>2011-06-26T13:40:21Z</time>
      </trkpt>
      <trkpt lat="44.06228" lon="1.6685">
        <ele>182</ele>
        <time>2011-06-26T13:40:23Z</time>
      </trkpt>
      <trkpt lat="44.0623" lon="1.6685">
        <ele>183</ele>
        <time>2011-06-26T13:40:25Z</time>
      </trkpt>
      <trkpt lat="44.06231" lon="1.66849">
        <ele>183</ele>
        <time>2011-06-26T13:40:27Z</time>
      </trkpt>
      <trkpt lat="44.06234" lon="1.66847">
        <ele>185</ele>
        <time>2011-06-26T13:40:31Z</time>
      </trkpt>
      <trkpt lat="44.06236" lon="1.66846">
        <ele>185</ele>
        <time>2011-06-26T13:40:33Z</time>
      </trkpt>
      <trkpt lat="44.06237" lon="1.66845">
        <ele>185</ele>
        <time>2011-06-26T13:40:35Z</time>
      </trkpt>
      <trkpt lat="44.06239" lon="1.66844">
        <ele>185</ele>
        <time>2011-06-26T13:40:37Z</time>
      </trkpt>
      <trkpt lat="44.06241" lon="1.66843">
        <ele>186</ele>
        <time>2011-06-26T13:40:39Z</time>
      </trkpt>
      <trkpt lat="44.06243" lon="1.66842">
        <ele>186</ele>
        <time>2011-06-26T13:40:41Z</time>
      </trkpt>
      <trkpt lat="44.06245" lon="1.66841">
        <ele>186</ele>
        <time>2011-06-26T13:40:43Z</time>
      </trkpt>
      <trkpt lat="44.06247" lon="1.66839">
        <ele>187</ele>
        <time>2011-06-26T13:40:45Z</time>
      </trkpt>
      <trkpt lat="44.06249" lon="1.66838">
        <ele>187</ele>
        <time>2011-06-26T13:40:47Z</time>
      </trkpt>
      <trkpt lat="44.06251" lon="1.66836">
        <ele>188</ele>
        <time>2011-06-26T13:40:49Z</time>
      </trkpt>
      <trkpt lat="44.06253" lon="1.66835">
        <ele>188</ele>
        <time>2011-06-26T13:40:51Z</time>
      </trkpt>
      <trkpt lat="44.06255" lon="1.66834">
        <ele>189</ele>
        <time>2011-06-26T13:40:53Z</time>
      </trkpt>
      <trkpt lat="44.06257" lon="1.66832">
        <ele>189</ele>
        <time>2011-06-26T13:40:55Z</time>
      </trkpt>
      <trkpt lat="44.06259" lon="1.66831">
        <ele>189</ele>
        <time>2011-06-26T13:40:57Z</time>
      </trkpt>
      <trkpt lat="44.06261" lon="1.66829">
        <ele>190</ele>
        <time>2011-06-26T13:40:59Z</time>
      </trkpt>
      <trkpt lat="44.06263" lon="1.66828">
        <ele>190</ele>
        <time>2011-06-26T13:41:01Z</time>
      </trkpt>
      <trkpt lat="44.06264" lon="1.66826">
        <ele>190</ele>
        <time>2011-06-26T13:41:03Z</time>
      </trkpt>
      <trkpt lat="44.06268" lon="1.66823">
        <ele>191</ele>
        <time>2011-06-26T13:41:07Z</time>
      </trkpt>
      <trkpt lat="44.06269" lon="1.66822">
        <ele>191</ele>
        <time>2011-06-26T13:41:11Z</time>
      </trkpt>
      <trkpt lat="44.06271" lon="1.66821">
        <ele>191</ele>
        <time>2011-06-26T13:41:13Z</time>
      </trkpt>
      <trkpt lat="44.06274" lon="1.66818">
        <ele>191</ele>
        <time>2011-06-26T13:41:16Z</time>
      </trkpt>
      <trkpt lat="44.06276" lon="1.66816">
        <ele>191</ele>
        <time>2011-06-26T13:41:18Z</time>
      </trkpt>
      <trkpt lat="44.06279" lon="1.66814">
        <ele>191</ele>
        <time>2011-06-26T13:41:20Z</time>
      </trkpt>
      <trkpt lat="44.06282" lon="1.66812">
        <ele>191</ele>
        <time>2011-06-26T13:41:22Z</time>
      </trkpt>
      <trkpt lat="44.06285" lon="1.6681">
        <ele>191</ele>
        <time>2011-06-26T13:41:24Z</time>
      </trkpt>
      <trkpt lat="44.06288" lon="1.66808">
        <ele>191</ele>
        <time>2011-06-26T13:41:26Z</time>
      </trkpt>
      <trkpt lat="44.06293" lon="1.66805">
        <ele>192</ele>
        <time>2011-06-26T13:41:28Z</time>
      </trkpt>
      <trkpt lat="44.06296" lon="1.66801">
        <ele>193</ele>
        <time>2011-06-26T13:41:30Z</time>
      </trkpt>
      <trkpt lat="44.063" lon="1.66798">
        <ele>194</ele>
        <time>2011-06-26T13:41:32Z</time>
      </trkpt>
      <trkpt lat="44.06303" lon="1.66795">
        <ele>194</ele>
        <time>2011-06-26T13:41:34Z</time>
      </trkpt>
      <trkpt lat="44.06307" lon="1.66792">
        <ele>194</ele>
        <time>2011-06-26T13:41:36Z</time>
      </trkpt>
      <trkpt lat="44.06311" lon="1.66788">
        <ele>194</ele>
        <time>2011-06-26T13:41:38Z</time>
      </trkpt>
      <trkpt lat="44.06315" lon="1.66784">
        <ele>195</ele>
        <time>2011-06-26T13:41:40Z</time>
      </trkpt>
      <trkpt lat="44.0632" lon="1.66781">
        <ele>195</ele>
        <time>2011-06-26T13:41:42Z</time>
      </trkpt>
      <trkpt lat="44.06324" lon="1.66779">
        <ele>195</ele>
        <time>2011-06-26T13:41:44Z</time>
      </trkpt>
      <trkpt lat="44.06329" lon="1.66775">
        <ele>195</ele>
        <time>2011-06-26T13:41:46Z</time>
      </trkpt>
      <trkpt lat="44.06333" lon="1.66772">
        <ele>195</ele>
        <time>2011-06-26T13:41:48Z</time>
      </trkpt>
      <trkpt lat="44.06337" lon="1.66769">
        <ele>195</ele>
        <time>2011-06-26T13:41:50Z</time>
      </trkpt>
      <trkpt lat="44.06341" lon="1.66765">
        <ele>195</ele>
        <time>2011-06-26T13:41:52Z</time>
      </trkpt>
      <trkpt lat="44.06346" lon="1.66762">
        <ele>196</ele>
        <time>2011-06-26T13:41:54Z</time>
      </trkpt>
      <trkpt lat="44.06349" lon="1.66759">
        <ele>196</ele>
        <time>2011-06-26T13:41:56Z</time>
      </trkpt>
      <trkpt lat="44.06353" lon="1.66755">
        <ele>196</ele>
        <time>2011-06-26T13:41:58Z</time>
      </trkpt>
      <trkpt lat="44.06359" lon="1.6675">
        <ele>196</ele>
        <time>2011-06-26T13:42:01Z</time>
      </trkpt>
      <trkpt lat="44.06364" lon="1.66747">
        <ele>196</ele>
        <time>2011-06-26T13:42:03Z</time>
      </trkpt>
      <trkpt lat="44.06372" lon="1.66744">
        <ele>196</ele>
        <time>2011-06-26T13:42:06Z</time>
      </trkpt>
      <trkpt lat="44.06376" lon="1.6674">
        <ele>196</ele>
        <time>2011-06-26T13:42:08Z</time>
      </trkpt>
      <trkpt lat="44.0638" lon="1.66736">
        <ele>196</ele>
        <time>2011-06-26T13:42:10Z</time>
      </trkpt>
      <trkpt lat="44.06385" lon="1.66733">
        <ele>196</ele>
        <time>2011-06-26T13:42:12Z</time>
      </trkpt>
      <trkpt lat="44.06389" lon="1.66729">
        <ele>196</ele>
        <time>2011-06-26T13:42:14Z</time>
      </trkpt>
      <trkpt lat="44.06393" lon="1.66726">
        <ele>197</ele>
        <time>2011-06-26T13:42:16Z</time>
      </trkpt>
      <trkpt lat="44.06397" lon="1.66724">
        <ele>197</ele>
        <time>2011-06-26T13:42:18Z</time>
      </trkpt>
      <trkpt lat="44.06401" lon="1.66721">
        <ele>197</ele>
        <time>2011-06-26T13:42:20Z</time>
      </trkpt>
      <trkpt lat="44.06405" lon="1.66718">
        <ele>198</ele>
        <time>2011-06-26T13:42:22Z</time>
      </trkpt>
      <trkpt lat="44.06408" lon="1.66716">
        <ele>199</ele>
        <time>2011-06-26T13:42:24Z</time>
      </trkpt>
      <trkpt lat="44.06412" lon="1.66713">
        <ele>200</ele>
        <time>2011-06-26T13:42:26Z</time>
      </trkpt>
      <trkpt lat="44.06416" lon="1.66711">
        <ele>201</ele>
        <time>2011-06-26T13:42:28Z</time>
      </trkpt>
      <trkpt lat="44.06417" lon="1.66707">
        <ele>202</ele>
        <time>2011-06-26T13:42:30Z</time>
      </trkpt>
      <trkpt lat="44.0642" lon="1.66704">
        <ele>202</ele>
        <time>2011-06-26T13:42:32Z</time>
      </trkpt>
      <trkpt lat="44.06423" lon="1.66702">
        <ele>203</ele>
        <time>2011-06-26T13:42:34Z</time>
      </trkpt>
      <trkpt lat="44.06426" lon="1.66699">
        <ele>203</ele>
        <time>2011-06-26T13:42:36Z</time>
      </trkpt>
      <trkpt lat="44.06429" lon="1.66697">
        <ele>203</ele>
        <time>2011-06-26T13:42:38Z</time>
      </trkpt>
      <trkpt lat="44.06432" lon="1.66695">
        <ele>204</ele>
        <time>2011-06-26T13:42:40Z</time>
      </trkpt>
      <trkpt lat="44.06435" lon="1.66692">
        <ele>204</ele>
        <time>2011-06-26T13:42:42Z</time>
      </trkpt>
      <trkpt lat="44.06438" lon="1.66688">
        <ele>205</ele>
        <time>2011-06-26T13:42:44Z</time>
      </trkpt>
      <trkpt lat="44.06441" lon="1.66685">
        <ele>205</ele>
        <time>2011-06-26T13:42:46Z</time>
      </trkpt>
      <trkpt lat="44.06445" lon="1.66684">
        <ele>206</ele>
        <time>2011-06-26T13:42:48Z</time>
      </trkpt>
      <trkpt lat="44.06448" lon="1.66683">
        <ele>206</ele>
        <time>2011-06-26T13:42:50Z</time>
      </trkpt>
      <trkpt lat="44.06451" lon="1.66681">
        <ele>207</ele>
        <time>2011-06-26T13:42:52Z</time>
      </trkpt>
      <trkpt lat="44.06454" lon="1.6668">
        <ele>207</ele>
        <time>2011-06-26T13:42:54Z</time>
      </trkpt>
      <trkpt lat="44.06458" lon="1.66679">
        <ele>207</ele>
        <time>2011-06-26T13:42:56Z</time>
      </trkpt>
      <trkpt lat="44.06461" lon="1.66678">
        <ele>208</ele>
        <time>2011-06-26T13:42:58Z</time>
      </trkpt>
      <trkpt lat="44.06463" lon="1.66675">
        <ele>208</ele>
        <time>2011-06-26T13:43:00Z</time>
      </trkpt>
      <trkpt lat="44.06466" lon="1.66672">
        <ele>208</ele>
        <time>2011-06-26T13:43:02Z</time>
      </trkpt>
      <trkpt lat="44.06469" lon="1.66669">
        <ele>208</ele>
        <time>2011-06-26T13:43:04Z</time>
      </trkpt>
      <trkpt lat="44.06471" lon="1.66665">
        <ele>208</ele>
        <time>2011-06-26T13:43:06Z</time>
      </trkpt>
      <trkpt lat="44.06473" lon="1.66662">
        <ele>208</ele>
        <time>2011-06-26T13:43:08Z</time>
      </trkpt>
      <trkpt lat="44.06476" lon="1.66659">
        <ele>209</ele>
        <time>2011-06-26T13:43:10Z</time>
      </trkpt>
      <trkpt lat="44.06479" lon="1.66656">
        <ele>209</ele>
        <time>2011-06-26T13:43:12Z</time>
      </trkpt>
      <trkpt lat="44.06482" lon="1.66654">
        <ele>209</ele>
        <time>2011-06-26T13:43:14Z</time>
      </trkpt>
      <trkpt lat="44.06487" lon="1.66647">
        <ele>209</ele>
        <time>2011-06-26T13:43:17Z</time>
      </trkpt>
      <trkpt lat="44.0649" lon="1.66644">
        <ele>210</ele>
        <time>2011-06-26T13:43:19Z</time>
      </trkpt>
      <trkpt lat="44.06494" lon="1.66639">
        <ele>211</ele>
        <time>2011-06-26T13:43:22Z</time>
      </trkpt>
      <trkpt lat="44.06498" lon="1.66636">
        <ele>211</ele>
        <time>2011-06-26T13:43:24Z</time>
      </trkpt>
      <trkpt lat="44.06501" lon="1.66632">
        <ele>211</ele>
        <time>2011-06-26T13:43:26Z</time>
      </trkpt>
      <trkpt lat="44.06506" lon="1.66626">
        <ele>212</ele>
        <time>2011-06-26T13:43:29Z</time>
      </trkpt>
      <trkpt lat="44.06509" lon="1.66623">
        <ele>212</ele>
        <time>2011-06-26T13:43:31Z</time>
      </trkpt>
      <trkpt lat="44.06514" lon="1.66619">
        <ele>212</ele>
        <time>2011-06-26T13:43:34Z</time>
      </trkpt>
      <trkpt lat="44.06519" lon="1.66613">
        <ele>212</ele>
        <time>2011-06-26T13:43:37Z</time>
      </trkpt>
      <trkpt lat="44.06521" lon="1.66609">
        <ele>212</ele>
        <time>2011-06-26T13:43:39Z</time>
      </trkpt>
      <trkpt lat="44.06524" lon="1.66604">
        <ele>213</ele>
        <time>2011-06-26T13:43:41Z</time>
      </trkpt>
      <trkpt lat="44.06526" lon="1.66599">
        <ele>213</ele>
        <time>2011-06-26T13:43:43Z</time>
      </trkpt>
      <trkpt lat="44.0653" lon="1.66595">
        <ele>214</ele>
        <time>2011-06-26T13:43:45Z</time>
      </trkpt>
      <trkpt lat="44.06533" lon="1.66592">
        <ele>215</ele>
        <time>2011-06-26T13:43:47Z</time>
      </trkpt>
      <trkpt lat="44.06538" lon="1.66586">
        <ele>216</ele>
        <time>2011-06-26T13:43:50Z</time>
      </trkpt>
      <trkpt lat="44.06541" lon="1.66585">
        <ele>217</ele>
        <time>2011-06-26T13:43:52Z</time>
      </trkpt>
      <trkpt lat="44.06545" lon="1.66585">
        <ele>217</ele>
        <time>2011-06-26T13:43:54Z</time>
      </trkpt>
      <trkpt lat="44.06549" lon="1.66583">
        <ele>217</ele>
        <time>2011-06-26T13:43:56Z</time>
      </trkpt>
      <trkpt lat="44.06552" lon="1.66579">
        <ele>217</ele>
        <time>2011-06-26T13:43:58Z</time>
      </trkpt>
      <trkpt lat="44.06555" lon="1.66574">
        <ele>217</ele>
        <time>2011-06-26T13:44:00Z</time>
      </trkpt>
      <trkpt lat="44.06559" lon="1.66569">
        <ele>217</ele>
        <time>2011-06-26T13:44:02Z</time>
      </trkpt>
      <trkpt lat="44.06562" lon="1.66564">
        <ele>217</ele>
        <time>2011-06-26T13:44:04Z</time>
      </trkpt>
      <trkpt lat="44.06564" lon="1.66558">
        <ele>217</ele>
        <time>2011-06-26T13:44:06Z</time>
      </trkpt>
      <trkpt lat="44.06565" lon="1.66551">
        <ele>217</ele>
        <time>2011-06-26T13:44:08Z</time>
      </trkpt>
      <trkpt lat="44.06568" lon="1.66545">
        <ele>217</ele>
        <time>2011-06-26T13:44:10Z</time>
      </trkpt>
      <trkpt lat="44.06572" lon="1.66538">
        <ele>217</ele>
        <time>2011-06-26T13:44:12Z</time>
      </trkpt>
      <trkpt lat="44.06577" lon="1.66531">
        <ele>217</ele>
        <time>2011-06-26T13:44:14Z</time>
      </trkpt>
      <trkpt lat="44.06581" lon="1.66524">
        <ele>217</ele>
        <time>2011-06-26T13:44:16Z</time>
      </trkpt>
      <trkpt lat="44.06586" lon="1.66516">
        <ele>217</ele>
        <time>2011-06-26T13:44:18Z</time>
      </trkpt>
      <trkpt lat="44.06592" lon="1.66508">
        <ele>217</ele>
        <time>2011-06-26T13:44:20Z</time>
      </trkpt>
      <trkpt lat="44.06598" lon="1.66501">
        <ele>217</ele>
        <time>2011-06-26T13:44:22Z</time>
      </trkpt>
      <trkpt lat="44.06604" lon="1.66493">
        <ele>217</ele>
        <time>2011-06-26T13:44:24Z</time>
      </trkpt>
      <trkpt lat="44.0661" lon="1.66487">
        <ele>217</ele>
        <time>2011-06-26T13:44:26Z</time>
      </trkpt>
      <trkpt lat="44.06616" lon="1.66481">
        <ele>217</ele>
        <time>2011-06-26T13:44:28Z</time>
      </trkpt>
      <trkpt lat="44.06623" lon="1.66475">
        <ele>217</ele>
        <time>2011-06-26T13:44:30Z</time>
      </trkpt>
      <trkpt lat="44.0663" lon="1.66469">
        <ele>217</ele>
        <time>2011-06-26T13:44:32Z</time>
      </trkpt>
      <trkpt lat="44.06636" lon="1.66461">
        <ele>217</ele>
        <time>2011-06-26T13:44:34Z</time>
      </trkpt>
      <trkpt lat="44.06644" lon="1.66454">
        <ele>217</ele>
        <time>2011-06-26T13:44:36Z</time>
      </trkpt>
      <trkpt lat="44.06651" lon="1.66447">
        <ele>217</ele>
        <time>2011-06-26T13:44:38Z</time>
      </trkpt>
      <trkpt lat="44.06657" lon="1.66439">
        <ele>217</ele>
        <time>2011-06-26T13:44:40Z</time>
      </trkpt>
      <trkpt lat="44.06664" lon="1.66431">
        <ele>217</ele>
        <time>2011-06-26T13:44:42Z</time>
      </trkpt>
      <trkpt lat="44.0667" lon="1.66424">
        <ele>217</ele>
        <time>2011-06-26T13:44:44Z</time>
      </trkpt>
      <trkpt lat="44.06681" lon="1.66418">
        <ele>216</ele>
        <time>2011-06-26T13:44:47Z</time>
      </trkpt>
      <trkpt lat="44.06689" lon="1.66412">
        <ele>216</ele>
        <time>2011-06-26T13:44:49Z</time>
      </trkpt>
      <trkpt lat="44.06697" lon="1.66407">
        <ele>215</ele>
        <time>2011-06-26T13:44:51Z</time>
      </trkpt>
      <trkpt lat="44.0671" lon="1.66399">
        <ele>215</ele>
        <time>2011-06-26T13:44:54Z</time>
      </trkpt>
      <trkpt lat="44.06718" lon="1.66393">
        <ele>214</ele>
        <time>2011-06-26T13:44:56Z</time>
      </trkpt>
      <trkpt lat="44.06735" lon="1.66383">
        <ele>213</ele>
        <time>2011-06-26T13:44:59Z</time>
      </trkpt>
      <trkpt lat="44.06746" lon="1.66385">
        <ele>213</ele>
        <time>2011-06-26T13:45:01Z</time>
      </trkpt>
      <trkpt lat="44.06757" lon="1.66389">
        <ele>212</ele>
        <time>2011-06-26T13:45:03Z</time>
      </trkpt>
      <trkpt lat="44.0677" lon="1.66394">
        <ele>211</ele>
        <time>2011-06-26T13:45:05Z</time>
      </trkpt>
      <trkpt lat="44.06785" lon="1.66401">
        <ele>210</ele>
        <time>2011-06-26T13:45:07Z</time>
      </trkpt>
      <trkpt lat="44.06799" lon="1.66406">
        <ele>210</ele>
        <time>2011-06-26T13:45:09Z</time>
      </trkpt>
      <trkpt lat="44.06812" lon="1.6641">
        <ele>209</ele>
        <time>2011-06-26T13:45:11Z</time>
      </trkpt>
      <trkpt lat="44.06826" lon="1.66415">
        <ele>209</ele>
        <time>2011-06-26T13:45:13Z</time>
      </trkpt>
      <trkpt lat="44.0684" lon="1.6642">
        <ele>207</ele>
        <time>2011-06-26T13:45:15Z</time>
      </trkpt>
      <trkpt lat="44.06854" lon="1.66425">
        <ele>207</ele>
        <time>2011-06-26T13:45:17Z</time>
      </trkpt>
      <trkpt lat="44.06869" lon="1.66431">
        <ele>207</ele>
        <time>2011-06-26T13:45:19Z</time>
      </trkpt>
      <trkpt lat="44.06881" lon="1.6644">
        <ele>207</ele>
        <time>2011-06-26T13:45:21Z</time>
      </trkpt>
      <trkpt lat="44.06892" lon="1.66449">
        <ele>207</ele>
        <time>2011-06-26T13:45:23Z</time>
      </trkpt>
      <trkpt lat="44.06904" lon="1.66458">
        <ele>207</ele>
        <time>2011-06-26T13:45:25Z</time>
      </trkpt>
      <trkpt lat="44.06915" lon="1.66465">
        <ele>207</ele>
        <time>2011-06-26T13:45:27Z</time>
      </trkpt>
      <trkpt lat="44.06927" lon="1.66473">
        <ele>207</ele>
        <time>2011-06-26T13:45:29Z</time>
      </trkpt>
      <trkpt lat="44.06939" lon="1.66481">
        <ele>207</ele>
        <time>2011-06-26T13:45:31Z</time>
      </trkpt>
      <trkpt lat="44.0695" lon="1.66487">
        <ele>207</ele>
        <time>2011-06-26T13:45:33Z</time>
      </trkpt>
      <trkpt lat="44.06961" lon="1.66494">
        <ele>206</ele>
        <time>2011-06-26T13:45:35Z</time>
      </trkpt>
      <trkpt lat="44.06971" lon="1.66498">
        <ele>206</ele>
        <time>2011-06-26T13:45:37Z</time>
      </trkpt>
      <trkpt lat="44.0698" lon="1.665">
        <ele>206</ele>
        <time>2011-06-26T13:45:39Z</time>
      </trkpt>
      <trkpt lat="44.06987" lon="1.66501">
        <ele>206</ele>
        <time>2011-06-26T13:45:41Z</time>
      </trkpt>
      <trkpt lat="44.06994" lon="1.66501">
        <ele>206</ele>
        <time>2011-06-26T13:45:43Z</time>
      </trkpt>
      <trkpt lat="44.07003" lon="1.66501">
        <ele>206</ele>
        <time>2011-06-26T13:45:46Z</time>
      </trkpt>
      <trkpt lat="44.07008" lon="1.66501">
        <ele>206</ele>
        <time>2011-06-26T13:45:54Z</time>
      </trkpt>
      <trkpt lat="44.07012" lon="1.66503">
        <ele>206</ele>
        <time>2011-06-26T13:45:57Z</time>
      </trkpt>
      <trkpt lat="44.07015" lon="1.66504">
        <ele>207</ele>
        <time>2011-06-26T13:45:59Z</time>
      </trkpt>
      <trkpt lat="44.07018" lon="1.66504">
        <ele>207</ele>
        <time>2011-06-26T13:46:01Z</time>
      </trkpt>
      <trkpt lat="44.0702" lon="1.66505">
        <ele>208</ele>
        <time>2011-06-26T13:46:03Z</time>
      </trkpt>
      <trkpt lat="44.07024" lon="1.66507">
        <ele>208</ele>
        <time>2011-06-26T13:46:06Z</time>
      </trkpt>
      <trkpt lat="44.07026" lon="1.6651">
        <ele>210</ele>
        <time>2011-06-26T13:46:09Z</time>
      </trkpt>
      <trkpt lat="44.07025" lon="1.66512">
        <ele>210</ele>
        <time>2011-06-26T13:46:11Z</time>
      </trkpt>
      <trkpt lat="44.07024" lon="1.66513">
        <ele>211</ele>
        <time>2011-06-26T13:46:45Z</time>
      </trkpt>
      <trkpt lat="44.07024" lon="1.66512">
        <ele>211</ele>
        <time>2011-06-26T13:47:25Z</time>
      </trkpt>
      <trkpt lat="44.07025" lon="1.66511">
        <ele>211</ele>
        <time>2011-06-26T13:47:33Z</time>
      </trkpt>
      <trkpt lat="44.07027" lon="1.6651">
        <ele>211</ele>
        <time>2011-06-26T13:47:40Z</time>
      </trkpt>
      <trkpt lat="44.07025" lon="1.66511">
        <ele>211</ele>
        <time>2011-06-26T13:47:46Z</time>
      </trkpt>
      <trkpt lat="44.07024" lon="1.66512">
        <ele>211</ele>
        <time>2011-06-26T13:48:01Z</time>
      </trkpt>
      <trkpt lat="44.07025" lon="1.66514">
        <ele>211</ele>
        <time>2011-06-26T13:48:29Z</time>
      </trkpt>
      <trkpt lat="44.07024" lon="1.66512">
        <ele>211</ele>
        <time>2011-06-26T13:49:29Z</time>
      </trkpt>
      <trkpt lat="44.07023" lon="1.66513">
        <ele>211</ele>
        <time>2011-06-26T13:49:41Z</time>
      </trkpt>
      <trkpt lat="44.07024" lon="1.66514">
        <ele>211</ele>
        <time>2011-06-26T13:50:24Z</time>
      </trkpt>
      <trkpt lat="44.07023" lon="1.66514">
        <ele>211</ele>
        <time>2011-06-26T13:50:37Z</time>
      </trkpt>
      <trkpt lat="44.07023" lon="1.66512">
        <ele>213</ele>
        <time>2011-06-26T13:52:39Z</time>
      </trkpt>
      <trkpt lat="44.07024" lon="1.66514">
        <ele>213</ele>
        <time>2011-06-26T13:52:53Z</time>
      </trkpt>
      <trkpt lat="44.07024" lon="1.66512">
        <ele>213</ele>
        <time>2011-06-26T13:53:08Z</time>
      </trkpt>
      <trkpt lat="44.07025" lon="1.66511">
        <ele>213</ele>
        <time>2011-06-26T13:53:42Z</time>
      </trkpt>
      <trkpt lat="44.07026" lon="1.6651">
        <ele>213</ele>
        <time>2011-06-26T13:54:40Z</time>
      </trkpt>
      <trkpt lat="44.07026" lon="1.66508">
        <ele>213</ele>
        <time>2011-06-26T13:55:26Z</time>
      </trkpt>
      <trkpt lat="44.07025" lon="1.6651">
        <ele>213</ele>
        <time>2011-06-26T13:55:56Z</time>
      </trkpt>
      <trkpt lat="44.07026" lon="1.66508">
        <ele>213</ele>
        <time>2011-06-26T13:56:06Z</time>
      </trkpt>
      <trkpt lat="44.07025" lon="1.6651">
        <ele>215</ele>
        <time>2011-06-26T13:56:35Z</time>
      </trkpt>
      <trkpt lat="44.07024" lon="1.6651">
        <ele>215</ele>
        <time>2011-06-26T13:56:52Z</time>
      </trkpt>
      <trkpt lat="44.07025" lon="1.6651">
        <ele>213</ele>
        <time>2011-06-26T13:57:08Z</time>
      </trkpt>
      <trkpt lat="44.07026" lon="1.6651">
        <ele>213</ele>
        <time>2011-06-26T13:57:13Z</time>
      </trkpt>
      <trkpt lat="44.07027" lon="1.66509">
        <ele>213</ele>
        <time>2011-06-26T13:57:20Z</time>
      </trkpt>
      <trkpt lat="44.07026" lon="1.6651">
        <ele>213</ele>
        <time>2011-06-26T13:57:54Z</time>
      </trkpt>
      <trkpt lat="44.07026" lon="1.66511">
        <ele>213</ele>
        <time>2011-06-26T13:58:01Z</time>
      </trkpt>
      <trkpt lat="44.07026" lon="1.6651">
        <ele>213</ele>
        <time>2011-06-26T13:58:51Z</time>
      </trkpt>
      <trkpt lat="44.07026" lon="1.66511">
        <ele>214</ele>
        <time>2011-06-26T13:59:29Z</time>
      </trkpt>
      <trkpt lat="44.07025" lon="1.66513">
        <ele>214</ele>
        <time>2011-06-26T13:59:53Z</time>
      </trkpt>
      <trkpt lat="44.07024" lon="1.66514">
        <ele>214</ele>
        <time>2011-06-26T14:00:04Z</time>
      </trkpt>
      <trkpt lat="44.07022" lon="1.66514">
        <ele>214</ele>
        <time>2011-06-26T14:00:17Z</time>
      </trkpt>
      <trkpt lat="44.07022" lon="1.66512">
        <ele>214</ele>
        <time>2011-06-26T14:00:24Z</time>
      </trkpt>
      <trkpt lat="44.07024" lon="1.66511">
        <ele>214</ele>
        <time>2011-06-26T14:00:58Z</time>
      </trkpt>
      <trkpt lat="44.07024" lon="1.66509">
        <ele>217</ele>
        <time>2011-06-26T14:01:17Z</time>
      </trkpt>
      <trkpt lat="44.07024" lon="1.66511">
        <ele>217</ele>
        <time>2011-06-26T14:01:29Z</time>
      </trkpt>
      <trkpt lat="44.07023" lon="1.66512">
        <ele>217</ele>
        <time>2011-06-26T14:01:41Z</time>
      </trkpt>
      <trkpt lat="44.07024" lon="1.66511">
        <ele>217</ele>
        <time>2011-06-26T14:02:04Z</time>
      </trkpt>
      <trkpt lat="44.07022" lon="1.66513">
        <ele>217</ele>
        <time>2011-06-26T14:02:19Z</time>
      </trkpt>
      <trkpt lat="44.07024" lon="1.66512">
        <ele>217</ele>
        <time>2011-06-26T14:02:42Z</time>
      </trkpt>
      <trkpt lat="44.07024" lon="1.66514">
        <ele>216</ele>
        <time>2011-06-26T14:03:49Z</time>
      </trkpt>
      <trkpt lat="44.07024" lon="1.66512">
        <ele>216</ele>
        <time>2011-06-26T14:04:16Z</time>
      </trkpt>
      <trkpt lat="44.07023" lon="1.6651">
        <ele>213</ele>
        <time>2011-06-26T14:04:22Z</time>
      </trkpt>
      <trkpt lat="44.07023" lon="1.66512">
        <ele>212</ele>
        <time>2011-06-26T14:04:40Z</time>
      </trkpt>
      <trkpt lat="44.07024" lon="1.66513">
        <ele>212</ele>
        <time>2011-06-26T14:04:58Z</time>
      </trkpt>
      <trkpt lat="44.07025" lon="1.66514">
        <ele>212</ele>
        <time>2011-06-26T14:05:02Z</time>
      </trkpt>
      <trkpt lat="44.07025" lon="1.66515">
        <ele>212</ele>
        <time>2011-06-26T14:05:23Z</time>
      </trkpt>
      <trkpt lat="44.07025" lon="1.66517">
        <ele>212</ele>
        <time>2011-06-26T14:05:28Z</time>
      </trkpt>
      <trkpt lat="44.07026" lon="1.66515">
        <ele>209</ele>
        <time>2011-06-26T14:06:03Z</time>
      </trkpt>
      <trkpt lat="44.07027" lon="1.66514">
        <ele>209</ele>
        <time>2011-06-26T14:06:08Z</time>
      </trkpt>
      <trkpt lat="44.07027" lon="1.66512">
        <ele>210</ele>
        <time>2011-06-26T14:06:23Z</time>
      </trkpt>
      <trkpt lat="44.07029" lon="1.66511">
        <ele>211</ele>
        <time>2011-06-26T14:06:32Z</time>
      </trkpt>
      <trkpt lat="44.0703" lon="1.66513">
        <ele>211</ele>
        <time>2011-06-26T14:06:39Z</time>
      </trkpt>
      <trkpt lat="44.07032" lon="1.66513">
        <ele>211</ele>
        <time>2011-06-26T14:06:43Z</time>
      </trkpt>
      <trkpt lat="44.07035" lon="1.66513">
        <ele>211</ele>
        <time>2011-06-26T14:06:45Z</time>
      </trkpt>
      <trkpt lat="44.07038" lon="1.66516">
        <ele>211</ele>
        <time>2011-06-26T14:06:47Z</time>
      </trkpt>
      <trkpt lat="44.07041" lon="1.6652">
        <ele>211</ele>
        <time>2011-06-26T14:06:49Z</time>
      </trkpt>
      <trkpt lat="44.07045" lon="1.66524">
        <ele>211</ele>
        <time>2011-06-26T14:06:51Z</time>
      </trkpt>
      <trkpt lat="44.07049" lon="1.66529">
        <ele>211</ele>
        <time>2011-06-26T14:06:53Z</time>
      </trkpt>
      <trkpt lat="44.07052" lon="1.66534">
        <ele>212</ele>
        <time>2011-06-26T14:06:55Z</time>
      </trkpt>
      <trkpt lat="44.07057" lon="1.66539">
        <ele>212</ele>
        <time>2011-06-26T14:06:57Z</time>
      </trkpt>
      <trkpt lat="44.07062" lon="1.66544">
        <ele>213</ele>
        <time>2011-06-26T14:06:59Z</time>
      </trkpt>
      <trkpt lat="44.07066" lon="1.6655">
        <ele>213</ele>
        <time>2011-06-26T14:07:01Z</time>
      </trkpt>
      <trkpt lat="44.0707" lon="1.66557">
        <ele>214</ele>
        <time>2011-06-26T14:07:03Z</time>
      </trkpt>
      <trkpt lat="44.07076" lon="1.66567">
        <ele>215</ele>
        <time>2011-06-26T14:07:06Z</time>
      </trkpt>
      <trkpt lat="44.07079" lon="1.66573">
        <ele>216</ele>
        <time>2011-06-26T14:07:08Z</time>
      </trkpt>
      <trkpt lat="44.07082" lon="1.6658">
        <ele>217</ele>
        <time>2011-06-26T14:07:10Z</time>
      </trkpt>
      <trkpt lat="44.07086" lon="1.66586">
        <ele>218</ele>
        <time>2011-06-26T14:07:12Z</time>
      </trkpt>
      <trkpt lat="44.07089" lon="1.6659">
        <ele>219</ele>
        <time>2011-06-26T14:07:14Z</time>
      </trkpt>
      <trkpt lat="44.07093" lon="1.66596">
        <ele>220</ele>
        <time>2011-06-26T14:07:16Z</time>
      </trkpt>
      <trkpt lat="44.07096" lon="1.66601">
        <ele>220</ele>
        <time>2011-06-26T14:07:18Z</time>
      </trkpt>
      <trkpt lat="44.07098" lon="1.66607">
        <ele>221</ele>
        <time>2011-06-26T14:07:20Z</time>
      </trkpt>
      <trkpt lat="44.07101" lon="1.66612">
        <ele>222</ele>
        <time>2011-06-26T14:07:22Z</time>
      </trkpt>
      <trkpt lat="44.07105" lon="1.66617">
        <ele>222</ele>
        <time>2011-06-26T14:07:24Z</time>
      </trkpt>
      <trkpt lat="44.07109" lon="1.66622">
        <ele>223</ele>
        <time>2011-06-26T14:07:26Z</time>
      </trkpt>
      <trkpt lat="44.07114" lon="1.66627">
        <ele>223</ele>
        <time>2011-06-26T14:07:28Z</time>
      </trkpt>
      <trkpt lat="44.07118" lon="1.66631">
        <ele>224</ele>
        <time>2011-06-26T14:07:30Z</time>
      </trkpt>
      <trkpt lat="44.07122" lon="1.66636">
        <ele>224</ele>
        <time>2011-06-26T14:07:32Z</time>
      </trkpt>
      <trkpt lat="44.07127" lon="1.66639">
        <ele>224</ele>
        <time>2011-06-26T14:07:34Z</time>
      </trkpt>
      <trkpt lat="44.07132" lon="1.66641">
        <ele>225</ele>
        <time>2011-06-26T14:07:36Z</time>
      </trkpt>
      <trkpt lat="44.07138" lon="1.66644">
        <ele>225</ele>
        <time>2011-06-26T14:07:38Z</time>
      </trkpt>
      <trkpt lat="44.07143" lon="1.66646">
        <ele>226</ele>
        <time>2011-06-26T14:07:40Z</time>
      </trkpt>
      <trkpt lat="44.07149" lon="1.6665">
        <ele>226</ele>
        <time>2011-06-26T14:07:42Z</time>
      </trkpt>
      <trkpt lat="44.07155" lon="1.66653">
        <ele>226</ele>
        <time>2011-06-26T14:07:44Z</time>
      </trkpt>
      <trkpt lat="44.0716" lon="1.66658">
        <ele>226</ele>
        <time>2011-06-26T14:07:46Z</time>
      </trkpt>
      <trkpt lat="44.07165" lon="1.66665">
        <ele>226</ele>
        <time>2011-06-26T14:07:48Z</time>
      </trkpt>
      <trkpt lat="44.07169" lon="1.66671">
        <ele>226</ele>
        <time>2011-06-26T14:07:50Z</time>
      </trkpt>
      <trkpt lat="44.07174" lon="1.66677">
        <ele>226</ele>
        <time>2011-06-26T14:07:52Z</time>
      </trkpt>
      <trkpt lat="44.0718" lon="1.66683">
        <ele>226</ele>
        <time>2011-06-26T14:07:54Z</time>
      </trkpt>
      <trkpt lat="44.07184" lon="1.66689">
        <ele>226</ele>
        <time>2011-06-26T14:07:56Z</time>
      </trkpt>
      <trkpt lat="44.07188" lon="1.66695">
        <ele>226</ele>
        <time>2011-06-26T14:07:58Z</time>
      </trkpt>
      <trkpt lat="44.07192" lon="1.66702">
        <ele>226</ele>
        <time>2011-06-26T14:08:00Z</time>
      </trkpt>
      <trkpt lat="44.07197" lon="1.66709">
        <ele>226</ele>
        <time>2011-06-26T14:08:02Z</time>
      </trkpt>
      <trkpt lat="44.07201" lon="1.66718">
        <ele>226</ele>
        <time>2011-06-26T14:08:04Z</time>
      </trkpt>
      <trkpt lat="44.07205" lon="1.66727">
        <ele>226</ele>
        <time>2011-06-26T14:08:06Z</time>
      </trkpt>
      <trkpt lat="44.07208" lon="1.66737">
        <ele>226</ele>
        <time>2011-06-26T14:08:08Z</time>
      </trkpt>
      <trkpt lat="44.07212" lon="1.66747">
        <ele>226</ele>
        <time>2011-06-26T14:08:10Z</time>
      </trkpt>
      <trkpt lat="44.07215" lon="1.66757">
        <ele>227</ele>
        <time>2011-06-26T14:08:12Z</time>
      </trkpt>
      <trkpt lat="44.07219" lon="1.66767">
        <ele>228</ele>
        <time>2011-06-26T14:08:14Z</time>
      </trkpt>
      <trkpt lat="44.07224" lon="1.66777">
        <ele>228</ele>
        <time>2011-06-26T14:08:16Z</time>
      </trkpt>
      <trkpt lat="44.07229" lon="1.66787">
        <ele>228</ele>
        <time>2011-06-26T14:08:18Z</time>
      </trkpt>
      <trkpt lat="44.07236" lon="1.66796">
        <ele>228</ele>
        <time>2011-06-26T14:08:20Z</time>
      </trkpt>
      <trkpt lat="44.07243" lon="1.66805">
        <ele>228</ele>
        <time>2011-06-26T14:08:22Z</time>
      </trkpt>
      <trkpt lat="44.07251" lon="1.66815">
        <ele>228</ele>
        <time>2011-06-26T14:08:24Z</time>
      </trkpt>
      <trkpt lat="44.07259" lon="1.66824">
        <ele>228</ele>
        <time>2011-06-26T14:08:26Z</time>
      </trkpt>
      <trkpt lat="44.07267" lon="1.66835">
        <ele>227</ele>
        <time>2011-06-26T14:08:28Z</time>
      </trkpt>
      <trkpt lat="44.07277" lon="1.66844">
        <ele>225</ele>
        <time>2011-06-26T14:08:30Z</time>
      </trkpt>
      <trkpt lat="44.07286" lon="1.6685">
        <ele>224</ele>
        <time>2011-06-26T14:08:32Z</time>
      </trkpt>
      <trkpt lat="44.07297" lon="1.66853">
        <ele>223</ele>
        <time>2011-06-26T14:08:34Z</time>
      </trkpt>
      <trkpt lat="44.0731" lon="1.66857">
        <ele>221</ele>
        <time>2011-06-26T14:08:36Z</time>
      </trkpt>
      <trkpt lat="44.07324" lon="1.66861">
        <ele>220</ele>
        <time>2011-06-26T14:08:38Z</time>
      </trkpt>
      <trkpt lat="44.07336" lon="1.66868">
        <ele>219</ele>
        <time>2011-06-26T14:08:40Z</time>
      </trkpt>
      <trkpt lat="44.07349" lon="1.66876">
        <ele>219</ele>
        <time>2011-06-26T14:08:42Z</time>
      </trkpt>
      <trkpt lat="44.07361" lon="1.66881">
        <ele>218</ele>
        <time>2011-06-26T14:08:44Z</time>
      </trkpt>
      <trkpt lat="44.07374" lon="1.66883">
        <ele>217</ele>
        <time>2011-06-26T14:08:46Z</time>
      </trkpt>
      <trkpt lat="44.07388" lon="1.66885">
        <ele>217</ele>
        <time>2011-06-26T14:08:48Z</time>
      </trkpt>
      <trkpt lat="44.07401" lon="1.66888">
        <ele>217</ele>
        <time>2011-06-26T14:08:50Z</time>
      </trkpt>
      <trkpt lat="44.07413" lon="1.66893">
        <ele>217</ele>
        <time>2011-06-26T14:08:52Z</time>
      </trkpt>
      <trkpt lat="44.07423" lon="1.66903">
        <ele>217</ele>
        <time>2011-06-26T14:08:54Z</time>
      </trkpt>
      <trkpt lat="44.07434" lon="1.66911">
        <ele>217</ele>
        <time>2011-06-26T14:08:56Z</time>
      </trkpt>
      <trkpt lat="44.07445" lon="1.66917">
        <ele>217</ele>
        <time>2011-06-26T14:08:58Z</time>
      </trkpt>
      <trkpt lat="44.07455" lon="1.66924">
        <ele>217</ele>
        <time>2011-06-26T14:09:00Z</time>
      </trkpt>
      <trkpt lat="44.07467" lon="1.66932">
        <ele>217</ele>
        <time>2011-06-26T14:09:02Z</time>
      </trkpt>
      <trkpt lat="44.07477" lon="1.66943">
        <ele>217</ele>
        <time>2011-06-26T14:09:04Z</time>
      </trkpt>
      <trkpt lat="44.07485" lon="1.66954">
        <ele>217</ele>
        <time>2011-06-26T14:09:06Z</time>
      </trkpt>
      <trkpt lat="44.07491" lon="1.66966">
        <ele>217</ele>
        <time>2011-06-26T14:09:08Z</time>
      </trkpt>
      <trkpt lat="44.07496" lon="1.66979">
        <ele>217</ele>
        <time>2011-06-26T14:09:10Z</time>
      </trkpt>
      <trkpt lat="44.07502" lon="1.6699">
        <ele>217</ele>
        <time>2011-06-26T14:09:12Z</time>
      </trkpt>
      <trkpt lat="44.07508" lon="1.67001">
        <ele>217</ele>
        <time>2011-06-26T14:09:14Z</time>
      </trkpt>
      <trkpt lat="44.07515" lon="1.6701">
        <ele>217</ele>
        <time>2011-06-26T14:09:16Z</time>
      </trkpt>
      <trkpt lat="44.07523" lon="1.67018">
        <ele>217</ele>
        <time>2011-06-26T14:09:18Z</time>
      </trkpt>
      <trkpt lat="44.07531" lon="1.67026">
        <ele>217</ele>
        <time>2011-06-26T14:09:20Z</time>
      </trkpt>
      <trkpt lat="44.07539" lon="1.67032">
        <ele>217</ele>
        <time>2011-06-26T14:09:22Z</time>
      </trkpt>
      <trkpt lat="44.07547" lon="1.67039">
        <ele>218</ele>
        <time>2011-06-26T14:09:24Z</time>
      </trkpt>
      <trkpt lat="44.07556" lon="1.67045">
        <ele>218</ele>
        <time>2011-06-26T14:09:26Z</time>
      </trkpt>
      <trkpt lat="44.07563" lon="1.67051">
        <ele>219</ele>
        <time>2011-06-26T14:09:28Z</time>
      </trkpt>
      <trkpt lat="44.07569" lon="1.67057">
        <ele>219</ele>
        <time>2011-06-26T14:09:30Z</time>
      </trkpt>
      <trkpt lat="44.07574" lon="1.67062">
        <ele>220</ele>
        <time>2011-06-26T14:09:32Z</time>
      </trkpt>
      <trkpt lat="44.07579" lon="1.67069">
        <ele>221</ele>
        <time>2011-06-26T14:09:34Z</time>
      </trkpt>
      <trkpt lat="44.07584" lon="1.67075">
        <ele>222</ele>
        <time>2011-06-26T14:09:36Z</time>
      </trkpt>
      <trkpt lat="44.07589" lon="1.67081">
        <ele>222</ele>
        <time>2011-06-26T14:09:38Z</time>
      </trkpt>
      <trkpt lat="44.07595" lon="1.67087">
        <ele>223</ele>
        <time>2011-06-26T14:09:40Z</time>
      </trkpt>
      <trkpt lat="44.07601" lon="1.67093">
        <ele>223</ele>
        <time>2011-06-26T14:09:42Z</time>
      </trkpt>
      <trkpt lat="44.07607" lon="1.67098">
        <ele>223</ele>
        <time>2011-06-26T14:09:44Z</time>
      </trkpt>
      <trkpt lat="44.07614" lon="1.67103">
        <ele>223</ele>
        <time>2011-06-26T14:09:46Z</time>
      </trkpt>
      <trkpt lat="44.07621" lon="1.67108">
        <ele>223</ele>
        <time>2011-06-26T14:09:48Z</time>
      </trkpt>
      <trkpt lat="44.07629" lon="1.67114">
        <ele>223</ele>
        <time>2011-06-26T14:09:50Z</time>
      </trkpt>
      <trkpt lat="44.07635" lon="1.67119">
        <ele>223</ele>
        <time>2011-06-26T14:09:52Z</time>
      </trkpt>
      <trkpt lat="44.07642" lon="1.67126">
        <ele>223</ele>
        <time>2011-06-26T14:09:54Z</time>
      </trkpt>
      <trkpt lat="44.07648" lon="1.67133">
        <ele>224</ele>
        <time>2011-06-26T14:09:56Z</time>
      </trkpt>
      <trkpt lat="44.07655" lon="1.6714">
        <ele>224</ele>
        <time>2011-06-26T14:09:58Z</time>
      </trkpt>
      <trkpt lat="44.07661" lon="1.67147">
        <ele>224</ele>
        <time>2011-06-26T14:10:00Z</time>
      </trkpt>
      <trkpt lat="44.07667" lon="1.67153">
        <ele>224</ele>
        <time>2011-06-26T14:10:02Z</time>
      </trkpt>
      <trkpt lat="44.07671" lon="1.67162">
        <ele>225</ele>
        <time>2011-06-26T14:10:04Z</time>
      </trkpt>
      <trkpt lat="44.07676" lon="1.67171">
        <ele>225</ele>
        <time>2011-06-26T14:10:06Z</time>
      </trkpt>
      <trkpt lat="44.07681" lon="1.67181">
        <ele>225</ele>
        <time>2011-06-26T14:10:08Z</time>
      </trkpt>
      <trkpt lat="44.07686" lon="1.67192">
        <ele>225</ele>
        <time>2011-06-26T14:10:10Z</time>
      </trkpt>
      <trkpt lat="44.07692" lon="1.67202">
        <ele>225</ele>
        <time>2011-06-26T14:10:12Z</time>
      </trkpt>
      <trkpt lat="44.07697" lon="1.67212">
        <ele>226</ele>
        <time>2011-06-26T14:10:14Z</time>
      </trkpt>
      <trkpt lat="44.07703" lon="1.67222">
        <ele>226</ele>
        <time>2011-06-26T14:10:16Z</time>
      </trkpt>
      <trkpt lat="44.0771" lon="1.67232">
        <ele>226</ele>
        <time>2011-06-26T14:10:18Z</time>
      </trkpt>
      <trkpt lat="44.07717" lon="1.67241">
        <ele>227</ele>
        <time>2011-06-26T14:10:20Z</time>
      </trkpt>
      <trkpt lat="44.07726" lon="1.67248">
        <ele>227</ele>
        <time>2011-06-26T14:10:22Z</time>
      </trkpt>
      <trkpt lat="44.07735" lon="1.67255">
        <ele>227</ele>
        <time>2011-06-26T14:10:24Z</time>
      </trkpt>
      <trkpt lat="44.07744" lon="1.67263">
        <ele>227</ele>
        <time>2011-06-26T14:10:26Z</time>
      </trkpt>
      <trkpt lat="44.07753" lon="1.67272">
        <ele>227</ele>
        <time>2011-06-26T14:10:28Z</time>
      </trkpt>
      <trkpt lat="44.07763" lon="1.6728">
        <ele>228</ele>
        <time>2011-06-26T14:10:30Z</time>
      </trkpt>
      <trkpt lat="44.07772" lon="1.67288">
        <ele>228</ele>
        <time>2011-06-26T14:10:32Z</time>
      </trkpt>
      <trkpt lat="44.07782" lon="1.67297">
        <ele>228</ele>
        <time>2011-06-26T14:10:34Z</time>
      </trkpt>
      <trkpt lat="44.0779" lon="1.67308">
        <ele>228</ele>
        <time>2011-06-26T14:10:36Z</time>
      </trkpt>
      <trkpt lat="44.07798" lon="1.67321">
        <ele>228</ele>
        <time>2011-06-26T14:10:38Z</time>
      </trkpt>
      <trkpt lat="44.07803" lon="1.67334">
        <ele>228</ele>
        <time>2011-06-26T14:10:40Z</time>
      </trkpt>
      <trkpt lat="44.07807" lon="1.67347">
        <ele>229</ele>
        <time>2011-06-26T14:10:42Z</time>
      </trkpt>
      <trkpt lat="44.07814" lon="1.67356">
        <ele>229</ele>
        <time>2011-06-26T14:10:44Z</time>
      </trkpt>
      <trkpt lat="44.07822" lon="1.67361">
        <ele>229</ele>
        <time>2011-06-26T14:10:46Z</time>
      </trkpt>
      <trkpt lat="44.0783" lon="1.67364">
        <ele>229</ele>
        <time>2011-06-26T14:10:48Z</time>
      </trkpt>
      <trkpt lat="44.07837" lon="1.67369">
        <ele>229</ele>
        <time>2011-06-26T14:10:50Z</time>
      </trkpt>
      <trkpt lat="44.07845" lon="1.67375">
        <ele>229</ele>
        <time>2011-06-26T14:10:52Z</time>
      </trkpt>
      <trkpt lat="44.07851" lon="1.67381">
        <ele>229</ele>
        <time>2011-06-26T14:10:54Z</time>
      </trkpt>
      <trkpt lat="44.07859" lon="1.67389">
        <ele>229</ele>
        <time>2011-06-26T14:10:56Z</time>
      </trkpt>
      <trkpt lat="44.07867" lon="1.67396">
        <ele>229</ele>
        <time>2011-06-26T14:10:58Z</time>
      </trkpt>
      <trkpt lat="44.07873" lon="1.67403">
        <ele>229</ele>
        <time>2011-06-26T14:11:00Z</time>
      </trkpt>
      <trkpt lat="44.0788" lon="1.67413">
        <ele>229</ele>
        <time>2011-06-26T14:11:02Z</time>
      </trkpt>
      <trkpt lat="44.07885" lon="1.67424">
        <ele>229</ele>
        <time>2011-06-26T14:11:04Z</time>
      </trkpt>
      <trkpt lat="44.0789" lon="1.67434">
        <ele>229</ele>
        <time>2011-06-26T14:11:06Z</time>
      </trkpt>
      <trkpt lat="44.07897" lon="1.67444">
        <ele>229</ele>
        <time>2011-06-26T14:11:08Z</time>
      </trkpt>
      <trkpt lat="44.07905" lon="1.67451">
        <ele>229</ele>
        <time>2011-06-26T14:11:10Z</time>
      </trkpt>
      <trkpt lat="44.07914" lon="1.67457">
        <ele>229</ele>
        <time>2011-06-26T14:11:12Z</time>
      </trkpt>
      <trkpt lat="44.07922" lon="1.67461">
        <ele>229</ele>
        <time>2011-06-26T14:11:14Z</time>
      </trkpt>
      <trkpt lat="44.0793" lon="1.67466">
        <ele>229</ele>
        <time>2011-06-26T14:11:16Z</time>
      </trkpt>
      <trkpt lat="44.07939" lon="1.67471">
        <ele>229</ele>
        <time>2011-06-26T14:11:18Z</time>
      </trkpt>
      <trkpt lat="44.07948" lon="1.67476">
        <ele>229</ele>
        <time>2011-06-26T14:11:20Z</time>
      </trkpt>
      <trkpt lat="44.07957" lon="1.67482">
        <ele>229</ele>
        <time>2011-06-26T14:11:22Z</time>
      </trkpt>
      <trkpt lat="44.07966" lon="1.67487">
        <ele>229</ele>
        <time>2011-06-26T14:11:24Z</time>
      </trkpt>
      <trkpt lat="44.07975" lon="1.67491">
        <ele>229</ele>
        <time>2011-06-26T14:11:26Z</time>
      </trkpt>
      <trkpt lat="44.07984" lon="1.67497">
        <ele>229</ele>
        <time>2011-06-26T14:11:28Z</time>
      </trkpt>
      <trkpt lat="44.07992" lon="1.67502">
        <ele>229</ele>
        <time>2011-06-26T14:11:30Z</time>
      </trkpt>
      <trkpt lat="44.08" lon="1.67507">
        <ele>229</ele>
        <time>2011-06-26T14:11:32Z</time>
      </trkpt>
      <trkpt lat="44.08007" lon="1.67514">
        <ele>229</ele>
        <time>2011-06-26T14:11:34Z</time>
      </trkpt>
      <trkpt lat="44.08014" lon="1.67522">
        <ele>229</ele>
        <time>2011-06-26T14:11:36Z</time>
      </trkpt>
      <trkpt lat="44.0802" lon="1.67532">
        <ele>229</ele>
        <time>2011-06-26T14:11:38Z</time>
      </trkpt>
      <trkpt lat="44.08026" lon="1.67542">
        <ele>229</ele>
        <time>2011-06-26T14:11:40Z</time>
      </trkpt>
      <trkpt lat="44.08033" lon="1.67552">
        <ele>230</ele>
        <time>2011-06-26T14:11:42Z</time>
      </trkpt>
      <trkpt lat="44.08038" lon="1.67561">
        <ele>231</ele>
        <time>2011-06-26T14:11:44Z</time>
      </trkpt>
      <trkpt lat="44.08043" lon="1.6757">
        <ele>232</ele>
        <time>2011-06-26T14:11:46Z</time>
      </trkpt>
      <trkpt lat="44.08045" lon="1.67582">
        <ele>233</ele>
        <time>2011-06-26T14:11:48Z</time>
      </trkpt>
      <trkpt lat="44.08044" lon="1.67595">
        <ele>234</ele>
        <time>2011-06-26T14:11:50Z</time>
      </trkpt>
      <trkpt lat="44.08043" lon="1.67607">
        <ele>235</ele>
        <time>2011-06-26T14:11:52Z</time>
      </trkpt>
      <trkpt lat="44.08045" lon="1.67617">
        <ele>236</ele>
        <time>2011-06-26T14:11:54Z</time>
      </trkpt>
      <trkpt lat="44.08053" lon="1.6762">
        <ele>237</ele>
        <time>2011-06-26T14:11:56Z</time>
      </trkpt>
      <trkpt lat="44.08062" lon="1.6762">
        <ele>237</ele>
        <time>2011-06-26T14:11:58Z</time>
      </trkpt>
      <trkpt lat="44.08072" lon="1.67621">
        <ele>237</ele>
        <time>2011-06-26T14:12:00Z</time>
      </trkpt>
      <trkpt lat="44.08081" lon="1.67621">
        <ele>237</ele>
        <time>2011-06-26T14:12:02Z</time>
      </trkpt>
      <trkpt lat="44.0809" lon="1.67621">
        <ele>237</ele>
        <time>2011-06-26T14:12:04Z</time>
      </trkpt>
      <trkpt lat="44.081" lon="1.6762">
        <ele>237</ele>
        <time>2011-06-26T14:12:06Z</time>
      </trkpt>
      <trkpt lat="44.08109" lon="1.6762">
        <ele>237</ele>
        <time>2011-06-26T14:12:08Z</time>
      </trkpt>
      <trkpt lat="44.0812" lon="1.67619">
        <ele>237</ele>
        <time>2011-06-26T14:12:10Z</time>
      </trkpt>
      <trkpt lat="44.08131" lon="1.67619">
        <ele>236</ele>
        <time>2011-06-26T14:12:12Z</time>
      </trkpt>
      <trkpt lat="44.08141" lon="1.67617">
        <ele>235</ele>
        <time>2011-06-26T14:12:14Z</time>
      </trkpt>
      <trkpt lat="44.08152" lon="1.67615">
        <ele>234</ele>
        <time>2011-06-26T14:12:16Z</time>
      </trkpt>
      <trkpt lat="44.08163" lon="1.67613">
        <ele>234</ele>
        <time>2011-06-26T14:12:18Z</time>
      </trkpt>
      <trkpt lat="44.08175" lon="1.67608">
        <ele>234</ele>
        <time>2011-06-26T14:12:20Z</time>
      </trkpt>
      <trkpt lat="44.08186" lon="1.67604">
        <ele>234</ele>
        <time>2011-06-26T14:12:22Z</time>
      </trkpt>
      <trkpt lat="44.08197" lon="1.67599">
        <ele>234</ele>
        <time>2011-06-26T14:12:24Z</time>
      </trkpt>
      <trkpt lat="44.08208" lon="1.67594">
        <ele>234</ele>
        <time>2011-06-26T14:12:26Z</time>
      </trkpt>
      <trkpt lat="44.08219" lon="1.67589">
        <ele>234</ele>
        <time>2011-06-26T14:12:28Z</time>
      </trkpt>
      <trkpt lat="44.08231" lon="1.67587">
        <ele>234</ele>
        <time>2011-06-26T14:12:30Z</time>
      </trkpt>
      <trkpt lat="44.08242" lon="1.67589">
        <ele>234</ele>
        <time>2011-06-26T14:12:32Z</time>
      </trkpt>
      <trkpt lat="44.08253" lon="1.67593">
        <ele>234</ele>
        <time>2011-06-26T14:12:34Z</time>
      </trkpt>
      <trkpt lat="44.08264" lon="1.676">
        <ele>234</ele>
        <time>2011-06-26T14:12:36Z</time>
      </trkpt>
      <trkpt lat="44.08274" lon="1.67608">
        <ele>234</ele>
        <time>2011-06-26T14:12:38Z</time>
      </trkpt>
      <trkpt lat="44.08284" lon="1.67615">
        <ele>234</ele>
        <time>2011-06-26T14:12:40Z</time>
      </trkpt>
      <trkpt lat="44.08294" lon="1.67622">
        <ele>234</ele>
        <time>2011-06-26T14:12:42Z</time>
      </trkpt>
      <trkpt lat="44.08304" lon="1.67627">
        <ele>234</ele>
        <time>2011-06-26T14:12:44Z</time>
      </trkpt>
      <trkpt lat="44.08314" lon="1.67631">
        <ele>234</ele>
        <time>2011-06-26T14:12:46Z</time>
      </trkpt>
      <trkpt lat="44.08324" lon="1.67635">
        <ele>234</ele>
        <time>2011-06-26T14:12:48Z</time>
      </trkpt>
      <trkpt lat="44.08334" lon="1.67638">
        <ele>234</ele>
        <time>2011-06-26T14:12:50Z</time>
      </trkpt>
      <trkpt lat="44.08341" lon="1.67634">
        <ele>234</ele>
        <time>2011-06-26T14:12:52Z</time>
      </trkpt>
      <trkpt lat="44.08346" lon="1.67628">
        <ele>234</ele>
        <time>2011-06-26T14:12:54Z</time>
      </trkpt>
      <trkpt lat="44.08351" lon="1.6762">
        <ele>234</ele>
        <time>2011-06-26T14:12:56Z</time>
      </trkpt>
      <trkpt lat="44.08356" lon="1.67613">
        <ele>234</ele>
        <time>2011-06-26T14:12:58Z</time>
      </trkpt>
      <trkpt lat="44.08362" lon="1.67604">
        <ele>234</ele>
        <time>2011-06-26T14:13:00Z</time>
      </trkpt>
      <trkpt lat="44.08368" lon="1.67595">
        <ele>234</ele>
        <time>2011-06-26T14:13:02Z</time>
      </trkpt>
      <trkpt lat="44.08372" lon="1.67584">
        <ele>234</ele>
        <time>2011-06-26T14:13:04Z</time>
      </trkpt>
      <trkpt lat="44.08378" lon="1.67574">
        <ele>234</ele>
        <time>2011-06-26T14:13:06Z</time>
      </trkpt>
      <trkpt lat="44.08385" lon="1.67563">
        <ele>234</ele>
        <time>2011-06-26T14:13:08Z</time>
      </trkpt>
      <trkpt lat="44.08392" lon="1.67554">
        <ele>234</ele>
        <time>2011-06-26T14:13:10Z</time>
      </trkpt>
      <trkpt lat="44.08398" lon="1.67545">
        <ele>234</ele>
        <time>2011-06-26T14:13:12Z</time>
      </trkpt>
      <trkpt lat="44.08406" lon="1.67535">
        <ele>234</ele>
        <time>2011-06-26T14:13:14Z</time>
      </trkpt>
      <trkpt lat="44.08411" lon="1.67525">
        <ele>234</ele>
        <time>2011-06-26T14:13:16Z</time>
      </trkpt>
      <trkpt lat="44.08418" lon="1.67513">
        <ele>234</ele>
        <time>2011-06-26T14:13:18Z</time>
      </trkpt>
      <trkpt lat="44.08424" lon="1.67501">
        <ele>233</ele>
        <time>2011-06-26T14:13:20Z</time>
      </trkpt>
      <trkpt lat="44.0843" lon="1.67491">
        <ele>232</ele>
        <time>2011-06-26T14:13:22Z</time>
      </trkpt>
      <trkpt lat="44.08435" lon="1.6748">
        <ele>231</ele>
        <time>2011-06-26T14:13:24Z</time>
      </trkpt>
      <trkpt lat="44.08438" lon="1.67468">
        <ele>230</ele>
        <time>2011-06-26T14:13:26Z</time>
      </trkpt>
      <trkpt lat="44.08441" lon="1.67454">
        <ele>230</ele>
        <time>2011-06-26T14:13:28Z</time>
      </trkpt>
      <trkpt lat="44.08444" lon="1.67439">
        <ele>229</ele>
        <time>2011-06-26T14:13:30Z</time>
      </trkpt>
      <trkpt lat="44.08446" lon="1.67423">
        <ele>229</ele>
        <time>2011-06-26T14:13:32Z</time>
      </trkpt>
      <trkpt lat="44.0845" lon="1.67406">
        <ele>229</ele>
        <time>2011-06-26T14:13:34Z</time>
      </trkpt>
      <trkpt lat="44.08453" lon="1.67391">
        <ele>229</ele>
        <time>2011-06-26T14:13:36Z</time>
      </trkpt>
      <trkpt lat="44.08456" lon="1.67375">
        <ele>228</ele>
        <time>2011-06-26T14:13:38Z</time>
      </trkpt>
      <trkpt lat="44.08461" lon="1.67361">
        <ele>228</ele>
        <time>2011-06-26T14:13:40Z</time>
      </trkpt>
      <trkpt lat="44.08466" lon="1.67349">
        <ele>227</ele>
        <time>2011-06-26T14:13:42Z</time>
      </trkpt>
      <trkpt lat="44.08469" lon="1.67334">
        <ele>227</ele>
        <time>2011-06-26T14:13:44Z</time>
      </trkpt>
      <trkpt lat="44.0847" lon="1.67318">
        <ele>227</ele>
        <time>2011-06-26T14:13:46Z</time>
      </trkpt>
      <trkpt lat="44.08472" lon="1.67303">
        <ele>227</ele>
        <time>2011-06-26T14:13:48Z</time>
      </trkpt>
      <trkpt lat="44.08473" lon="1.67287">
        <ele>227</ele>
        <time>2011-06-26T14:13:50Z</time>
      </trkpt>
      <trkpt lat="44.08472" lon="1.67271">
        <ele>226</ele>
        <time>2011-06-26T14:13:52Z</time>
      </trkpt>
      <trkpt lat="44.08469" lon="1.67257">
        <ele>226</ele>
        <time>2011-06-26T14:13:54Z</time>
      </trkpt>
      <trkpt lat="44.08466" lon="1.67245">
        <ele>225</ele>
        <time>2011-06-26T14:13:56Z</time>
      </trkpt>
      <trkpt lat="44.08458" lon="1.67237">
        <ele>224</ele>
        <time>2011-06-26T14:13:58Z</time>
      </trkpt>
      <trkpt lat="44.08451" lon="1.67234">
        <ele>223</ele>
        <time>2011-06-26T14:14:00Z</time>
      </trkpt>
      <trkpt lat="44.08444" lon="1.6723">
        <ele>221</ele>
        <time>2011-06-26T14:14:02Z</time>
      </trkpt>
      <trkpt lat="44.0844" lon="1.67219">
        <ele>220</ele>
        <time>2011-06-26T14:14:04Z</time>
      </trkpt>
      <trkpt lat="44.08441" lon="1.67207">
        <ele>219</ele>
        <time>2011-06-26T14:14:06Z</time>
      </trkpt>
      <trkpt lat="44.08444" lon="1.67194">
        <ele>217</ele>
        <time>2011-06-26T14:14:08Z</time>
      </trkpt>
      <trkpt lat="44.08448" lon="1.67181">
        <ele>216</ele>
        <time>2011-06-26T14:14:10Z</time>
      </trkpt>
      <trkpt lat="44.08451" lon="1.67166">
        <ele>214</ele>
        <time>2011-06-26T14:14:12Z</time>
      </trkpt>
      <trkpt lat="44.08455" lon="1.67151">
        <ele>213</ele>
        <time>2011-06-26T14:14:14Z</time>
      </trkpt>
      <trkpt lat="44.0846" lon="1.67139">
        <ele>212</ele>
        <time>2011-06-26T14:14:16Z</time>
      </trkpt>
      <trkpt lat="44.08465" lon="1.67127">
        <ele>210</ele>
        <time>2011-06-26T14:14:18Z</time>
      </trkpt>
      <trkpt lat="44.08471" lon="1.67115">
        <ele>208</ele>
        <time>2011-06-26T14:14:20Z</time>
      </trkpt>
      <trkpt lat="44.08477" lon="1.67104">
        <ele>207</ele>
        <time>2011-06-26T14:14:22Z</time>
      </trkpt>
      <trkpt lat="44.08482" lon="1.67094">
        <ele>205</ele>
        <time>2011-06-26T14:14:24Z</time>
      </trkpt>
      <trkpt lat="44.08485" lon="1.67083">
        <ele>203</ele>
        <time>2011-06-26T14:14:26Z</time>
      </trkpt>
      <trkpt lat="44.08486" lon="1.67073">
        <ele>201</ele>
        <time>2011-06-26T14:14:28Z</time>
      </trkpt>
      <trkpt lat="44.08487" lon="1.67061">
        <ele>199</ele>
        <time>2011-06-26T14:14:30Z</time>
      </trkpt>
      <trkpt lat="44.08488" lon="1.67049">
        <ele>197</ele>
        <time>2011-06-26T14:14:32Z</time>
      </trkpt>
      <trkpt lat="44.08488" lon="1.67037">
        <ele>196</ele>
        <time>2011-06-26T14:14:34Z</time>
      </trkpt>
      <trkpt lat="44.08486" lon="1.67025">
        <ele>194</ele>
        <time>2011-06-26T14:14:36Z</time>
      </trkpt>
      <trkpt lat="44.08476" lon="1.67019">
        <ele>192</ele>
        <time>2011-06-26T14:14:38Z</time>
      </trkpt>
      <trkpt lat="44.08468" lon="1.67019">
        <ele>191</ele>
        <time>2011-06-26T14:14:40Z</time>
      </trkpt>
      <trkpt lat="44.08465" lon="1.67025">
        <ele>189</ele>
        <time>2011-06-26T14:14:42Z</time>
      </trkpt>
      <trkpt lat="44.08465" lon="1.67034">
        <ele>187</ele>
        <time>2011-06-26T14:14:44Z</time>
      </trkpt>
      <trkpt lat="44.08464" lon="1.67045">
        <ele>185</ele>
        <time>2011-06-26T14:14:46Z</time>
      </trkpt>
      <trkpt lat="44.08464" lon="1.67057">
        <ele>183</ele>
        <time>2011-06-26T14:14:48Z</time>
      </trkpt>
      <trkpt lat="44.08462" lon="1.67071">
        <ele>181</ele>
        <time>2011-06-26T14:14:50Z</time>
      </trkpt>
      <trkpt lat="44.08459" lon="1.67084">
        <ele>180</ele>
        <time>2011-06-26T14:14:52Z</time>
      </trkpt>
      <trkpt lat="44.08458" lon="1.67093">
        <ele>180</ele>
        <time>2011-06-26T14:14:54Z</time>
      </trkpt>
      <trkpt lat="44.08456" lon="1.671">
        <ele>180</ele>
        <time>2011-06-26T14:14:56Z</time>
      </trkpt>
      <trkpt lat="44.0845" lon="1.671">
        <ele>180</ele>
        <time>2011-06-26T14:14:58Z</time>
      </trkpt>
      <trkpt lat="44.08447" lon="1.67098">
        <ele>180</ele>
        <time>2011-06-26T14:15:00Z</time>
      </trkpt>
      <trkpt lat="44.08447" lon="1.6709">
        <ele>180</ele>
        <time>2011-06-26T14:15:02Z</time>
      </trkpt>
      <trkpt lat="44.08449" lon="1.67081">
        <ele>180</ele>
        <time>2011-06-26T14:15:04Z</time>
      </trkpt>
      <trkpt lat="44.08449" lon="1.67072">
        <ele>180</ele>
        <time>2011-06-26T14:15:06Z</time>
      </trkpt>
      <trkpt lat="44.08448" lon="1.67066">
        <ele>180</ele>
        <time>2011-06-26T14:15:08Z</time>
      </trkpt>
      <trkpt lat="44.08448" lon="1.67064">
        <ele>180</ele>
        <time>2011-06-26T14:15:11Z</time>
      </trkpt>
      <trkpt lat="44.0845" lon="1.67064">
        <ele>180</ele>
        <time>2011-06-26T14:15:13Z</time>
      </trkpt>
      <trkpt lat="44.08449" lon="1.67064">
        <ele>180</ele>
        <time>2011-06-26T14:15:16Z</time>
      </trkpt>
      <trkpt lat="44.08448" lon="1.67064">
        <ele>180</ele>
        <time>2011-06-26T14:15:20Z</time>
      </trkpt>
      <trkpt lat="44.08446" lon="1.67063">
        <ele>180</ele>
        <time>2011-06-26T14:15:22Z</time>
      </trkpt>
      <trkpt lat="44.08445" lon="1.67063">
        <ele>181</ele>
        <time>2011-06-26T14:15:24Z</time>
      </trkpt>
      <trkpt lat="44.08444" lon="1.6706">
        <ele>182</ele>
        <time>2011-06-26T14:15:27Z</time>
      </trkpt>
      <trkpt lat="44.08445" lon="1.67055">
        <ele>183</ele>
        <time>2011-06-26T14:15:29Z</time>
      </trkpt>
      <trkpt lat="44.08445" lon="1.67048">
        <ele>184</ele>
        <time>2011-06-26T14:15:31Z</time>
      </trkpt>
      <trkpt lat="44.08444" lon="1.67038">
        <ele>184</ele>
        <time>2011-06-26T14:15:33Z</time>
      </trkpt>
      <trkpt lat="44.08444" lon="1.67026">
        <ele>184</ele>
        <time>2011-06-26T14:15:35Z</time>
      </trkpt>
      <trkpt lat="44.08443" lon="1.67013">
        <ele>184</ele>
        <time>2011-06-26T14:15:37Z</time>
      </trkpt>
      <trkpt lat="44.08444" lon="1.67">
        <ele>184</ele>
        <time>2011-06-26T14:15:39Z</time>
      </trkpt>
      <trkpt lat="44.08452" lon="1.66987">
        <ele>184</ele>
        <time>2011-06-26T14:15:41Z</time>
      </trkpt>
      <trkpt lat="44.08457" lon="1.66976">
        <ele>184</ele>
        <time>2011-06-26T14:15:43Z</time>
      </trkpt>
      <trkpt lat="44.0846" lon="1.66963">
        <ele>183</ele>
        <time>2011-06-26T14:15:45Z</time>
      </trkpt>
      <trkpt lat="44.08462" lon="1.66949">
        <ele>182</ele>
        <time>2011-06-26T14:15:47Z</time>
      </trkpt>
      <trkpt lat="44.08464" lon="1.66938">
        <ele>182</ele>
        <time>2011-06-26T14:15:49Z</time>
      </trkpt>
      <trkpt lat="44.08467" lon="1.66931">
        <ele>181</ele>
        <time>2011-06-26T14:15:51Z</time>
      </trkpt>
      <trkpt lat="44.08471" lon="1.66927">
        <ele>180</ele>
        <time>2011-06-26T14:15:53Z</time>
      </trkpt>
      <trkpt lat="44.08476" lon="1.66924">
        <ele>178</ele>
        <time>2011-06-26T14:15:55Z</time>
      </trkpt>
      <trkpt lat="44.08483" lon="1.66924">
        <ele>176</ele>
        <time>2011-06-26T14:15:57Z</time>
      </trkpt>
      <trkpt lat="44.08489" lon="1.66921">
        <ele>175</ele>
        <time>2011-06-26T14:15:59Z</time>
      </trkpt>
      <trkpt lat="44.08491" lon="1.66915">
        <ele>173</ele>
        <time>2011-06-26T14:16:01Z</time>
      </trkpt>
      <trkpt lat="44.08489" lon="1.66909">
        <ele>173</ele>
        <time>2011-06-26T14:16:03Z</time>
      </trkpt>
      <trkpt lat="44.08485" lon="1.66904">
        <ele>172</ele>
        <time>2011-06-26T14:16:05Z</time>
      </trkpt>
      <trkpt lat="44.08477" lon="1.66903">
        <ele>172</ele>
        <time>2011-06-26T14:16:07Z</time>
      </trkpt>
      <trkpt lat="44.08467" lon="1.66903">
        <ele>172</ele>
        <time>2011-06-26T14:16:09Z</time>
      </trkpt>
      <trkpt lat="44.08459" lon="1.66902">
        <ele>172</ele>
        <time>2011-06-26T14:16:11Z</time>
      </trkpt>
      <trkpt lat="44.0845" lon="1.669">
        <ele>172</ele>
        <time>2011-06-26T14:16:13Z</time>
      </trkpt>
      <trkpt lat="44.0844" lon="1.66897">
        <ele>171</ele>
        <time>2011-06-26T14:16:15Z</time>
      </trkpt>
      <trkpt lat="44.08431" lon="1.66893">
        <ele>170</ele>
        <time>2011-06-26T14:16:17Z</time>
      </trkpt>
      <trkpt lat="44.08422" lon="1.66887">
        <ele>168</ele>
        <time>2011-06-26T14:16:19Z</time>
      </trkpt>
      <trkpt lat="44.08411" lon="1.66883">
        <ele>168</ele>
        <time>2011-06-26T14:16:21Z</time>
      </trkpt>
      <trkpt lat="44.08401" lon="1.66879">
        <ele>168</ele>
        <time>2011-06-26T14:16:23Z</time>
      </trkpt>
      <trkpt lat="44.08389" lon="1.66875">
        <ele>168</ele>
        <time>2011-06-26T14:16:25Z</time>
      </trkpt>
      <trkpt lat="44.08379" lon="1.66872">
        <ele>168</ele>
        <time>2011-06-26T14:16:27Z</time>
      </trkpt>
      <trkpt lat="44.08371" lon="1.66873">
        <ele>168</ele>
        <time>2011-06-26T14:16:29Z</time>
      </trkpt>
      <trkpt lat="44.08363" lon="1.66876">
        <ele>168</ele>
        <time>2011-06-26T14:16:31Z</time>
      </trkpt>
      <trkpt lat="44.08354" lon="1.66882">
        <ele>169</ele>
        <time>2011-06-26T14:16:33Z</time>
      </trkpt>
      <trkpt lat="44.08342" lon="1.66891">
        <ele>171</ele>
        <time>2011-06-26T14:16:35Z</time>
      </trkpt>
      <trkpt lat="44.0833" lon="1.669">
        <ele>173</ele>
        <time>2011-06-26T14:16:37Z</time>
      </trkpt>
      <trkpt lat="44.08319" lon="1.6691">
        <ele>175</ele>
        <time>2011-06-26T14:16:39Z</time>
      </trkpt>
      <trkpt lat="44.08308" lon="1.6692">
        <ele>175</ele>
        <time>2011-06-26T14:16:41Z</time>
      </trkpt>
      <trkpt lat="44.08297" lon="1.66928">
        <ele>175</ele>
        <time>2011-06-26T14:16:43Z</time>
      </trkpt>
      <trkpt lat="44.08288" lon="1.66932">
        <ele>175</ele>
        <time>2011-06-26T14:16:45Z</time>
      </trkpt>
      <trkpt lat="44.08281" lon="1.66929">
        <ele>175</ele>
        <time>2011-06-26T14:16:47Z</time>
      </trkpt>
      <trkpt lat="44.08273" lon="1.66926">
        <ele>175</ele>
        <time>2011-06-26T14:16:49Z</time>
      </trkpt>
      <trkpt lat="44.08264" lon="1.66922">
        <ele>175</ele>
        <time>2011-06-26T14:16:51Z</time>
      </trkpt>
      <trkpt lat="44.08252" lon="1.6692">
        <ele>175</ele>
        <time>2011-06-26T14:16:53Z</time>
      </trkpt>
      <trkpt lat="44.08241" lon="1.66921">
        <ele>174</ele>
        <time>2011-06-26T14:16:55Z</time>
      </trkpt>
      <trkpt lat="44.08229" lon="1.66917">
        <ele>174</ele>
        <time>2011-06-26T14:16:57Z</time>
      </trkpt>
      <trkpt lat="44.08218" lon="1.66908">
        <ele>173</ele>
        <time>2011-06-26T14:16:59Z</time>
      </trkpt>
      <trkpt lat="44.08212" lon="1.66897">
        <ele>171</ele>
        <time>2011-06-26T14:17:01Z</time>
      </trkpt>
      <trkpt lat="44.08206" lon="1.6689">
        <ele>169</ele>
        <time>2011-06-26T14:17:03Z</time>
      </trkpt>
      <trkpt lat="44.08205" lon="1.66889">
        <ele>168</ele>
        <time>2011-06-26T14:17:05Z</time>
      </trkpt>
      <trkpt lat="44.08206" lon="1.66887">
        <ele>167</ele>
        <time>2011-06-26T14:17:07Z</time>
      </trkpt>
      <trkpt lat="44.08206" lon="1.66883">
        <ele>166</ele>
        <time>2011-06-26T14:17:09Z</time>
      </trkpt>
      <trkpt lat="44.08207" lon="1.66876">
        <ele>165</ele>
        <time>2011-06-26T14:17:11Z</time>
      </trkpt>
      <trkpt lat="44.08206" lon="1.66868">
        <ele>165</ele>
        <time>2011-06-26T14:17:13Z</time>
      </trkpt>
      <trkpt lat="44.08206" lon="1.66861">
        <ele>165</ele>
        <time>2011-06-26T14:17:15Z</time>
      </trkpt>
      <trkpt lat="44.08206" lon="1.66853">
        <ele>165</ele>
        <time>2011-06-26T14:17:17Z</time>
      </trkpt>
      <trkpt lat="44.08206" lon="1.66846">
        <ele>165</ele>
        <time>2011-06-26T14:17:19Z</time>
      </trkpt>
      <trkpt lat="44.08206" lon="1.66838">
        <ele>165</ele>
        <time>2011-06-26T14:17:21Z</time>
      </trkpt>
      <trkpt lat="44.08207" lon="1.66831">
        <ele>165</ele>
        <time>2011-06-26T14:17:23Z</time>
      </trkpt>
      <trkpt lat="44.08209" lon="1.66824">
        <ele>165</ele>
        <time>2011-06-26T14:17:25Z</time>
      </trkpt>
      <trkpt lat="44.08211" lon="1.66816">
        <ele>165</ele>
        <time>2011-06-26T14:17:27Z</time>
      </trkpt>
      <trkpt lat="44.08214" lon="1.6681">
        <ele>165</ele>
        <time>2011-06-26T14:17:29Z</time>
      </trkpt>
      <trkpt lat="44.08214" lon="1.66804">
        <ele>165</ele>
        <time>2011-06-26T14:17:31Z</time>
      </trkpt>
      <trkpt lat="44.0821" lon="1.668">
        <ele>165</ele>
        <time>2011-06-26T14:17:33Z</time>
      </trkpt>
      <trkpt lat="44.08203" lon="1.66799">
        <ele>165</ele>
        <time>2011-06-26T14:17:35Z</time>
      </trkpt>
      <trkpt lat="44.08194" lon="1.66798">
        <ele>165</ele>
        <time>2011-06-26T14:17:37Z</time>
      </trkpt>
      <trkpt lat="44.08187" lon="1.6679">
        <ele>165</ele>
        <time>2011-06-26T14:17:39Z</time>
      </trkpt>
      <trkpt lat="44.08181" lon="1.66782">
        <ele>165</ele>
        <time>2011-06-26T14:17:41Z</time>
      </trkpt>
      <trkpt lat="44.08172" lon="1.66779">
        <ele>164</ele>
        <time>2011-06-26T14:17:43Z</time>
      </trkpt>
      <trkpt lat="44.0816" lon="1.66784">
        <ele>164</ele>
        <time>2011-06-26T14:17:45Z</time>
      </trkpt>
      <trkpt lat="44.0815" lon="1.66787">
        <ele>164</ele>
        <time>2011-06-26T14:17:47Z</time>
      </trkpt>
      <trkpt lat="44.0814" lon="1.66788">
        <ele>164</ele>
        <time>2011-06-26T14:17:49Z</time>
      </trkpt>
      <trkpt lat="44.0813" lon="1.66789">
        <ele>164</ele>
        <time>2011-06-26T14:17:51Z</time>
      </trkpt>
      <trkpt lat="44.0812" lon="1.6679">
        <ele>164</ele>
        <time>2011-06-26T14:17:53Z</time>
      </trkpt>
      <trkpt lat="44.0811" lon="1.6679">
        <ele>162</ele>
        <time>2011-06-26T14:17:55Z</time>
      </trkpt>
      <trkpt lat="44.08102" lon="1.66786">
        <ele>161</ele>
        <time>2011-06-26T14:17:57Z</time>
      </trkpt>
      <trkpt lat="44.08093" lon="1.66782">
        <ele>161</ele>
        <time>2011-06-26T14:17:59Z</time>
      </trkpt>
      <trkpt lat="44.08084" lon="1.66778">
        <ele>161</ele>
        <time>2011-06-26T14:18:01Z</time>
      </trkpt>
      <trkpt lat="44.08075" lon="1.66774">
        <ele>161</ele>
        <time>2011-06-26T14:18:03Z</time>
      </trkpt>
      <trkpt lat="44.08067" lon="1.6677">
        <ele>161</ele>
        <time>2011-06-26T14:18:05Z</time>
      </trkpt>
      <trkpt lat="44.08059" lon="1.66767">
        <ele>161</ele>
        <time>2011-06-26T14:18:07Z</time>
      </trkpt>
      <trkpt lat="44.0805" lon="1.66764">
        <ele>161</ele>
        <time>2011-06-26T14:18:09Z</time>
      </trkpt>
      <trkpt lat="44.08038" lon="1.66761">
        <ele>161</ele>
        <time>2011-06-26T14:18:11Z</time>
      </trkpt>
      <trkpt lat="44.08026" lon="1.66758">
        <ele>161</ele>
        <time>2011-06-26T14:18:13Z</time>
      </trkpt>
      <trkpt lat="44.08017" lon="1.66753">
        <ele>161</ele>
        <time>2011-06-26T14:18:15Z</time>
      </trkpt>
      <trkpt lat="44.08009" lon="1.66747">
        <ele>161</ele>
        <time>2011-06-26T14:18:17Z</time>
      </trkpt>
      <trkpt lat="44.08002" lon="1.66737">
        <ele>161</ele>
        <time>2011-06-26T14:18:19Z</time>
      </trkpt>
      <trkpt lat="44.07994" lon="1.66724">
        <ele>161</ele>
        <time>2011-06-26T14:18:21Z</time>
      </trkpt>
      <trkpt lat="44.07987" lon="1.66709">
        <ele>161</ele>
        <time>2011-06-26T14:18:23Z</time>
      </trkpt>
      <trkpt lat="44.07978" lon="1.66694">
        <ele>161</ele>
        <time>2011-06-26T14:18:25Z</time>
      </trkpt>
      <trkpt lat="44.07968" lon="1.66678">
        <ele>161</ele>
        <time>2011-06-26T14:18:27Z</time>
      </trkpt>
      <trkpt lat="44.07959" lon="1.66663">
        <ele>161</ele>
        <time>2011-06-26T14:18:29Z</time>
      </trkpt>
      <trkpt lat="44.07951" lon="1.66646">
        <ele>161</ele>
        <time>2011-06-26T14:18:31Z</time>
      </trkpt>
      <trkpt lat="44.07945" lon="1.66629">
        <ele>160</ele>
        <time>2011-06-26T14:18:33Z</time>
      </trkpt>
      <trkpt lat="44.07941" lon="1.66622">
        <ele>160</ele>
        <time>2011-06-26T14:18:35Z</time>
      </trkpt>
      <trkpt lat="44.07935" lon="1.66624">
        <ele>160</ele>
        <time>2011-06-26T14:18:37Z</time>
      </trkpt>
      <trkpt lat="44.07928" lon="1.66627">
        <ele>159</ele>
        <time>2011-06-26T14:18:39Z</time>
      </trkpt>
      <trkpt lat="44.07919" lon="1.6663">
        <ele>159</ele>
        <time>2011-06-26T14:18:41Z</time>
      </trkpt>
      <trkpt lat="44.07912" lon="1.66632">
        <ele>159</ele>
        <time>2011-06-26T14:18:43Z</time>
      </trkpt>
      <trkpt lat="44.07904" lon="1.66632">
        <ele>159</ele>
        <time>2011-06-26T14:18:45Z</time>
      </trkpt>
      <trkpt lat="44.07898" lon="1.6663">
        <ele>159</ele>
        <time>2011-06-26T14:18:47Z</time>
      </trkpt>
      <trkpt lat="44.07894" lon="1.66629">
        <ele>159</ele>
        <time>2011-06-26T14:18:49Z</time>
      </trkpt>
      <trkpt lat="44.07892" lon="1.66627">
        <ele>159</ele>
        <time>2011-06-26T14:18:51Z</time>
      </trkpt>
      <trkpt lat="44.07889" lon="1.66622">
        <ele>159</ele>
        <time>2011-06-26T14:18:53Z</time>
      </trkpt>
      <trkpt lat="44.07886" lon="1.66616">
        <ele>159</ele>
        <time>2011-06-26T14:18:55Z</time>
      </trkpt>
      <trkpt lat="44.07884" lon="1.66608">
        <ele>159</ele>
        <time>2011-06-26T14:18:57Z</time>
      </trkpt>
      <trkpt lat="44.07882" lon="1.66599">
        <ele>159</ele>
        <time>2011-06-26T14:18:59Z</time>
      </trkpt>
      <trkpt lat="44.07878" lon="1.66588">
        <ele>159</ele>
        <time>2011-06-26T14:19:01Z</time>
      </trkpt>
      <trkpt lat="44.07875" lon="1.66576">
        <ele>159</ele>
        <time>2011-06-26T14:19:03Z</time>
      </trkpt>
      <trkpt lat="44.0787" lon="1.66562">
        <ele>157</ele>
        <time>2011-06-26T14:19:05Z</time>
      </trkpt>
      <trkpt lat="44.07863" lon="1.66553">
        <ele>156</ele>
        <time>2011-06-26T14:19:07Z</time>
      </trkpt>
      <trkpt lat="44.07851" lon="1.66555">
        <ele>154</ele>
        <time>2011-06-26T14:19:09Z</time>
      </trkpt>
      <trkpt lat="44.0784" lon="1.66559">
        <ele>152</ele>
        <time>2011-06-26T14:19:11Z</time>
      </trkpt>
      <trkpt lat="44.07828" lon="1.66562">
        <ele>150</ele>
        <time>2011-06-26T14:19:13Z</time>
      </trkpt>
      <trkpt lat="44.07816" lon="1.66567">
        <ele>149</ele>
        <time>2011-06-26T14:19:15Z</time>
      </trkpt>
      <trkpt lat="44.07806" lon="1.66573">
        <ele>149</ele>
        <time>2011-06-26T14:19:17Z</time>
      </trkpt>
      <trkpt lat="44.07797" lon="1.66578">
        <ele>149</ele>
        <time>2011-06-26T14:19:19Z</time>
      </trkpt>
      <trkpt lat="44.0779" lon="1.6658">
        <ele>149</ele>
        <time>2011-06-26T14:19:21Z</time>
      </trkpt>
      <trkpt lat="44.07789" lon="1.66579">
        <ele>149</ele>
        <time>2011-06-26T14:19:23Z</time>
      </trkpt>
      <trkpt lat="44.07785" lon="1.66578">
        <ele>149</ele>
        <time>2011-06-26T14:19:25Z</time>
      </trkpt>
      <trkpt lat="44.07782" lon="1.66579">
        <ele>149</ele>
        <time>2011-06-26T14:19:27Z</time>
      </trkpt>
      <trkpt lat="44.07781" lon="1.66584">
        <ele>149</ele>
        <time>2011-06-26T14:19:29Z</time>
      </trkpt>
      <trkpt lat="44.07779" lon="1.66589">
        <ele>149</ele>
        <time>2011-06-26T14:19:31Z</time>
      </trkpt>
      <trkpt lat="44.07774" lon="1.66591">
        <ele>149</ele>
        <time>2011-06-26T14:19:33Z</time>
      </trkpt>
      <trkpt lat="44.07771" lon="1.66594">
        <ele>149</ele>
        <time>2011-06-26T14:19:35Z</time>
      </trkpt>
      <trkpt lat="44.07766" lon="1.66597">
        <ele>149</ele>
        <time>2011-06-26T14:19:37Z</time>
      </trkpt>
      <trkpt lat="44.07761" lon="1.66601">
        <ele>149</ele>
        <time>2011-06-26T14:19:39Z</time>
      </trkpt>
      <trkpt lat="44.07754" lon="1.66605">
        <ele>149</ele>
        <time>2011-06-26T14:19:41Z</time>
      </trkpt>
      <trkpt lat="44.07747" lon="1.66605">
        <ele>149</ele>
        <time>2011-06-26T14:19:43Z</time>
      </trkpt>
      <trkpt lat="44.07737" lon="1.66604">
        <ele>149</ele>
        <time>2011-06-26T14:19:45Z</time>
      </trkpt>
      <trkpt lat="44.07728" lon="1.66606">
        <ele>150</ele>
        <time>2011-06-26T14:19:47Z</time>
      </trkpt>
      <trkpt lat="44.07719" lon="1.6661">
        <ele>152</ele>
        <time>2011-06-26T14:19:49Z</time>
      </trkpt>
      <trkpt lat="44.0771" lon="1.66618">
        <ele>154</ele>
        <time>2011-06-26T14:19:51Z</time>
      </trkpt>
      <trkpt lat="44.077" lon="1.66626">
        <ele>156</ele>
        <time>2011-06-26T14:19:53Z</time>
      </trkpt>
      <trkpt lat="44.07692" lon="1.66633">
        <ele>158</ele>
        <time>2011-06-26T14:19:55Z</time>
      </trkpt>
      <trkpt lat="44.07682" lon="1.66638">
        <ele>160</ele>
        <time>2011-06-26T14:19:57Z</time>
      </trkpt>
      <trkpt lat="44.07672" lon="1.66642">
        <ele>162</ele>
        <time>2011-06-26T14:19:59Z</time>
      </trkpt>
      <trkpt lat="44.0766" lon="1.66641">
        <ele>163</ele>
        <time>2011-06-26T14:20:01Z</time>
      </trkpt>
      <trkpt lat="44.07646" lon="1.66636">
        <ele>163</ele>
        <time>2011-06-26T14:20:03Z</time>
      </trkpt>
      <trkpt lat="44.0763" lon="1.6663">
        <ele>163</ele>
        <time>2011-06-26T14:20:05Z</time>
      </trkpt>
      <trkpt lat="44.07623" lon="1.66622">
        <ele>163</ele>
        <time>2011-06-26T14:20:07Z</time>
      </trkpt>
      <trkpt lat="44.07619" lon="1.66612">
        <ele>163</ele>
        <time>2011-06-26T14:20:09Z</time>
      </trkpt>
      <trkpt lat="44.07613" lon="1.66602">
        <ele>162</ele>
        <time>2011-06-26T14:20:11Z</time>
      </trkpt>
      <trkpt lat="44.07605" lon="1.66593">
        <ele>160</ele>
        <time>2011-06-26T14:20:13Z</time>
      </trkpt>
      <trkpt lat="44.07599" lon="1.66586">
        <ele>158</ele>
        <time>2011-06-26T14:20:15Z</time>
      </trkpt>
      <trkpt lat="44.07589" lon="1.66577">
        <ele>156</ele>
        <time>2011-06-26T14:20:17Z</time>
      </trkpt>
      <trkpt lat="44.07579" lon="1.66569">
        <ele>154</ele>
        <time>2011-06-26T14:20:19Z</time>
      </trkpt>
      <trkpt lat="44.07569" lon="1.66563">
        <ele>152</ele>
        <time>2011-06-26T14:20:21Z</time>
      </trkpt>
      <trkpt lat="44.0756" lon="1.66555">
        <ele>150</ele>
        <time>2011-06-26T14:20:23Z</time>
      </trkpt>
      <trkpt lat="44.07553" lon="1.66546">
        <ele>148</ele>
        <time>2011-06-26T14:20:25Z</time>
      </trkpt>
      <trkpt lat="44.07547" lon="1.66541">
        <ele>146</ele>
        <time>2011-06-26T14:20:27Z</time>
      </trkpt>
      <trkpt lat="44.07541" lon="1.66534">
        <ele>144</ele>
        <time>2011-06-26T14:20:29Z</time>
      </trkpt>
      <trkpt lat="44.07536" lon="1.66526">
        <ele>142</ele>
        <time>2011-06-26T14:20:31Z</time>
      </trkpt>
      <trkpt lat="44.0753" lon="1.66516">
        <ele>140</ele>
        <time>2011-06-26T14:20:33Z</time>
      </trkpt>
      <trkpt lat="44.07523" lon="1.66507">
        <ele>139</ele>
        <time>2011-06-26T14:20:35Z</time>
      </trkpt>
      <trkpt lat="44.07519" lon="1.66496">
        <ele>138</ele>
        <time>2011-06-26T14:20:37Z</time>
      </trkpt>
      <trkpt lat="44.07513" lon="1.66485">
        <ele>138</ele>
        <time>2011-06-26T14:20:39Z</time>
      </trkpt>
      <trkpt lat="44.0751" lon="1.66475">
        <ele>138</ele>
        <time>2011-06-26T14:20:41Z</time>
      </trkpt>
      <trkpt lat="44.07506" lon="1.66464">
        <ele>138</ele>
        <time>2011-06-26T14:20:43Z</time>
      </trkpt>
      <trkpt lat="44.07502" lon="1.66453">
        <ele>138</ele>
        <time>2011-06-26T14:20:45Z</time>
      </trkpt>
      <trkpt lat="44.07497" lon="1.66446">
        <ele>138</ele>
        <time>2011-06-26T14:20:47Z</time>
      </trkpt>
      <trkpt lat="44.07491" lon="1.66439">
        <ele>138</ele>
        <time>2011-06-26T14:20:49Z</time>
      </trkpt>
      <trkpt lat="44.07487" lon="1.66431">
        <ele>138</ele>
        <time>2011-06-26T14:20:51Z</time>
      </trkpt>
      <trkpt lat="44.07484" lon="1.66424">
        <ele>138</ele>
        <time>2011-06-26T14:20:53Z</time>
      </trkpt>
      <trkpt lat="44.07481" lon="1.66418">
        <ele>138</ele>
        <time>2011-06-26T14:20:55Z</time>
      </trkpt>
      <trkpt lat="44.07478" lon="1.6641">
        <ele>138</ele>
        <time>2011-06-26T14:20:57Z</time>
      </trkpt>
      <trkpt lat="44.07474" lon="1.664">
        <ele>138</ele>
        <time>2011-06-26T14:20:59Z</time>
      </trkpt>
      <trkpt lat="44.07473" lon="1.66389">
        <ele>138</ele>
        <time>2011-06-26T14:21:01Z</time>
      </trkpt>
      <trkpt lat="44.07471" lon="1.66382">
        <ele>138</ele>
        <time>2011-06-26T14:21:03Z</time>
      </trkpt>
      <trkpt lat="44.07469" lon="1.66374">
        <ele>138</ele>
        <time>2011-06-26T14:21:05Z</time>
      </trkpt>
      <trkpt lat="44.07464" lon="1.66365">
        <ele>138</ele>
        <time>2011-06-26T14:21:07Z</time>
      </trkpt>
      <trkpt lat="44.07458" lon="1.66356">
        <ele>138</ele>
        <time>2011-06-26T14:21:09Z</time>
      </trkpt>
      <trkpt lat="44.07453" lon="1.66344">
        <ele>138</ele>
        <time>2011-06-26T14:21:11Z</time>
      </trkpt>
      <trkpt lat="44.07446" lon="1.66333">
        <ele>138</ele>
        <time>2011-06-26T14:21:13Z</time>
      </trkpt>
      <trkpt lat="44.07439" lon="1.66323">
        <ele>138</ele>
        <time>2011-06-26T14:21:15Z</time>
      </trkpt>
      <trkpt lat="44.07431" lon="1.66314">
        <ele>138</ele>
        <time>2011-06-26T14:21:17Z</time>
      </trkpt>
      <trkpt lat="44.07423" lon="1.66304">
        <ele>137</ele>
        <time>2011-06-26T14:21:19Z</time>
      </trkpt>
      <trkpt lat="44.07416" lon="1.66292">
        <ele>136</ele>
        <time>2011-06-26T14:21:21Z</time>
      </trkpt>
      <trkpt lat="44.07407" lon="1.66283">
        <ele>135</ele>
        <time>2011-06-26T14:21:23Z</time>
      </trkpt>
      <trkpt lat="44.07396" lon="1.66274">
        <ele>134</ele>
        <time>2011-06-26T14:21:25Z</time>
      </trkpt>
      <trkpt lat="44.07383" lon="1.66269">
        <ele>134</ele>
        <time>2011-06-26T14:21:27Z</time>
      </trkpt>
      <trkpt lat="44.07371" lon="1.66269">
        <ele>134</ele>
        <time>2011-06-26T14:21:29Z</time>
      </trkpt>
      <trkpt lat="44.07359" lon="1.66269">
        <ele>134</ele>
        <time>2011-06-26T14:21:31Z</time>
      </trkpt>
      <trkpt lat="44.07348" lon="1.66268">
        <ele>133</ele>
        <time>2011-06-26T14:21:33Z</time>
      </trkpt>
      <trkpt lat="44.07335" lon="1.66265">
        <ele>131</ele>
        <time>2011-06-26T14:21:35Z</time>
      </trkpt>
      <trkpt lat="44.07323" lon="1.66262">
        <ele>130</ele>
        <time>2011-06-26T14:21:37Z</time>
      </trkpt>
      <trkpt lat="44.0731" lon="1.66258">
        <ele>130</ele>
        <time>2011-06-26T14:21:39Z</time>
      </trkpt>
      <trkpt lat="44.073" lon="1.66256">
        <ele>130</ele>
        <time>2011-06-26T14:21:41Z</time>
      </trkpt>
      <trkpt lat="44.07287" lon="1.66254">
        <ele>130</ele>
        <time>2011-06-26T14:21:43Z</time>
      </trkpt>
      <trkpt lat="44.07275" lon="1.66253">
        <ele>130</ele>
        <time>2011-06-26T14:21:45Z</time>
      </trkpt>
      <trkpt lat="44.07268" lon="1.6625">
        <ele>130</ele>
        <time>2011-06-26T14:21:47Z</time>
      </trkpt>
      <trkpt lat="44.07257" lon="1.66247">
        <ele>130</ele>
        <time>2011-06-26T14:21:49Z</time>
      </trkpt>
      <trkpt lat="44.07248" lon="1.66245">
        <ele>130</ele>
        <time>2011-06-26T14:21:51Z</time>
      </trkpt>
      <trkpt lat="44.07242" lon="1.66242">
        <ele>131</ele>
        <time>2011-06-26T14:21:53Z</time>
      </trkpt>
      <trkpt lat="44.07233" lon="1.66235">
        <ele>131</ele>
        <time>2011-06-26T14:21:55Z</time>
      </trkpt>
      <trkpt lat="44.07224" lon="1.66227">
        <ele>131</ele>
        <time>2011-06-26T14:21:57Z</time>
      </trkpt>
      <trkpt lat="44.07217" lon="1.6622">
        <ele>131</ele>
        <time>2011-06-26T14:21:59Z</time>
      </trkpt>
      <trkpt lat="44.07209" lon="1.66211">
        <ele>131</ele>
        <time>2011-06-26T14:22:01Z</time>
      </trkpt>
      <trkpt lat="44.07202" lon="1.662">
        <ele>131</ele>
        <time>2011-06-26T14:22:03Z</time>
      </trkpt>
      <trkpt lat="44.07194" lon="1.6619">
        <ele>131</ele>
        <time>2011-06-26T14:22:05Z</time>
      </trkpt>
      <trkpt lat="44.07186" lon="1.6618">
        <ele>130</ele>
        <time>2011-06-26T14:22:07Z</time>
      </trkpt>
      <trkpt lat="44.07179" lon="1.66171">
        <ele>129</ele>
        <time>2011-06-26T14:22:09Z</time>
      </trkpt>
      <trkpt lat="44.07175" lon="1.66158">
        <ele>128</ele>
        <time>2011-06-26T14:22:11Z</time>
      </trkpt>
      <trkpt lat="44.07171" lon="1.66144">
        <ele>128</ele>
        <time>2011-06-26T14:22:13Z</time>
      </trkpt>
      <trkpt lat="44.07166" lon="1.6613">
        <ele>128</ele>
        <time>2011-06-26T14:22:15Z</time>
      </trkpt>
      <trkpt lat="44.07161" lon="1.66115">
        <ele>127</ele>
        <time>2011-06-26T14:22:17Z</time>
      </trkpt>
      <trkpt lat="44.07153" lon="1.66103">
        <ele>126</ele>
        <time>2011-06-26T14:22:19Z</time>
      </trkpt>
      <trkpt lat="44.07145" lon="1.66093">
        <ele>124</ele>
        <time>2011-06-26T14:22:21Z</time>
      </trkpt>
      <trkpt lat="44.07138" lon="1.66083">
        <ele>123</ele>
        <time>2011-06-26T14:22:23Z</time>
      </trkpt>
      <trkpt lat="44.07127" lon="1.66073">
        <ele>122</ele>
        <time>2011-06-26T14:22:25Z</time>
      </trkpt>
      <trkpt lat="44.07114" lon="1.66064">
        <ele>120</ele>
        <time>2011-06-26T14:22:27Z</time>
      </trkpt>
      <trkpt lat="44.07101" lon="1.66056">
        <ele>119</ele>
        <time>2011-06-26T14:22:29Z</time>
      </trkpt>
      <trkpt lat="44.07088" lon="1.66048">
        <ele>118</ele>
        <time>2011-06-26T14:22:31Z</time>
      </trkpt>
      <trkpt lat="44.07077" lon="1.66039">
        <ele>117</ele>
        <time>2011-06-26T14:22:33Z</time>
      </trkpt>
      <trkpt lat="44.07069" lon="1.66031">
        <ele>115</ele>
        <time>2011-06-26T14:22:35Z</time>
      </trkpt>
      <trkpt lat="44.07061" lon="1.66022">
        <ele>114</ele>
        <time>2011-06-26T14:22:37Z</time>
      </trkpt>
      <trkpt lat="44.07053" lon="1.66016">
        <ele>113</ele>
        <time>2011-06-26T14:22:39Z</time>
      </trkpt>
      <trkpt lat="44.07047" lon="1.66012">
        <ele>113</ele>
        <time>2011-06-26T14:22:41Z</time>
      </trkpt>
      <trkpt lat="44.07042" lon="1.66008">
        <ele>112</ele>
        <time>2011-06-26T14:22:43Z</time>
      </trkpt>
      <trkpt lat="44.07038" lon="1.66007">
        <ele>112</ele>
        <time>2011-06-26T14:22:45Z</time>
      </trkpt>
      <trkpt lat="44.07033" lon="1.66005">
        <ele>111</ele>
        <time>2011-06-26T14:22:47Z</time>
      </trkpt>
      <trkpt lat="44.07028" lon="1.66005">
        <ele>111</ele>
        <time>2011-06-26T14:22:49Z</time>
      </trkpt>
      <trkpt lat="44.07022" lon="1.66003">
        <ele>111</ele>
        <time>2011-06-26T14:22:51Z</time>
      </trkpt>
      <trkpt lat="44.07016" lon="1.65996">
        <ele>111</ele>
        <time>2011-06-26T14:22:53Z</time>
      </trkpt>
      <trkpt lat="44.07008" lon="1.65987">
        <ele>111</ele>
        <time>2011-06-26T14:22:55Z</time>
      </trkpt>
      <trkpt lat="44.06998" lon="1.6598">
        <ele>111</ele>
        <time>2011-06-26T14:22:57Z</time>
      </trkpt>
      <trkpt lat="44.06992" lon="1.65976">
        <ele>112</ele>
        <time>2011-06-26T14:22:59Z</time>
      </trkpt>
      <trkpt lat="44.06985" lon="1.65972">
        <ele>112</ele>
        <time>2011-06-26T14:23:01Z</time>
      </trkpt>
      <trkpt lat="44.0698" lon="1.65965">
        <ele>112</ele>
        <time>2011-06-26T14:23:03Z</time>
      </trkpt>
      <trkpt lat="44.06974" lon="1.65963">
        <ele>112</ele>
        <time>2011-06-26T14:23:05Z</time>
      </trkpt>
      <trkpt lat="44.06966" lon="1.65959">
        <ele>112</ele>
        <time>2011-06-26T14:23:07Z</time>
      </trkpt>
      <trkpt lat="44.06955" lon="1.65952">
        <ele>112</ele>
        <time>2011-06-26T14:23:09Z</time>
      </trkpt>
      <trkpt lat="44.06943" lon="1.65946">
        <ele>112</ele>
        <time>2011-06-26T14:23:11Z</time>
      </trkpt>
      <trkpt lat="44.06931" lon="1.65938">
        <ele>112</ele>
        <time>2011-06-26T14:23:13Z</time>
      </trkpt>
      <trkpt lat="44.06919" lon="1.65929">
        <ele>112</ele>
        <time>2011-06-26T14:23:15Z</time>
      </trkpt>
      <trkpt lat="44.06908" lon="1.6592">
        <ele>111</ele>
        <time>2011-06-26T14:23:17Z</time>
      </trkpt>
      <trkpt lat="44.06898" lon="1.65911">
        <ele>111</ele>
        <time>2011-06-26T14:23:19Z</time>
      </trkpt>
      <trkpt lat="44.06888" lon="1.65899">
        <ele>110</ele>
        <time>2011-06-26T14:23:21Z</time>
      </trkpt>
      <trkpt lat="44.06878" lon="1.65889">
        <ele>110</ele>
        <time>2011-06-26T14:23:23Z</time>
      </trkpt>
      <trkpt lat="44.0687" lon="1.65881">
        <ele>110</ele>
        <time>2011-06-26T14:23:25Z</time>
      </trkpt>
      <trkpt lat="44.06862" lon="1.65874">
        <ele>110</ele>
        <time>2011-06-26T14:23:27Z</time>
      </trkpt>
      <trkpt lat="44.06853" lon="1.65871">
        <ele>109</ele>
        <time>2011-06-26T14:23:29Z</time>
      </trkpt>
      <trkpt lat="44.06844" lon="1.6587">
        <ele>107</ele>
        <time>2011-06-26T14:23:31Z</time>
      </trkpt>
      <trkpt lat="44.06836" lon="1.65873">
        <ele>105</ele>
        <time>2011-06-26T14:23:33Z</time>
      </trkpt>
      <trkpt lat="44.06829" lon="1.65878">
        <ele>104</ele>
        <time>2011-06-26T14:23:35Z</time>
      </trkpt>
      <trkpt lat="44.06823" lon="1.65883">
        <ele>102</ele>
        <time>2011-06-26T14:23:37Z</time>
      </trkpt>
      <trkpt lat="44.06816" lon="1.65888">
        <ele>100</ele>
        <time>2011-06-26T14:23:39Z</time>
      </trkpt>
      <trkpt lat="44.06811" lon="1.65893">
        <ele>98</ele>
        <time>2011-06-26T14:23:41Z</time>
      </trkpt>
      <trkpt lat="44.06806" lon="1.65899">
        <ele>97</ele>
        <time>2011-06-26T14:23:43Z</time>
      </trkpt>
      <trkpt lat="44.068" lon="1.65905">
        <ele>95</ele>
        <time>2011-06-26T14:23:45Z</time>
      </trkpt>
      <trkpt lat="44.06794" lon="1.65911">
        <ele>95</ele>
        <time>2011-06-26T14:23:47Z</time>
      </trkpt>
      <trkpt lat="44.06788" lon="1.65918">
        <ele>94</ele>
        <time>2011-06-26T14:23:49Z</time>
      </trkpt>
      <trkpt lat="44.06782" lon="1.65925">
        <ele>94</ele>
        <time>2011-06-26T14:23:51Z</time>
      </trkpt>
      <trkpt lat="44.06775" lon="1.65932">
        <ele>94</ele>
        <time>2011-06-26T14:23:53Z</time>
      </trkpt>
      <trkpt lat="44.06768" lon="1.65941">
        <ele>94</ele>
        <time>2011-06-26T14:23:55Z</time>
      </trkpt>
      <trkpt lat="44.06762" lon="1.65949">
        <ele>94</ele>
        <time>2011-06-26T14:23:57Z</time>
      </trkpt>
      <trkpt lat="44.06755" lon="1.65958">
        <ele>94</ele>
        <time>2011-06-26T14:24:00Z</time>
      </trkpt>
      <trkpt lat="44.06745" lon="1.65971">
        <ele>94</ele>
        <time>2011-06-26T14:24:02Z</time>
      </trkpt>
      <trkpt lat="44.06739" lon="1.6598">
        <ele>94</ele>
        <time>2011-06-26T14:24:04Z</time>
      </trkpt>
      <trkpt lat="44.06732" lon="1.65988">
        <ele>94</ele>
        <time>2011-06-26T14:24:06Z</time>
      </trkpt>
      <trkpt lat="44.06726" lon="1.65997">
        <ele>94</ele>
        <time>2011-06-26T14:24:08Z</time>
      </trkpt>
      <trkpt lat="44.0672" lon="1.66005">
        <ele>94</ele>
        <time>2011-06-26T14:24:10Z</time>
      </trkpt>
      <trkpt lat="44.06713" lon="1.66014">
        <ele>94</ele>
        <time>2011-06-26T14:24:12Z</time>
      </trkpt>
      <trkpt lat="44.06707" lon="1.66022">
        <ele>94</ele>
        <time>2011-06-26T14:24:14Z</time>
      </trkpt>
      <trkpt lat="44.067" lon="1.66031">
        <ele>93</ele>
        <time>2011-06-26T14:24:16Z</time>
      </trkpt>
      <trkpt lat="44.06693" lon="1.6604">
        <ele>93</ele>
        <time>2011-06-26T14:24:18Z</time>
      </trkpt>
      <trkpt lat="44.06686" lon="1.66049">
        <ele>93</ele>
        <time>2011-06-26T14:24:20Z</time>
      </trkpt>
      <trkpt lat="44.06679" lon="1.66058">
        <ele>92</ele>
        <time>2011-06-26T14:24:22Z</time>
      </trkpt>
      <trkpt lat="44.0667" lon="1.66067">
        <ele>92</ele>
        <time>2011-06-26T14:24:24Z</time>
      </trkpt>
      <trkpt lat="44.06662" lon="1.66075">
        <ele>91</ele>
        <time>2011-06-26T14:24:26Z</time>
      </trkpt>
      <trkpt lat="44.06653" lon="1.66083">
        <ele>91</ele>
        <time>2011-06-26T14:24:28Z</time>
      </trkpt>
      <trkpt lat="44.06644" lon="1.6609">
        <ele>91</ele>
        <time>2011-06-26T14:24:30Z</time>
      </trkpt>
      <trkpt lat="44.06633" lon="1.66098">
        <ele>91</ele>
        <time>2011-06-26T14:24:32Z</time>
      </trkpt>
      <trkpt lat="44.06625" lon="1.66107">
        <ele>91</ele>
        <time>2011-06-26T14:24:34Z</time>
      </trkpt>
      <trkpt lat="44.06616" lon="1.66116">
        <ele>91</ele>
        <time>2011-06-26T14:24:36Z</time>
      </trkpt>
      <trkpt lat="44.06607" lon="1.66126">
        <ele>91</ele>
        <time>2011-06-26T14:24:38Z</time>
      </trkpt>
      <trkpt lat="44.06599" lon="1.66137">
        <ele>91</ele>
        <time>2011-06-26T14:24:40Z</time>
      </trkpt>
      <trkpt lat="44.06589" lon="1.66147">
        <ele>91</ele>
        <time>2011-06-26T14:24:42Z</time>
      </trkpt>
      <trkpt lat="44.06581" lon="1.66159">
        <ele>91</ele>
        <time>2011-06-26T14:24:44Z</time>
      </trkpt>
      <trkpt lat="44.06573" lon="1.66171">
        <ele>91</ele>
        <time>2011-06-26T14:24:46Z</time>
      </trkpt>
      <trkpt lat="44.06565" lon="1.66183">
        <ele>91</ele>
        <time>2011-06-26T14:24:48Z</time>
      </trkpt>
      <trkpt lat="44.06556" lon="1.66196">
        <ele>93</ele>
        <time>2011-06-26T14:24:50Z</time>
      </trkpt>
      <trkpt lat="44.06549" lon="1.66209">
        <ele>95</ele>
        <time>2011-06-26T14:24:52Z</time>
      </trkpt>
      <trkpt lat="44.06542" lon="1.66221">
        <ele>97</ele>
        <time>2011-06-26T14:24:54Z</time>
      </trkpt>
      <trkpt lat="44.06534" lon="1.66233">
        <ele>98</ele>
        <time>2011-06-26T14:24:56Z</time>
      </trkpt>
      <trkpt lat="44.06525" lon="1.66243">
        <ele>98</ele>
        <time>2011-06-26T14:24:58Z</time>
      </trkpt>
      <trkpt lat="44.06515" lon="1.66251">
        <ele>98</ele>
        <time>2011-06-26T14:25:00Z</time>
      </trkpt>
      <trkpt lat="44.06505" lon="1.66259">
        <ele>99</ele>
        <time>2011-06-26T14:25:02Z</time>
      </trkpt>
      <trkpt lat="44.06496" lon="1.66269">
        <ele>99</ele>
        <time>2011-06-26T14:25:04Z</time>
      </trkpt>
      <trkpt lat="44.06485" lon="1.66281">
        <ele>99</ele>
        <time>2011-06-26T14:25:06Z</time>
      </trkpt>
      <trkpt lat="44.06477" lon="1.66295">
        <ele>99</ele>
        <time>2011-06-26T14:25:08Z</time>
      </trkpt>
      <trkpt lat="44.06469" lon="1.6631">
        <ele>99</ele>
        <time>2011-06-26T14:25:10Z</time>
      </trkpt>
      <trkpt lat="44.06462" lon="1.66324">
        <ele>99</ele>
        <time>2011-06-26T14:25:12Z</time>
      </trkpt>
      <trkpt lat="44.06455" lon="1.66338">
        <ele>99</ele>
        <time>2011-06-26T14:25:14Z</time>
      </trkpt>
      <trkpt lat="44.0645" lon="1.66353">
        <ele>99</ele>
        <time>2011-06-26T14:25:16Z</time>
      </trkpt>
      <trkpt lat="44.06446" lon="1.66367">
        <ele>99</ele>
        <time>2011-06-26T14:25:18Z</time>
      </trkpt>
      <trkpt lat="44.06439" lon="1.6638">
        <ele>98</ele>
        <time>2011-06-26T14:25:20Z</time>
      </trkpt>
      <trkpt lat="44.06432" lon="1.66392">
        <ele>98</ele>
        <time>2011-06-26T14:25:22Z</time>
      </trkpt>
      <trkpt lat="44.06425" lon="1.66404">
        <ele>98</ele>
        <time>2011-06-26T14:25:24Z</time>
      </trkpt>
      <trkpt lat="44.06419" lon="1.66417">
        <ele>97</ele>
        <time>2011-06-26T14:25:26Z</time>
      </trkpt>
      <trkpt lat="44.06413" lon="1.66428">
        <ele>97</ele>
        <time>2011-06-26T14:25:28Z</time>
      </trkpt>
      <trkpt lat="44.06405" lon="1.66439">
        <ele>97</ele>
        <time>2011-06-26T14:25:30Z</time>
      </trkpt>
      <trkpt lat="44.06399" lon="1.66451">
        <ele>97</ele>
        <time>2011-06-26T14:25:32Z</time>
      </trkpt>
      <trkpt lat="44.06392" lon="1.66462">
        <ele>97</ele>
        <time>2011-06-26T14:25:34Z</time>
      </trkpt>
      <trkpt lat="44.06386" lon="1.66472">
        <ele>97</ele>
        <time>2011-06-26T14:25:36Z</time>
      </trkpt>
      <trkpt lat="44.06379" lon="1.66482">
        <ele>97</ele>
        <time>2011-06-26T14:25:38Z</time>
      </trkpt>
      <trkpt lat="44.06372" lon="1.66493">
        <ele>98</ele>
        <time>2011-06-26T14:25:40Z</time>
      </trkpt>
      <trkpt lat="44.06364" lon="1.66503">
        <ele>99</ele>
        <time>2011-06-26T14:25:42Z</time>
      </trkpt>
      <trkpt lat="44.06357" lon="1.66513">
        <ele>99</ele>
        <time>2011-06-26T14:25:44Z</time>
      </trkpt>
      <trkpt lat="44.06348" lon="1.66522">
        <ele>100</ele>
        <time>2011-06-26T14:25:46Z</time>
      </trkpt>
      <trkpt lat="44.06341" lon="1.66531">
        <ele>101</ele>
        <time>2011-06-26T14:25:48Z</time>
      </trkpt>
      <trkpt lat="44.06333" lon="1.66541">
        <ele>102</ele>
        <time>2011-06-26T14:25:50Z</time>
      </trkpt>
      <trkpt lat="44.06325" lon="1.6655">
        <ele>103</ele>
        <time>2011-06-26T14:25:52Z</time>
      </trkpt>
      <trkpt lat="44.06318" lon="1.66559">
        <ele>105</ele>
        <time>2011-06-26T14:25:54Z</time>
      </trkpt>
      <trkpt lat="44.0631" lon="1.66567">
        <ele>105</ele>
        <time>2011-06-26T14:25:56Z</time>
      </trkpt>
      <trkpt lat="44.06301" lon="1.66575">
        <ele>106</ele>
        <time>2011-06-26T14:25:58Z</time>
      </trkpt>
      <trkpt lat="44.06291" lon="1.66583">
        <ele>106</ele>
        <time>2011-06-26T14:26:00Z</time>
      </trkpt>
      <trkpt lat="44.0628" lon="1.6659">
        <ele>106</ele>
        <time>2011-06-26T14:26:02Z</time>
      </trkpt>
      <trkpt lat="44.06269" lon="1.66598">
        <ele>106</ele>
        <time>2011-06-26T14:26:04Z</time>
      </trkpt>
      <trkpt lat="44.06258" lon="1.66605">
        <ele>106</ele>
        <time>2011-06-26T14:26:06Z</time>
      </trkpt>
      <trkpt lat="44.06246" lon="1.66613">
        <ele>106</ele>
        <time>2011-06-26T14:26:08Z</time>
      </trkpt>
      <trkpt lat="44.06235" lon="1.66621">
        <ele>106</ele>
        <time>2011-06-26T14:26:10Z</time>
      </trkpt>
      <trkpt lat="44.06224" lon="1.66628">
        <ele>106</ele>
        <time>2011-06-26T14:26:12Z</time>
      </trkpt>
      <trkpt lat="44.06212" lon="1.66636">
        <ele>106</ele>
        <time>2011-06-26T14:26:14Z</time>
      </trkpt>
      <trkpt lat="44.06201" lon="1.66643">
        <ele>106</ele>
        <time>2011-06-26T14:26:16Z</time>
      </trkpt>
      <trkpt lat="44.0619" lon="1.6665">
        <ele>106</ele>
        <time>2011-06-26T14:26:18Z</time>
      </trkpt>
      <trkpt lat="44.0618" lon="1.66658">
        <ele>106</ele>
        <time>2011-06-26T14:26:20Z</time>
      </trkpt>
      <trkpt lat="44.06169" lon="1.66666">
        <ele>106</ele>
        <time>2011-06-26T14:26:22Z</time>
      </trkpt>
      <trkpt lat="44.06158" lon="1.66674">
        <ele>106</ele>
        <time>2011-06-26T14:26:24Z</time>
      </trkpt>
      <trkpt lat="44.06147" lon="1.66683">
        <ele>106</ele>
        <time>2011-06-26T14:26:26Z</time>
      </trkpt>
      <trkpt lat="44.06138" lon="1.66692">
        <ele>106</ele>
        <time>2011-06-26T14:26:28Z</time>
      </trkpt>
      <trkpt lat="44.06129" lon="1.66701">
        <ele>106</ele>
        <time>2011-06-26T14:26:30Z</time>
      </trkpt>
      <trkpt lat="44.0612" lon="1.6671">
        <ele>106</ele>
        <time>2011-06-26T14:26:32Z</time>
      </trkpt>
      <trkpt lat="44.0611" lon="1.66719">
        <ele>106</ele>
        <time>2011-06-26T14:26:34Z</time>
      </trkpt>
      <trkpt lat="44.06101" lon="1.66728">
        <ele>106</ele>
        <time>2011-06-26T14:26:36Z</time>
      </trkpt>
      <trkpt lat="44.06092" lon="1.66735">
        <ele>106</ele>
        <time>2011-06-26T14:26:38Z</time>
      </trkpt>
      <trkpt lat="44.06082" lon="1.66743">
        <ele>106</ele>
        <time>2011-06-26T14:26:40Z</time>
      </trkpt>
      <trkpt lat="44.06071" lon="1.66749">
        <ele>106</ele>
        <time>2011-06-26T14:26:42Z</time>
      </trkpt>
      <trkpt lat="44.06059" lon="1.66755">
        <ele>106</ele>
        <time>2011-06-26T14:26:44Z</time>
      </trkpt>
      <trkpt lat="44.06047" lon="1.66761">
        <ele>106</ele>
        <time>2011-06-26T14:26:46Z</time>
      </trkpt>
      <trkpt lat="44.06036" lon="1.66767">
        <ele>106</ele>
        <time>2011-06-26T14:26:48Z</time>
      </trkpt>
      <trkpt lat="44.06024" lon="1.66772">
        <ele>106</ele>
        <time>2011-06-26T14:26:50Z</time>
      </trkpt>
      <trkpt lat="44.06013" lon="1.66778">
        <ele>106</ele>
        <time>2011-06-26T14:26:52Z</time>
      </trkpt>
      <trkpt lat="44.06002" lon="1.66784">
        <ele>106</ele>
        <time>2011-06-26T14:26:54Z</time>
      </trkpt>
      <trkpt lat="44.05991" lon="1.66789">
        <ele>106</ele>
        <time>2011-06-26T14:26:56Z</time>
      </trkpt>
      <trkpt lat="44.05981" lon="1.66794">
        <ele>106</ele>
        <time>2011-06-26T14:26:58Z</time>
      </trkpt>
      <trkpt lat="44.05972" lon="1.66799">
        <ele>106</ele>
        <time>2011-06-26T14:27:00Z</time>
      </trkpt>
      <trkpt lat="44.05962" lon="1.66802">
        <ele>106</ele>
        <time>2011-06-26T14:27:02Z</time>
      </trkpt>
      <trkpt lat="44.05953" lon="1.66806">
        <ele>106</ele>
        <time>2011-06-26T14:27:04Z</time>
      </trkpt>
      <trkpt lat="44.05943" lon="1.66808">
        <ele>106</ele>
        <time>2011-06-26T14:27:06Z</time>
      </trkpt>
      <trkpt lat="44.05933" lon="1.66811">
        <ele>106</ele>
        <time>2011-06-26T14:27:08Z</time>
      </trkpt>
      <trkpt lat="44.05922" lon="1.66813">
        <ele>106</ele>
        <time>2011-06-26T14:27:10Z</time>
      </trkpt>
      <trkpt lat="44.05912" lon="1.66813">
        <ele>106</ele>
        <time>2011-06-26T14:27:12Z</time>
      </trkpt>
      <trkpt lat="44.05901" lon="1.66814">
        <ele>106</ele>
        <time>2011-06-26T14:27:14Z</time>
      </trkpt>
      <trkpt lat="44.05889" lon="1.66814">
        <ele>106</ele>
        <time>2011-06-26T14:27:16Z</time>
      </trkpt>
      <trkpt lat="44.05877" lon="1.66814">
        <ele>106</ele>
        <time>2011-06-26T14:27:18Z</time>
      </trkpt>
      <trkpt lat="44.05865" lon="1.66813">
        <ele>106</ele>
        <time>2011-06-26T14:27:20Z</time>
      </trkpt>
      <trkpt lat="44.05854" lon="1.66812">
        <ele>106</ele>
        <time>2011-06-26T14:27:22Z</time>
      </trkpt>
      <trkpt lat="44.05843" lon="1.66812">
        <ele>106</ele>
        <time>2011-06-26T14:27:24Z</time>
      </trkpt>
      <trkpt lat="44.05833" lon="1.66811">
        <ele>105</ele>
        <time>2011-06-26T14:27:26Z</time>
      </trkpt>
      <trkpt lat="44.05822" lon="1.66811">
        <ele>105</ele>
        <time>2011-06-26T14:27:28Z</time>
      </trkpt>
      <trkpt lat="44.05811" lon="1.66813">
        <ele>105</ele>
        <time>2011-06-26T14:27:30Z</time>
      </trkpt>
      <trkpt lat="44.058" lon="1.66818">
        <ele>105</ele>
        <time>2011-06-26T14:27:32Z</time>
      </trkpt>
      <trkpt lat="44.05789" lon="1.66826">
        <ele>105</ele>
        <time>2011-06-26T14:27:34Z</time>
      </trkpt>
      <trkpt lat="44.05779" lon="1.66835">
        <ele>105</ele>
        <time>2011-06-26T14:27:36Z</time>
      </trkpt>
      <trkpt lat="44.0577" lon="1.66847">
        <ele>106</ele>
        <time>2011-06-26T14:27:38Z</time>
      </trkpt>
      <trkpt lat="44.05763" lon="1.66859">
        <ele>107</ele>
        <time>2011-06-26T14:27:40Z</time>
      </trkpt>
      <trkpt lat="44.05756" lon="1.66873">
        <ele>108</ele>
        <time>2011-06-26T14:27:42Z</time>
      </trkpt>
      <trkpt lat="44.05751" lon="1.66887">
        <ele>108</ele>
        <time>2011-06-26T14:27:44Z</time>
      </trkpt>
      <trkpt lat="44.05747" lon="1.66903">
        <ele>108</ele>
        <time>2011-06-26T14:27:46Z</time>
      </trkpt>
      <trkpt lat="44.05742" lon="1.66919">
        <ele>108</ele>
        <time>2011-06-26T14:27:48Z</time>
      </trkpt>
      <trkpt lat="44.05734" lon="1.66934">
        <ele>108</ele>
        <time>2011-06-26T14:27:50Z</time>
      </trkpt>
      <trkpt lat="44.05724" lon="1.66948">
        <ele>108</ele>
        <time>2011-06-26T14:27:52Z</time>
      </trkpt>
      <trkpt lat="44.05711" lon="1.66957">
        <ele>108</ele>
        <time>2011-06-26T14:27:54Z</time>
      </trkpt>
      <trkpt lat="44.05698" lon="1.66962">
        <ele>108</ele>
        <time>2011-06-26T14:27:56Z</time>
      </trkpt>
      <trkpt lat="44.05685" lon="1.66961">
        <ele>108</ele>
        <time>2011-06-26T14:27:58Z</time>
      </trkpt>
      <trkpt lat="44.05672" lon="1.6696">
        <ele>108</ele>
        <time>2011-06-26T14:28:00Z</time>
      </trkpt>
      <trkpt lat="44.05662" lon="1.66959">
        <ele>106</ele>
        <time>2011-06-26T14:28:02Z</time>
      </trkpt>
      <trkpt lat="44.0565" lon="1.66958">
        <ele>105</ele>
        <time>2011-06-26T14:28:04Z</time>
      </trkpt>
      <trkpt lat="44.05639" lon="1.66956">
        <ele>105</ele>
        <time>2011-06-26T14:28:06Z</time>
      </trkpt>
      <trkpt lat="44.05634" lon="1.66955">
        <ele>105</ele>
        <time>2011-06-26T14:28:08Z</time>
      </trkpt>
      <trkpt lat="44.05632" lon="1.66956">
        <ele>105</ele>
        <time>2011-06-26T14:28:12Z</time>
      </trkpt>
      <trkpt lat="44.05627" lon="1.66961">
        <ele>105</ele>
        <time>2011-06-26T14:28:14Z</time>
      </trkpt>
      <trkpt lat="44.05626" lon="1.66969">
        <ele>105</ele>
        <time>2011-06-26T14:28:16Z</time>
      </trkpt>
      <trkpt lat="44.05625" lon="1.66979">
        <ele>105</ele>
        <time>2011-06-26T14:28:18Z</time>
      </trkpt>
      <trkpt lat="44.05626" lon="1.66992">
        <ele>105</ele>
        <time>2011-06-26T14:28:20Z</time>
      </trkpt>
      <trkpt lat="44.05626" lon="1.67004">
        <ele>105</ele>
        <time>2011-06-26T14:28:22Z</time>
      </trkpt>
      <trkpt lat="44.05627" lon="1.67017">
        <ele>105</ele>
        <time>2011-06-26T14:28:24Z</time>
      </trkpt>
      <trkpt lat="44.05628" lon="1.6703">
        <ele>106</ele>
        <time>2011-06-26T14:28:26Z</time>
      </trkpt>
      <trkpt lat="44.05628" lon="1.67044">
        <ele>107</ele>
        <time>2011-06-26T14:28:28Z</time>
      </trkpt>
      <trkpt lat="44.05624" lon="1.67057">
        <ele>107</ele>
        <time>2011-06-26T14:28:30Z</time>
      </trkpt>
      <trkpt lat="44.05618" lon="1.67068">
        <ele>107</ele>
        <time>2011-06-26T14:28:32Z</time>
      </trkpt>
      <trkpt lat="44.05608" lon="1.67076">
        <ele>107</ele>
        <time>2011-06-26T14:28:34Z</time>
      </trkpt>
      <trkpt lat="44.05598" lon="1.67083">
        <ele>107</ele>
        <time>2011-06-26T14:28:36Z</time>
      </trkpt>
      <trkpt lat="44.05589" lon="1.67089">
        <ele>107</ele>
        <time>2011-06-26T14:28:38Z</time>
      </trkpt>
      <trkpt lat="44.05578" lon="1.67096">
        <ele>107</ele>
        <time>2011-06-26T14:28:40Z</time>
      </trkpt>
      <trkpt lat="44.05569" lon="1.67099">
        <ele>107</ele>
        <time>2011-06-26T14:28:42Z</time>
      </trkpt>
      <trkpt lat="44.05565" lon="1.6709">
        <ele>107</ele>
        <time>2011-06-26T14:28:44Z</time>
      </trkpt>
      <trkpt lat="44.05569" lon="1.67082">
        <ele>107</ele>
        <time>2011-06-26T14:28:46Z</time>
      </trkpt>
      <trkpt lat="44.05579" lon="1.67079">
        <ele>107</ele>
        <time>2011-06-26T14:28:48Z</time>
      </trkpt>
      <trkpt lat="44.05589" lon="1.67074">
        <ele>107</ele>
        <time>2011-06-26T14:28:50Z</time>
      </trkpt>
      <trkpt lat="44.05596" lon="1.67068">
        <ele>106</ele>
        <time>2011-06-26T14:28:52Z</time>
      </trkpt>
      <trkpt lat="44.05599" lon="1.67064">
        <ele>105</ele>
        <time>2011-06-26T14:28:54Z</time>
      </trkpt>
      <trkpt lat="44.05601" lon="1.6706">
        <ele>104</ele>
        <time>2011-06-26T14:28:56Z</time>
      </trkpt>
      <trkpt lat="44.05605" lon="1.67056">
        <ele>104</ele>
        <time>2011-06-26T14:28:58Z</time>
      </trkpt>
      <trkpt lat="44.05606" lon="1.67051">
        <ele>103</ele>
        <time>2011-06-26T14:29:00Z</time>
      </trkpt>
      <trkpt lat="44.056" lon="1.67045">
        <ele>102</ele>
        <time>2011-06-26T14:29:02Z</time>
      </trkpt>
      <trkpt lat="44.05593" lon="1.6704">
        <ele>100</ele>
        <time>2011-06-26T14:29:04Z</time>
      </trkpt>
      <trkpt lat="44.05587" lon="1.67037">
        <ele>98</ele>
        <time>2011-06-26T14:29:06Z</time>
      </trkpt>
      <trkpt lat="44.05579" lon="1.67034">
        <ele>97</ele>
        <time>2011-06-26T14:29:08Z</time>
      </trkpt>
      <trkpt lat="44.05571" lon="1.67031">
        <ele>96</ele>
        <time>2011-06-26T14:29:10Z</time>
      </trkpt>
      <trkpt lat="44.05566" lon="1.67026">
        <ele>95</ele>
        <time>2011-06-26T14:29:12Z</time>
      </trkpt>
      <trkpt lat="44.05562" lon="1.67016">
        <ele>94</ele>
        <time>2011-06-26T14:29:14Z</time>
      </trkpt>
      <trkpt lat="44.05561" lon="1.67005">
        <ele>93</ele>
        <time>2011-06-26T14:29:16Z</time>
      </trkpt>
      <trkpt lat="44.05561" lon="1.66994">
        <ele>93</ele>
        <time>2011-06-26T14:29:18Z</time>
      </trkpt>
      <trkpt lat="44.05561" lon="1.66983">
        <ele>93</ele>
        <time>2011-06-26T14:29:20Z</time>
      </trkpt>
      <trkpt lat="44.0556" lon="1.6697">
        <ele>93</ele>
        <time>2011-06-26T14:29:22Z</time>
      </trkpt>
      <trkpt lat="44.05558" lon="1.66957">
        <ele>93</ele>
        <time>2011-06-26T14:29:24Z</time>
      </trkpt>
      <trkpt lat="44.05554" lon="1.66946">
        <ele>93</ele>
        <time>2011-06-26T14:29:26Z</time>
      </trkpt>
      <trkpt lat="44.05548" lon="1.66937">
        <ele>94</ele>
        <time>2011-06-26T14:29:28Z</time>
      </trkpt>
      <trkpt lat="44.05543" lon="1.66929">
        <ele>94</ele>
        <time>2011-06-26T14:29:30Z</time>
      </trkpt>
      <trkpt lat="44.05538" lon="1.6692">
        <ele>95</ele>
        <time>2011-06-26T14:29:32Z</time>
      </trkpt>
      <trkpt lat="44.05532" lon="1.66913">
        <ele>96</ele>
        <time>2011-06-26T14:29:34Z</time>
      </trkpt>
      <trkpt lat="44.05526" lon="1.66906">
        <ele>97</ele>
        <time>2011-06-26T14:29:36Z</time>
      </trkpt>
      <trkpt lat="44.05521" lon="1.66899">
        <ele>98</ele>
        <time>2011-06-26T14:29:38Z</time>
      </trkpt>
      <trkpt lat="44.05516" lon="1.66893">
        <ele>98</ele>
        <time>2011-06-26T14:29:40Z</time>
      </trkpt>
      <trkpt lat="44.05511" lon="1.66886">
        <ele>99</ele>
        <time>2011-06-26T14:29:42Z</time>
      </trkpt>
      <trkpt lat="44.05507" lon="1.6688">
        <ele>100</ele>
        <time>2011-06-26T14:29:44Z</time>
      </trkpt>
      <trkpt lat="44.05502" lon="1.66874">
        <ele>101</ele>
        <time>2011-06-26T14:29:46Z</time>
      </trkpt>
      <trkpt lat="44.05497" lon="1.66867">
        <ele>101</ele>
        <time>2011-06-26T14:29:48Z</time>
      </trkpt>
      <trkpt lat="44.05493" lon="1.6686">
        <ele>102</ele>
        <time>2011-06-26T14:29:50Z</time>
      </trkpt>
      <trkpt lat="44.05488" lon="1.66854">
        <ele>103</ele>
        <time>2011-06-26T14:29:52Z</time>
      </trkpt>
      <trkpt lat="44.05484" lon="1.66847">
        <ele>105</ele>
        <time>2011-06-26T14:29:54Z</time>
      </trkpt>
      <trkpt lat="44.05481" lon="1.6684">
        <ele>107</ele>
        <time>2011-06-26T14:29:56Z</time>
      </trkpt>
      <trkpt lat="44.05477" lon="1.66833">
        <ele>109</ele>
        <time>2011-06-26T14:29:58Z</time>
      </trkpt>
      <trkpt lat="44.05473" lon="1.66827">
        <ele>111</ele>
        <time>2011-06-26T14:30:00Z</time>
      </trkpt>
      <trkpt lat="44.05469" lon="1.66822">
        <ele>112</ele>
        <time>2011-06-26T14:30:02Z</time>
      </trkpt>
      <trkpt lat="44.05463" lon="1.66815">
        <ele>114</ele>
        <time>2011-06-26T14:30:05Z</time>
      </trkpt>
      <trkpt lat="44.05459" lon="1.6681">
        <ele>115</ele>
        <time>2011-06-26T14:30:07Z</time>
      </trkpt>
      <trkpt lat="44.05455" lon="1.66806">
        <ele>115</ele>
        <time>2011-06-26T14:30:09Z</time>
      </trkpt>
      <trkpt lat="44.05452" lon="1.66802">
        <ele>115</ele>
        <time>2011-06-26T14:30:11Z</time>
      </trkpt>
      <trkpt lat="44.05448" lon="1.66797">
        <ele>115</ele>
        <time>2011-06-26T14:30:13Z</time>
      </trkpt>
      <trkpt lat="44.05444" lon="1.66793">
        <ele>116</ele>
        <time>2011-06-26T14:30:15Z</time>
      </trkpt>
      <trkpt lat="44.0544" lon="1.66788">
        <ele>117</ele>
        <time>2011-06-26T14:30:17Z</time>
      </trkpt>
      <trkpt lat="44.05436" lon="1.66784">
        <ele>117</ele>
        <time>2011-06-26T14:30:19Z</time>
      </trkpt>
      <trkpt lat="44.05432" lon="1.6678">
        <ele>118</ele>
        <time>2011-06-26T14:30:21Z</time>
      </trkpt>
      <trkpt lat="44.05429" lon="1.66775">
        <ele>118</ele>
        <time>2011-06-26T14:30:23Z</time>
      </trkpt>
      <trkpt lat="44.05425" lon="1.6677">
        <ele>118</ele>
        <time>2011-06-26T14:30:25Z</time>
      </trkpt>
      <trkpt lat="44.05421" lon="1.66765">
        <ele>118</ele>
        <time>2011-06-26T14:30:27Z</time>
      </trkpt>
      <trkpt lat="44.05418" lon="1.66759">
        <ele>118</ele>
        <time>2011-06-26T14:30:29Z</time>
      </trkpt>
      <trkpt lat="44.05416" lon="1.66753">
        <ele>118</ele>
        <time>2011-06-26T14:30:31Z</time>
      </trkpt>
      <trkpt lat="44.05415" lon="1.66746">
        <ele>118</ele>
        <time>2011-06-26T14:30:33Z</time>
      </trkpt>
      <trkpt lat="44.05414" lon="1.66738">
        <ele>118</ele>
        <time>2011-06-26T14:30:35Z</time>
      </trkpt>
      <trkpt lat="44.05413" lon="1.66732">
        <ele>118</ele>
        <time>2011-06-26T14:30:37Z</time>
      </trkpt>
      <trkpt lat="44.05411" lon="1.66725">
        <ele>119</ele>
        <time>2011-06-26T14:30:39Z</time>
      </trkpt>
      <trkpt lat="44.05409" lon="1.66714">
        <ele>120</ele>
        <time>2011-06-26T14:30:42Z</time>
      </trkpt>
      <trkpt lat="44.05408" lon="1.66707">
        <ele>121</ele>
        <time>2011-06-26T14:30:44Z</time>
      </trkpt>
      <trkpt lat="44.05407" lon="1.667">
        <ele>121</ele>
        <time>2011-06-26T14:30:46Z</time>
      </trkpt>
      <trkpt lat="44.05406" lon="1.66692">
        <ele>122</ele>
        <time>2011-06-26T14:30:48Z</time>
      </trkpt>
      <trkpt lat="44.05405" lon="1.66685">
        <ele>122</ele>
        <time>2011-06-26T14:30:50Z</time>
      </trkpt>
      <trkpt lat="44.05404" lon="1.66677">
        <ele>122</ele>
        <time>2011-06-26T14:30:52Z</time>
      </trkpt>
      <trkpt lat="44.05403" lon="1.6667">
        <ele>122</ele>
        <time>2011-06-26T14:30:54Z</time>
      </trkpt>
      <trkpt lat="44.05403" lon="1.66663">
        <ele>123</ele>
        <time>2011-06-26T14:30:56Z</time>
      </trkpt>
      <trkpt lat="44.05403" lon="1.66655">
        <ele>123</ele>
        <time>2011-06-26T14:30:58Z</time>
      </trkpt>
      <trkpt lat="44.05403" lon="1.66648">
        <ele>123</ele>
        <time>2011-06-26T14:31:00Z</time>
      </trkpt>
      <trkpt lat="44.05404" lon="1.6664">
        <ele>123</ele>
        <time>2011-06-26T14:31:02Z</time>
      </trkpt>
      <trkpt lat="44.05404" lon="1.66632">
        <ele>123</ele>
        <time>2011-06-26T14:31:04Z</time>
      </trkpt>
      <trkpt lat="44.05404" lon="1.66625">
        <ele>124</ele>
        <time>2011-06-26T14:31:06Z</time>
      </trkpt>
      <trkpt lat="44.05404" lon="1.66617">
        <ele>125</ele>
        <time>2011-06-26T14:31:08Z</time>
      </trkpt>
      <trkpt lat="44.05404" lon="1.6661">
        <ele>126</ele>
        <time>2011-06-26T14:31:10Z</time>
      </trkpt>
      <trkpt lat="44.05405" lon="1.66603">
        <ele>127</ele>
        <time>2011-06-26T14:31:12Z</time>
      </trkpt>
      <trkpt lat="44.05405" lon="1.66595">
        <ele>127</ele>
        <time>2011-06-26T14:31:14Z</time>
      </trkpt>
      <trkpt lat="44.05404" lon="1.66588">
        <ele>128</ele>
        <time>2011-06-26T14:31:16Z</time>
      </trkpt>
      <trkpt lat="44.05403" lon="1.66581">
        <ele>128</ele>
        <time>2011-06-26T14:31:18Z</time>
      </trkpt>
      <trkpt lat="44.05402" lon="1.66574">
        <ele>128</ele>
        <time>2011-06-26T14:31:20Z</time>
      </trkpt>
      <trkpt lat="44.05401" lon="1.66567">
        <ele>129</ele>
        <time>2011-06-26T14:31:22Z</time>
      </trkpt>
      <trkpt lat="44.05399" lon="1.66559">
        <ele>131</ele>
        <time>2011-06-26T14:31:24Z</time>
      </trkpt>
      <trkpt lat="44.05399" lon="1.66552">
        <ele>133</ele>
        <time>2011-06-26T14:31:26Z</time>
      </trkpt>
      <trkpt lat="44.05397" lon="1.66545">
        <ele>135</ele>
        <time>2011-06-26T14:31:28Z</time>
      </trkpt>
      <trkpt lat="44.05397" lon="1.66538">
        <ele>137</ele>
        <time>2011-06-26T14:31:30Z</time>
      </trkpt>
      <trkpt lat="44.05397" lon="1.66533">
        <ele>139</ele>
        <time>2011-06-26T14:31:32Z</time>
      </trkpt>
      <trkpt lat="44.05394" lon="1.66527">
        <ele>140</ele>
        <time>2011-06-26T14:31:34Z</time>
      </trkpt>
      <trkpt lat="44.05393" lon="1.66521">
        <ele>140</ele>
        <time>2011-06-26T14:31:36Z</time>
      </trkpt>
      <trkpt lat="44.05391" lon="1.66513">
        <ele>141</ele>
        <time>2011-06-26T14:31:38Z</time>
      </trkpt>
      <trkpt lat="44.05389" lon="1.66506">
        <ele>141</ele>
        <time>2011-06-26T14:31:40Z</time>
      </trkpt>
      <trkpt lat="44.05388" lon="1.66498">
        <ele>141</ele>
        <time>2011-06-26T14:31:42Z</time>
      </trkpt>
      <trkpt lat="44.05386" lon="1.6649">
        <ele>141</ele>
        <time>2011-06-26T14:31:44Z</time>
      </trkpt>
      <trkpt lat="44.05385" lon="1.66483">
        <ele>141</ele>
        <time>2011-06-26T14:31:46Z</time>
      </trkpt>
      <trkpt lat="44.05383" lon="1.66475">
        <ele>141</ele>
        <time>2011-06-26T14:31:48Z</time>
      </trkpt>
      <trkpt lat="44.05382" lon="1.66468">
        <ele>141</ele>
        <time>2011-06-26T14:31:50Z</time>
      </trkpt>
      <trkpt lat="44.05382" lon="1.66462">
        <ele>141</ele>
        <time>2011-06-26T14:31:52Z</time>
      </trkpt>
      <trkpt lat="44.05381" lon="1.66456">
        <ele>141</ele>
        <time>2011-06-26T14:31:54Z</time>
      </trkpt>
      <trkpt lat="44.05381" lon="1.66455">
        <ele>141</ele>
        <time>2011-06-26T14:31:56Z</time>
      </trkpt>
      <trkpt lat="44.05379" lon="1.66454">
        <ele>141</ele>
        <time>2011-06-26T14:32:00Z</time>
      </trkpt>
      <trkpt lat="44.05378" lon="1.66453">
        <ele>141</ele>
        <time>2011-06-26T14:32:05Z</time>
      </trkpt>
      <trkpt lat="44.05378" lon="1.66451">
        <ele>141</ele>
        <time>2011-06-26T14:32:08Z</time>
      </trkpt>
      <trkpt lat="44.05377" lon="1.66448">
        <ele>141</ele>
        <time>2011-06-26T14:32:11Z</time>
      </trkpt>
      <trkpt lat="44.05377" lon="1.66443">
        <ele>141</ele>
        <time>2011-06-26T14:32:13Z</time>
      </trkpt>
      <trkpt lat="44.05376" lon="1.66436">
        <ele>141</ele>
        <time>2011-06-26T14:32:15Z</time>
      </trkpt>
      <trkpt lat="44.05375" lon="1.66428">
        <ele>141</ele>
        <time>2011-06-26T14:32:17Z</time>
      </trkpt>
      <trkpt lat="44.05374" lon="1.66419">
        <ele>141</ele>
        <time>2011-06-26T14:32:19Z</time>
      </trkpt>
      <trkpt lat="44.05373" lon="1.66409">
        <ele>141</ele>
        <time>2011-06-26T14:32:21Z</time>
      </trkpt>
      <trkpt lat="44.05372" lon="1.66399">
        <ele>140</ele>
        <time>2011-06-26T14:32:23Z</time>
      </trkpt>
      <trkpt lat="44.0537" lon="1.66387">
        <ele>139</ele>
        <time>2011-06-26T14:32:25Z</time>
      </trkpt>
      <trkpt lat="44.05369" lon="1.66376">
        <ele>137</ele>
        <time>2011-06-26T14:32:27Z</time>
      </trkpt>
      <trkpt lat="44.05367" lon="1.66364">
        <ele>136</ele>
        <time>2011-06-26T14:32:29Z</time>
      </trkpt>
      <trkpt lat="44.05366" lon="1.66351">
        <ele>134</ele>
        <time>2011-06-26T14:32:31Z</time>
      </trkpt>
      <trkpt lat="44.05365" lon="1.66337">
        <ele>132</ele>
        <time>2011-06-26T14:32:33Z</time>
      </trkpt>
      <trkpt lat="44.05366" lon="1.66322">
        <ele>131</ele>
        <time>2011-06-26T14:32:35Z</time>
      </trkpt>
      <trkpt lat="44.05369" lon="1.66307">
        <ele>130</ele>
        <time>2011-06-26T14:32:37Z</time>
      </trkpt>
      <trkpt lat="44.05372" lon="1.66292">
        <ele>130</ele>
        <time>2011-06-26T14:32:39Z</time>
      </trkpt>
      <trkpt lat="44.05376" lon="1.66277">
        <ele>129</ele>
        <time>2011-06-26T14:32:41Z</time>
      </trkpt>
      <trkpt lat="44.05379" lon="1.66262">
        <ele>129</ele>
        <time>2011-06-26T14:32:43Z</time>
      </trkpt>
      <trkpt lat="44.05384" lon="1.66239">
        <ele>128</ele>
        <time>2011-06-26T14:32:46Z</time>
      </trkpt>
      <trkpt lat="44.05389" lon="1.66224">
        <ele>128</ele>
        <time>2011-06-26T14:32:48Z</time>
      </trkpt>
      <trkpt lat="44.05393" lon="1.6621">
        <ele>128</ele>
        <time>2011-06-26T14:32:50Z</time>
      </trkpt>
      <trkpt lat="44.05397" lon="1.66197">
        <ele>128</ele>
        <time>2011-06-26T14:32:52Z</time>
      </trkpt>
      <trkpt lat="44.05402" lon="1.66187">
        <ele>128</ele>
        <time>2011-06-26T14:32:54Z</time>
      </trkpt>
      <trkpt lat="44.0541" lon="1.66188">
        <ele>128</ele>
        <time>2011-06-26T14:32:56Z</time>
      </trkpt>
      <trkpt lat="44.05415" lon="1.66196">
        <ele>128</ele>
        <time>2011-06-26T14:32:58Z</time>
      </trkpt>
      <trkpt lat="44.05418" lon="1.66211">
        <ele>128</ele>
        <time>2011-06-26T14:33:01Z</time>
      </trkpt>
      <trkpt lat="44.0542" lon="1.66221">
        <ele>128</ele>
        <time>2011-06-26T14:33:03Z</time>
      </trkpt>
      <trkpt lat="44.05423" lon="1.66231">
        <ele>128</ele>
        <time>2011-06-26T14:33:05Z</time>
      </trkpt>
      <trkpt lat="44.05426" lon="1.66241">
        <ele>128</ele>
        <time>2011-06-26T14:33:07Z</time>
      </trkpt>
      <trkpt lat="44.05432" lon="1.66254">
        <ele>128</ele>
        <time>2011-06-26T14:33:10Z</time>
      </trkpt>
      <trkpt lat="44.05436" lon="1.66263">
        <ele>128</ele>
        <time>2011-06-26T14:33:12Z</time>
      </trkpt>
      <trkpt lat="44.05439" lon="1.66271">
        <ele>128</ele>
        <time>2011-06-26T14:33:14Z</time>
      </trkpt>
      <trkpt lat="44.05443" lon="1.6628">
        <ele>128</ele>
        <time>2011-06-26T14:33:16Z</time>
      </trkpt>
      <trkpt lat="44.05449" lon="1.66292">
        <ele>129</ele>
        <time>2011-06-26T14:33:19Z</time>
      </trkpt>
      <trkpt lat="44.05454" lon="1.66304">
        <ele>130</ele>
        <time>2011-06-26T14:33:22Z</time>
      </trkpt>
      <trkpt lat="44.0546" lon="1.66316">
        <ele>132</ele>
        <time>2011-06-26T14:33:25Z</time>
      </trkpt>
      <trkpt lat="44.05465" lon="1.66327">
        <ele>133</ele>
        <time>2011-06-26T14:33:28Z</time>
      </trkpt>
      <trkpt lat="44.05468" lon="1.66335">
        <ele>134</ele>
        <time>2011-06-26T14:33:30Z</time>
      </trkpt>
      <trkpt lat="44.05471" lon="1.66343">
        <ele>135</ele>
        <time>2011-06-26T14:33:32Z</time>
      </trkpt>
      <trkpt lat="44.05473" lon="1.6635">
        <ele>136</ele>
        <time>2011-06-26T14:33:34Z</time>
      </trkpt>
      <trkpt lat="44.05475" lon="1.66357">
        <ele>137</ele>
        <time>2011-06-26T14:33:36Z</time>
      </trkpt>
      <trkpt lat="44.05477" lon="1.66365">
        <ele>139</ele>
        <time>2011-06-26T14:33:39Z</time>
      </trkpt>
      <trkpt lat="44.05477" lon="1.66369">
        <ele>139</ele>
        <time>2011-06-26T14:33:41Z</time>
      </trkpt>
      <trkpt lat="44.05478" lon="1.66375">
        <ele>139</ele>
        <time>2011-06-26T14:33:43Z</time>
      </trkpt>
      <trkpt lat="44.05482" lon="1.66386">
        <ele>140</ele>
        <time>2011-06-26T14:33:46Z</time>
      </trkpt>
      <trkpt lat="44.05486" lon="1.66394">
        <ele>141</ele>
        <time>2011-06-26T14:33:48Z</time>
      </trkpt>
      <trkpt lat="44.05489" lon="1.66401">
        <ele>143</ele>
        <time>2011-06-26T14:33:50Z</time>
      </trkpt>
      <trkpt lat="44.05493" lon="1.66409">
        <ele>144</ele>
        <time>2011-06-26T14:33:52Z</time>
      </trkpt>
      <trkpt lat="44.05496" lon="1.66416">
        <ele>145</ele>
        <time>2011-06-26T14:33:54Z</time>
      </trkpt>
      <trkpt lat="44.05499" lon="1.66419">
        <ele>147</ele>
        <time>2011-06-26T14:33:57Z</time>
      </trkpt>
      <trkpt lat="44.055" lon="1.6642">
        <ele>147</ele>
        <time>2011-06-26T14:34:01Z</time>
      </trkpt>
      <trkpt lat="44.055" lon="1.66422">
        <ele>148</ele>
        <time>2011-06-26T14:34:06Z</time>
      </trkpt>
      <trkpt lat="44.055" lon="1.66423">
        <ele>148</ele>
        <time>2011-06-26T14:34:10Z</time>
      </trkpt>
      <trkpt lat="44.05501" lon="1.66425">
        <ele>148</ele>
        <time>2011-06-26T14:34:16Z</time>
      </trkpt>
      <trkpt lat="44.055" lon="1.66427">
        <ele>148</ele>
        <time>2011-06-26T14:34:18Z</time>
      </trkpt>
      <trkpt lat="44.05499" lon="1.66428">
        <ele>148</ele>
        <time>2011-06-26T14:34:20Z</time>
      </trkpt>
      <trkpt lat="44.05499" lon="1.66429">
        <ele>148</ele>
        <time>2011-06-26T14:34:23Z</time>
      </trkpt>
      <trkpt lat="44.05499" lon="1.66431">
        <ele>148</ele>
        <time>2011-06-26T14:34:25Z</time>
      </trkpt>
      <trkpt lat="44.05501" lon="1.66433">
        <ele>148</ele>
        <time>2011-06-26T14:34:28Z</time>
      </trkpt>
      <trkpt lat="44.05503" lon="1.66435">
        <ele>148</ele>
        <time>2011-06-26T14:34:30Z</time>
      </trkpt>
      <trkpt lat="44.05502" lon="1.66436">
        <ele>148</ele>
        <time>2011-06-26T14:34:38Z</time>
      </trkpt>
      <trkpt lat="44.05499" lon="1.66431">
        <ele>148</ele>
        <time>2011-06-26T14:34:42Z</time>
      </trkpt>
      <trkpt lat="44.05497" lon="1.66431">
        <ele>148</ele>
        <time>2011-06-26T14:34:44Z</time>
      </trkpt>
      <trkpt lat="44.05495" lon="1.66435">
        <ele>148</ele>
        <time>2011-06-26T14:34:47Z</time>
      </trkpt>
      <trkpt lat="44.05495" lon="1.66438">
        <ele>148</ele>
        <time>2011-06-26T14:34:49Z</time>
      </trkpt>
      <trkpt lat="44.05494" lon="1.66441">
        <ele>148</ele>
        <time>2011-06-26T14:34:51Z</time>
      </trkpt>
      <trkpt lat="44.05492" lon="1.66445">
        <ele>147</ele>
        <time>2011-06-26T14:34:54Z</time>
      </trkpt>
      <trkpt lat="44.0549" lon="1.66447">
        <ele>147</ele>
        <time>2011-06-26T14:34:56Z</time>
      </trkpt>
      <trkpt lat="44.05489" lon="1.66449">
        <ele>147</ele>
        <time>2011-06-26T14:34:58Z</time>
      </trkpt>
      <trkpt lat="44.05487" lon="1.66452">
        <ele>147</ele>
        <time>2011-06-26T14:35:00Z</time>
      </trkpt>
      <trkpt lat="44.05486" lon="1.66454">
        <ele>146</ele>
        <time>2011-06-26T14:35:02Z</time>
      </trkpt>
      <trkpt lat="44.05485" lon="1.66456">
        <ele>146</ele>
        <time>2011-06-26T14:35:04Z</time>
      </trkpt>
      <trkpt lat="44.05484" lon="1.66458">
        <ele>146</ele>
        <time>2011-06-26T14:35:06Z</time>
      </trkpt>
      <trkpt lat="44.05481" lon="1.6646">
        <ele>145</ele>
        <time>2011-06-26T14:35:10Z</time>
      </trkpt>
      <trkpt lat="44.05483" lon="1.66459">
        <ele>145</ele>
        <time>2011-06-26T14:35:16Z</time>
      </trkpt>
      <trkpt lat="44.05484" lon="1.66458">
        <ele>145</ele>
        <time>2011-06-26T14:35:20Z</time>
      </trkpt>
      <trkpt lat="44.05485" lon="1.66456">
        <ele>145</ele>
        <time>2011-06-26T14:35:22Z</time>
      </trkpt>
      <trkpt lat="44.05486" lon="1.66454">
        <ele>145</ele>
        <time>2011-06-26T14:35:24Z</time>
      </trkpt>
      <trkpt lat="44.05488" lon="1.66452">
        <ele>145</ele>
        <time>2011-06-26T14:35:26Z</time>
      </trkpt>
      <trkpt lat="44.05489" lon="1.6645">
        <ele>145</ele>
        <time>2011-06-26T14:35:28Z</time>
      </trkpt>
      <trkpt lat="44.05491" lon="1.66446">
        <ele>145</ele>
        <time>2011-06-26T14:35:31Z</time>
      </trkpt>
      <trkpt lat="44.05492" lon="1.66444">
        <ele>145</ele>
        <time>2011-06-26T14:35:33Z</time>
      </trkpt>
      <trkpt lat="44.05493" lon="1.66442">
        <ele>145</ele>
        <time>2011-06-26T14:35:35Z</time>
      </trkpt>
      <trkpt lat="44.05494" lon="1.66439">
        <ele>145</ele>
        <time>2011-06-26T14:35:37Z</time>
      </trkpt>
      <trkpt lat="44.05496" lon="1.66438">
        <ele>145</ele>
        <time>2011-06-26T14:35:39Z</time>
      </trkpt>
      <trkpt lat="44.05497" lon="1.66434">
        <ele>145</ele>
        <time>2011-06-26T14:35:43Z</time>
      </trkpt>
      <trkpt lat="44.05495" lon="1.66433">
        <ele>145</ele>
        <time>2011-06-26T14:35:45Z</time>
      </trkpt>
      <trkpt lat="44.05495" lon="1.66431">
        <ele>145</ele>
        <time>2011-06-26T14:35:53Z</time>
      </trkpt>
      <trkpt lat="44.05497" lon="1.66432">
        <ele>145</ele>
        <time>2011-06-26T14:35:55Z</time>
      </trkpt>
      <trkpt lat="44.055" lon="1.66429">
        <ele>145</ele>
        <time>2011-06-26T14:35:59Z</time>
      </trkpt>
      <trkpt lat="44.05503" lon="1.66426">
        <ele>145</ele>
        <time>2011-06-26T14:36:03Z</time>
      </trkpt>
      <trkpt lat="44.05505" lon="1.66426">
        <ele>145</ele>
        <time>2011-06-26T14:36:05Z</time>
      </trkpt>
      <trkpt lat="44.05506" lon="1.66424">
        <ele>145</ele>
        <time>2011-06-26T14:36:09Z</time>
      </trkpt>
      <trkpt lat="44.05507" lon="1.66423">
        <ele>145</ele>
        <time>2011-06-26T14:36:17Z</time>
      </trkpt>
      <trkpt lat="44.05509" lon="1.66424">
        <ele>145</ele>
        <time>2011-06-26T14:36:20Z</time>
      </trkpt>
      <trkpt lat="44.05511" lon="1.66424">
        <ele>145</ele>
        <time>2011-06-26T14:36:22Z</time>
      </trkpt>
      <trkpt lat="44.05514" lon="1.66426">
        <ele>145</ele>
        <time>2011-06-26T14:36:25Z</time>
      </trkpt>
      <trkpt lat="44.05518" lon="1.66428">
        <ele>145</ele>
        <time>2011-06-26T14:36:29Z</time>
      </trkpt>
      <trkpt lat="44.05519" lon="1.66428">
        <ele>145</ele>
        <time>2011-06-26T14:36:31Z</time>
      </trkpt>
      <trkpt lat="44.05522" lon="1.66428">
        <ele>145</ele>
        <time>2011-06-26T14:36:35Z</time>
      </trkpt>
      <trkpt lat="44.05523" lon="1.66428">
        <ele>145</ele>
        <time>2011-06-26T14:36:38Z</time>
      </trkpt>
      <trkpt lat="44.05524" lon="1.66432">
        <ele>145</ele>
        <time>2011-06-26T14:36:41Z</time>
      </trkpt>
      <trkpt lat="44.05523" lon="1.66436">
        <ele>145</ele>
        <time>2011-06-26T14:36:43Z</time>
      </trkpt>
      <trkpt lat="44.05523" lon="1.66441">
        <ele>145</ele>
        <time>2011-06-26T14:36:47Z</time>
      </trkpt>
      <trkpt lat="44.05523" lon="1.66442">
        <ele>145</ele>
        <time>2011-06-26T14:36:52Z</time>
      </trkpt>
      <trkpt lat="44.05523" lon="1.6644">
        <ele>147</ele>
        <time>2011-06-26T14:36:59Z</time>
      </trkpt>
      <trkpt lat="44.05519" lon="1.66434">
        <ele>150</ele>
        <time>2011-06-26T14:37:06Z</time>
      </trkpt>
      <trkpt lat="44.05516" lon="1.66436">
        <ele>152</ele>
        <time>2011-06-26T14:37:09Z</time>
      </trkpt>
      <trkpt lat="44.05516" lon="1.66438">
        <ele>154</ele>
        <time>2011-06-26T14:37:11Z</time>
      </trkpt>
      <trkpt lat="44.05516" lon="1.66439">
        <ele>154</ele>
        <time>2011-06-26T14:37:13Z</time>
      </trkpt>
      <trkpt lat="44.05514" lon="1.66442">
        <ele>154</ele>
        <time>2011-06-26T14:37:16Z</time>
      </trkpt>
      <trkpt lat="44.05513" lon="1.66444">
        <ele>154</ele>
        <time>2011-06-26T14:37:19Z</time>
      </trkpt>
      <trkpt lat="44.05512" lon="1.66446">
        <ele>154</ele>
        <time>2011-06-26T14:37:21Z</time>
      </trkpt>
      <trkpt lat="44.05511" lon="1.66444">
        <ele>154</ele>
        <time>2011-06-26T14:37:29Z</time>
      </trkpt>
      <trkpt lat="44.05512" lon="1.66441">
        <ele>154</ele>
        <time>2011-06-26T14:37:34Z</time>
      </trkpt>
      <trkpt lat="44.05511" lon="1.66439">
        <ele>154</ele>
        <time>2011-06-26T14:37:37Z</time>
      </trkpt>
      <trkpt lat="44.0551" lon="1.66438">
        <ele>154</ele>
        <time>2011-06-26T14:37:43Z</time>
      </trkpt>
      <trkpt lat="44.05509" lon="1.6644">
        <ele>155</ele>
        <time>2011-06-26T14:37:49Z</time>
      </trkpt>
      <trkpt lat="44.0551" lon="1.66442">
        <ele>156</ele>
        <time>2011-06-26T14:37:53Z</time>
      </trkpt>
      <trkpt lat="44.05511" lon="1.66442">
        <ele>156</ele>
        <time>2011-06-26T14:37:58Z</time>
      </trkpt>
      <trkpt lat="44.05512" lon="1.6644">
        <ele>161</ele>
        <time>2011-06-26T14:38:17Z</time>
      </trkpt>
      <trkpt lat="44.05512" lon="1.66438">
        <ele>162</ele>
        <time>2011-06-26T14:38:24Z</time>
      </trkpt>
      <trkpt lat="44.05513" lon="1.66437">
        <ele>162</ele>
        <time>2011-06-26T14:38:27Z</time>
      </trkpt>
      <trkpt lat="44.05514" lon="1.66437">
        <ele>162</ele>
        <time>2011-06-26T14:38:29Z</time>
      </trkpt>
      <trkpt lat="44.05516" lon="1.66438">
        <ele>160</ele>
        <time>2011-06-26T14:38:32Z</time>
      </trkpt>
      <trkpt lat="44.05517" lon="1.66438">
        <ele>157</ele>
        <time>2011-06-26T14:38:35Z</time>
      </trkpt>
      <trkpt lat="44.05516" lon="1.6644">
        <ele>151</ele>
        <time>2011-06-26T14:38:48Z</time>
      </trkpt>
      <trkpt lat="44.05515" lon="1.66441">
        <ele>151</ele>
        <time>2011-06-26T14:38:51Z</time>
      </trkpt>
      <trkpt lat="44.05515" lon="1.66443">
        <ele>151</ele>
        <time>2011-06-26T14:38:53Z</time>
      </trkpt>
      <trkpt lat="44.05513" lon="1.66444">
        <ele>151</ele>
        <time>2011-06-26T14:38:58Z</time>
      </trkpt>
      <trkpt lat="44.05512" lon="1.66445">
        <ele>151</ele>
        <time>2011-06-26T14:39:01Z</time>
      </trkpt>
      <trkpt lat="44.05511" lon="1.66447">
        <ele>151</ele>
        <time>2011-06-26T14:39:04Z</time>
      </trkpt>
      <trkpt lat="44.0551" lon="1.66448">
        <ele>154</ele>
        <time>2011-06-26T14:39:15Z</time>
      </trkpt>
      <trkpt lat="44.05512" lon="1.66448">
        <ele>157</ele>
        <time>2011-06-26T14:39:32Z</time>
      </trkpt>
      <trkpt lat="44.05512" lon="1.66447">
        <ele>157</ele>
        <time>2011-06-26T14:39:41Z</time>
      </trkpt>
      <trkpt lat="44.05513" lon="1.66446">
        <ele>156</ele>
        <time>2011-06-26T14:39:46Z</time>
      </trkpt>
      <trkpt lat="44.05513" lon="1.66444">
        <ele>155</ele>
        <time>2011-06-26T14:39:51Z</time>
      </trkpt>
      <trkpt lat="44.05512" lon="1.66444">
        <ele>155</ele>
        <time>2011-06-26T14:39:53Z</time>
      </trkpt>
      <trkpt lat="44.0551" lon="1.66443">
        <ele>155</ele>
        <time>2011-06-26T14:40:00Z</time>
      </trkpt>
      <trkpt lat="44.05512" lon="1.66443">
        <ele>155</ele>
        <time>2011-06-26T14:40:03Z</time>
      </trkpt>
      <trkpt lat="44.05513" lon="1.66443">
        <ele>155</ele>
        <time>2011-06-26T14:40:07Z</time>
      </trkpt>
      <trkpt lat="44.05514" lon="1.66444">
        <ele>155</ele>
        <time>2011-06-26T14:40:11Z</time>
      </trkpt>
      <trkpt lat="44.05515" lon="1.66446">
        <ele>155</ele>
        <time>2011-06-26T14:40:17Z</time>
      </trkpt>
      <trkpt lat="44.05513" lon="1.66446">
        <ele>155</ele>
        <time>2011-06-26T14:40:25Z</time>
      </trkpt>
      <trkpt lat="44.05512" lon="1.66447">
        <ele>155</ele>
        <time>2011-06-26T14:40:42Z</time>
      </trkpt>
      <trkpt lat="44.05511" lon="1.66448">
        <ele>155</ele>
        <time>2011-06-26T14:40:51Z</time>
      </trkpt>
      <trkpt lat="44.05511" lon="1.66447">
        <ele>155</ele>
        <time>2011-06-26T14:41:00Z</time>
      </trkpt>
      <trkpt lat="44.05513" lon="1.66448">
        <ele>154</ele>
        <time>2011-06-26T14:41:05Z</time>
      </trkpt>
      <trkpt lat="44.05514" lon="1.66449">
        <ele>153</ele>
        <time>2011-06-26T14:41:17Z</time>
      </trkpt>
      <trkpt lat="44.05515" lon="1.66449">
        <ele>152</ele>
        <time>2011-06-26T14:41:24Z</time>
      </trkpt>
      <trkpt lat="44.05516" lon="1.66448">
        <ele>149</ele>
        <time>2011-06-26T14:41:47Z</time>
      </trkpt>
      <trkpt lat="44.05517" lon="1.66447">
        <ele>147</ele>
        <time>2011-06-26T14:42:03Z</time>
      </trkpt>
      <trkpt lat="44.05517" lon="1.66447">
        <ele>145</ele>
        <time>2011-06-26T14:42:12Z</time>
      </trkpt>
      <trkpt lat="44.05518" lon="1.66447">
        <ele>145</ele>
        <time>2011-06-26T14:42:26Z</time>
      </trkpt>
      <trkpt lat="44.05517" lon="1.66448">
        <ele>144</ele>
        <time>2011-06-26T14:42:34Z</time>
      </trkpt>
      <trkpt lat="44.05516" lon="1.66449">
        <ele>144</ele>
        <time>2011-06-26T14:42:36Z</time>
      </trkpt>
      <trkpt lat="44.05514" lon="1.66449">
        <ele>144</ele>
        <time>2011-06-26T14:42:42Z</time>
      </trkpt>
      <trkpt lat="44.05513" lon="1.66449">
        <ele>146</ele>
        <time>2011-06-26T14:42:46Z</time>
      </trkpt>
      <trkpt lat="44.05512" lon="1.66448">
        <ele>147</ele>
        <time>2011-06-26T14:42:51Z</time>
      </trkpt>
      <trkpt lat="44.05513" lon="1.66447">
        <ele>144</ele>
        <time>2011-06-26T14:43:01Z</time>
      </trkpt>
      <trkpt lat="44.05512" lon="1.66447">
        <ele>142</ele>
        <time>2011-06-26T14:43:08Z</time>
      </trkpt>
      <trkpt lat="44.0551" lon="1.66448">
        <ele>143</ele>
        <time>2011-06-26T14:43:12Z</time>
      </trkpt>
      <trkpt lat="44.05509" lon="1.66449">
        <ele>146</ele>
        <time>2011-06-26T14:43:15Z</time>
      </trkpt>
      <trkpt lat="44.05508" lon="1.66449">
        <ele>151</ele>
        <time>2011-06-26T14:43:33Z</time>
      </trkpt>
      <trkpt lat="44.05509" lon="1.66448">
        <ele>151</ele>
        <time>2011-06-26T14:43:38Z</time>
      </trkpt>
      <trkpt lat="44.05511" lon="1.66446">
        <ele>151</ele>
        <time>2011-06-26T14:43:42Z</time>
      </trkpt>
      <trkpt lat="44.0551" lon="1.66447">
        <ele>151</ele>
        <time>2011-06-26T14:43:57Z</time>
      </trkpt>
      <trkpt lat="44.05508" lon="1.66447">
        <ele>152</ele>
        <time>2011-06-26T14:44:06Z</time>
      </trkpt>
      <trkpt lat="44.05507" lon="1.66448">
        <ele>155</ele>
        <time>2011-06-26T14:44:10Z</time>
      </trkpt>
      <trkpt lat="44.05508" lon="1.66448">
        <ele>158</ele>
        <time>2011-06-26T14:44:22Z</time>
      </trkpt>
      <trkpt lat="44.0551" lon="1.66448">
        <ele>158</ele>
        <time>2011-06-26T14:44:34Z</time>
      </trkpt>
      <trkpt lat="44.0551" lon="1.66446">
        <ele>158</ele>
        <time>2011-06-26T14:44:55Z</time>
      </trkpt>
      <trkpt lat="44.05511" lon="1.66448">
        <ele>158</ele>
        <time>2011-06-26T14:45:04Z</time>
      </trkpt>
      <trkpt lat="44.0551" lon="1.66449">
        <ele>158</ele>
        <time>2011-06-26T14:45:08Z</time>
      </trkpt>
      <trkpt lat="44.05511" lon="1.66449">
        <ele>157</ele>
        <time>2011-06-26T14:45:20Z</time>
      </trkpt>
      <trkpt lat="44.05513" lon="1.66446">
        <ele>154</ele>
        <time>2011-06-26T14:45:23Z</time>
      </trkpt>
      <trkpt lat="44.05513" lon="1.66445">
        <ele>152</ele>
        <time>2011-06-26T14:45:25Z</time>
      </trkpt>
      <trkpt lat="44.05513" lon="1.66443">
        <ele>152</ele>
        <time>2011-06-26T14:45:27Z</time>
      </trkpt>
      <trkpt lat="44.05513" lon="1.66445">
        <ele>152</ele>
        <time>2011-06-26T14:45:30Z</time>
      </trkpt>
      <trkpt lat="44.05513" lon="1.66446">
        <ele>152</ele>
        <time>2011-06-26T14:45:33Z</time>
      </trkpt>
      <trkpt lat="44.05513" lon="1.66448">
        <ele>151</ele>
        <time>2011-06-26T14:45:36Z</time>
      </trkpt>
      <trkpt lat="44.05512" lon="1.66448">
        <ele>151</ele>
        <time>2011-06-26T14:45:53Z</time>
      </trkpt>
      <trkpt lat="44.05511" lon="1.66448">
        <ele>151</ele>
        <time>2011-06-26T14:45:55Z</time>
      </trkpt>
      <trkpt lat="44.0551" lon="1.66448">
        <ele>151</ele>
        <time>2011-06-26T14:45:58Z</time>
      </trkpt>
      <trkpt lat="44.05509" lon="1.66447">
        <ele>152</ele>
        <time>2011-06-26T14:46:03Z</time>
      </trkpt>
      <trkpt lat="44.05508" lon="1.66445">
        <ele>152</ele>
        <time>2011-06-26T14:46:09Z</time>
      </trkpt>
      <trkpt lat="44.05508" lon="1.66447">
        <ele>152</ele>
        <time>2011-06-26T14:46:15Z</time>
      </trkpt>
      <trkpt lat="44.05508" lon="1.66448">
        <ele>152</ele>
        <time>2011-06-26T14:46:22Z</time>
      </trkpt>
      <trkpt lat="44.05507" lon="1.66449">
        <ele>152</ele>
        <time>2011-06-26T14:46:31Z</time>
      </trkpt>
      <trkpt lat="44.05508" lon="1.66447">
        <ele>152</ele>
        <time>2011-06-26T14:46:35Z</time>
      </trkpt>
      <trkpt lat="44.05509" lon="1.66445">
        <ele>152</ele>
        <time>2011-06-26T14:46:39Z</time>
      </trkpt>
      <trkpt lat="44.0551" lon="1.66444">
        <ele>152</ele>
        <time>2011-06-26T14:46:43Z</time>
      </trkpt>
      <trkpt lat="44.0551" lon="1.66442">
        <ele>152</ele>
        <time>2011-06-26T14:46:46Z</time>
      </trkpt>
      <trkpt lat="44.05512" lon="1.66443">
        <ele>152</ele>
        <time>2011-06-26T14:47:00Z</time>
      </trkpt>
      <trkpt lat="44.05513" lon="1.66443">
        <ele>151</ele>
        <time>2011-06-26T14:47:04Z</time>
      </trkpt>
      <trkpt lat="44.05513" lon="1.66441">
        <ele>148</ele>
        <time>2011-06-26T14:47:11Z</time>
      </trkpt>
      <trkpt lat="44.05514" lon="1.66443">
        <ele>147</ele>
        <time>2011-06-26T14:47:14Z</time>
      </trkpt>
      <trkpt lat="44.05513" lon="1.66441">
        <ele>147</ele>
        <time>2011-06-26T14:47:19Z</time>
      </trkpt>
      <trkpt lat="44.05512" lon="1.6644">
        <ele>147</ele>
        <time>2011-06-26T14:47:23Z</time>
      </trkpt>
      <trkpt lat="44.05511" lon="1.66439">
        <ele>147</ele>
        <time>2011-06-26T14:47:27Z</time>
      </trkpt>
      <trkpt lat="44.05512" lon="1.6644">
        <ele>147</ele>
        <time>2011-06-26T14:47:32Z</time>
      </trkpt>
      <trkpt lat="44.05511" lon="1.66439">
        <ele>147</ele>
        <time>2011-06-26T14:47:41Z</time>
      </trkpt>
      <trkpt lat="44.05512" lon="1.6644">
        <ele>149</ele>
        <time>2011-06-26T14:47:48Z</time>
      </trkpt>
      <trkpt lat="44.05514" lon="1.6644">
        <ele>149</ele>
        <time>2011-06-26T14:47:50Z</time>
      </trkpt>
      <trkpt lat="44.05515" lon="1.66442">
        <ele>149</ele>
        <time>2011-06-26T14:47:56Z</time>
      </trkpt>
      <trkpt lat="44.05515" lon="1.66444">
        <ele>149</ele>
        <time>2011-06-26T14:48:00Z</time>
      </trkpt>
      <trkpt lat="44.05513" lon="1.66446">
        <ele>149</ele>
        <time>2011-06-26T14:48:03Z</time>
      </trkpt>
      <trkpt lat="44.05513" lon="1.66447">
        <ele>149</ele>
        <time>2011-06-26T14:48:07Z</time>
      </trkpt>
      <trkpt lat="44.05511" lon="1.66449">
        <ele>149</ele>
        <time>2011-06-26T14:48:13Z</time>
      </trkpt>
      <trkpt lat="44.05513" lon="1.66449">
        <ele>149</ele>
        <time>2011-06-26T14:48:18Z</time>
      </trkpt>
      <trkpt lat="44.05512" lon="1.66451">
        <ele>149</ele>
        <time>2011-06-26T14:48:25Z</time>
      </trkpt>
      <trkpt lat="44.0551" lon="1.66452">
        <ele>149</ele>
        <time>2011-06-26T14:48:30Z</time>
      </trkpt>
      <trkpt lat="44.05512" lon="1.66449">
        <ele>149</ele>
        <time>2011-06-26T14:48:32Z</time>
      </trkpt>
      <trkpt lat="44.05513" lon="1.66447">
        <ele>149</ele>
        <time>2011-06-26T14:48:34Z</time>
      </trkpt>
      <trkpt lat="44.05513" lon="1.66445">
        <ele>149</ele>
        <time>2011-06-26T14:48:37Z</time>
      </trkpt>
      <trkpt lat="44.05512" lon="1.66446">
        <ele>149</ele>
        <time>2011-06-26T14:48:44Z</time>
      </trkpt>
      <trkpt lat="44.05513" lon="1.66446">
        <ele>149</ele>
        <time>2011-06-26T14:48:48Z</time>
      </trkpt>
      <trkpt lat="44.05514" lon="1.66446">
        <ele>149</ele>
        <time>2011-06-26T14:48:50Z</time>
      </trkpt>
      <trkpt lat="44.05513" lon="1.66446">
        <ele>149</ele>
        <time>2011-06-26T14:48:55Z</time>
      </trkpt>
      <trkpt lat="44.05512" lon="1.66446">
        <ele>149</ele>
        <time>2011-06-26T14:48:58Z</time>
      </trkpt>
      <trkpt lat="44.05512" lon="1.66448">
        <ele>149</ele>
        <time>2011-06-26T14:49:03Z</time>
      </trkpt>
      <trkpt lat="44.0551" lon="1.66448">
        <ele>152</ele>
        <time>2011-06-26T14:49:13Z</time>
      </trkpt>
      <trkpt lat="44.0551" lon="1.66446">
        <ele>155</ele>
        <time>2011-06-26T14:49:19Z</time>
      </trkpt>
      <trkpt lat="44.0551" lon="1.66445">
        <ele>156</ele>
        <time>2011-06-26T14:49:24Z</time>
      </trkpt>
      <trkpt lat="44.05512" lon="1.66444">
        <ele>156</ele>
        <time>2011-06-26T14:49:29Z</time>
      </trkpt>
      <trkpt lat="44.05511" lon="1.66445">
        <ele>156</ele>
        <time>2011-06-26T14:49:34Z</time>
      </trkpt>
      <trkpt lat="44.05511" lon="1.66447">
        <ele>156</ele>
        <time>2011-06-26T14:49:39Z</time>
      </trkpt>
      <trkpt lat="44.05513" lon="1.66448">
        <ele>155</ele>
        <time>2011-06-26T14:49:45Z</time>
      </trkpt>
      <trkpt lat="44.05514" lon="1.66448">
        <ele>153</ele>
        <time>2011-06-26T14:49:49Z</time>
      </trkpt>
      <trkpt lat="44.05515" lon="1.66449">
        <ele>149</ele>
        <time>2011-06-26T14:50:15Z</time>
      </trkpt>
      <trkpt lat="44.05516" lon="1.6645">
        <ele>147</ele>
        <time>2011-06-26T14:50:24Z</time>
      </trkpt>
      <trkpt lat="44.05517" lon="1.66448">
        <ele>145</ele>
        <time>2011-06-26T14:50:28Z</time>
      </trkpt>
      <trkpt lat="44.05516" lon="1.66448">
        <ele>144</ele>
        <time>2011-06-26T14:50:31Z</time>
      </trkpt>
      <trkpt lat="44.05515" lon="1.66449">
        <ele>144</ele>
        <time>2011-06-26T14:50:35Z</time>
      </trkpt>
      <trkpt lat="44.05513" lon="1.66449">
        <ele>144</ele>
        <time>2011-06-26T14:50:41Z</time>
      </trkpt>
      <trkpt lat="44.05515" lon="1.6645">
        <ele>145</ele>
        <time>2011-06-26T14:51:02Z</time>
      </trkpt>
      <trkpt lat="44.05516" lon="1.6645">
        <ele>147</ele>
        <time>2011-06-26T14:51:06Z</time>
      </trkpt>
      <trkpt lat="44.05517" lon="1.66449">
        <ele>147</ele>
        <time>2011-06-26T14:51:08Z</time>
      </trkpt>
      <trkpt lat="44.05519" lon="1.66449">
        <ele>147</ele>
        <time>2011-06-26T14:51:10Z</time>
      </trkpt>
      <trkpt lat="44.05518" lon="1.66447">
        <ele>147</ele>
        <time>2011-06-26T14:51:13Z</time>
      </trkpt>
      <trkpt lat="44.05518" lon="1.66443">
        <ele>147</ele>
        <time>2011-06-26T14:51:15Z</time>
      </trkpt>
      <trkpt lat="44.05518" lon="1.6644">
        <ele>147</ele>
        <time>2011-06-26T14:51:18Z</time>
      </trkpt>
      <trkpt lat="44.05517" lon="1.66436">
        <ele>147</ele>
        <time>2011-06-26T14:51:20Z</time>
      </trkpt>
      <trkpt lat="44.05516" lon="1.66434">
        <ele>145</ele>
        <time>2011-06-26T14:51:24Z</time>
      </trkpt>
      <trkpt lat="44.05515" lon="1.66434">
        <ele>145</ele>
        <time>2011-06-26T14:51:26Z</time>
      </trkpt>
      <trkpt lat="44.05513" lon="1.66432">
        <ele>145</ele>
        <time>2011-06-26T14:51:28Z</time>
      </trkpt>
      <trkpt lat="44.0551" lon="1.66428">
        <ele>144</ele>
        <time>2011-06-26T14:51:31Z</time>
      </trkpt>
      <trkpt lat="44.05507" lon="1.66426">
        <ele>143</ele>
        <time>2011-06-26T14:51:34Z</time>
      </trkpt>
      <trkpt lat="44.05505" lon="1.66425">
        <ele>142</ele>
        <time>2011-06-26T14:51:36Z</time>
      </trkpt>
      <trkpt lat="44.05503" lon="1.66424">
        <ele>142</ele>
        <time>2011-06-26T14:51:38Z</time>
      </trkpt>
      <trkpt lat="44.05505" lon="1.66422">
        <ele>142</ele>
        <time>2011-06-26T14:51:43Z</time>
      </trkpt>
      <trkpt lat="44.05505" lon="1.66421">
        <ele>142</ele>
        <time>2011-06-26T14:51:47Z</time>
      </trkpt>
      <trkpt lat="44.05503" lon="1.6642">
        <ele>142</ele>
        <time>2011-06-26T14:51:51Z</time>
      </trkpt>
      <trkpt lat="44.05503" lon="1.66419">
        <ele>142</ele>
        <time>2011-06-26T14:52:00Z</time>
      </trkpt>
      <trkpt lat="44.05502" lon="1.66416">
        <ele>142</ele>
        <time>2011-06-26T14:52:02Z</time>
      </trkpt>
      <trkpt lat="44.05499" lon="1.66411">
        <ele>142</ele>
        <time>2011-06-26T14:52:04Z</time>
      </trkpt>
      <trkpt lat="44.05497" lon="1.66407">
        <ele>142</ele>
        <time>2011-06-26T14:52:06Z</time>
      </trkpt>
      <trkpt lat="44.05496" lon="1.66401">
        <ele>142</ele>
        <time>2011-06-26T14:52:08Z</time>
      </trkpt>
      <trkpt lat="44.05494" lon="1.66396">
        <ele>142</ele>
        <time>2011-06-26T14:52:10Z</time>
      </trkpt>
      <trkpt lat="44.05491" lon="1.6639">
        <ele>142</ele>
        <time>2011-06-26T14:52:12Z</time>
      </trkpt>
      <trkpt lat="44.05488" lon="1.66382">
        <ele>142</ele>
        <time>2011-06-26T14:52:14Z</time>
      </trkpt>
      <trkpt lat="44.05484" lon="1.66373">
        <ele>142</ele>
        <time>2011-06-26T14:52:16Z</time>
      </trkpt>
      <trkpt lat="44.0548" lon="1.66362">
        <ele>142</ele>
        <time>2011-06-26T14:52:18Z</time>
      </trkpt>
      <trkpt lat="44.05476" lon="1.6635">
        <ele>142</ele>
        <time>2011-06-26T14:52:20Z</time>
      </trkpt>
      <trkpt lat="44.0547" lon="1.66338">
        <ele>141</ele>
        <time>2011-06-26T14:52:22Z</time>
      </trkpt>
      <trkpt lat="44.05465" lon="1.66324">
        <ele>140</ele>
        <time>2011-06-26T14:52:24Z</time>
      </trkpt>
      <trkpt lat="44.05458" lon="1.6631">
        <ele>138</ele>
        <time>2011-06-26T14:52:26Z</time>
      </trkpt>
      <trkpt lat="44.05451" lon="1.66296">
        <ele>137</ele>
        <time>2011-06-26T14:52:28Z</time>
      </trkpt>
      <trkpt lat="44.05445" lon="1.66282">
        <ele>136</ele>
        <time>2011-06-26T14:52:30Z</time>
      </trkpt>
      <trkpt lat="44.05438" lon="1.66269">
        <ele>135</ele>
        <time>2011-06-26T14:52:32Z</time>
      </trkpt>
      <trkpt lat="44.05432" lon="1.66255">
        <ele>134</ele>
        <time>2011-06-26T14:52:34Z</time>
      </trkpt>
      <trkpt lat="44.05426" lon="1.66242">
        <ele>132</ele>
        <time>2011-06-26T14:52:36Z</time>
      </trkpt>
      <trkpt lat="44.05421" lon="1.66229">
        <ele>131</ele>
        <time>2011-06-26T14:52:38Z</time>
      </trkpt>
      <trkpt lat="44.05417" lon="1.66216">
        <ele>130</ele>
        <time>2011-06-26T14:52:40Z</time>
      </trkpt>
      <trkpt lat="44.05414" lon="1.66206">
        <ele>130</ele>
        <time>2011-06-26T14:52:42Z</time>
      </trkpt>
      <trkpt lat="44.05413" lon="1.66198">
        <ele>129</ele>
        <time>2011-06-26T14:52:44Z</time>
      </trkpt>
      <trkpt lat="44.0541" lon="1.66193">
        <ele>129</ele>
        <time>2011-06-26T14:52:46Z</time>
      </trkpt>
      <trkpt lat="44.05409" lon="1.66189">
        <ele>129</ele>
        <time>2011-06-26T14:52:48Z</time>
      </trkpt>
      <trkpt lat="44.05407" lon="1.66184">
        <ele>128</ele>
        <time>2011-06-26T14:52:50Z</time>
      </trkpt>
      <trkpt lat="44.05403" lon="1.66182">
        <ele>127</ele>
        <time>2011-06-26T14:52:52Z</time>
      </trkpt>
      <trkpt lat="44.05399" lon="1.66186">
        <ele>127</ele>
        <time>2011-06-26T14:52:54Z</time>
      </trkpt>
      <trkpt lat="44.05394" lon="1.66192">
        <ele>127</ele>
        <time>2011-06-26T14:52:56Z</time>
      </trkpt>
      <trkpt lat="44.0539" lon="1.66201">
        <ele>127</ele>
        <time>2011-06-26T14:52:58Z</time>
      </trkpt>
      <trkpt lat="44.05387" lon="1.6621">
        <ele>127</ele>
        <time>2011-06-26T14:53:00Z</time>
      </trkpt>
      <trkpt lat="44.05383" lon="1.6622">
        <ele>127</ele>
        <time>2011-06-26T14:53:02Z</time>
      </trkpt>
      <trkpt lat="44.05381" lon="1.66231">
        <ele>127</ele>
        <time>2011-06-26T14:53:04Z</time>
      </trkpt>
      <trkpt lat="44.05378" lon="1.66242">
        <ele>127</ele>
        <time>2011-06-26T14:53:06Z</time>
      </trkpt>
      <trkpt lat="44.05375" lon="1.66253">
        <ele>127</ele>
        <time>2011-06-26T14:53:08Z</time>
      </trkpt>
      <trkpt lat="44.05372" lon="1.66263">
        <ele>127</ele>
        <time>2011-06-26T14:53:10Z</time>
      </trkpt>
      <trkpt lat="44.0537" lon="1.66275">
        <ele>127</ele>
        <time>2011-06-26T14:53:12Z</time>
      </trkpt>
      <trkpt lat="44.05368" lon="1.66286">
        <ele>127</ele>
        <time>2011-06-26T14:53:14Z</time>
      </trkpt>
      <trkpt lat="44.05365" lon="1.66297">
        <ele>127</ele>
        <time>2011-06-26T14:53:16Z</time>
      </trkpt>
      <trkpt lat="44.05363" lon="1.66309">
        <ele>127</ele>
        <time>2011-06-26T14:53:18Z</time>
      </trkpt>
      <trkpt lat="44.05361" lon="1.6632">
        <ele>127</ele>
        <time>2011-06-26T14:53:20Z</time>
      </trkpt>
      <trkpt lat="44.0536" lon="1.66332">
        <ele>127</ele>
        <time>2011-06-26T14:53:22Z</time>
      </trkpt>
      <trkpt lat="44.05359" lon="1.66343">
        <ele>127</ele>
        <time>2011-06-26T14:53:24Z</time>
      </trkpt>
      <trkpt lat="44.05358" lon="1.66355">
        <ele>128</ele>
        <time>2011-06-26T14:53:26Z</time>
      </trkpt>
      <trkpt lat="44.05357" lon="1.66367">
        <ele>129</ele>
        <time>2011-06-26T14:53:28Z</time>
      </trkpt>
      <trkpt lat="44.05357" lon="1.66379">
        <ele>130</ele>
        <time>2011-06-26T14:53:30Z</time>
      </trkpt>
      <trkpt lat="44.05357" lon="1.66391">
        <ele>131</ele>
        <time>2011-06-26T14:53:32Z</time>
      </trkpt>
      <trkpt lat="44.05356" lon="1.66402">
        <ele>132</ele>
        <time>2011-06-26T14:53:34Z</time>
      </trkpt>
      <trkpt lat="44.05356" lon="1.66414">
        <ele>133</ele>
        <time>2011-06-26T14:53:36Z</time>
      </trkpt>
      <trkpt lat="44.05357" lon="1.66426">
        <ele>134</ele>
        <time>2011-06-26T14:53:38Z</time>
      </trkpt>
      <trkpt lat="44.05356" lon="1.66437">
        <ele>134</ele>
        <time>2011-06-26T14:53:40Z</time>
      </trkpt>
      <trkpt lat="44.05356" lon="1.66449">
        <ele>135</ele>
        <time>2011-06-26T14:53:42Z</time>
      </trkpt>
      <trkpt lat="44.05356" lon="1.66461">
        <ele>135</ele>
        <time>2011-06-26T14:53:44Z</time>
      </trkpt>
      <trkpt lat="44.05355" lon="1.66473">
        <ele>136</ele>
        <time>2011-06-26T14:53:46Z</time>
      </trkpt>
      <trkpt lat="44.05355" lon="1.66488">
        <ele>136</ele>
        <time>2011-06-26T14:53:48Z</time>
      </trkpt>
      <trkpt lat="44.05355" lon="1.66504">
        <ele>136</ele>
        <time>2011-06-26T14:53:50Z</time>
      </trkpt>
      <trkpt lat="44.05355" lon="1.66521">
        <ele>136</ele>
        <time>2011-06-26T14:53:52Z</time>
      </trkpt>
      <trkpt lat="44.05354" lon="1.6654">
        <ele>136</ele>
        <time>2011-06-26T14:53:54Z</time>
      </trkpt>
      <trkpt lat="44.05355" lon="1.6656">
        <ele>136</ele>
        <time>2011-06-26T14:53:56Z</time>
      </trkpt>
      <trkpt lat="44.05356" lon="1.66581">
        <ele>136</ele>
        <time>2011-06-26T14:53:58Z</time>
      </trkpt>
      <trkpt lat="44.05358" lon="1.66604">
        <ele>136</ele>
        <time>2011-06-26T14:54:00Z</time>
      </trkpt>
      <trkpt lat="44.05359" lon="1.66628">
        <ele>136</ele>
        <time>2011-06-26T14:54:02Z</time>
      </trkpt>
      <trkpt lat="44.05361" lon="1.66651">
        <ele>136</ele>
        <time>2011-06-26T14:54:04Z</time>
      </trkpt>
      <trkpt lat="44.05364" lon="1.66674">
        <ele>136</ele>
        <time>2011-06-26T14:54:06Z</time>
      </trkpt>
      <trkpt lat="44.05368" lon="1.66696">
        <ele>136</ele>
        <time>2011-06-26T14:54:08Z</time>
      </trkpt>
      <trkpt lat="44.05371" lon="1.66719">
        <ele>135</ele>
        <time>2011-06-26T14:54:10Z</time>
      </trkpt>
      <trkpt lat="44.05375" lon="1.66742">
        <ele>134</ele>
        <time>2011-06-26T14:54:12Z</time>
      </trkpt>
      <trkpt lat="44.05378" lon="1.66765">
        <ele>133</ele>
        <time>2011-06-26T14:54:14Z</time>
      </trkpt>
      <trkpt lat="44.0538" lon="1.66788">
        <ele>131</ele>
        <time>2011-06-26T14:54:16Z</time>
      </trkpt>
      <trkpt lat="44.05382" lon="1.66812">
        <ele>130</ele>
        <time>2011-06-26T14:54:18Z</time>
      </trkpt>
      <trkpt lat="44.05382" lon="1.66836">
        <ele>129</ele>
        <time>2011-06-26T14:54:20Z</time>
      </trkpt>
      <trkpt lat="44.05378" lon="1.6686">
        <ele>129</ele>
        <time>2011-06-26T14:54:22Z</time>
      </trkpt>
      <trkpt lat="44.0537" lon="1.66881">
        <ele>128</ele>
        <time>2011-06-26T14:54:24Z</time>
      </trkpt>
      <trkpt lat="44.05358" lon="1.66899">
        <ele>127</ele>
        <time>2011-06-26T14:54:26Z</time>
      </trkpt>
      <trkpt lat="44.05344" lon="1.66914">
        <ele>126</ele>
        <time>2011-06-26T14:54:28Z</time>
      </trkpt>
      <trkpt lat="44.0533" lon="1.66926">
        <ele>125</ele>
        <time>2011-06-26T14:54:30Z</time>
      </trkpt>
      <trkpt lat="44.05313" lon="1.66935">
        <ele>123</ele>
        <time>2011-06-26T14:54:32Z</time>
      </trkpt>
      <trkpt lat="44.05297" lon="1.66946">
        <ele>122</ele>
        <time>2011-06-26T14:54:34Z</time>
      </trkpt>
      <trkpt lat="44.05281" lon="1.66956">
        <ele>121</ele>
        <time>2011-06-26T14:54:36Z</time>
      </trkpt>
      <trkpt lat="44.05265" lon="1.66967">
        <ele>120</ele>
        <time>2011-06-26T14:54:38Z</time>
      </trkpt>
      <trkpt lat="44.05249" lon="1.66978">
        <ele>119</ele>
        <time>2011-06-26T14:54:40Z</time>
      </trkpt>
      <trkpt lat="44.05232" lon="1.6699">
        <ele>118</ele>
        <time>2011-06-26T14:54:42Z</time>
      </trkpt>
      <trkpt lat="44.05216" lon="1.67001">
        <ele>117</ele>
        <time>2011-06-26T14:54:44Z</time>
      </trkpt>
      <trkpt lat="44.05199" lon="1.67012">
        <ele>116</ele>
        <time>2011-06-26T14:54:46Z</time>
      </trkpt>
      <trkpt lat="44.05182" lon="1.67023">
        <ele>115</ele>
        <time>2011-06-26T14:54:48Z</time>
      </trkpt>
      <trkpt lat="44.05166" lon="1.67035">
        <ele>114</ele>
        <time>2011-06-26T14:54:50Z</time>
      </trkpt>
      <trkpt lat="44.05149" lon="1.67046">
        <ele>114</ele>
        <time>2011-06-26T14:54:52Z</time>
      </trkpt>
      <trkpt lat="44.05132" lon="1.67057">
        <ele>113</ele>
        <time>2011-06-26T14:54:54Z</time>
      </trkpt>
      <trkpt lat="44.05116" lon="1.67068">
        <ele>112</ele>
        <time>2011-06-26T14:54:56Z</time>
      </trkpt>
      <trkpt lat="44.051" lon="1.67079">
        <ele>111</ele>
        <time>2011-06-26T14:54:58Z</time>
      </trkpt>
      <trkpt lat="44.05085" lon="1.67093">
        <ele>110</ele>
        <time>2011-06-26T14:55:00Z</time>
      </trkpt>
      <trkpt lat="44.05074" lon="1.67111">
        <ele>110</ele>
        <time>2011-06-26T14:55:02Z</time>
      </trkpt>
      <trkpt lat="44.05069" lon="1.67133">
        <ele>110</ele>
        <time>2011-06-26T14:55:04Z</time>
      </trkpt>
      <trkpt lat="44.0507" lon="1.67155">
        <ele>110</ele>
        <time>2011-06-26T14:55:06Z</time>
      </trkpt>
      <trkpt lat="44.05077" lon="1.67174">
        <ele>110</ele>
        <time>2011-06-26T14:55:08Z</time>
      </trkpt>
      <trkpt lat="44.05087" lon="1.6719">
        <ele>110</ele>
        <time>2011-06-26T14:55:10Z</time>
      </trkpt>
      <trkpt lat="44.05099" lon="1.67203">
        <ele>110</ele>
        <time>2011-06-26T14:55:12Z</time>
      </trkpt>
      <trkpt lat="44.05109" lon="1.67218">
        <ele>110</ele>
        <time>2011-06-26T14:55:14Z</time>
      </trkpt>
      <trkpt lat="44.05117" lon="1.67234">
        <ele>110</ele>
        <time>2011-06-26T14:55:16Z</time>
      </trkpt>
      <trkpt lat="44.0512" lon="1.67252">
        <ele>110</ele>
        <time>2011-06-26T14:55:18Z</time>
      </trkpt>
      <trkpt lat="44.05119" lon="1.67266">
        <ele>110</ele>
        <time>2011-06-26T14:55:20Z</time>
      </trkpt>
      <trkpt lat="44.05116" lon="1.67274">
        <ele>110</ele>
        <time>2011-06-26T14:55:22Z</time>
      </trkpt>
      <trkpt lat="44.05112" lon="1.67282">
        <ele>110</ele>
        <time>2011-06-26T14:55:24Z</time>
      </trkpt>
      <trkpt lat="44.05106" lon="1.67291">
        <ele>110</ele>
        <time>2011-06-26T14:55:26Z</time>
      </trkpt>
      <trkpt lat="44.05098" lon="1.67301">
        <ele>110</ele>
        <time>2011-06-26T14:55:28Z</time>
      </trkpt>
      <trkpt lat="44.0509" lon="1.67312">
        <ele>110</ele>
        <time>2011-06-26T14:55:30Z</time>
      </trkpt>
      <trkpt lat="44.05081" lon="1.67323">
        <ele>110</ele>
        <time>2011-06-26T14:55:32Z</time>
      </trkpt>
      <trkpt lat="44.05072" lon="1.67334">
        <ele>110</ele>
        <time>2011-06-26T14:55:34Z</time>
      </trkpt>
      <trkpt lat="44.05062" lon="1.67346">
        <ele>110</ele>
        <time>2011-06-26T14:55:36Z</time>
      </trkpt>
      <trkpt lat="44.05053" lon="1.67359">
        <ele>110</ele>
        <time>2011-06-26T14:55:38Z</time>
      </trkpt>
      <trkpt lat="44.05043" lon="1.6737">
        <ele>110</ele>
        <time>2011-06-26T14:55:40Z</time>
      </trkpt>
      <trkpt lat="44.05034" lon="1.67383">
        <ele>110</ele>
        <time>2011-06-26T14:55:42Z</time>
      </trkpt>
      <trkpt lat="44.05024" lon="1.67395">
        <ele>110</ele>
        <time>2011-06-26T14:55:44Z</time>
      </trkpt>
      <trkpt lat="44.05015" lon="1.67408">
        <ele>111</ele>
        <time>2011-06-26T14:55:46Z</time>
      </trkpt>
      <trkpt lat="44.05006" lon="1.6742">
        <ele>112</ele>
        <time>2011-06-26T14:55:48Z</time>
      </trkpt>
      <trkpt lat="44.04996" lon="1.67432">
        <ele>112</ele>
        <time>2011-06-26T14:55:50Z</time>
      </trkpt>
      <trkpt lat="44.04986" lon="1.67443">
        <ele>112</ele>
        <time>2011-06-26T14:55:52Z</time>
      </trkpt>
      <trkpt lat="44.04975" lon="1.67452">
        <ele>112</ele>
        <time>2011-06-26T14:55:54Z</time>
      </trkpt>
      <trkpt lat="44.04963" lon="1.67458">
        <ele>112</ele>
        <time>2011-06-26T14:55:56Z</time>
      </trkpt>
      <trkpt lat="44.0495" lon="1.67461">
        <ele>112</ele>
        <time>2011-06-26T14:55:58Z</time>
      </trkpt>
      <trkpt lat="44.04936" lon="1.67461">
        <ele>112</ele>
        <time>2011-06-26T14:56:00Z</time>
      </trkpt>
      <trkpt lat="44.04923" lon="1.67458">
        <ele>112</ele>
        <time>2011-06-26T14:56:02Z</time>
      </trkpt>
      <trkpt lat="44.04911" lon="1.67455">
        <ele>112</ele>
        <time>2011-06-26T14:56:04Z</time>
      </trkpt>
      <trkpt lat="44.04898" lon="1.67451">
        <ele>112</ele>
        <time>2011-06-26T14:56:06Z</time>
      </trkpt>
      <trkpt lat="44.04886" lon="1.67448">
        <ele>112</ele>
        <time>2011-06-26T14:56:08Z</time>
      </trkpt>
      <trkpt lat="44.04873" lon="1.67445">
        <ele>112</ele>
        <time>2011-06-26T14:56:10Z</time>
      </trkpt>
      <trkpt lat="44.04861" lon="1.67442">
        <ele>112</ele>
        <time>2011-06-26T14:56:12Z</time>
      </trkpt>
      <trkpt lat="44.04848" lon="1.67438">
        <ele>111</ele>
        <time>2011-06-26T14:56:14Z</time>
      </trkpt>
      <trkpt lat="44.04835" lon="1.67435">
        <ele>110</ele>
        <time>2011-06-26T14:56:16Z</time>
      </trkpt>
      <trkpt lat="44.04822" lon="1.67431">
        <ele>110</ele>
        <time>2011-06-26T14:56:18Z</time>
      </trkpt>
      <trkpt lat="44.04809" lon="1.67428">
        <ele>109</ele>
        <time>2011-06-26T14:56:20Z</time>
      </trkpt>
      <trkpt lat="44.04796" lon="1.67425">
        <ele>109</ele>
        <time>2011-06-26T14:56:22Z</time>
      </trkpt>
      <trkpt lat="44.04784" lon="1.67422">
        <ele>108</ele>
        <time>2011-06-26T14:56:24Z</time>
      </trkpt>
      <trkpt lat="44.04772" lon="1.6742">
        <ele>108</ele>
        <time>2011-06-26T14:56:26Z</time>
      </trkpt>
      <trkpt lat="44.0476" lon="1.67418">
        <ele>107</ele>
        <time>2011-06-26T14:56:28Z</time>
      </trkpt>
      <trkpt lat="44.04747" lon="1.67416">
        <ele>106</ele>
        <time>2011-06-26T14:56:30Z</time>
      </trkpt>
      <trkpt lat="44.04734" lon="1.67415">
        <ele>106</ele>
        <time>2011-06-26T14:56:32Z</time>
      </trkpt>
      <trkpt lat="44.04722" lon="1.67413">
        <ele>105</ele>
        <time>2011-06-26T14:56:34Z</time>
      </trkpt>
      <trkpt lat="44.04709" lon="1.67412">
        <ele>105</ele>
        <time>2011-06-26T14:56:36Z</time>
      </trkpt>
      <trkpt lat="44.04696" lon="1.6741">
        <ele>105</ele>
        <time>2011-06-26T14:56:38Z</time>
      </trkpt>
      <trkpt lat="44.04684" lon="1.67409">
        <ele>104</ele>
        <time>2011-06-26T14:56:40Z</time>
      </trkpt>
      <trkpt lat="44.04671" lon="1.67407">
        <ele>104</ele>
        <time>2011-06-26T14:56:42Z</time>
      </trkpt>
      <trkpt lat="44.04659" lon="1.67405">
        <ele>103</ele>
        <time>2011-06-26T14:56:44Z</time>
      </trkpt>
      <trkpt lat="44.04646" lon="1.67404">
        <ele>103</ele>
        <time>2011-06-26T14:56:46Z</time>
      </trkpt>
      <trkpt lat="44.04634" lon="1.67402">
        <ele>103</ele>
        <time>2011-06-26T14:56:48Z</time>
      </trkpt>
      <trkpt lat="44.04623" lon="1.674">
        <ele>103</ele>
        <time>2011-06-26T14:56:50Z</time>
      </trkpt>
      <trkpt lat="44.04611" lon="1.67396">
        <ele>103</ele>
        <time>2011-06-26T14:56:52Z</time>
      </trkpt>
      <trkpt lat="44.046" lon="1.67387">
        <ele>103</ele>
        <time>2011-06-26T14:56:54Z</time>
      </trkpt>
      <trkpt lat="44.04591" lon="1.67376">
        <ele>103</ele>
        <time>2011-06-26T14:56:56Z</time>
      </trkpt>
      <trkpt lat="44.04583" lon="1.67363">
        <ele>103</ele>
        <time>2011-06-26T14:56:58Z</time>
      </trkpt>
      <trkpt lat="44.04577" lon="1.67349">
        <ele>103</ele>
        <time>2011-06-26T14:57:00Z</time>
      </trkpt>
      <trkpt lat="44.04572" lon="1.67333">
        <ele>103</ele>
        <time>2011-06-26T14:57:02Z</time>
      </trkpt>
      <trkpt lat="44.04568" lon="1.67318">
        <ele>103</ele>
        <time>2011-06-26T14:57:04Z</time>
      </trkpt>
      <trkpt lat="44.04564" lon="1.67302">
        <ele>103</ele>
        <time>2011-06-26T14:57:06Z</time>
      </trkpt>
      <trkpt lat="44.04559" lon="1.67286">
        <ele>103</ele>
        <time>2011-06-26T14:57:08Z</time>
      </trkpt>
      <trkpt lat="44.04555" lon="1.6727">
        <ele>103</ele>
        <time>2011-06-26T14:57:10Z</time>
      </trkpt>
      <trkpt lat="44.04551" lon="1.67255">
        <ele>103</ele>
        <time>2011-06-26T14:57:12Z</time>
      </trkpt>
      <trkpt lat="44.04546" lon="1.6724">
        <ele>103</ele>
        <time>2011-06-26T14:57:14Z</time>
      </trkpt>
      <trkpt lat="44.04542" lon="1.67225">
        <ele>103</ele>
        <time>2011-06-26T14:57:16Z</time>
      </trkpt>
      <trkpt lat="44.04536" lon="1.67212">
        <ele>103</ele>
        <time>2011-06-26T14:57:18Z</time>
      </trkpt>
      <trkpt lat="44.04528" lon="1.67202">
        <ele>103</ele>
        <time>2011-06-26T14:57:20Z</time>
      </trkpt>
      <trkpt lat="44.04521" lon="1.67195">
        <ele>103</ele>
        <time>2011-06-26T14:57:22Z</time>
      </trkpt>
      <trkpt lat="44.04516" lon="1.67188">
        <ele>103</ele>
        <time>2011-06-26T14:57:24Z</time>
      </trkpt>
      <trkpt lat="44.0451" lon="1.67182">
        <ele>103</ele>
        <time>2011-06-26T14:57:26Z</time>
      </trkpt>
      <trkpt lat="44.04505" lon="1.67176">
        <ele>103</ele>
        <time>2011-06-26T14:57:28Z</time>
      </trkpt>
      <trkpt lat="44.045" lon="1.67172">
        <ele>103</ele>
        <time>2011-06-26T14:57:30Z</time>
      </trkpt>
      <trkpt lat="44.04496" lon="1.67167">
        <ele>104</ele>
        <time>2011-06-26T14:57:32Z</time>
      </trkpt>
      <trkpt lat="44.0449" lon="1.67162">
        <ele>105</ele>
        <time>2011-06-26T14:57:34Z</time>
      </trkpt>
      <trkpt lat="44.04484" lon="1.67158">
        <ele>106</ele>
        <time>2011-06-26T14:57:36Z</time>
      </trkpt>
      <trkpt lat="44.0448" lon="1.67154">
        <ele>108</ele>
        <time>2011-06-26T14:57:38Z</time>
      </trkpt>
      <trkpt lat="44.04475" lon="1.67151">
        <ele>109</ele>
        <time>2011-06-26T14:57:40Z</time>
      </trkpt>
      <trkpt lat="44.0447" lon="1.67152">
        <ele>110</ele>
        <time>2011-06-26T14:57:42Z</time>
      </trkpt>
      <trkpt lat="44.04466" lon="1.67156">
        <ele>111</ele>
        <time>2011-06-26T14:57:44Z</time>
      </trkpt>
      <trkpt lat="44.04464" lon="1.67163">
        <ele>113</ele>
        <time>2011-06-26T14:57:46Z</time>
      </trkpt>
      <trkpt lat="44.04463" lon="1.67171">
        <ele>114</ele>
        <time>2011-06-26T14:57:48Z</time>
      </trkpt>
      <trkpt lat="44.04462" lon="1.67179">
        <ele>115</ele>
        <time>2011-06-26T14:57:50Z</time>
      </trkpt>
      <trkpt lat="44.04459" lon="1.67186">
        <ele>116</ele>
        <time>2011-06-26T14:57:52Z</time>
      </trkpt>
      <trkpt lat="44.04456" lon="1.67192">
        <ele>118</ele>
        <time>2011-06-26T14:57:54Z</time>
      </trkpt>
      <trkpt lat="44.04453" lon="1.67198">
        <ele>119</ele>
        <time>2011-06-26T14:57:56Z</time>
      </trkpt>
      <trkpt lat="44.04449" lon="1.67203">
        <ele>120</ele>
        <time>2011-06-26T14:57:58Z</time>
      </trkpt>
      <trkpt lat="44.04446" lon="1.67208">
        <ele>121</ele>
        <time>2011-06-26T14:58:00Z</time>
      </trkpt>
      <trkpt lat="44.04442" lon="1.67213">
        <ele>121</ele>
        <time>2011-06-26T14:58:02Z</time>
      </trkpt>
      <trkpt lat="44.04438" lon="1.67219">
        <ele>122</ele>
        <time>2011-06-26T14:58:04Z</time>
      </trkpt>
      <trkpt lat="44.04437" lon="1.67225">
        <ele>123</ele>
        <time>2011-06-26T14:58:06Z</time>
      </trkpt>
      <trkpt lat="44.04436" lon="1.67232">
        <ele>124</ele>
        <time>2011-06-26T14:58:08Z</time>
      </trkpt>
      <trkpt lat="44.04436" lon="1.67238">
        <ele>124</ele>
        <time>2011-06-26T14:58:10Z</time>
      </trkpt>
      <trkpt lat="44.04435" lon="1.67244">
        <ele>125</ele>
        <time>2011-06-26T14:58:12Z</time>
      </trkpt>
      <trkpt lat="44.04435" lon="1.6725">
        <ele>127</ele>
        <time>2011-06-26T14:58:14Z</time>
      </trkpt>
      <trkpt lat="44.04436" lon="1.67256">
        <ele>128</ele>
        <time>2011-06-26T14:58:16Z</time>
      </trkpt>
      <trkpt lat="44.04436" lon="1.67263">
        <ele>129</ele>
        <time>2011-06-26T14:58:18Z</time>
      </trkpt>
      <trkpt lat="44.04435" lon="1.6727">
        <ele>131</ele>
        <time>2011-06-26T14:58:20Z</time>
      </trkpt>
      <trkpt lat="44.04435" lon="1.67277">
        <ele>132</ele>
        <time>2011-06-26T14:58:22Z</time>
      </trkpt>
      <trkpt lat="44.04433" lon="1.67283">
        <ele>133</ele>
        <time>2011-06-26T14:58:24Z</time>
      </trkpt>
      <trkpt lat="44.04431" lon="1.67288">
        <ele>133</ele>
        <time>2011-06-26T14:58:26Z</time>
      </trkpt>
      <trkpt lat="44.04427" lon="1.67293">
        <ele>133</ele>
        <time>2011-06-26T14:58:28Z</time>
      </trkpt>
      <trkpt lat="44.04424" lon="1.67296">
        <ele>133</ele>
        <time>2011-06-26T14:58:30Z</time>
      </trkpt>
      <trkpt lat="44.04421" lon="1.67299">
        <ele>134</ele>
        <time>2011-06-26T14:58:32Z</time>
      </trkpt>
      <trkpt lat="44.04418" lon="1.67303">
        <ele>134</ele>
        <time>2011-06-26T14:58:34Z</time>
      </trkpt>
      <trkpt lat="44.04415" lon="1.67306">
        <ele>134</ele>
        <time>2011-06-26T14:58:36Z</time>
      </trkpt>
      <trkpt lat="44.04411" lon="1.67309">
        <ele>134</ele>
        <time>2011-06-26T14:58:38Z</time>
      </trkpt>
      <trkpt lat="44.04408" lon="1.67313">
        <ele>135</ele>
        <time>2011-06-26T14:58:40Z</time>
      </trkpt>
      <trkpt lat="44.04404" lon="1.67316">
        <ele>136</ele>
        <time>2011-06-26T14:58:42Z</time>
      </trkpt>
      <trkpt lat="44.04401" lon="1.67319">
        <ele>137</ele>
        <time>2011-06-26T14:58:44Z</time>
      </trkpt>
      <trkpt lat="44.04398" lon="1.67322">
        <ele>137</ele>
        <time>2011-06-26T14:58:46Z</time>
      </trkpt>
      <trkpt lat="44.04395" lon="1.67325">
        <ele>137</ele>
        <time>2011-06-26T14:58:48Z</time>
      </trkpt>
      <trkpt lat="44.04392" lon="1.67328">
        <ele>137</ele>
        <time>2011-06-26T14:58:50Z</time>
      </trkpt>
      <trkpt lat="44.04388" lon="1.6733">
        <ele>137</ele>
        <time>2011-06-26T14:58:52Z</time>
      </trkpt>
      <trkpt lat="44.04385" lon="1.67332">
        <ele>137</ele>
        <time>2011-06-26T14:58:54Z</time>
      </trkpt>
      <trkpt lat="44.04382" lon="1.67335">
        <ele>137</ele>
        <time>2011-06-26T14:58:56Z</time>
      </trkpt>
      <trkpt lat="44.04378" lon="1.67338">
        <ele>137</ele>
        <time>2011-06-26T14:58:58Z</time>
      </trkpt>
      <trkpt lat="44.04374" lon="1.67341">
        <ele>137</ele>
        <time>2011-06-26T14:59:00Z</time>
      </trkpt>
      <trkpt lat="44.0437" lon="1.67344">
        <ele>137</ele>
        <time>2011-06-26T14:59:02Z</time>
      </trkpt>
      <trkpt lat="44.04366" lon="1.67348">
        <ele>137</ele>
        <time>2011-06-26T14:59:04Z</time>
      </trkpt>
      <trkpt lat="44.04363" lon="1.67351">
        <ele>138</ele>
        <time>2011-06-26T14:59:06Z</time>
      </trkpt>
      <trkpt lat="44.04359" lon="1.67355">
        <ele>139</ele>
        <time>2011-06-26T14:59:08Z</time>
      </trkpt>
      <trkpt lat="44.04356" lon="1.67358">
        <ele>139</ele>
        <time>2011-06-26T14:59:10Z</time>
      </trkpt>
      <trkpt lat="44.04353" lon="1.67362">
        <ele>140</ele>
        <time>2011-06-26T14:59:12Z</time>
      </trkpt>
      <trkpt lat="44.0435" lon="1.67366">
        <ele>140</ele>
        <time>2011-06-26T14:59:14Z</time>
      </trkpt>
      <trkpt lat="44.04346" lon="1.67369">
        <ele>141</ele>
        <time>2011-06-26T14:59:16Z</time>
      </trkpt>
      <trkpt lat="44.04343" lon="1.67373">
        <ele>142</ele>
        <time>2011-06-26T14:59:18Z</time>
      </trkpt>
      <trkpt lat="44.0434" lon="1.67377">
        <ele>143</ele>
        <time>2011-06-26T14:59:20Z</time>
      </trkpt>
      <trkpt lat="44.04337" lon="1.67381">
        <ele>143</ele>
        <time>2011-06-26T14:59:22Z</time>
      </trkpt>
      <trkpt lat="44.04333" lon="1.67384">
        <ele>143</ele>
        <time>2011-06-26T14:59:24Z</time>
      </trkpt>
      <trkpt lat="44.0433" lon="1.67387">
        <ele>143</ele>
        <time>2011-06-26T14:59:26Z</time>
      </trkpt>
      <trkpt lat="44.04327" lon="1.67391">
        <ele>144</ele>
        <time>2011-06-26T14:59:28Z</time>
      </trkpt>
      <trkpt lat="44.04324" lon="1.67396">
        <ele>145</ele>
        <time>2011-06-26T14:59:30Z</time>
      </trkpt>
      <trkpt lat="44.0432" lon="1.67401">
        <ele>146</ele>
        <time>2011-06-26T14:59:32Z</time>
      </trkpt>
      <trkpt lat="44.04317" lon="1.67406">
        <ele>148</ele>
        <time>2011-06-26T14:59:34Z</time>
      </trkpt>
      <trkpt lat="44.04314" lon="1.67411">
        <ele>150</ele>
        <time>2011-06-26T14:59:36Z</time>
      </trkpt>
      <trkpt lat="44.04312" lon="1.67417">
        <ele>152</ele>
        <time>2011-06-26T14:59:38Z</time>
      </trkpt>
      <trkpt lat="44.0431" lon="1.67422">
        <ele>154</ele>
        <time>2011-06-26T14:59:40Z</time>
      </trkpt>
      <trkpt lat="44.04309" lon="1.67428">
        <ele>155</ele>
        <time>2011-06-26T14:59:42Z</time>
      </trkpt>
      <trkpt lat="44.04308" lon="1.67434">
        <ele>155</ele>
        <time>2011-06-26T14:59:44Z</time>
      </trkpt>
      <trkpt lat="44.04307" lon="1.67439">
        <ele>156</ele>
        <time>2011-06-26T14:59:46Z</time>
      </trkpt>
      <trkpt lat="44.04306" lon="1.67445">
        <ele>157</ele>
        <time>2011-06-26T14:59:48Z</time>
      </trkpt>
      <trkpt lat="44.04305" lon="1.6745">
        <ele>157</ele>
        <time>2011-06-26T14:59:50Z</time>
      </trkpt>
      <trkpt lat="44.04305" lon="1.67456">
        <ele>158</ele>
        <time>2011-06-26T14:59:52Z</time>
      </trkpt>
      <trkpt lat="44.04304" lon="1.67462">
        <ele>159</ele>
        <time>2011-06-26T14:59:54Z</time>
      </trkpt>
      <trkpt lat="44.04303" lon="1.67467">
        <ele>159</ele>
        <time>2011-06-26T14:59:56Z</time>
      </trkpt>
      <trkpt lat="44.04301" lon="1.67473">
        <ele>160</ele>
        <time>2011-06-26T14:59:58Z</time>
      </trkpt>
      <trkpt lat="44.043" lon="1.67478">
        <ele>161</ele>
        <time>2011-06-26T15:00:00Z</time>
      </trkpt>
      <trkpt lat="44.04298" lon="1.67484">
        <ele>162</ele>
        <time>2011-06-26T15:00:02Z</time>
      </trkpt>
      <trkpt lat="44.04297" lon="1.67489">
        <ele>163</ele>
        <time>2011-06-26T15:00:04Z</time>
      </trkpt>
      <trkpt lat="44.04296" lon="1.67494">
        <ele>164</ele>
        <time>2011-06-26T15:00:06Z</time>
      </trkpt>
      <trkpt lat="44.04297" lon="1.67499">
        <ele>165</ele>
        <time>2011-06-26T15:00:08Z</time>
      </trkpt>
      <trkpt lat="44.04297" lon="1.67504">
        <ele>165</ele>
        <time>2011-06-26T15:00:10Z</time>
      </trkpt>
      <trkpt lat="44.04296" lon="1.67509">
        <ele>166</ele>
        <time>2011-06-26T15:00:12Z</time>
      </trkpt>
      <trkpt lat="44.04295" lon="1.67513">
        <ele>167</ele>
        <time>2011-06-26T15:00:14Z</time>
      </trkpt>
      <trkpt lat="44.04295" lon="1.67518">
        <ele>169</ele>
        <time>2011-06-26T15:00:16Z</time>
      </trkpt>
      <trkpt lat="44.04295" lon="1.67523">
        <ele>170</ele>
        <time>2011-06-26T15:00:18Z</time>
      </trkpt>
      <trkpt lat="44.04296" lon="1.67528">
        <ele>171</ele>
        <time>2011-06-26T15:00:20Z</time>
      </trkpt>
      <trkpt lat="44.04297" lon="1.67534">
        <ele>172</ele>
        <time>2011-06-26T15:00:22Z</time>
      </trkpt>
      <trkpt lat="44.04298" lon="1.67539">
        <ele>173</ele>
        <time>2011-06-26T15:00:24Z</time>
      </trkpt>
      <trkpt lat="44.04299" lon="1.67544">
        <ele>174</ele>
        <time>2011-06-26T15:00:26Z</time>
      </trkpt>
      <trkpt lat="44.04299" lon="1.67549">
        <ele>174</ele>
        <time>2011-06-26T15:00:28Z</time>
      </trkpt>
      <trkpt lat="44.04299" lon="1.67555">
        <ele>174</ele>
        <time>2011-06-26T15:00:30Z</time>
      </trkpt>
      <trkpt lat="44.04299" lon="1.6756">
        <ele>174</ele>
        <time>2011-06-26T15:00:32Z</time>
      </trkpt>
      <trkpt lat="44.04297" lon="1.67565">
        <ele>175</ele>
        <time>2011-06-26T15:00:34Z</time>
      </trkpt>
      <trkpt lat="44.04295" lon="1.6757">
        <ele>176</ele>
        <time>2011-06-26T15:00:36Z</time>
      </trkpt>
      <trkpt lat="44.04293" lon="1.67574">
        <ele>178</ele>
        <time>2011-06-26T15:00:38Z</time>
      </trkpt>
      <trkpt lat="44.04291" lon="1.67578">
        <ele>179</ele>
        <time>2011-06-26T15:00:40Z</time>
      </trkpt>
      <trkpt lat="44.04288" lon="1.67582">
        <ele>180</ele>
        <time>2011-06-26T15:00:42Z</time>
      </trkpt>
      <trkpt lat="44.04285" lon="1.67586">
        <ele>181</ele>
        <time>2011-06-26T15:00:44Z</time>
      </trkpt>
      <trkpt lat="44.04282" lon="1.67589">
        <ele>183</ele>
        <time>2011-06-26T15:00:46Z</time>
      </trkpt>
      <trkpt lat="44.04279" lon="1.67593">
        <ele>185</ele>
        <time>2011-06-26T15:00:48Z</time>
      </trkpt>
      <trkpt lat="44.04275" lon="1.67597">
        <ele>187</ele>
        <time>2011-06-26T15:00:50Z</time>
      </trkpt>
      <trkpt lat="44.04272" lon="1.67601">
        <ele>189</ele>
        <time>2011-06-26T15:00:52Z</time>
      </trkpt>
      <trkpt lat="44.04269" lon="1.67605">
        <ele>191</ele>
        <time>2011-06-26T15:00:54Z</time>
      </trkpt>
      <trkpt lat="44.04266" lon="1.67608">
        <ele>192</ele>
        <time>2011-06-26T15:00:56Z</time>
      </trkpt>
      <trkpt lat="44.04264" lon="1.67612">
        <ele>193</ele>
        <time>2011-06-26T15:00:58Z</time>
      </trkpt>
      <trkpt lat="44.04261" lon="1.67616">
        <ele>194</ele>
        <time>2011-06-26T15:01:00Z</time>
      </trkpt>
      <trkpt lat="44.04257" lon="1.6762">
        <ele>196</ele>
        <time>2011-06-26T15:01:02Z</time>
      </trkpt>
      <trkpt lat="44.04255" lon="1.67623">
        <ele>197</ele>
        <time>2011-06-26T15:01:04Z</time>
      </trkpt>
      <trkpt lat="44.04251" lon="1.67627">
        <ele>198</ele>
        <time>2011-06-26T15:01:06Z</time>
      </trkpt>
      <trkpt lat="44.04248" lon="1.6763">
        <ele>199</ele>
        <time>2011-06-26T15:01:08Z</time>
      </trkpt>
      <trkpt lat="44.04245" lon="1.67633">
        <ele>199</ele>
        <time>2011-06-26T15:01:10Z</time>
      </trkpt>
      <trkpt lat="44.04242" lon="1.67636">
        <ele>200</ele>
        <time>2011-06-26T15:01:12Z</time>
      </trkpt>
      <trkpt lat="44.04238" lon="1.67639">
        <ele>201</ele>
        <time>2011-06-26T15:01:14Z</time>
      </trkpt>
      <trkpt lat="44.04235" lon="1.67641">
        <ele>202</ele>
        <time>2011-06-26T15:01:16Z</time>
      </trkpt>
      <trkpt lat="44.04232" lon="1.67643">
        <ele>202</ele>
        <time>2011-06-26T15:01:18Z</time>
      </trkpt>
      <trkpt lat="44.04228" lon="1.67645">
        <ele>203</ele>
        <time>2011-06-26T15:01:20Z</time>
      </trkpt>
      <trkpt lat="44.04225" lon="1.67647">
        <ele>203</ele>
        <time>2011-06-26T15:01:22Z</time>
      </trkpt>
      <trkpt lat="44.04221" lon="1.67648">
        <ele>204</ele>
        <time>2011-06-26T15:01:24Z</time>
      </trkpt>
      <trkpt lat="44.04217" lon="1.67648">
        <ele>204</ele>
        <time>2011-06-26T15:01:26Z</time>
      </trkpt>
      <trkpt lat="44.04213" lon="1.67648">
        <ele>205</ele>
        <time>2011-06-26T15:01:28Z</time>
      </trkpt>
      <trkpt lat="44.04209" lon="1.67648">
        <ele>206</ele>
        <time>2011-06-26T15:01:30Z</time>
      </trkpt>
      <trkpt lat="44.04204" lon="1.67649">
        <ele>208</ele>
        <time>2011-06-26T15:01:32Z</time>
      </trkpt>
      <trkpt lat="44.042" lon="1.67649">
        <ele>210</ele>
        <time>2011-06-26T15:01:34Z</time>
      </trkpt>
      <trkpt lat="44.04196" lon="1.67649">
        <ele>212</ele>
        <time>2011-06-26T15:01:36Z</time>
      </trkpt>
      <trkpt lat="44.04192" lon="1.67649">
        <ele>213</ele>
        <time>2011-06-26T15:01:38Z</time>
      </trkpt>
      <trkpt lat="44.04188" lon="1.67648">
        <ele>214</ele>
        <time>2011-06-26T15:01:40Z</time>
      </trkpt>
      <trkpt lat="44.04184" lon="1.67648">
        <ele>215</ele>
        <time>2011-06-26T15:01:42Z</time>
      </trkpt>
      <trkpt lat="44.0418" lon="1.67648">
        <ele>215</ele>
        <time>2011-06-26T15:01:45Z</time>
      </trkpt>
      <trkpt lat="44.04177" lon="1.67648">
        <ele>215</ele>
        <time>2011-06-26T15:01:47Z</time>
      </trkpt>
      <trkpt lat="44.04174" lon="1.67648">
        <ele>215</ele>
        <time>2011-06-26T15:01:49Z</time>
      </trkpt>
      <trkpt lat="44.0417" lon="1.67648">
        <ele>215</ele>
        <time>2011-06-26T15:01:51Z</time>
      </trkpt>
      <trkpt lat="44.04166" lon="1.67648">
        <ele>215</ele>
        <time>2011-06-26T15:01:53Z</time>
      </trkpt>
      <trkpt lat="44.04162" lon="1.67648">
        <ele>215</ele>
        <time>2011-06-26T15:01:55Z</time>
      </trkpt>
      <trkpt lat="44.04157" lon="1.67649">
        <ele>215</ele>
        <time>2011-06-26T15:01:57Z</time>
      </trkpt>
      <trkpt lat="44.04153" lon="1.67649">
        <ele>215</ele>
        <time>2011-06-26T15:01:59Z</time>
      </trkpt>
      <trkpt lat="44.04149" lon="1.67649">
        <ele>215</ele>
        <time>2011-06-26T15:02:01Z</time>
      </trkpt>
      <trkpt lat="44.04146" lon="1.67648">
        <ele>215</ele>
        <time>2011-06-26T15:02:03Z</time>
      </trkpt>
      <trkpt lat="44.04141" lon="1.67647">
        <ele>215</ele>
        <time>2011-06-26T15:02:06Z</time>
      </trkpt>
      <trkpt lat="44.04137" lon="1.67647">
        <ele>215</ele>
        <time>2011-06-26T15:02:08Z</time>
      </trkpt>
      <trkpt lat="44.04134" lon="1.67647">
        <ele>215</ele>
        <time>2011-06-26T15:02:10Z</time>
      </trkpt>
      <trkpt lat="44.0413" lon="1.67647">
        <ele>215</ele>
        <time>2011-06-26T15:02:12Z</time>
      </trkpt>
      <trkpt lat="44.04126" lon="1.67647">
        <ele>215</ele>
        <time>2011-06-26T15:02:14Z</time>
      </trkpt>
      <trkpt lat="44.04123" lon="1.67647">
        <ele>215</ele>
        <time>2011-06-26T15:02:16Z</time>
      </trkpt>
      <trkpt lat="44.04119" lon="1.67647">
        <ele>215</ele>
        <time>2011-06-26T15:02:18Z</time>
      </trkpt>
      <trkpt lat="44.04115" lon="1.67647">
        <ele>215</ele>
        <time>2011-06-26T15:02:20Z</time>
      </trkpt>
      <trkpt lat="44.04111" lon="1.67648">
        <ele>215</ele>
        <time>2011-06-26T15:02:22Z</time>
      </trkpt>
      <trkpt lat="44.04108" lon="1.67649">
        <ele>215</ele>
        <time>2011-06-26T15:02:24Z</time>
      </trkpt>
      <trkpt lat="44.04105" lon="1.6765">
        <ele>215</ele>
        <time>2011-06-26T15:02:26Z</time>
      </trkpt>
      <trkpt lat="44.041" lon="1.67651">
        <ele>215</ele>
        <time>2011-06-26T15:02:28Z</time>
      </trkpt>
      <trkpt lat="44.04096" lon="1.67652">
        <ele>215</ele>
        <time>2011-06-26T15:02:30Z</time>
      </trkpt>
      <trkpt lat="44.04093" lon="1.67653">
        <ele>215</ele>
        <time>2011-06-26T15:02:32Z</time>
      </trkpt>
      <trkpt lat="44.04089" lon="1.67654">
        <ele>215</ele>
        <time>2011-06-26T15:02:34Z</time>
      </trkpt>
      <trkpt lat="44.04084" lon="1.67655">
        <ele>216</ele>
        <time>2011-06-26T15:02:36Z</time>
      </trkpt>
      <trkpt lat="44.04079" lon="1.67657">
        <ele>218</ele>
        <time>2011-06-26T15:02:38Z</time>
      </trkpt>
      <trkpt lat="44.04076" lon="1.67658">
        <ele>219</ele>
        <time>2011-06-26T15:02:40Z</time>
      </trkpt>
      <trkpt lat="44.04073" lon="1.6766">
        <ele>219</ele>
        <time>2011-06-26T15:02:42Z</time>
      </trkpt>
      <trkpt lat="44.04069" lon="1.67661">
        <ele>219</ele>
        <time>2011-06-26T15:02:44Z</time>
      </trkpt>
      <trkpt lat="44.04066" lon="1.67663">
        <ele>219</ele>
        <time>2011-06-26T15:02:46Z</time>
      </trkpt>
      <trkpt lat="44.04063" lon="1.67665">
        <ele>219</ele>
        <time>2011-06-26T15:02:48Z</time>
      </trkpt>
      <trkpt lat="44.04058" lon="1.67668">
        <ele>219</ele>
        <time>2011-06-26T15:02:50Z</time>
      </trkpt>
      <trkpt lat="44.04054" lon="1.6767">
        <ele>219</ele>
        <time>2011-06-26T15:02:52Z</time>
      </trkpt>
      <trkpt lat="44.04051" lon="1.67672">
        <ele>219</ele>
        <time>2011-06-26T15:02:54Z</time>
      </trkpt>
      <trkpt lat="44.04047" lon="1.67675">
        <ele>219</ele>
        <time>2011-06-26T15:02:56Z</time>
      </trkpt>
      <trkpt lat="44.04044" lon="1.67677">
        <ele>219</ele>
        <time>2011-06-26T15:02:58Z</time>
      </trkpt>
      <trkpt lat="44.04041" lon="1.67681">
        <ele>219</ele>
        <time>2011-06-26T15:03:00Z</time>
      </trkpt>
      <trkpt lat="44.04037" lon="1.67684">
        <ele>219</ele>
        <time>2011-06-26T15:03:02Z</time>
      </trkpt>
      <trkpt lat="44.04034" lon="1.67687">
        <ele>220</ele>
        <time>2011-06-26T15:03:04Z</time>
      </trkpt>
      <trkpt lat="44.0403" lon="1.6769">
        <ele>220</ele>
        <time>2011-06-26T15:03:06Z</time>
      </trkpt>
      <trkpt lat="44.04026" lon="1.67693">
        <ele>221</ele>
        <time>2011-06-26T15:03:08Z</time>
      </trkpt>
      <trkpt lat="44.04023" lon="1.67696">
        <ele>222</ele>
        <time>2011-06-26T15:03:10Z</time>
      </trkpt>
      <trkpt lat="44.0402" lon="1.677">
        <ele>223</ele>
        <time>2011-06-26T15:03:12Z</time>
      </trkpt>
      <trkpt lat="44.04016" lon="1.67703">
        <ele>224</ele>
        <time>2011-06-26T15:03:14Z</time>
      </trkpt>
      <trkpt lat="44.04013" lon="1.67706">
        <ele>225</ele>
        <time>2011-06-26T15:03:16Z</time>
      </trkpt>
      <trkpt lat="44.04009" lon="1.67709">
        <ele>226</ele>
        <time>2011-06-26T15:03:18Z</time>
      </trkpt>
      <trkpt lat="44.04006" lon="1.67712">
        <ele>227</ele>
        <time>2011-06-26T15:03:20Z</time>
      </trkpt>
      <trkpt lat="44.04002" lon="1.67716">
        <ele>228</ele>
        <time>2011-06-26T15:03:22Z</time>
      </trkpt>
      <trkpt lat="44.04" lon="1.67721">
        <ele>229</ele>
        <time>2011-06-26T15:03:24Z</time>
      </trkpt>
      <trkpt lat="44.03999" lon="1.67726">
        <ele>231</ele>
        <time>2011-06-26T15:03:26Z</time>
      </trkpt>
      <trkpt lat="44.04" lon="1.6773">
        <ele>233</ele>
        <time>2011-06-26T15:03:28Z</time>
      </trkpt>
      <trkpt lat="44.04003" lon="1.67734">
        <ele>234</ele>
        <time>2011-06-26T15:03:30Z</time>
      </trkpt>
      <trkpt lat="44.04007" lon="1.67735">
        <ele>235</ele>
        <time>2011-06-26T15:03:32Z</time>
      </trkpt>
      <trkpt lat="44.04011" lon="1.67736">
        <ele>235</ele>
        <time>2011-06-26T15:03:34Z</time>
      </trkpt>
      <trkpt lat="44.04015" lon="1.67738">
        <ele>235</ele>
        <time>2011-06-26T15:03:36Z</time>
      </trkpt>
      <trkpt lat="44.04018" lon="1.6774">
        <ele>235</ele>
        <time>2011-06-26T15:03:38Z</time>
      </trkpt>
      <trkpt lat="44.04022" lon="1.67742">
        <ele>236</ele>
        <time>2011-06-26T15:03:40Z</time>
      </trkpt>
      <trkpt lat="44.04027" lon="1.67743">
        <ele>236</ele>
        <time>2011-06-26T15:03:42Z</time>
      </trkpt>
      <trkpt lat="44.04031" lon="1.67745">
        <ele>236</ele>
        <time>2011-06-26T15:03:44Z</time>
      </trkpt>
      <trkpt lat="44.04034" lon="1.67747">
        <ele>236</ele>
        <time>2011-06-26T15:03:46Z</time>
      </trkpt>
      <trkpt lat="44.04038" lon="1.6775">
        <ele>236</ele>
        <time>2011-06-26T15:03:48Z</time>
      </trkpt>
      <trkpt lat="44.04042" lon="1.67752">
        <ele>237</ele>
        <time>2011-06-26T15:03:50Z</time>
      </trkpt>
      <trkpt lat="44.04045" lon="1.67754">
        <ele>237</ele>
        <time>2011-06-26T15:03:52Z</time>
      </trkpt>
      <trkpt lat="44.04049" lon="1.67757">
        <ele>237</ele>
        <time>2011-06-26T15:03:54Z</time>
      </trkpt>
      <trkpt lat="44.04053" lon="1.6776">
        <ele>237</ele>
        <time>2011-06-26T15:03:56Z</time>
      </trkpt>
      <trkpt lat="44.04057" lon="1.67762">
        <ele>237</ele>
        <time>2011-06-26T15:03:58Z</time>
      </trkpt>
      <trkpt lat="44.04062" lon="1.67764">
        <ele>237</ele>
        <time>2011-06-26T15:04:00Z</time>
      </trkpt>
      <trkpt lat="44.04066" lon="1.67768">
        <ele>237</ele>
        <time>2011-06-26T15:04:02Z</time>
      </trkpt>
      <trkpt lat="44.04069" lon="1.67771">
        <ele>237</ele>
        <time>2011-06-26T15:04:04Z</time>
      </trkpt>
      <trkpt lat="44.04073" lon="1.67777">
        <ele>237</ele>
        <time>2011-06-26T15:04:06Z</time>
      </trkpt>
      <trkpt lat="44.04076" lon="1.67781">
        <ele>237</ele>
        <time>2011-06-26T15:04:08Z</time>
      </trkpt>
      <trkpt lat="44.0408" lon="1.67787">
        <ele>237</ele>
        <time>2011-06-26T15:04:10Z</time>
      </trkpt>
      <trkpt lat="44.04083" lon="1.67792">
        <ele>237</ele>
        <time>2011-06-26T15:04:12Z</time>
      </trkpt>
      <trkpt lat="44.04086" lon="1.67798">
        <ele>237</ele>
        <time>2011-06-26T15:04:14Z</time>
      </trkpt>
      <trkpt lat="44.04089" lon="1.67804">
        <ele>237</ele>
        <time>2011-06-26T15:04:16Z</time>
      </trkpt>
      <trkpt lat="44.04091" lon="1.67809">
        <ele>237</ele>
        <time>2011-06-26T15:04:18Z</time>
      </trkpt>
      <trkpt lat="44.04094" lon="1.67815">
        <ele>237</ele>
        <time>2011-06-26T15:04:20Z</time>
      </trkpt>
      <trkpt lat="44.04096" lon="1.6782">
        <ele>237</ele>
        <time>2011-06-26T15:04:22Z</time>
      </trkpt>
      <trkpt lat="44.04097" lon="1.67826">
        <ele>237</ele>
        <time>2011-06-26T15:04:24Z</time>
      </trkpt>
      <trkpt lat="44.04098" lon="1.67832">
        <ele>237</ele>
        <time>2011-06-26T15:04:26Z</time>
      </trkpt>
      <trkpt lat="44.04096" lon="1.67838">
        <ele>237</ele>
        <time>2011-06-26T15:04:28Z</time>
      </trkpt>
      <trkpt lat="44.04093" lon="1.67842">
        <ele>237</ele>
        <time>2011-06-26T15:04:30Z</time>
      </trkpt>
      <trkpt lat="44.04089" lon="1.67845">
        <ele>238</ele>
        <time>2011-06-26T15:04:32Z</time>
      </trkpt>
      <trkpt lat="44.04086" lon="1.67848">
        <ele>238</ele>
        <time>2011-06-26T15:04:34Z</time>
      </trkpt>
      <trkpt lat="44.04081" lon="1.6785">
        <ele>238</ele>
        <time>2011-06-26T15:04:36Z</time>
      </trkpt>
      <trkpt lat="44.04077" lon="1.67853">
        <ele>239</ele>
        <time>2011-06-26T15:04:38Z</time>
      </trkpt>
      <trkpt lat="44.04073" lon="1.67856">
        <ele>239</ele>
        <time>2011-06-26T15:04:40Z</time>
      </trkpt>
      <trkpt lat="44.04069" lon="1.67858">
        <ele>240</ele>
        <time>2011-06-26T15:04:42Z</time>
      </trkpt>
      <trkpt lat="44.04065" lon="1.6786">
        <ele>241</ele>
        <time>2011-06-26T15:04:44Z</time>
      </trkpt>
      <trkpt lat="44.04061" lon="1.67862">
        <ele>241</ele>
        <time>2011-06-26T15:04:46Z</time>
      </trkpt>
      <trkpt lat="44.04057" lon="1.67865">
        <ele>241</ele>
        <time>2011-06-26T15:04:48Z</time>
      </trkpt>
      <trkpt lat="44.04053" lon="1.67867">
        <ele>241</ele>
        <time>2011-06-26T15:04:50Z</time>
      </trkpt>
      <trkpt lat="44.04049" lon="1.67869">
        <ele>241</ele>
        <time>2011-06-26T15:04:52Z</time>
      </trkpt>
      <trkpt lat="44.04044" lon="1.67872">
        <ele>241</ele>
        <time>2011-06-26T15:04:54Z</time>
      </trkpt>
      <trkpt lat="44.04041" lon="1.67875">
        <ele>242</ele>
        <time>2011-06-26T15:04:56Z</time>
      </trkpt>
      <trkpt lat="44.04037" lon="1.67879">
        <ele>242</ele>
        <time>2011-06-26T15:04:58Z</time>
      </trkpt>
      <trkpt lat="44.04035" lon="1.67885">
        <ele>243</ele>
        <time>2011-06-26T15:05:00Z</time>
      </trkpt>
      <trkpt lat="44.04034" lon="1.67891">
        <ele>243</ele>
        <time>2011-06-26T15:05:02Z</time>
      </trkpt>
      <trkpt lat="44.04035" lon="1.67897">
        <ele>243</ele>
        <time>2011-06-26T15:05:04Z</time>
      </trkpt>
      <trkpt lat="44.04037" lon="1.67903">
        <ele>244</ele>
        <time>2011-06-26T15:05:06Z</time>
      </trkpt>
      <trkpt lat="44.04039" lon="1.67908">
        <ele>245</ele>
        <time>2011-06-26T15:05:08Z</time>
      </trkpt>
      <trkpt lat="44.04042" lon="1.67914">
        <ele>245</ele>
        <time>2011-06-26T15:05:10Z</time>
      </trkpt>
      <trkpt lat="44.04044" lon="1.67918">
        <ele>246</ele>
        <time>2011-06-26T15:05:12Z</time>
      </trkpt>
      <trkpt lat="44.04047" lon="1.67923">
        <ele>246</ele>
        <time>2011-06-26T15:05:14Z</time>
      </trkpt>
      <trkpt lat="44.04051" lon="1.67926">
        <ele>247</ele>
        <time>2011-06-26T15:05:16Z</time>
      </trkpt>
      <trkpt lat="44.04055" lon="1.6793">
        <ele>247</ele>
        <time>2011-06-26T15:05:18Z</time>
      </trkpt>
      <trkpt lat="44.04058" lon="1.67934">
        <ele>248</ele>
        <time>2011-06-26T15:05:20Z</time>
      </trkpt>
      <trkpt lat="44.04062" lon="1.67939">
        <ele>248</ele>
        <time>2011-06-26T15:05:22Z</time>
      </trkpt>
      <trkpt lat="44.04065" lon="1.67944">
        <ele>249</ele>
        <time>2011-06-26T15:05:24Z</time>
      </trkpt>
      <trkpt lat="44.04068" lon="1.67948">
        <ele>250</ele>
        <time>2011-06-26T15:05:26Z</time>
      </trkpt>
      <trkpt lat="44.04071" lon="1.67953">
        <ele>250</ele>
        <time>2011-06-26T15:05:28Z</time>
      </trkpt>
      <trkpt lat="44.04074" lon="1.67958">
        <ele>251</ele>
        <time>2011-06-26T15:05:30Z</time>
      </trkpt>
      <trkpt lat="44.04077" lon="1.67963">
        <ele>251</ele>
        <time>2011-06-26T15:05:32Z</time>
      </trkpt>
      <trkpt lat="44.04079" lon="1.67968">
        <ele>252</ele>
        <time>2011-06-26T15:05:34Z</time>
      </trkpt>
      <trkpt lat="44.04082" lon="1.67973">
        <ele>253</ele>
        <time>2011-06-26T15:05:36Z</time>
      </trkpt>
      <trkpt lat="44.04085" lon="1.67977">
        <ele>253</ele>
        <time>2011-06-26T15:05:38Z</time>
      </trkpt>
      <trkpt lat="44.04088" lon="1.67982">
        <ele>254</ele>
        <time>2011-06-26T15:05:40Z</time>
      </trkpt>
      <trkpt lat="44.04092" lon="1.67987">
        <ele>255</ele>
        <time>2011-06-26T15:05:42Z</time>
      </trkpt>
      <trkpt lat="44.04095" lon="1.67991">
        <ele>256</ele>
        <time>2011-06-26T15:05:44Z</time>
      </trkpt>
      <trkpt lat="44.04098" lon="1.67996">
        <ele>256</ele>
        <time>2011-06-26T15:05:46Z</time>
      </trkpt>
      <trkpt lat="44.04101" lon="1.68">
        <ele>257</ele>
        <time>2011-06-26T15:05:48Z</time>
      </trkpt>
      <trkpt lat="44.04103" lon="1.68005">
        <ele>257</ele>
        <time>2011-06-26T15:05:50Z</time>
      </trkpt>
      <trkpt lat="44.04106" lon="1.68011">
        <ele>258</ele>
        <time>2011-06-26T15:05:52Z</time>
      </trkpt>
      <trkpt lat="44.04107" lon="1.68017">
        <ele>259</ele>
        <time>2011-06-26T15:05:54Z</time>
      </trkpt>
      <trkpt lat="44.04108" lon="1.68023">
        <ele>259</ele>
        <time>2011-06-26T15:05:56Z</time>
      </trkpt>
      <trkpt lat="44.04108" lon="1.68028">
        <ele>260</ele>
        <time>2011-06-26T15:05:58Z</time>
      </trkpt>
      <trkpt lat="44.04107" lon="1.68034">
        <ele>260</ele>
        <time>2011-06-26T15:06:00Z</time>
      </trkpt>
      <trkpt lat="44.04106" lon="1.6804">
        <ele>261</ele>
        <time>2011-06-26T15:06:02Z</time>
      </trkpt>
      <trkpt lat="44.04105" lon="1.68046">
        <ele>262</ele>
        <time>2011-06-26T15:06:04Z</time>
      </trkpt>
      <trkpt lat="44.04103" lon="1.68051">
        <ele>262</ele>
        <time>2011-06-26T15:06:06Z</time>
      </trkpt>
      <trkpt lat="44.04102" lon="1.68057">
        <ele>263</ele>
        <time>2011-06-26T15:06:08Z</time>
      </trkpt>
      <trkpt lat="44.04101" lon="1.68062">
        <ele>263</ele>
        <time>2011-06-26T15:06:10Z</time>
      </trkpt>
      <trkpt lat="44.041" lon="1.68068">
        <ele>263</ele>
        <time>2011-06-26T15:06:12Z</time>
      </trkpt>
      <trkpt lat="44.04099" lon="1.68073">
        <ele>264</ele>
        <time>2011-06-26T15:06:14Z</time>
      </trkpt>
      <trkpt lat="44.04098" lon="1.68079">
        <ele>264</ele>
        <time>2011-06-26T15:06:16Z</time>
      </trkpt>
      <trkpt lat="44.04098" lon="1.68085">
        <ele>264</ele>
        <time>2011-06-26T15:06:18Z</time>
      </trkpt>
      <trkpt lat="44.04097" lon="1.68091">
        <ele>265</ele>
        <time>2011-06-26T15:06:20Z</time>
      </trkpt>
      <trkpt lat="44.04097" lon="1.68096">
        <ele>265</ele>
        <time>2011-06-26T15:06:22Z</time>
      </trkpt>
      <trkpt lat="44.04098" lon="1.68102">
        <ele>266</ele>
        <time>2011-06-26T15:06:24Z</time>
      </trkpt>
      <trkpt lat="44.041" lon="1.68108">
        <ele>267</ele>
        <time>2011-06-26T15:06:26Z</time>
      </trkpt>
      <trkpt lat="44.04101" lon="1.68114">
        <ele>267</ele>
        <time>2011-06-26T15:06:28Z</time>
      </trkpt>
      <trkpt lat="44.04102" lon="1.68119">
        <ele>268</ele>
        <time>2011-06-26T15:06:30Z</time>
      </trkpt>
      <trkpt lat="44.04104" lon="1.68125">
        <ele>268</ele>
        <time>2011-06-26T15:06:32Z</time>
      </trkpt>
      <trkpt lat="44.04106" lon="1.6813">
        <ele>269</ele>
        <time>2011-06-26T15:06:34Z</time>
      </trkpt>
      <trkpt lat="44.04108" lon="1.68135">
        <ele>270</ele>
        <time>2011-06-26T15:06:36Z</time>
      </trkpt>
      <trkpt lat="44.04111" lon="1.68141">
        <ele>270</ele>
        <time>2011-06-26T15:06:38Z</time>
      </trkpt>
      <trkpt lat="44.04113" lon="1.68147">
        <ele>271</ele>
        <time>2011-06-26T15:06:40Z</time>
      </trkpt>
      <trkpt lat="44.04115" lon="1.68152">
        <ele>271</ele>
        <time>2011-06-26T15:06:42Z</time>
      </trkpt>
      <trkpt lat="44.04117" lon="1.68158">
        <ele>271</ele>
        <time>2011-06-26T15:06:44Z</time>
      </trkpt>
      <trkpt lat="44.04118" lon="1.68164">
        <ele>272</ele>
        <time>2011-06-26T15:06:46Z</time>
      </trkpt>
      <trkpt lat="44.04118" lon="1.6817">
        <ele>273</ele>
        <time>2011-06-26T15:06:48Z</time>
      </trkpt>
      <trkpt lat="44.04118" lon="1.68177">
        <ele>273</ele>
        <time>2011-06-26T15:06:50Z</time>
      </trkpt>
      <trkpt lat="44.04116" lon="1.68183">
        <ele>274</ele>
        <time>2011-06-26T15:06:52Z</time>
      </trkpt>
      <trkpt lat="44.04115" lon="1.6819">
        <ele>274</ele>
        <time>2011-06-26T15:06:54Z</time>
      </trkpt>
      <trkpt lat="44.04114" lon="1.68195">
        <ele>275</ele>
        <time>2011-06-26T15:06:56Z</time>
      </trkpt>
      <trkpt lat="44.04112" lon="1.68201">
        <ele>275</ele>
        <time>2011-06-26T15:06:58Z</time>
      </trkpt>
      <trkpt lat="44.04111" lon="1.68207">
        <ele>276</ele>
        <time>2011-06-26T15:07:00Z</time>
      </trkpt>
      <trkpt lat="44.0411" lon="1.68213">
        <ele>276</ele>
        <time>2011-06-26T15:07:02Z</time>
      </trkpt>
      <trkpt lat="44.04109" lon="1.68219">
        <ele>277</ele>
        <time>2011-06-26T15:07:04Z</time>
      </trkpt>
      <trkpt lat="44.04108" lon="1.68226">
        <ele>277</ele>
        <time>2011-06-26T15:07:06Z</time>
      </trkpt>
      <trkpt lat="44.04108" lon="1.68232">
        <ele>278</ele>
        <time>2011-06-26T15:07:08Z</time>
      </trkpt>
      <trkpt lat="44.04108" lon="1.68238">
        <ele>278</ele>
        <time>2011-06-26T15:07:10Z</time>
      </trkpt>
      <trkpt lat="44.04108" lon="1.68244">
        <ele>279</ele>
        <time>2011-06-26T15:07:12Z</time>
      </trkpt>
      <trkpt lat="44.04108" lon="1.68251">
        <ele>280</ele>
        <time>2011-06-26T15:07:14Z</time>
      </trkpt>
      <trkpt lat="44.04108" lon="1.68257">
        <ele>280</ele>
        <time>2011-06-26T15:07:16Z</time>
      </trkpt>
      <trkpt lat="44.04108" lon="1.68263">
        <ele>281</ele>
        <time>2011-06-26T15:07:18Z</time>
      </trkpt>
      <trkpt lat="44.04109" lon="1.68269">
        <ele>282</ele>
        <time>2011-06-26T15:07:20Z</time>
      </trkpt>
      <trkpt lat="44.04109" lon="1.68275">
        <ele>282</ele>
        <time>2011-06-26T15:07:22Z</time>
      </trkpt>
      <trkpt lat="44.04109" lon="1.68282">
        <ele>283</ele>
        <time>2011-06-26T15:07:24Z</time>
      </trkpt>
      <trkpt lat="44.04109" lon="1.68288">
        <ele>284</ele>
        <time>2011-06-26T15:07:26Z</time>
      </trkpt>
      <trkpt lat="44.0411" lon="1.68295">
        <ele>284</ele>
        <time>2011-06-26T15:07:28Z</time>
      </trkpt>
      <trkpt lat="44.0411" lon="1.68301">
        <ele>285</ele>
        <time>2011-06-26T15:07:30Z</time>
      </trkpt>
      <trkpt lat="44.04109" lon="1.68308">
        <ele>285</ele>
        <time>2011-06-26T15:07:32Z</time>
      </trkpt>
      <trkpt lat="44.04109" lon="1.68316">
        <ele>286</ele>
        <time>2011-06-26T15:07:34Z</time>
      </trkpt>
      <trkpt lat="44.04108" lon="1.68323">
        <ele>286</ele>
        <time>2011-06-26T15:07:36Z</time>
      </trkpt>
      <trkpt lat="44.04107" lon="1.6833">
        <ele>287</ele>
        <time>2011-06-26T15:07:38Z</time>
      </trkpt>
      <trkpt lat="44.04106" lon="1.68338">
        <ele>287</ele>
        <time>2011-06-26T15:07:40Z</time>
      </trkpt>
      <trkpt lat="44.04104" lon="1.68345">
        <ele>287</ele>
        <time>2011-06-26T15:07:42Z</time>
      </trkpt>
      <trkpt lat="44.04103" lon="1.68352">
        <ele>288</ele>
        <time>2011-06-26T15:07:44Z</time>
      </trkpt>
      <trkpt lat="44.04102" lon="1.68359">
        <ele>288</ele>
        <time>2011-06-26T15:07:46Z</time>
      </trkpt>
      <trkpt lat="44.041" lon="1.68367">
        <ele>288</ele>
        <time>2011-06-26T15:07:48Z</time>
      </trkpt>
      <trkpt lat="44.04098" lon="1.68374">
        <ele>289</ele>
        <time>2011-06-26T15:07:50Z</time>
      </trkpt>
      <trkpt lat="44.04096" lon="1.68381">
        <ele>289</ele>
        <time>2011-06-26T15:07:52Z</time>
      </trkpt>
      <trkpt lat="44.04094" lon="1.68388">
        <ele>290</ele>
        <time>2011-06-26T15:07:54Z</time>
      </trkpt>
      <trkpt lat="44.04092" lon="1.68395">
        <ele>290</ele>
        <time>2011-06-26T15:07:56Z</time>
      </trkpt>
      <trkpt lat="44.0409" lon="1.68402">
        <ele>290</ele>
        <time>2011-06-26T15:07:58Z</time>
      </trkpt>
      <trkpt lat="44.04087" lon="1.68409">
        <ele>290</ele>
        <time>2011-06-26T15:08:00Z</time>
      </trkpt>
      <trkpt lat="44.04085" lon="1.68415">
        <ele>290</ele>
        <time>2011-06-26T15:08:02Z</time>
      </trkpt>
      <trkpt lat="44.04082" lon="1.68422">
        <ele>291</ele>
        <time>2011-06-26T15:08:04Z</time>
      </trkpt>
      <trkpt lat="44.04079" lon="1.68429">
        <ele>292</ele>
        <time>2011-06-26T15:08:06Z</time>
      </trkpt>
      <trkpt lat="44.04076" lon="1.68436">
        <ele>293</ele>
        <time>2011-06-26T15:08:08Z</time>
      </trkpt>
      <trkpt lat="44.04073" lon="1.68442">
        <ele>293</ele>
        <time>2011-06-26T15:08:10Z</time>
      </trkpt>
      <trkpt lat="44.04071" lon="1.68449">
        <ele>293</ele>
        <time>2011-06-26T15:08:12Z</time>
      </trkpt>
      <trkpt lat="44.04068" lon="1.68456">
        <ele>293</ele>
        <time>2011-06-26T15:08:14Z</time>
      </trkpt>
      <trkpt lat="44.04065" lon="1.68463">
        <ele>294</ele>
        <time>2011-06-26T15:08:16Z</time>
      </trkpt>
      <trkpt lat="44.04063" lon="1.6847">
        <ele>294</ele>
        <time>2011-06-26T15:08:18Z</time>
      </trkpt>
      <trkpt lat="44.04061" lon="1.68477">
        <ele>295</ele>
        <time>2011-06-26T15:08:20Z</time>
      </trkpt>
      <trkpt lat="44.0406" lon="1.68485">
        <ele>295</ele>
        <time>2011-06-26T15:08:22Z</time>
      </trkpt>
      <trkpt lat="44.04058" lon="1.68492">
        <ele>295</ele>
        <time>2011-06-26T15:08:24Z</time>
      </trkpt>
      <trkpt lat="44.04056" lon="1.685">
        <ele>295</ele>
        <time>2011-06-26T15:08:26Z</time>
      </trkpt>
      <trkpt lat="44.04054" lon="1.68508">
        <ele>296</ele>
        <time>2011-06-26T15:08:28Z</time>
      </trkpt>
      <trkpt lat="44.04052" lon="1.68516">
        <ele>296</ele>
        <time>2011-06-26T15:08:30Z</time>
      </trkpt>
      <trkpt lat="44.04051" lon="1.68524">
        <ele>296</ele>
        <time>2011-06-26T15:08:32Z</time>
      </trkpt>
      <trkpt lat="44.04049" lon="1.68533">
        <ele>296</ele>
        <time>2011-06-26T15:08:34Z</time>
      </trkpt>
      <trkpt lat="44.04047" lon="1.68541">
        <ele>296</ele>
        <time>2011-06-26T15:08:36Z</time>
      </trkpt>
      <trkpt lat="44.04045" lon="1.68549">
        <ele>296</ele>
        <time>2011-06-26T15:08:38Z</time>
      </trkpt>
      <trkpt lat="44.04043" lon="1.68557">
        <ele>296</ele>
        <time>2011-06-26T15:08:40Z</time>
      </trkpt>
      <trkpt lat="44.04041" lon="1.68565">
        <ele>296</ele>
        <time>2011-06-26T15:08:42Z</time>
      </trkpt>
      <trkpt lat="44.04039" lon="1.68573">
        <ele>296</ele>
        <time>2011-06-26T15:08:44Z</time>
      </trkpt>
      <trkpt lat="44.04037" lon="1.68581">
        <ele>296</ele>
        <time>2011-06-26T15:08:46Z</time>
      </trkpt>
      <trkpt lat="44.04035" lon="1.68589">
        <ele>296</ele>
        <time>2011-06-26T15:08:48Z</time>
      </trkpt>
      <trkpt lat="44.04033" lon="1.68597">
        <ele>297</ele>
        <time>2011-06-26T15:08:50Z</time>
      </trkpt>
      <trkpt lat="44.04031" lon="1.68605">
        <ele>298</ele>
        <time>2011-06-26T15:08:52Z</time>
      </trkpt>
      <trkpt lat="44.04029" lon="1.68613">
        <ele>298</ele>
        <time>2011-06-26T15:08:54Z</time>
      </trkpt>
      <trkpt lat="44.04027" lon="1.68621">
        <ele>299</ele>
        <time>2011-06-26T15:08:56Z</time>
      </trkpt>
      <trkpt lat="44.04025" lon="1.6863">
        <ele>299</ele>
        <time>2011-06-26T15:08:58Z</time>
      </trkpt>
      <trkpt lat="44.04023" lon="1.68638">
        <ele>300</ele>
        <time>2011-06-26T15:09:00Z</time>
      </trkpt>
      <trkpt lat="44.04021" lon="1.68646">
        <ele>301</ele>
        <time>2011-06-26T15:09:02Z</time>
      </trkpt>
      <trkpt lat="44.0402" lon="1.68654">
        <ele>301</ele>
        <time>2011-06-26T15:09:04Z</time>
      </trkpt>
      <trkpt lat="44.04018" lon="1.68661">
        <ele>302</ele>
        <time>2011-06-26T15:09:06Z</time>
      </trkpt>
      <trkpt lat="44.04016" lon="1.68668">
        <ele>303</ele>
        <time>2011-06-26T15:09:08Z</time>
      </trkpt>
      <trkpt lat="44.04014" lon="1.68675">
        <ele>304</ele>
        <time>2011-06-26T15:09:10Z</time>
      </trkpt>
      <trkpt lat="44.04013" lon="1.68682">
        <ele>304</ele>
        <time>2011-06-26T15:09:12Z</time>
      </trkpt>
      <trkpt lat="44.04011" lon="1.68689">
        <ele>305</ele>
        <time>2011-06-26T15:09:14Z</time>
      </trkpt>
      <trkpt lat="44.0401" lon="1.68696">
        <ele>306</ele>
        <time>2011-06-26T15:09:16Z</time>
      </trkpt>
      <trkpt lat="44.04009" lon="1.68703">
        <ele>306</ele>
        <time>2011-06-26T15:09:18Z</time>
      </trkpt>
      <trkpt lat="44.04007" lon="1.6871">
        <ele>307</ele>
        <time>2011-06-26T15:09:20Z</time>
      </trkpt>
      <trkpt lat="44.04007" lon="1.68717">
        <ele>307</ele>
        <time>2011-06-26T15:09:22Z</time>
      </trkpt>
      <trkpt lat="44.04006" lon="1.68724">
        <ele>307</ele>
        <time>2011-06-26T15:09:24Z</time>
      </trkpt>
      <trkpt lat="44.04005" lon="1.68731">
        <ele>308</ele>
        <time>2011-06-26T15:09:26Z</time>
      </trkpt>
      <trkpt lat="44.04005" lon="1.68738">
        <ele>309</ele>
        <time>2011-06-26T15:09:28Z</time>
      </trkpt>
      <trkpt lat="44.04005" lon="1.68745">
        <ele>309</ele>
        <time>2011-06-26T15:09:30Z</time>
      </trkpt>
      <trkpt lat="44.04005" lon="1.68753">
        <ele>310</ele>
        <time>2011-06-26T15:09:32Z</time>
      </trkpt>
      <trkpt lat="44.04005" lon="1.6876">
        <ele>310</ele>
        <time>2011-06-26T15:09:34Z</time>
      </trkpt>
      <trkpt lat="44.04004" lon="1.68766">
        <ele>311</ele>
        <time>2011-06-26T15:09:36Z</time>
      </trkpt>
      <trkpt lat="44.04004" lon="1.68773">
        <ele>311</ele>
        <time>2011-06-26T15:09:38Z</time>
      </trkpt>
      <trkpt lat="44.04003" lon="1.6878">
        <ele>312</ele>
        <time>2011-06-26T15:09:40Z</time>
      </trkpt>
      <trkpt lat="44.04002" lon="1.68787">
        <ele>312</ele>
        <time>2011-06-26T15:09:42Z</time>
      </trkpt>
      <trkpt lat="44.04001" lon="1.68794">
        <ele>313</ele>
        <time>2011-06-26T15:09:44Z</time>
      </trkpt>
      <trkpt lat="44.04" lon="1.68801">
        <ele>313</ele>
        <time>2011-06-26T15:09:46Z</time>
      </trkpt>
      <trkpt lat="44.03999" lon="1.68808">
        <ele>314</ele>
        <time>2011-06-26T15:09:48Z</time>
      </trkpt>
      <trkpt lat="44.03998" lon="1.68814">
        <ele>315</ele>
        <time>2011-06-26T15:09:50Z</time>
      </trkpt>
      <trkpt lat="44.03997" lon="1.68821">
        <ele>315</ele>
        <time>2011-06-26T15:09:52Z</time>
      </trkpt>
      <trkpt lat="44.03995" lon="1.68828">
        <ele>316</ele>
        <time>2011-06-26T15:09:54Z</time>
      </trkpt>
      <trkpt lat="44.03994" lon="1.68834">
        <ele>316</ele>
        <time>2011-06-26T15:09:56Z</time>
      </trkpt>
      <trkpt lat="44.03992" lon="1.68841">
        <ele>317</ele>
        <time>2011-06-26T15:09:58Z</time>
      </trkpt>
      <trkpt lat="44.03991" lon="1.68848">
        <ele>317</ele>
        <time>2011-06-26T15:10:00Z</time>
      </trkpt>
      <trkpt lat="44.03989" lon="1.68855">
        <ele>318</ele>
        <time>2011-06-26T15:10:02Z</time>
      </trkpt>
      <trkpt lat="44.03987" lon="1.68861">
        <ele>318</ele>
        <time>2011-06-26T15:10:04Z</time>
      </trkpt>
      <trkpt lat="44.03986" lon="1.68868">
        <ele>319</ele>
        <time>2011-06-26T15:10:06Z</time>
      </trkpt>
      <trkpt lat="44.03984" lon="1.68875">
        <ele>319</ele>
        <time>2011-06-26T15:10:08Z</time>
      </trkpt>
      <trkpt lat="44.03982" lon="1.68881">
        <ele>320</ele>
        <time>2011-06-26T15:10:10Z</time>
      </trkpt>
      <trkpt lat="44.0398" lon="1.68888">
        <ele>320</ele>
        <time>2011-06-26T15:10:12Z</time>
      </trkpt>
      <trkpt lat="44.03978" lon="1.68895">
        <ele>320</ele>
        <time>2011-06-26T15:10:14Z</time>
      </trkpt>
      <trkpt lat="44.03976" lon="1.68901">
        <ele>321</ele>
        <time>2011-06-26T15:10:16Z</time>
      </trkpt>
      <trkpt lat="44.03973" lon="1.68908">
        <ele>321</ele>
        <time>2011-06-26T15:10:18Z</time>
      </trkpt>
      <trkpt lat="44.03971" lon="1.68914">
        <ele>321</ele>
        <time>2011-06-26T15:10:20Z</time>
      </trkpt>
      <trkpt lat="44.03968" lon="1.6892">
        <ele>321</ele>
        <time>2011-06-26T15:10:22Z</time>
      </trkpt>
      <trkpt lat="44.03965" lon="1.68927">
        <ele>322</ele>
        <time>2011-06-26T15:10:24Z</time>
      </trkpt>
      <trkpt lat="44.03962" lon="1.68933">
        <ele>322</ele>
        <time>2011-06-26T15:10:26Z</time>
      </trkpt>
      <trkpt lat="44.03959" lon="1.68939">
        <ele>322</ele>
        <time>2011-06-26T15:10:28Z</time>
      </trkpt>
      <trkpt lat="44.03955" lon="1.68945">
        <ele>323</ele>
        <time>2011-06-26T15:10:30Z</time>
      </trkpt>
      <trkpt lat="44.03952" lon="1.6895">
        <ele>323</ele>
        <time>2011-06-26T15:10:32Z</time>
      </trkpt>
      <trkpt lat="44.03949" lon="1.68956">
        <ele>324</ele>
        <time>2011-06-26T15:10:34Z</time>
      </trkpt>
      <trkpt lat="44.03945" lon="1.68961">
        <ele>324</ele>
        <time>2011-06-26T15:10:36Z</time>
      </trkpt>
      <trkpt lat="44.03942" lon="1.68966">
        <ele>324</ele>
        <time>2011-06-26T15:10:38Z</time>
      </trkpt>
      <trkpt lat="44.03938" lon="1.68971">
        <ele>324</ele>
        <time>2011-06-26T15:10:40Z</time>
      </trkpt>
      <trkpt lat="44.03934" lon="1.68977">
        <ele>325</ele>
        <time>2011-06-26T15:10:42Z</time>
      </trkpt>
      <trkpt lat="44.03931" lon="1.68982">
        <ele>325</ele>
        <time>2011-06-26T15:10:44Z</time>
      </trkpt>
      <trkpt lat="44.03927" lon="1.68988">
        <ele>325</ele>
        <time>2011-06-26T15:10:46Z</time>
      </trkpt>
      <trkpt lat="44.03923" lon="1.68994">
        <ele>325</ele>
        <time>2011-06-26T15:10:48Z</time>
      </trkpt>
      <trkpt lat="44.03919" lon="1.69">
        <ele>326</ele>
        <time>2011-06-26T15:10:50Z</time>
      </trkpt>
      <trkpt lat="44.03915" lon="1.69006">
        <ele>326</ele>
        <time>2011-06-26T15:10:52Z</time>
      </trkpt>
      <trkpt lat="44.03911" lon="1.69011">
        <ele>326</ele>
        <time>2011-06-26T15:10:54Z</time>
      </trkpt>
      <trkpt lat="44.03907" lon="1.69017">
        <ele>327</ele>
        <time>2011-06-26T15:10:56Z</time>
      </trkpt>
      <trkpt lat="44.03903" lon="1.69022">
        <ele>327</ele>
        <time>2011-06-26T15:10:58Z</time>
      </trkpt>
      <trkpt lat="44.03899" lon="1.69027">
        <ele>328</ele>
        <time>2011-06-26T15:11:00Z</time>
      </trkpt>
      <trkpt lat="44.03894" lon="1.69033">
        <ele>328</ele>
        <time>2011-06-26T15:11:02Z</time>
      </trkpt>
      <trkpt lat="44.03889" lon="1.69038">
        <ele>329</ele>
        <time>2011-06-26T15:11:04Z</time>
      </trkpt>
      <trkpt lat="44.03885" lon="1.69044">
        <ele>329</ele>
        <time>2011-06-26T15:11:06Z</time>
      </trkpt>
      <trkpt lat="44.0388" lon="1.69049">
        <ele>329</ele>
        <time>2011-06-26T15:11:08Z</time>
      </trkpt>
      <trkpt lat="44.03876" lon="1.69054">
        <ele>329</ele>
        <time>2011-06-26T15:11:10Z</time>
      </trkpt>
      <trkpt lat="44.03872" lon="1.69059">
        <ele>330</ele>
        <time>2011-06-26T15:11:12Z</time>
      </trkpt>
      <trkpt lat="44.03867" lon="1.69063">
        <ele>330</ele>
        <time>2011-06-26T15:11:14Z</time>
      </trkpt>
      <trkpt lat="44.03863" lon="1.69069">
        <ele>330</ele>
        <time>2011-06-26T15:11:16Z</time>
      </trkpt>
      <trkpt lat="44.03858" lon="1.69074">
        <ele>330</ele>
        <time>2011-06-26T15:11:18Z</time>
      </trkpt>
      <trkpt lat="44.03853" lon="1.69079">
        <ele>330</ele>
        <time>2011-06-26T15:11:20Z</time>
      </trkpt>
      <trkpt lat="44.03849" lon="1.69084">
        <ele>330</ele>
        <time>2011-06-26T15:11:22Z</time>
      </trkpt>
      <trkpt lat="44.03845" lon="1.69089">
        <ele>331</ele>
        <time>2011-06-26T15:11:24Z</time>
      </trkpt>
      <trkpt lat="44.03841" lon="1.69093">
        <ele>331</ele>
        <time>2011-06-26T15:11:26Z</time>
      </trkpt>
      <trkpt lat="44.03837" lon="1.69097">
        <ele>332</ele>
        <time>2011-06-26T15:11:28Z</time>
      </trkpt>
      <trkpt lat="44.03833" lon="1.69101">
        <ele>332</ele>
        <time>2011-06-26T15:11:30Z</time>
      </trkpt>
      <trkpt lat="44.03829" lon="1.69105">
        <ele>332</ele>
        <time>2011-06-26T15:11:32Z</time>
      </trkpt>
      <trkpt lat="44.03825" lon="1.69109">
        <ele>332</ele>
        <time>2011-06-26T15:11:34Z</time>
      </trkpt>
      <trkpt lat="44.03821" lon="1.69114">
        <ele>333</ele>
        <time>2011-06-26T15:11:36Z</time>
      </trkpt>
      <trkpt lat="44.03817" lon="1.69118">
        <ele>333</ele>
        <time>2011-06-26T15:11:38Z</time>
      </trkpt>
      <trkpt lat="44.03813" lon="1.69123">
        <ele>334</ele>
        <time>2011-06-26T15:11:40Z</time>
      </trkpt>
      <trkpt lat="44.03809" lon="1.69128">
        <ele>334</ele>
        <time>2011-06-26T15:11:42Z</time>
      </trkpt>
      <trkpt lat="44.03805" lon="1.69132">
        <ele>334</ele>
        <time>2011-06-26T15:11:44Z</time>
      </trkpt>
      <trkpt lat="44.03801" lon="1.69136">
        <ele>334</ele>
        <time>2011-06-26T15:11:46Z</time>
      </trkpt>
      <trkpt lat="44.03797" lon="1.69141">
        <ele>334</ele>
        <time>2011-06-26T15:11:48Z</time>
      </trkpt>
      <trkpt lat="44.03793" lon="1.69146">
        <ele>335</ele>
        <time>2011-06-26T15:11:50Z</time>
      </trkpt>
      <trkpt lat="44.03789" lon="1.6915">
        <ele>335</ele>
        <time>2011-06-26T15:11:52Z</time>
      </trkpt>
      <trkpt lat="44.03785" lon="1.69154">
        <ele>335</ele>
        <time>2011-06-26T15:11:54Z</time>
      </trkpt>
      <trkpt lat="44.0378" lon="1.69158">
        <ele>335</ele>
        <time>2011-06-26T15:11:56Z</time>
      </trkpt>
      <trkpt lat="44.03776" lon="1.69162">
        <ele>335</ele>
        <time>2011-06-26T15:11:58Z</time>
      </trkpt>
      <trkpt lat="44.03772" lon="1.69166">
        <ele>335</ele>
        <time>2011-06-26T15:12:00Z</time>
      </trkpt>
      <trkpt lat="44.03767" lon="1.6917">
        <ele>335</ele>
        <time>2011-06-26T15:12:02Z</time>
      </trkpt>
      <trkpt lat="44.03763" lon="1.69174">
        <ele>335</ele>
        <time>2011-06-26T15:12:04Z</time>
      </trkpt>
      <trkpt lat="44.03759" lon="1.69178">
        <ele>335</ele>
        <time>2011-06-26T15:12:06Z</time>
      </trkpt>
      <trkpt lat="44.03755" lon="1.69181">
        <ele>336</ele>
        <time>2011-06-26T15:12:08Z</time>
      </trkpt>
      <trkpt lat="44.03751" lon="1.69184">
        <ele>336</ele>
        <time>2011-06-26T15:12:10Z</time>
      </trkpt>
      <trkpt lat="44.03747" lon="1.69188">
        <ele>336</ele>
        <time>2011-06-26T15:12:12Z</time>
      </trkpt>
      <trkpt lat="44.03743" lon="1.69192">
        <ele>336</ele>
        <time>2011-06-26T15:12:14Z</time>
      </trkpt>
      <trkpt lat="44.03738" lon="1.69196">
        <ele>337</ele>
        <time>2011-06-26T15:12:16Z</time>
      </trkpt>
      <trkpt lat="44.03734" lon="1.692">
        <ele>339</ele>
        <time>2011-06-26T15:12:18Z</time>
      </trkpt>
      <trkpt lat="44.0373" lon="1.69204">
        <ele>339</ele>
        <time>2011-06-26T15:12:20Z</time>
      </trkpt>
      <trkpt lat="44.03726" lon="1.69208">
        <ele>340</ele>
        <time>2011-06-26T15:12:22Z</time>
      </trkpt>
      <trkpt lat="44.03722" lon="1.69213">
        <ele>341</ele>
        <time>2011-06-26T15:12:24Z</time>
      </trkpt>
      <trkpt lat="44.03718" lon="1.69218">
        <ele>342</ele>
        <time>2011-06-26T15:12:26Z</time>
      </trkpt>
      <trkpt lat="44.03714" lon="1.69222">
        <ele>343</ele>
        <time>2011-06-26T15:12:28Z</time>
      </trkpt>
      <trkpt lat="44.03712" lon="1.69223">
        <ele>343</ele>
        <time>2011-06-26T15:12:30Z</time>
      </trkpt>
      <trkpt lat="44.03711" lon="1.69224">
        <ele>343</ele>
        <time>2011-06-26T15:12:32Z</time>
      </trkpt>
      <trkpt lat="44.03709" lon="1.69225">
        <ele>344</ele>
        <time>2011-06-26T15:12:39Z</time>
      </trkpt>
      <trkpt lat="44.03711" lon="1.69224">
        <ele>346</ele>
        <time>2011-06-26T15:12:44Z</time>
      </trkpt>
      <trkpt lat="44.03712" lon="1.69222">
        <ele>346</ele>
        <time>2011-06-26T15:12:47Z</time>
      </trkpt>
      <trkpt lat="44.03711" lon="1.69223">
        <ele>346</ele>
        <time>2011-06-26T15:12:54Z</time>
      </trkpt>
      <trkpt lat="44.0371" lon="1.69225">
        <ele>346</ele>
        <time>2011-06-26T15:12:57Z</time>
      </trkpt>
      <trkpt lat="44.0371" lon="1.69223">
        <ele>346</ele>
        <time>2011-06-26T15:13:11Z</time>
      </trkpt>
      <trkpt lat="44.0371" lon="1.69225">
        <ele>346</ele>
        <time>2011-06-26T15:13:41Z</time>
      </trkpt>
      <trkpt lat="44.0371" lon="1.69227">
        <ele>346</ele>
        <time>2011-06-26T15:14:15Z</time>
      </trkpt>
      <trkpt lat="44.03709" lon="1.69228">
        <ele>350</ele>
        <time>2011-06-26T15:15:32Z</time>
      </trkpt>
      <trkpt lat="44.03709" lon="1.69229">
        <ele>351</ele>
        <time>2011-06-26T15:16:32Z</time>
      </trkpt>
      <trkpt lat="44.03708" lon="1.69232">
        <ele>351</ele>
        <time>2011-06-26T15:16:37Z</time>
      </trkpt>
      <trkpt lat="44.03706" lon="1.69235">
        <ele>351</ele>
        <time>2011-06-26T15:16:39Z</time>
      </trkpt>
      <trkpt lat="44.03703" lon="1.69238">
        <ele>351</ele>
        <time>2011-06-26T15:16:41Z</time>
      </trkpt>
      <trkpt lat="44.037" lon="1.69243">
        <ele>351</ele>
        <time>2011-06-26T15:16:43Z</time>
      </trkpt>
      <trkpt lat="44.03697" lon="1.69246">
        <ele>351</ele>
        <time>2011-06-26T15:16:45Z</time>
      </trkpt>
      <trkpt lat="44.03694" lon="1.69251">
        <ele>351</ele>
        <time>2011-06-26T15:16:47Z</time>
      </trkpt>
      <trkpt lat="44.0369" lon="1.69255">
        <ele>351</ele>
        <time>2011-06-26T15:16:49Z</time>
      </trkpt>
      <trkpt lat="44.03687" lon="1.6926">
        <ele>351</ele>
        <time>2011-06-26T15:16:51Z</time>
      </trkpt>
      <trkpt lat="44.03684" lon="1.69264">
        <ele>351</ele>
        <time>2011-06-26T15:16:53Z</time>
      </trkpt>
      <trkpt lat="44.03681" lon="1.69269">
        <ele>351</ele>
        <time>2011-06-26T15:16:55Z</time>
      </trkpt>
      <trkpt lat="44.03678" lon="1.69273">
        <ele>351</ele>
        <time>2011-06-26T15:16:57Z</time>
      </trkpt>
      <trkpt lat="44.03675" lon="1.69277">
        <ele>351</ele>
        <time>2011-06-26T15:16:59Z</time>
      </trkpt>
      <trkpt lat="44.03672" lon="1.69281">
        <ele>351</ele>
        <time>2011-06-26T15:17:01Z</time>
      </trkpt>
      <trkpt lat="44.03669" lon="1.69285">
        <ele>351</ele>
        <time>2011-06-26T15:17:03Z</time>
      </trkpt>
      <trkpt lat="44.03665" lon="1.69291">
        <ele>351</ele>
        <time>2011-06-26T15:17:06Z</time>
      </trkpt>
      <trkpt lat="44.03661" lon="1.69296">
        <ele>351</ele>
        <time>2011-06-26T15:17:08Z</time>
      </trkpt>
      <trkpt lat="44.03659" lon="1.693">
        <ele>351</ele>
        <time>2011-06-26T15:17:10Z</time>
      </trkpt>
      <trkpt lat="44.03656" lon="1.69305">
        <ele>351</ele>
        <time>2011-06-26T15:17:12Z</time>
      </trkpt>
      <trkpt lat="44.03653" lon="1.69309">
        <ele>351</ele>
        <time>2011-06-26T15:17:14Z</time>
      </trkpt>
      <trkpt lat="44.0365" lon="1.69314">
        <ele>351</ele>
        <time>2011-06-26T15:17:16Z</time>
      </trkpt>
      <trkpt lat="44.03647" lon="1.69319">
        <ele>351</ele>
        <time>2011-06-26T15:17:18Z</time>
      </trkpt>
      <trkpt lat="44.03644" lon="1.69324">
        <ele>352</ele>
        <time>2011-06-26T15:17:20Z</time>
      </trkpt>
      <trkpt lat="44.03641" lon="1.69329">
        <ele>352</ele>
        <time>2011-06-26T15:17:22Z</time>
      </trkpt>
      <trkpt lat="44.03638" lon="1.69334">
        <ele>353</ele>
        <time>2011-06-26T15:17:24Z</time>
      </trkpt>
      <trkpt lat="44.03635" lon="1.69339">
        <ele>354</ele>
        <time>2011-06-26T15:17:26Z</time>
      </trkpt>
      <trkpt lat="44.03633" lon="1.69344">
        <ele>355</ele>
        <time>2011-06-26T15:17:28Z</time>
      </trkpt>
      <trkpt lat="44.0363" lon="1.69349">
        <ele>355</ele>
        <time>2011-06-26T15:17:30Z</time>
      </trkpt>
      <trkpt lat="44.03627" lon="1.69353">
        <ele>356</ele>
        <time>2011-06-26T15:17:32Z</time>
      </trkpt>
      <trkpt lat="44.03624" lon="1.69358">
        <ele>357</ele>
        <time>2011-06-26T15:17:34Z</time>
      </trkpt>
      <trkpt lat="44.03621" lon="1.69363">
        <ele>357</ele>
        <time>2011-06-26T15:17:36Z</time>
      </trkpt>
      <trkpt lat="44.03618" lon="1.69368">
        <ele>358</ele>
        <time>2011-06-26T15:17:38Z</time>
      </trkpt>
      <trkpt lat="44.03614" lon="1.69374">
        <ele>358</ele>
        <time>2011-06-26T15:17:40Z</time>
      </trkpt>
      <trkpt lat="44.03611" lon="1.69379">
        <ele>359</ele>
        <time>2011-06-26T15:17:42Z</time>
      </trkpt>
      <trkpt lat="44.03608" lon="1.69385">
        <ele>360</ele>
        <time>2011-06-26T15:17:44Z</time>
      </trkpt>
      <trkpt lat="44.03604" lon="1.69391">
        <ele>360</ele>
        <time>2011-06-26T15:17:46Z</time>
      </trkpt>
      <trkpt lat="44.03601" lon="1.69396">
        <ele>360</ele>
        <time>2011-06-26T15:17:48Z</time>
      </trkpt>
      <trkpt lat="44.03597" lon="1.69403">
        <ele>360</ele>
        <time>2011-06-26T15:17:50Z</time>
      </trkpt>
      <trkpt lat="44.03593" lon="1.69409">
        <ele>361</ele>
        <time>2011-06-26T15:17:52Z</time>
      </trkpt>
      <trkpt lat="44.0359" lon="1.69416">
        <ele>361</ele>
        <time>2011-06-26T15:17:54Z</time>
      </trkpt>
      <trkpt lat="44.03587" lon="1.69422">
        <ele>362</ele>
        <time>2011-06-26T15:17:56Z</time>
      </trkpt>
      <trkpt lat="44.03584" lon="1.69429">
        <ele>364</ele>
        <time>2011-06-26T15:17:58Z</time>
      </trkpt>
      <trkpt lat="44.03581" lon="1.69436">
        <ele>365</ele>
        <time>2011-06-26T15:18:00Z</time>
      </trkpt>
      <trkpt lat="44.03578" lon="1.69443">
        <ele>366</ele>
        <time>2011-06-26T15:18:02Z</time>
      </trkpt>
      <trkpt lat="44.03576" lon="1.6945">
        <ele>367</ele>
        <time>2011-06-26T15:18:04Z</time>
      </trkpt>
      <trkpt lat="44.03573" lon="1.69457">
        <ele>368</ele>
        <time>2011-06-26T15:18:06Z</time>
      </trkpt>
      <trkpt lat="44.03571" lon="1.69463">
        <ele>368</ele>
        <time>2011-06-26T15:18:08Z</time>
      </trkpt>
      <trkpt lat="44.03568" lon="1.6947">
        <ele>369</ele>
        <time>2011-06-26T15:18:10Z</time>
      </trkpt>
      <trkpt lat="44.03566" lon="1.69477">
        <ele>369</ele>
        <time>2011-06-26T15:18:12Z</time>
      </trkpt>
      <trkpt lat="44.03564" lon="1.69484">
        <ele>370</ele>
        <time>2011-06-26T15:18:14Z</time>
      </trkpt>
      <trkpt lat="44.03561" lon="1.69491">
        <ele>371</ele>
        <time>2011-06-26T15:18:16Z</time>
      </trkpt>
      <trkpt lat="44.03559" lon="1.69498">
        <ele>372</ele>
        <time>2011-06-26T15:18:18Z</time>
      </trkpt>
      <trkpt lat="44.03558" lon="1.69505">
        <ele>372</ele>
        <time>2011-06-26T15:18:20Z</time>
      </trkpt>
      <trkpt lat="44.03556" lon="1.69511">
        <ele>373</ele>
        <time>2011-06-26T15:18:22Z</time>
      </trkpt>
      <trkpt lat="44.03554" lon="1.69518">
        <ele>373</ele>
        <time>2011-06-26T15:18:24Z</time>
      </trkpt>
      <trkpt lat="44.03551" lon="1.69525">
        <ele>373</ele>
        <time>2011-06-26T15:18:26Z</time>
      </trkpt>
      <trkpt lat="44.0355" lon="1.69532">
        <ele>374</ele>
        <time>2011-06-26T15:18:28Z</time>
      </trkpt>
      <trkpt lat="44.03548" lon="1.69539">
        <ele>374</ele>
        <time>2011-06-26T15:18:30Z</time>
      </trkpt>
      <trkpt lat="44.03546" lon="1.69547">
        <ele>374</ele>
        <time>2011-06-26T15:18:32Z</time>
      </trkpt>
      <trkpt lat="44.03545" lon="1.69554">
        <ele>374</ele>
        <time>2011-06-26T15:18:34Z</time>
      </trkpt>
      <trkpt lat="44.03544" lon="1.69563">
        <ele>375</ele>
        <time>2011-06-26T15:18:36Z</time>
      </trkpt>
      <trkpt lat="44.03543" lon="1.69572">
        <ele>375</ele>
        <time>2011-06-26T15:18:38Z</time>
      </trkpt>
      <trkpt lat="44.03542" lon="1.69582">
        <ele>375</ele>
        <time>2011-06-26T15:18:40Z</time>
      </trkpt>
      <trkpt lat="44.03541" lon="1.69591">
        <ele>375</ele>
        <time>2011-06-26T15:18:42Z</time>
      </trkpt>
      <trkpt lat="44.03541" lon="1.69601">
        <ele>375</ele>
        <time>2011-06-26T15:18:44Z</time>
      </trkpt>
      <trkpt lat="44.0354" lon="1.69611">
        <ele>375</ele>
        <time>2011-06-26T15:18:46Z</time>
      </trkpt>
      <trkpt lat="44.03539" lon="1.6962">
        <ele>375</ele>
        <time>2011-06-26T15:18:48Z</time>
      </trkpt>
      <trkpt lat="44.03539" lon="1.69629">
        <ele>375</ele>
        <time>2011-06-26T15:18:50Z</time>
      </trkpt>
      <trkpt lat="44.0354" lon="1.69638">
        <ele>376</ele>
        <time>2011-06-26T15:18:52Z</time>
      </trkpt>
      <trkpt lat="44.03541" lon="1.69647">
        <ele>376</ele>
        <time>2011-06-26T15:18:54Z</time>
      </trkpt>
      <trkpt lat="44.03543" lon="1.69656">
        <ele>377</ele>
        <time>2011-06-26T15:18:56Z</time>
      </trkpt>
      <trkpt lat="44.03545" lon="1.69665">
        <ele>378</ele>
        <time>2011-06-26T15:18:58Z</time>
      </trkpt>
      <trkpt lat="44.03547" lon="1.69674">
        <ele>378</ele>
        <time>2011-06-26T15:19:00Z</time>
      </trkpt>
      <trkpt lat="44.0355" lon="1.69682">
        <ele>379</ele>
        <time>2011-06-26T15:19:02Z</time>
      </trkpt>
      <trkpt lat="44.03552" lon="1.69691">
        <ele>379</ele>
        <time>2011-06-26T15:19:04Z</time>
      </trkpt>
      <trkpt lat="44.03555" lon="1.69699">
        <ele>380</ele>
        <time>2011-06-26T15:19:06Z</time>
      </trkpt>
      <trkpt lat="44.03557" lon="1.69707">
        <ele>381</ele>
        <time>2011-06-26T15:19:08Z</time>
      </trkpt>
      <trkpt lat="44.0356" lon="1.69715">
        <ele>381</ele>
        <time>2011-06-26T15:19:10Z</time>
      </trkpt>
      <trkpt lat="44.03563" lon="1.69723">
        <ele>382</ele>
        <time>2011-06-26T15:19:12Z</time>
      </trkpt>
      <trkpt lat="44.03564" lon="1.69732">
        <ele>382</ele>
        <time>2011-06-26T15:19:14Z</time>
      </trkpt>
      <trkpt lat="44.03566" lon="1.6974">
        <ele>383</ele>
        <time>2011-06-26T15:19:16Z</time>
      </trkpt>
      <trkpt lat="44.03569" lon="1.69748">
        <ele>384</ele>
        <time>2011-06-26T15:19:18Z</time>
      </trkpt>
      <trkpt lat="44.03571" lon="1.69757">
        <ele>385</ele>
        <time>2011-06-26T15:19:20Z</time>
      </trkpt>
      <trkpt lat="44.03574" lon="1.69765">
        <ele>386</ele>
        <time>2011-06-26T15:19:22Z</time>
      </trkpt>
      <trkpt lat="44.03577" lon="1.69773">
        <ele>386</ele>
        <time>2011-06-26T15:19:24Z</time>
      </trkpt>
      <trkpt lat="44.03579" lon="1.69781">
        <ele>387</ele>
        <time>2011-06-26T15:19:26Z</time>
      </trkpt>
      <trkpt lat="44.03582" lon="1.69789">
        <ele>387</ele>
        <time>2011-06-26T15:19:28Z</time>
      </trkpt>
      <trkpt lat="44.03584" lon="1.69797">
        <ele>387</ele>
        <time>2011-06-26T15:19:30Z</time>
      </trkpt>
      <trkpt lat="44.03587" lon="1.69805">
        <ele>388</ele>
        <time>2011-06-26T15:19:32Z</time>
      </trkpt>
      <trkpt lat="44.03589" lon="1.69813">
        <ele>388</ele>
        <time>2011-06-26T15:19:34Z</time>
      </trkpt>
      <trkpt lat="44.03592" lon="1.69821">
        <ele>389</ele>
        <time>2011-06-26T15:19:36Z</time>
      </trkpt>
      <trkpt lat="44.03595" lon="1.69829">
        <ele>389</ele>
        <time>2011-06-26T15:19:38Z</time>
      </trkpt>
      <trkpt lat="44.03597" lon="1.69837">
        <ele>390</ele>
        <time>2011-06-26T15:19:40Z</time>
      </trkpt>
      <trkpt lat="44.036" lon="1.69845">
        <ele>390</ele>
        <time>2011-06-26T15:19:42Z</time>
      </trkpt>
      <trkpt lat="44.03602" lon="1.69853">
        <ele>391</ele>
        <time>2011-06-26T15:19:44Z</time>
      </trkpt>
      <trkpt lat="44.03604" lon="1.69861">
        <ele>392</ele>
        <time>2011-06-26T15:19:46Z</time>
      </trkpt>
      <trkpt lat="44.03606" lon="1.6987">
        <ele>392</ele>
        <time>2011-06-26T15:19:48Z</time>
      </trkpt>
      <trkpt lat="44.03607" lon="1.69878">
        <ele>393</ele>
        <time>2011-06-26T15:19:50Z</time>
      </trkpt>
      <trkpt lat="44.03608" lon="1.69887">
        <ele>393</ele>
        <time>2011-06-26T15:19:52Z</time>
      </trkpt>
      <trkpt lat="44.03608" lon="1.69896">
        <ele>394</ele>
        <time>2011-06-26T15:19:54Z</time>
      </trkpt>
      <trkpt lat="44.03608" lon="1.69905">
        <ele>394</ele>
        <time>2011-06-26T15:19:56Z</time>
      </trkpt>
      <trkpt lat="44.03608" lon="1.69914">
        <ele>394</ele>
        <time>2011-06-26T15:19:58Z</time>
      </trkpt>
      <trkpt lat="44.03608" lon="1.69923">
        <ele>394</ele>
        <time>2011-06-26T15:20:00Z</time>
      </trkpt>
      <trkpt lat="44.03608" lon="1.69933">
        <ele>394</ele>
        <time>2011-06-26T15:20:02Z</time>
      </trkpt>
      <trkpt lat="44.03609" lon="1.69943">
        <ele>395</ele>
        <time>2011-06-26T15:20:04Z</time>
      </trkpt>
      <trkpt lat="44.03609" lon="1.69954">
        <ele>395</ele>
        <time>2011-06-26T15:20:06Z</time>
      </trkpt>
      <trkpt lat="44.03611" lon="1.69964">
        <ele>395</ele>
        <time>2011-06-26T15:20:08Z</time>
      </trkpt>
      <trkpt lat="44.03613" lon="1.69975">
        <ele>395</ele>
        <time>2011-06-26T15:20:10Z</time>
      </trkpt>
      <trkpt lat="44.03615" lon="1.69985">
        <ele>396</ele>
        <time>2011-06-26T15:20:12Z</time>
      </trkpt>
      <trkpt lat="44.03618" lon="1.69995">
        <ele>396</ele>
        <time>2011-06-26T15:20:14Z</time>
      </trkpt>
      <trkpt lat="44.0362" lon="1.70006">
        <ele>397</ele>
        <time>2011-06-26T15:20:16Z</time>
      </trkpt>
      <trkpt lat="44.03623" lon="1.70016">
        <ele>397</ele>
        <time>2011-06-26T15:20:18Z</time>
      </trkpt>
      <trkpt lat="44.03626" lon="1.70027">
        <ele>398</ele>
        <time>2011-06-26T15:20:20Z</time>
      </trkpt>
      <trkpt lat="44.03628" lon="1.70039">
        <ele>398</ele>
        <time>2011-06-26T15:20:22Z</time>
      </trkpt>
      <trkpt lat="44.03631" lon="1.70052">
        <ele>398</ele>
        <time>2011-06-26T15:20:24Z</time>
      </trkpt>
      <trkpt lat="44.03633" lon="1.70064">
        <ele>398</ele>
        <time>2011-06-26T15:20:26Z</time>
      </trkpt>
      <trkpt lat="44.03636" lon="1.70077">
        <ele>398</ele>
        <time>2011-06-26T15:20:28Z</time>
      </trkpt>
      <trkpt lat="44.03638" lon="1.7009">
        <ele>398</ele>
        <time>2011-06-26T15:20:30Z</time>
      </trkpt>
      <trkpt lat="44.03641" lon="1.70103">
        <ele>398</ele>
        <time>2011-06-26T15:20:32Z</time>
      </trkpt>
      <trkpt lat="44.03644" lon="1.70116">
        <ele>398</ele>
        <time>2011-06-26T15:20:34Z</time>
      </trkpt>
      <trkpt lat="44.03647" lon="1.7013">
        <ele>398</ele>
        <time>2011-06-26T15:20:36Z</time>
      </trkpt>
      <trkpt lat="44.0365" lon="1.70143">
        <ele>398</ele>
        <time>2011-06-26T15:20:38Z</time>
      </trkpt>
      <trkpt lat="44.03652" lon="1.70156">
        <ele>398</ele>
        <time>2011-06-26T15:20:40Z</time>
      </trkpt>
      <trkpt lat="44.03654" lon="1.7017">
        <ele>398</ele>
        <time>2011-06-26T15:20:42Z</time>
      </trkpt>
      <trkpt lat="44.03658" lon="1.70183">
        <ele>398</ele>
        <time>2011-06-26T15:20:44Z</time>
      </trkpt>
      <trkpt lat="44.03661" lon="1.70196">
        <ele>398</ele>
        <time>2011-06-26T15:20:46Z</time>
      </trkpt>
      <trkpt lat="44.03666" lon="1.70208">
        <ele>398</ele>
        <time>2011-06-26T15:20:48Z</time>
      </trkpt>
      <trkpt lat="44.0367" lon="1.70219">
        <ele>398</ele>
        <time>2011-06-26T15:20:50Z</time>
      </trkpt>
      <trkpt lat="44.03674" lon="1.70231">
        <ele>399</ele>
        <time>2011-06-26T15:20:52Z</time>
      </trkpt>
      <trkpt lat="44.03679" lon="1.70241">
        <ele>399</ele>
        <time>2011-06-26T15:20:54Z</time>
      </trkpt>
      <trkpt lat="44.03683" lon="1.70253">
        <ele>400</ele>
        <time>2011-06-26T15:20:56Z</time>
      </trkpt>
      <trkpt lat="44.03688" lon="1.70264">
        <ele>400</ele>
        <time>2011-06-26T15:20:58Z</time>
      </trkpt>
      <trkpt lat="44.03692" lon="1.70276">
        <ele>400</ele>
        <time>2011-06-26T15:21:00Z</time>
      </trkpt>
      <trkpt lat="44.03696" lon="1.70288">
        <ele>400</ele>
        <time>2011-06-26T15:21:02Z</time>
      </trkpt>
      <trkpt lat="44.03701" lon="1.703">
        <ele>400</ele>
        <time>2011-06-26T15:21:04Z</time>
      </trkpt>
      <trkpt lat="44.03706" lon="1.70312">
        <ele>400</ele>
        <time>2011-06-26T15:21:06Z</time>
      </trkpt>
      <trkpt lat="44.03712" lon="1.70325">
        <ele>400</ele>
        <time>2011-06-26T15:21:08Z</time>
      </trkpt>
      <trkpt lat="44.03717" lon="1.70338">
        <ele>400</ele>
        <time>2011-06-26T15:21:10Z</time>
      </trkpt>
      <trkpt lat="44.03723" lon="1.70351">
        <ele>400</ele>
        <time>2011-06-26T15:21:12Z</time>
      </trkpt>
      <trkpt lat="44.03728" lon="1.70365">
        <ele>400</ele>
        <time>2011-06-26T15:21:14Z</time>
      </trkpt>
      <trkpt lat="44.03733" lon="1.70378">
        <ele>400</ele>
        <time>2011-06-26T15:21:16Z</time>
      </trkpt>
      <trkpt lat="44.03737" lon="1.70388">
        <ele>401</ele>
        <time>2011-06-26T15:21:18Z</time>
      </trkpt>
      <trkpt lat="44.03742" lon="1.704">
        <ele>401</ele>
        <time>2011-06-26T15:21:20Z</time>
      </trkpt>
      <trkpt lat="44.03748" lon="1.70411">
        <ele>401</ele>
        <time>2011-06-26T15:21:22Z</time>
      </trkpt>
      <trkpt lat="44.03753" lon="1.70424">
        <ele>402</ele>
        <time>2011-06-26T15:21:24Z</time>
      </trkpt>
      <trkpt lat="44.03756" lon="1.70437">
        <ele>403</ele>
        <time>2011-06-26T15:21:26Z</time>
      </trkpt>
      <trkpt lat="44.03758" lon="1.70449">
        <ele>403</ele>
        <time>2011-06-26T15:21:28Z</time>
      </trkpt>
      <trkpt lat="44.03759" lon="1.70461">
        <ele>404</ele>
        <time>2011-06-26T15:21:30Z</time>
      </trkpt>
      <trkpt lat="44.03758" lon="1.70472">
        <ele>406</ele>
        <time>2011-06-26T15:21:32Z</time>
      </trkpt>
      <trkpt lat="44.03758" lon="1.70483">
        <ele>407</ele>
        <time>2011-06-26T15:21:34Z</time>
      </trkpt>
      <trkpt lat="44.03758" lon="1.70493">
        <ele>407</ele>
        <time>2011-06-26T15:21:36Z</time>
      </trkpt>
      <trkpt lat="44.03757" lon="1.70503">
        <ele>408</ele>
        <time>2011-06-26T15:21:38Z</time>
      </trkpt>
      <trkpt lat="44.03757" lon="1.70514">
        <ele>408</ele>
        <time>2011-06-26T15:21:40Z</time>
      </trkpt>
      <trkpt lat="44.03758" lon="1.70525">
        <ele>409</ele>
        <time>2011-06-26T15:21:42Z</time>
      </trkpt>
      <trkpt lat="44.03759" lon="1.70535">
        <ele>409</ele>
        <time>2011-06-26T15:21:44Z</time>
      </trkpt>
      <trkpt lat="44.0376" lon="1.70546">
        <ele>410</ele>
        <time>2011-06-26T15:21:46Z</time>
      </trkpt>
      <trkpt lat="44.03762" lon="1.70556">
        <ele>410</ele>
        <time>2011-06-26T15:21:48Z</time>
      </trkpt>
      <trkpt lat="44.03764" lon="1.70566">
        <ele>411</ele>
        <time>2011-06-26T15:21:50Z</time>
      </trkpt>
      <trkpt lat="44.03767" lon="1.70576">
        <ele>411</ele>
        <time>2011-06-26T15:21:52Z</time>
      </trkpt>
      <trkpt lat="44.0377" lon="1.70586">
        <ele>411</ele>
        <time>2011-06-26T15:21:54Z</time>
      </trkpt>
      <trkpt lat="44.03774" lon="1.70596">
        <ele>411</ele>
        <time>2011-06-26T15:21:56Z</time>
      </trkpt>
      <trkpt lat="44.03777" lon="1.70605">
        <ele>411</ele>
        <time>2011-06-26T15:21:58Z</time>
      </trkpt>
      <trkpt lat="44.03781" lon="1.70613">
        <ele>411</ele>
        <time>2011-06-26T15:22:00Z</time>
      </trkpt>
      <trkpt lat="44.03785" lon="1.70622">
        <ele>411</ele>
        <time>2011-06-26T15:22:02Z</time>
      </trkpt>
      <trkpt lat="44.03791" lon="1.7063">
        <ele>411</ele>
        <time>2011-06-26T15:22:04Z</time>
      </trkpt>
      <trkpt lat="44.03796" lon="1.7064">
        <ele>411</ele>
        <time>2011-06-26T15:22:06Z</time>
      </trkpt>
      <trkpt lat="44.03801" lon="1.70654">
        <ele>411</ele>
        <time>2011-06-26T15:22:08Z</time>
      </trkpt>
      <trkpt lat="44.03803" lon="1.70671">
        <ele>411</ele>
        <time>2011-06-26T15:22:10Z</time>
      </trkpt>
      <trkpt lat="44.03802" lon="1.70691">
        <ele>411</ele>
        <time>2011-06-26T15:22:12Z</time>
      </trkpt>
      <trkpt lat="44.038" lon="1.70711">
        <ele>411</ele>
        <time>2011-06-26T15:22:14Z</time>
      </trkpt>
      <trkpt lat="44.03799" lon="1.70733">
        <ele>411</ele>
        <time>2011-06-26T15:22:16Z</time>
      </trkpt>
      <trkpt lat="44.03801" lon="1.70755">
        <ele>411</ele>
        <time>2011-06-26T15:22:18Z</time>
      </trkpt>
      <trkpt lat="44.03804" lon="1.70776">
        <ele>411</ele>
        <time>2011-06-26T15:22:20Z</time>
      </trkpt>
      <trkpt lat="44.03806" lon="1.70798">
        <ele>411</ele>
        <time>2011-06-26T15:22:22Z</time>
      </trkpt>
      <trkpt lat="44.03806" lon="1.70817">
        <ele>411</ele>
        <time>2011-06-26T15:22:24Z</time>
      </trkpt>
      <trkpt lat="44.03806" lon="1.70835">
        <ele>411</ele>
        <time>2011-06-26T15:22:26Z</time>
      </trkpt>
      <trkpt lat="44.03805" lon="1.70851">
        <ele>411</ele>
        <time>2011-06-26T15:22:28Z</time>
      </trkpt>
      <trkpt lat="44.03803" lon="1.70866">
        <ele>411</ele>
        <time>2011-06-26T15:22:30Z</time>
      </trkpt>
      <trkpt lat="44.03801" lon="1.70879">
        <ele>411</ele>
        <time>2011-06-26T15:22:32Z</time>
      </trkpt>
      <trkpt lat="44.03797" lon="1.70892">
        <ele>411</ele>
        <time>2011-06-26T15:22:34Z</time>
      </trkpt>
      <trkpt lat="44.03793" lon="1.70904">
        <ele>411</ele>
        <time>2011-06-26T15:22:36Z</time>
      </trkpt>
      <trkpt lat="44.03789" lon="1.70915">
        <ele>411</ele>
        <time>2011-06-26T15:22:38Z</time>
      </trkpt>
      <trkpt lat="44.03784" lon="1.70925">
        <ele>411</ele>
        <time>2011-06-26T15:22:40Z</time>
      </trkpt>
      <trkpt lat="44.03779" lon="1.70936">
        <ele>411</ele>
        <time>2011-06-26T15:22:42Z</time>
      </trkpt>
      <trkpt lat="44.03774" lon="1.70946">
        <ele>411</ele>
        <time>2011-06-26T15:22:44Z</time>
      </trkpt>
      <trkpt lat="44.03769" lon="1.70956">
        <ele>411</ele>
        <time>2011-06-26T15:22:46Z</time>
      </trkpt>
      <trkpt lat="44.03765" lon="1.70967">
        <ele>411</ele>
        <time>2011-06-26T15:22:48Z</time>
      </trkpt>
      <trkpt lat="44.03761" lon="1.70978">
        <ele>411</ele>
        <time>2011-06-26T15:22:50Z</time>
      </trkpt>
      <trkpt lat="44.03758" lon="1.70989">
        <ele>411</ele>
        <time>2011-06-26T15:22:52Z</time>
      </trkpt>
      <trkpt lat="44.03755" lon="1.71001">
        <ele>412</ele>
        <time>2011-06-26T15:22:54Z</time>
      </trkpt>
      <trkpt lat="44.03753" lon="1.71013">
        <ele>412</ele>
        <time>2011-06-26T15:22:56Z</time>
      </trkpt>
      <trkpt lat="44.03751" lon="1.71025">
        <ele>412</ele>
        <time>2011-06-26T15:22:58Z</time>
      </trkpt>
      <trkpt lat="44.0375" lon="1.71037">
        <ele>412</ele>
        <time>2011-06-26T15:23:00Z</time>
      </trkpt>
      <trkpt lat="44.03748" lon="1.71049">
        <ele>412</ele>
        <time>2011-06-26T15:23:02Z</time>
      </trkpt>
      <trkpt lat="44.03747" lon="1.7106">
        <ele>412</ele>
        <time>2011-06-26T15:23:04Z</time>
      </trkpt>
      <trkpt lat="44.03746" lon="1.71071">
        <ele>413</ele>
        <time>2011-06-26T15:23:06Z</time>
      </trkpt>
      <trkpt lat="44.03744" lon="1.71081">
        <ele>413</ele>
        <time>2011-06-26T15:23:08Z</time>
      </trkpt>
      <trkpt lat="44.03743" lon="1.71092">
        <ele>413</ele>
        <time>2011-06-26T15:23:10Z</time>
      </trkpt>
      <trkpt lat="44.03741" lon="1.71102">
        <ele>414</ele>
        <time>2011-06-26T15:23:12Z</time>
      </trkpt>
      <trkpt lat="44.0374" lon="1.71113">
        <ele>414</ele>
        <time>2011-06-26T15:23:14Z</time>
      </trkpt>
      <trkpt lat="44.03739" lon="1.71123">
        <ele>414</ele>
        <time>2011-06-26T15:23:16Z</time>
      </trkpt>
      <trkpt lat="44.03738" lon="1.71133">
        <ele>414</ele>
        <time>2011-06-26T15:23:18Z</time>
      </trkpt>
      <trkpt lat="44.03737" lon="1.71144">
        <ele>415</ele>
        <time>2011-06-26T15:23:20Z</time>
      </trkpt>
      <trkpt lat="44.03736" lon="1.71154">
        <ele>415</ele>
        <time>2011-06-26T15:23:22Z</time>
      </trkpt>
      <trkpt lat="44.03735" lon="1.71164">
        <ele>416</ele>
        <time>2011-06-26T15:23:24Z</time>
      </trkpt>
      <trkpt lat="44.03734" lon="1.71174">
        <ele>416</ele>
        <time>2011-06-26T15:23:26Z</time>
      </trkpt>
      <trkpt lat="44.03733" lon="1.71184">
        <ele>416</ele>
        <time>2011-06-26T15:23:28Z</time>
      </trkpt>
      <trkpt lat="44.03731" lon="1.71194">
        <ele>417</ele>
        <time>2011-06-26T15:23:30Z</time>
      </trkpt>
      <trkpt lat="44.0373" lon="1.71204">
        <ele>417</ele>
        <time>2011-06-26T15:23:32Z</time>
      </trkpt>
      <trkpt lat="44.03729" lon="1.71214">
        <ele>417</ele>
        <time>2011-06-26T15:23:34Z</time>
      </trkpt>
      <trkpt lat="44.03728" lon="1.71222">
        <ele>417</ele>
        <time>2011-06-26T15:23:36Z</time>
      </trkpt>
      <trkpt lat="44.03724" lon="1.71228">
        <ele>417</ele>
        <time>2011-06-26T15:23:38Z</time>
      </trkpt>
      <trkpt lat="44.0372" lon="1.71226">
        <ele>418</ele>
        <time>2011-06-26T15:23:40Z</time>
      </trkpt>
      <trkpt lat="44.03718" lon="1.71219">
        <ele>418</ele>
        <time>2011-06-26T15:23:42Z</time>
      </trkpt>
      <trkpt lat="44.03717" lon="1.71212">
        <ele>418</ele>
        <time>2011-06-26T15:23:44Z</time>
      </trkpt>
      <trkpt lat="44.03715" lon="1.71203">
        <ele>418</ele>
        <time>2011-06-26T15:23:46Z</time>
      </trkpt>
      <trkpt lat="44.03713" lon="1.71193">
        <ele>418</ele>
        <time>2011-06-26T15:23:48Z</time>
      </trkpt>
      <trkpt lat="44.03712" lon="1.71183">
        <ele>418</ele>
        <time>2011-06-26T15:23:50Z</time>
      </trkpt>
      <trkpt lat="44.03713" lon="1.71172">
        <ele>418</ele>
        <time>2011-06-26T15:23:52Z</time>
      </trkpt>
      <trkpt lat="44.03713" lon="1.7116">
        <ele>418</ele>
        <time>2011-06-26T15:23:54Z</time>
      </trkpt>
      <trkpt lat="44.03713" lon="1.71148">
        <ele>418</ele>
        <time>2011-06-26T15:23:56Z</time>
      </trkpt>
      <trkpt lat="44.03712" lon="1.71135">
        <ele>418</ele>
        <time>2011-06-26T15:23:58Z</time>
      </trkpt>
      <trkpt lat="44.03711" lon="1.71124">
        <ele>418</ele>
        <time>2011-06-26T15:24:00Z</time>
      </trkpt>
      <trkpt lat="44.03709" lon="1.71112">
        <ele>418</ele>
        <time>2011-06-26T15:24:02Z</time>
      </trkpt>
      <trkpt lat="44.03706" lon="1.71099">
        <ele>418</ele>
        <time>2011-06-26T15:24:04Z</time>
      </trkpt>
      <trkpt lat="44.03703" lon="1.71084">
        <ele>418</ele>
        <time>2011-06-26T15:24:06Z</time>
      </trkpt>
      <trkpt lat="44.03699" lon="1.7107">
        <ele>418</ele>
        <time>2011-06-26T15:24:08Z</time>
      </trkpt>
      <trkpt lat="44.03696" lon="1.71057">
        <ele>418</ele>
        <time>2011-06-26T15:24:10Z</time>
      </trkpt>
      <trkpt lat="44.03691" lon="1.71046">
        <ele>418</ele>
        <time>2011-06-26T15:24:12Z</time>
      </trkpt>
      <trkpt lat="44.03685" lon="1.71038">
        <ele>418</ele>
        <time>2011-06-26T15:24:14Z</time>
      </trkpt>
      <trkpt lat="44.03677" lon="1.71038">
        <ele>418</ele>
        <time>2011-06-26T15:24:16Z</time>
      </trkpt>
      <trkpt lat="44.03668" lon="1.7104">
        <ele>418</ele>
        <time>2011-06-26T15:24:18Z</time>
      </trkpt>
      <trkpt lat="44.0366" lon="1.71036">
        <ele>418</ele>
        <time>2011-06-26T15:24:20Z</time>
      </trkpt>
      <trkpt lat="44.03653" lon="1.71026">
        <ele>418</ele>
        <time>2011-06-26T15:24:22Z</time>
      </trkpt>
      <trkpt lat="44.03648" lon="1.71018">
        <ele>418</ele>
        <time>2011-06-26T15:24:24Z</time>
      </trkpt>
      <trkpt lat="44.03646" lon="1.71016">
        <ele>418</ele>
        <time>2011-06-26T15:24:27Z</time>
      </trkpt>
      <trkpt lat="44.03644" lon="1.71015">
        <ele>417</ele>
        <time>2011-06-26T15:24:30Z</time>
      </trkpt>
      <trkpt lat="44.03644" lon="1.71013">
        <ele>417</ele>
        <time>2011-06-26T15:24:32Z</time>
      </trkpt>
      <trkpt lat="44.03644" lon="1.71012">
        <ele>417</ele>
        <time>2011-06-26T15:24:35Z</time>
      </trkpt>
      <trkpt lat="44.03643" lon="1.7101">
        <ele>416</ele>
        <time>2011-06-26T15:24:39Z</time>
      </trkpt>
      <trkpt lat="44.03642" lon="1.71009">
        <ele>416</ele>
        <time>2011-06-26T15:24:43Z</time>
      </trkpt>
      <trkpt lat="44.03638" lon="1.71005">
        <ele>415</ele>
        <time>2011-06-26T15:24:45Z</time>
      </trkpt>
      <trkpt lat="44.03632" lon="1.71">
        <ele>415</ele>
        <time>2011-06-26T15:24:47Z</time>
      </trkpt>
      <trkpt lat="44.03624" lon="1.70994">
        <ele>414</ele>
        <time>2011-06-26T15:24:49Z</time>
      </trkpt>
      <trkpt lat="44.03616" lon="1.70991">
        <ele>412</ele>
        <time>2011-06-26T15:24:51Z</time>
      </trkpt>
      <trkpt lat="44.03607" lon="1.70994">
        <ele>410</ele>
        <time>2011-06-26T15:24:53Z</time>
      </trkpt>
      <trkpt lat="44.03598" lon="1.70998">
        <ele>408</ele>
        <time>2011-06-26T15:24:55Z</time>
      </trkpt>
      <trkpt lat="44.03589" lon="1.71001">
        <ele>406</ele>
        <time>2011-06-26T15:24:57Z</time>
      </trkpt>
      <trkpt lat="44.03577" lon="1.71001">
        <ele>404</ele>
        <time>2011-06-26T15:24:59Z</time>
      </trkpt>
      <trkpt lat="44.03565" lon="1.71002">
        <ele>402</ele>
        <time>2011-06-26T15:25:01Z</time>
      </trkpt>
      <trkpt lat="44.03553" lon="1.71002">
        <ele>400</ele>
        <time>2011-06-26T15:25:03Z</time>
      </trkpt>
      <trkpt lat="44.03543" lon="1.71003">
        <ele>398</ele>
        <time>2011-06-26T15:25:05Z</time>
      </trkpt>
      <trkpt lat="44.03534" lon="1.71007">
        <ele>396</ele>
        <time>2011-06-26T15:25:07Z</time>
      </trkpt>
      <trkpt lat="44.03524" lon="1.7101">
        <ele>394</ele>
        <time>2011-06-26T15:25:09Z</time>
      </trkpt>
      <trkpt lat="44.03512" lon="1.71008">
        <ele>392</ele>
        <time>2011-06-26T15:25:11Z</time>
      </trkpt>
      <trkpt lat="44.035" lon="1.71004">
        <ele>390</ele>
        <time>2011-06-26T15:25:13Z</time>
      </trkpt>
      <trkpt lat="44.03487" lon="1.71001">
        <ele>388</ele>
        <time>2011-06-26T15:25:15Z</time>
      </trkpt>
      <trkpt lat="44.03474" lon="1.71001">
        <ele>386</ele>
        <time>2011-06-26T15:25:17Z</time>
      </trkpt>
      <trkpt lat="44.03461" lon="1.70999">
        <ele>384</ele>
        <time>2011-06-26T15:25:19Z</time>
      </trkpt>
      <trkpt lat="44.03448" lon="1.70996">
        <ele>383</ele>
        <time>2011-06-26T15:25:21Z</time>
      </trkpt>
      <trkpt lat="44.03438" lon="1.70988">
        <ele>381</ele>
        <time>2011-06-26T15:25:23Z</time>
      </trkpt>
      <trkpt lat="44.03426" lon="1.70981">
        <ele>380</ele>
        <time>2011-06-26T15:25:25Z</time>
      </trkpt>
      <trkpt lat="44.03415" lon="1.70974">
        <ele>378</ele>
        <time>2011-06-26T15:25:27Z</time>
      </trkpt>
      <trkpt lat="44.03404" lon="1.70967">
        <ele>376</ele>
        <time>2011-06-26T15:25:29Z</time>
      </trkpt>
      <trkpt lat="44.03393" lon="1.70962">
        <ele>374</ele>
        <time>2011-06-26T15:25:31Z</time>
      </trkpt>
      <trkpt lat="44.03382" lon="1.70959">
        <ele>373</ele>
        <time>2011-06-26T15:25:33Z</time>
      </trkpt>
      <trkpt lat="44.03371" lon="1.70956">
        <ele>373</ele>
        <time>2011-06-26T15:25:35Z</time>
      </trkpt>
      <trkpt lat="44.0336" lon="1.70953">
        <ele>372</ele>
        <time>2011-06-26T15:25:37Z</time>
      </trkpt>
      <trkpt lat="44.03351" lon="1.70951">
        <ele>371</ele>
        <time>2011-06-26T15:25:39Z</time>
      </trkpt>
      <trkpt lat="44.03343" lon="1.70949">
        <ele>369</ele>
        <time>2011-06-26T15:25:41Z</time>
      </trkpt>
      <trkpt lat="44.03336" lon="1.70944">
        <ele>368</ele>
        <time>2011-06-26T15:25:43Z</time>
      </trkpt>
      <trkpt lat="44.03332" lon="1.70939">
        <ele>368</ele>
        <time>2011-06-26T15:25:45Z</time>
      </trkpt>
      <trkpt lat="44.03328" lon="1.70933">
        <ele>367</ele>
        <time>2011-06-26T15:25:47Z</time>
      </trkpt>
      <trkpt lat="44.03326" lon="1.70929">
        <ele>366</ele>
        <time>2011-06-26T15:25:49Z</time>
      </trkpt>
      <trkpt lat="44.03326" lon="1.70926">
        <ele>364</ele>
        <time>2011-06-26T15:25:51Z</time>
      </trkpt>
      <trkpt lat="44.03323" lon="1.70922">
        <ele>362</ele>
        <time>2011-06-26T15:25:53Z</time>
      </trkpt>
      <trkpt lat="44.03319" lon="1.70916">
        <ele>361</ele>
        <time>2011-06-26T15:25:55Z</time>
      </trkpt>
      <trkpt lat="44.03314" lon="1.70909">
        <ele>359</ele>
        <time>2011-06-26T15:25:57Z</time>
      </trkpt>
      <trkpt lat="44.03309" lon="1.70901">
        <ele>357</ele>
        <time>2011-06-26T15:25:59Z</time>
      </trkpt>
      <trkpt lat="44.03306" lon="1.70893">
        <ele>356</ele>
        <time>2011-06-26T15:26:01Z</time>
      </trkpt>
      <trkpt lat="44.03301" lon="1.70884">
        <ele>354</ele>
        <time>2011-06-26T15:26:03Z</time>
      </trkpt>
      <trkpt lat="44.03294" lon="1.70875">
        <ele>353</ele>
        <time>2011-06-26T15:26:05Z</time>
      </trkpt>
      <trkpt lat="44.03287" lon="1.70864">
        <ele>352</ele>
        <time>2011-06-26T15:26:07Z</time>
      </trkpt>
      <trkpt lat="44.03282" lon="1.70853">
        <ele>351</ele>
        <time>2011-06-26T15:26:09Z</time>
      </trkpt>
      <trkpt lat="44.03277" lon="1.70844">
        <ele>351</ele>
        <time>2011-06-26T15:26:11Z</time>
      </trkpt>
      <trkpt lat="44.03271" lon="1.70835">
        <ele>350</ele>
        <time>2011-06-26T15:26:13Z</time>
      </trkpt>
      <trkpt lat="44.03263" lon="1.70827">
        <ele>350</ele>
        <time>2011-06-26T15:26:15Z</time>
      </trkpt>
      <trkpt lat="44.03254" lon="1.70819">
        <ele>350</ele>
        <time>2011-06-26T15:26:17Z</time>
      </trkpt>
      <trkpt lat="44.03246" lon="1.7081">
        <ele>349</ele>
        <time>2011-06-26T15:26:19Z</time>
      </trkpt>
      <trkpt lat="44.03239" lon="1.70804">
        <ele>348</ele>
        <time>2011-06-26T15:26:21Z</time>
      </trkpt>
      <trkpt lat="44.03234" lon="1.708">
        <ele>348</ele>
        <time>2011-06-26T15:26:23Z</time>
      </trkpt>
      <trkpt lat="44.03232" lon="1.70796">
        <ele>348</ele>
        <time>2011-06-26T15:26:25Z</time>
      </trkpt>
      <trkpt lat="44.03229" lon="1.70793">
        <ele>348</ele>
        <time>2011-06-26T15:26:27Z</time>
      </trkpt>
      <trkpt lat="44.03225" lon="1.70789">
        <ele>348</ele>
        <time>2011-06-26T15:26:29Z</time>
      </trkpt>
      <trkpt lat="44.03222" lon="1.70785">
        <ele>348</ele>
        <time>2011-06-26T15:26:31Z</time>
      </trkpt>
      <trkpt lat="44.03217" lon="1.70781">
        <ele>348</ele>
        <time>2011-06-26T15:26:33Z</time>
      </trkpt>
      <trkpt lat="44.03213" lon="1.70776">
        <ele>348</ele>
        <time>2011-06-26T15:26:35Z</time>
      </trkpt>
      <trkpt lat="44.03208" lon="1.70771">
        <ele>348</ele>
        <time>2011-06-26T15:26:37Z</time>
      </trkpt>
      <trkpt lat="44.03203" lon="1.70767">
        <ele>348</ele>
        <time>2011-06-26T15:26:39Z</time>
      </trkpt>
      <trkpt lat="44.03199" lon="1.70763">
        <ele>348</ele>
        <time>2011-06-26T15:26:41Z</time>
      </trkpt>
      <trkpt lat="44.03194" lon="1.70757">
        <ele>348</ele>
        <time>2011-06-26T15:26:43Z</time>
      </trkpt>
      <trkpt lat="44.0319" lon="1.70753">
        <ele>348</ele>
        <time>2011-06-26T15:26:45Z</time>
      </trkpt>
      <trkpt lat="44.03186" lon="1.70748">
        <ele>348</ele>
        <time>2011-06-26T15:26:47Z</time>
      </trkpt>
      <trkpt lat="44.03181" lon="1.70743">
        <ele>348</ele>
        <time>2011-06-26T15:26:49Z</time>
      </trkpt>
      <trkpt lat="44.03176" lon="1.70739">
        <ele>348</ele>
        <time>2011-06-26T15:26:51Z</time>
      </trkpt>
      <trkpt lat="44.03171" lon="1.70733">
        <ele>348</ele>
        <time>2011-06-26T15:26:53Z</time>
      </trkpt>
      <trkpt lat="44.03165" lon="1.70727">
        <ele>348</ele>
        <time>2011-06-26T15:26:55Z</time>
      </trkpt>
      <trkpt lat="44.03159" lon="1.7072">
        <ele>348</ele>
        <time>2011-06-26T15:26:57Z</time>
      </trkpt>
      <trkpt lat="44.03154" lon="1.70713">
        <ele>348</ele>
        <time>2011-06-26T15:26:59Z</time>
      </trkpt>
      <trkpt lat="44.03148" lon="1.70705">
        <ele>348</ele>
        <time>2011-06-26T15:27:01Z</time>
      </trkpt>
      <trkpt lat="44.03141" lon="1.70697">
        <ele>348</ele>
        <time>2011-06-26T15:27:03Z</time>
      </trkpt>
      <trkpt lat="44.03133" lon="1.70688">
        <ele>348</ele>
        <time>2011-06-26T15:27:05Z</time>
      </trkpt>
      <trkpt lat="44.03125" lon="1.70681">
        <ele>348</ele>
        <time>2011-06-26T15:27:07Z</time>
      </trkpt>
      <trkpt lat="44.03118" lon="1.70675">
        <ele>347</ele>
        <time>2011-06-26T15:27:09Z</time>
      </trkpt>
      <trkpt lat="44.03111" lon="1.70666">
        <ele>346</ele>
        <time>2011-06-26T15:27:11Z</time>
      </trkpt>
      <trkpt lat="44.03105" lon="1.70655">
        <ele>345</ele>
        <time>2011-06-26T15:27:13Z</time>
      </trkpt>
      <trkpt lat="44.03101" lon="1.70644">
        <ele>344</ele>
        <time>2011-06-26T15:27:15Z</time>
      </trkpt>
      <trkpt lat="44.03096" lon="1.70632">
        <ele>343</ele>
        <time>2011-06-26T15:27:17Z</time>
      </trkpt>
      <trkpt lat="44.03088" lon="1.70622">
        <ele>343</ele>
        <time>2011-06-26T15:27:19Z</time>
      </trkpt>
      <trkpt lat="44.0308" lon="1.70615">
        <ele>342</ele>
        <time>2011-06-26T15:27:21Z</time>
      </trkpt>
      <trkpt lat="44.0307" lon="1.70609">
        <ele>342</ele>
        <time>2011-06-26T15:27:23Z</time>
      </trkpt>
      <trkpt lat="44.03062" lon="1.70602">
        <ele>342</ele>
        <time>2011-06-26T15:27:25Z</time>
      </trkpt>
      <trkpt lat="44.03052" lon="1.70596">
        <ele>342</ele>
        <time>2011-06-26T15:27:27Z</time>
      </trkpt>
      <trkpt lat="44.03043" lon="1.70587">
        <ele>342</ele>
        <time>2011-06-26T15:27:29Z</time>
      </trkpt>
      <trkpt lat="44.03038" lon="1.70581">
        <ele>342</ele>
        <time>2011-06-26T15:27:31Z</time>
      </trkpt>
      <trkpt lat="44.03036" lon="1.7058">
        <ele>342</ele>
        <time>2011-06-26T15:27:33Z</time>
      </trkpt>
      <trkpt lat="44.03035" lon="1.70579">
        <ele>342</ele>
        <time>2011-06-26T15:27:35Z</time>
      </trkpt>
      <trkpt lat="44.03036" lon="1.7058">
        <ele>343</ele>
        <time>2011-06-26T15:27:39Z</time>
      </trkpt>
      <trkpt lat="44.03039" lon="1.70582">
        <ele>343</ele>
        <time>2011-06-26T15:27:41Z</time>
      </trkpt>
      <trkpt lat="44.03042" lon="1.70583">
        <ele>343</ele>
        <time>2011-06-26T15:27:43Z</time>
      </trkpt>
      <trkpt lat="44.03041" lon="1.70585">
        <ele>343</ele>
        <time>2011-06-26T15:27:47Z</time>
      </trkpt>
      <trkpt lat="44.03039" lon="1.70585">
        <ele>343</ele>
        <time>2011-06-26T15:27:50Z</time>
      </trkpt>
      <trkpt lat="44.03038" lon="1.70584">
        <ele>343</ele>
        <time>2011-06-26T15:27:52Z</time>
      </trkpt>
      <trkpt lat="44.03038" lon="1.70582">
        <ele>343</ele>
        <time>2011-06-26T15:27:54Z</time>
      </trkpt>
      <trkpt lat="44.03038" lon="1.70583">
        <ele>343</ele>
        <time>2011-06-26T15:27:57Z</time>
      </trkpt>
      <trkpt lat="44.03036" lon="1.70584">
        <ele>343</ele>
        <time>2011-06-26T15:28:05Z</time>
      </trkpt>
      <trkpt lat="44.03036" lon="1.70583">
        <ele>343</ele>
        <time>2011-06-26T15:28:08Z</time>
      </trkpt>
      <trkpt lat="44.03036" lon="1.70581">
        <ele>343</ele>
        <time>2011-06-26T15:28:12Z</time>
      </trkpt>
      <trkpt lat="44.03032" lon="1.70577">
        <ele>343</ele>
        <time>2011-06-26T15:28:14Z</time>
      </trkpt>
      <trkpt lat="44.03028" lon="1.70572">
        <ele>343</ele>
        <time>2011-06-26T15:28:16Z</time>
      </trkpt>
      <trkpt lat="44.03022" lon="1.70565">
        <ele>343</ele>
        <time>2011-06-26T15:28:18Z</time>
      </trkpt>
      <trkpt lat="44.03016" lon="1.70558">
        <ele>343</ele>
        <time>2011-06-26T15:28:20Z</time>
      </trkpt>
      <trkpt lat="44.03011" lon="1.70549">
        <ele>343</ele>
        <time>2011-06-26T15:28:22Z</time>
      </trkpt>
      <trkpt lat="44.03004" lon="1.70543">
        <ele>342</ele>
        <time>2011-06-26T15:28:24Z</time>
      </trkpt>
      <trkpt lat="44.02996" lon="1.70537">
        <ele>340</ele>
        <time>2011-06-26T15:28:26Z</time>
      </trkpt>
      <trkpt lat="44.02988" lon="1.7053">
        <ele>339</ele>
        <time>2011-06-26T15:28:28Z</time>
      </trkpt>
      <trkpt lat="44.02981" lon="1.70523">
        <ele>337</ele>
        <time>2011-06-26T15:28:30Z</time>
      </trkpt>
      <trkpt lat="44.02974" lon="1.70515">
        <ele>335</ele>
        <time>2011-06-26T15:28:32Z</time>
      </trkpt>
      <trkpt lat="44.02968" lon="1.70505">
        <ele>333</ele>
        <time>2011-06-26T15:28:34Z</time>
      </trkpt>
      <trkpt lat="44.02961" lon="1.70495">
        <ele>331</ele>
        <time>2011-06-26T15:28:36Z</time>
      </trkpt>
      <trkpt lat="44.02956" lon="1.70487">
        <ele>330</ele>
        <time>2011-06-26T15:28:38Z</time>
      </trkpt>
      <trkpt lat="44.02952" lon="1.70483">
        <ele>329</ele>
        <time>2011-06-26T15:28:40Z</time>
      </trkpt>
      <trkpt lat="44.02948" lon="1.70475">
        <ele>328</ele>
        <time>2011-06-26T15:28:42Z</time>
      </trkpt>
      <trkpt lat="44.02946" lon="1.70463">
        <ele>327</ele>
        <time>2011-06-26T15:28:44Z</time>
      </trkpt>
      <trkpt lat="44.02944" lon="1.70453">
        <ele>327</ele>
        <time>2011-06-26T15:28:46Z</time>
      </trkpt>
      <trkpt lat="44.02943" lon="1.70445">
        <ele>327</ele>
        <time>2011-06-26T15:28:48Z</time>
      </trkpt>
      <trkpt lat="44.02941" lon="1.70436">
        <ele>327</ele>
        <time>2011-06-26T15:28:50Z</time>
      </trkpt>
      <trkpt lat="44.02938" lon="1.70428">
        <ele>327</ele>
        <time>2011-06-26T15:28:52Z</time>
      </trkpt>
      <trkpt lat="44.02936" lon="1.70421">
        <ele>327</ele>
        <time>2011-06-26T15:28:54Z</time>
      </trkpt>
      <trkpt lat="44.02932" lon="1.70413">
        <ele>327</ele>
        <time>2011-06-26T15:28:56Z</time>
      </trkpt>
      <trkpt lat="44.02928" lon="1.70405">
        <ele>328</ele>
        <time>2011-06-26T15:28:58Z</time>
      </trkpt>
      <trkpt lat="44.02923" lon="1.70398">
        <ele>329</ele>
        <time>2011-06-26T15:29:00Z</time>
      </trkpt>
      <trkpt lat="44.02919" lon="1.70389">
        <ele>330</ele>
        <time>2011-06-26T15:29:02Z</time>
      </trkpt>
      <trkpt lat="44.02915" lon="1.70379">
        <ele>331</ele>
        <time>2011-06-26T15:29:04Z</time>
      </trkpt>
      <trkpt lat="44.02911" lon="1.70369">
        <ele>331</ele>
        <time>2011-06-26T15:29:06Z</time>
      </trkpt>
      <trkpt lat="44.02906" lon="1.70359">
        <ele>331</ele>
        <time>2011-06-26T15:29:08Z</time>
      </trkpt>
      <trkpt lat="44.02903" lon="1.70349">
        <ele>331</ele>
        <time>2011-06-26T15:29:10Z</time>
      </trkpt>
      <trkpt lat="44.02899" lon="1.70338">
        <ele>331</ele>
        <time>2011-06-26T15:29:12Z</time>
      </trkpt>
      <trkpt lat="44.02894" lon="1.70328">
        <ele>331</ele>
        <time>2011-06-26T15:29:14Z</time>
      </trkpt>
      <trkpt lat="44.02888" lon="1.7032">
        <ele>330</ele>
        <time>2011-06-26T15:29:16Z</time>
      </trkpt>
      <trkpt lat="44.02881" lon="1.70314">
        <ele>330</ele>
        <time>2011-06-26T15:29:18Z</time>
      </trkpt>
      <trkpt lat="44.02871" lon="1.70311">
        <ele>330</ele>
        <time>2011-06-26T15:29:20Z</time>
      </trkpt>
      <trkpt lat="44.02861" lon="1.70311">
        <ele>329</ele>
        <time>2011-06-26T15:29:22Z</time>
      </trkpt>
      <trkpt lat="44.02851" lon="1.70313">
        <ele>329</ele>
        <time>2011-06-26T15:29:24Z</time>
      </trkpt>
      <trkpt lat="44.02841" lon="1.70314">
        <ele>328</ele>
        <time>2011-06-26T15:29:26Z</time>
      </trkpt>
      <trkpt lat="44.02833" lon="1.70318">
        <ele>327</ele>
        <time>2011-06-26T15:29:28Z</time>
      </trkpt>
      <trkpt lat="44.02827" lon="1.70324">
        <ele>325</ele>
        <time>2011-06-26T15:29:30Z</time>
      </trkpt>
      <trkpt lat="44.02821" lon="1.70329">
        <ele>323</ele>
        <time>2011-06-26T15:29:32Z</time>
      </trkpt>
      <trkpt lat="44.02816" lon="1.70332">
        <ele>321</ele>
        <time>2011-06-26T15:29:34Z</time>
      </trkpt>
      <trkpt lat="44.02812" lon="1.70333">
        <ele>319</ele>
        <time>2011-06-26T15:29:36Z</time>
      </trkpt>
      <trkpt lat="44.02809" lon="1.70334">
        <ele>317</ele>
        <time>2011-06-26T15:29:38Z</time>
      </trkpt>
      <trkpt lat="44.02807" lon="1.70334">
        <ele>315</ele>
        <time>2011-06-26T15:29:40Z</time>
      </trkpt>
      <trkpt lat="44.02805" lon="1.70333">
        <ele>314</ele>
        <time>2011-06-26T15:29:42Z</time>
      </trkpt>
      <trkpt lat="44.02804" lon="1.70331">
        <ele>313</ele>
        <time>2011-06-26T15:29:44Z</time>
      </trkpt>
      <trkpt lat="44.028" lon="1.70329">
        <ele>311</ele>
        <time>2011-06-26T15:29:47Z</time>
      </trkpt>
      <trkpt lat="44.02797" lon="1.70332">
        <ele>309</ele>
        <time>2011-06-26T15:29:49Z</time>
      </trkpt>
      <trkpt lat="44.02794" lon="1.70334">
        <ele>308</ele>
        <time>2011-06-26T15:29:51Z</time>
      </trkpt>
      <trkpt lat="44.0279" lon="1.70335">
        <ele>307</ele>
        <time>2011-06-26T15:29:53Z</time>
      </trkpt>
      <trkpt lat="44.02785" lon="1.70336">
        <ele>306</ele>
        <time>2011-06-26T15:29:55Z</time>
      </trkpt>
      <trkpt lat="44.0278" lon="1.70339">
        <ele>305</ele>
        <time>2011-06-26T15:29:57Z</time>
      </trkpt>
      <trkpt lat="44.02774" lon="1.70343">
        <ele>304</ele>
        <time>2011-06-26T15:29:59Z</time>
      </trkpt>
      <trkpt lat="44.02769" lon="1.70347">
        <ele>303</ele>
        <time>2011-06-26T15:30:01Z</time>
      </trkpt>
      <trkpt lat="44.02764" lon="1.70352">
        <ele>302</ele>
        <time>2011-06-26T15:30:03Z</time>
      </trkpt>
      <trkpt lat="44.02758" lon="1.70355">
        <ele>300</ele>
        <time>2011-06-26T15:30:05Z</time>
      </trkpt>
      <trkpt lat="44.02753" lon="1.7036">
        <ele>299</ele>
        <time>2011-06-26T15:30:07Z</time>
      </trkpt>
      <trkpt lat="44.02749" lon="1.70363">
        <ele>298</ele>
        <time>2011-06-26T15:30:09Z</time>
      </trkpt>
      <trkpt lat="44.02745" lon="1.70366">
        <ele>298</ele>
        <time>2011-06-26T15:30:11Z</time>
      </trkpt>
      <trkpt lat="44.0274" lon="1.70371">
        <ele>298</ele>
        <time>2011-06-26T15:30:13Z</time>
      </trkpt>
      <trkpt lat="44.02735" lon="1.70377">
        <ele>298</ele>
        <time>2011-06-26T15:30:15Z</time>
      </trkpt>
      <trkpt lat="44.02729" lon="1.70381">
        <ele>297</ele>
        <time>2011-06-26T15:30:17Z</time>
      </trkpt>
      <trkpt lat="44.02723" lon="1.70384">
        <ele>296</ele>
        <time>2011-06-26T15:30:19Z</time>
      </trkpt>
      <trkpt lat="44.02715" lon="1.70387">
        <ele>296</ele>
        <time>2011-06-26T15:30:21Z</time>
      </trkpt>
      <trkpt lat="44.02709" lon="1.70391">
        <ele>294</ele>
        <time>2011-06-26T15:30:23Z</time>
      </trkpt>
      <trkpt lat="44.02701" lon="1.70395">
        <ele>293</ele>
        <time>2011-06-26T15:30:25Z</time>
      </trkpt>
      <trkpt lat="44.02692" lon="1.70398">
        <ele>291</ele>
        <time>2011-06-26T15:30:27Z</time>
      </trkpt>
      <trkpt lat="44.02683" lon="1.70399">
        <ele>289</ele>
        <time>2011-06-26T15:30:29Z</time>
      </trkpt>
      <trkpt lat="44.02676" lon="1.70399">
        <ele>287</ele>
        <time>2011-06-26T15:30:31Z</time>
      </trkpt>
      <trkpt lat="44.02671" lon="1.70394">
        <ele>286</ele>
        <time>2011-06-26T15:30:33Z</time>
      </trkpt>
      <trkpt lat="44.02669" lon="1.70385">
        <ele>284</ele>
        <time>2011-06-26T15:30:35Z</time>
      </trkpt>
      <trkpt lat="44.0267" lon="1.70373">
        <ele>282</ele>
        <time>2011-06-26T15:30:37Z</time>
      </trkpt>
      <trkpt lat="44.02674" lon="1.70363">
        <ele>281</ele>
        <time>2011-06-26T15:30:39Z</time>
      </trkpt>
      <trkpt lat="44.0268" lon="1.70357">
        <ele>281</ele>
        <time>2011-06-26T15:30:41Z</time>
      </trkpt>
      <trkpt lat="44.02687" lon="1.70352">
        <ele>281</ele>
        <time>2011-06-26T15:30:43Z</time>
      </trkpt>
      <trkpt lat="44.02695" lon="1.70346">
        <ele>280</ele>
        <time>2011-06-26T15:30:45Z</time>
      </trkpt>
      <trkpt lat="44.02702" lon="1.70338">
        <ele>279</ele>
        <time>2011-06-26T15:30:47Z</time>
      </trkpt>
      <trkpt lat="44.02705" lon="1.70329">
        <ele>278</ele>
        <time>2011-06-26T15:30:49Z</time>
      </trkpt>
      <trkpt lat="44.02706" lon="1.70318">
        <ele>277</ele>
        <time>2011-06-26T15:30:51Z</time>
      </trkpt>
      <trkpt lat="44.02704" lon="1.70312">
        <ele>276</ele>
        <time>2011-06-26T15:30:53Z</time>
      </trkpt>
      <trkpt lat="44.02701" lon="1.70311">
        <ele>276</ele>
        <time>2011-06-26T15:30:55Z</time>
      </trkpt>
      <trkpt lat="44.02696" lon="1.7031">
        <ele>276</ele>
        <time>2011-06-26T15:30:57Z</time>
      </trkpt>
      <trkpt lat="44.02692" lon="1.70309">
        <ele>276</ele>
        <time>2011-06-26T15:30:59Z</time>
      </trkpt>
      <trkpt lat="44.02689" lon="1.70309">
        <ele>276</ele>
        <time>2011-06-26T15:31:01Z</time>
      </trkpt>
      <trkpt lat="44.02688" lon="1.70309">
        <ele>276</ele>
        <time>2011-06-26T15:31:03Z</time>
      </trkpt>
      <trkpt lat="44.02687" lon="1.70311">
        <ele>277</ele>
        <time>2011-06-26T15:31:06Z</time>
      </trkpt>
      <trkpt lat="44.02688" lon="1.70309">
        <ele>279</ele>
        <time>2011-06-26T15:31:12Z</time>
      </trkpt>
      <trkpt lat="44.02687" lon="1.70311">
        <ele>280</ele>
        <time>2011-06-26T15:31:15Z</time>
      </trkpt>
      <trkpt lat="44.02686" lon="1.70311">
        <ele>282</ele>
        <time>2011-06-26T15:31:18Z</time>
      </trkpt>
      <trkpt lat="44.02685" lon="1.70312">
        <ele>286</ele>
        <time>2011-06-26T15:31:25Z</time>
      </trkpt>
      <trkpt lat="44.02687" lon="1.70313">
        <ele>290</ele>
        <time>2011-06-26T15:31:29Z</time>
      </trkpt>
      <trkpt lat="44.02687" lon="1.70311">
        <ele>291</ele>
        <time>2011-06-26T15:31:32Z</time>
      </trkpt>
      <trkpt lat="44.02686" lon="1.70312">
        <ele>291</ele>
        <time>2011-06-26T15:31:41Z</time>
      </trkpt>
      <trkpt lat="44.02685" lon="1.7031">
        <ele>291</ele>
        <time>2011-06-26T15:31:43Z</time>
      </trkpt>
      <trkpt lat="44.02683" lon="1.70309">
        <ele>291</ele>
        <time>2011-06-26T15:31:45Z</time>
      </trkpt>
      <trkpt lat="44.02679" lon="1.70308">
        <ele>290</ele>
        <time>2011-06-26T15:31:47Z</time>
      </trkpt>
      <trkpt lat="44.02675" lon="1.70306">
        <ele>289</ele>
        <time>2011-06-26T15:31:49Z</time>
      </trkpt>
      <trkpt lat="44.0267" lon="1.70304">
        <ele>289</ele>
        <time>2011-06-26T15:31:51Z</time>
      </trkpt>
      <trkpt lat="44.02664" lon="1.703">
        <ele>288</ele>
        <time>2011-06-26T15:31:53Z</time>
      </trkpt>
      <trkpt lat="44.02658" lon="1.70298">
        <ele>287</ele>
        <time>2011-06-26T15:31:55Z</time>
      </trkpt>
      <trkpt lat="44.02651" lon="1.70294">
        <ele>285</ele>
        <time>2011-06-26T15:31:57Z</time>
      </trkpt>
      <trkpt lat="44.02646" lon="1.70291">
        <ele>284</ele>
        <time>2011-06-26T15:31:59Z</time>
      </trkpt>
      <trkpt lat="44.02643" lon="1.70291">
        <ele>283</ele>
        <time>2011-06-26T15:32:03Z</time>
      </trkpt>
      <trkpt lat="44.02643" lon="1.70289">
        <ele>283</ele>
        <time>2011-06-26T15:32:07Z</time>
      </trkpt>
      <trkpt lat="44.02642" lon="1.70287">
        <ele>282</ele>
        <time>2011-06-26T15:32:11Z</time>
      </trkpt>
      <trkpt lat="44.02643" lon="1.70289">
        <ele>281</ele>
        <time>2011-06-26T15:32:13Z</time>
      </trkpt>
      <trkpt lat="44.02645" lon="1.70288">
        <ele>277</ele>
        <time>2011-06-26T15:32:19Z</time>
      </trkpt>
      <trkpt lat="44.02646" lon="1.70287">
        <ele>277</ele>
        <time>2011-06-26T15:32:22Z</time>
      </trkpt>
      <trkpt lat="44.02646" lon="1.70289">
        <ele>277</ele>
        <time>2011-06-26T15:32:24Z</time>
      </trkpt>
      <trkpt lat="44.02647" lon="1.70291">
        <ele>277</ele>
        <time>2011-06-26T15:32:27Z</time>
      </trkpt>
      <trkpt lat="44.02647" lon="1.70292">
        <ele>277</ele>
        <time>2011-06-26T15:32:30Z</time>
      </trkpt>
      <trkpt lat="44.02647" lon="1.70291">
        <ele>277</ele>
        <time>2011-06-26T15:32:36Z</time>
      </trkpt>
      <trkpt lat="44.02645" lon="1.70291">
        <ele>277</ele>
        <time>2011-06-26T15:32:39Z</time>
      </trkpt>
      <trkpt lat="44.02642" lon="1.70292">
        <ele>277</ele>
        <time>2011-06-26T15:32:42Z</time>
      </trkpt>
      <trkpt lat="44.02641" lon="1.70291">
        <ele>279</ele>
        <time>2011-06-26T15:32:45Z</time>
      </trkpt>
      <trkpt lat="44.02641" lon="1.70293">
        <ele>281</ele>
        <time>2011-06-26T15:32:51Z</time>
      </trkpt>
      <trkpt lat="44.02641" lon="1.70294">
        <ele>283</ele>
        <time>2011-06-26T15:32:56Z</time>
      </trkpt>
      <trkpt lat="44.02641" lon="1.70296">
        <ele>284</ele>
        <time>2011-06-26T15:33:01Z</time>
      </trkpt>
      <trkpt lat="44.02641" lon="1.70294">
        <ele>284</ele>
        <time>2011-06-26T15:33:06Z</time>
      </trkpt>
      <trkpt lat="44.02642" lon="1.70296">
        <ele>284</ele>
        <time>2011-06-26T15:33:10Z</time>
      </trkpt>
      <trkpt lat="44.02644" lon="1.70296">
        <ele>284</ele>
        <time>2011-06-26T15:33:12Z</time>
      </trkpt>
      <trkpt lat="44.02643" lon="1.70293">
        <ele>284</ele>
        <time>2011-06-26T15:33:15Z</time>
      </trkpt>
      <trkpt lat="44.02643" lon="1.7029">
        <ele>283</ele>
        <time>2011-06-26T15:33:18Z</time>
      </trkpt>
      <trkpt lat="44.02644" lon="1.70291">
        <ele>280</ele>
        <time>2011-06-26T15:33:22Z</time>
      </trkpt>
      <trkpt lat="44.02644" lon="1.70293">
        <ele>280</ele>
        <time>2011-06-26T15:33:24Z</time>
      </trkpt>
      <trkpt lat="44.02645" lon="1.70293">
        <ele>280</ele>
        <time>2011-06-26T15:33:30Z</time>
      </trkpt>
      <trkpt lat="44.02645" lon="1.70295">
        <ele>280</ele>
        <time>2011-06-26T15:33:32Z</time>
      </trkpt>
      <trkpt lat="44.02644" lon="1.70296">
        <ele>280</ele>
        <time>2011-06-26T15:33:35Z</time>
      </trkpt>
      <trkpt lat="44.02644" lon="1.70297">
        <ele>280</ele>
        <time>2011-06-26T15:33:39Z</time>
      </trkpt>
      <trkpt lat="44.02645" lon="1.70297">
        <ele>280</ele>
        <time>2011-06-26T15:33:43Z</time>
      </trkpt>
      <trkpt lat="44.02645" lon="1.70295">
        <ele>280</ele>
        <time>2011-06-26T15:33:45Z</time>
      </trkpt>
      <trkpt lat="44.02646" lon="1.70292">
        <ele>278</ele>
        <time>2011-06-26T15:33:50Z</time>
      </trkpt>
      <trkpt lat="44.02647" lon="1.7029">
        <ele>277</ele>
        <time>2011-06-26T15:33:52Z</time>
      </trkpt>
      <trkpt lat="44.02648" lon="1.70289">
        <ele>276</ele>
        <time>2011-06-26T15:33:54Z</time>
      </trkpt>
      <trkpt lat="44.02649" lon="1.70288">
        <ele>273</ele>
        <time>2011-06-26T15:33:57Z</time>
      </trkpt>
      <trkpt lat="44.02648" lon="1.70286">
        <ele>270</ele>
        <time>2011-06-26T15:34:00Z</time>
      </trkpt>
      <trkpt lat="44.02647" lon="1.70286">
        <ele>269</ele>
        <time>2011-06-26T15:34:03Z</time>
      </trkpt>
      <trkpt lat="44.02648" lon="1.70285">
        <ele>269</ele>
        <time>2011-06-26T15:34:09Z</time>
      </trkpt>
      <trkpt lat="44.02648" lon="1.70282">
        <ele>269</ele>
        <time>2011-06-26T15:34:12Z</time>
      </trkpt>
      <trkpt lat="44.02647" lon="1.70281">
        <ele>268</ele>
        <time>2011-06-26T15:34:15Z</time>
      </trkpt>
      <trkpt lat="44.02647" lon="1.70282">
        <ele>266</ele>
        <time>2011-06-26T15:34:21Z</time>
      </trkpt>
      <trkpt lat="44.02649" lon="1.70284">
        <ele>266</ele>
        <time>2011-06-26T15:34:23Z</time>
      </trkpt>
      <trkpt lat="44.02649" lon="1.70287">
        <ele>266</ele>
        <time>2011-06-26T15:34:25Z</time>
      </trkpt>
      <trkpt lat="44.02647" lon="1.70289">
        <ele>267</ele>
        <time>2011-06-26T15:34:28Z</time>
      </trkpt>
      <trkpt lat="44.02644" lon="1.70293">
        <ele>270</ele>
        <time>2011-06-26T15:34:32Z</time>
      </trkpt>
      <trkpt lat="44.02642" lon="1.70294">
        <ele>272</ele>
        <time>2011-06-26T15:34:34Z</time>
      </trkpt>
      <trkpt lat="44.02642" lon="1.70293">
        <ele>276</ele>
        <time>2011-06-26T15:34:38Z</time>
      </trkpt>
      <trkpt lat="44.02641" lon="1.70291">
        <ele>279</ele>
        <time>2011-06-26T15:34:44Z</time>
      </trkpt>
      <trkpt lat="44.02643" lon="1.70291">
        <ele>280</ele>
        <time>2011-06-26T15:34:48Z</time>
      </trkpt>
      <trkpt lat="44.02644" lon="1.70293">
        <ele>280</ele>
        <time>2011-06-26T15:34:50Z</time>
      </trkpt>
      <trkpt lat="44.02643" lon="1.70291">
        <ele>281</ele>
        <time>2011-06-26T15:34:55Z</time>
      </trkpt>
      <trkpt lat="44.02642" lon="1.70291">
        <ele>281</ele>
        <time>2011-06-26T15:34:57Z</time>
      </trkpt>
      <trkpt lat="44.0264" lon="1.70289">
        <ele>282</ele>
        <time>2011-06-26T15:34:59Z</time>
      </trkpt>
      <trkpt lat="44.02639" lon="1.70286">
        <ele>283</ele>
        <time>2011-06-26T15:35:01Z</time>
      </trkpt>
      <trkpt lat="44.02637" lon="1.70285">
        <ele>283</ele>
        <time>2011-06-26T15:35:03Z</time>
      </trkpt>
      <trkpt lat="44.02634" lon="1.70284">
        <ele>283</ele>
        <time>2011-06-26T15:35:05Z</time>
      </trkpt>
      <trkpt lat="44.02631" lon="1.70281">
        <ele>283</ele>
        <time>2011-06-26T15:35:07Z</time>
      </trkpt>
      <trkpt lat="44.02628" lon="1.70279">
        <ele>283</ele>
        <time>2011-06-26T15:35:09Z</time>
      </trkpt>
      <trkpt lat="44.02624" lon="1.70276">
        <ele>283</ele>
        <time>2011-06-26T15:35:11Z</time>
      </trkpt>
      <trkpt lat="44.02621" lon="1.70273">
        <ele>283</ele>
        <time>2011-06-26T15:35:13Z</time>
      </trkpt>
      <trkpt lat="44.02617" lon="1.70269">
        <ele>281</ele>
        <time>2011-06-26T15:35:15Z</time>
      </trkpt>
      <trkpt lat="44.02613" lon="1.70265">
        <ele>279</ele>
        <time>2011-06-26T15:35:17Z</time>
      </trkpt>
      <trkpt lat="44.02608" lon="1.70263">
        <ele>278</ele>
        <time>2011-06-26T15:35:19Z</time>
      </trkpt>
      <trkpt lat="44.02603" lon="1.70258">
        <ele>278</ele>
        <time>2011-06-26T15:35:21Z</time>
      </trkpt>
      <trkpt lat="44.02599" lon="1.70254">
        <ele>277</ele>
        <time>2011-06-26T15:35:23Z</time>
      </trkpt>
      <trkpt lat="44.02594" lon="1.70252">
        <ele>277</ele>
        <time>2011-06-26T15:35:25Z</time>
      </trkpt>
      <trkpt lat="44.0259" lon="1.70248">
        <ele>277</ele>
        <time>2011-06-26T15:35:27Z</time>
      </trkpt>
      <trkpt lat="44.02585" lon="1.70245">
        <ele>277</ele>
        <time>2011-06-26T15:35:29Z</time>
      </trkpt>
      <trkpt lat="44.0258" lon="1.70241">
        <ele>276</ele>
        <time>2011-06-26T15:35:31Z</time>
      </trkpt>
      <trkpt lat="44.02575" lon="1.70236">
        <ele>276</ele>
        <time>2011-06-26T15:35:33Z</time>
      </trkpt>
      <trkpt lat="44.02571" lon="1.70232">
        <ele>276</ele>
        <time>2011-06-26T15:35:35Z</time>
      </trkpt>
      <trkpt lat="44.02567" lon="1.70228">
        <ele>276</ele>
        <time>2011-06-26T15:35:37Z</time>
      </trkpt>
      <trkpt lat="44.02563" lon="1.70224">
        <ele>276</ele>
        <time>2011-06-26T15:35:39Z</time>
      </trkpt>
      <trkpt lat="44.02559" lon="1.7022">
        <ele>276</ele>
        <time>2011-06-26T15:35:41Z</time>
      </trkpt>
      <trkpt lat="44.02556" lon="1.70217">
        <ele>276</ele>
        <time>2011-06-26T15:35:43Z</time>
      </trkpt>
      <trkpt lat="44.02552" lon="1.70215">
        <ele>276</ele>
        <time>2011-06-26T15:35:45Z</time>
      </trkpt>
      <trkpt lat="44.0255" lon="1.70215">
        <ele>276</ele>
        <time>2011-06-26T15:35:48Z</time>
      </trkpt>
      <trkpt lat="44.02548" lon="1.70215">
        <ele>276</ele>
        <time>2011-06-26T15:35:50Z</time>
      </trkpt>
      <trkpt lat="44.02547" lon="1.70213">
        <ele>276</ele>
        <time>2011-06-26T15:35:52Z</time>
      </trkpt>
      <trkpt lat="44.02545" lon="1.70212">
        <ele>276</ele>
        <time>2011-06-26T15:35:54Z</time>
      </trkpt>
      <trkpt lat="44.02542" lon="1.70211">
        <ele>276</ele>
        <time>2011-06-26T15:35:56Z</time>
      </trkpt>
      <trkpt lat="44.0254" lon="1.7021">
        <ele>276</ele>
        <time>2011-06-26T15:35:58Z</time>
      </trkpt>
      <trkpt lat="44.02537" lon="1.70209">
        <ele>276</ele>
        <time>2011-06-26T15:36:01Z</time>
      </trkpt>
      <trkpt lat="44.02534" lon="1.70209">
        <ele>276</ele>
        <time>2011-06-26T15:36:03Z</time>
      </trkpt>
      <trkpt lat="44.02533" lon="1.70209">
        <ele>276</ele>
        <time>2011-06-26T15:36:05Z</time>
      </trkpt>
      <trkpt lat="44.02531" lon="1.70209">
        <ele>276</ele>
        <time>2011-06-26T15:36:07Z</time>
      </trkpt>
      <trkpt lat="44.02529" lon="1.70208">
        <ele>276</ele>
        <time>2011-06-26T15:36:09Z</time>
      </trkpt>
      <trkpt lat="44.02527" lon="1.70208">
        <ele>276</ele>
        <time>2011-06-26T15:36:11Z</time>
      </trkpt>
      <trkpt lat="44.02524" lon="1.70207">
        <ele>276</ele>
        <time>2011-06-26T15:36:13Z</time>
      </trkpt>
      <trkpt lat="44.02521" lon="1.70207">
        <ele>276</ele>
        <time>2011-06-26T15:36:15Z</time>
      </trkpt>
      <trkpt lat="44.02518" lon="1.70206">
        <ele>275</ele>
        <time>2011-06-26T15:36:17Z</time>
      </trkpt>
      <trkpt lat="44.02516" lon="1.70204">
        <ele>275</ele>
        <time>2011-06-26T15:36:19Z</time>
      </trkpt>
      <trkpt lat="44.02514" lon="1.70204">
        <ele>274</ele>
        <time>2011-06-26T15:36:21Z</time>
      </trkpt>
      <trkpt lat="44.02512" lon="1.70203">
        <ele>274</ele>
        <time>2011-06-26T15:36:24Z</time>
      </trkpt>
      <trkpt lat="44.0251" lon="1.70201">
        <ele>274</ele>
        <time>2011-06-26T15:36:26Z</time>
      </trkpt>
      <trkpt lat="44.02506" lon="1.702">
        <ele>274</ele>
        <time>2011-06-26T15:36:28Z</time>
      </trkpt>
      <trkpt lat="44.02502" lon="1.70199">
        <ele>274</ele>
        <time>2011-06-26T15:36:30Z</time>
      </trkpt>
      <trkpt lat="44.02497" lon="1.70197">
        <ele>274</ele>
        <time>2011-06-26T15:36:32Z</time>
      </trkpt>
      <trkpt lat="44.02493" lon="1.70195">
        <ele>274</ele>
        <time>2011-06-26T15:36:34Z</time>
      </trkpt>
      <trkpt lat="44.02488" lon="1.70196">
        <ele>274</ele>
        <time>2011-06-26T15:36:36Z</time>
      </trkpt>
      <trkpt lat="44.02484" lon="1.70201">
        <ele>274</ele>
        <time>2011-06-26T15:36:38Z</time>
      </trkpt>
      <trkpt lat="44.02478" lon="1.70207">
        <ele>274</ele>
        <time>2011-06-26T15:36:40Z</time>
      </trkpt>
      <trkpt lat="44.02472" lon="1.70215">
        <ele>274</ele>
        <time>2011-06-26T15:36:42Z</time>
      </trkpt>
      <trkpt lat="44.02463" lon="1.70227">
        <ele>275</ele>
        <time>2011-06-26T15:36:44Z</time>
      </trkpt>
      <trkpt lat="44.02452" lon="1.70243">
        <ele>275</ele>
        <time>2011-06-26T15:36:46Z</time>
      </trkpt>
      <trkpt lat="44.02443" lon="1.70255">
        <ele>275</ele>
        <time>2011-06-26T15:36:48Z</time>
      </trkpt>
      <trkpt lat="44.02434" lon="1.70266">
        <ele>275</ele>
        <time>2011-06-26T15:36:50Z</time>
      </trkpt>
      <trkpt lat="44.02428" lon="1.70278">
        <ele>275</ele>
        <time>2011-06-26T15:36:52Z</time>
      </trkpt>
      <trkpt lat="44.02428" lon="1.70291">
        <ele>275</ele>
        <time>2011-06-26T15:36:54Z</time>
      </trkpt>
      <trkpt lat="44.02433" lon="1.70303">
        <ele>275</ele>
        <time>2011-06-26T15:36:56Z</time>
      </trkpt>
      <trkpt lat="44.02441" lon="1.70311">
        <ele>275</ele>
        <time>2011-06-26T15:36:58Z</time>
      </trkpt>
      <trkpt lat="44.02451" lon="1.70317">
        <ele>275</ele>
        <time>2011-06-26T15:37:00Z</time>
      </trkpt>
      <trkpt lat="44.02462" lon="1.70318">
        <ele>275</ele>
        <time>2011-06-26T15:37:02Z</time>
      </trkpt>
      <trkpt lat="44.02473" lon="1.70318">
        <ele>275</ele>
        <time>2011-06-26T15:37:04Z</time>
      </trkpt>
      <trkpt lat="44.02485" lon="1.70318">
        <ele>273</ele>
        <time>2011-06-26T15:37:06Z</time>
      </trkpt>
      <trkpt lat="44.02495" lon="1.70316">
        <ele>271</ele>
        <time>2011-06-26T15:37:08Z</time>
      </trkpt>
      <trkpt lat="44.02504" lon="1.70318">
        <ele>269</ele>
        <time>2011-06-26T15:37:10Z</time>
      </trkpt>
      <trkpt lat="44.02513" lon="1.70324">
        <ele>267</ele>
        <time>2011-06-26T15:37:12Z</time>
      </trkpt>
      <trkpt lat="44.02521" lon="1.70331">
        <ele>265</ele>
        <time>2011-06-26T15:37:14Z</time>
      </trkpt>
      <trkpt lat="44.02529" lon="1.7034">
        <ele>263</ele>
        <time>2011-06-26T15:37:16Z</time>
      </trkpt>
      <trkpt lat="44.02535" lon="1.70346">
        <ele>261</ele>
        <time>2011-06-26T15:37:18Z</time>
      </trkpt>
      <trkpt lat="44.02539" lon="1.70354">
        <ele>259</ele>
        <time>2011-06-26T15:37:20Z</time>
      </trkpt>
      <trkpt lat="44.02544" lon="1.70362">
        <ele>257</ele>
        <time>2011-06-26T15:37:22Z</time>
      </trkpt>
      <trkpt lat="44.02544" lon="1.70366">
        <ele>256</ele>
        <time>2011-06-26T15:37:24Z</time>
      </trkpt>
      <trkpt lat="44.02541" lon="1.70368">
        <ele>255</ele>
        <time>2011-06-26T15:37:26Z</time>
      </trkpt>
      <trkpt lat="44.02534" lon="1.70368">
        <ele>254</ele>
        <time>2011-06-26T15:37:28Z</time>
      </trkpt>
      <trkpt lat="44.02524" lon="1.70367">
        <ele>252</ele>
        <time>2011-06-26T15:37:30Z</time>
      </trkpt>
      <trkpt lat="44.02515" lon="1.70367">
        <ele>250</ele>
        <time>2011-06-26T15:37:32Z</time>
      </trkpt>
      <trkpt lat="44.02511" lon="1.70369">
        <ele>248</ele>
        <time>2011-06-26T15:37:34Z</time>
      </trkpt>
      <trkpt lat="44.02509" lon="1.70375">
        <ele>246</ele>
        <time>2011-06-26T15:37:36Z</time>
      </trkpt>
      <trkpt lat="44.02508" lon="1.70381">
        <ele>244</ele>
        <time>2011-06-26T15:37:38Z</time>
      </trkpt>
      <trkpt lat="44.02507" lon="1.70388">
        <ele>243</ele>
        <time>2011-06-26T15:37:40Z</time>
      </trkpt>
      <trkpt lat="44.02506" lon="1.7039">
        <ele>243</ele>
        <time>2011-06-26T15:37:43Z</time>
      </trkpt>
      <trkpt lat="44.02506" lon="1.70391">
        <ele>243</ele>
        <time>2011-06-26T15:37:45Z</time>
      </trkpt>
      <trkpt lat="44.02505" lon="1.70393">
        <ele>244</ele>
        <time>2011-06-26T15:37:47Z</time>
      </trkpt>
      <trkpt lat="44.02504" lon="1.70395">
        <ele>246</ele>
        <time>2011-06-26T15:37:49Z</time>
      </trkpt>
      <trkpt lat="44.02504" lon="1.70392">
        <ele>249</ele>
        <time>2011-06-26T15:37:52Z</time>
      </trkpt>
      <trkpt lat="44.02502" lon="1.70393">
        <ele>251</ele>
        <time>2011-06-26T15:37:54Z</time>
      </trkpt>
      <trkpt lat="44.02503" lon="1.70393">
        <ele>254</ele>
        <time>2011-06-26T15:37:57Z</time>
      </trkpt>
      <trkpt lat="44.02503" lon="1.70395">
        <ele>256</ele>
        <time>2011-06-26T15:38:02Z</time>
      </trkpt>
      <trkpt lat="44.02502" lon="1.70395">
        <ele>256</ele>
        <time>2011-06-26T15:38:04Z</time>
      </trkpt>
      <trkpt lat="44.025" lon="1.70395">
        <ele>259</ele>
        <time>2011-06-26T15:38:07Z</time>
      </trkpt>
      <trkpt lat="44.02499" lon="1.70396">
        <ele>261</ele>
        <time>2011-06-26T15:38:10Z</time>
      </trkpt>
      <trkpt lat="44.02497" lon="1.70398">
        <ele>263</ele>
        <time>2011-06-26T15:38:13Z</time>
      </trkpt>
      <trkpt lat="44.02496" lon="1.704">
        <ele>264</ele>
        <time>2011-06-26T15:38:15Z</time>
      </trkpt>
      <trkpt lat="44.02496" lon="1.70398">
        <ele>265</ele>
        <time>2011-06-26T15:38:18Z</time>
      </trkpt>
      <trkpt lat="44.02497" lon="1.70399">
        <ele>265</ele>
        <time>2011-06-26T15:38:20Z</time>
      </trkpt>
      <trkpt lat="44.02499" lon="1.70399">
        <ele>264</ele>
        <time>2011-06-26T15:38:24Z</time>
      </trkpt>
      <trkpt lat="44.02499" lon="1.70397">
        <ele>259</ele>
        <time>2011-06-26T15:38:30Z</time>
      </trkpt>
      <trkpt lat="44.025" lon="1.70396">
        <ele>257</ele>
        <time>2011-06-26T15:38:38Z</time>
      </trkpt>
      <trkpt lat="44.02502" lon="1.70395">
        <ele>255</ele>
        <time>2011-06-26T15:38:42Z</time>
      </trkpt>
      <trkpt lat="44.02501" lon="1.70397">
        <ele>251</ele>
        <time>2011-06-26T15:38:57Z</time>
      </trkpt>
      <trkpt lat="44.02502" lon="1.70395">
        <ele>251</ele>
        <time>2011-06-26T15:39:06Z</time>
      </trkpt>
      <trkpt lat="44.02501" lon="1.70395">
        <ele>251</ele>
        <time>2011-06-26T15:39:11Z</time>
      </trkpt>
      <trkpt lat="44.02501" lon="1.70393">
        <ele>251</ele>
        <time>2011-06-26T15:39:14Z</time>
      </trkpt>
      <trkpt lat="44.02501" lon="1.70391">
        <ele>251</ele>
        <time>2011-06-26T15:39:20Z</time>
      </trkpt>
      <trkpt lat="44.02499" lon="1.7039">
        <ele>251</ele>
        <time>2011-06-26T15:39:26Z</time>
      </trkpt>
      <trkpt lat="44.02498" lon="1.70388">
        <ele>251</ele>
        <time>2011-06-26T15:39:30Z</time>
      </trkpt>
      <trkpt lat="44.02497" lon="1.7039">
        <ele>251</ele>
        <time>2011-06-26T15:39:41Z</time>
      </trkpt>
      <trkpt lat="44.02498" lon="1.7039">
        <ele>251</ele>
        <time>2011-06-26T15:39:55Z</time>
      </trkpt>
      <trkpt lat="44.02499" lon="1.70391">
        <ele>251</ele>
        <time>2011-06-26T15:40:00Z</time>
      </trkpt>
      <trkpt lat="44.02501" lon="1.70391">
        <ele>251</ele>
        <time>2011-06-26T15:40:06Z</time>
      </trkpt>
      <trkpt lat="44.02502" lon="1.7039">
        <ele>250</ele>
        <time>2011-06-26T15:40:15Z</time>
      </trkpt>
      <trkpt lat="44.02502" lon="1.70388">
        <ele>249</ele>
        <time>2011-06-26T15:40:19Z</time>
      </trkpt>
      <trkpt lat="44.02504" lon="1.70389">
        <ele>249</ele>
        <time>2011-06-26T15:40:23Z</time>
      </trkpt>
      <trkpt lat="44.02505" lon="1.70389">
        <ele>249</ele>
        <time>2011-06-26T15:40:26Z</time>
      </trkpt>
      <trkpt lat="44.02506" lon="1.70391">
        <ele>249</ele>
        <time>2011-06-26T15:40:30Z</time>
      </trkpt>
      <trkpt lat="44.02506" lon="1.70393">
        <ele>249</ele>
        <time>2011-06-26T15:40:32Z</time>
      </trkpt>
      <trkpt lat="44.02505" lon="1.70394">
        <ele>247</ele>
        <time>2011-06-26T15:40:35Z</time>
      </trkpt>
      <trkpt lat="44.02503" lon="1.70394">
        <ele>247</ele>
        <time>2011-06-26T15:40:38Z</time>
      </trkpt>
      <trkpt lat="44.02501" lon="1.70393">
        <ele>247</ele>
        <time>2011-06-26T15:40:40Z</time>
      </trkpt>
      <trkpt lat="44.02498" lon="1.70392">
        <ele>246</ele>
        <time>2011-06-26T15:40:43Z</time>
      </trkpt>
      <trkpt lat="44.02497" lon="1.70391">
        <ele>245</ele>
        <time>2011-06-26T15:40:45Z</time>
      </trkpt>
      <trkpt lat="44.02496" lon="1.70392">
        <ele>244</ele>
        <time>2011-06-26T15:40:49Z</time>
      </trkpt>
      <trkpt lat="44.02497" lon="1.70391">
        <ele>244</ele>
        <time>2011-06-26T15:40:54Z</time>
      </trkpt>
      <trkpt lat="44.02496" lon="1.70393">
        <ele>244</ele>
        <time>2011-06-26T15:41:06Z</time>
      </trkpt>
      <trkpt lat="44.02496" lon="1.70395">
        <ele>245</ele>
        <time>2011-06-26T15:41:11Z</time>
      </trkpt>
      <trkpt lat="44.02498" lon="1.70394">
        <ele>248</ele>
        <time>2011-06-26T15:41:21Z</time>
      </trkpt>
      <trkpt lat="44.02499" lon="1.70392">
        <ele>251</ele>
        <time>2011-06-26T15:41:24Z</time>
      </trkpt>
      <trkpt lat="44.025" lon="1.70391">
        <ele>255</ele>
        <time>2011-06-26T15:41:29Z</time>
      </trkpt>
      <trkpt lat="44.02499" lon="1.70389">
        <ele>257</ele>
        <time>2011-06-26T15:41:37Z</time>
      </trkpt>
      <trkpt lat="44.02498" lon="1.70389">
        <ele>255</ele>
        <time>2011-06-26T15:41:45Z</time>
      </trkpt>
      <trkpt lat="44.02497" lon="1.7039">
        <ele>254</ele>
        <time>2011-06-26T15:41:47Z</time>
      </trkpt>
      <trkpt lat="44.02496" lon="1.7039">
        <ele>254</ele>
        <time>2011-06-26T15:41:50Z</time>
      </trkpt>
      <trkpt lat="44.02496" lon="1.70392">
        <ele>254</ele>
        <time>2011-06-26T15:41:54Z</time>
      </trkpt>
      <trkpt lat="44.02495" lon="1.70394">
        <ele>253</ele>
        <time>2011-06-26T15:41:58Z</time>
      </trkpt>
      <trkpt lat="44.02495" lon="1.70395">
        <ele>249</ele>
        <time>2011-06-26T15:42:02Z</time>
      </trkpt>
      <trkpt lat="44.02495" lon="1.70397">
        <ele>246</ele>
        <time>2011-06-26T15:42:08Z</time>
      </trkpt>
      <trkpt lat="44.02495" lon="1.70398">
        <ele>246</ele>
        <time>2011-06-26T15:42:10Z</time>
      </trkpt>
      <trkpt lat="44.02494" lon="1.704">
        <ele>246</ele>
        <time>2011-06-26T15:42:12Z</time>
      </trkpt>
      <trkpt lat="44.02494" lon="1.70402">
        <ele>246</ele>
        <time>2011-06-26T15:42:14Z</time>
      </trkpt>
      <trkpt lat="44.02493" lon="1.70403">
        <ele>246</ele>
        <time>2011-06-26T15:42:16Z</time>
      </trkpt>
      <trkpt lat="44.02492" lon="1.70405">
        <ele>246</ele>
        <time>2011-06-26T15:42:18Z</time>
      </trkpt>
      <trkpt lat="44.02491" lon="1.70406">
        <ele>246</ele>
        <time>2011-06-26T15:42:22Z</time>
      </trkpt>
      <trkpt lat="44.0249" lon="1.70408">
        <ele>249</ele>
        <time>2011-06-26T15:42:26Z</time>
      </trkpt>
      <trkpt lat="44.02491" lon="1.70406">
        <ele>251</ele>
        <time>2011-06-26T15:42:30Z</time>
      </trkpt>
      <trkpt lat="44.02491" lon="1.70406">
        <ele>252</ele>
        <time>2011-06-26T15:42:34Z</time>
      </trkpt>
      <trkpt lat="44.02491" lon="1.70408">
        <ele>252</ele>
        <time>2011-06-26T15:42:39Z</time>
      </trkpt>
      <trkpt lat="44.0249" lon="1.7041">
        <ele>253</ele>
        <time>2011-06-26T15:42:41Z</time>
      </trkpt>
      <trkpt lat="44.0249" lon="1.70412">
        <ele>255</ele>
        <time>2011-06-26T15:42:43Z</time>
      </trkpt>
      <trkpt lat="44.0249" lon="1.70414">
        <ele>257</ele>
        <time>2011-06-26T15:42:45Z</time>
      </trkpt>
      <trkpt lat="44.0249" lon="1.70417">
        <ele>259</ele>
        <time>2011-06-26T15:42:47Z</time>
      </trkpt>
      <trkpt lat="44.02489" lon="1.70419">
        <ele>261</ele>
        <time>2011-06-26T15:42:49Z</time>
      </trkpt>
      <trkpt lat="44.02488" lon="1.7042">
        <ele>264</ele>
        <time>2011-06-26T15:42:52Z</time>
      </trkpt>
      <trkpt lat="44.02487" lon="1.70422">
        <ele>268</ele>
        <time>2011-06-26T15:42:56Z</time>
      </trkpt>
      <trkpt lat="44.02486" lon="1.70423">
        <ele>272</ele>
        <time>2011-06-26T15:43:00Z</time>
      </trkpt>
      <trkpt lat="44.02485" lon="1.70422">
        <ele>276</ele>
        <time>2011-06-26T15:43:04Z</time>
      </trkpt>
      <trkpt lat="44.02485" lon="1.7042">
        <ele>278</ele>
        <time>2011-06-26T15:43:06Z</time>
      </trkpt>
      <trkpt lat="44.02485" lon="1.70418">
        <ele>278</ele>
        <time>2011-06-26T15:43:08Z</time>
      </trkpt>
      <trkpt lat="44.02486" lon="1.70416">
        <ele>278</ele>
        <time>2011-06-26T15:43:10Z</time>
      </trkpt>
      <trkpt lat="44.02486" lon="1.70415">
        <ele>276</ele>
        <time>2011-06-26T15:43:14Z</time>
      </trkpt>
      <trkpt lat="44.02488" lon="1.70412">
        <ele>273</ele>
        <time>2011-06-26T15:43:17Z</time>
      </trkpt>
      <trkpt lat="44.02488" lon="1.7041">
        <ele>271</ele>
        <time>2011-06-26T15:43:19Z</time>
      </trkpt>
      <trkpt lat="44.02489" lon="1.70408">
        <ele>269</ele>
        <time>2011-06-26T15:43:21Z</time>
      </trkpt>
      <trkpt lat="44.02489" lon="1.70406">
        <ele>267</ele>
        <time>2011-06-26T15:43:23Z</time>
      </trkpt>
      <trkpt lat="44.0249" lon="1.70405">
        <ele>265</ele>
        <time>2011-06-26T15:43:25Z</time>
      </trkpt>
      <trkpt lat="44.0249" lon="1.70403">
        <ele>260</ele>
        <time>2011-06-26T15:43:30Z</time>
      </trkpt>
      <trkpt lat="44.02491" lon="1.70402">
        <ele>254</ele>
        <time>2011-06-26T15:43:36Z</time>
      </trkpt>
      <trkpt lat="44.02491" lon="1.704">
        <ele>246</ele>
        <time>2011-06-26T15:43:44Z</time>
      </trkpt>
      <trkpt lat="44.02492" lon="1.70399">
        <ele>243</ele>
        <time>2011-06-26T15:43:47Z</time>
      </trkpt>
      <trkpt lat="44.02492" lon="1.70397">
        <ele>241</ele>
        <time>2011-06-26T15:43:50Z</time>
      </trkpt>
      <trkpt lat="44.02493" lon="1.70396">
        <ele>241</ele>
        <time>2011-06-26T15:43:54Z</time>
      </trkpt>
      <trkpt lat="44.02494" lon="1.70394">
        <ele>241</ele>
        <time>2011-06-26T15:43:59Z</time>
      </trkpt>
      <trkpt lat="44.02496" lon="1.70393">
        <ele>241</ele>
        <time>2011-06-26T15:44:09Z</time>
      </trkpt>
      <trkpt lat="44.02496" lon="1.70391">
        <ele>241</ele>
        <time>2011-06-26T15:44:12Z</time>
      </trkpt>
      <trkpt lat="44.02495" lon="1.70389">
        <ele>241</ele>
        <time>2011-06-26T15:44:22Z</time>
      </trkpt>
      <trkpt lat="44.02496" lon="1.70388">
        <ele>243</ele>
        <time>2011-06-26T15:44:29Z</time>
      </trkpt>
      <trkpt lat="44.02497" lon="1.70391">
        <ele>244</ele>
        <time>2011-06-26T15:44:31Z</time>
      </trkpt>
      <trkpt lat="44.02498" lon="1.70393">
        <ele>246</ele>
        <time>2011-06-26T15:44:33Z</time>
      </trkpt>
      <trkpt lat="44.02499" lon="1.70393">
        <ele>247</ele>
        <time>2011-06-26T15:44:41Z</time>
      </trkpt>
      <trkpt lat="44.025" lon="1.70394">
        <ele>247</ele>
        <time>2011-06-26T15:44:44Z</time>
      </trkpt>
      <trkpt lat="44.02501" lon="1.70396">
        <ele>247</ele>
        <time>2011-06-26T15:44:46Z</time>
      </trkpt>
      <trkpt lat="44.02502" lon="1.70398">
        <ele>247</ele>
        <time>2011-06-26T15:44:48Z</time>
      </trkpt>
      <trkpt lat="44.02504" lon="1.70398">
        <ele>247</ele>
        <time>2011-06-26T15:44:50Z</time>
      </trkpt>
      <trkpt lat="44.02505" lon="1.70397">
        <ele>247</ele>
        <time>2011-06-26T15:44:53Z</time>
      </trkpt>
      <trkpt lat="44.02504" lon="1.70398">
        <ele>247</ele>
        <time>2011-06-26T15:45:00Z</time>
      </trkpt>
      <trkpt lat="44.02504" lon="1.70396">
        <ele>247</ele>
        <time>2011-06-26T15:45:04Z</time>
      </trkpt>
      <trkpt lat="44.02504" lon="1.70394">
        <ele>247</ele>
        <time>2011-06-26T15:45:06Z</time>
      </trkpt>
      <trkpt lat="44.02504" lon="1.70396">
        <ele>247</ele>
        <time>2011-06-26T15:45:10Z</time>
      </trkpt>
      <trkpt lat="44.02502" lon="1.70396">
        <ele>249</ele>
        <time>2011-06-26T15:45:15Z</time>
      </trkpt>
      <trkpt lat="44.02501" lon="1.70395">
        <ele>249</ele>
        <time>2011-06-26T15:45:17Z</time>
      </trkpt>
      <trkpt lat="44.025" lon="1.70394">
        <ele>249</ele>
        <time>2011-06-26T15:45:19Z</time>
      </trkpt>
      <trkpt lat="44.02496" lon="1.70395">
        <ele>249</ele>
        <time>2011-06-26T15:45:22Z</time>
      </trkpt>
      <trkpt lat="44.02493" lon="1.70396">
        <ele>249</ele>
        <time>2011-06-26T15:45:24Z</time>
      </trkpt>
      <trkpt lat="44.02492" lon="1.70397">
        <ele>249</ele>
        <time>2011-06-26T15:45:26Z</time>
      </trkpt>
      <trkpt lat="44.02491" lon="1.70399">
        <ele>249</ele>
        <time>2011-06-26T15:45:28Z</time>
      </trkpt>
      <trkpt lat="44.02493" lon="1.70401">
        <ele>249</ele>
        <time>2011-06-26T15:45:30Z</time>
      </trkpt>
      <trkpt lat="44.02494" lon="1.70404">
        <ele>249</ele>
        <time>2011-06-26T15:45:32Z</time>
      </trkpt>
      <trkpt lat="44.02495" lon="1.70408">
        <ele>249</ele>
        <time>2011-06-26T15:45:35Z</time>
      </trkpt>
      <trkpt lat="44.02494" lon="1.70412">
        <ele>249</ele>
        <time>2011-06-26T15:45:37Z</time>
      </trkpt>
      <trkpt lat="44.02494" lon="1.70414">
        <ele>249</ele>
        <time>2011-06-26T15:45:39Z</time>
      </trkpt>
      <trkpt lat="44.02494" lon="1.70416">
        <ele>249</ele>
        <time>2011-06-26T15:45:41Z</time>
      </trkpt>
      <trkpt lat="44.02493" lon="1.70418">
        <ele>249</ele>
        <time>2011-06-26T15:45:43Z</time>
      </trkpt>
      <trkpt lat="44.02493" lon="1.70421">
        <ele>249</ele>
        <time>2011-06-26T15:45:45Z</time>
      </trkpt>
      <trkpt lat="44.02494" lon="1.70423">
        <ele>249</ele>
        <time>2011-06-26T15:45:47Z</time>
      </trkpt>
      <trkpt lat="44.02494" lon="1.70425">
        <ele>249</ele>
        <time>2011-06-26T15:45:50Z</time>
      </trkpt>
      <trkpt lat="44.02494" lon="1.70429">
        <ele>249</ele>
        <time>2011-06-26T15:45:53Z</time>
      </trkpt>
      <trkpt lat="44.02494" lon="1.70431">
        <ele>249</ele>
        <time>2011-06-26T15:45:55Z</time>
      </trkpt>
      <trkpt lat="44.02494" lon="1.70435">
        <ele>249</ele>
        <time>2011-06-26T15:45:58Z</time>
      </trkpt>
      <trkpt lat="44.02494" lon="1.70436">
        <ele>250</ele>
        <time>2011-06-26T15:46:01Z</time>
      </trkpt>
      <trkpt lat="44.02494" lon="1.7044">
        <ele>250</ele>
        <time>2011-06-26T15:46:03Z</time>
      </trkpt>
      <trkpt lat="44.02495" lon="1.70442">
        <ele>251</ele>
        <time>2011-06-26T15:46:05Z</time>
      </trkpt>
      <trkpt lat="44.02498" lon="1.70445">
        <ele>251</ele>
        <time>2011-06-26T15:46:07Z</time>
      </trkpt>
      <trkpt lat="44.02501" lon="1.70447">
        <ele>251</ele>
        <time>2011-06-26T15:46:09Z</time>
      </trkpt>
      <trkpt lat="44.02504" lon="1.7045">
        <ele>251</ele>
        <time>2011-06-26T15:46:11Z</time>
      </trkpt>
      <trkpt lat="44.02507" lon="1.70455">
        <ele>252</ele>
        <time>2011-06-26T15:46:13Z</time>
      </trkpt>
      <trkpt lat="44.0251" lon="1.70459">
        <ele>253</ele>
        <time>2011-06-26T15:46:15Z</time>
      </trkpt>
      <trkpt lat="44.02514" lon="1.70464">
        <ele>254</ele>
        <time>2011-06-26T15:46:17Z</time>
      </trkpt>
      <trkpt lat="44.02518" lon="1.70468">
        <ele>254</ele>
        <time>2011-06-26T15:46:19Z</time>
      </trkpt>
      <trkpt lat="44.02522" lon="1.70473">
        <ele>255</ele>
        <time>2011-06-26T15:46:21Z</time>
      </trkpt>
      <trkpt lat="44.02526" lon="1.70478">
        <ele>255</ele>
        <time>2011-06-26T15:46:23Z</time>
      </trkpt>
      <trkpt lat="44.0253" lon="1.70483">
        <ele>256</ele>
        <time>2011-06-26T15:46:25Z</time>
      </trkpt>
      <trkpt lat="44.02535" lon="1.70486">
        <ele>256</ele>
        <time>2011-06-26T15:46:27Z</time>
      </trkpt>
      <trkpt lat="44.02539" lon="1.70491">
        <ele>256</ele>
        <time>2011-06-26T15:46:29Z</time>
      </trkpt>
      <trkpt lat="44.02544" lon="1.70496">
        <ele>257</ele>
        <time>2011-06-26T15:46:31Z</time>
      </trkpt>
      <trkpt lat="44.02549" lon="1.705">
        <ele>258</ele>
        <time>2011-06-26T15:46:33Z</time>
      </trkpt>
      <trkpt lat="44.02553" lon="1.70505">
        <ele>259</ele>
        <time>2011-06-26T15:46:35Z</time>
      </trkpt>
      <trkpt lat="44.02557" lon="1.70509">
        <ele>259</ele>
        <time>2011-06-26T15:46:37Z</time>
      </trkpt>
      <trkpt lat="44.02562" lon="1.70511">
        <ele>260</ele>
        <time>2011-06-26T15:46:39Z</time>
      </trkpt>
      <trkpt lat="44.02566" lon="1.70515">
        <ele>260</ele>
        <time>2011-06-26T15:46:41Z</time>
      </trkpt>
      <trkpt lat="44.0257" lon="1.70518">
        <ele>260</ele>
        <time>2011-06-26T15:46:43Z</time>
      </trkpt>
      <trkpt lat="44.02574" lon="1.7052">
        <ele>261</ele>
        <time>2011-06-26T15:46:45Z</time>
      </trkpt>
      <trkpt lat="44.02579" lon="1.70523">
        <ele>261</ele>
        <time>2011-06-26T15:46:47Z</time>
      </trkpt>
      <trkpt lat="44.02584" lon="1.70526">
        <ele>261</ele>
        <time>2011-06-26T15:46:49Z</time>
      </trkpt>
      <trkpt lat="44.02589" lon="1.70529">
        <ele>261</ele>
        <time>2011-06-26T15:46:51Z</time>
      </trkpt>
      <trkpt lat="44.02594" lon="1.70534">
        <ele>261</ele>
        <time>2011-06-26T15:46:53Z</time>
      </trkpt>
      <trkpt lat="44.026" lon="1.70538">
        <ele>261</ele>
        <time>2011-06-26T15:46:55Z</time>
      </trkpt>
      <trkpt lat="44.02605" lon="1.70543">
        <ele>261</ele>
        <time>2011-06-26T15:46:57Z</time>
      </trkpt>
      <trkpt lat="44.02609" lon="1.7055">
        <ele>261</ele>
        <time>2011-06-26T15:46:59Z</time>
      </trkpt>
      <trkpt lat="44.02613" lon="1.70555">
        <ele>261</ele>
        <time>2011-06-26T15:47:01Z</time>
      </trkpt>
      <trkpt lat="44.02618" lon="1.70562">
        <ele>261</ele>
        <time>2011-06-26T15:47:03Z</time>
      </trkpt>
      <trkpt lat="44.02622" lon="1.70568">
        <ele>261</ele>
        <time>2011-06-26T15:47:05Z</time>
      </trkpt>
      <trkpt lat="44.02626" lon="1.70572">
        <ele>261</ele>
        <time>2011-06-26T15:47:07Z</time>
      </trkpt>
      <trkpt lat="44.02627" lon="1.70574">
        <ele>261</ele>
        <time>2011-06-26T15:47:09Z</time>
      </trkpt>
      <trkpt lat="44.02628" lon="1.70577">
        <ele>261</ele>
        <time>2011-06-26T15:47:12Z</time>
      </trkpt>
      <trkpt lat="44.02628" lon="1.70579">
        <ele>261</ele>
        <time>2011-06-26T15:47:15Z</time>
      </trkpt>
      <trkpt lat="44.02629" lon="1.70581">
        <ele>261</ele>
        <time>2011-06-26T15:47:17Z</time>
      </trkpt>
      <trkpt lat="44.0263" lon="1.70585">
        <ele>261</ele>
        <time>2011-06-26T15:47:20Z</time>
      </trkpt>
      <trkpt lat="44.02631" lon="1.70587">
        <ele>261</ele>
        <time>2011-06-26T15:47:22Z</time>
      </trkpt>
      <trkpt lat="44.02633" lon="1.70588">
        <ele>261</ele>
        <time>2011-06-26T15:47:25Z</time>
      </trkpt>
      <trkpt lat="44.02634" lon="1.70587">
        <ele>261</ele>
        <time>2011-06-26T15:47:27Z</time>
      </trkpt>
      <trkpt lat="44.02635" lon="1.70586">
        <ele>261</ele>
        <time>2011-06-26T15:47:29Z</time>
      </trkpt>
      <trkpt lat="44.02636" lon="1.70583">
        <ele>259</ele>
        <time>2011-06-26T15:47:31Z</time>
      </trkpt>
      <trkpt lat="44.02637" lon="1.7058">
        <ele>258</ele>
        <time>2011-06-26T15:47:33Z</time>
      </trkpt>
      <trkpt lat="44.02637" lon="1.70579">
        <ele>257</ele>
        <time>2011-06-26T15:47:35Z</time>
      </trkpt>
      <trkpt lat="44.02639" lon="1.70579">
        <ele>257</ele>
        <time>2011-06-26T15:47:37Z</time>
      </trkpt>
      <trkpt lat="44.02641" lon="1.7058">
        <ele>257</ele>
        <time>2011-06-26T15:47:39Z</time>
      </trkpt>
      <trkpt lat="44.02641" lon="1.70583">
        <ele>257</ele>
        <time>2011-06-26T15:47:42Z</time>
      </trkpt>
      <trkpt lat="44.02642" lon="1.70585">
        <ele>257</ele>
        <time>2011-06-26T15:47:44Z</time>
      </trkpt>
      <trkpt lat="44.02646" lon="1.70588">
        <ele>257</ele>
        <time>2011-06-26T15:47:46Z</time>
      </trkpt>
      <trkpt lat="44.02651" lon="1.70591">
        <ele>257</ele>
        <time>2011-06-26T15:47:48Z</time>
      </trkpt>
      <trkpt lat="44.02656" lon="1.70594">
        <ele>257</ele>
        <time>2011-06-26T15:47:50Z</time>
      </trkpt>
      <trkpt lat="44.0266" lon="1.70598">
        <ele>257</ele>
        <time>2011-06-26T15:47:52Z</time>
      </trkpt>
      <trkpt lat="44.02664" lon="1.70601">
        <ele>257</ele>
        <time>2011-06-26T15:47:54Z</time>
      </trkpt>
      <trkpt lat="44.02668" lon="1.70604">
        <ele>258</ele>
        <time>2011-06-26T15:47:56Z</time>
      </trkpt>
      <trkpt lat="44.02672" lon="1.70607">
        <ele>259</ele>
        <time>2011-06-26T15:47:58Z</time>
      </trkpt>
      <trkpt lat="44.02676" lon="1.70608">
        <ele>259</ele>
        <time>2011-06-26T15:48:00Z</time>
      </trkpt>
      <trkpt lat="44.02681" lon="1.7061">
        <ele>260</ele>
        <time>2011-06-26T15:48:02Z</time>
      </trkpt>
      <trkpt lat="44.02686" lon="1.70613">
        <ele>260</ele>
        <time>2011-06-26T15:48:04Z</time>
      </trkpt>
      <trkpt lat="44.0269" lon="1.70617">
        <ele>261</ele>
        <time>2011-06-26T15:48:06Z</time>
      </trkpt>
      <trkpt lat="44.02694" lon="1.70622">
        <ele>262</ele>
        <time>2011-06-26T15:48:08Z</time>
      </trkpt>
      <trkpt lat="44.02697" lon="1.70627">
        <ele>263</ele>
        <time>2011-06-26T15:48:10Z</time>
      </trkpt>
      <trkpt lat="44.027" lon="1.70634">
        <ele>263</ele>
        <time>2011-06-26T15:48:12Z</time>
      </trkpt>
      <trkpt lat="44.02702" lon="1.7064">
        <ele>264</ele>
        <time>2011-06-26T15:48:14Z</time>
      </trkpt>
      <trkpt lat="44.02705" lon="1.70644">
        <ele>264</ele>
        <time>2011-06-26T15:48:16Z</time>
      </trkpt>
      <trkpt lat="44.02709" lon="1.70649">
        <ele>265</ele>
        <time>2011-06-26T15:48:18Z</time>
      </trkpt>
      <trkpt lat="44.02711" lon="1.70653">
        <ele>265</ele>
        <time>2011-06-26T15:48:20Z</time>
      </trkpt>
      <trkpt lat="44.02713" lon="1.70654">
        <ele>265</ele>
        <time>2011-06-26T15:48:22Z</time>
      </trkpt>
      <trkpt lat="44.02713" lon="1.70656">
        <ele>265</ele>
        <time>2011-06-26T15:48:24Z</time>
      </trkpt>
      <trkpt lat="44.02715" lon="1.70656">
        <ele>262</ele>
        <time>2011-06-26T15:48:28Z</time>
      </trkpt>
      <trkpt lat="44.02715" lon="1.70657">
        <ele>259</ele>
        <time>2011-06-26T15:48:32Z</time>
      </trkpt>
      <trkpt lat="44.02716" lon="1.70659">
        <ele>258</ele>
        <time>2011-06-26T15:48:35Z</time>
      </trkpt>
      <trkpt lat="44.02716" lon="1.7066">
        <ele>258</ele>
        <time>2011-06-26T15:48:41Z</time>
      </trkpt>
      <trkpt lat="44.02718" lon="1.70658">
        <ele>258</ele>
        <time>2011-06-26T15:48:46Z</time>
      </trkpt>
      <trkpt lat="44.0272" lon="1.70658">
        <ele>259</ele>
        <time>2011-06-26T15:48:48Z</time>
      </trkpt>
      <trkpt lat="44.02721" lon="1.7066">
        <ele>259</ele>
        <time>2011-06-26T15:48:51Z</time>
      </trkpt>
      <trkpt lat="44.02721" lon="1.70662">
        <ele>259</ele>
        <time>2011-06-26T15:48:53Z</time>
      </trkpt>
      <trkpt lat="44.02722" lon="1.70664">
        <ele>259</ele>
        <time>2011-06-26T15:48:55Z</time>
      </trkpt>
      <trkpt lat="44.02724" lon="1.70664">
        <ele>259</ele>
        <time>2011-06-26T15:48:57Z</time>
      </trkpt>
      <trkpt lat="44.02725" lon="1.70665">
        <ele>260</ele>
        <time>2011-06-26T15:48:59Z</time>
      </trkpt>
      <trkpt lat="44.02727" lon="1.70665">
        <ele>261</ele>
        <time>2011-06-26T15:49:01Z</time>
      </trkpt>
      <trkpt lat="44.02728" lon="1.70665">
        <ele>261</ele>
        <time>2011-06-26T15:49:03Z</time>
      </trkpt>
      <trkpt lat="44.02728" lon="1.70667">
        <ele>262</ele>
        <time>2011-06-26T15:49:06Z</time>
      </trkpt>
      <trkpt lat="44.02729" lon="1.70668">
        <ele>262</ele>
        <time>2011-06-26T15:49:12Z</time>
      </trkpt>
      <trkpt lat="44.02728" lon="1.7067">
        <ele>263</ele>
        <time>2011-06-26T15:49:18Z</time>
      </trkpt>
      <trkpt lat="44.0273" lon="1.7067">
        <ele>263</ele>
        <time>2011-06-26T15:49:21Z</time>
      </trkpt>
      <trkpt lat="44.02729" lon="1.70671">
        <ele>264</ele>
        <time>2011-06-26T15:49:24Z</time>
      </trkpt>
      <trkpt lat="44.02729" lon="1.70674">
        <ele>265</ele>
        <time>2011-06-26T15:49:37Z</time>
      </trkpt>
      <trkpt lat="44.0273" lon="1.70673">
        <ele>265</ele>
        <time>2011-06-26T15:49:43Z</time>
      </trkpt>
      <trkpt lat="44.02732" lon="1.70672">
        <ele>264</ele>
        <time>2011-06-26T15:49:50Z</time>
      </trkpt>
      <trkpt lat="44.0273" lon="1.70673">
        <ele>264</ele>
        <time>2011-06-26T15:49:58Z</time>
      </trkpt>
      <trkpt lat="44.02727" lon="1.70672">
        <ele>264</ele>
        <time>2011-06-26T15:50:00Z</time>
      </trkpt>
      <trkpt lat="44.02725" lon="1.70671">
        <ele>264</ele>
        <time>2011-06-26T15:50:02Z</time>
      </trkpt>
      <trkpt lat="44.02724" lon="1.70671">
        <ele>264</ele>
        <time>2011-06-26T15:50:04Z</time>
      </trkpt>
      <trkpt lat="44.02725" lon="1.70673">
        <ele>264</ele>
        <time>2011-06-26T15:50:06Z</time>
      </trkpt>
      <trkpt lat="44.02728" lon="1.70675">
        <ele>264</ele>
        <time>2011-06-26T15:50:08Z</time>
      </trkpt>
      <trkpt lat="44.02732" lon="1.70677">
        <ele>264</ele>
        <time>2011-06-26T15:50:10Z</time>
      </trkpt>
      <trkpt lat="44.02736" lon="1.70682">
        <ele>264</ele>
        <time>2011-06-26T15:50:12Z</time>
      </trkpt>
      <trkpt lat="44.02739" lon="1.70685">
        <ele>264</ele>
        <time>2011-06-26T15:50:14Z</time>
      </trkpt>
      <trkpt lat="44.02743" lon="1.7069">
        <ele>264</ele>
        <time>2011-06-26T15:50:16Z</time>
      </trkpt>
      <trkpt lat="44.02746" lon="1.70694">
        <ele>264</ele>
        <time>2011-06-26T15:50:18Z</time>
      </trkpt>
      <trkpt lat="44.0275" lon="1.707">
        <ele>264</ele>
        <time>2011-06-26T15:50:20Z</time>
      </trkpt>
      <trkpt lat="44.02753" lon="1.70706">
        <ele>265</ele>
        <time>2011-06-26T15:50:22Z</time>
      </trkpt>
      <trkpt lat="44.02757" lon="1.70711">
        <ele>267</ele>
        <time>2011-06-26T15:50:24Z</time>
      </trkpt>
      <trkpt lat="44.0276" lon="1.70714">
        <ele>268</ele>
        <time>2011-06-26T15:50:26Z</time>
      </trkpt>
      <trkpt lat="44.02763" lon="1.70715">
        <ele>268</ele>
        <time>2011-06-26T15:50:28Z</time>
      </trkpt>
      <trkpt lat="44.02766" lon="1.70715">
        <ele>269</ele>
        <time>2011-06-26T15:50:30Z</time>
      </trkpt>
      <trkpt lat="44.02769" lon="1.70719">
        <ele>269</ele>
        <time>2011-06-26T15:50:32Z</time>
      </trkpt>
      <trkpt lat="44.0277" lon="1.70719">
        <ele>269</ele>
        <time>2011-06-26T15:50:34Z</time>
      </trkpt>
      <trkpt lat="44.0277" lon="1.7072">
        <ele>269</ele>
        <time>2011-06-26T15:50:36Z</time>
      </trkpt>
      <trkpt lat="44.02769" lon="1.70723">
        <ele>269</ele>
        <time>2011-06-26T15:50:38Z</time>
      </trkpt>
      <trkpt lat="44.02768" lon="1.70726">
        <ele>269</ele>
        <time>2011-06-26T15:50:40Z</time>
      </trkpt>
      <trkpt lat="44.02768" lon="1.70729">
        <ele>269</ele>
        <time>2011-06-26T15:50:42Z</time>
      </trkpt>
      <trkpt lat="44.02769" lon="1.7073">
        <ele>268</ele>
        <time>2011-06-26T15:50:44Z</time>
      </trkpt>
      <trkpt lat="44.02773" lon="1.7073">
        <ele>268</ele>
        <time>2011-06-26T15:50:47Z</time>
      </trkpt>
      <trkpt lat="44.02776" lon="1.70733">
        <ele>268</ele>
        <time>2011-06-26T15:50:50Z</time>
      </trkpt>
      <trkpt lat="44.02779" lon="1.70737">
        <ele>268</ele>
        <time>2011-06-26T15:50:52Z</time>
      </trkpt>
      <trkpt lat="44.02782" lon="1.7074">
        <ele>268</ele>
        <time>2011-06-26T15:50:54Z</time>
      </trkpt>
      <trkpt lat="44.02785" lon="1.70745">
        <ele>268</ele>
        <time>2011-06-26T15:50:56Z</time>
      </trkpt>
      <trkpt lat="44.02788" lon="1.7075">
        <ele>268</ele>
        <time>2011-06-26T15:50:58Z</time>
      </trkpt>
      <trkpt lat="44.02792" lon="1.70753">
        <ele>268</ele>
        <time>2011-06-26T15:51:00Z</time>
      </trkpt>
      <trkpt lat="44.02796" lon="1.70756">
        <ele>268</ele>
        <time>2011-06-26T15:51:02Z</time>
      </trkpt>
      <trkpt lat="44.028" lon="1.70759">
        <ele>268</ele>
        <time>2011-06-26T15:51:04Z</time>
      </trkpt>
      <trkpt lat="44.02802" lon="1.70764">
        <ele>268</ele>
        <time>2011-06-26T15:51:06Z</time>
      </trkpt>
      <trkpt lat="44.02806" lon="1.70767">
        <ele>268</ele>
        <time>2011-06-26T15:51:08Z</time>
      </trkpt>
      <trkpt lat="44.0281" lon="1.70771">
        <ele>269</ele>
        <time>2011-06-26T15:51:10Z</time>
      </trkpt>
      <trkpt lat="44.02814" lon="1.70775">
        <ele>269</ele>
        <time>2011-06-26T15:51:12Z</time>
      </trkpt>
      <trkpt lat="44.02818" lon="1.70778">
        <ele>270</ele>
        <time>2011-06-26T15:51:14Z</time>
      </trkpt>
      <trkpt lat="44.02822" lon="1.70782">
        <ele>270</ele>
        <time>2011-06-26T15:51:16Z</time>
      </trkpt>
      <trkpt lat="44.02826" lon="1.70786">
        <ele>271</ele>
        <time>2011-06-26T15:51:18Z</time>
      </trkpt>
      <trkpt lat="44.0283" lon="1.7079">
        <ele>272</ele>
        <time>2011-06-26T15:51:20Z</time>
      </trkpt>
      <trkpt lat="44.02833" lon="1.70795">
        <ele>273</ele>
        <time>2011-06-26T15:51:22Z</time>
      </trkpt>
      <trkpt lat="44.02837" lon="1.70799">
        <ele>273</ele>
        <time>2011-06-26T15:51:24Z</time>
      </trkpt>
      <trkpt lat="44.0284" lon="1.70803">
        <ele>274</ele>
        <time>2011-06-26T15:51:26Z</time>
      </trkpt>
      <trkpt lat="44.02844" lon="1.70808">
        <ele>276</ele>
        <time>2011-06-26T15:51:28Z</time>
      </trkpt>
      <trkpt lat="44.02848" lon="1.70812">
        <ele>277</ele>
        <time>2011-06-26T15:51:30Z</time>
      </trkpt>
      <trkpt lat="44.02851" lon="1.70817">
        <ele>279</ele>
        <time>2011-06-26T15:51:32Z</time>
      </trkpt>
      <trkpt lat="44.02855" lon="1.70819">
        <ele>280</ele>
        <time>2011-06-26T15:51:34Z</time>
      </trkpt>
      <trkpt lat="44.02858" lon="1.70825">
        <ele>280</ele>
        <time>2011-06-26T15:51:36Z</time>
      </trkpt>
      <trkpt lat="44.02861" lon="1.70829">
        <ele>280</ele>
        <time>2011-06-26T15:51:38Z</time>
      </trkpt>
      <trkpt lat="44.02864" lon="1.70833">
        <ele>280</ele>
        <time>2011-06-26T15:51:40Z</time>
      </trkpt>
      <trkpt lat="44.02867" lon="1.70838">
        <ele>281</ele>
        <time>2011-06-26T15:51:42Z</time>
      </trkpt>
      <trkpt lat="44.02869" lon="1.70844">
        <ele>283</ele>
        <time>2011-06-26T15:51:44Z</time>
      </trkpt>
      <trkpt lat="44.02872" lon="1.70848">
        <ele>283</ele>
        <time>2011-06-26T15:51:46Z</time>
      </trkpt>
      <trkpt lat="44.02875" lon="1.70853">
        <ele>283</ele>
        <time>2011-06-26T15:51:48Z</time>
      </trkpt>
      <trkpt lat="44.02877" lon="1.70859">
        <ele>283</ele>
        <time>2011-06-26T15:51:50Z</time>
      </trkpt>
      <trkpt lat="44.0288" lon="1.70864">
        <ele>283</ele>
        <time>2011-06-26T15:51:52Z</time>
      </trkpt>
      <trkpt lat="44.02881" lon="1.70869">
        <ele>283</ele>
        <time>2011-06-26T15:51:54Z</time>
      </trkpt>
      <trkpt lat="44.02883" lon="1.70875">
        <ele>283</ele>
        <time>2011-06-26T15:51:56Z</time>
      </trkpt>
      <trkpt lat="44.02886" lon="1.7088">
        <ele>283</ele>
        <time>2011-06-26T15:51:58Z</time>
      </trkpt>
      <trkpt lat="44.02887" lon="1.70886">
        <ele>283</ele>
        <time>2011-06-26T15:52:00Z</time>
      </trkpt>
      <trkpt lat="44.02888" lon="1.70891">
        <ele>283</ele>
        <time>2011-06-26T15:52:02Z</time>
      </trkpt>
      <trkpt lat="44.02889" lon="1.70897">
        <ele>283</ele>
        <time>2011-06-26T15:52:04Z</time>
      </trkpt>
      <trkpt lat="44.02889" lon="1.70903">
        <ele>283</ele>
        <time>2011-06-26T15:52:06Z</time>
      </trkpt>
      <trkpt lat="44.0289" lon="1.70909">
        <ele>283</ele>
        <time>2011-06-26T15:52:08Z</time>
      </trkpt>
      <trkpt lat="44.02891" lon="1.70915">
        <ele>283</ele>
        <time>2011-06-26T15:52:10Z</time>
      </trkpt>
      <trkpt lat="44.02892" lon="1.70922">
        <ele>282</ele>
        <time>2011-06-26T15:52:12Z</time>
      </trkpt>
      <trkpt lat="44.02893" lon="1.70928">
        <ele>282</ele>
        <time>2011-06-26T15:52:14Z</time>
      </trkpt>
      <trkpt lat="44.02895" lon="1.70934">
        <ele>282</ele>
        <time>2011-06-26T15:52:16Z</time>
      </trkpt>
      <trkpt lat="44.02897" lon="1.7094">
        <ele>282</ele>
        <time>2011-06-26T15:52:18Z</time>
      </trkpt>
      <trkpt lat="44.02898" lon="1.70947">
        <ele>284</ele>
        <time>2011-06-26T15:52:20Z</time>
      </trkpt>
      <trkpt lat="44.029" lon="1.70954">
        <ele>286</ele>
        <time>2011-06-26T15:52:22Z</time>
      </trkpt>
      <trkpt lat="44.02903" lon="1.7096">
        <ele>287</ele>
        <time>2011-06-26T15:52:24Z</time>
      </trkpt>
      <trkpt lat="44.02906" lon="1.70966">
        <ele>289</ele>
        <time>2011-06-26T15:52:26Z</time>
      </trkpt>
      <trkpt lat="44.02908" lon="1.70971">
        <ele>290</ele>
        <time>2011-06-26T15:52:28Z</time>
      </trkpt>
      <trkpt lat="44.02911" lon="1.70976">
        <ele>292</ele>
        <time>2011-06-26T15:52:30Z</time>
      </trkpt>
      <trkpt lat="44.02914" lon="1.70981">
        <ele>292</ele>
        <time>2011-06-26T15:52:32Z</time>
      </trkpt>
      <trkpt lat="44.02917" lon="1.70986">
        <ele>293</ele>
        <time>2011-06-26T15:52:34Z</time>
      </trkpt>
      <trkpt lat="44.0292" lon="1.70991">
        <ele>295</ele>
        <time>2011-06-26T15:52:36Z</time>
      </trkpt>
      <trkpt lat="44.02923" lon="1.70996">
        <ele>295</ele>
        <time>2011-06-26T15:52:38Z</time>
      </trkpt>
      <trkpt lat="44.02925" lon="1.71002">
        <ele>295</ele>
        <time>2011-06-26T15:52:40Z</time>
      </trkpt>
      <trkpt lat="44.02927" lon="1.71006">
        <ele>295</ele>
        <time>2011-06-26T15:52:42Z</time>
      </trkpt>
      <trkpt lat="44.0293" lon="1.71011">
        <ele>295</ele>
        <time>2011-06-26T15:52:44Z</time>
      </trkpt>
      <trkpt lat="44.02935" lon="1.71014">
        <ele>296</ele>
        <time>2011-06-26T15:52:46Z</time>
      </trkpt>
      <trkpt lat="44.02938" lon="1.71018">
        <ele>296</ele>
        <time>2011-06-26T15:52:48Z</time>
      </trkpt>
      <trkpt lat="44.02942" lon="1.71021">
        <ele>296</ele>
        <time>2011-06-26T15:52:50Z</time>
      </trkpt>
      <trkpt lat="44.02945" lon="1.71025">
        <ele>296</ele>
        <time>2011-06-26T15:52:52Z</time>
      </trkpt>
      <trkpt lat="44.02949" lon="1.71029">
        <ele>296</ele>
        <time>2011-06-26T15:52:54Z</time>
      </trkpt>
      <trkpt lat="44.02952" lon="1.71033">
        <ele>296</ele>
        <time>2011-06-26T15:52:56Z</time>
      </trkpt>
      <trkpt lat="44.02955" lon="1.71037">
        <ele>296</ele>
        <time>2011-06-26T15:52:58Z</time>
      </trkpt>
      <trkpt lat="44.02958" lon="1.71043">
        <ele>296</ele>
        <time>2011-06-26T15:53:00Z</time>
      </trkpt>
      <trkpt lat="44.0296" lon="1.71048">
        <ele>296</ele>
        <time>2011-06-26T15:53:02Z</time>
      </trkpt>
      <trkpt lat="44.02964" lon="1.71054">
        <ele>296</ele>
        <time>2011-06-26T15:53:04Z</time>
      </trkpt>
      <trkpt lat="44.02966" lon="1.71059">
        <ele>296</ele>
        <time>2011-06-26T15:53:06Z</time>
      </trkpt>
      <trkpt lat="44.02968" lon="1.71065">
        <ele>296</ele>
        <time>2011-06-26T15:53:08Z</time>
      </trkpt>
      <trkpt lat="44.0297" lon="1.7107">
        <ele>296</ele>
        <time>2011-06-26T15:53:10Z</time>
      </trkpt>
      <trkpt lat="44.02972" lon="1.71076">
        <ele>296</ele>
        <time>2011-06-26T15:53:12Z</time>
      </trkpt>
      <trkpt lat="44.02975" lon="1.71081">
        <ele>296</ele>
        <time>2011-06-26T15:53:14Z</time>
      </trkpt>
      <trkpt lat="44.02976" lon="1.71086">
        <ele>296</ele>
        <time>2011-06-26T15:53:16Z</time>
      </trkpt>
      <trkpt lat="44.02974" lon="1.71089">
        <ele>296</ele>
        <time>2011-06-26T15:53:19Z</time>
      </trkpt>
      <trkpt lat="44.02971" lon="1.71087">
        <ele>296</ele>
        <time>2011-06-26T15:53:21Z</time>
      </trkpt>
      <trkpt lat="44.02966" lon="1.71081">
        <ele>296</ele>
        <time>2011-06-26T15:53:24Z</time>
      </trkpt>
      <trkpt lat="44.02962" lon="1.71077">
        <ele>296</ele>
        <time>2011-06-26T15:53:26Z</time>
      </trkpt>
      <trkpt lat="44.02955" lon="1.71072">
        <ele>296</ele>
        <time>2011-06-26T15:53:29Z</time>
      </trkpt>
      <trkpt lat="44.02946" lon="1.71065">
        <ele>296</ele>
        <time>2011-06-26T15:53:32Z</time>
      </trkpt>
      <trkpt lat="44.0294" lon="1.71063">
        <ele>296</ele>
        <time>2011-06-26T15:53:34Z</time>
      </trkpt>
      <trkpt lat="44.02934" lon="1.71061">
        <ele>296</ele>
        <time>2011-06-26T15:53:36Z</time>
      </trkpt>
      <trkpt lat="44.02923" lon="1.71058">
        <ele>296</ele>
        <time>2011-06-26T15:53:39Z</time>
      </trkpt>
      <trkpt lat="44.02916" lon="1.71055">
        <ele>296</ele>
        <time>2011-06-26T15:53:41Z</time>
      </trkpt>
      <trkpt lat="44.02909" lon="1.71052">
        <ele>296</ele>
        <time>2011-06-26T15:53:43Z</time>
      </trkpt>
      <trkpt lat="44.02898" lon="1.71046">
        <ele>296</ele>
        <time>2011-06-26T15:53:46Z</time>
      </trkpt>
      <trkpt lat="44.02892" lon="1.71041">
        <ele>296</ele>
        <time>2011-06-26T15:53:48Z</time>
      </trkpt>
      <trkpt lat="44.02886" lon="1.71036">
        <ele>296</ele>
        <time>2011-06-26T15:53:50Z</time>
      </trkpt>
      <trkpt lat="44.02879" lon="1.71032">
        <ele>296</ele>
        <time>2011-06-26T15:53:52Z</time>
      </trkpt>
      <trkpt lat="44.0287" lon="1.71025">
        <ele>296</ele>
        <time>2011-06-26T15:53:55Z</time>
      </trkpt>
      <trkpt lat="44.02861" lon="1.71019">
        <ele>296</ele>
        <time>2011-06-26T15:53:58Z</time>
      </trkpt>
      <trkpt lat="44.02851" lon="1.71016">
        <ele>296</ele>
        <time>2011-06-26T15:54:01Z</time>
      </trkpt>
      <trkpt lat="44.02845" lon="1.71013">
        <ele>296</ele>
        <time>2011-06-26T15:54:03Z</time>
      </trkpt>
      <trkpt lat="44.02839" lon="1.7101">
        <ele>296</ele>
        <time>2011-06-26T15:54:05Z</time>
      </trkpt>
      <trkpt lat="44.02833" lon="1.71008">
        <ele>296</ele>
        <time>2011-06-26T15:54:07Z</time>
      </trkpt>
      <trkpt lat="44.02827" lon="1.71007">
        <ele>296</ele>
        <time>2011-06-26T15:54:09Z</time>
      </trkpt>
      <trkpt lat="44.02821" lon="1.71007">
        <ele>297</ele>
        <time>2011-06-26T15:54:11Z</time>
      </trkpt>
      <trkpt lat="44.02815" lon="1.71007">
        <ele>297</ele>
        <time>2011-06-26T15:54:13Z</time>
      </trkpt>
      <trkpt lat="44.02808" lon="1.71008">
        <ele>298</ele>
        <time>2011-06-26T15:54:15Z</time>
      </trkpt>
      <trkpt lat="44.02801" lon="1.71008">
        <ele>299</ele>
        <time>2011-06-26T15:54:17Z</time>
      </trkpt>
      <trkpt lat="44.02791" lon="1.71006">
        <ele>300</ele>
        <time>2011-06-26T15:54:20Z</time>
      </trkpt>
      <trkpt lat="44.02785" lon="1.71002">
        <ele>300</ele>
        <time>2011-06-26T15:54:22Z</time>
      </trkpt>
      <trkpt lat="44.02779" lon="1.70997">
        <ele>300</ele>
        <time>2011-06-26T15:54:24Z</time>
      </trkpt>
      <trkpt lat="44.02773" lon="1.70992">
        <ele>300</ele>
        <time>2011-06-26T15:54:26Z</time>
      </trkpt>
      <trkpt lat="44.02767" lon="1.70989">
        <ele>300</ele>
        <time>2011-06-26T15:54:28Z</time>
      </trkpt>
      <trkpt lat="44.0276" lon="1.70986">
        <ele>300</ele>
        <time>2011-06-26T15:54:30Z</time>
      </trkpt>
      <trkpt lat="44.02752" lon="1.70984">
        <ele>300</ele>
        <time>2011-06-26T15:54:32Z</time>
      </trkpt>
      <trkpt lat="44.02743" lon="1.70983">
        <ele>300</ele>
        <time>2011-06-26T15:54:34Z</time>
      </trkpt>
      <trkpt lat="44.02735" lon="1.7098">
        <ele>300</ele>
        <time>2011-06-26T15:54:36Z</time>
      </trkpt>
      <trkpt lat="44.02728" lon="1.70974">
        <ele>300</ele>
        <time>2011-06-26T15:54:38Z</time>
      </trkpt>
      <trkpt lat="44.02725" lon="1.70965">
        <ele>300</ele>
        <time>2011-06-26T15:54:40Z</time>
      </trkpt>
      <trkpt lat="44.0272" lon="1.70948">
        <ele>300</ele>
        <time>2011-06-26T15:54:43Z</time>
      </trkpt>
      <trkpt lat="44.02711" lon="1.70933">
        <ele>300</ele>
        <time>2011-06-26T15:54:46Z</time>
      </trkpt>
      <trkpt lat="44.02703" lon="1.70925">
        <ele>300</ele>
        <time>2011-06-26T15:54:48Z</time>
      </trkpt>
      <trkpt lat="44.02694" lon="1.70915">
        <ele>300</ele>
        <time>2011-06-26T15:54:50Z</time>
      </trkpt>
      <trkpt lat="44.02678" lon="1.70903">
        <ele>300</ele>
        <time>2011-06-26T15:54:53Z</time>
      </trkpt>
      <trkpt lat="44.02666" lon="1.70895">
        <ele>300</ele>
        <time>2011-06-26T15:54:55Z</time>
      </trkpt>
      <trkpt lat="44.02655" lon="1.70885">
        <ele>299</ele>
        <time>2011-06-26T15:54:57Z</time>
      </trkpt>
      <trkpt lat="44.02641" lon="1.70865">
        <ele>296</ele>
        <time>2011-06-26T15:55:00Z</time>
      </trkpt>
      <trkpt lat="44.02631" lon="1.70852">
        <ele>294</ele>
        <time>2011-06-26T15:55:02Z</time>
      </trkpt>
      <trkpt lat="44.0262" lon="1.70837">
        <ele>293</ele>
        <time>2011-06-26T15:55:04Z</time>
      </trkpt>
      <trkpt lat="44.02607" lon="1.70825">
        <ele>293</ele>
        <time>2011-06-26T15:55:06Z</time>
      </trkpt>
      <trkpt lat="44.02592" lon="1.7082">
        <ele>293</ele>
        <time>2011-06-26T15:55:08Z</time>
      </trkpt>
      <trkpt lat="44.02576" lon="1.70818">
        <ele>293</ele>
        <time>2011-06-26T15:55:10Z</time>
      </trkpt>
      <trkpt lat="44.02562" lon="1.70814">
        <ele>293</ele>
        <time>2011-06-26T15:55:12Z</time>
      </trkpt>
      <trkpt lat="44.02551" lon="1.70799">
        <ele>293</ele>
        <time>2011-06-26T15:55:14Z</time>
      </trkpt>
      <trkpt lat="44.02536" lon="1.70777">
        <ele>292</ele>
        <time>2011-06-26T15:55:17Z</time>
      </trkpt>
      <trkpt lat="44.02523" lon="1.70769">
        <ele>292</ele>
        <time>2011-06-26T15:55:19Z</time>
      </trkpt>
      <trkpt lat="44.02508" lon="1.70765">
        <ele>292</ele>
        <time>2011-06-26T15:55:21Z</time>
      </trkpt>
      <trkpt lat="44.02497" lon="1.70753">
        <ele>291</ele>
        <time>2011-06-26T15:55:23Z</time>
      </trkpt>
      <trkpt lat="44.02491" lon="1.70739">
        <ele>291</ele>
        <time>2011-06-26T15:55:25Z</time>
      </trkpt>
      <trkpt lat="44.02486" lon="1.70726">
        <ele>291</ele>
        <time>2011-06-26T15:55:27Z</time>
      </trkpt>
      <trkpt lat="44.02478" lon="1.70713">
        <ele>291</ele>
        <time>2011-06-26T15:55:29Z</time>
      </trkpt>
      <trkpt lat="44.0247" lon="1.70703">
        <ele>291</ele>
        <time>2011-06-26T15:55:31Z</time>
      </trkpt>
      <trkpt lat="44.02459" lon="1.70694">
        <ele>291</ele>
        <time>2011-06-26T15:55:33Z</time>
      </trkpt>
      <trkpt lat="44.02448" lon="1.70685">
        <ele>291</ele>
        <time>2011-06-26T15:55:35Z</time>
      </trkpt>
      <trkpt lat="44.02436" lon="1.70677">
        <ele>291</ele>
        <time>2011-06-26T15:55:37Z</time>
      </trkpt>
      <trkpt lat="44.02424" lon="1.70667">
        <ele>289</ele>
        <time>2011-06-26T15:55:39Z</time>
      </trkpt>
      <trkpt lat="44.02407" lon="1.70651">
        <ele>287</ele>
        <time>2011-06-26T15:55:42Z</time>
      </trkpt>
      <trkpt lat="44.02395" lon="1.70641">
        <ele>286</ele>
        <time>2011-06-26T15:55:44Z</time>
      </trkpt>
      <trkpt lat="44.02382" lon="1.70633">
        <ele>285</ele>
        <time>2011-06-26T15:55:46Z</time>
      </trkpt>
      <trkpt lat="44.02368" lon="1.70627">
        <ele>284</ele>
        <time>2011-06-26T15:55:48Z</time>
      </trkpt>
      <trkpt lat="44.02348" lon="1.70621">
        <ele>282</ele>
        <time>2011-06-26T15:55:51Z</time>
      </trkpt>
      <trkpt lat="44.02338" lon="1.7061">
        <ele>281</ele>
        <time>2011-06-26T15:55:53Z</time>
      </trkpt>
      <trkpt lat="44.0233" lon="1.70593">
        <ele>279</ele>
        <time>2011-06-26T15:55:55Z</time>
      </trkpt>
      <trkpt lat="44.02316" lon="1.70571">
        <ele>278</ele>
        <time>2011-06-26T15:55:58Z</time>
      </trkpt>
      <trkpt lat="44.02297" lon="1.70546">
        <ele>278</ele>
        <time>2011-06-26T15:56:01Z</time>
      </trkpt>
      <trkpt lat="44.02284" lon="1.70528">
        <ele>278</ele>
        <time>2011-06-26T15:56:03Z</time>
      </trkpt>
      <trkpt lat="44.02272" lon="1.70506">
        <ele>278</ele>
        <time>2011-06-26T15:56:05Z</time>
      </trkpt>
      <trkpt lat="44.02252" lon="1.70474">
        <ele>278</ele>
        <time>2011-06-26T15:56:08Z</time>
      </trkpt>
      <trkpt lat="44.02238" lon="1.70456">
        <ele>277</ele>
        <time>2011-06-26T15:56:10Z</time>
      </trkpt>
      <trkpt lat="44.02223" lon="1.70437">
        <ele>276</ele>
        <time>2011-06-26T15:56:12Z</time>
      </trkpt>
      <trkpt lat="44.02208" lon="1.70422">
        <ele>274</ele>
        <time>2011-06-26T15:56:14Z</time>
      </trkpt>
      <trkpt lat="44.02195" lon="1.70413">
        <ele>272</ele>
        <time>2011-06-26T15:56:16Z</time>
      </trkpt>
      <trkpt lat="44.02181" lon="1.7041">
        <ele>270</ele>
        <time>2011-06-26T15:56:18Z</time>
      </trkpt>
      <trkpt lat="44.02167" lon="1.70423">
        <ele>268</ele>
        <time>2011-06-26T15:56:21Z</time>
      </trkpt>
      <trkpt lat="44.02159" lon="1.70439">
        <ele>268</ele>
        <time>2011-06-26T15:56:23Z</time>
      </trkpt>
      <trkpt lat="44.02149" lon="1.70452">
        <ele>268</ele>
        <time>2011-06-26T15:56:25Z</time>
      </trkpt>
      <trkpt lat="44.02139" lon="1.7046">
        <ele>268</ele>
        <time>2011-06-26T15:56:27Z</time>
      </trkpt>
      <trkpt lat="44.02131" lon="1.70449">
        <ele>268</ele>
        <time>2011-06-26T15:56:30Z</time>
      </trkpt>
      <trkpt lat="44.02127" lon="1.70428">
        <ele>265</ele>
        <time>2011-06-26T15:56:33Z</time>
      </trkpt>
      <trkpt lat="44.02121" lon="1.70416">
        <ele>264</ele>
        <time>2011-06-26T15:56:35Z</time>
      </trkpt>
      <trkpt lat="44.02109" lon="1.70406">
        <ele>264</ele>
        <time>2011-06-26T15:56:38Z</time>
      </trkpt>
      <trkpt lat="44.021" lon="1.70402">
        <ele>264</ele>
        <time>2011-06-26T15:56:40Z</time>
      </trkpt>
      <trkpt lat="44.02086" lon="1.70399">
        <ele>264</ele>
        <time>2011-06-26T15:56:43Z</time>
      </trkpt>
      <trkpt lat="44.02077" lon="1.70398">
        <ele>264</ele>
        <time>2011-06-26T15:56:45Z</time>
      </trkpt>
      <trkpt lat="44.02065" lon="1.70394">
        <ele>264</ele>
        <time>2011-06-26T15:56:48Z</time>
      </trkpt>
      <trkpt lat="44.02057" lon="1.70392">
        <ele>264</ele>
        <time>2011-06-26T15:56:50Z</time>
      </trkpt>
      <trkpt lat="44.02043" lon="1.70388">
        <ele>264</ele>
        <time>2011-06-26T15:56:53Z</time>
      </trkpt>
      <trkpt lat="44.0203" lon="1.70385">
        <ele>264</ele>
        <time>2011-06-26T15:56:56Z</time>
      </trkpt>
      <trkpt lat="44.02021" lon="1.70381">
        <ele>265</ele>
        <time>2011-06-26T15:56:58Z</time>
      </trkpt>
      <trkpt lat="44.02011" lon="1.70378">
        <ele>265</ele>
        <time>2011-06-26T15:57:00Z</time>
      </trkpt>
      <trkpt lat="44.01998" lon="1.70372">
        <ele>266</ele>
        <time>2011-06-26T15:57:03Z</time>
      </trkpt>
      <trkpt lat="44.01989" lon="1.70367">
        <ele>266</ele>
        <time>2011-06-26T15:57:05Z</time>
      </trkpt>
      <trkpt lat="44.01981" lon="1.70363">
        <ele>266</ele>
        <time>2011-06-26T15:57:07Z</time>
      </trkpt>
      <trkpt lat="44.01971" lon="1.70359">
        <ele>266</ele>
        <time>2011-06-26T15:57:09Z</time>
      </trkpt>
      <trkpt lat="44.01957" lon="1.70355">
        <ele>267</ele>
        <time>2011-06-26T15:57:12Z</time>
      </trkpt>
      <trkpt lat="44.01944" lon="1.70352">
        <ele>267</ele>
        <time>2011-06-26T15:57:15Z</time>
      </trkpt>
      <trkpt lat="44.01935" lon="1.70351">
        <ele>268</ele>
        <time>2011-06-26T15:57:17Z</time>
      </trkpt>
      <trkpt lat="44.01921" lon="1.7035">
        <ele>268</ele>
        <time>2011-06-26T15:57:20Z</time>
      </trkpt>
      <trkpt lat="44.01912" lon="1.70349">
        <ele>268</ele>
        <time>2011-06-26T15:57:22Z</time>
      </trkpt>
      <trkpt lat="44.01903" lon="1.70349">
        <ele>269</ele>
        <time>2011-06-26T15:57:24Z</time>
      </trkpt>
      <trkpt lat="44.01894" lon="1.7035">
        <ele>269</ele>
        <time>2011-06-26T15:57:26Z</time>
      </trkpt>
      <trkpt lat="44.01884" lon="1.70351">
        <ele>270</ele>
        <time>2011-06-26T15:57:28Z</time>
      </trkpt>
      <trkpt lat="44.01871" lon="1.70356">
        <ele>271</ele>
        <time>2011-06-26T15:57:31Z</time>
      </trkpt>
      <trkpt lat="44.01863" lon="1.7036">
        <ele>272</ele>
        <time>2011-06-26T15:57:33Z</time>
      </trkpt>
      <trkpt lat="44.0185" lon="1.70367">
        <ele>273</ele>
        <time>2011-06-26T15:57:36Z</time>
      </trkpt>
      <trkpt lat="44.01843" lon="1.70373">
        <ele>275</ele>
        <time>2011-06-26T15:57:38Z</time>
      </trkpt>
      <trkpt lat="44.01833" lon="1.70382">
        <ele>277</ele>
        <time>2011-06-26T15:57:41Z</time>
      </trkpt>
      <trkpt lat="44.01825" lon="1.70389">
        <ele>278</ele>
        <time>2011-06-26T15:57:43Z</time>
      </trkpt>
      <trkpt lat="44.01812" lon="1.70393">
        <ele>279</ele>
        <time>2011-06-26T15:57:46Z</time>
      </trkpt>
      <trkpt lat="44.01804" lon="1.70389">
        <ele>280</ele>
        <time>2011-06-26T15:57:48Z</time>
      </trkpt>
      <trkpt lat="44.01796" lon="1.7038">
        <ele>282</ele>
        <time>2011-06-26T15:57:51Z</time>
      </trkpt>
      <trkpt lat="44.0179" lon="1.70373">
        <ele>282</ele>
        <time>2011-06-26T15:57:53Z</time>
      </trkpt>
      <trkpt lat="44.01781" lon="1.70364">
        <ele>283</ele>
        <time>2011-06-26T15:57:56Z</time>
      </trkpt>
      <trkpt lat="44.01775" lon="1.70359">
        <ele>283</ele>
        <time>2011-06-26T15:57:58Z</time>
      </trkpt>
      <trkpt lat="44.01766" lon="1.70353">
        <ele>284</ele>
        <time>2011-06-26T15:58:01Z</time>
      </trkpt>
      <trkpt lat="44.0176" lon="1.70346">
        <ele>286</ele>
        <time>2011-06-26T15:58:03Z</time>
      </trkpt>
      <trkpt lat="44.01751" lon="1.70344">
        <ele>289</ele>
        <time>2011-06-26T15:58:06Z</time>
      </trkpt>
      <trkpt lat="44.01745" lon="1.70343">
        <ele>290</ele>
        <time>2011-06-26T15:58:08Z</time>
      </trkpt>
      <trkpt lat="44.01739" lon="1.70345">
        <ele>291</ele>
        <time>2011-06-26T15:58:10Z</time>
      </trkpt>
      <trkpt lat="44.01733" lon="1.70346">
        <ele>293</ele>
        <time>2011-06-26T15:58:12Z</time>
      </trkpt>
      <trkpt lat="44.01728" lon="1.70348">
        <ele>294</ele>
        <time>2011-06-26T15:58:14Z</time>
      </trkpt>
      <trkpt lat="44.01719" lon="1.7035">
        <ele>295</ele>
        <time>2011-06-26T15:58:17Z</time>
      </trkpt>
      <trkpt lat="44.01712" lon="1.70353">
        <ele>296</ele>
        <time>2011-06-26T15:58:19Z</time>
      </trkpt>
      <trkpt lat="44.01706" lon="1.70357">
        <ele>297</ele>
        <time>2011-06-26T15:58:21Z</time>
      </trkpt>
      <trkpt lat="44.01698" lon="1.7036">
        <ele>299</ele>
        <time>2011-06-26T15:58:24Z</time>
      </trkpt>
      <trkpt lat="44.0169" lon="1.70365">
        <ele>300</ele>
        <time>2011-06-26T15:58:27Z</time>
      </trkpt>
      <trkpt lat="44.01685" lon="1.7037">
        <ele>300</ele>
        <time>2011-06-26T15:58:29Z</time>
      </trkpt>
      <trkpt lat="44.01678" lon="1.70378">
        <ele>303</ele>
        <time>2011-06-26T15:58:32Z</time>
      </trkpt>
      <trkpt lat="44.01675" lon="1.70383">
        <ele>305</ele>
        <time>2011-06-26T15:58:34Z</time>
      </trkpt>
      <trkpt lat="44.01671" lon="1.70394">
        <ele>307</ele>
        <time>2011-06-26T15:58:37Z</time>
      </trkpt>
      <trkpt lat="44.01669" lon="1.704">
        <ele>308</ele>
        <time>2011-06-26T15:58:39Z</time>
      </trkpt>
      <trkpt lat="44.01666" lon="1.70407">
        <ele>309</ele>
        <time>2011-06-26T15:58:41Z</time>
      </trkpt>
      <trkpt lat="44.0166" lon="1.7042">
        <ele>309</ele>
        <time>2011-06-26T15:58:44Z</time>
      </trkpt>
      <trkpt lat="44.01655" lon="1.70425">
        <ele>309</ele>
        <time>2011-06-26T15:58:46Z</time>
      </trkpt>
      <trkpt lat="44.01649" lon="1.70432">
        <ele>310</ele>
        <time>2011-06-26T15:58:48Z</time>
      </trkpt>
      <trkpt lat="44.01642" lon="1.70437">
        <ele>311</ele>
        <time>2011-06-26T15:58:50Z</time>
      </trkpt>
      <trkpt lat="44.01631" lon="1.70445">
        <ele>312</ele>
        <time>2011-06-26T15:58:53Z</time>
      </trkpt>
      <trkpt lat="44.01624" lon="1.7045">
        <ele>312</ele>
        <time>2011-06-26T15:58:55Z</time>
      </trkpt>
      <trkpt lat="44.01611" lon="1.70455">
        <ele>312</ele>
        <time>2011-06-26T15:58:58Z</time>
      </trkpt>
      <trkpt lat="44.01603" lon="1.70457">
        <ele>312</ele>
        <time>2011-06-26T15:59:00Z</time>
      </trkpt>
      <trkpt lat="44.01589" lon="1.7046">
        <ele>312</ele>
        <time>2011-06-26T15:59:03Z</time>
      </trkpt>
      <trkpt lat="44.0158" lon="1.70464">
        <ele>312</ele>
        <time>2011-06-26T15:59:05Z</time>
      </trkpt>
      <trkpt lat="44.01568" lon="1.70475">
        <ele>310</ele>
        <time>2011-06-26T15:59:08Z</time>
      </trkpt>
      <trkpt lat="44.01561" lon="1.70484">
        <ele>309</ele>
        <time>2011-06-26T15:59:10Z</time>
      </trkpt>
      <trkpt lat="44.01552" lon="1.70498">
        <ele>309</ele>
        <time>2011-06-26T15:59:13Z</time>
      </trkpt>
      <trkpt lat="44.01545" lon="1.70509">
        <ele>309</ele>
        <time>2011-06-26T15:59:15Z</time>
      </trkpt>
      <trkpt lat="44.01534" lon="1.70524">
        <ele>309</ele>
        <time>2011-06-26T15:59:18Z</time>
      </trkpt>
      <trkpt lat="44.01525" lon="1.70532">
        <ele>309</ele>
        <time>2011-06-26T15:59:20Z</time>
      </trkpt>
      <trkpt lat="44.0151" lon="1.70542">
        <ele>309</ele>
        <time>2011-06-26T15:59:23Z</time>
      </trkpt>
      <trkpt lat="44.015" lon="1.70547">
        <ele>308</ele>
        <time>2011-06-26T15:59:25Z</time>
      </trkpt>
      <trkpt lat="44.01485" lon="1.70555">
        <ele>307</ele>
        <time>2011-06-26T15:59:28Z</time>
      </trkpt>
      <trkpt lat="44.01474" lon="1.70559">
        <ele>306</ele>
        <time>2011-06-26T15:59:30Z</time>
      </trkpt>
      <trkpt lat="44.01458" lon="1.70563">
        <ele>304</ele>
        <time>2011-06-26T15:59:33Z</time>
      </trkpt>
      <trkpt lat="44.01448" lon="1.70564">
        <ele>304</ele>
        <time>2011-06-26T15:59:35Z</time>
      </trkpt>
      <trkpt lat="44.01435" lon="1.70557">
        <ele>303</ele>
        <time>2011-06-26T15:59:38Z</time>
      </trkpt>
      <trkpt lat="44.01426" lon="1.70553">
        <ele>302</ele>
        <time>2011-06-26T15:59:40Z</time>
      </trkpt>
      <trkpt lat="44.01416" lon="1.70552">
        <ele>302</ele>
        <time>2011-06-26T15:59:42Z</time>
      </trkpt>
      <trkpt lat="44.01407" lon="1.70553">
        <ele>302</ele>
        <time>2011-06-26T15:59:44Z</time>
      </trkpt>
      <trkpt lat="44.01397" lon="1.70556">
        <ele>302</ele>
        <time>2011-06-26T15:59:46Z</time>
      </trkpt>
      <trkpt lat="44.01388" lon="1.7056">
        <ele>302</ele>
        <time>2011-06-26T15:59:48Z</time>
      </trkpt>
      <trkpt lat="44.01379" lon="1.70568">
        <ele>302</ele>
        <time>2011-06-26T15:59:50Z</time>
      </trkpt>
      <trkpt lat="44.01366" lon="1.70577">
        <ele>302</ele>
        <time>2011-06-26T15:59:53Z</time>
      </trkpt>
      <trkpt lat="44.01358" lon="1.70585">
        <ele>302</ele>
        <time>2011-06-26T15:59:55Z</time>
      </trkpt>
      <trkpt lat="44.01346" lon="1.70597">
        <ele>302</ele>
        <time>2011-06-26T15:59:58Z</time>
      </trkpt>
      <trkpt lat="44.01339" lon="1.70606">
        <ele>302</ele>
        <time>2011-06-26T16:00:00Z</time>
      </trkpt>
      <trkpt lat="44.01329" lon="1.70622">
        <ele>302</ele>
        <time>2011-06-26T16:00:03Z</time>
      </trkpt>
      <trkpt lat="44.01325" lon="1.70634">
        <ele>302</ele>
        <time>2011-06-26T16:00:05Z</time>
      </trkpt>
      <trkpt lat="44.01318" lon="1.70652">
        <ele>302</ele>
        <time>2011-06-26T16:00:08Z</time>
      </trkpt>
      <trkpt lat="44.01315" lon="1.70664">
        <ele>302</ele>
        <time>2011-06-26T16:00:10Z</time>
      </trkpt>
      <trkpt lat="44.01307" lon="1.70678">
        <ele>304</ele>
        <time>2011-06-26T16:00:13Z</time>
      </trkpt>
      <trkpt lat="44.01302" lon="1.70688">
        <ele>305</ele>
        <time>2011-06-26T16:00:15Z</time>
      </trkpt>
      <trkpt lat="44.01294" lon="1.70701">
        <ele>306</ele>
        <time>2011-06-26T16:00:18Z</time>
      </trkpt>
      <trkpt lat="44.01288" lon="1.70708">
        <ele>307</ele>
        <time>2011-06-26T16:00:20Z</time>
      </trkpt>
      <trkpt lat="44.01283" lon="1.70716">
        <ele>307</ele>
        <time>2011-06-26T16:00:22Z</time>
      </trkpt>
      <trkpt lat="44.01277" lon="1.70722">
        <ele>307</ele>
        <time>2011-06-26T16:00:24Z</time>
      </trkpt>
      <trkpt lat="44.01271" lon="1.70728">
        <ele>307</ele>
        <time>2011-06-26T16:00:26Z</time>
      </trkpt>
      <trkpt lat="44.01264" lon="1.70738">
        <ele>307</ele>
        <time>2011-06-26T16:00:29Z</time>
      </trkpt>
      <trkpt lat="44.01259" lon="1.70744">
        <ele>307</ele>
        <time>2011-06-26T16:00:31Z</time>
      </trkpt>
      <trkpt lat="44.01252" lon="1.70753">
        <ele>308</ele>
        <time>2011-06-26T16:00:34Z</time>
      </trkpt>
      <trkpt lat="44.01248" lon="1.70759">
        <ele>308</ele>
        <time>2011-06-26T16:00:36Z</time>
      </trkpt>
      <trkpt lat="44.01243" lon="1.70765">
        <ele>308</ele>
        <time>2011-06-26T16:00:38Z</time>
      </trkpt>
      <trkpt lat="44.01238" lon="1.70771">
        <ele>309</ele>
        <time>2011-06-26T16:00:40Z</time>
      </trkpt>
      <trkpt lat="44.01234" lon="1.70777">
        <ele>309</ele>
        <time>2011-06-26T16:00:42Z</time>
      </trkpt>
      <trkpt lat="44.01228" lon="1.70787">
        <ele>311</ele>
        <time>2011-06-26T16:00:45Z</time>
      </trkpt>
      <trkpt lat="44.01225" lon="1.70793">
        <ele>312</ele>
        <time>2011-06-26T16:00:47Z</time>
      </trkpt>
      <trkpt lat="44.01222" lon="1.70801">
        <ele>313</ele>
        <time>2011-06-26T16:00:49Z</time>
      </trkpt>
      <trkpt lat="44.01218" lon="1.70812">
        <ele>315</ele>
        <time>2011-06-26T16:00:52Z</time>
      </trkpt>
      <trkpt lat="44.01215" lon="1.70819">
        <ele>316</ele>
        <time>2011-06-26T16:00:54Z</time>
      </trkpt>
      <trkpt lat="44.01212" lon="1.70826">
        <ele>318</ele>
        <time>2011-06-26T16:00:56Z</time>
      </trkpt>
      <trkpt lat="44.01209" lon="1.70834">
        <ele>319</ele>
        <time>2011-06-26T16:00:58Z</time>
      </trkpt>
      <trkpt lat="44.01205" lon="1.70842">
        <ele>321</ele>
        <time>2011-06-26T16:01:00Z</time>
      </trkpt>
      <trkpt lat="44.01202" lon="1.7085">
        <ele>323</ele>
        <time>2011-06-26T16:01:02Z</time>
      </trkpt>
      <trkpt lat="44.01198" lon="1.70862">
        <ele>325</ele>
        <time>2011-06-26T16:01:05Z</time>
      </trkpt>
      <trkpt lat="44.01194" lon="1.70869">
        <ele>326</ele>
        <time>2011-06-26T16:01:07Z</time>
      </trkpt>
      <trkpt lat="44.0119" lon="1.70879">
        <ele>327</ele>
        <time>2011-06-26T16:01:10Z</time>
      </trkpt>
      <trkpt lat="44.01186" lon="1.70887">
        <ele>328</ele>
        <time>2011-06-26T16:01:12Z</time>
      </trkpt>
      <trkpt lat="44.01181" lon="1.70899">
        <ele>329</ele>
        <time>2011-06-26T16:01:15Z</time>
      </trkpt>
      <trkpt lat="44.01178" lon="1.70905">
        <ele>330</ele>
        <time>2011-06-26T16:01:17Z</time>
      </trkpt>
      <trkpt lat="44.01173" lon="1.70915">
        <ele>331</ele>
        <time>2011-06-26T16:01:20Z</time>
      </trkpt>
      <trkpt lat="44.0117" lon="1.70923">
        <ele>332</ele>
        <time>2011-06-26T16:01:22Z</time>
      </trkpt>
      <trkpt lat="44.01165" lon="1.70934">
        <ele>332</ele>
        <time>2011-06-26T16:01:25Z</time>
      </trkpt>
      <trkpt lat="44.01162" lon="1.70942">
        <ele>333</ele>
        <time>2011-06-26T16:01:27Z</time>
      </trkpt>
      <trkpt lat="44.01157" lon="1.70955">
        <ele>334</ele>
        <time>2011-06-26T16:01:30Z</time>
      </trkpt>
      <trkpt lat="44.01154" lon="1.70962">
        <ele>335</ele>
        <time>2011-06-26T16:01:32Z</time>
      </trkpt>
      <trkpt lat="44.01148" lon="1.70973">
        <ele>336</ele>
        <time>2011-06-26T16:01:35Z</time>
      </trkpt>
      <trkpt lat="44.01143" lon="1.70981">
        <ele>336</ele>
        <time>2011-06-26T16:01:37Z</time>
      </trkpt>
      <trkpt lat="44.01137" lon="1.70992">
        <ele>337</ele>
        <time>2011-06-26T16:01:40Z</time>
      </trkpt>
      <trkpt lat="44.01133" lon="1.71">
        <ele>337</ele>
        <time>2011-06-26T16:01:42Z</time>
      </trkpt>
      <trkpt lat="44.01127" lon="1.71015">
        <ele>337</ele>
        <time>2011-06-26T16:01:45Z</time>
      </trkpt>
      <trkpt lat="44.01124" lon="1.71025">
        <ele>337</ele>
        <time>2011-06-26T16:01:47Z</time>
      </trkpt>
      <trkpt lat="44.0112" lon="1.71038">
        <ele>337</ele>
        <time>2011-06-26T16:01:50Z</time>
      </trkpt>
      <trkpt lat="44.01118" lon="1.71047">
        <ele>337</ele>
        <time>2011-06-26T16:01:52Z</time>
      </trkpt>
      <trkpt lat="44.01115" lon="1.71062">
        <ele>337</ele>
        <time>2011-06-26T16:01:55Z</time>
      </trkpt>
      <trkpt lat="44.01112" lon="1.71071">
        <ele>337</ele>
        <time>2011-06-26T16:01:57Z</time>
      </trkpt>
      <trkpt lat="44.01108" lon="1.71085">
        <ele>337</ele>
        <time>2011-06-26T16:02:00Z</time>
      </trkpt>
      <trkpt lat="44.01105" lon="1.71096">
        <ele>338</ele>
        <time>2011-06-26T16:02:02Z</time>
      </trkpt>
      <trkpt lat="44.01101" lon="1.71108">
        <ele>339</ele>
        <time>2011-06-26T16:02:05Z</time>
      </trkpt>
      <trkpt lat="44.01098" lon="1.71116">
        <ele>339</ele>
        <time>2011-06-26T16:02:07Z</time>
      </trkpt>
      <trkpt lat="44.01093" lon="1.71127">
        <ele>339</ele>
        <time>2011-06-26T16:02:10Z</time>
      </trkpt>
      <trkpt lat="44.0109" lon="1.71133">
        <ele>339</ele>
        <time>2011-06-26T16:02:12Z</time>
      </trkpt>
      <trkpt lat="44.01085" lon="1.71136">
        <ele>338</ele>
        <time>2011-06-26T16:02:15Z</time>
      </trkpt>
      <trkpt lat="44.01084" lon="1.71142">
        <ele>336</ele>
        <time>2011-06-26T16:02:17Z</time>
      </trkpt>
      <trkpt lat="44.01081" lon="1.71151">
        <ele>335</ele>
        <time>2011-06-26T16:02:20Z</time>
      </trkpt>
      <trkpt lat="44.0108" lon="1.71158">
        <ele>334</ele>
        <time>2011-06-26T16:02:22Z</time>
      </trkpt>
      <trkpt lat="44.01081" lon="1.7117">
        <ele>334</ele>
        <time>2011-06-26T16:02:25Z</time>
      </trkpt>
      <trkpt lat="44.01083" lon="1.71177">
        <ele>333</ele>
        <time>2011-06-26T16:02:27Z</time>
      </trkpt>
      <trkpt lat="44.01088" lon="1.71188">
        <ele>333</ele>
        <time>2011-06-26T16:02:30Z</time>
      </trkpt>
      <trkpt lat="44.01092" lon="1.71196">
        <ele>333</ele>
        <time>2011-06-26T16:02:32Z</time>
      </trkpt>
      <trkpt lat="44.01098" lon="1.7121">
        <ele>333</ele>
        <time>2011-06-26T16:02:35Z</time>
      </trkpt>
      <trkpt lat="44.01102" lon="1.7122">
        <ele>333</ele>
        <time>2011-06-26T16:02:37Z</time>
      </trkpt>
      <trkpt lat="44.01109" lon="1.71234">
        <ele>333</ele>
        <time>2011-06-26T16:02:40Z</time>
      </trkpt>
      <trkpt lat="44.01114" lon="1.71243">
        <ele>333</ele>
        <time>2011-06-26T16:02:42Z</time>
      </trkpt>
      <trkpt lat="44.01122" lon="1.71257">
        <ele>333</ele>
        <time>2011-06-26T16:02:45Z</time>
      </trkpt>
      <trkpt lat="44.01128" lon="1.71266">
        <ele>333</ele>
        <time>2011-06-26T16:02:47Z</time>
      </trkpt>
      <trkpt lat="44.01135" lon="1.71281">
        <ele>332</ele>
        <time>2011-06-26T16:02:50Z</time>
      </trkpt>
      <trkpt lat="44.0114" lon="1.71291">
        <ele>330</ele>
        <time>2011-06-26T16:02:52Z</time>
      </trkpt>
      <trkpt lat="44.01146" lon="1.71308">
        <ele>329</ele>
        <time>2011-06-26T16:02:55Z</time>
      </trkpt>
      <trkpt lat="44.0115" lon="1.71319">
        <ele>329</ele>
        <time>2011-06-26T16:02:57Z</time>
      </trkpt>
      <trkpt lat="44.01156" lon="1.71336">
        <ele>329</ele>
        <time>2011-06-26T16:03:00Z</time>
      </trkpt>
      <trkpt lat="44.0116" lon="1.71347">
        <ele>329</ele>
        <time>2011-06-26T16:03:02Z</time>
      </trkpt>
      <trkpt lat="44.01166" lon="1.71365">
        <ele>329</ele>
        <time>2011-06-26T16:03:05Z</time>
      </trkpt>
      <trkpt lat="44.01171" lon="1.71376">
        <ele>329</ele>
        <time>2011-06-26T16:03:07Z</time>
      </trkpt>
      <trkpt lat="44.01179" lon="1.71392">
        <ele>329</ele>
        <time>2011-06-26T16:03:10Z</time>
      </trkpt>
      <trkpt lat="44.01184" lon="1.71402">
        <ele>329</ele>
        <time>2011-06-26T16:03:12Z</time>
      </trkpt>
      <trkpt lat="44.01193" lon="1.71415">
        <ele>329</ele>
        <time>2011-06-26T16:03:15Z</time>
      </trkpt>
      <trkpt lat="44.01198" lon="1.71424">
        <ele>329</ele>
        <time>2011-06-26T16:03:17Z</time>
      </trkpt>
      <trkpt lat="44.01206" lon="1.7143">
        <ele>329</ele>
        <time>2011-06-26T16:03:19Z</time>
      </trkpt>
      <trkpt lat="44.01216" lon="1.71435">
        <ele>329</ele>
        <time>2011-06-26T16:03:21Z</time>
      </trkpt>
      <trkpt lat="44.01225" lon="1.71441">
        <ele>330</ele>
        <time>2011-06-26T16:03:23Z</time>
      </trkpt>
      <trkpt lat="44.01236" lon="1.71448">
        <ele>330</ele>
        <time>2011-06-26T16:03:25Z</time>
      </trkpt>
      <trkpt lat="44.01246" lon="1.71457">
        <ele>331</ele>
        <time>2011-06-26T16:03:27Z</time>
      </trkpt>
      <trkpt lat="44.01256" lon="1.71474">
        <ele>331</ele>
        <time>2011-06-26T16:03:30Z</time>
      </trkpt>
      <trkpt lat="44.0126" lon="1.71487">
        <ele>331</ele>
        <time>2011-06-26T16:03:32Z</time>
      </trkpt>
      <trkpt lat="44.01268" lon="1.71506">
        <ele>331</ele>
        <time>2011-06-26T16:03:35Z</time>
      </trkpt>
      <trkpt lat="44.01272" lon="1.71519">
        <ele>331</ele>
        <time>2011-06-26T16:03:37Z</time>
      </trkpt>
      <trkpt lat="44.01273" lon="1.71542">
        <ele>331</ele>
        <time>2011-06-26T16:03:40Z</time>
      </trkpt>
      <trkpt lat="44.01273" lon="1.71558">
        <ele>331</ele>
        <time>2011-06-26T16:03:42Z</time>
      </trkpt>
      <trkpt lat="44.01281" lon="1.71575">
        <ele>331</ele>
        <time>2011-06-26T16:03:45Z</time>
      </trkpt>
      <trkpt lat="44.01289" lon="1.7158">
        <ele>332</ele>
        <time>2011-06-26T16:03:47Z</time>
      </trkpt>
      <trkpt lat="44.01303" lon="1.71582">
        <ele>332</ele>
        <time>2011-06-26T16:03:50Z</time>
      </trkpt>
      <trkpt lat="44.01313" lon="1.71583">
        <ele>333</ele>
        <time>2011-06-26T16:03:52Z</time>
      </trkpt>
      <trkpt lat="44.01328" lon="1.71585">
        <ele>333</ele>
        <time>2011-06-26T16:03:55Z</time>
      </trkpt>
      <trkpt lat="44.01338" lon="1.71587">
        <ele>333</ele>
        <time>2011-06-26T16:03:57Z</time>
      </trkpt>
      <trkpt lat="44.01352" lon="1.7159">
        <ele>333</ele>
        <time>2011-06-26T16:04:00Z</time>
      </trkpt>
      <trkpt lat="44.01361" lon="1.71592">
        <ele>333</ele>
        <time>2011-06-26T16:04:02Z</time>
      </trkpt>
      <trkpt lat="44.01374" lon="1.71597">
        <ele>333</ele>
        <time>2011-06-26T16:04:05Z</time>
      </trkpt>
      <trkpt lat="44.01381" lon="1.71606">
        <ele>333</ele>
        <time>2011-06-26T16:04:07Z</time>
      </trkpt>
      <trkpt lat="44.0138" lon="1.71618">
        <ele>334</ele>
        <time>2011-06-26T16:04:09Z</time>
      </trkpt>
      <trkpt lat="44.01375" lon="1.71623">
        <ele>335</ele>
        <time>2011-06-26T16:04:11Z</time>
      </trkpt>
      <trkpt lat="44.01365" lon="1.7163">
        <ele>337</ele>
        <time>2011-06-26T16:04:13Z</time>
      </trkpt>
      <trkpt lat="44.01356" lon="1.71641">
        <ele>337</ele>
        <time>2011-06-26T16:04:15Z</time>
      </trkpt>
      <trkpt lat="44.01348" lon="1.71651">
        <ele>338</ele>
        <time>2011-06-26T16:04:17Z</time>
      </trkpt>
      <trkpt lat="44.01339" lon="1.71669">
        <ele>338</ele>
        <time>2011-06-26T16:04:20Z</time>
      </trkpt>
      <trkpt lat="44.01333" lon="1.7168">
        <ele>338</ele>
        <time>2011-06-26T16:04:22Z</time>
      </trkpt>
      <trkpt lat="44.01328" lon="1.71694">
        <ele>338</ele>
        <time>2011-06-26T16:04:24Z</time>
      </trkpt>
      <trkpt lat="44.01328" lon="1.71707">
        <ele>338</ele>
        <time>2011-06-26T16:04:26Z</time>
      </trkpt>
      <trkpt lat="44.01332" lon="1.71721">
        <ele>336</ele>
        <time>2011-06-26T16:04:28Z</time>
      </trkpt>
      <trkpt lat="44.01337" lon="1.71734">
        <ele>334</ele>
        <time>2011-06-26T16:04:30Z</time>
      </trkpt>
      <trkpt lat="44.01343" lon="1.71746">
        <ele>332</ele>
        <time>2011-06-26T16:04:32Z</time>
      </trkpt>
      <trkpt lat="44.01352" lon="1.71762">
        <ele>331</ele>
        <time>2011-06-26T16:04:35Z</time>
      </trkpt>
      <trkpt lat="44.0136" lon="1.71772">
        <ele>330</ele>
        <time>2011-06-26T16:04:37Z</time>
      </trkpt>
      <trkpt lat="44.0137" lon="1.71788">
        <ele>329</ele>
        <time>2011-06-26T16:04:40Z</time>
      </trkpt>
      <trkpt lat="44.01377" lon="1.71798">
        <ele>329</ele>
        <time>2011-06-26T16:04:42Z</time>
      </trkpt>
      <trkpt lat="44.01388" lon="1.71813">
        <ele>329</ele>
        <time>2011-06-26T16:04:45Z</time>
      </trkpt>
      <trkpt lat="44.01395" lon="1.71824">
        <ele>328</ele>
        <time>2011-06-26T16:04:47Z</time>
      </trkpt>
      <trkpt lat="44.01405" lon="1.71838">
        <ele>328</ele>
        <time>2011-06-26T16:04:50Z</time>
      </trkpt>
      <trkpt lat="44.01413" lon="1.71848">
        <ele>328</ele>
        <time>2011-06-26T16:04:52Z</time>
      </trkpt>
      <trkpt lat="44.01419" lon="1.71859">
        <ele>328</ele>
        <time>2011-06-26T16:04:54Z</time>
      </trkpt>
      <trkpt lat="44.01425" lon="1.71873">
        <ele>328</ele>
        <time>2011-06-26T16:04:56Z</time>
      </trkpt>
      <trkpt lat="44.0143" lon="1.71887">
        <ele>328</ele>
        <time>2011-06-26T16:04:58Z</time>
      </trkpt>
      <trkpt lat="44.01436" lon="1.71899">
        <ele>328</ele>
        <time>2011-06-26T16:05:00Z</time>
      </trkpt>
      <trkpt lat="44.01443" lon="1.7191">
        <ele>330</ele>
        <time>2011-06-26T16:05:02Z</time>
      </trkpt>
      <trkpt lat="44.01452" lon="1.71926">
        <ele>332</ele>
        <time>2011-06-26T16:05:05Z</time>
      </trkpt>
      <trkpt lat="44.01458" lon="1.71938">
        <ele>332</ele>
        <time>2011-06-26T16:05:07Z</time>
      </trkpt>
      <trkpt lat="44.01464" lon="1.71949">
        <ele>332</ele>
        <time>2011-06-26T16:05:09Z</time>
      </trkpt>
      <trkpt lat="44.01471" lon="1.71961">
        <ele>332</ele>
        <time>2011-06-26T16:05:11Z</time>
      </trkpt>
      <trkpt lat="44.01478" lon="1.71972">
        <ele>332</ele>
        <time>2011-06-26T16:05:13Z</time>
      </trkpt>
      <trkpt lat="44.01487" lon="1.71982">
        <ele>332</ele>
        <time>2011-06-26T16:05:15Z</time>
      </trkpt>
      <trkpt lat="44.01494" lon="1.71991">
        <ele>332</ele>
        <time>2011-06-26T16:05:17Z</time>
      </trkpt>
      <trkpt lat="44.01506" lon="1.72006">
        <ele>330</ele>
        <time>2011-06-26T16:05:20Z</time>
      </trkpt>
      <trkpt lat="44.01514" lon="1.72016">
        <ele>328</ele>
        <time>2011-06-26T16:05:22Z</time>
      </trkpt>
      <trkpt lat="44.01525" lon="1.72029">
        <ele>326</ele>
        <time>2011-06-26T16:05:25Z</time>
      </trkpt>
      <trkpt lat="44.01532" lon="1.72039">
        <ele>324</ele>
        <time>2011-06-26T16:05:27Z</time>
      </trkpt>
      <trkpt lat="44.0154" lon="1.72049">
        <ele>322</ele>
        <time>2011-06-26T16:05:29Z</time>
      </trkpt>
      <trkpt lat="44.01548" lon="1.72059">
        <ele>320</ele>
        <time>2011-06-26T16:05:31Z</time>
      </trkpt>
      <trkpt lat="44.01556" lon="1.72069">
        <ele>318</ele>
        <time>2011-06-26T16:05:33Z</time>
      </trkpt>
      <trkpt lat="44.01562" lon="1.7208">
        <ele>317</ele>
        <time>2011-06-26T16:05:35Z</time>
      </trkpt>
      <trkpt lat="44.0157" lon="1.7209">
        <ele>316</ele>
        <time>2011-06-26T16:05:37Z</time>
      </trkpt>
      <trkpt lat="44.01577" lon="1.721">
        <ele>315</ele>
        <time>2011-06-26T16:05:39Z</time>
      </trkpt>
      <trkpt lat="44.01585" lon="1.7211">
        <ele>315</ele>
        <time>2011-06-26T16:05:41Z</time>
      </trkpt>
      <trkpt lat="44.01593" lon="1.7212">
        <ele>314</ele>
        <time>2011-06-26T16:05:43Z</time>
      </trkpt>
      <trkpt lat="44.016" lon="1.72133">
        <ele>314</ele>
        <time>2011-06-26T16:05:45Z</time>
      </trkpt>
      <trkpt lat="44.01608" lon="1.72142">
        <ele>315</ele>
        <time>2011-06-26T16:05:47Z</time>
      </trkpt>
      <trkpt lat="44.01622" lon="1.72148">
        <ele>318</ele>
        <time>2011-06-26T16:05:50Z</time>
      </trkpt>
      <trkpt lat="44.0163" lon="1.72151">
        <ele>321</ele>
        <time>2011-06-26T16:05:52Z</time>
      </trkpt>
      <trkpt lat="44.01644" lon="1.72153">
        <ele>325</ele>
        <time>2011-06-26T16:05:55Z</time>
      </trkpt>
      <trkpt lat="44.01653" lon="1.72155">
        <ele>327</ele>
        <time>2011-06-26T16:05:57Z</time>
      </trkpt>
      <trkpt lat="44.01664" lon="1.72167">
        <ele>330</ele>
        <time>2011-06-26T16:06:00Z</time>
      </trkpt>
      <trkpt lat="44.01671" lon="1.72177">
        <ele>332</ele>
        <time>2011-06-26T16:06:02Z</time>
      </trkpt>
      <trkpt lat="44.01681" lon="1.72193">
        <ele>335</ele>
        <time>2011-06-26T16:06:05Z</time>
      </trkpt>
      <trkpt lat="44.01688" lon="1.72202">
        <ele>337</ele>
        <time>2011-06-26T16:06:07Z</time>
      </trkpt>
      <trkpt lat="44.01701" lon="1.72209">
        <ele>340</ele>
        <time>2011-06-26T16:06:10Z</time>
      </trkpt>
      <trkpt lat="44.0171" lon="1.72213">
        <ele>342</ele>
        <time>2011-06-26T16:06:12Z</time>
      </trkpt>
      <trkpt lat="44.01723" lon="1.72223">
        <ele>343</ele>
        <time>2011-06-26T16:06:15Z</time>
      </trkpt>
      <trkpt lat="44.01731" lon="1.72232">
        <ele>343</ele>
        <time>2011-06-26T16:06:17Z</time>
      </trkpt>
      <trkpt lat="44.01741" lon="1.72248">
        <ele>343</ele>
        <time>2011-06-26T16:06:20Z</time>
      </trkpt>
      <trkpt lat="44.01749" lon="1.72256">
        <ele>345</ele>
        <time>2011-06-26T16:06:22Z</time>
      </trkpt>
      <trkpt lat="44.01762" lon="1.7226">
        <ele>347</ele>
        <time>2011-06-26T16:06:25Z</time>
      </trkpt>
      <trkpt lat="44.01771" lon="1.72262">
        <ele>347</ele>
        <time>2011-06-26T16:06:27Z</time>
      </trkpt>
      <trkpt lat="44.01785" lon="1.72262">
        <ele>348</ele>
        <time>2011-06-26T16:06:30Z</time>
      </trkpt>
      <trkpt lat="44.01794" lon="1.72267">
        <ele>348</ele>
        <time>2011-06-26T16:06:32Z</time>
      </trkpt>
      <trkpt lat="44.01804" lon="1.72281">
        <ele>349</ele>
        <time>2011-06-26T16:06:35Z</time>
      </trkpt>
      <trkpt lat="44.01809" lon="1.72292">
        <ele>349</ele>
        <time>2011-06-26T16:06:37Z</time>
      </trkpt>
      <trkpt lat="44.01819" lon="1.72308">
        <ele>349</ele>
        <time>2011-06-26T16:06:40Z</time>
      </trkpt>
      <trkpt lat="44.01827" lon="1.72314">
        <ele>349</ele>
        <time>2011-06-26T16:06:42Z</time>
      </trkpt>
      <trkpt lat="44.01842" lon="1.72311">
        <ele>349</ele>
        <time>2011-06-26T16:06:45Z</time>
      </trkpt>
      <trkpt lat="44.01852" lon="1.72302">
        <ele>349</ele>
        <time>2011-06-26T16:06:47Z</time>
      </trkpt>
      <trkpt lat="44.01865" lon="1.72287">
        <ele>349</ele>
        <time>2011-06-26T16:06:50Z</time>
      </trkpt>
      <trkpt lat="44.01873" lon="1.72278">
        <ele>349</ele>
        <time>2011-06-26T16:06:52Z</time>
      </trkpt>
      <trkpt lat="44.01887" lon="1.7227">
        <ele>349</ele>
        <time>2011-06-26T16:06:55Z</time>
      </trkpt>
      <trkpt lat="44.01897" lon="1.72271">
        <ele>348</ele>
        <time>2011-06-26T16:06:57Z</time>
      </trkpt>
      <trkpt lat="44.01908" lon="1.72284">
        <ele>347</ele>
        <time>2011-06-26T16:07:00Z</time>
      </trkpt>
      <trkpt lat="44.01916" lon="1.72291">
        <ele>347</ele>
        <time>2011-06-26T16:07:02Z</time>
      </trkpt>
      <trkpt lat="44.01929" lon="1.723">
        <ele>347</ele>
        <time>2011-06-26T16:07:05Z</time>
      </trkpt>
      <trkpt lat="44.01939" lon="1.72304">
        <ele>347</ele>
        <time>2011-06-26T16:07:07Z</time>
      </trkpt>
      <trkpt lat="44.01949" lon="1.72309">
        <ele>347</ele>
        <time>2011-06-26T16:07:09Z</time>
      </trkpt>
      <trkpt lat="44.0196" lon="1.72312">
        <ele>347</ele>
        <time>2011-06-26T16:07:11Z</time>
      </trkpt>
      <trkpt lat="44.0197" lon="1.72317">
        <ele>347</ele>
        <time>2011-06-26T16:07:13Z</time>
      </trkpt>
      <trkpt lat="44.01981" lon="1.72333">
        <ele>347</ele>
        <time>2011-06-26T16:07:16Z</time>
      </trkpt>
      <trkpt lat="44.01985" lon="1.72345">
        <ele>347</ele>
        <time>2011-06-26T16:07:18Z</time>
      </trkpt>
      <trkpt lat="44.01986" lon="1.72358">
        <ele>347</ele>
        <time>2011-06-26T16:07:20Z</time>
      </trkpt>
      <trkpt lat="44.01985" lon="1.72372">
        <ele>347</ele>
        <time>2011-06-26T16:07:22Z</time>
      </trkpt>
      <trkpt lat="44.01987" lon="1.72391">
        <ele>348</ele>
        <time>2011-06-26T16:07:25Z</time>
      </trkpt>
      <trkpt lat="44.0199" lon="1.72404">
        <ele>348</ele>
        <time>2011-06-26T16:07:27Z</time>
      </trkpt>
      <trkpt lat="44.01993" lon="1.72416">
        <ele>348</ele>
        <time>2011-06-26T16:07:29Z</time>
      </trkpt>
      <trkpt lat="44.01996" lon="1.72428">
        <ele>348</ele>
        <time>2011-06-26T16:07:31Z</time>
      </trkpt>
      <trkpt lat="44.01999" lon="1.72439">
        <ele>348</ele>
        <time>2011-06-26T16:07:33Z</time>
      </trkpt>
      <trkpt lat="44.02002" lon="1.72451">
        <ele>348</ele>
        <time>2011-06-26T16:07:35Z</time>
      </trkpt>
      <trkpt lat="44.02005" lon="1.72461">
        <ele>348</ele>
        <time>2011-06-26T16:07:37Z</time>
      </trkpt>
      <trkpt lat="44.0201" lon="1.72471">
        <ele>348</ele>
        <time>2011-06-26T16:07:39Z</time>
      </trkpt>
      <trkpt lat="44.02015" lon="1.7248">
        <ele>348</ele>
        <time>2011-06-26T16:07:41Z</time>
      </trkpt>
      <trkpt lat="44.02021" lon="1.72487">
        <ele>348</ele>
        <time>2011-06-26T16:07:43Z</time>
      </trkpt>
      <trkpt lat="44.02028" lon="1.72494">
        <ele>348</ele>
        <time>2011-06-26T16:07:45Z</time>
      </trkpt>
      <trkpt lat="44.02036" lon="1.72498">
        <ele>348</ele>
        <time>2011-06-26T16:07:47Z</time>
      </trkpt>
      <trkpt lat="44.02046" lon="1.725">
        <ele>348</ele>
        <time>2011-06-26T16:07:49Z</time>
      </trkpt>
      <trkpt lat="44.02055" lon="1.72501">
        <ele>348</ele>
        <time>2011-06-26T16:07:51Z</time>
      </trkpt>
      <trkpt lat="44.02066" lon="1.72502">
        <ele>348</ele>
        <time>2011-06-26T16:07:53Z</time>
      </trkpt>
      <trkpt lat="44.02076" lon="1.72501">
        <ele>348</ele>
        <time>2011-06-26T16:07:55Z</time>
      </trkpt>
      <trkpt lat="44.02086" lon="1.725">
        <ele>348</ele>
        <time>2011-06-26T16:07:57Z</time>
      </trkpt>
      <trkpt lat="44.02095" lon="1.725">
        <ele>348</ele>
        <time>2011-06-26T16:07:59Z</time>
      </trkpt>
      <trkpt lat="44.02104" lon="1.72501">
        <ele>348</ele>
        <time>2011-06-26T16:08:01Z</time>
      </trkpt>
      <trkpt lat="44.02113" lon="1.72502">
        <ele>348</ele>
        <time>2011-06-26T16:08:03Z</time>
      </trkpt>
      <trkpt lat="44.02126" lon="1.72502">
        <ele>348</ele>
        <time>2011-06-26T16:08:06Z</time>
      </trkpt>
      <trkpt lat="44.02133" lon="1.72502">
        <ele>348</ele>
        <time>2011-06-26T16:08:08Z</time>
      </trkpt>
      <trkpt lat="44.02137" lon="1.72499">
        <ele>348</ele>
        <time>2011-06-26T16:08:10Z</time>
      </trkpt>
      <trkpt lat="44.02139" lon="1.72496">
        <ele>348</ele>
        <time>2011-06-26T16:08:12Z</time>
      </trkpt>
      <trkpt lat="44.0214" lon="1.72492">
        <ele>347</ele>
        <time>2011-06-26T16:08:16Z</time>
      </trkpt>
      <trkpt lat="44.02141" lon="1.72491">
        <ele>347</ele>
        <time>2011-06-26T16:08:18Z</time>
      </trkpt>
      <trkpt lat="44.02142" lon="1.72492">
        <ele>347</ele>
        <time>2011-06-26T16:08:20Z</time>
      </trkpt>
      <trkpt lat="44.02144" lon="1.72494">
        <ele>347</ele>
        <time>2011-06-26T16:08:22Z</time>
      </trkpt>
      <trkpt lat="44.02142" lon="1.72493">
        <ele>347</ele>
        <time>2011-06-26T16:08:48Z</time>
      </trkpt>
      <trkpt lat="44.02141" lon="1.72493">
        <ele>347</ele>
        <time>2011-06-26T16:08:50Z</time>
      </trkpt>
      <trkpt lat="44.0214" lon="1.72492">
        <ele>347</ele>
        <time>2011-06-26T16:08:52Z</time>
      </trkpt>
      <trkpt lat="44.0214" lon="1.72494">
        <ele>347</ele>
        <time>2011-06-26T16:09:03Z</time>
      </trkpt>
      <trkpt lat="44.02138" lon="1.72492">
        <ele>347</ele>
        <time>2011-06-26T16:09:09Z</time>
      </trkpt>
      <trkpt lat="44.02133" lon="1.72491">
        <ele>347</ele>
        <time>2011-06-26T16:09:11Z</time>
      </trkpt>
      <trkpt lat="44.02125" lon="1.72489">
        <ele>347</ele>
        <time>2011-06-26T16:09:13Z</time>
      </trkpt>
      <trkpt lat="44.02127" lon="1.72488">
        <ele>347</ele>
        <time>2011-06-26T16:09:15Z</time>
      </trkpt>
      <trkpt lat="44.02132" lon="1.72488">
        <ele>347</ele>
        <time>2011-06-26T16:09:17Z</time>
      </trkpt>
      <trkpt lat="44.02136" lon="1.72488">
        <ele>346</ele>
        <time>2011-06-26T16:09:20Z</time>
      </trkpt>
      <trkpt lat="44.02139" lon="1.72487">
        <ele>344</ele>
        <time>2011-06-26T16:09:22Z</time>
      </trkpt>
      <trkpt lat="44.0214" lon="1.72489">
        <ele>344</ele>
        <time>2011-06-26T16:09:25Z</time>
      </trkpt>
      <trkpt lat="44.0214" lon="1.72491">
        <ele>344</ele>
        <time>2011-06-26T16:09:28Z</time>
      </trkpt>
      <trkpt lat="44.02142" lon="1.72492">
        <ele>344</ele>
        <time>2011-06-26T16:09:31Z</time>
      </trkpt>
      <trkpt lat="44.02143" lon="1.72493">
        <ele>344</ele>
        <time>2011-06-26T16:09:34Z</time>
      </trkpt>
      <trkpt lat="44.02144" lon="1.72494">
        <ele>344</ele>
        <time>2011-06-26T16:09:37Z</time>
      </trkpt>
      <trkpt lat="44.02146" lon="1.72495">
        <ele>344</ele>
        <time>2011-06-26T16:09:39Z</time>
      </trkpt>
      <trkpt lat="44.02147" lon="1.72494">
        <ele>344</ele>
        <time>2011-06-26T16:09:43Z</time>
      </trkpt>
      <trkpt lat="44.02149" lon="1.72489">
        <ele>344</ele>
        <time>2011-06-26T16:09:45Z</time>
      </trkpt>
      <trkpt lat="44.02153" lon="1.72482">
        <ele>344</ele>
        <time>2011-06-26T16:09:47Z</time>
      </trkpt>
      <trkpt lat="44.02156" lon="1.72473">
        <ele>344</ele>
        <time>2011-06-26T16:09:49Z</time>
      </trkpt>
      <trkpt lat="44.0216" lon="1.72462">
        <ele>344</ele>
        <time>2011-06-26T16:09:51Z</time>
      </trkpt>
      <trkpt lat="44.02163" lon="1.7245">
        <ele>343</ele>
        <time>2011-06-26T16:09:53Z</time>
      </trkpt>
      <trkpt lat="44.02166" lon="1.72435">
        <ele>342</ele>
        <time>2011-06-26T16:09:55Z</time>
      </trkpt>
      <trkpt lat="44.02169" lon="1.72419">
        <ele>341</ele>
        <time>2011-06-26T16:09:57Z</time>
      </trkpt>
      <trkpt lat="44.02173" lon="1.72403">
        <ele>340</ele>
        <time>2011-06-26T16:09:59Z</time>
      </trkpt>
      <trkpt lat="44.02179" lon="1.72389">
        <ele>339</ele>
        <time>2011-06-26T16:10:01Z</time>
      </trkpt>
      <trkpt lat="44.02189" lon="1.72383">
        <ele>338</ele>
        <time>2011-06-26T16:10:03Z</time>
      </trkpt>
      <trkpt lat="44.02205" lon="1.72389">
        <ele>337</ele>
        <time>2011-06-26T16:10:06Z</time>
      </trkpt>
      <trkpt lat="44.0222" lon="1.72392">
        <ele>337</ele>
        <time>2011-06-26T16:10:08Z</time>
      </trkpt>
      <trkpt lat="44.02232" lon="1.72382">
        <ele>337</ele>
        <time>2011-06-26T16:10:10Z</time>
      </trkpt>
      <trkpt lat="44.02242" lon="1.72371">
        <ele>337</ele>
        <time>2011-06-26T16:10:12Z</time>
      </trkpt>
      <trkpt lat="44.02253" lon="1.72365">
        <ele>337</ele>
        <time>2011-06-26T16:10:14Z</time>
      </trkpt>
      <trkpt lat="44.02266" lon="1.72373">
        <ele>337</ele>
        <time>2011-06-26T16:10:16Z</time>
      </trkpt>
      <trkpt lat="44.02279" lon="1.72383">
        <ele>337</ele>
        <time>2011-06-26T16:10:18Z</time>
      </trkpt>
      <trkpt lat="44.02293" lon="1.7239">
        <ele>337</ele>
        <time>2011-06-26T16:10:20Z</time>
      </trkpt>
      <trkpt lat="44.02307" lon="1.7239">
        <ele>337</ele>
        <time>2011-06-26T16:10:22Z</time>
      </trkpt>
      <trkpt lat="44.02319" lon="1.72389">
        <ele>337</ele>
        <time>2011-06-26T16:10:24Z</time>
      </trkpt>
      <trkpt lat="44.02332" lon="1.72396">
        <ele>337</ele>
        <time>2011-06-26T16:10:26Z</time>
      </trkpt>
      <trkpt lat="44.02343" lon="1.72407">
        <ele>337</ele>
        <time>2011-06-26T16:10:28Z</time>
      </trkpt>
      <trkpt lat="44.02357" lon="1.72412">
        <ele>337</ele>
        <time>2011-06-26T16:10:30Z</time>
      </trkpt>
      <trkpt lat="44.02372" lon="1.72411">
        <ele>337</ele>
        <time>2011-06-26T16:10:32Z</time>
      </trkpt>
      <trkpt lat="44.02387" lon="1.72403">
        <ele>337</ele>
        <time>2011-06-26T16:10:34Z</time>
      </trkpt>
      <trkpt lat="44.02398" lon="1.7239">
        <ele>337</ele>
        <time>2011-06-26T16:10:36Z</time>
      </trkpt>
      <trkpt lat="44.02409" lon="1.72377">
        <ele>337</ele>
        <time>2011-06-26T16:10:38Z</time>
      </trkpt>
      <trkpt lat="44.02419" lon="1.72374">
        <ele>336</ele>
        <time>2011-06-26T16:10:40Z</time>
      </trkpt>
      <trkpt lat="44.02425" lon="1.72385">
        <ele>335</ele>
        <time>2011-06-26T16:10:42Z</time>
      </trkpt>
      <trkpt lat="44.0243" lon="1.72401">
        <ele>334</ele>
        <time>2011-06-26T16:10:44Z</time>
      </trkpt>
      <trkpt lat="44.02441" lon="1.7242">
        <ele>334</ele>
        <time>2011-06-26T16:10:46Z</time>
      </trkpt>
      <trkpt lat="44.02455" lon="1.72438">
        <ele>333</ele>
        <time>2011-06-26T16:10:48Z</time>
      </trkpt>
      <trkpt lat="44.02471" lon="1.72444">
        <ele>332</ele>
        <time>2011-06-26T16:10:50Z</time>
      </trkpt>
      <trkpt lat="44.02483" lon="1.72457">
        <ele>332</ele>
        <time>2011-06-26T16:10:52Z</time>
      </trkpt>
      <trkpt lat="44.02491" lon="1.72472">
        <ele>332</ele>
        <time>2011-06-26T16:10:54Z</time>
      </trkpt>
      <trkpt lat="44.02494" lon="1.72489">
        <ele>332</ele>
        <time>2011-06-26T16:10:56Z</time>
      </trkpt>
      <trkpt lat="44.025" lon="1.72503">
        <ele>331</ele>
        <time>2011-06-26T16:10:58Z</time>
      </trkpt>
      <trkpt lat="44.02512" lon="1.72505">
        <ele>330</ele>
        <time>2011-06-26T16:11:00Z</time>
      </trkpt>
      <trkpt lat="44.02521" lon="1.72496">
        <ele>328</ele>
        <time>2011-06-26T16:11:02Z</time>
      </trkpt>
      <trkpt lat="44.0253" lon="1.72484">
        <ele>327</ele>
        <time>2011-06-26T16:11:04Z</time>
      </trkpt>
      <trkpt lat="44.02538" lon="1.72469">
        <ele>327</ele>
        <time>2011-06-26T16:11:06Z</time>
      </trkpt>
      <trkpt lat="44.02545" lon="1.72455">
        <ele>327</ele>
        <time>2011-06-26T16:11:08Z</time>
      </trkpt>
      <trkpt lat="44.02551" lon="1.72441">
        <ele>327</ele>
        <time>2011-06-26T16:11:10Z</time>
      </trkpt>
      <trkpt lat="44.02558" lon="1.72428">
        <ele>327</ele>
        <time>2011-06-26T16:11:12Z</time>
      </trkpt>
      <trkpt lat="44.02561" lon="1.72413">
        <ele>327</ele>
        <time>2011-06-26T16:11:14Z</time>
      </trkpt>
      <trkpt lat="44.02558" lon="1.72397">
        <ele>327</ele>
        <time>2011-06-26T16:11:16Z</time>
      </trkpt>
      <trkpt lat="44.02551" lon="1.72383">
        <ele>327</ele>
        <time>2011-06-26T16:11:18Z</time>
      </trkpt>
      <trkpt lat="44.02546" lon="1.72368">
        <ele>327</ele>
        <time>2011-06-26T16:11:20Z</time>
      </trkpt>
      <trkpt lat="44.02548" lon="1.72352">
        <ele>326</ele>
        <time>2011-06-26T16:11:22Z</time>
      </trkpt>
      <trkpt lat="44.02553" lon="1.72337">
        <ele>326</ele>
        <time>2011-06-26T16:11:24Z</time>
      </trkpt>
      <trkpt lat="44.0256" lon="1.72322">
        <ele>326</ele>
        <time>2011-06-26T16:11:26Z</time>
      </trkpt>
      <trkpt lat="44.02567" lon="1.72309">
        <ele>326</ele>
        <time>2011-06-26T16:11:28Z</time>
      </trkpt>
      <trkpt lat="44.02573" lon="1.72302">
        <ele>326</ele>
        <time>2011-06-26T16:11:30Z</time>
      </trkpt>
      <trkpt lat="44.02583" lon="1.72316">
        <ele>326</ele>
        <time>2011-06-26T16:11:32Z</time>
      </trkpt>
      <trkpt lat="44.02592" lon="1.7233">
        <ele>326</ele>
        <time>2011-06-26T16:11:34Z</time>
      </trkpt>
      <trkpt lat="44.026" lon="1.72343">
        <ele>326</ele>
        <time>2011-06-26T16:11:36Z</time>
      </trkpt>
      <trkpt lat="44.0261" lon="1.72352">
        <ele>326</ele>
        <time>2011-06-26T16:11:38Z</time>
      </trkpt>
      <trkpt lat="44.02621" lon="1.72357">
        <ele>326</ele>
        <time>2011-06-26T16:11:40Z</time>
      </trkpt>
      <trkpt lat="44.02633" lon="1.72357">
        <ele>326</ele>
        <time>2011-06-26T16:11:42Z</time>
      </trkpt>
      <trkpt lat="44.02644" lon="1.72356">
        <ele>326</ele>
        <time>2011-06-26T16:11:44Z</time>
      </trkpt>
      <trkpt lat="44.02656" lon="1.72356">
        <ele>326</ele>
        <time>2011-06-26T16:11:46Z</time>
      </trkpt>
      <trkpt lat="44.02665" lon="1.72364">
        <ele>326</ele>
        <time>2011-06-26T16:11:48Z</time>
      </trkpt>
      <trkpt lat="44.02671" lon="1.72378">
        <ele>326</ele>
        <time>2011-06-26T16:11:50Z</time>
      </trkpt>
      <trkpt lat="44.02676" lon="1.72391">
        <ele>326</ele>
        <time>2011-06-26T16:11:52Z</time>
      </trkpt>
      <trkpt lat="44.02686" lon="1.72397">
        <ele>326</ele>
        <time>2011-06-26T16:11:54Z</time>
      </trkpt>
      <trkpt lat="44.02696" lon="1.72394">
        <ele>326</ele>
        <time>2011-06-26T16:11:56Z</time>
      </trkpt>
      <trkpt lat="44.02705" lon="1.72384">
        <ele>326</ele>
        <time>2011-06-26T16:11:58Z</time>
      </trkpt>
      <trkpt lat="44.02712" lon="1.72371">
        <ele>326</ele>
        <time>2011-06-26T16:12:00Z</time>
      </trkpt>
      <trkpt lat="44.02719" lon="1.72358">
        <ele>326</ele>
        <time>2011-06-26T16:12:02Z</time>
      </trkpt>
      <trkpt lat="44.02726" lon="1.72345">
        <ele>326</ele>
        <time>2011-06-26T16:12:04Z</time>
      </trkpt>
      <trkpt lat="44.02734" lon="1.72333">
        <ele>326</ele>
        <time>2011-06-26T16:12:06Z</time>
      </trkpt>
      <trkpt lat="44.02743" lon="1.72322">
        <ele>325</ele>
        <time>2011-06-26T16:12:08Z</time>
      </trkpt>
      <trkpt lat="44.02754" lon="1.72314">
        <ele>325</ele>
        <time>2011-06-26T16:12:10Z</time>
      </trkpt>
      <trkpt lat="44.02766" lon="1.72308">
        <ele>324</ele>
        <time>2011-06-26T16:12:12Z</time>
      </trkpt>
      <trkpt lat="44.02776" lon="1.72298">
        <ele>324</ele>
        <time>2011-06-26T16:12:14Z</time>
      </trkpt>
      <trkpt lat="44.02782" lon="1.72284">
        <ele>324</ele>
        <time>2011-06-26T16:12:16Z</time>
      </trkpt>
      <trkpt lat="44.02787" lon="1.72269">
        <ele>324</ele>
        <time>2011-06-26T16:12:18Z</time>
      </trkpt>
      <trkpt lat="44.02793" lon="1.72255">
        <ele>324</ele>
        <time>2011-06-26T16:12:20Z</time>
      </trkpt>
      <trkpt lat="44.028" lon="1.72247">
        <ele>323</ele>
        <time>2011-06-26T16:12:22Z</time>
      </trkpt>
      <trkpt lat="44.02811" lon="1.72257">
        <ele>323</ele>
        <time>2011-06-26T16:12:24Z</time>
      </trkpt>
      <trkpt lat="44.02818" lon="1.72271">
        <ele>323</ele>
        <time>2011-06-26T16:12:26Z</time>
      </trkpt>
      <trkpt lat="44.02822" lon="1.72285">
        <ele>323</ele>
        <time>2011-06-26T16:12:28Z</time>
      </trkpt>
      <trkpt lat="44.0283" lon="1.72297">
        <ele>323</ele>
        <time>2011-06-26T16:12:30Z</time>
      </trkpt>
      <trkpt lat="44.0284" lon="1.72301">
        <ele>323</ele>
        <time>2011-06-26T16:12:32Z</time>
      </trkpt>
      <trkpt lat="44.02851" lon="1.72296">
        <ele>323</ele>
        <time>2011-06-26T16:12:34Z</time>
      </trkpt>
      <trkpt lat="44.02862" lon="1.72288">
        <ele>323</ele>
        <time>2011-06-26T16:12:36Z</time>
      </trkpt>
      <trkpt lat="44.02872" lon="1.7228">
        <ele>323</ele>
        <time>2011-06-26T16:12:38Z</time>
      </trkpt>
      <trkpt lat="44.02882" lon="1.72271">
        <ele>323</ele>
        <time>2011-06-26T16:12:40Z</time>
      </trkpt>
      <trkpt lat="44.02892" lon="1.72262">
        <ele>323</ele>
        <time>2011-06-26T16:12:42Z</time>
      </trkpt>
      <trkpt lat="44.02901" lon="1.72254">
        <ele>323</ele>
        <time>2011-06-26T16:12:44Z</time>
      </trkpt>
      <trkpt lat="44.02912" lon="1.72253">
        <ele>323</ele>
        <time>2011-06-26T16:12:46Z</time>
      </trkpt>
      <trkpt lat="44.0292" lon="1.72263">
        <ele>323</ele>
        <time>2011-06-26T16:12:48Z</time>
      </trkpt>
      <trkpt lat="44.02916" lon="1.72279">
        <ele>323</ele>
        <time>2011-06-26T16:12:50Z</time>
      </trkpt>
      <trkpt lat="44.02909" lon="1.72294">
        <ele>323</ele>
        <time>2011-06-26T16:12:52Z</time>
      </trkpt>
      <trkpt lat="44.02903" lon="1.7231">
        <ele>323</ele>
        <time>2011-06-26T16:12:54Z</time>
      </trkpt>
      <trkpt lat="44.02898" lon="1.72327">
        <ele>323</ele>
        <time>2011-06-26T16:12:56Z</time>
      </trkpt>
      <trkpt lat="44.02896" lon="1.72343">
        <ele>323</ele>
        <time>2011-06-26T16:12:58Z</time>
      </trkpt>
      <trkpt lat="44.02896" lon="1.7236">
        <ele>323</ele>
        <time>2011-06-26T16:13:00Z</time>
      </trkpt>
      <trkpt lat="44.02897" lon="1.72377">
        <ele>323</ele>
        <time>2011-06-26T16:13:02Z</time>
      </trkpt>
      <trkpt lat="44.029" lon="1.72393">
        <ele>323</ele>
        <time>2011-06-26T16:13:04Z</time>
      </trkpt>
      <trkpt lat="44.02907" lon="1.72407">
        <ele>323</ele>
        <time>2011-06-26T16:13:06Z</time>
      </trkpt>
      <trkpt lat="44.02914" lon="1.7242">
        <ele>323</ele>
        <time>2011-06-26T16:13:08Z</time>
      </trkpt>
      <trkpt lat="44.02923" lon="1.7243">
        <ele>323</ele>
        <time>2011-06-26T16:13:10Z</time>
      </trkpt>
      <trkpt lat="44.0293" lon="1.72444">
        <ele>324</ele>
        <time>2011-06-26T16:13:12Z</time>
      </trkpt>
      <trkpt lat="44.0293" lon="1.7246">
        <ele>324</ele>
        <time>2011-06-26T16:13:14Z</time>
      </trkpt>
      <trkpt lat="44.02926" lon="1.72475">
        <ele>325</ele>
        <time>2011-06-26T16:13:16Z</time>
      </trkpt>
      <trkpt lat="44.02919" lon="1.72488">
        <ele>325</ele>
        <time>2011-06-26T16:13:18Z</time>
      </trkpt>
      <trkpt lat="44.02914" lon="1.72503">
        <ele>326</ele>
        <time>2011-06-26T16:13:20Z</time>
      </trkpt>
      <trkpt lat="44.02913" lon="1.72518">
        <ele>326</ele>
        <time>2011-06-26T16:13:22Z</time>
      </trkpt>
      <trkpt lat="44.02916" lon="1.72534">
        <ele>327</ele>
        <time>2011-06-26T16:13:24Z</time>
      </trkpt>
      <trkpt lat="44.0292" lon="1.7255">
        <ele>327</ele>
        <time>2011-06-26T16:13:26Z</time>
      </trkpt>
      <trkpt lat="44.02924" lon="1.72566">
        <ele>327</ele>
        <time>2011-06-26T16:13:28Z</time>
      </trkpt>
      <trkpt lat="44.02927" lon="1.72582">
        <ele>327</ele>
        <time>2011-06-26T16:13:30Z</time>
      </trkpt>
      <trkpt lat="44.02928" lon="1.72599">
        <ele>327</ele>
        <time>2011-06-26T16:13:32Z</time>
      </trkpt>
      <trkpt lat="44.02929" lon="1.72614">
        <ele>327</ele>
        <time>2011-06-26T16:13:34Z</time>
      </trkpt>
      <trkpt lat="44.0293" lon="1.72627">
        <ele>327</ele>
        <time>2011-06-26T16:13:36Z</time>
      </trkpt>
      <trkpt lat="44.02936" lon="1.72634">
        <ele>327</ele>
        <time>2011-06-26T16:13:38Z</time>
      </trkpt>
      <trkpt lat="44.0294" lon="1.7263">
        <ele>327</ele>
        <time>2011-06-26T16:13:40Z</time>
      </trkpt>
      <trkpt lat="44.02942" lon="1.72622">
        <ele>327</ele>
        <time>2011-06-26T16:13:42Z</time>
      </trkpt>
      <trkpt lat="44.02943" lon="1.72614">
        <ele>327</ele>
        <time>2011-06-26T16:13:44Z</time>
      </trkpt>
      <trkpt lat="44.02944" lon="1.72607">
        <ele>327</ele>
        <time>2011-06-26T16:13:46Z</time>
      </trkpt>
      <trkpt lat="44.02946" lon="1.726">
        <ele>327</ele>
        <time>2011-06-26T16:13:48Z</time>
      </trkpt>
      <trkpt lat="44.02947" lon="1.72592">
        <ele>327</ele>
        <time>2011-06-26T16:13:50Z</time>
      </trkpt>
      <trkpt lat="44.02949" lon="1.72585">
        <ele>327</ele>
        <time>2011-06-26T16:13:52Z</time>
      </trkpt>
      <trkpt lat="44.02951" lon="1.72578">
        <ele>327</ele>
        <time>2011-06-26T16:13:54Z</time>
      </trkpt>
      <trkpt lat="44.02953" lon="1.72572">
        <ele>327</ele>
        <time>2011-06-26T16:13:56Z</time>
      </trkpt>
      <trkpt lat="44.02954" lon="1.72565">
        <ele>327</ele>
        <time>2011-06-26T16:13:58Z</time>
      </trkpt>
      <trkpt lat="44.02956" lon="1.72558">
        <ele>327</ele>
        <time>2011-06-26T16:14:00Z</time>
      </trkpt>
      <trkpt lat="44.02958" lon="1.72551">
        <ele>327</ele>
        <time>2011-06-26T16:14:02Z</time>
      </trkpt>
      <trkpt lat="44.02959" lon="1.72544">
        <ele>327</ele>
        <time>2011-06-26T16:14:04Z</time>
      </trkpt>
      <trkpt lat="44.02961" lon="1.72537">
        <ele>327</ele>
        <time>2011-06-26T16:14:06Z</time>
      </trkpt>
      <trkpt lat="44.02963" lon="1.7253">
        <ele>327</ele>
        <time>2011-06-26T16:14:08Z</time>
      </trkpt>
      <trkpt lat="44.02965" lon="1.72524">
        <ele>327</ele>
        <time>2011-06-26T16:14:10Z</time>
      </trkpt>
      <trkpt lat="44.02967" lon="1.72517">
        <ele>327</ele>
        <time>2011-06-26T16:14:12Z</time>
      </trkpt>
      <trkpt lat="44.02969" lon="1.72509">
        <ele>327</ele>
        <time>2011-06-26T16:14:14Z</time>
      </trkpt>
      <trkpt lat="44.02972" lon="1.72502">
        <ele>327</ele>
        <time>2011-06-26T16:14:16Z</time>
      </trkpt>
      <trkpt lat="44.02974" lon="1.72494">
        <ele>327</ele>
        <time>2011-06-26T16:14:18Z</time>
      </trkpt>
      <trkpt lat="44.02976" lon="1.72486">
        <ele>328</ele>
        <time>2011-06-26T16:14:20Z</time>
      </trkpt>
      <trkpt lat="44.02979" lon="1.72478">
        <ele>328</ele>
        <time>2011-06-26T16:14:22Z</time>
      </trkpt>
      <trkpt lat="44.02981" lon="1.72471">
        <ele>329</ele>
        <time>2011-06-26T16:14:24Z</time>
      </trkpt>
      <trkpt lat="44.02983" lon="1.72464">
        <ele>329</ele>
        <time>2011-06-26T16:14:26Z</time>
      </trkpt>
      <trkpt lat="44.02986" lon="1.72457">
        <ele>329</ele>
        <time>2011-06-26T16:14:28Z</time>
      </trkpt>
      <trkpt lat="44.02988" lon="1.7245">
        <ele>330</ele>
        <time>2011-06-26T16:14:30Z</time>
      </trkpt>
      <trkpt lat="44.02991" lon="1.72444">
        <ele>330</ele>
        <time>2011-06-26T16:14:32Z</time>
      </trkpt>
      <trkpt lat="44.02995" lon="1.72439">
        <ele>330</ele>
        <time>2011-06-26T16:14:34Z</time>
      </trkpt>
      <trkpt lat="44.02998" lon="1.72433">
        <ele>331</ele>
        <time>2011-06-26T16:14:36Z</time>
      </trkpt>
      <trkpt lat="44.03003" lon="1.72429">
        <ele>331</ele>
        <time>2011-06-26T16:14:38Z</time>
      </trkpt>
      <trkpt lat="44.03007" lon="1.72425">
        <ele>332</ele>
        <time>2011-06-26T16:14:40Z</time>
      </trkpt>
      <trkpt lat="44.03012" lon="1.72421">
        <ele>332</ele>
        <time>2011-06-26T16:14:42Z</time>
      </trkpt>
      <trkpt lat="44.03017" lon="1.72417">
        <ele>332</ele>
        <time>2011-06-26T16:14:44Z</time>
      </trkpt>
      <trkpt lat="44.03022" lon="1.72413">
        <ele>333</ele>
        <time>2011-06-26T16:14:46Z</time>
      </trkpt>
      <trkpt lat="44.03026" lon="1.72408">
        <ele>333</ele>
        <time>2011-06-26T16:14:48Z</time>
      </trkpt>
      <trkpt lat="44.03031" lon="1.72403">
        <ele>334</ele>
        <time>2011-06-26T16:14:50Z</time>
      </trkpt>
      <trkpt lat="44.03035" lon="1.72399">
        <ele>334</ele>
        <time>2011-06-26T16:14:52Z</time>
      </trkpt>
      <trkpt lat="44.0304" lon="1.72394">
        <ele>334</ele>
        <time>2011-06-26T16:14:54Z</time>
      </trkpt>
      <trkpt lat="44.03044" lon="1.7239">
        <ele>334</ele>
        <time>2011-06-26T16:14:56Z</time>
      </trkpt>
      <trkpt lat="44.03049" lon="1.72385">
        <ele>334</ele>
        <time>2011-06-26T16:14:58Z</time>
      </trkpt>
      <trkpt lat="44.03053" lon="1.7238">
        <ele>335</ele>
        <time>2011-06-26T16:15:00Z</time>
      </trkpt>
      <trkpt lat="44.03058" lon="1.72376">
        <ele>335</ele>
        <time>2011-06-26T16:15:02Z</time>
      </trkpt>
      <trkpt lat="44.03063" lon="1.72371">
        <ele>335</ele>
        <time>2011-06-26T16:15:04Z</time>
      </trkpt>
      <trkpt lat="44.03068" lon="1.72366">
        <ele>335</ele>
        <time>2011-06-26T16:15:06Z</time>
      </trkpt>
      <trkpt lat="44.03072" lon="1.72362">
        <ele>335</ele>
        <time>2011-06-26T16:15:08Z</time>
      </trkpt>
      <trkpt lat="44.03077" lon="1.72358">
        <ele>335</ele>
        <time>2011-06-26T16:15:10Z</time>
      </trkpt>
      <trkpt lat="44.03083" lon="1.72354">
        <ele>336</ele>
        <time>2011-06-26T16:15:12Z</time>
      </trkpt>
      <trkpt lat="44.03088" lon="1.72353">
        <ele>336</ele>
        <time>2011-06-26T16:15:14Z</time>
      </trkpt>
      <trkpt lat="44.03093" lon="1.72352">
        <ele>337</ele>
        <time>2011-06-26T16:15:16Z</time>
      </trkpt>
      <trkpt lat="44.03099" lon="1.72353">
        <ele>337</ele>
        <time>2011-06-26T16:15:18Z</time>
      </trkpt>
      <trkpt lat="44.03105" lon="1.72354">
        <ele>338</ele>
        <time>2011-06-26T16:15:20Z</time>
      </trkpt>
      <trkpt lat="44.03111" lon="1.72355">
        <ele>338</ele>
        <time>2011-06-26T16:15:22Z</time>
      </trkpt>
      <trkpt lat="44.03117" lon="1.72357">
        <ele>340</ele>
        <time>2011-06-26T16:15:24Z</time>
      </trkpt>
      <trkpt lat="44.03122" lon="1.72358">
        <ele>341</ele>
        <time>2011-06-26T16:15:26Z</time>
      </trkpt>
      <trkpt lat="44.03128" lon="1.72359">
        <ele>342</ele>
        <time>2011-06-26T16:15:28Z</time>
      </trkpt>
      <trkpt lat="44.03132" lon="1.7236">
        <ele>342</ele>
        <time>2011-06-26T16:15:30Z</time>
      </trkpt>
      <trkpt lat="44.03137" lon="1.72361">
        <ele>343</ele>
        <time>2011-06-26T16:15:32Z</time>
      </trkpt>
      <trkpt lat="44.03141" lon="1.72362">
        <ele>344</ele>
        <time>2011-06-26T16:15:34Z</time>
      </trkpt>
      <trkpt lat="44.03146" lon="1.72362">
        <ele>344</ele>
        <time>2011-06-26T16:15:36Z</time>
      </trkpt>
      <trkpt lat="44.0315" lon="1.72363">
        <ele>345</ele>
        <time>2011-06-26T16:15:38Z</time>
      </trkpt>
      <trkpt lat="44.03154" lon="1.72364">
        <ele>346</ele>
        <time>2011-06-26T16:15:40Z</time>
      </trkpt>
      <trkpt lat="44.03158" lon="1.72365">
        <ele>346</ele>
        <time>2011-06-26T16:15:42Z</time>
      </trkpt>
      <trkpt lat="44.03162" lon="1.72366">
        <ele>347</ele>
        <time>2011-06-26T16:15:44Z</time>
      </trkpt>
      <trkpt lat="44.03166" lon="1.72366">
        <ele>348</ele>
        <time>2011-06-26T16:15:46Z</time>
      </trkpt>
      <trkpt lat="44.0317" lon="1.72367">
        <ele>348</ele>
        <time>2011-06-26T16:15:48Z</time>
      </trkpt>
      <trkpt lat="44.03174" lon="1.72366">
        <ele>349</ele>
        <time>2011-06-26T16:15:50Z</time>
      </trkpt>
      <trkpt lat="44.03178" lon="1.72366">
        <ele>349</ele>
        <time>2011-06-26T16:15:52Z</time>
      </trkpt>
      <trkpt lat="44.03182" lon="1.72366">
        <ele>350</ele>
        <time>2011-06-26T16:15:54Z</time>
      </trkpt>
      <trkpt lat="44.03186" lon="1.72365">
        <ele>351</ele>
        <time>2011-06-26T16:15:56Z</time>
      </trkpt>
      <trkpt lat="44.0319" lon="1.72363">
        <ele>351</ele>
        <time>2011-06-26T16:15:58Z</time>
      </trkpt>
      <trkpt lat="44.03193" lon="1.7236">
        <ele>352</ele>
        <time>2011-06-26T16:16:00Z</time>
      </trkpt>
      <trkpt lat="44.03197" lon="1.72357">
        <ele>352</ele>
        <time>2011-06-26T16:16:02Z</time>
      </trkpt>
      <trkpt lat="44.032" lon="1.72354">
        <ele>352</ele>
        <time>2011-06-26T16:16:04Z</time>
      </trkpt>
      <trkpt lat="44.03203" lon="1.7235">
        <ele>353</ele>
        <time>2011-06-26T16:16:06Z</time>
      </trkpt>
      <trkpt lat="44.03206" lon="1.72346">
        <ele>353</ele>
        <time>2011-06-26T16:16:08Z</time>
      </trkpt>
      <trkpt lat="44.03209" lon="1.72341">
        <ele>353</ele>
        <time>2011-06-26T16:16:10Z</time>
      </trkpt>
      <trkpt lat="44.03211" lon="1.72336">
        <ele>354</ele>
        <time>2011-06-26T16:16:12Z</time>
      </trkpt>
      <trkpt lat="44.03213" lon="1.72332">
        <ele>354</ele>
        <time>2011-06-26T16:16:14Z</time>
      </trkpt>
      <trkpt lat="44.03214" lon="1.72326">
        <ele>355</ele>
        <time>2011-06-26T16:16:16Z</time>
      </trkpt>
      <trkpt lat="44.03216" lon="1.72321">
        <ele>355</ele>
        <time>2011-06-26T16:16:18Z</time>
      </trkpt>
      <trkpt lat="44.03217" lon="1.72316">
        <ele>356</ele>
        <time>2011-06-26T16:16:20Z</time>
      </trkpt>
      <trkpt lat="44.03218" lon="1.7231">
        <ele>357</ele>
        <time>2011-06-26T16:16:22Z</time>
      </trkpt>
      <trkpt lat="44.03218" lon="1.72305">
        <ele>358</ele>
        <time>2011-06-26T16:16:24Z</time>
      </trkpt>
      <trkpt lat="44.03217" lon="1.72299">
        <ele>359</ele>
        <time>2011-06-26T16:16:26Z</time>
      </trkpt>
      <trkpt lat="44.03217" lon="1.72294">
        <ele>359</ele>
        <time>2011-06-26T16:16:28Z</time>
      </trkpt>
      <trkpt lat="44.03217" lon="1.72288">
        <ele>360</ele>
        <time>2011-06-26T16:16:30Z</time>
      </trkpt>
      <trkpt lat="44.03216" lon="1.72283">
        <ele>360</ele>
        <time>2011-06-26T16:16:32Z</time>
      </trkpt>
      <trkpt lat="44.03215" lon="1.72277">
        <ele>361</ele>
        <time>2011-06-26T16:16:34Z</time>
      </trkpt>
      <trkpt lat="44.03214" lon="1.72272">
        <ele>362</ele>
        <time>2011-06-26T16:16:36Z</time>
      </trkpt>
      <trkpt lat="44.03212" lon="1.72266">
        <ele>362</ele>
        <time>2011-06-26T16:16:38Z</time>
      </trkpt>
      <trkpt lat="44.03212" lon="1.7226">
        <ele>363</ele>
        <time>2011-06-26T16:16:40Z</time>
      </trkpt>
      <trkpt lat="44.0321" lon="1.72254">
        <ele>363</ele>
        <time>2011-06-26T16:16:42Z</time>
      </trkpt>
      <trkpt lat="44.03209" lon="1.72248">
        <ele>364</ele>
        <time>2011-06-26T16:16:44Z</time>
      </trkpt>
      <trkpt lat="44.03208" lon="1.72242">
        <ele>364</ele>
        <time>2011-06-26T16:16:46Z</time>
      </trkpt>
      <trkpt lat="44.03207" lon="1.72236">
        <ele>365</ele>
        <time>2011-06-26T16:16:48Z</time>
      </trkpt>
      <trkpt lat="44.03206" lon="1.7223">
        <ele>365</ele>
        <time>2011-06-26T16:16:50Z</time>
      </trkpt>
      <trkpt lat="44.03206" lon="1.72223">
        <ele>365</ele>
        <time>2011-06-26T16:16:52Z</time>
      </trkpt>
      <trkpt lat="44.03206" lon="1.72217">
        <ele>366</ele>
        <time>2011-06-26T16:16:54Z</time>
      </trkpt>
      <trkpt lat="44.03206" lon="1.72212">
        <ele>366</ele>
        <time>2011-06-26T16:16:56Z</time>
      </trkpt>
      <trkpt lat="44.03206" lon="1.72205">
        <ele>366</ele>
        <time>2011-06-26T16:16:58Z</time>
      </trkpt>
      <trkpt lat="44.03207" lon="1.722">
        <ele>367</ele>
        <time>2011-06-26T16:17:00Z</time>
      </trkpt>
      <trkpt lat="44.03207" lon="1.72194">
        <ele>367</ele>
        <time>2011-06-26T16:17:02Z</time>
      </trkpt>
      <trkpt lat="44.03207" lon="1.72189">
        <ele>368</ele>
        <time>2011-06-26T16:17:04Z</time>
      </trkpt>
      <trkpt lat="44.03208" lon="1.72183">
        <ele>368</ele>
        <time>2011-06-26T16:17:06Z</time>
      </trkpt>
      <trkpt lat="44.03209" lon="1.72178">
        <ele>369</ele>
        <time>2011-06-26T16:17:08Z</time>
      </trkpt>
      <trkpt lat="44.03209" lon="1.72172">
        <ele>369</ele>
        <time>2011-06-26T16:17:10Z</time>
      </trkpt>
      <trkpt lat="44.03209" lon="1.72167">
        <ele>370</ele>
        <time>2011-06-26T16:17:12Z</time>
      </trkpt>
      <trkpt lat="44.0321" lon="1.72161">
        <ele>370</ele>
        <time>2011-06-26T16:17:14Z</time>
      </trkpt>
      <trkpt lat="44.0321" lon="1.72155">
        <ele>371</ele>
        <time>2011-06-26T16:17:16Z</time>
      </trkpt>
      <trkpt lat="44.03211" lon="1.7215">
        <ele>372</ele>
        <time>2011-06-26T16:17:18Z</time>
      </trkpt>
      <trkpt lat="44.03211" lon="1.72144">
        <ele>372</ele>
        <time>2011-06-26T16:17:20Z</time>
      </trkpt>
      <trkpt lat="44.03212" lon="1.72139">
        <ele>373</ele>
        <time>2011-06-26T16:17:22Z</time>
      </trkpt>
      <trkpt lat="44.03212" lon="1.72134">
        <ele>373</ele>
        <time>2011-06-26T16:17:24Z</time>
      </trkpt>
      <trkpt lat="44.03213" lon="1.72129">
        <ele>374</ele>
        <time>2011-06-26T16:17:26Z</time>
      </trkpt>
      <trkpt lat="44.03213" lon="1.72124">
        <ele>375</ele>
        <time>2011-06-26T16:17:28Z</time>
      </trkpt>
      <trkpt lat="44.03213" lon="1.72119">
        <ele>375</ele>
        <time>2011-06-26T16:17:30Z</time>
      </trkpt>
      <trkpt lat="44.03213" lon="1.72114">
        <ele>376</ele>
        <time>2011-06-26T16:17:32Z</time>
      </trkpt>
      <trkpt lat="44.03213" lon="1.72109">
        <ele>377</ele>
        <time>2011-06-26T16:17:34Z</time>
      </trkpt>
      <trkpt lat="44.03213" lon="1.72104">
        <ele>378</ele>
        <time>2011-06-26T16:17:36Z</time>
      </trkpt>
      <trkpt lat="44.03213" lon="1.72099">
        <ele>379</ele>
        <time>2011-06-26T16:17:38Z</time>
      </trkpt>
      <trkpt lat="44.03212" lon="1.72093">
        <ele>380</ele>
        <time>2011-06-26T16:17:40Z</time>
      </trkpt>
      <trkpt lat="44.03212" lon="1.72088">
        <ele>380</ele>
        <time>2011-06-26T16:17:42Z</time>
      </trkpt>
      <trkpt lat="44.0321" lon="1.72083">
        <ele>381</ele>
        <time>2011-06-26T16:17:44Z</time>
      </trkpt>
      <trkpt lat="44.0321" lon="1.72078">
        <ele>381</ele>
        <time>2011-06-26T16:17:46Z</time>
      </trkpt>
      <trkpt lat="44.03209" lon="1.72073">
        <ele>381</ele>
        <time>2011-06-26T16:17:48Z</time>
      </trkpt>
      <trkpt lat="44.03207" lon="1.72067">
        <ele>381</ele>
        <time>2011-06-26T16:17:50Z</time>
      </trkpt>
      <trkpt lat="44.03205" lon="1.72062">
        <ele>382</ele>
        <time>2011-06-26T16:17:52Z</time>
      </trkpt>
      <trkpt lat="44.03203" lon="1.72055">
        <ele>382</ele>
        <time>2011-06-26T16:17:54Z</time>
      </trkpt>
      <trkpt lat="44.032" lon="1.72049">
        <ele>382</ele>
        <time>2011-06-26T16:17:56Z</time>
      </trkpt>
      <trkpt lat="44.03197" lon="1.72043">
        <ele>382</ele>
        <time>2011-06-26T16:17:58Z</time>
      </trkpt>
      <trkpt lat="44.03195" lon="1.72039">
        <ele>382</ele>
        <time>2011-06-26T16:18:19Z</time>
      </trkpt>
      <trkpt lat="44.03194" lon="1.72036">
        <ele>382</ele>
        <time>2011-06-26T16:18:21Z</time>
      </trkpt>
      <trkpt lat="44.03191" lon="1.72032">
        <ele>382</ele>
        <time>2011-06-26T16:18:23Z</time>
      </trkpt>
      <trkpt lat="44.03188" lon="1.72028">
        <ele>382</ele>
        <time>2011-06-26T16:18:25Z</time>
      </trkpt>
      <trkpt lat="44.03186" lon="1.72022">
        <ele>382</ele>
        <time>2011-06-26T16:18:27Z</time>
      </trkpt>
      <trkpt lat="44.03183" lon="1.72016">
        <ele>382</ele>
        <time>2011-06-26T16:18:29Z</time>
      </trkpt>
      <trkpt lat="44.03179" lon="1.7201">
        <ele>382</ele>
        <time>2011-06-26T16:18:31Z</time>
      </trkpt>
      <trkpt lat="44.03176" lon="1.72003">
        <ele>382</ele>
        <time>2011-06-26T16:18:33Z</time>
      </trkpt>
      <trkpt lat="44.03173" lon="1.71996">
        <ele>382</ele>
        <time>2011-06-26T16:18:35Z</time>
      </trkpt>
      <trkpt lat="44.0317" lon="1.71988">
        <ele>382</ele>
        <time>2011-06-26T16:18:37Z</time>
      </trkpt>
      <trkpt lat="44.03168" lon="1.71981">
        <ele>382</ele>
        <time>2011-06-26T16:18:39Z</time>
      </trkpt>
      <trkpt lat="44.03166" lon="1.71973">
        <ele>382</ele>
        <time>2011-06-26T16:18:41Z</time>
      </trkpt>
      <trkpt lat="44.03165" lon="1.71965">
        <ele>382</ele>
        <time>2011-06-26T16:18:43Z</time>
      </trkpt>
      <trkpt lat="44.03163" lon="1.71957">
        <ele>382</ele>
        <time>2011-06-26T16:18:45Z</time>
      </trkpt>
      <trkpt lat="44.03162" lon="1.71949">
        <ele>382</ele>
        <time>2011-06-26T16:18:47Z</time>
      </trkpt>
      <trkpt lat="44.0316" lon="1.7194">
        <ele>382</ele>
        <time>2011-06-26T16:18:49Z</time>
      </trkpt>
      <trkpt lat="44.03159" lon="1.71931">
        <ele>382</ele>
        <time>2011-06-26T16:18:51Z</time>
      </trkpt>
      <trkpt lat="44.03157" lon="1.71923">
        <ele>382</ele>
        <time>2011-06-26T16:18:53Z</time>
      </trkpt>
      <trkpt lat="44.03156" lon="1.71915">
        <ele>383</ele>
        <time>2011-06-26T16:18:55Z</time>
      </trkpt>
      <trkpt lat="44.03154" lon="1.71907">
        <ele>383</ele>
        <time>2011-06-26T16:18:57Z</time>
      </trkpt>
      <trkpt lat="44.03151" lon="1.71899">
        <ele>383</ele>
        <time>2011-06-26T16:18:59Z</time>
      </trkpt>
      <trkpt lat="44.03148" lon="1.71892">
        <ele>383</ele>
        <time>2011-06-26T16:19:01Z</time>
      </trkpt>
      <trkpt lat="44.03145" lon="1.71885">
        <ele>384</ele>
        <time>2011-06-26T16:19:03Z</time>
      </trkpt>
      <trkpt lat="44.0314" lon="1.71875">
        <ele>384</ele>
        <time>2011-06-26T16:19:06Z</time>
      </trkpt>
      <trkpt lat="44.03137" lon="1.71869">
        <ele>385</ele>
        <time>2011-06-26T16:19:08Z</time>
      </trkpt>
      <trkpt lat="44.03134" lon="1.71862">
        <ele>385</ele>
        <time>2011-06-26T16:19:10Z</time>
      </trkpt>
      <trkpt lat="44.03131" lon="1.71856">
        <ele>385</ele>
        <time>2011-06-26T16:19:12Z</time>
      </trkpt>
      <trkpt lat="44.03128" lon="1.7185">
        <ele>386</ele>
        <time>2011-06-26T16:19:14Z</time>
      </trkpt>
      <trkpt lat="44.03125" lon="1.71843">
        <ele>386</ele>
        <time>2011-06-26T16:19:16Z</time>
      </trkpt>
      <trkpt lat="44.03123" lon="1.71835">
        <ele>386</ele>
        <time>2011-06-26T16:19:18Z</time>
      </trkpt>
      <trkpt lat="44.0312" lon="1.71828">
        <ele>387</ele>
        <time>2011-06-26T16:19:20Z</time>
      </trkpt>
      <trkpt lat="44.03118" lon="1.71819">
        <ele>387</ele>
        <time>2011-06-26T16:19:22Z</time>
      </trkpt>
      <trkpt lat="44.03117" lon="1.71811">
        <ele>387</ele>
        <time>2011-06-26T16:19:24Z</time>
      </trkpt>
      <trkpt lat="44.03117" lon="1.71803">
        <ele>387</ele>
        <time>2011-06-26T16:19:26Z</time>
      </trkpt>
      <trkpt lat="44.03118" lon="1.71799">
        <ele>387</ele>
        <time>2011-06-26T16:19:28Z</time>
      </trkpt>
      <trkpt lat="44.03116" lon="1.71795">
        <ele>387</ele>
        <time>2011-06-26T16:19:30Z</time>
      </trkpt>
      <trkpt lat="44.03115" lon="1.71789">
        <ele>387</ele>
        <time>2011-06-26T16:19:32Z</time>
      </trkpt>
      <trkpt lat="44.03115" lon="1.71781">
        <ele>387</ele>
        <time>2011-06-26T16:19:34Z</time>
      </trkpt>
      <trkpt lat="44.03117" lon="1.71774">
        <ele>387</ele>
        <time>2011-06-26T16:19:36Z</time>
      </trkpt>
      <trkpt lat="44.0312" lon="1.71765">
        <ele>388</ele>
        <time>2011-06-26T16:19:38Z</time>
      </trkpt>
      <trkpt lat="44.03125" lon="1.71756">
        <ele>388</ele>
        <time>2011-06-26T16:19:40Z</time>
      </trkpt>
      <trkpt lat="44.03133" lon="1.71756">
        <ele>388</ele>
        <time>2011-06-26T16:19:42Z</time>
      </trkpt>
      <trkpt lat="44.0314" lon="1.71761">
        <ele>388</ele>
        <time>2011-06-26T16:19:44Z</time>
      </trkpt>
      <trkpt lat="44.03149" lon="1.71765">
        <ele>388</ele>
        <time>2011-06-26T16:19:46Z</time>
      </trkpt>
      <trkpt lat="44.03158" lon="1.7177">
        <ele>388</ele>
        <time>2011-06-26T16:19:48Z</time>
      </trkpt>
      <trkpt lat="44.03167" lon="1.71772">
        <ele>388</ele>
        <time>2011-06-26T16:19:50Z</time>
      </trkpt>
      <trkpt lat="44.03177" lon="1.71774">
        <ele>388</ele>
        <time>2011-06-26T16:19:52Z</time>
      </trkpt>
      <trkpt lat="44.03188" lon="1.71775">
        <ele>388</ele>
        <time>2011-06-26T16:19:54Z</time>
      </trkpt>
      <trkpt lat="44.03198" lon="1.71776">
        <ele>388</ele>
        <time>2011-06-26T16:19:56Z</time>
      </trkpt>
      <trkpt lat="44.03209" lon="1.71779">
        <ele>388</ele>
        <time>2011-06-26T16:19:58Z</time>
      </trkpt>
      <trkpt lat="44.0322" lon="1.71782">
        <ele>388</ele>
        <time>2011-06-26T16:20:00Z</time>
      </trkpt>
      <trkpt lat="44.03231" lon="1.71783">
        <ele>388</ele>
        <time>2011-06-26T16:20:02Z</time>
      </trkpt>
      <trkpt lat="44.03241" lon="1.71785">
        <ele>388</ele>
        <time>2011-06-26T16:20:04Z</time>
      </trkpt>
      <trkpt lat="44.03251" lon="1.71788">
        <ele>388</ele>
        <time>2011-06-26T16:20:06Z</time>
      </trkpt>
      <trkpt lat="44.03263" lon="1.71792">
        <ele>388</ele>
        <time>2011-06-26T16:20:08Z</time>
      </trkpt>
      <trkpt lat="44.03275" lon="1.71797">
        <ele>388</ele>
        <time>2011-06-26T16:20:10Z</time>
      </trkpt>
      <trkpt lat="44.03286" lon="1.71802">
        <ele>388</ele>
        <time>2011-06-26T16:20:12Z</time>
      </trkpt>
      <trkpt lat="44.03297" lon="1.71809">
        <ele>388</ele>
        <time>2011-06-26T16:20:14Z</time>
      </trkpt>
      <trkpt lat="44.03307" lon="1.71815">
        <ele>388</ele>
        <time>2011-06-26T16:20:16Z</time>
      </trkpt>
      <trkpt lat="44.03318" lon="1.71822">
        <ele>388</ele>
        <time>2011-06-26T16:20:18Z</time>
      </trkpt>
      <trkpt lat="44.03328" lon="1.71829">
        <ele>389</ele>
        <time>2011-06-26T16:20:20Z</time>
      </trkpt>
      <trkpt lat="44.03338" lon="1.71835">
        <ele>390</ele>
        <time>2011-06-26T16:20:22Z</time>
      </trkpt>
      <trkpt lat="44.03349" lon="1.71842">
        <ele>390</ele>
        <time>2011-06-26T16:20:24Z</time>
      </trkpt>
      <trkpt lat="44.03358" lon="1.71849">
        <ele>390</ele>
        <time>2011-06-26T16:20:26Z</time>
      </trkpt>
      <trkpt lat="44.03369" lon="1.71856">
        <ele>391</ele>
        <time>2011-06-26T16:20:28Z</time>
      </trkpt>
      <trkpt lat="44.03379" lon="1.71863">
        <ele>391</ele>
        <time>2011-06-26T16:20:30Z</time>
      </trkpt>
      <trkpt lat="44.0339" lon="1.7187">
        <ele>391</ele>
        <time>2011-06-26T16:20:32Z</time>
      </trkpt>
      <trkpt lat="44.034" lon="1.71876">
        <ele>391</ele>
        <time>2011-06-26T16:20:34Z</time>
      </trkpt>
      <trkpt lat="44.0341" lon="1.71882">
        <ele>391</ele>
        <time>2011-06-26T16:20:36Z</time>
      </trkpt>
      <trkpt lat="44.0342" lon="1.71889">
        <ele>391</ele>
        <time>2011-06-26T16:20:38Z</time>
      </trkpt>
      <trkpt lat="44.0343" lon="1.71895">
        <ele>391</ele>
        <time>2011-06-26T16:20:40Z</time>
      </trkpt>
      <trkpt lat="44.03441" lon="1.71901">
        <ele>391</ele>
        <time>2011-06-26T16:20:42Z</time>
      </trkpt>
      <trkpt lat="44.0345" lon="1.71907">
        <ele>391</ele>
        <time>2011-06-26T16:20:44Z</time>
      </trkpt>
      <trkpt lat="44.03461" lon="1.71911">
        <ele>391</ele>
        <time>2011-06-26T16:20:46Z</time>
      </trkpt>
      <trkpt lat="44.03471" lon="1.71917">
        <ele>391</ele>
        <time>2011-06-26T16:20:48Z</time>
      </trkpt>
      <trkpt lat="44.03481" lon="1.71922">
        <ele>391</ele>
        <time>2011-06-26T16:20:50Z</time>
      </trkpt>
      <trkpt lat="44.03491" lon="1.71929">
        <ele>391</ele>
        <time>2011-06-26T16:20:52Z</time>
      </trkpt>
      <trkpt lat="44.03501" lon="1.71936">
        <ele>391</ele>
        <time>2011-06-26T16:20:54Z</time>
      </trkpt>
      <trkpt lat="44.03512" lon="1.71942">
        <ele>391</ele>
        <time>2011-06-26T16:20:56Z</time>
      </trkpt>
      <trkpt lat="44.03524" lon="1.71948">
        <ele>391</ele>
        <time>2011-06-26T16:20:58Z</time>
      </trkpt>
      <trkpt lat="44.03535" lon="1.71954">
        <ele>391</ele>
        <time>2011-06-26T16:21:00Z</time>
      </trkpt>
      <trkpt lat="44.03546" lon="1.71959">
        <ele>391</ele>
        <time>2011-06-26T16:21:02Z</time>
      </trkpt>
      <trkpt lat="44.03557" lon="1.71962">
        <ele>391</ele>
        <time>2011-06-26T16:21:04Z</time>
      </trkpt>
      <trkpt lat="44.03568" lon="1.71964">
        <ele>391</ele>
        <time>2011-06-26T16:21:06Z</time>
      </trkpt>
      <trkpt lat="44.03577" lon="1.71967">
        <ele>391</ele>
        <time>2011-06-26T16:21:08Z</time>
      </trkpt>
      <trkpt lat="44.03588" lon="1.71969">
        <ele>391</ele>
        <time>2011-06-26T16:21:10Z</time>
      </trkpt>
      <trkpt lat="44.03597" lon="1.7197">
        <ele>391</ele>
        <time>2011-06-26T16:21:12Z</time>
      </trkpt>
      <trkpt lat="44.03606" lon="1.71972">
        <ele>391</ele>
        <time>2011-06-26T16:21:14Z</time>
      </trkpt>
      <trkpt lat="44.03616" lon="1.71974">
        <ele>391</ele>
        <time>2011-06-26T16:21:16Z</time>
      </trkpt>
      <trkpt lat="44.03625" lon="1.71976">
        <ele>391</ele>
        <time>2011-06-26T16:21:18Z</time>
      </trkpt>
      <trkpt lat="44.03635" lon="1.71978">
        <ele>391</ele>
        <time>2011-06-26T16:21:20Z</time>
      </trkpt>
      <trkpt lat="44.03644" lon="1.7198">
        <ele>391</ele>
        <time>2011-06-26T16:21:22Z</time>
      </trkpt>
      <trkpt lat="44.03653" lon="1.71981">
        <ele>391</ele>
        <time>2011-06-26T16:21:24Z</time>
      </trkpt>
      <trkpt lat="44.03661" lon="1.71983">
        <ele>391</ele>
        <time>2011-06-26T16:21:26Z</time>
      </trkpt>
      <trkpt lat="44.03669" lon="1.71985">
        <ele>391</ele>
        <time>2011-06-26T16:21:28Z</time>
      </trkpt>
      <trkpt lat="44.03678" lon="1.71985">
        <ele>391</ele>
        <time>2011-06-26T16:21:30Z</time>
      </trkpt>
      <trkpt lat="44.03686" lon="1.71984">
        <ele>391</ele>
        <time>2011-06-26T16:21:32Z</time>
      </trkpt>
      <trkpt lat="44.03695" lon="1.71983">
        <ele>391</ele>
        <time>2011-06-26T16:21:34Z</time>
      </trkpt>
      <trkpt lat="44.03703" lon="1.71982">
        <ele>391</ele>
        <time>2011-06-26T16:21:36Z</time>
      </trkpt>
      <trkpt lat="44.0371" lon="1.71981">
        <ele>391</ele>
        <time>2011-06-26T16:21:38Z</time>
      </trkpt>
      <trkpt lat="44.03717" lon="1.71982">
        <ele>392</ele>
        <time>2011-06-26T16:21:40Z</time>
      </trkpt>
      <trkpt lat="44.03723" lon="1.71985">
        <ele>392</ele>
        <time>2011-06-26T16:21:42Z</time>
      </trkpt>
      <trkpt lat="44.03728" lon="1.71988">
        <ele>392</ele>
        <time>2011-06-26T16:21:44Z</time>
      </trkpt>
      <trkpt lat="44.03733" lon="1.71992">
        <ele>393</ele>
        <time>2011-06-26T16:21:46Z</time>
      </trkpt>
      <trkpt lat="44.03737" lon="1.71996">
        <ele>394</ele>
        <time>2011-06-26T16:21:48Z</time>
      </trkpt>
      <trkpt lat="44.03741" lon="1.71999">
        <ele>394</ele>
        <time>2011-06-26T16:21:50Z</time>
      </trkpt>
      <trkpt lat="44.03746" lon="1.72001">
        <ele>395</ele>
        <time>2011-06-26T16:21:52Z</time>
      </trkpt>
      <trkpt lat="44.03751" lon="1.72004">
        <ele>396</ele>
        <time>2011-06-26T16:21:54Z</time>
      </trkpt>
      <trkpt lat="44.03753" lon="1.72008">
        <ele>397</ele>
        <time>2011-06-26T16:21:56Z</time>
      </trkpt>
      <trkpt lat="44.03757" lon="1.72011">
        <ele>399</ele>
        <time>2011-06-26T16:21:58Z</time>
      </trkpt>
      <trkpt lat="44.0376" lon="1.72014">
        <ele>400</ele>
        <time>2011-06-26T16:22:00Z</time>
      </trkpt>
      <trkpt lat="44.03764" lon="1.72017">
        <ele>401</ele>
        <time>2011-06-26T16:22:02Z</time>
      </trkpt>
      <trkpt lat="44.03769" lon="1.72019">
        <ele>401</ele>
        <time>2011-06-26T16:22:04Z</time>
      </trkpt>
      <trkpt lat="44.03774" lon="1.72021">
        <ele>401</ele>
        <time>2011-06-26T16:22:06Z</time>
      </trkpt>
      <trkpt lat="44.03779" lon="1.72022">
        <ele>402</ele>
        <time>2011-06-26T16:22:08Z</time>
      </trkpt>
      <trkpt lat="44.03785" lon="1.72023">
        <ele>402</ele>
        <time>2011-06-26T16:22:10Z</time>
      </trkpt>
      <trkpt lat="44.0379" lon="1.72025">
        <ele>402</ele>
        <time>2011-06-26T16:22:12Z</time>
      </trkpt>
      <trkpt lat="44.03794" lon="1.72026">
        <ele>402</ele>
        <time>2011-06-26T16:22:14Z</time>
      </trkpt>
      <trkpt lat="44.03799" lon="1.72027">
        <ele>402</ele>
        <time>2011-06-26T16:22:16Z</time>
      </trkpt>
      <trkpt lat="44.03804" lon="1.72029">
        <ele>402</ele>
        <time>2011-06-26T16:22:18Z</time>
      </trkpt>
      <trkpt lat="44.03809" lon="1.72031">
        <ele>402</ele>
        <time>2011-06-26T16:22:20Z</time>
      </trkpt>
      <trkpt lat="44.03813" lon="1.72034">
        <ele>403</ele>
        <time>2011-06-26T16:22:22Z</time>
      </trkpt>
      <trkpt lat="44.03817" lon="1.72037">
        <ele>403</ele>
        <time>2011-06-26T16:22:24Z</time>
      </trkpt>
      <trkpt lat="44.03821" lon="1.7204">
        <ele>404</ele>
        <time>2011-06-26T16:22:26Z</time>
      </trkpt>
      <trkpt lat="44.03824" lon="1.72044">
        <ele>404</ele>
        <time>2011-06-26T16:22:28Z</time>
      </trkpt>
      <trkpt lat="44.03828" lon="1.72048">
        <ele>405</ele>
        <time>2011-06-26T16:22:30Z</time>
      </trkpt>
      <trkpt lat="44.03832" lon="1.72051">
        <ele>406</ele>
        <time>2011-06-26T16:22:32Z</time>
      </trkpt>
      <trkpt lat="44.03836" lon="1.72055">
        <ele>407</ele>
        <time>2011-06-26T16:22:34Z</time>
      </trkpt>
      <trkpt lat="44.03841" lon="1.72058">
        <ele>408</ele>
        <time>2011-06-26T16:22:36Z</time>
      </trkpt>
      <trkpt lat="44.03845" lon="1.72061">
        <ele>408</ele>
        <time>2011-06-26T16:22:38Z</time>
      </trkpt>
      <trkpt lat="44.03848" lon="1.72066">
        <ele>410</ele>
        <time>2011-06-26T16:22:40Z</time>
      </trkpt>
      <trkpt lat="44.03852" lon="1.72068">
        <ele>411</ele>
        <time>2011-06-26T16:22:42Z</time>
      </trkpt>
      <trkpt lat="44.03857" lon="1.72071">
        <ele>413</ele>
        <time>2011-06-26T16:22:44Z</time>
      </trkpt>
      <trkpt lat="44.03861" lon="1.72073">
        <ele>413</ele>
        <time>2011-06-26T16:22:46Z</time>
      </trkpt>
      <trkpt lat="44.03865" lon="1.72075">
        <ele>414</ele>
        <time>2011-06-26T16:22:48Z</time>
      </trkpt>
      <trkpt lat="44.0387" lon="1.72078">
        <ele>415</ele>
        <time>2011-06-26T16:22:50Z</time>
      </trkpt>
      <trkpt lat="44.03874" lon="1.72081">
        <ele>415</ele>
        <time>2011-06-26T16:22:52Z</time>
      </trkpt>
      <trkpt lat="44.03879" lon="1.72082">
        <ele>415</ele>
        <time>2011-06-26T16:22:54Z</time>
      </trkpt>
      <trkpt lat="44.03883" lon="1.72084">
        <ele>416</ele>
        <time>2011-06-26T16:22:56Z</time>
      </trkpt>
      <trkpt lat="44.03887" lon="1.72088">
        <ele>416</ele>
        <time>2011-06-26T16:22:58Z</time>
      </trkpt>
      <trkpt lat="44.0389" lon="1.72093">
        <ele>417</ele>
        <time>2011-06-26T16:23:00Z</time>
      </trkpt>
      <trkpt lat="44.03894" lon="1.72097">
        <ele>418</ele>
        <time>2011-06-26T16:23:02Z</time>
      </trkpt>
      <trkpt lat="44.03898" lon="1.721">
        <ele>419</ele>
        <time>2011-06-26T16:23:04Z</time>
      </trkpt>
      <trkpt lat="44.03903" lon="1.72103">
        <ele>420</ele>
        <time>2011-06-26T16:23:06Z</time>
      </trkpt>
      <trkpt lat="44.03907" lon="1.72107">
        <ele>420</ele>
        <time>2011-06-26T16:23:08Z</time>
      </trkpt>
      <trkpt lat="44.03911" lon="1.72111">
        <ele>421</ele>
        <time>2011-06-26T16:23:10Z</time>
      </trkpt>
      <trkpt lat="44.03915" lon="1.72115">
        <ele>422</ele>
        <time>2011-06-26T16:23:12Z</time>
      </trkpt>
      <trkpt lat="44.03919" lon="1.72118">
        <ele>422</ele>
        <time>2011-06-26T16:23:14Z</time>
      </trkpt>
      <trkpt lat="44.03923" lon="1.7212">
        <ele>423</ele>
        <time>2011-06-26T16:23:16Z</time>
      </trkpt>
      <trkpt lat="44.03928" lon="1.72122">
        <ele>423</ele>
        <time>2011-06-26T16:23:18Z</time>
      </trkpt>
      <trkpt lat="44.03932" lon="1.72125">
        <ele>423</ele>
        <time>2011-06-26T16:23:20Z</time>
      </trkpt>
      <trkpt lat="44.03937" lon="1.72127">
        <ele>423</ele>
        <time>2011-06-26T16:23:22Z</time>
      </trkpt>
      <trkpt lat="44.03941" lon="1.72129">
        <ele>423</ele>
        <time>2011-06-26T16:23:24Z</time>
      </trkpt>
      <trkpt lat="44.03947" lon="1.72129">
        <ele>423</ele>
        <time>2011-06-26T16:23:26Z</time>
      </trkpt>
      <trkpt lat="44.03952" lon="1.72128">
        <ele>423</ele>
        <time>2011-06-26T16:23:28Z</time>
      </trkpt>
      <trkpt lat="44.03957" lon="1.72128">
        <ele>423</ele>
        <time>2011-06-26T16:23:30Z</time>
      </trkpt>
      <trkpt lat="44.03962" lon="1.72129">
        <ele>423</ele>
        <time>2011-06-26T16:23:32Z</time>
      </trkpt>
      <trkpt lat="44.03967" lon="1.7213">
        <ele>423</ele>
        <time>2011-06-26T16:23:34Z</time>
      </trkpt>
      <trkpt lat="44.03971" lon="1.72132">
        <ele>423</ele>
        <time>2011-06-26T16:23:36Z</time>
      </trkpt>
      <trkpt lat="44.03975" lon="1.72135">
        <ele>424</ele>
        <time>2011-06-26T16:23:38Z</time>
      </trkpt>
      <trkpt lat="44.03979" lon="1.72137">
        <ele>424</ele>
        <time>2011-06-26T16:23:40Z</time>
      </trkpt>
      <trkpt lat="44.03984" lon="1.72139">
        <ele>425</ele>
        <time>2011-06-26T16:23:42Z</time>
      </trkpt>
      <trkpt lat="44.03988" lon="1.72142">
        <ele>425</ele>
        <time>2011-06-26T16:23:44Z</time>
      </trkpt>
      <trkpt lat="44.03994" lon="1.72143">
        <ele>425</ele>
        <time>2011-06-26T16:23:46Z</time>
      </trkpt>
      <trkpt lat="44.03998" lon="1.72146">
        <ele>426</ele>
        <time>2011-06-26T16:23:48Z</time>
      </trkpt>
      <trkpt lat="44.04002" lon="1.72148">
        <ele>426</ele>
        <time>2011-06-26T16:23:50Z</time>
      </trkpt>
      <trkpt lat="44.04007" lon="1.72149">
        <ele>426</ele>
        <time>2011-06-26T16:23:52Z</time>
      </trkpt>
      <trkpt lat="44.04012" lon="1.72151">
        <ele>427</ele>
        <time>2011-06-26T16:23:54Z</time>
      </trkpt>
      <trkpt lat="44.04017" lon="1.72152">
        <ele>427</ele>
        <time>2011-06-26T16:23:56Z</time>
      </trkpt>
      <trkpt lat="44.04022" lon="1.72154">
        <ele>427</ele>
        <time>2011-06-26T16:23:58Z</time>
      </trkpt>
      <trkpt lat="44.04027" lon="1.72156">
        <ele>428</ele>
        <time>2011-06-26T16:24:00Z</time>
      </trkpt>
      <trkpt lat="44.04031" lon="1.72159">
        <ele>428</ele>
        <time>2011-06-26T16:24:02Z</time>
      </trkpt>
      <trkpt lat="44.04036" lon="1.72161">
        <ele>428</ele>
        <time>2011-06-26T16:24:04Z</time>
      </trkpt>
      <trkpt lat="44.0404" lon="1.72164">
        <ele>429</ele>
        <time>2011-06-26T16:24:06Z</time>
      </trkpt>
      <trkpt lat="44.04045" lon="1.72167">
        <ele>429</ele>
        <time>2011-06-26T16:24:08Z</time>
      </trkpt>
      <trkpt lat="44.04049" lon="1.72169">
        <ele>430</ele>
        <time>2011-06-26T16:24:10Z</time>
      </trkpt>
      <trkpt lat="44.04053" lon="1.72173">
        <ele>430</ele>
        <time>2011-06-26T16:24:12Z</time>
      </trkpt>
      <trkpt lat="44.04058" lon="1.72176">
        <ele>430</ele>
        <time>2011-06-26T16:24:14Z</time>
      </trkpt>
      <trkpt lat="44.04062" lon="1.72179">
        <ele>431</ele>
        <time>2011-06-26T16:24:16Z</time>
      </trkpt>
      <trkpt lat="44.04066" lon="1.72181">
        <ele>431</ele>
        <time>2011-06-26T16:24:18Z</time>
      </trkpt>
      <trkpt lat="44.04071" lon="1.72184">
        <ele>431</ele>
        <time>2011-06-26T16:24:20Z</time>
      </trkpt>
      <trkpt lat="44.04075" lon="1.72187">
        <ele>432</ele>
        <time>2011-06-26T16:24:22Z</time>
      </trkpt>
      <trkpt lat="44.04079" lon="1.72191">
        <ele>432</ele>
        <time>2011-06-26T16:24:24Z</time>
      </trkpt>
      <trkpt lat="44.04083" lon="1.72194">
        <ele>432</ele>
        <time>2011-06-26T16:24:26Z</time>
      </trkpt>
      <trkpt lat="44.04087" lon="1.72198">
        <ele>433</ele>
        <time>2011-06-26T16:24:28Z</time>
      </trkpt>
      <trkpt lat="44.04093" lon="1.72203">
        <ele>433</ele>
        <time>2011-06-26T16:24:30Z</time>
      </trkpt>
      <trkpt lat="44.04098" lon="1.72207">
        <ele>433</ele>
        <time>2011-06-26T16:24:32Z</time>
      </trkpt>
      <trkpt lat="44.04104" lon="1.72212">
        <ele>433</ele>
        <time>2011-06-26T16:24:34Z</time>
      </trkpt>
      <trkpt lat="44.04111" lon="1.72218">
        <ele>433</ele>
        <time>2011-06-26T16:24:36Z</time>
      </trkpt>
      <trkpt lat="44.04118" lon="1.72223">
        <ele>434</ele>
        <time>2011-06-26T16:24:38Z</time>
      </trkpt>
      <trkpt lat="44.04126" lon="1.72228">
        <ele>434</ele>
        <time>2011-06-26T16:24:40Z</time>
      </trkpt>
      <trkpt lat="44.04133" lon="1.72233">
        <ele>435</ele>
        <time>2011-06-26T16:24:42Z</time>
      </trkpt>
      <trkpt lat="44.04141" lon="1.72237">
        <ele>435</ele>
        <time>2011-06-26T16:24:44Z</time>
      </trkpt>
      <trkpt lat="44.04148" lon="1.7224">
        <ele>435</ele>
        <time>2011-06-26T16:24:46Z</time>
      </trkpt>
      <trkpt lat="44.04156" lon="1.72245">
        <ele>435</ele>
        <time>2011-06-26T16:24:48Z</time>
      </trkpt>
      <trkpt lat="44.04164" lon="1.7225">
        <ele>435</ele>
        <time>2011-06-26T16:24:50Z</time>
      </trkpt>
      <trkpt lat="44.04171" lon="1.72256">
        <ele>435</ele>
        <time>2011-06-26T16:24:52Z</time>
      </trkpt>
      <trkpt lat="44.04178" lon="1.72261">
        <ele>435</ele>
        <time>2011-06-26T16:24:54Z</time>
      </trkpt>
      <trkpt lat="44.04185" lon="1.72267">
        <ele>435</ele>
        <time>2011-06-26T16:24:56Z</time>
      </trkpt>
      <trkpt lat="44.04191" lon="1.72274">
        <ele>435</ele>
        <time>2011-06-26T16:24:58Z</time>
      </trkpt>
      <trkpt lat="44.04197" lon="1.72282">
        <ele>435</ele>
        <time>2011-06-26T16:25:00Z</time>
      </trkpt>
      <trkpt lat="44.04201" lon="1.72291">
        <ele>436</ele>
        <time>2011-06-26T16:25:02Z</time>
      </trkpt>
      <trkpt lat="44.04205" lon="1.723">
        <ele>436</ele>
        <time>2011-06-26T16:25:04Z</time>
      </trkpt>
      <trkpt lat="44.04208" lon="1.72309">
        <ele>436</ele>
        <time>2011-06-26T16:25:06Z</time>
      </trkpt>
      <trkpt lat="44.04212" lon="1.72319">
        <ele>437</ele>
        <time>2011-06-26T16:25:08Z</time>
      </trkpt>
      <trkpt lat="44.04217" lon="1.72328">
        <ele>437</ele>
        <time>2011-06-26T16:25:10Z</time>
      </trkpt>
      <trkpt lat="44.04221" lon="1.72337">
        <ele>438</ele>
        <time>2011-06-26T16:25:12Z</time>
      </trkpt>
      <trkpt lat="44.04226" lon="1.72346">
        <ele>438</ele>
        <time>2011-06-26T16:25:14Z</time>
      </trkpt>
      <trkpt lat="44.04231" lon="1.72355">
        <ele>438</ele>
        <time>2011-06-26T16:25:16Z</time>
      </trkpt>
      <trkpt lat="44.04237" lon="1.72363">
        <ele>438</ele>
        <time>2011-06-26T16:25:18Z</time>
      </trkpt>
      <trkpt lat="44.04242" lon="1.72372">
        <ele>439</ele>
        <time>2011-06-26T16:25:20Z</time>
      </trkpt>
      <trkpt lat="44.04248" lon="1.7238">
        <ele>439</ele>
        <time>2011-06-26T16:25:22Z</time>
      </trkpt>
      <trkpt lat="44.04254" lon="1.7239">
        <ele>440</ele>
        <time>2011-06-26T16:25:24Z</time>
      </trkpt>
      <trkpt lat="44.04261" lon="1.724">
        <ele>440</ele>
        <time>2011-06-26T16:25:26Z</time>
      </trkpt>
      <trkpt lat="44.04269" lon="1.72412">
        <ele>440</ele>
        <time>2011-06-26T16:25:28Z</time>
      </trkpt>
      <trkpt lat="44.04277" lon="1.72425">
        <ele>440</ele>
        <time>2011-06-26T16:25:30Z</time>
      </trkpt>
      <trkpt lat="44.04285" lon="1.72439">
        <ele>440</ele>
        <time>2011-06-26T16:25:32Z</time>
      </trkpt>
      <trkpt lat="44.04292" lon="1.72452">
        <ele>440</ele>
        <time>2011-06-26T16:25:34Z</time>
      </trkpt>
      <trkpt lat="44.04299" lon="1.72464">
        <ele>440</ele>
        <time>2011-06-26T16:25:36Z</time>
      </trkpt>
      <trkpt lat="44.04306" lon="1.72476">
        <ele>440</ele>
        <time>2011-06-26T16:25:38Z</time>
      </trkpt>
      <trkpt lat="44.04314" lon="1.72486">
        <ele>440</ele>
        <time>2011-06-26T16:25:40Z</time>
      </trkpt>
      <trkpt lat="44.04323" lon="1.72491">
        <ele>440</ele>
        <time>2011-06-26T16:25:42Z</time>
      </trkpt>
      <trkpt lat="44.04332" lon="1.72493">
        <ele>440</ele>
        <time>2011-06-26T16:25:44Z</time>
      </trkpt>
      <trkpt lat="44.04342" lon="1.72494">
        <ele>440</ele>
        <time>2011-06-26T16:25:46Z</time>
      </trkpt>
      <trkpt lat="44.04351" lon="1.72494">
        <ele>440</ele>
        <time>2011-06-26T16:25:48Z</time>
      </trkpt>
      <trkpt lat="44.04361" lon="1.72494">
        <ele>440</ele>
        <time>2011-06-26T16:25:50Z</time>
      </trkpt>
      <trkpt lat="44.04371" lon="1.72495">
        <ele>440</ele>
        <time>2011-06-26T16:25:52Z</time>
      </trkpt>
      <trkpt lat="44.04382" lon="1.72497">
        <ele>440</ele>
        <time>2011-06-26T16:25:54Z</time>
      </trkpt>
      <trkpt lat="44.04393" lon="1.72501">
        <ele>440</ele>
        <time>2011-06-26T16:25:56Z</time>
      </trkpt>
      <trkpt lat="44.04404" lon="1.72506">
        <ele>440</ele>
        <time>2011-06-26T16:25:58Z</time>
      </trkpt>
      <trkpt lat="44.04414" lon="1.72513">
        <ele>440</ele>
        <time>2011-06-26T16:26:00Z</time>
      </trkpt>
      <trkpt lat="44.04422" lon="1.72517">
        <ele>440</ele>
        <time>2011-06-26T16:26:02Z</time>
      </trkpt>
      <trkpt lat="44.04425" lon="1.72519">
        <ele>440</ele>
        <time>2011-06-26T16:26:06Z</time>
      </trkpt>
      <trkpt lat="44.04427" lon="1.72519">
        <ele>440</ele>
        <time>2011-06-26T16:26:08Z</time>
      </trkpt>
      <trkpt lat="44.04425" lon="1.72518">
        <ele>440</ele>
        <time>2011-06-26T16:26:18Z</time>
      </trkpt>
      <trkpt lat="44.04426" lon="1.7252">
        <ele>440</ele>
        <time>2011-06-26T16:26:26Z</time>
      </trkpt>
      <trkpt lat="44.04428" lon="1.72524">
        <ele>440</ele>
        <time>2011-06-26T16:26:28Z</time>
      </trkpt>
      <trkpt lat="44.04432" lon="1.72529">
        <ele>440</ele>
        <time>2011-06-26T16:26:30Z</time>
      </trkpt>
      <trkpt lat="44.04439" lon="1.72536">
        <ele>440</ele>
        <time>2011-06-26T16:26:32Z</time>
      </trkpt>
      <trkpt lat="44.04448" lon="1.72545">
        <ele>440</ele>
        <time>2011-06-26T16:26:34Z</time>
      </trkpt>
      <trkpt lat="44.04459" lon="1.72555">
        <ele>440</ele>
        <time>2011-06-26T16:26:36Z</time>
      </trkpt>
      <trkpt lat="44.0447" lon="1.72566">
        <ele>440</ele>
        <time>2011-06-26T16:26:38Z</time>
      </trkpt>
      <trkpt lat="44.04482" lon="1.72577">
        <ele>440</ele>
        <time>2011-06-26T16:26:40Z</time>
      </trkpt>
      <trkpt lat="44.04494" lon="1.72589">
        <ele>439</ele>
        <time>2011-06-26T16:26:42Z</time>
      </trkpt>
      <trkpt lat="44.04507" lon="1.72602">
        <ele>439</ele>
        <time>2011-06-26T16:26:44Z</time>
      </trkpt>
      <trkpt lat="44.04523" lon="1.72616">
        <ele>437</ele>
        <time>2011-06-26T16:26:46Z</time>
      </trkpt>
      <trkpt lat="44.04539" lon="1.7263">
        <ele>436</ele>
        <time>2011-06-26T16:26:48Z</time>
      </trkpt>
      <trkpt lat="44.04554" lon="1.72645">
        <ele>434</ele>
        <time>2011-06-26T16:26:50Z</time>
      </trkpt>
      <trkpt lat="44.0457" lon="1.72659">
        <ele>433</ele>
        <time>2011-06-26T16:26:52Z</time>
      </trkpt>
      <trkpt lat="44.04587" lon="1.72675">
        <ele>432</ele>
        <time>2011-06-26T16:26:54Z</time>
      </trkpt>
      <trkpt lat="44.04603" lon="1.72689">
        <ele>431</ele>
        <time>2011-06-26T16:26:56Z</time>
      </trkpt>
      <trkpt lat="44.04619" lon="1.72705">
        <ele>430</ele>
        <time>2011-06-26T16:26:58Z</time>
      </trkpt>
      <trkpt lat="44.04634" lon="1.7272">
        <ele>429</ele>
        <time>2011-06-26T16:27:00Z</time>
      </trkpt>
      <trkpt lat="44.0465" lon="1.72734">
        <ele>428</ele>
        <time>2011-06-26T16:27:02Z</time>
      </trkpt>
      <trkpt lat="44.04665" lon="1.72748">
        <ele>428</ele>
        <time>2011-06-26T16:27:04Z</time>
      </trkpt>
      <trkpt lat="44.04679" lon="1.72761">
        <ele>428</ele>
        <time>2011-06-26T16:27:06Z</time>
      </trkpt>
      <trkpt lat="44.04692" lon="1.72773">
        <ele>428</ele>
        <time>2011-06-26T16:27:08Z</time>
      </trkpt>
      <trkpt lat="44.04705" lon="1.72786">
        <ele>427</ele>
        <time>2011-06-26T16:27:10Z</time>
      </trkpt>
      <trkpt lat="44.04718" lon="1.72799">
        <ele>426</ele>
        <time>2011-06-26T16:27:12Z</time>
      </trkpt>
      <trkpt lat="44.04732" lon="1.72813">
        <ele>424</ele>
        <time>2011-06-26T16:27:14Z</time>
      </trkpt>
      <trkpt lat="44.04747" lon="1.72826">
        <ele>422</ele>
        <time>2011-06-26T16:27:16Z</time>
      </trkpt>
      <trkpt lat="44.0476" lon="1.72838">
        <ele>420</ele>
        <time>2011-06-26T16:27:18Z</time>
      </trkpt>
      <trkpt lat="44.04772" lon="1.72847">
        <ele>419</ele>
        <time>2011-06-26T16:27:20Z</time>
      </trkpt>
      <trkpt lat="44.04784" lon="1.72857">
        <ele>418</ele>
        <time>2011-06-26T16:27:22Z</time>
      </trkpt>
      <trkpt lat="44.04792" lon="1.72866">
        <ele>417</ele>
        <time>2011-06-26T16:27:24Z</time>
      </trkpt>
      <trkpt lat="44.04799" lon="1.72876">
        <ele>417</ele>
        <time>2011-06-26T16:27:26Z</time>
      </trkpt>
      <trkpt lat="44.04803" lon="1.72886">
        <ele>416</ele>
        <time>2011-06-26T16:27:28Z</time>
      </trkpt>
      <trkpt lat="44.04806" lon="1.72893">
        <ele>416</ele>
        <time>2011-06-26T16:27:30Z</time>
      </trkpt>
      <trkpt lat="44.04806" lon="1.72896">
        <ele>416</ele>
        <time>2011-06-26T16:27:33Z</time>
      </trkpt>
      <trkpt lat="44.04806" lon="1.72895">
        <ele>415</ele>
        <time>2011-06-26T16:27:35Z</time>
      </trkpt>
      <trkpt lat="44.04807" lon="1.72896">
        <ele>415</ele>
        <time>2011-06-26T16:27:42Z</time>
      </trkpt>
      <trkpt lat="44.04808" lon="1.72898">
        <ele>415</ele>
        <time>2011-06-26T16:27:44Z</time>
      </trkpt>
      <trkpt lat="44.0481" lon="1.72903">
        <ele>415</ele>
        <time>2011-06-26T16:27:47Z</time>
      </trkpt>
      <trkpt lat="44.04811" lon="1.72905">
        <ele>415</ele>
        <time>2011-06-26T16:27:49Z</time>
      </trkpt>
      <trkpt lat="44.04813" lon="1.72907">
        <ele>415</ele>
        <time>2011-06-26T16:27:51Z</time>
      </trkpt>
      <trkpt lat="44.04814" lon="1.72909">
        <ele>415</ele>
        <time>2011-06-26T16:27:55Z</time>
      </trkpt>
      <trkpt lat="44.04815" lon="1.72909">
        <ele>415</ele>
        <time>2011-06-26T16:28:01Z</time>
      </trkpt>
      <trkpt lat="44.04816" lon="1.72909">
        <ele>415</ele>
        <time>2011-06-26T16:28:04Z</time>
      </trkpt>
      <trkpt lat="44.04818" lon="1.72909">
        <ele>415</ele>
        <time>2011-06-26T16:28:09Z</time>
      </trkpt>
      <trkpt lat="44.04819" lon="1.72909">
        <ele>415</ele>
        <time>2011-06-26T16:28:12Z</time>
      </trkpt>
      <trkpt lat="44.04819" lon="1.72911">
        <ele>414</ele>
        <time>2011-06-26T16:28:21Z</time>
      </trkpt>
      <trkpt lat="44.04818" lon="1.72912">
        <ele>414</ele>
        <time>2011-06-26T16:28:25Z</time>
      </trkpt>
      <trkpt lat="44.04817" lon="1.72912">
        <ele>414</ele>
        <time>2011-06-26T16:28:27Z</time>
      </trkpt>
      <trkpt lat="44.04816" lon="1.7291">
        <ele>414</ele>
        <time>2011-06-26T16:28:30Z</time>
      </trkpt>
      <trkpt lat="44.04815" lon="1.72908">
        <ele>414</ele>
        <time>2011-06-26T16:28:34Z</time>
      </trkpt>
      <trkpt lat="44.04814" lon="1.72907">
        <ele>414</ele>
        <time>2011-06-26T16:28:39Z</time>
      </trkpt>
      <trkpt lat="44.04813" lon="1.72905">
        <ele>414</ele>
        <time>2011-06-26T16:28:47Z</time>
      </trkpt>
      <trkpt lat="44.04812" lon="1.72904">
        <ele>414</ele>
        <time>2011-06-26T16:28:50Z</time>
      </trkpt>
      <trkpt lat="44.04812" lon="1.72902">
        <ele>414</ele>
        <time>2011-06-26T16:28:56Z</time>
      </trkpt>
      <trkpt lat="44.04812" lon="1.729">
        <ele>414</ele>
        <time>2011-06-26T16:29:01Z</time>
      </trkpt>
      <trkpt lat="44.04812" lon="1.72902">
        <ele>414</ele>
        <time>2011-06-26T16:29:07Z</time>
      </trkpt>
      <trkpt lat="44.04813" lon="1.729">
        <ele>414</ele>
        <time>2011-06-26T16:29:17Z</time>
      </trkpt>
      <trkpt lat="44.04813" lon="1.72902">
        <ele>414</ele>
        <time>2011-06-26T16:29:23Z</time>
      </trkpt>
      <trkpt lat="44.04813" lon="1.72904">
        <ele>414</ele>
        <time>2011-06-26T16:29:26Z</time>
      </trkpt>
      <trkpt lat="44.04812" lon="1.72905">
        <ele>414</ele>
        <time>2011-06-26T16:29:36Z</time>
      </trkpt>
      <trkpt lat="44.04812" lon="1.72906">
        <ele>414</ele>
        <time>2011-06-26T16:29:40Z</time>
      </trkpt>
      <trkpt lat="44.0481" lon="1.72908">
        <ele>414</ele>
        <time>2011-06-26T16:29:44Z</time>
      </trkpt>
      <trkpt lat="44.04809" lon="1.72908">
        <ele>414</ele>
        <time>2011-06-26T16:29:49Z</time>
      </trkpt>
      <trkpt lat="44.04808" lon="1.72908">
        <ele>414</ele>
        <time>2011-06-26T16:29:54Z</time>
      </trkpt>
      <trkpt lat="44.04807" lon="1.72909">
        <ele>414</ele>
        <time>2011-06-26T16:29:59Z</time>
      </trkpt>
      <trkpt lat="44.04806" lon="1.7291">
        <ele>414</ele>
        <time>2011-06-26T16:30:04Z</time>
      </trkpt>
      <trkpt lat="44.04805" lon="1.72908">
        <ele>414</ele>
        <time>2011-06-26T16:30:09Z</time>
      </trkpt>
      <trkpt lat="44.04806" lon="1.72907">
        <ele>415</ele>
        <time>2011-06-26T16:30:16Z</time>
      </trkpt>
      <trkpt lat="44.04808" lon="1.72906">
        <ele>415</ele>
        <time>2011-06-26T16:30:29Z</time>
      </trkpt>
      <trkpt lat="44.04809" lon="1.72905">
        <ele>415</ele>
        <time>2011-06-26T16:31:02Z</time>
      </trkpt>
      <trkpt lat="44.0481" lon="1.72904">
        <ele>415</ele>
        <time>2011-06-26T16:31:04Z</time>
      </trkpt>
      <trkpt lat="44.04812" lon="1.72902">
        <ele>415</ele>
        <time>2011-06-26T16:31:06Z</time>
      </trkpt>
      <trkpt lat="44.04811" lon="1.72903">
        <ele>415</ele>
        <time>2011-06-26T16:31:16Z</time>
      </trkpt>
      <trkpt lat="44.04812" lon="1.72904">
        <ele>415</ele>
        <time>2011-06-26T16:31:21Z</time>
      </trkpt>
      <trkpt lat="44.04811" lon="1.72905">
        <ele>414</ele>
        <time>2011-06-26T16:31:31Z</time>
      </trkpt>
      <trkpt lat="44.04811" lon="1.72906">
        <ele>414</ele>
        <time>2011-06-26T16:31:39Z</time>
      </trkpt>
      <trkpt lat="44.0481" lon="1.72907">
        <ele>414</ele>
        <time>2011-06-26T16:31:49Z</time>
      </trkpt>
      <trkpt lat="44.04809" lon="1.72909">
        <ele>413</ele>
        <time>2011-06-26T16:31:59Z</time>
      </trkpt>
      <trkpt lat="44.04808" lon="1.7291">
        <ele>413</ele>
        <time>2011-06-26T16:32:03Z</time>
      </trkpt>
      <trkpt lat="44.04808" lon="1.72908">
        <ele>413</ele>
        <time>2011-06-26T16:32:09Z</time>
      </trkpt>
      <trkpt lat="44.04808" lon="1.72906">
        <ele>413</ele>
        <time>2011-06-26T16:32:18Z</time>
      </trkpt>
      <trkpt lat="44.04808" lon="1.72905">
        <ele>413</ele>
        <time>2011-06-26T16:32:20Z</time>
      </trkpt>
      <trkpt lat="44.04809" lon="1.72903">
        <ele>413</ele>
        <time>2011-06-26T16:32:23Z</time>
      </trkpt>
      <trkpt lat="44.0481" lon="1.72903">
        <ele>410</ele>
        <time>2011-06-26T16:32:33Z</time>
      </trkpt>
      <trkpt lat="44.04811" lon="1.72902">
        <ele>410</ele>
        <time>2011-06-26T16:32:43Z</time>
      </trkpt>
      <trkpt lat="44.04811" lon="1.729">
        <ele>412</ele>
        <time>2011-06-26T16:32:48Z</time>
      </trkpt>
      <trkpt lat="44.04813" lon="1.72902">
        <ele>413</ele>
        <time>2011-06-26T16:32:57Z</time>
      </trkpt>
      <trkpt lat="44.04812" lon="1.729">
        <ele>413</ele>
        <time>2011-06-26T16:33:14Z</time>
      </trkpt>
      <trkpt lat="44.04812" lon="1.72899">
        <ele>415</ele>
        <time>2011-06-26T16:33:26Z</time>
      </trkpt>
      <trkpt lat="44.04812" lon="1.729">
        <ele>416</ele>
        <time>2011-06-26T16:33:33Z</time>
      </trkpt>
      <trkpt lat="44.04813" lon="1.72902">
        <ele>416</ele>
        <time>2011-06-26T16:33:40Z</time>
      </trkpt>
      <trkpt lat="44.04813" lon="1.72901">
        <ele>416</ele>
        <time>2011-06-26T16:33:50Z</time>
      </trkpt>
      <trkpt lat="44.04813" lon="1.72899">
        <ele>416</ele>
        <time>2011-06-26T16:33:54Z</time>
      </trkpt>
      <trkpt lat="44.04813" lon="1.72898">
        <ele>416</ele>
        <time>2011-06-26T16:33:56Z</time>
      </trkpt>
      <trkpt lat="44.04811" lon="1.72898">
        <ele>416</ele>
        <time>2011-06-26T16:34:03Z</time>
      </trkpt>
      <trkpt lat="44.04808" lon="1.72897">
        <ele>416</ele>
        <time>2011-06-26T16:34:08Z</time>
      </trkpt>
      <trkpt lat="44.04807" lon="1.72898">
        <ele>418</ele>
        <time>2011-06-26T16:34:13Z</time>
      </trkpt>
      <trkpt lat="44.04805" lon="1.72898">
        <ele>420</ele>
        <time>2011-06-26T16:34:18Z</time>
      </trkpt>
      <trkpt lat="44.04806" lon="1.72896">
        <ele>421</ele>
        <time>2011-06-26T16:34:20Z</time>
      </trkpt>
      <trkpt lat="44.04807" lon="1.72894">
        <ele>422</ele>
        <time>2011-06-26T16:34:22Z</time>
      </trkpt>
      <trkpt lat="44.04808" lon="1.72892">
        <ele>422</ele>
        <time>2011-06-26T16:34:25Z</time>
      </trkpt>
      <trkpt lat="44.04809" lon="1.72891">
        <ele>423</ele>
        <time>2011-06-26T16:34:31Z</time>
      </trkpt>
      <trkpt lat="44.0481" lon="1.72893">
        <ele>423</ele>
        <time>2011-06-26T16:34:46Z</time>
      </trkpt>
      <trkpt lat="44.04813" lon="1.72895">
        <ele>423</ele>
        <time>2011-06-26T16:34:49Z</time>
      </trkpt>
      <trkpt lat="44.04813" lon="1.72897">
        <ele>421</ele>
        <time>2011-06-26T16:34:51Z</time>
      </trkpt>
      <trkpt lat="44.04812" lon="1.72898">
        <ele>419</ele>
        <time>2011-06-26T16:34:53Z</time>
      </trkpt>
      <trkpt lat="44.04812" lon="1.729">
        <ele>418</ele>
        <time>2011-06-26T16:34:55Z</time>
      </trkpt>
      <trkpt lat="44.04811" lon="1.72902">
        <ele>417</ele>
        <time>2011-06-26T16:34:57Z</time>
      </trkpt>
      <trkpt lat="44.04811" lon="1.72904">
        <ele>415</ele>
        <time>2011-06-26T16:35:00Z</time>
      </trkpt>
      <trkpt lat="44.04811" lon="1.72905">
        <ele>414</ele>
        <time>2011-06-26T16:35:03Z</time>
      </trkpt>
      <trkpt lat="44.0481" lon="1.72907">
        <ele>414</ele>
        <time>2011-06-26T16:35:07Z</time>
      </trkpt>
      <trkpt lat="44.0481" lon="1.72908">
        <ele>413</ele>
        <time>2011-06-26T16:35:15Z</time>
      </trkpt>
      <trkpt lat="44.04809" lon="1.7291">
        <ele>412</ele>
        <time>2011-06-26T16:35:28Z</time>
      </trkpt>
      <trkpt lat="44.0481" lon="1.72907">
        <ele>412</ele>
        <time>2011-06-26T16:35:36Z</time>
      </trkpt>
      <trkpt lat="44.0481" lon="1.72905">
        <ele>412</ele>
        <time>2011-06-26T16:35:43Z</time>
      </trkpt>
      <trkpt lat="44.04811" lon="1.72902">
        <ele>412</ele>
        <time>2011-06-26T16:35:45Z</time>
      </trkpt>
      <trkpt lat="44.04813" lon="1.729">
        <ele>412</ele>
        <time>2011-06-26T16:35:48Z</time>
      </trkpt>
      <trkpt lat="44.04813" lon="1.72902">
        <ele>412</ele>
        <time>2011-06-26T16:35:57Z</time>
      </trkpt>
      <trkpt lat="44.04813" lon="1.72903">
        <ele>412</ele>
        <time>2011-06-26T16:36:01Z</time>
      </trkpt>
      <trkpt lat="44.04813" lon="1.72905">
        <ele>412</ele>
        <time>2011-06-26T16:36:10Z</time>
      </trkpt>
      <trkpt lat="44.04813" lon="1.72906">
        <ele>412</ele>
        <time>2011-06-26T16:36:17Z</time>
      </trkpt>
      <trkpt lat="44.04811" lon="1.72907">
        <ele>412</ele>
        <time>2011-06-26T16:36:29Z</time>
      </trkpt>
      <trkpt lat="44.04813" lon="1.72906">
        <ele>412</ele>
        <time>2011-06-26T16:36:31Z</time>
      </trkpt>
      <trkpt lat="44.04811" lon="1.72906">
        <ele>412</ele>
        <time>2011-06-26T16:36:36Z</time>
      </trkpt>
      <trkpt lat="44.04812" lon="1.72904">
        <ele>412</ele>
        <time>2011-06-26T16:36:42Z</time>
      </trkpt>
      <trkpt lat="44.04812" lon="1.72903">
        <ele>412</ele>
        <time>2011-06-26T16:36:48Z</time>
      </trkpt>
      <trkpt lat="44.04812" lon="1.729">
        <ele>412</ele>
        <time>2011-06-26T16:36:51Z</time>
      </trkpt>
      <trkpt lat="44.04812" lon="1.72899">
        <ele>412</ele>
        <time>2011-06-26T16:36:53Z</time>
      </trkpt>
      <trkpt lat="44.04812" lon="1.72897">
        <ele>413</ele>
        <time>2011-06-26T16:36:59Z</time>
      </trkpt>
      <trkpt lat="44.04811" lon="1.72899">
        <ele>414</ele>
        <time>2011-06-26T16:37:11Z</time>
      </trkpt>
      <trkpt lat="44.04811" lon="1.729">
        <ele>414</ele>
        <time>2011-06-26T16:37:23Z</time>
      </trkpt>
      <trkpt lat="44.04811" lon="1.72899">
        <ele>414</ele>
        <time>2011-06-26T16:37:38Z</time>
      </trkpt>
      <trkpt lat="44.04811" lon="1.72895">
        <ele>414</ele>
        <time>2011-06-26T16:37:41Z</time>
      </trkpt>
      <trkpt lat="44.04811" lon="1.72897">
        <ele>415</ele>
        <time>2011-06-26T16:37:49Z</time>
      </trkpt>
      <trkpt lat="44.04811" lon="1.72898">
        <ele>415</ele>
        <time>2011-06-26T16:37:54Z</time>
      </trkpt>
      <trkpt lat="44.04811" lon="1.729">
        <ele>415</ele>
        <time>2011-06-26T16:38:01Z</time>
      </trkpt>
      <trkpt lat="44.04811" lon="1.72902">
        <ele>415</ele>
        <time>2011-06-26T16:38:04Z</time>
      </trkpt>
      <trkpt lat="44.04812" lon="1.72903">
        <ele>414</ele>
        <time>2011-06-26T16:38:09Z</time>
      </trkpt>
      <trkpt lat="44.04813" lon="1.72905">
        <ele>411</ele>
        <time>2011-06-26T16:38:17Z</time>
      </trkpt>
      <trkpt lat="44.04812" lon="1.72906">
        <ele>411</ele>
        <time>2011-06-26T16:38:26Z</time>
      </trkpt>
      <trkpt lat="44.04811" lon="1.72907">
        <ele>411</ele>
        <time>2011-06-26T16:38:32Z</time>
      </trkpt>
      <trkpt lat="44.04812" lon="1.72907">
        <ele>411</ele>
        <time>2011-06-26T16:38:38Z</time>
      </trkpt>
      <trkpt lat="44.04813" lon="1.72905">
        <ele>409</ele>
        <time>2011-06-26T16:38:43Z</time>
      </trkpt>
      <trkpt lat="44.04813" lon="1.72904">
        <ele>409</ele>
        <time>2011-06-26T16:38:46Z</time>
      </trkpt>
      <trkpt lat="44.04812" lon="1.72904">
        <ele>409</ele>
        <time>2011-06-26T16:38:56Z</time>
      </trkpt>
      <trkpt lat="44.04813" lon="1.72903">
        <ele>409</ele>
        <time>2011-06-26T16:39:10Z</time>
      </trkpt>
      <trkpt lat="44.04811" lon="1.72903">
        <ele>409</ele>
        <time>2011-06-26T16:39:37Z</time>
      </trkpt>
      <trkpt lat="44.04812" lon="1.72903">
        <ele>410</ele>
        <time>2011-06-26T16:39:47Z</time>
      </trkpt>
      <trkpt lat="44.04813" lon="1.72904">
        <ele>410</ele>
        <time>2011-06-26T16:39:51Z</time>
      </trkpt>
      <trkpt lat="44.04815" lon="1.72905">
        <ele>410</ele>
        <time>2011-06-26T16:40:00Z</time>
      </trkpt>
      <trkpt lat="44.04815" lon="1.72906">
        <ele>410</ele>
        <time>2011-06-26T16:40:13Z</time>
      </trkpt>
      <trkpt lat="44.04813" lon="1.72906">
        <ele>410</ele>
        <time>2011-06-26T16:40:26Z</time>
      </trkpt>
      <trkpt lat="44.04812" lon="1.72906">
        <ele>410</ele>
        <time>2011-06-26T16:40:45Z</time>
      </trkpt>
      <trkpt lat="44.04813" lon="1.72904">
        <ele>410</ele>
        <time>2011-06-26T16:40:48Z</time>
      </trkpt>
      <trkpt lat="44.04811" lon="1.72904">
        <ele>411</ele>
        <time>2011-06-26T16:40:53Z</time>
      </trkpt>
      <trkpt lat="44.04813" lon="1.72905">
        <ele>416</ele>
        <time>2011-06-26T16:41:01Z</time>
      </trkpt>
      <trkpt lat="44.04814" lon="1.72905">
        <ele>416</ele>
        <time>2011-06-26T16:41:03Z</time>
      </trkpt>
      <trkpt lat="44.04814" lon="1.72906">
        <ele>416</ele>
        <time>2011-06-26T16:41:06Z</time>
      </trkpt>
      <trkpt lat="44.04813" lon="1.72905">
        <ele>416</ele>
        <time>2011-06-26T16:41:42Z</time>
      </trkpt>
      <trkpt lat="44.04812" lon="1.72906">
        <ele>416</ele>
        <time>2011-06-26T16:41:45Z</time>
      </trkpt>
      <trkpt lat="44.04811" lon="1.72907">
        <ele>416</ele>
        <time>2011-06-26T16:41:50Z</time>
      </trkpt>
      <trkpt lat="44.0481" lon="1.72908">
        <ele>416</ele>
        <time>2011-06-26T16:41:55Z</time>
      </trkpt>
      <trkpt lat="44.04811" lon="1.72906">
        <ele>416</ele>
        <time>2011-06-26T16:42:11Z</time>
      </trkpt>
      <trkpt lat="44.04811" lon="1.72905">
        <ele>416</ele>
        <time>2011-06-26T16:42:22Z</time>
      </trkpt>
      <trkpt lat="44.04811" lon="1.72906">
        <ele>416</ele>
        <time>2011-06-26T16:42:38Z</time>
      </trkpt>
      <trkpt lat="44.0481" lon="1.72907">
        <ele>416</ele>
        <time>2011-06-26T16:43:01Z</time>
      </trkpt>
      <trkpt lat="44.0481" lon="1.72906">
        <ele>416</ele>
        <time>2011-06-26T16:43:16Z</time>
      </trkpt>
      <trkpt lat="44.04811" lon="1.72907">
        <ele>416</ele>
        <time>2011-06-26T16:43:24Z</time>
      </trkpt>
      <trkpt lat="44.04811" lon="1.72908">
        <ele>416</ele>
        <time>2011-06-26T16:43:29Z</time>
      </trkpt>
      <trkpt lat="44.04811" lon="1.7291">
        <ele>416</ele>
        <time>2011-06-26T16:43:39Z</time>
      </trkpt>
      <trkpt lat="44.0481" lon="1.72912">
        <ele>416</ele>
        <time>2011-06-26T16:43:45Z</time>
      </trkpt>
      <trkpt lat="44.0481" lon="1.72914">
        <ele>416</ele>
        <time>2011-06-26T16:43:47Z</time>
      </trkpt>
      <trkpt lat="44.0481" lon="1.72915">
        <ele>416</ele>
        <time>2011-06-26T16:43:49Z</time>
      </trkpt>
      <trkpt lat="44.0481" lon="1.72914">
        <ele>417</ele>
        <time>2011-06-26T16:44:09Z</time>
      </trkpt>
      <trkpt lat="44.04809" lon="1.72912">
        <ele>417</ele>
        <time>2011-06-26T16:44:13Z</time>
      </trkpt>
      <trkpt lat="44.0481" lon="1.7291">
        <ele>417</ele>
        <time>2011-06-26T16:44:16Z</time>
      </trkpt>
      <trkpt lat="44.04811" lon="1.72908">
        <ele>416</ele>
        <time>2011-06-26T16:44:20Z</time>
      </trkpt>
      <trkpt lat="44.04812" lon="1.72907">
        <ele>416</ele>
        <time>2011-06-26T16:44:23Z</time>
      </trkpt>
      <trkpt lat="44.04813" lon="1.72906">
        <ele>415</ele>
        <time>2011-06-26T16:44:28Z</time>
      </trkpt>
      <trkpt lat="44.04814" lon="1.72906">
        <ele>415</ele>
        <time>2011-06-26T16:44:36Z</time>
      </trkpt>
      <trkpt lat="44.04814" lon="1.72907">
        <ele>414</ele>
        <time>2011-06-26T16:44:50Z</time>
      </trkpt>
      <trkpt lat="44.04813" lon="1.72909">
        <ele>414</ele>
        <time>2011-06-26T16:44:53Z</time>
      </trkpt>
      <trkpt lat="44.04813" lon="1.72911">
        <ele>414</ele>
        <time>2011-06-26T16:44:57Z</time>
      </trkpt>
      <trkpt lat="44.04814" lon="1.7291">
        <ele>414</ele>
        <time>2011-06-26T16:45:10Z</time>
      </trkpt>
      <trkpt lat="44.04815" lon="1.72909">
        <ele>414</ele>
        <time>2011-06-26T16:45:13Z</time>
      </trkpt>
      <trkpt lat="44.04816" lon="1.72908">
        <ele>413</ele>
        <time>2011-06-26T16:45:16Z</time>
      </trkpt>
      <trkpt lat="44.04817" lon="1.72906">
        <ele>412</ele>
        <time>2011-06-26T16:45:20Z</time>
      </trkpt>
      <trkpt lat="44.04818" lon="1.72906">
        <ele>411</ele>
        <time>2011-06-26T16:45:22Z</time>
      </trkpt>
      <trkpt lat="44.04819" lon="1.72905">
        <ele>410</ele>
        <time>2011-06-26T16:45:28Z</time>
      </trkpt>
      <trkpt lat="44.04821" lon="1.72904">
        <ele>409</ele>
        <time>2011-06-26T16:45:31Z</time>
      </trkpt>
      <trkpt lat="44.04822" lon="1.72906">
        <ele>409</ele>
        <time>2011-06-26T16:45:35Z</time>
      </trkpt>
      <trkpt lat="44.04821" lon="1.72907">
        <ele>409</ele>
        <time>2011-06-26T16:45:38Z</time>
      </trkpt>
      <trkpt lat="44.04822" lon="1.72909">
        <ele>409</ele>
        <time>2011-06-26T16:45:41Z</time>
      </trkpt>
      <trkpt lat="44.04824" lon="1.72912">
        <ele>410</ele>
        <time>2011-06-26T16:45:43Z</time>
      </trkpt>
      <trkpt lat="44.04827" lon="1.72917">
        <ele>410</ele>
        <time>2011-06-26T16:45:45Z</time>
      </trkpt>
      <trkpt lat="44.04831" lon="1.72923">
        <ele>410</ele>
        <time>2011-06-26T16:45:47Z</time>
      </trkpt>
      <trkpt lat="44.04835" lon="1.72928">
        <ele>410</ele>
        <time>2011-06-26T16:45:49Z</time>
      </trkpt>
      <trkpt lat="44.0484" lon="1.72935">
        <ele>410</ele>
        <time>2011-06-26T16:45:51Z</time>
      </trkpt>
      <trkpt lat="44.04846" lon="1.72942">
        <ele>410</ele>
        <time>2011-06-26T16:45:53Z</time>
      </trkpt>
      <trkpt lat="44.04851" lon="1.72949">
        <ele>411</ele>
        <time>2011-06-26T16:45:55Z</time>
      </trkpt>
      <trkpt lat="44.04856" lon="1.72957">
        <ele>411</ele>
        <time>2011-06-26T16:45:57Z</time>
      </trkpt>
      <trkpt lat="44.04861" lon="1.72966">
        <ele>411</ele>
        <time>2011-06-26T16:45:59Z</time>
      </trkpt>
      <trkpt lat="44.04865" lon="1.72973">
        <ele>412</ele>
        <time>2011-06-26T16:46:01Z</time>
      </trkpt>
      <trkpt lat="44.0487" lon="1.7298">
        <ele>412</ele>
        <time>2011-06-26T16:46:03Z</time>
      </trkpt>
      <trkpt lat="44.04875" lon="1.72986">
        <ele>413</ele>
        <time>2011-06-26T16:46:05Z</time>
      </trkpt>
      <trkpt lat="44.04881" lon="1.72992">
        <ele>413</ele>
        <time>2011-06-26T16:46:07Z</time>
      </trkpt>
      <trkpt lat="44.04887" lon="1.72997">
        <ele>413</ele>
        <time>2011-06-26T16:46:09Z</time>
      </trkpt>
      <trkpt lat="44.04895" lon="1.73003">
        <ele>413</ele>
        <time>2011-06-26T16:46:11Z</time>
      </trkpt>
      <trkpt lat="44.04904" lon="1.7301">
        <ele>413</ele>
        <time>2011-06-26T16:46:13Z</time>
      </trkpt>
      <trkpt lat="44.04914" lon="1.73019">
        <ele>413</ele>
        <time>2011-06-26T16:46:15Z</time>
      </trkpt>
      <trkpt lat="44.04924" lon="1.73031">
        <ele>413</ele>
        <time>2011-06-26T16:46:17Z</time>
      </trkpt>
      <trkpt lat="44.04934" lon="1.73044">
        <ele>413</ele>
        <time>2011-06-26T16:46:19Z</time>
      </trkpt>
      <trkpt lat="44.04945" lon="1.73059">
        <ele>413</ele>
        <time>2011-06-26T16:46:21Z</time>
      </trkpt>
      <trkpt lat="44.04956" lon="1.73075">
        <ele>413</ele>
        <time>2011-06-26T16:46:23Z</time>
      </trkpt>
      <trkpt lat="44.04968" lon="1.7309">
        <ele>413</ele>
        <time>2011-06-26T16:46:25Z</time>
      </trkpt>
      <trkpt lat="44.04981" lon="1.73103">
        <ele>413</ele>
        <time>2011-06-26T16:46:27Z</time>
      </trkpt>
      <trkpt lat="44.04995" lon="1.73112">
        <ele>413</ele>
        <time>2011-06-26T16:46:29Z</time>
      </trkpt>
      <trkpt lat="44.05009" lon="1.73113">
        <ele>413</ele>
        <time>2011-06-26T16:46:31Z</time>
      </trkpt>
      <trkpt lat="44.05023" lon="1.73107">
        <ele>413</ele>
        <time>2011-06-26T16:46:33Z</time>
      </trkpt>
      <trkpt lat="44.05034" lon="1.73094">
        <ele>412</ele>
        <time>2011-06-26T16:46:35Z</time>
      </trkpt>
      <trkpt lat="44.05044" lon="1.7308">
        <ele>412</ele>
        <time>2011-06-26T16:46:37Z</time>
      </trkpt>
      <trkpt lat="44.05053" lon="1.73066">
        <ele>412</ele>
        <time>2011-06-26T16:46:39Z</time>
      </trkpt>
      <trkpt lat="44.05061" lon="1.73053">
        <ele>412</ele>
        <time>2011-06-26T16:46:41Z</time>
      </trkpt>
      <trkpt lat="44.0507" lon="1.7304">
        <ele>412</ele>
        <time>2011-06-26T16:46:43Z</time>
      </trkpt>
      <trkpt lat="44.05078" lon="1.73028">
        <ele>412</ele>
        <time>2011-06-26T16:46:45Z</time>
      </trkpt>
      <trkpt lat="44.05087" lon="1.73017">
        <ele>412</ele>
        <time>2011-06-26T16:46:47Z</time>
      </trkpt>
      <trkpt lat="44.05098" lon="1.7301">
        <ele>412</ele>
        <time>2011-06-26T16:46:49Z</time>
      </trkpt>
      <trkpt lat="44.0511" lon="1.73008">
        <ele>412</ele>
        <time>2011-06-26T16:46:51Z</time>
      </trkpt>
      <trkpt lat="44.05123" lon="1.73012">
        <ele>412</ele>
        <time>2011-06-26T16:46:53Z</time>
      </trkpt>
      <trkpt lat="44.05133" lon="1.73022">
        <ele>412</ele>
        <time>2011-06-26T16:46:55Z</time>
      </trkpt>
      <trkpt lat="44.05141" lon="1.73033">
        <ele>412</ele>
        <time>2011-06-26T16:46:57Z</time>
      </trkpt>
      <trkpt lat="44.05148" lon="1.73046">
        <ele>412</ele>
        <time>2011-06-26T16:46:59Z</time>
      </trkpt>
      <trkpt lat="44.05155" lon="1.73058">
        <ele>413</ele>
        <time>2011-06-26T16:47:01Z</time>
      </trkpt>
      <trkpt lat="44.0516" lon="1.7307">
        <ele>413</ele>
        <time>2011-06-26T16:47:03Z</time>
      </trkpt>
      <trkpt lat="44.05167" lon="1.7308">
        <ele>413</ele>
        <time>2011-06-26T16:47:05Z</time>
      </trkpt>
      <trkpt lat="44.05176" lon="1.73088">
        <ele>414</ele>
        <time>2011-06-26T16:47:07Z</time>
      </trkpt>
      <trkpt lat="44.05185" lon="1.73095">
        <ele>415</ele>
        <time>2011-06-26T16:47:09Z</time>
      </trkpt>
      <trkpt lat="44.05194" lon="1.73099">
        <ele>416</ele>
        <time>2011-06-26T16:47:11Z</time>
      </trkpt>
      <trkpt lat="44.05204" lon="1.731">
        <ele>416</ele>
        <time>2011-06-26T16:47:13Z</time>
      </trkpt>
      <trkpt lat="44.05213" lon="1.73099">
        <ele>417</ele>
        <time>2011-06-26T16:47:15Z</time>
      </trkpt>
      <trkpt lat="44.05222" lon="1.73094">
        <ele>417</ele>
        <time>2011-06-26T16:47:17Z</time>
      </trkpt>
      <trkpt lat="44.05231" lon="1.73089">
        <ele>417</ele>
        <time>2011-06-26T16:47:19Z</time>
      </trkpt>
      <trkpt lat="44.0524" lon="1.73082">
        <ele>417</ele>
        <time>2011-06-26T16:47:21Z</time>
      </trkpt>
      <trkpt lat="44.05249" lon="1.73074">
        <ele>417</ele>
        <time>2011-06-26T16:47:23Z</time>
      </trkpt>
      <trkpt lat="44.05259" lon="1.73067">
        <ele>417</ele>
        <time>2011-06-26T16:47:25Z</time>
      </trkpt>
      <trkpt lat="44.05268" lon="1.7306">
        <ele>417</ele>
        <time>2011-06-26T16:47:27Z</time>
      </trkpt>
      <trkpt lat="44.05277" lon="1.73053">
        <ele>418</ele>
        <time>2011-06-26T16:47:29Z</time>
      </trkpt>
      <trkpt lat="44.05285" lon="1.73046">
        <ele>418</ele>
        <time>2011-06-26T16:47:31Z</time>
      </trkpt>
      <trkpt lat="44.05294" lon="1.73038">
        <ele>419</ele>
        <time>2011-06-26T16:47:33Z</time>
      </trkpt>
      <trkpt lat="44.05302" lon="1.73031">
        <ele>419</ele>
        <time>2011-06-26T16:47:35Z</time>
      </trkpt>
      <trkpt lat="44.0531" lon="1.73025">
        <ele>419</ele>
        <time>2011-06-26T16:47:37Z</time>
      </trkpt>
      <trkpt lat="44.05318" lon="1.73021">
        <ele>419</ele>
        <time>2011-06-26T16:47:39Z</time>
      </trkpt>
      <trkpt lat="44.05328" lon="1.73019">
        <ele>420</ele>
        <time>2011-06-26T16:47:41Z</time>
      </trkpt>
      <trkpt lat="44.05337" lon="1.7302">
        <ele>420</ele>
        <time>2011-06-26T16:47:43Z</time>
      </trkpt>
      <trkpt lat="44.05346" lon="1.73023">
        <ele>421</ele>
        <time>2011-06-26T16:47:45Z</time>
      </trkpt>
      <trkpt lat="44.05355" lon="1.73028">
        <ele>421</ele>
        <time>2011-06-26T16:47:47Z</time>
      </trkpt>
      <trkpt lat="44.05364" lon="1.73033">
        <ele>422</ele>
        <time>2011-06-26T16:47:49Z</time>
      </trkpt>
      <trkpt lat="44.05373" lon="1.7304">
        <ele>423</ele>
        <time>2011-06-26T16:47:51Z</time>
      </trkpt>
      <trkpt lat="44.05381" lon="1.73046">
        <ele>424</ele>
        <time>2011-06-26T16:47:53Z</time>
      </trkpt>
      <trkpt lat="44.05389" lon="1.73052">
        <ele>424</ele>
        <time>2011-06-26T16:47:55Z</time>
      </trkpt>
      <trkpt lat="44.05396" lon="1.73058">
        <ele>425</ele>
        <time>2011-06-26T16:47:57Z</time>
      </trkpt>
      <trkpt lat="44.05404" lon="1.73064">
        <ele>425</ele>
        <time>2011-06-26T16:47:59Z</time>
      </trkpt>
      <trkpt lat="44.05412" lon="1.7307">
        <ele>426</ele>
        <time>2011-06-26T16:48:01Z</time>
      </trkpt>
      <trkpt lat="44.0542" lon="1.73076">
        <ele>426</ele>
        <time>2011-06-26T16:48:03Z</time>
      </trkpt>
      <trkpt lat="44.05428" lon="1.73082">
        <ele>427</ele>
        <time>2011-06-26T16:48:05Z</time>
      </trkpt>
      <trkpt lat="44.05435" lon="1.73087">
        <ele>427</ele>
        <time>2011-06-26T16:48:07Z</time>
      </trkpt>
      <trkpt lat="44.05443" lon="1.73092">
        <ele>428</ele>
        <time>2011-06-26T16:48:09Z</time>
      </trkpt>
      <trkpt lat="44.05451" lon="1.73098">
        <ele>428</ele>
        <time>2011-06-26T16:48:11Z</time>
      </trkpt>
      <trkpt lat="44.05458" lon="1.73103">
        <ele>429</ele>
        <time>2011-06-26T16:48:13Z</time>
      </trkpt>
      <trkpt lat="44.05465" lon="1.73109">
        <ele>429</ele>
        <time>2011-06-26T16:48:15Z</time>
      </trkpt>
      <trkpt lat="44.05471" lon="1.73116">
        <ele>429</ele>
        <time>2011-06-26T16:48:17Z</time>
      </trkpt>
      <trkpt lat="44.05477" lon="1.73125">
        <ele>429</ele>
        <time>2011-06-26T16:48:19Z</time>
      </trkpt>
      <trkpt lat="44.05482" lon="1.73137">
        <ele>429</ele>
        <time>2011-06-26T16:48:21Z</time>
      </trkpt>
      <trkpt lat="44.05487" lon="1.7315">
        <ele>429</ele>
        <time>2011-06-26T16:48:23Z</time>
      </trkpt>
      <trkpt lat="44.0549" lon="1.73164">
        <ele>429</ele>
        <time>2011-06-26T16:48:25Z</time>
      </trkpt>
      <trkpt lat="44.05494" lon="1.73178">
        <ele>429</ele>
        <time>2011-06-26T16:48:27Z</time>
      </trkpt>
      <trkpt lat="44.05499" lon="1.73193">
        <ele>429</ele>
        <time>2011-06-26T16:48:29Z</time>
      </trkpt>
      <trkpt lat="44.05505" lon="1.73207">
        <ele>429</ele>
        <time>2011-06-26T16:48:31Z</time>
      </trkpt>
      <trkpt lat="44.05513" lon="1.73222">
        <ele>429</ele>
        <time>2011-06-26T16:48:33Z</time>
      </trkpt>
      <trkpt lat="44.05523" lon="1.73237">
        <ele>429</ele>
        <time>2011-06-26T16:48:35Z</time>
      </trkpt>
      <trkpt lat="44.05534" lon="1.73255">
        <ele>429</ele>
        <time>2011-06-26T16:48:37Z</time>
      </trkpt>
      <trkpt lat="44.05545" lon="1.73273">
        <ele>429</ele>
        <time>2011-06-26T16:48:39Z</time>
      </trkpt>
      <trkpt lat="44.05558" lon="1.73293">
        <ele>427</ele>
        <time>2011-06-26T16:48:41Z</time>
      </trkpt>
      <trkpt lat="44.05578" lon="1.73325">
        <ele>425</ele>
        <time>2011-06-26T16:48:44Z</time>
      </trkpt>
      <trkpt lat="44.05593" lon="1.73347">
        <ele>423</ele>
        <time>2011-06-26T16:48:46Z</time>
      </trkpt>
      <trkpt lat="44.05608" lon="1.7337">
        <ele>421</ele>
        <time>2011-06-26T16:48:48Z</time>
      </trkpt>
      <trkpt lat="44.05623" lon="1.73395">
        <ele>419</ele>
        <time>2011-06-26T16:48:50Z</time>
      </trkpt>
      <trkpt lat="44.05633" lon="1.73425">
        <ele>417</ele>
        <time>2011-06-26T16:48:52Z</time>
      </trkpt>
      <trkpt lat="44.05638" lon="1.73459">
        <ele>415</ele>
        <time>2011-06-26T16:48:54Z</time>
      </trkpt>
      <trkpt lat="44.0564" lon="1.73493">
        <ele>413</ele>
        <time>2011-06-26T16:48:56Z</time>
      </trkpt>
      <trkpt lat="44.05643" lon="1.73527">
        <ele>411</ele>
        <time>2011-06-26T16:48:58Z</time>
      </trkpt>
      <trkpt lat="44.05645" lon="1.73559">
        <ele>409</ele>
        <time>2011-06-26T16:49:00Z</time>
      </trkpt>
      <trkpt lat="44.05648" lon="1.73591">
        <ele>407</ele>
        <time>2011-06-26T16:49:02Z</time>
      </trkpt>
      <trkpt lat="44.05649" lon="1.7362">
        <ele>405</ele>
        <time>2011-06-26T16:49:04Z</time>
      </trkpt>
      <trkpt lat="44.05646" lon="1.73645">
        <ele>404</ele>
        <time>2011-06-26T16:49:06Z</time>
      </trkpt>
      <trkpt lat="44.05641" lon="1.73669">
        <ele>404</ele>
        <time>2011-06-26T16:49:08Z</time>
      </trkpt>
      <trkpt lat="44.05635" lon="1.7369">
        <ele>404</ele>
        <time>2011-06-26T16:49:10Z</time>
      </trkpt>
      <trkpt lat="44.05629" lon="1.7371">
        <ele>404</ele>
        <time>2011-06-26T16:49:12Z</time>
      </trkpt>
      <trkpt lat="44.05622" lon="1.73728">
        <ele>404</ele>
        <time>2011-06-26T16:49:14Z</time>
      </trkpt>
      <trkpt lat="44.05615" lon="1.73744">
        <ele>404</ele>
        <time>2011-06-26T16:49:16Z</time>
      </trkpt>
      <trkpt lat="44.05606" lon="1.73757">
        <ele>404</ele>
        <time>2011-06-26T16:49:18Z</time>
      </trkpt>
      <trkpt lat="44.05597" lon="1.73767">
        <ele>404</ele>
        <time>2011-06-26T16:49:20Z</time>
      </trkpt>
      <trkpt lat="44.05588" lon="1.73778">
        <ele>405</ele>
        <time>2011-06-26T16:49:22Z</time>
      </trkpt>
      <trkpt lat="44.05581" lon="1.73788">
        <ele>406</ele>
        <time>2011-06-26T16:49:24Z</time>
      </trkpt>
      <trkpt lat="44.05576" lon="1.738">
        <ele>407</ele>
        <time>2011-06-26T16:49:26Z</time>
      </trkpt>
      <trkpt lat="44.05573" lon="1.73811">
        <ele>407</ele>
        <time>2011-06-26T16:49:28Z</time>
      </trkpt>
      <trkpt lat="44.05571" lon="1.73823">
        <ele>408</ele>
        <time>2011-06-26T16:49:30Z</time>
      </trkpt>
      <trkpt lat="44.0557" lon="1.73833">
        <ele>408</ele>
        <time>2011-06-26T16:49:32Z</time>
      </trkpt>
      <trkpt lat="44.0557" lon="1.73845">
        <ele>409</ele>
        <time>2011-06-26T16:49:34Z</time>
      </trkpt>
      <trkpt lat="44.0557" lon="1.73855">
        <ele>411</ele>
        <time>2011-06-26T16:49:36Z</time>
      </trkpt>
      <trkpt lat="44.0557" lon="1.73866">
        <ele>413</ele>
        <time>2011-06-26T16:49:38Z</time>
      </trkpt>
      <trkpt lat="44.05571" lon="1.73877">
        <ele>415</ele>
        <time>2011-06-26T16:49:40Z</time>
      </trkpt>
      <trkpt lat="44.05571" lon="1.73888">
        <ele>416</ele>
        <time>2011-06-26T16:49:42Z</time>
      </trkpt>
      <trkpt lat="44.05571" lon="1.73898">
        <ele>418</ele>
        <time>2011-06-26T16:49:44Z</time>
      </trkpt>
      <trkpt lat="44.05572" lon="1.73909">
        <ele>419</ele>
        <time>2011-06-26T16:49:46Z</time>
      </trkpt>
      <trkpt lat="44.05573" lon="1.73919">
        <ele>421</ele>
        <time>2011-06-26T16:49:48Z</time>
      </trkpt>
      <trkpt lat="44.05576" lon="1.7393">
        <ele>423</ele>
        <time>2011-06-26T16:49:50Z</time>
      </trkpt>
      <trkpt lat="44.05579" lon="1.7394">
        <ele>425</ele>
        <time>2011-06-26T16:49:52Z</time>
      </trkpt>
      <trkpt lat="44.05581" lon="1.7395">
        <ele>427</ele>
        <time>2011-06-26T16:49:54Z</time>
      </trkpt>
      <trkpt lat="44.05583" lon="1.7396">
        <ele>429</ele>
        <time>2011-06-26T16:49:56Z</time>
      </trkpt>
      <trkpt lat="44.05587" lon="1.7397">
        <ele>431</ele>
        <time>2011-06-26T16:49:58Z</time>
      </trkpt>
      <trkpt lat="44.05589" lon="1.73979">
        <ele>432</ele>
        <time>2011-06-26T16:50:00Z</time>
      </trkpt>
      <trkpt lat="44.05591" lon="1.73989">
        <ele>433</ele>
        <time>2011-06-26T16:50:02Z</time>
      </trkpt>
      <trkpt lat="44.05593" lon="1.73999">
        <ele>433</ele>
        <time>2011-06-26T16:50:04Z</time>
      </trkpt>
      <trkpt lat="44.05596" lon="1.74009">
        <ele>433</ele>
        <time>2011-06-26T16:50:06Z</time>
      </trkpt>
      <trkpt lat="44.05598" lon="1.7402">
        <ele>433</ele>
        <time>2011-06-26T16:50:08Z</time>
      </trkpt>
      <trkpt lat="44.056" lon="1.74031">
        <ele>433</ele>
        <time>2011-06-26T16:50:10Z</time>
      </trkpt>
      <trkpt lat="44.05602" lon="1.74041">
        <ele>434</ele>
        <time>2011-06-26T16:50:12Z</time>
      </trkpt>
      <trkpt lat="44.05601" lon="1.74051">
        <ele>434</ele>
        <time>2011-06-26T16:50:14Z</time>
      </trkpt>
      <trkpt lat="44.05601" lon="1.7406">
        <ele>434</ele>
        <time>2011-06-26T16:50:16Z</time>
      </trkpt>
      <trkpt lat="44.05603" lon="1.74071">
        <ele>434</ele>
        <time>2011-06-26T16:50:18Z</time>
      </trkpt>
      <trkpt lat="44.05606" lon="1.74081">
        <ele>434</ele>
        <time>2011-06-26T16:50:20Z</time>
      </trkpt>
      <trkpt lat="44.05607" lon="1.74091">
        <ele>435</ele>
        <time>2011-06-26T16:50:22Z</time>
      </trkpt>
      <trkpt lat="44.05608" lon="1.741">
        <ele>435</ele>
        <time>2011-06-26T16:50:24Z</time>
      </trkpt>
      <trkpt lat="44.05609" lon="1.7411">
        <ele>435</ele>
        <time>2011-06-26T16:50:26Z</time>
      </trkpt>
      <trkpt lat="44.0561" lon="1.74119">
        <ele>436</ele>
        <time>2011-06-26T16:50:28Z</time>
      </trkpt>
      <trkpt lat="44.05611" lon="1.74128">
        <ele>436</ele>
        <time>2011-06-26T16:50:30Z</time>
      </trkpt>
      <trkpt lat="44.05611" lon="1.74137">
        <ele>437</ele>
        <time>2011-06-26T16:50:32Z</time>
      </trkpt>
      <trkpt lat="44.05613" lon="1.74145">
        <ele>437</ele>
        <time>2011-06-26T16:50:34Z</time>
      </trkpt>
      <trkpt lat="44.05616" lon="1.74153">
        <ele>437</ele>
        <time>2011-06-26T16:50:36Z</time>
      </trkpt>
      <trkpt lat="44.05619" lon="1.74162">
        <ele>437</ele>
        <time>2011-06-26T16:50:38Z</time>
      </trkpt>
      <trkpt lat="44.05623" lon="1.7417">
        <ele>437</ele>
        <time>2011-06-26T16:50:40Z</time>
      </trkpt>
      <trkpt lat="44.05627" lon="1.74178">
        <ele>437</ele>
        <time>2011-06-26T16:50:42Z</time>
      </trkpt>
      <trkpt lat="44.05632" lon="1.74186">
        <ele>437</ele>
        <time>2011-06-26T16:50:44Z</time>
      </trkpt>
      <trkpt lat="44.05636" lon="1.74193">
        <ele>437</ele>
        <time>2011-06-26T16:50:46Z</time>
      </trkpt>
      <trkpt lat="44.05642" lon="1.74199">
        <ele>437</ele>
        <time>2011-06-26T16:50:48Z</time>
      </trkpt>
      <trkpt lat="44.05649" lon="1.74204">
        <ele>437</ele>
        <time>2011-06-26T16:50:50Z</time>
      </trkpt>
      <trkpt lat="44.05656" lon="1.74208">
        <ele>437</ele>
        <time>2011-06-26T16:50:52Z</time>
      </trkpt>
      <trkpt lat="44.05663" lon="1.74211">
        <ele>437</ele>
        <time>2011-06-26T16:50:54Z</time>
      </trkpt>
      <trkpt lat="44.05669" lon="1.74215">
        <ele>437</ele>
        <time>2011-06-26T16:50:56Z</time>
      </trkpt>
      <trkpt lat="44.05673" lon="1.74222">
        <ele>437</ele>
        <time>2011-06-26T16:50:58Z</time>
      </trkpt>
      <trkpt lat="44.05674" lon="1.74231">
        <ele>437</ele>
        <time>2011-06-26T16:51:00Z</time>
      </trkpt>
      <trkpt lat="44.05669" lon="1.74238">
        <ele>437</ele>
        <time>2011-06-26T16:51:02Z</time>
      </trkpt>
      <trkpt lat="44.05663" lon="1.74241">
        <ele>437</ele>
        <time>2011-06-26T16:51:04Z</time>
      </trkpt>
      <trkpt lat="44.05656" lon="1.74242">
        <ele>437</ele>
        <time>2011-06-26T16:51:06Z</time>
      </trkpt>
      <trkpt lat="44.05648" lon="1.74244">
        <ele>437</ele>
        <time>2011-06-26T16:51:08Z</time>
      </trkpt>
      <trkpt lat="44.05642" lon="1.74247">
        <ele>437</ele>
        <time>2011-06-26T16:51:10Z</time>
      </trkpt>
      <trkpt lat="44.05635" lon="1.7425">
        <ele>438</ele>
        <time>2011-06-26T16:51:12Z</time>
      </trkpt>
      <trkpt lat="44.05629" lon="1.74255">
        <ele>438</ele>
        <time>2011-06-26T16:51:14Z</time>
      </trkpt>
      <trkpt lat="44.05622" lon="1.74259">
        <ele>438</ele>
        <time>2011-06-26T16:51:16Z</time>
      </trkpt>
      <trkpt lat="44.05616" lon="1.74263">
        <ele>438</ele>
        <time>2011-06-26T16:51:18Z</time>
      </trkpt>
      <trkpt lat="44.05609" lon="1.74267">
        <ele>438</ele>
        <time>2011-06-26T16:51:20Z</time>
      </trkpt>
      <trkpt lat="44.05602" lon="1.74272">
        <ele>438</ele>
        <time>2011-06-26T16:51:22Z</time>
      </trkpt>
      <trkpt lat="44.05594" lon="1.74277">
        <ele>439</ele>
        <time>2011-06-26T16:51:24Z</time>
      </trkpt>
      <trkpt lat="44.05584" lon="1.74282">
        <ele>439</ele>
        <time>2011-06-26T16:51:26Z</time>
      </trkpt>
      <trkpt lat="44.05574" lon="1.74286">
        <ele>439</ele>
        <time>2011-06-26T16:51:28Z</time>
      </trkpt>
      <trkpt lat="44.05562" lon="1.74291">
        <ele>439</ele>
        <time>2011-06-26T16:51:30Z</time>
      </trkpt>
      <trkpt lat="44.0555" lon="1.74296">
        <ele>439</ele>
        <time>2011-06-26T16:51:32Z</time>
      </trkpt>
      <trkpt lat="44.05538" lon="1.74304">
        <ele>439</ele>
        <time>2011-06-26T16:51:34Z</time>
      </trkpt>
      <trkpt lat="44.05525" lon="1.74313">
        <ele>439</ele>
        <time>2011-06-26T16:51:36Z</time>
      </trkpt>
      <trkpt lat="44.05513" lon="1.74324">
        <ele>439</ele>
        <time>2011-06-26T16:51:38Z</time>
      </trkpt>
      <trkpt lat="44.055" lon="1.74337">
        <ele>439</ele>
        <time>2011-06-26T16:51:40Z</time>
      </trkpt>
      <trkpt lat="44.05486" lon="1.74352">
        <ele>439</ele>
        <time>2011-06-26T16:51:42Z</time>
      </trkpt>
      <trkpt lat="44.05475" lon="1.74368">
        <ele>439</ele>
        <time>2011-06-26T16:51:44Z</time>
      </trkpt>
      <trkpt lat="44.05468" lon="1.74388">
        <ele>438</ele>
        <time>2011-06-26T16:51:46Z</time>
      </trkpt>
      <trkpt lat="44.05466" lon="1.74408">
        <ele>436</ele>
        <time>2011-06-26T16:51:48Z</time>
      </trkpt>
      <trkpt lat="44.05468" lon="1.74423">
        <ele>436</ele>
        <time>2011-06-26T16:51:50Z</time>
      </trkpt>
      <trkpt lat="44.05467" lon="1.74438">
        <ele>436</ele>
        <time>2011-06-26T16:51:52Z</time>
      </trkpt>
      <trkpt lat="44.05465" lon="1.74452">
        <ele>435</ele>
        <time>2011-06-26T16:51:54Z</time>
      </trkpt>
      <trkpt lat="44.05463" lon="1.74466">
        <ele>435</ele>
        <time>2011-06-26T16:51:56Z</time>
      </trkpt>
      <trkpt lat="44.05462" lon="1.74478">
        <ele>435</ele>
        <time>2011-06-26T16:51:58Z</time>
      </trkpt>
      <trkpt lat="44.05461" lon="1.74489">
        <ele>435</ele>
        <time>2011-06-26T16:52:00Z</time>
      </trkpt>
      <trkpt lat="44.05458" lon="1.74498">
        <ele>435</ele>
        <time>2011-06-26T16:52:02Z</time>
      </trkpt>
      <trkpt lat="44.05455" lon="1.74506">
        <ele>435</ele>
        <time>2011-06-26T16:52:04Z</time>
      </trkpt>
      <trkpt lat="44.05452" lon="1.74514">
        <ele>435</ele>
        <time>2011-06-26T16:52:06Z</time>
      </trkpt>
      <trkpt lat="44.0545" lon="1.74522">
        <ele>437</ele>
        <time>2011-06-26T16:52:08Z</time>
      </trkpt>
      <trkpt lat="44.05448" lon="1.74531">
        <ele>439</ele>
        <time>2011-06-26T16:52:10Z</time>
      </trkpt>
      <trkpt lat="44.05445" lon="1.74539">
        <ele>441</ele>
        <time>2011-06-26T16:52:12Z</time>
      </trkpt>
      <trkpt lat="44.05441" lon="1.74546">
        <ele>442</ele>
        <time>2011-06-26T16:52:14Z</time>
      </trkpt>
      <trkpt lat="44.05434" lon="1.74551">
        <ele>443</ele>
        <time>2011-06-26T16:52:16Z</time>
      </trkpt>
      <trkpt lat="44.05427" lon="1.74554">
        <ele>444</ele>
        <time>2011-06-26T16:52:18Z</time>
      </trkpt>
      <trkpt lat="44.05421" lon="1.74553">
        <ele>444</ele>
        <time>2011-06-26T16:52:20Z</time>
      </trkpt>
      <trkpt lat="44.05415" lon="1.74552">
        <ele>445</ele>
        <time>2011-06-26T16:52:22Z</time>
      </trkpt>
      <trkpt lat="44.05408" lon="1.74552">
        <ele>445</ele>
        <time>2011-06-26T16:52:24Z</time>
      </trkpt>
      <trkpt lat="44.05401" lon="1.74557">
        <ele>446</ele>
        <time>2011-06-26T16:52:26Z</time>
      </trkpt>
      <trkpt lat="44.05396" lon="1.74562">
        <ele>448</ele>
        <time>2011-06-26T16:52:28Z</time>
      </trkpt>
      <trkpt lat="44.05391" lon="1.74567">
        <ele>448</ele>
        <time>2011-06-26T16:52:30Z</time>
      </trkpt>
      <trkpt lat="44.05386" lon="1.74572">
        <ele>448</ele>
        <time>2011-06-26T16:52:32Z</time>
      </trkpt>
      <trkpt lat="44.05381" lon="1.74576">
        <ele>448</ele>
        <time>2011-06-26T16:52:34Z</time>
      </trkpt>
      <trkpt lat="44.05377" lon="1.74581">
        <ele>448</ele>
        <time>2011-06-26T16:52:36Z</time>
      </trkpt>
      <trkpt lat="44.05373" lon="1.74585">
        <ele>448</ele>
        <time>2011-06-26T16:52:38Z</time>
      </trkpt>
      <trkpt lat="44.05368" lon="1.74588">
        <ele>448</ele>
        <time>2011-06-26T16:52:40Z</time>
      </trkpt>
      <trkpt lat="44.05364" lon="1.74586">
        <ele>448</ele>
        <time>2011-06-26T16:52:42Z</time>
      </trkpt>
      <trkpt lat="44.05359" lon="1.74583">
        <ele>448</ele>
        <time>2011-06-26T16:52:44Z</time>
      </trkpt>
      <trkpt lat="44.05355" lon="1.7458">
        <ele>448</ele>
        <time>2011-06-26T16:52:46Z</time>
      </trkpt>
      <trkpt lat="44.05349" lon="1.74581">
        <ele>448</ele>
        <time>2011-06-26T16:52:48Z</time>
      </trkpt>
      <trkpt lat="44.05344" lon="1.74584">
        <ele>448</ele>
        <time>2011-06-26T16:52:50Z</time>
      </trkpt>
      <trkpt lat="44.0534" lon="1.7459">
        <ele>448</ele>
        <time>2011-06-26T16:52:52Z</time>
      </trkpt>
      <trkpt lat="44.05338" lon="1.74596">
        <ele>448</ele>
        <time>2011-06-26T16:52:54Z</time>
      </trkpt>
      <trkpt lat="44.05336" lon="1.74603">
        <ele>448</ele>
        <time>2011-06-26T16:52:56Z</time>
      </trkpt>
      <trkpt lat="44.05334" lon="1.74609">
        <ele>448</ele>
        <time>2011-06-26T16:52:58Z</time>
      </trkpt>
      <trkpt lat="44.05331" lon="1.74614">
        <ele>448</ele>
        <time>2011-06-26T16:53:00Z</time>
      </trkpt>
      <trkpt lat="44.05326" lon="1.74618">
        <ele>449</ele>
        <time>2011-06-26T16:53:02Z</time>
      </trkpt>
      <trkpt lat="44.05323" lon="1.74623">
        <ele>450</ele>
        <time>2011-06-26T16:53:04Z</time>
      </trkpt>
      <trkpt lat="44.05322" lon="1.74624">
        <ele>450</ele>
        <time>2011-06-26T16:53:06Z</time>
      </trkpt>
      <trkpt lat="44.05323" lon="1.74623">
        <ele>450</ele>
        <time>2011-06-26T16:53:07Z</time>
      </trkpt>
    </trkseg>
  </trk>
</gpx>